﻿<?xml version="1.0" encoding="utf-8"?><gpx creator="Garmin Desktop App" version="1.1" xsi:schemaLocation="http://www.topografix.com/GPX/1/1 http://www.topografix.com/GPX/1/1/gpx.xsd http://www.garmin.com/xmlschemas/WaypointExtension/v1 http://www8.garmin.com/xmlschemas/WaypointExtensionv1.xsd http://www.garmin.com/xmlschemas/TrackPointExtension/v1 http://www.garmin.com/xmlschemas/TrackPointExtensionv1.xsd http://www.garmin.com/xmlschemas/GpxExtensions/v3 http://www8.garmin.com/xmlschemas/GpxExtensionsv3.xsd http://www.garmin.com/xmlschemas/ActivityExtension/v1 http://www8.garmin.com/xmlschemas/ActivityExtensionv1.xsd http://www.garmin.com/xmlschemas/AdventuresExtensions/v1 http://www8.garmin.com/xmlschemas/AdventuresExtensionv1.xsd http://www.garmin.com/xmlschemas/PressureExtension/v1 http://www.garmin.com/xmlschemas/PressureExtensionv1.xsd http://www.garmin.com/xmlschemas/TripExtensions/v1 http://www.garmin.com/xmlschemas/TripExtensionsv1.xsd http://www.garmin.com/xmlschemas/TripMetaDataExtensions/v1 http://www.garmin.com/xmlschemas/TripMetaDataExtensionsv1.xsd http://www.garmin.com/xmlschemas/ViaPointTransportationModeExtensions/v1 http://www.garmin.com/xmlschemas/ViaPointTransportationModeExtensionsv1.xsd http://www.garmin.com/xmlschemas/CreationTimeExtension/v1 http://www.garmin.com/xmlschemas/CreationTimeExtensionsv1.xsd http://www.garmin.com/xmlschemas/AccelerationExtension/v1 http://www.garmin.com/xmlschemas/AccelerationExtensionv1.xsd http://www.garmin.com/xmlschemas/PowerExtension/v1 http://www.garmin.com/xmlschemas/PowerExtensionv1.xsd http://www.garmin.com/xmlschemas/VideoExtension/v1 http://www.garmin.com/xmlschemas/VideoExtensionv1.xsd" xmlns="http://www.topografix.com/GPX/1/1" xmlns:xsi="http://www.w3.org/2001/XMLSchema-instance" xmlns:wptx1="http://www.garmin.com/xmlschemas/WaypointExtension/v1" xmlns:gpxtrx="http://www.garmin.com/xmlschemas/GpxExtensions/v3" xmlns:gpxtpx="http://www.garmin.com/xmlschemas/TrackPointExtension/v1" xmlns:gpxx="http://www.garmin.com/xmlschemas/GpxExtensions/v3" xmlns:trp="http://www.garmin.com/xmlschemas/TripExtensions/v1" xmlns:adv="http://www.garmin.com/xmlschemas/AdventuresExtensions/v1" xmlns:prs="http://www.garmin.com/xmlschemas/PressureExtension/v1" xmlns:tmd="http://www.garmin.com/xmlschemas/TripMetaDataExtensions/v1" xmlns:vptm="http://www.garmin.com/xmlschemas/ViaPointTransportationModeExtensions/v1" xmlns:ctx="http://www.garmin.com/xmlschemas/CreationTimeExtension/v1" xmlns:gpxacc="http://www.garmin.com/xmlschemas/AccelerationExtension/v1" xmlns:gpxpx="http://www.garmin.com/xmlschemas/PowerExtension/v1" xmlns:vidx1="http://www.garmin.com/xmlschemas/VideoExtension/v1">

  <metadata>
    <link href="http://www.garmin.com">
      <text>Garmin International</text>
    </link>
    <time>2018-09-16T18:33:17Z</time>
    <bounds maxlat="50.068479012697935" maxlon="10.720123993232846" minlat="47.352434014901519" minlon="8.412632988765836" />
  </metadata>

  <trk>
    <name>Track vom: 2018-09-16 07:23</name>
    <extensions>
      <gpxx:TrackExtension>
        <gpxx:DisplayColor>DarkGray</gpxx:DisplayColor>
      </gpxx:TrackExtension>
    </extensions>
    <trkseg>
      <trkpt lat="50.068394020199776" lon="8.478173017501831">
        <ele>106.36</ele>
        <time>2018-09-16T05:23:28Z</time>
      </trkpt>
      <trkpt lat="50.068440036848187" lon="8.478140998631716">
        <ele>111.17</ele>
        <time>2018-09-16T05:24:12Z</time>
      </trkpt>
      <trkpt lat="50.068435007706285" lon="8.478146027773619">
        <ele>111.65000000000001</ele>
        <time>2018-09-16T05:24:50Z</time>
      </trkpt>
      <trkpt lat="50.068420004099607" lon="8.478159019723535">
        <ele>110.69</ele>
        <time>2018-09-16T05:25:34Z</time>
      </trkpt>
      <trkpt lat="50.068413969129324" lon="8.478163965046406">
        <ele>110.69</ele>
        <time>2018-09-16T05:26:15Z</time>
      </trkpt>
      <trkpt lat="50.068409023806453" lon="8.478168994188309">
        <ele>110.69</ele>
        <time>2018-09-16T05:27:02Z</time>
      </trkpt>
      <trkpt lat="50.068413969129324" lon="8.478172011673451">
        <ele>110.20999999999999</ele>
        <time>2018-09-16T05:27:55Z</time>
      </trkpt>
      <trkpt lat="50.068413969129324" lon="8.478165976703167">
        <ele>110.20999999999999</ele>
        <time>2018-09-16T05:28:43Z</time>
      </trkpt>
      <trkpt lat="50.068413969129324" lon="8.478165976703167">
        <ele>110.20999999999999</ele>
        <time>2018-09-16T05:29:07Z</time>
      </trkpt>
      <trkpt lat="50.068421009927988" lon="8.478201013058424">
        <ele>109.73</ele>
        <time>2018-09-16T05:29:14Z</time>
      </trkpt>
      <trkpt lat="50.068479012697935" lon="8.478170000016689">
        <ele>109.73</ele>
        <time>2018-09-16T05:29:16Z</time>
      </trkpt>
      <trkpt lat="50.068389996886253" lon="8.478297991678119">
        <ele>109.73</ele>
        <time>2018-09-16T05:29:17Z</time>
      </trkpt>
      <trkpt lat="50.068355966359377" lon="8.478350965306163">
        <ele>109.73</ele>
        <time>2018-09-16T05:29:18Z</time>
      </trkpt>
      <trkpt lat="50.068322019651532" lon="8.478405028581619">
        <ele>109.25</ele>
        <time>2018-09-16T05:29:19Z</time>
      </trkpt>
      <trkpt lat="50.068292012438178" lon="8.478453978896141">
        <ele>108.77</ele>
        <time>2018-09-16T05:29:20Z</time>
      </trkpt>
      <trkpt lat="50.068267034366727" lon="8.478493960574269">
        <ele>108.29000000000001</ele>
        <time>2018-09-16T05:29:21Z</time>
      </trkpt>
      <trkpt lat="50.068247001618147" lon="8.478525979444385">
        <ele>107.81</ele>
        <time>2018-09-16T05:29:22Z</time>
      </trkpt>
      <trkpt lat="50.068229986354709" lon="8.478553975000978">
        <ele>107.31999999999999</ele>
        <time>2018-09-16T05:29:23Z</time>
      </trkpt>
      <trkpt lat="50.068213976919651" lon="8.47857803106308">
        <ele>106.84</ele>
        <time>2018-09-16T05:29:24Z</time>
      </trkpt>
      <trkpt lat="50.068109035491943" lon="8.478568978607655">
        <ele>106.36</ele>
        <time>2018-09-16T05:29:25Z</time>
      </trkpt>
      <trkpt lat="50.068086991086602" lon="8.478517010807991">
        <ele>105.88</ele>
        <time>2018-09-16T05:29:26Z</time>
      </trkpt>
      <trkpt lat="50.068058995530009" lon="8.478447021916509">
        <ele>105.40000000000001</ele>
        <time>2018-09-16T05:29:27Z</time>
      </trkpt>
      <trkpt lat="50.06780301220715" lon="8.477816032245755">
        <ele>103.48</ele>
        <time>2018-09-16T05:29:33Z</time>
      </trkpt>
      <trkpt lat="50.067702010273933" lon="8.477567005902529">
        <ele>103</ele>
        <time>2018-09-16T05:29:35Z</time>
      </trkpt>
      <trkpt lat="50.067170010879636" lon="8.4763010032475">
        <ele>106.84</ele>
        <time>2018-09-16T05:29:45Z</time>
      </trkpt>
      <trkpt lat="50.066565005108714" lon="8.474965011700988">
        <ele>108.77</ele>
        <time>2018-09-16T05:29:54Z</time>
      </trkpt>
      <trkpt lat="50.066544972360134" lon="8.474886976182461">
        <ele>108.77</ele>
        <time>2018-09-16T05:29:55Z</time>
      </trkpt>
      <trkpt lat="50.066380016505718" lon="8.474815981462598">
        <ele>108.77</ele>
        <time>2018-09-16T05:29:56Z</time>
      </trkpt>
      <trkpt lat="50.066331988200545" lon="8.474654965102673">
        <ele>108.77</ele>
        <time>2018-09-16T05:29:57Z</time>
      </trkpt>
      <trkpt lat="50.066280020400882" lon="8.474481040611863">
        <ele>108.77</ele>
        <time>2018-09-16T05:29:58Z</time>
      </trkpt>
      <trkpt lat="50.066226040944457" lon="8.474299991503358">
        <ele>109.25</ele>
        <time>2018-09-16T05:29:59Z</time>
      </trkpt>
      <trkpt lat="50.065619023516774" lon="8.472218010574579">
        <ele>111.65000000000001</ele>
        <time>2018-09-16T05:30:10Z</time>
      </trkpt>
      <trkpt lat="50.065430011600256" lon="8.471503034234047">
        <ele>112.13</ele>
        <time>2018-09-16T05:30:16Z</time>
      </trkpt>
      <trkpt lat="50.065380977466702" lon="8.47131603397429">
        <ele>113.56999999999999</ele>
        <time>2018-09-16T05:30:25Z</time>
      </trkpt>
      <trkpt lat="50.065274024382234" lon="8.470916971564293">
        <ele>113.56999999999999</ele>
        <time>2018-09-16T05:30:31Z</time>
      </trkpt>
      <trkpt lat="50.064963977783918" lon="8.469781978055835">
        <ele>113.56999999999999</ele>
        <time>2018-09-16T05:30:38Z</time>
      </trkpt>
      <trkpt lat="50.064842021092772" lon="8.469386016950011">
        <ele>114.05</ele>
        <time>2018-09-16T05:30:40Z</time>
      </trkpt>
      <trkpt lat="50.064778989180923" lon="8.469182001426816">
        <ele>114.53</ele>
        <time>2018-09-16T05:30:41Z</time>
      </trkpt>
      <trkpt lat="50.063944989815354" lon="8.466824004426599">
        <ele>116.94</ele>
        <time>2018-09-16T05:30:52Z</time>
      </trkpt>
      <trkpt lat="50.062920972704887" lon="8.463959991931915">
        <ele>120.78</ele>
        <time>2018-09-16T05:31:04Z</time>
      </trkpt>
      <trkpt lat="50.061712972819805" lon="8.460258040577173">
        <ele>125.11</ele>
        <time>2018-09-16T05:31:18Z</time>
      </trkpt>
      <trkpt lat="50.060093002393842" lon="8.455713037401438">
        <ele>126.06999999999999</ele>
        <time>2018-09-16T05:31:35Z</time>
      </trkpt>
      <trkpt lat="50.059294039383531" lon="8.454382997006178">
        <ele>125.11</ele>
        <time>2018-09-16T05:31:42Z</time>
      </trkpt>
      <trkpt lat="50.057584969326854" lon="8.452349966391921">
        <ele>124.15000000000001</ele>
        <time>2018-09-16T05:31:55Z</time>
      </trkpt>
      <trkpt lat="50.056539997458458" lon="8.450740976259112">
        <ele>122.70999999999999</ele>
        <time>2018-09-16T05:32:04Z</time>
      </trkpt>
      <trkpt lat="50.055285980924964" lon="8.447733968496323">
        <ele>123.67</ele>
        <time>2018-09-16T05:32:18Z</time>
      </trkpt>
      <trkpt lat="50.053697023540735" lon="8.445114959031344">
        <ele>123.67</ele>
        <time>2018-09-16T05:32:32Z</time>
      </trkpt>
      <trkpt lat="50.051682014018297" lon="8.442438030615449">
        <ele>123.19</ele>
        <time>2018-09-16T05:32:48Z</time>
      </trkpt>
      <trkpt lat="50.049860961735249" lon="8.440192015841603">
        <ele>122.70999999999999</ele>
        <time>2018-09-16T05:33:02Z</time>
      </trkpt>
      <trkpt lat="50.047888029366732" lon="8.438001992180944">
        <ele>123.19</ele>
        <time>2018-09-16T05:33:17Z</time>
      </trkpt>
      <trkpt lat="50.046828975901008" lon="8.436938999220729">
        <ele>122.22</ele>
        <time>2018-09-16T05:33:28Z</time>
      </trkpt>
      <trkpt lat="50.04629697650671" lon="8.436405993998051">
        <ele>120.3</ele>
        <time>2018-09-16T05:33:37Z</time>
      </trkpt>
      <trkpt lat="50.045925993472338" lon="8.435979019850493">
        <ele>118.38</ele>
        <time>2018-09-16T05:33:47Z</time>
      </trkpt>
      <trkpt lat="50.045884000137448" lon="8.435925040394068">
        <ele>118.38</ele>
        <time>2018-09-16T05:33:48Z</time>
      </trkpt>
      <trkpt lat="50.045324005186558" lon="8.435258008539677">
        <ele>119.81999999999999</ele>
        <time>2018-09-16T05:33:56Z</time>
      </trkpt>
      <trkpt lat="50.045088976621628" lon="8.434949973598123">
        <ele>119.34</ele>
        <time>2018-09-16T05:33:59Z</time>
      </trkpt>
      <trkpt lat="50.045011024922132" lon="8.434840003028512">
        <ele>118.86</ele>
        <time>2018-09-16T05:34:00Z</time>
      </trkpt>
      <trkpt lat="50.044333012774587" lon="8.433892009779811">
        <ele>116.45999999999999</ele>
        <time>2018-09-16T05:34:10Z</time>
      </trkpt>
      <trkpt lat="50.04421298392117" lon="8.43371900729835">
        <ele>116.94</ele>
        <time>2018-09-16T05:34:12Z</time>
      </trkpt>
      <trkpt lat="50.043713003396988" lon="8.433103021234274">
        <ele>118.86</ele>
        <time>2018-09-16T05:34:19Z</time>
      </trkpt>
      <trkpt lat="50.043647959828377" lon="8.433005036786199">
        <ele>118.86</ele>
        <time>2018-09-16T05:34:20Z</time>
      </trkpt>
      <trkpt lat="50.043585011735559" lon="8.432909986004233">
        <ele>118.86</ele>
        <time>2018-09-16T05:34:21Z</time>
      </trkpt>
      <trkpt lat="50.04352399148047" lon="8.432822981849313">
        <ele>118.86</ele>
        <time>2018-09-16T05:34:22Z</time>
      </trkpt>
      <trkpt lat="50.043464982882142" lon="8.43275198712945">
        <ele>118.86</ele>
        <time>2018-09-16T05:34:23Z</time>
      </trkpt>
      <trkpt lat="50.043249987065792" lon="8.432439006865025">
        <ele>118.38</ele>
        <time>2018-09-16T05:34:31Z</time>
      </trkpt>
      <trkpt lat="50.043163988739252" lon="8.432290982455015">
        <ele>118.86</ele>
        <time>2018-09-16T05:34:37Z</time>
      </trkpt>
      <trkpt lat="50.043069021776319" lon="8.432286037132144">
        <ele>118.86</ele>
        <time>2018-09-16T05:34:38Z</time>
      </trkpt>
      <trkpt lat="50.043037002906203" lon="8.432323001325131">
        <ele>118.86</ele>
        <time>2018-09-16T05:34:39Z</time>
      </trkpt>
      <trkpt lat="50.042983023449779" lon="8.43238796107471">
        <ele>118.86</ele>
        <time>2018-09-16T05:34:40Z</time>
      </trkpt>
      <trkpt lat="50.042918985709548" lon="8.432463984936476">
        <ele>118.86</ele>
        <time>2018-09-16T05:34:41Z</time>
      </trkpt>
      <trkpt lat="50.042850002646446" lon="8.432545959949493">
        <ele>118.38</ele>
        <time>2018-09-16T05:34:42Z</time>
      </trkpt>
      <trkpt lat="50.042250026017427" lon="8.433278035372496">
        <ele>116.45999999999999</ele>
        <time>2018-09-16T05:34:51Z</time>
      </trkpt>
      <trkpt lat="50.04185096360743" lon="8.433696962893009">
        <ele>119.34</ele>
        <time>2018-09-16T05:34:57Z</time>
      </trkpt>
      <trkpt lat="50.041649965569377" lon="8.433897960931063">
        <ele>119.34</ele>
        <time>2018-09-16T05:35:00Z</time>
      </trkpt>
      <trkpt lat="50.041585005819798" lon="8.433963004499674">
        <ele>119.81999999999999</ele>
        <time>2018-09-16T05:35:01Z</time>
      </trkpt>
      <trkpt lat="50.040694009512663" lon="8.434780994430184">
        <ele>121.73999999999999</ele>
        <time>2018-09-16T05:35:14Z</time>
      </trkpt>
      <trkpt lat="50.039736963808537" lon="8.435135968029499">
        <ele>120.3</ele>
        <time>2018-09-16T05:35:24Z</time>
      </trkpt>
      <trkpt lat="50.038908999413252" lon="8.435325985774398">
        <ele>117.42</ele>
        <time>2018-09-16T05:35:34Z</time>
      </trkpt>
      <trkpt lat="50.037923036143184" lon="8.435522960498929">
        <ele>115.5</ele>
        <time>2018-09-16T05:35:44Z</time>
      </trkpt>
      <trkpt lat="50.036621997132897" lon="8.435635026544333">
        <ele>111.65000000000001</ele>
        <time>2018-09-16T05:35:53Z</time>
      </trkpt>
      <trkpt lat="50.035492032766342" lon="8.435592027381063">
        <ele>107.31999999999999</ele>
        <time>2018-09-16T05:36:00Z</time>
      </trkpt>
      <trkpt lat="50.032590972259641" lon="8.435391029343009">
        <ele>103.48</ele>
        <time>2018-09-16T05:36:17Z</time>
      </trkpt>
      <trkpt lat="50.030810991302133" lon="8.434539008885622">
        <ele>104.44</ele>
        <time>2018-09-16T05:36:28Z</time>
      </trkpt>
      <trkpt lat="50.029292022809386" lon="8.434187974780798">
        <ele>103</ele>
        <time>2018-09-16T05:36:37Z</time>
      </trkpt>
      <trkpt lat="50.026550972834229" lon="8.433667961508036">
        <ele>99.150000000000006</ele>
        <time>2018-09-16T05:36:54Z</time>
      </trkpt>
      <trkpt lat="50.024914992973208" lon="8.433344000950456">
        <ele>97.709999999999994</ele>
        <time>2018-09-16T05:37:07Z</time>
      </trkpt>
      <trkpt lat="50.023344978690147" lon="8.43303102068603">
        <ele>97.230000000000004</ele>
        <time>2018-09-16T05:37:21Z</time>
      </trkpt>
      <trkpt lat="50.022222977131605" lon="8.432817030698061">
        <ele>98.670000000000002</ele>
        <time>2018-09-16T05:37:31Z</time>
      </trkpt>
      <trkpt lat="50.021707993000746" lon="8.432718040421605">
        <ele>97.709999999999994</ele>
        <time>2018-09-16T05:37:36Z</time>
      </trkpt>
      <trkpt lat="50.021642027422786" lon="8.432702030986548">
        <ele>97.709999999999994</ele>
        <time>2018-09-16T05:37:37Z</time>
      </trkpt>
      <trkpt lat="50.021556029096246" lon="8.432451998814941">
        <ele>97.709999999999994</ele>
        <time>2018-09-16T05:37:38Z</time>
      </trkpt>
      <trkpt lat="50.021569021046162" lon="8.432366000488401">
        <ele>97.709999999999994</ele>
        <time>2018-09-16T05:37:39Z</time>
      </trkpt>
      <trkpt lat="50.021582012996078" lon="8.432271033525467">
        <ele>97.230000000000004</ele>
        <time>2018-09-16T05:37:40Z</time>
      </trkpt>
      <trkpt lat="50.021596010774374" lon="8.432173971086741">
        <ele>97.230000000000004</ele>
        <time>2018-09-16T05:37:41Z</time>
      </trkpt>
      <trkpt lat="50.021611014381051" lon="8.432072969153523">
        <ele>97.230000000000004</ele>
        <time>2018-09-16T05:37:42Z</time>
      </trkpt>
      <trkpt lat="50.021668011322618" lon="8.431098992004991">
        <ele>95.790000000000006</ele>
        <time>2018-09-16T05:37:51Z</time>
      </trkpt>
      <trkpt lat="50.021541025489569" lon="8.430187040939927">
        <ele>95.790000000000006</ele>
        <time>2018-09-16T05:38:00Z</time>
      </trkpt>
      <trkpt lat="50.021514035761356" lon="8.430089978501201">
        <ele>95.790000000000006</ele>
        <time>2018-09-16T05:38:01Z</time>
      </trkpt>
      <trkpt lat="50.021487968042493" lon="8.429992999881506">
        <ele>96.269999999999996</ele>
        <time>2018-09-16T05:38:02Z</time>
      </trkpt>
      <trkpt lat="50.021240031346679" lon="8.429338959977031">
        <ele>99.150000000000006</ele>
        <time>2018-09-16T05:38:09Z</time>
      </trkpt>
      <trkpt lat="50.021049007773399" lon="8.429045006632805">
        <ele>99.150000000000006</ele>
        <time>2018-09-16T05:38:13Z</time>
      </trkpt>
      <trkpt lat="50.020999973639846" lon="8.428978035226464">
        <ele>99.150000000000006</ele>
        <time>2018-09-16T05:38:14Z</time>
      </trkpt>
      <trkpt lat="50.020945994183421" lon="8.42890502884984">
        <ele>99.150000000000006</ele>
        <time>2018-09-16T05:38:15Z</time>
      </trkpt>
      <trkpt lat="50.020773997530341" lon="8.42871299944818">
        <ele>99.629999999999995</ele>
        <time>2018-09-16T05:38:18Z</time>
      </trkpt>
      <trkpt lat="50.020714988932014" lon="8.428659019991756">
        <ele>100.11</ele>
        <time>2018-09-16T05:38:19Z</time>
      </trkpt>
      <trkpt lat="50.019935974851251" lon="8.428117968142033">
        <ele>98.670000000000002</ele>
        <time>2018-09-16T05:38:31Z</time>
      </trkpt>
      <trkpt lat="50.019757021218538" lon="8.427963992580771">
        <ele>98.189999999999998</ele>
        <time>2018-09-16T05:38:34Z</time>
      </trkpt>
      <trkpt lat="50.019702035933733" lon="8.427909007295966">
        <ele>98.189999999999998</ele>
        <time>2018-09-16T05:38:35Z</time>
      </trkpt>
      <trkpt lat="50.019472958520055" lon="8.42768001370132">
        <ele>98.670000000000002</ele>
        <time>2018-09-16T05:38:39Z</time>
      </trkpt>
      <trkpt lat="50.019295010715723" lon="8.427485972642899">
        <ele>98.670000000000002</ele>
        <time>2018-09-16T05:38:42Z</time>
      </trkpt>
      <trkpt lat="50.019041961058974" lon="8.42699496075511">
        <ele>98.670000000000002</ele>
        <time>2018-09-16T05:38:48Z</time>
      </trkpt>
      <trkpt lat="50.018911035731435" lon="8.426917009055615">
        <ele>98.189999999999998</ele>
        <time>2018-09-16T05:38:50Z</time>
      </trkpt>
      <trkpt lat="50.018846997991204" lon="8.426865041255951">
        <ele>98.189999999999998</ele>
        <time>2018-09-16T05:38:51Z</time>
      </trkpt>
      <trkpt lat="50.018722023814917" lon="8.426762027665973">
        <ele>97.230000000000004</ele>
        <time>2018-09-16T05:38:53Z</time>
      </trkpt>
      <trkpt lat="50.018659997731447" lon="8.426710981875658">
        <ele>96.75</ele>
        <time>2018-09-16T05:38:54Z</time>
      </trkpt>
      <trkpt lat="50.018517002463341" lon="8.42650000937283">
        <ele>96.269999999999996</ele>
        <time>2018-09-16T05:38:57Z</time>
      </trkpt>
      <trkpt lat="50.018282979726791" lon="8.426108993589878">
        <ele>95.790000000000006</ele>
        <time>2018-09-16T05:39:02Z</time>
      </trkpt>
      <trkpt lat="50.01802297309041" lon="8.425594009459019">
        <ele>95.790000000000006</ele>
        <time>2018-09-16T05:39:08Z</time>
      </trkpt>
      <trkpt lat="50.017716027796268" lon="8.424726985394955">
        <ele>95.790000000000006</ele>
        <time>2018-09-16T05:39:17Z</time>
      </trkpt>
      <trkpt lat="50.017684008926153" lon="8.424634030088782">
        <ele>95.310000000000002</ele>
        <time>2018-09-16T05:39:18Z</time>
      </trkpt>
      <trkpt lat="50.017652995884418" lon="8.424541996791959">
        <ele>95.310000000000002</ele>
        <time>2018-09-16T05:39:19Z</time>
      </trkpt>
      <trkpt lat="50.017620977014303" lon="8.424449963495135">
        <ele>95.310000000000002</ele>
        <time>2018-09-16T05:39:20Z</time>
      </trkpt>
      <trkpt lat="50.017588958144188" lon="8.424356002360582">
        <ele>95.310000000000002</ele>
        <time>2018-09-16T05:39:21Z</time>
      </trkpt>
      <trkpt lat="50.017533972859383" lon="8.424195991829038">
        <ele>94.829999999999998</ele>
        <time>2018-09-16T05:39:23Z</time>
      </trkpt>
      <trkpt lat="50.01748401671648" lon="8.424086021259427">
        <ele>94.349999999999994</ele>
        <time>2018-09-16T05:39:24Z</time>
      </trkpt>
      <trkpt lat="50.017445040866733" lon="8.424000022932887">
        <ele>93.870000000000005</ele>
        <time>2018-09-16T05:39:25Z</time>
      </trkpt>
      <trkpt lat="50.017405981197953" lon="8.423913018777967">
        <ele>93.390000000000001</ele>
        <time>2018-09-16T05:39:26Z</time>
      </trkpt>
      <trkpt lat="50.017367005348206" lon="8.423826014623046">
        <ele>92.900000000000006</ele>
        <time>2018-09-16T05:39:27Z</time>
      </trkpt>
      <trkpt lat="50.017327023670077" lon="8.423738004639745">
        <ele>92.420000000000002</ele>
        <time>2018-09-16T05:39:28Z</time>
      </trkpt>
      <trkpt lat="50.017287964001298" lon="8.423651000484824">
        <ele>91.939999999999998</ele>
        <time>2018-09-16T05:39:29Z</time>
      </trkpt>
      <trkpt lat="50.017171036452055" lon="8.42340599745512">
        <ele>90.980000000000004</ele>
        <time>2018-09-16T05:39:36Z</time>
      </trkpt>
      <trkpt lat="50.017037009820342" lon="8.423139033839107">
        <ele>90.980000000000004</ele>
        <time>2018-09-16T05:39:48Z</time>
      </trkpt>
      <trkpt lat="50.016633002087474" lon="8.422436965629458">
        <ele>91.939999999999998</ele>
        <time>2018-09-16T05:39:55Z</time>
      </trkpt>
      <trkpt lat="50.016562007367611" lon="8.422362031415105">
        <ele>91.939999999999998</ele>
        <time>2018-09-16T05:39:56Z</time>
      </trkpt>
      <trkpt lat="50.016245003789663" lon="8.422044022008777">
        <ele>92.900000000000006</ele>
        <time>2018-09-16T05:40:00Z</time>
      </trkpt>
      <trkpt lat="50.016157999634743" lon="8.421988030895591">
        <ele>92.900000000000006</ele>
        <time>2018-09-16T05:40:01Z</time>
      </trkpt>
      <trkpt lat="50.016069989651442" lon="8.421931033954024">
        <ele>93.870000000000005</ele>
        <time>2018-09-16T05:40:02Z</time>
      </trkpt>
      <trkpt lat="50.015989020466805" lon="8.421878982335329">
        <ele>94.829999999999998</ele>
        <time>2018-09-16T05:40:03Z</time>
      </trkpt>
      <trkpt lat="50.015896987169981" lon="8.421855010092259">
        <ele>95.310000000000002</ele>
        <time>2018-09-16T05:40:04Z</time>
      </trkpt>
      <trkpt lat="50.015821969136596" lon="8.421834977343679">
        <ele>95.790000000000006</ele>
        <time>2018-09-16T05:40:05Z</time>
      </trkpt>
      <trkpt lat="50.015494991093874" lon="8.421749984845519">
        <ele>98.189999999999998</ele>
        <time>2018-09-16T05:40:10Z</time>
      </trkpt>
      <trkpt lat="50.015412010252476" lon="8.421788038685918">
        <ele>98.670000000000002</ele>
        <time>2018-09-16T05:40:11Z</time>
      </trkpt>
      <trkpt lat="50.015282006934285" lon="8.421846963465214">
        <ele>99.629999999999995</ele>
        <time>2018-09-16T05:40:13Z</time>
      </trkpt>
      <trkpt lat="50.01518502831459" lon="8.42179499566555">
        <ele>100.11</ele>
        <time>2018-09-16T05:40:14Z</time>
      </trkpt>
      <trkpt lat="50.015130965039134" lon="8.421749984845519">
        <ele>101.08</ele>
        <time>2018-09-16T05:40:16Z</time>
      </trkpt>
      <trkpt lat="50.014977995306253" lon="8.421740010380745">
        <ele>101.56</ele>
        <time>2018-09-16T05:40:17Z</time>
      </trkpt>
      <trkpt lat="50.014183977618814" lon="8.421465000137687">
        <ele>103.95999999999999</ele>
        <time>2018-09-16T05:40:29Z</time>
      </trkpt>
      <trkpt lat="50.013782987371087" lon="8.421360980719328">
        <ele>105.40000000000001</ele>
        <time>2018-09-16T05:40:35Z</time>
      </trkpt>
      <trkpt lat="50.013044960796833" lon="8.421113966032863">
        <ele>106.84</ele>
        <time>2018-09-16T05:40:46Z</time>
      </trkpt>
      <trkpt lat="50.01256400719285" lon="8.420940041542053">
        <ele>106.36</ele>
        <time>2018-09-16T05:40:53Z</time>
      </trkpt>
      <trkpt lat="50.01249703578651" lon="8.420921014621854">
        <ele>105.88</ele>
        <time>2018-09-16T05:40:54Z</time>
      </trkpt>
      <trkpt lat="50.01222001388669" lon="8.420855971053243">
        <ele>105.88</ele>
        <time>2018-09-16T05:40:58Z</time>
      </trkpt>
      <trkpt lat="50.012168968096375" lon="8.42084901407361">
        <ele>105.88</ele>
        <time>2018-09-16T05:40:59Z</time>
      </trkpt>
      <trkpt lat="50.012109037488699" lon="8.420715993270278">
        <ele>105.88</ele>
        <time>2018-09-16T05:41:00Z</time>
      </trkpt>
      <trkpt lat="50.012043993920088" lon="8.42069998383522">
        <ele>105.88</ele>
        <time>2018-09-16T05:41:01Z</time>
      </trkpt>
      <trkpt lat="50.01196201890707" lon="8.420755974948406">
        <ele>105.88</ele>
        <time>2018-09-16T05:41:02Z</time>
      </trkpt>
      <trkpt lat="50.011895969510078" lon="8.420724961906672">
        <ele>105.88</ele>
        <time>2018-09-16T05:41:03Z</time>
      </trkpt>
      <trkpt lat="50.011762026697397" lon="8.420662013813853">
        <ele>105.88</ele>
        <time>2018-09-16T05:41:05Z</time>
      </trkpt>
      <trkpt lat="50.011493973433971" lon="8.420535027980804">
        <ele>105.88</ele>
        <time>2018-09-16T05:41:09Z</time>
      </trkpt>
      <trkpt lat="50.01142499037087" lon="8.420503009110689">
        <ele>105.88</ele>
        <time>2018-09-16T05:41:10Z</time>
      </trkpt>
      <trkpt lat="50.011357013136148" lon="8.420470990240574">
        <ele>105.40000000000001</ele>
        <time>2018-09-16T05:41:11Z</time>
      </trkpt>
      <trkpt lat="50.011290963739157" lon="8.420439977198839">
        <ele>105.40000000000001</ele>
        <time>2018-09-16T05:41:12Z</time>
      </trkpt>
      <trkpt lat="50.011226003989577" lon="8.420408964157105">
        <ele>105.40000000000001</ele>
        <time>2018-09-16T05:41:13Z</time>
      </trkpt>
      <trkpt lat="50.011105975136161" lon="8.420320032164455">
        <ele>104.92</ele>
        <time>2018-09-16T05:41:15Z</time>
      </trkpt>
      <trkpt lat="50.011045038700104" lon="8.420270998030901">
        <ele>104.92</ele>
        <time>2018-09-16T05:41:16Z</time>
      </trkpt>
      <trkpt lat="50.0109329726547" lon="8.420148035511375">
        <ele>103.95999999999999</ele>
        <time>2018-09-16T05:41:18Z</time>
      </trkpt>
      <trkpt lat="50.010881004855037" lon="8.420077040791512">
        <ele>103.95999999999999</ele>
        <time>2018-09-16T05:41:19Z</time>
      </trkpt>
      <trkpt lat="50.010735997930169" lon="8.419875958934426">
        <ele>103.48</ele>
        <time>2018-09-16T05:41:22Z</time>
      </trkpt>
      <trkpt lat="50.010688975453377" lon="8.419812005013228">
        <ele>103.48</ele>
        <time>2018-09-16T05:41:23Z</time>
      </trkpt>
      <trkpt lat="50.010349005460739" lon="8.419405985623598">
        <ele>103.95999999999999</ele>
        <time>2018-09-16T05:41:29Z</time>
      </trkpt>
      <trkpt lat="50.01022201962769" lon="8.419305989518762">
        <ele>103.95999999999999</ele>
        <time>2018-09-16T05:41:31Z</time>
      </trkpt>
      <trkpt lat="50.009605027735233" lon="8.418844984844327">
        <ele>103.95999999999999</ele>
        <time>2018-09-16T05:41:40Z</time>
      </trkpt>
      <trkpt lat="50.00953302718699" lon="8.418782036751509">
        <ele>103.95999999999999</ele>
        <time>2018-09-16T05:41:41Z</time>
      </trkpt>
      <trkpt lat="50.009464966133237" lon="8.418601993471384">
        <ele>103.95999999999999</ele>
        <time>2018-09-16T05:41:42Z</time>
      </trkpt>
      <trkpt lat="50.009486004710197" lon="8.418498979881406">
        <ele>103.48</ele>
        <time>2018-09-16T05:41:43Z</time>
      </trkpt>
      <trkpt lat="50.009510982781649" lon="8.418380040675402">
        <ele>103.48</ele>
        <time>2018-09-16T05:41:44Z</time>
      </trkpt>
      <trkpt lat="50.009538978338242" lon="8.418245008215308">
        <ele>103.95999999999999</ele>
        <time>2018-09-16T05:41:45Z</time>
      </trkpt>
      <trkpt lat="50.009630005806684" lon="8.416760992258787">
        <ele>104.44</ele>
        <time>2018-09-16T05:41:53Z</time>
      </trkpt>
      <trkpt lat="50.009460020810366" lon="8.415577970445156">
        <ele>105.40000000000001</ele>
        <time>2018-09-16T05:41:59Z</time>
      </trkpt>
      <trkpt lat="50.009079985320568" lon="8.414234016090632">
        <ele>104.92</ele>
        <time>2018-09-16T05:42:07Z</time>
      </trkpt>
      <trkpt lat="50.009087026119232" lon="8.414099989458919">
        <ele>104.92</ele>
        <time>2018-09-16T05:42:08Z</time>
      </trkpt>
      <trkpt lat="50.009100018069148" lon="8.413967974483967">
        <ele>104.44</ele>
        <time>2018-09-16T05:42:09Z</time>
      </trkpt>
      <trkpt lat="50.009160032495856" lon="8.413860015571117">
        <ele>104.44</ele>
        <time>2018-09-16T05:42:10Z</time>
      </trkpt>
      <trkpt lat="50.009227003902197" lon="8.413746021687985">
        <ele>104.44</ele>
        <time>2018-09-16T05:42:11Z</time>
      </trkpt>
      <trkpt lat="50.009319959208369" lon="8.413662035018206">
        <ele>104.44</ele>
        <time>2018-09-16T05:42:12Z</time>
      </trkpt>
      <trkpt lat="50.009422972798347" lon="8.413601014763117">
        <ele>104.44</ele>
        <time>2018-09-16T05:42:13Z</time>
      </trkpt>
      <trkpt lat="50.0095359608531" lon="8.413589028641582">
        <ele>104.44</ele>
        <time>2018-09-16T05:42:14Z</time>
      </trkpt>
      <trkpt lat="50.009652972221375" lon="8.413611995056272">
        <ele>104.44</ele>
        <time>2018-09-16T05:42:15Z</time>
      </trkpt>
      <trkpt lat="50.009742993861437" lon="8.413719031959772">
        <ele>104.44</ele>
        <time>2018-09-16T05:42:16Z</time>
      </trkpt>
      <trkpt lat="50.009827986359596" lon="8.413856998085976">
        <ele>104.44</ele>
        <time>2018-09-16T05:42:17Z</time>
      </trkpt>
      <trkpt lat="50.009914990514517" lon="8.413998987525702">
        <ele>103.95999999999999</ele>
        <time>2018-09-16T05:42:18Z</time>
      </trkpt>
      <trkpt lat="50.010004006326199" lon="8.414142988622189">
        <ele>103.95999999999999</ele>
        <time>2018-09-16T05:42:19Z</time>
      </trkpt>
      <trkpt lat="50.010065026581287" lon="8.414319008588791">
        <ele>103.95999999999999</ele>
        <time>2018-09-16T05:42:20Z</time>
      </trkpt>
      <trkpt lat="50.010119006037712" lon="8.414503997191787">
        <ele>103.95999999999999</ele>
        <time>2018-09-16T05:42:21Z</time>
      </trkpt>
      <trkpt lat="50.010168962180614" lon="8.414672976359725">
        <ele>104.44</ele>
        <time>2018-09-16T05:42:22Z</time>
      </trkpt>
      <trkpt lat="50.010155970230699" lon="8.414840027689934">
        <ele>104.44</ele>
        <time>2018-09-16T05:42:23Z</time>
      </trkpt>
      <trkpt lat="50.01013602130115" lon="8.415010012686253">
        <ele>104.92</ele>
        <time>2018-09-16T05:42:24Z</time>
      </trkpt>
      <trkpt lat="50.010077012702823" lon="8.415162982419133">
        <ele>105.40000000000001</ele>
        <time>2018-09-16T05:42:25Z</time>
      </trkpt>
      <trkpt lat="50.009990008547902" lon="8.415304971858859">
        <ele>106.36</ele>
        <time>2018-09-16T05:42:26Z</time>
      </trkpt>
      <trkpt lat="50.009876014664769" lon="8.415422989055514">
        <ele>106.36</ele>
        <time>2018-09-16T05:42:27Z</time>
      </trkpt>
      <trkpt lat="50.009755985811353" lon="8.415548969060183">
        <ele>106.84</ele>
        <time>2018-09-16T05:42:28Z</time>
      </trkpt>
      <trkpt lat="50.008185971528292" lon="8.416975988075137">
        <ele>110.20999999999999</ele>
        <time>2018-09-16T05:42:39Z</time>
      </trkpt>
      <trkpt lat="50.006511015817523" lon="8.418796034529805">
        <ele>110.69</ele>
        <time>2018-09-16T05:42:51Z</time>
      </trkpt>
      <trkpt lat="50.005520023405552" lon="8.420601999387145">
        <ele>110.20999999999999</ele>
        <time>2018-09-16T05:43:00Z</time>
      </trkpt>
      <trkpt lat="50.00448502600193" lon="8.423068961128593">
        <ele>108.77</ele>
        <time>2018-09-16T05:43:12Z</time>
      </trkpt>
      <trkpt lat="50.004136003553867" lon="8.423609007149935">
        <ele>107.81</ele>
        <time>2018-09-16T05:43:16Z</time>
      </trkpt>
      <trkpt lat="50.004037013277411" lon="8.423691987991333">
        <ele>107.81</ele>
        <time>2018-09-16T05:43:17Z</time>
      </trkpt>
      <trkpt lat="50.003922013565898" lon="8.4237489849329">
        <ele>107.81</ele>
        <time>2018-09-16T05:43:18Z</time>
      </trkpt>
      <trkpt lat="50.003802990540862" lon="8.423808999359608">
        <ele>107.31999999999999</ele>
        <time>2018-09-16T05:43:19Z</time>
      </trkpt>
      <trkpt lat="50.003682961687446" lon="8.423869013786316">
        <ele>107.81</ele>
        <time>2018-09-16T05:43:20Z</time>
      </trkpt>
      <trkpt lat="50.003333017230034" lon="8.424110999330878">
        <ele>106.84</ele>
        <time>2018-09-16T05:43:23Z</time>
      </trkpt>
      <trkpt lat="50.003237966448069" lon="8.424244020134211">
        <ele>106.84</ele>
        <time>2018-09-16T05:43:24Z</time>
      </trkpt>
      <trkpt lat="50.003156997263432" lon="8.42439497821033">
        <ele>106.36</ele>
        <time>2018-09-16T05:43:25Z</time>
      </trkpt>
      <trkpt lat="50.003093965351582" lon="8.42454400844872">
        <ele>105.88</ele>
        <time>2018-09-16T05:43:26Z</time>
      </trkpt>
      <trkpt lat="50.003049038350582" lon="8.424701001495123">
        <ele>105.40000000000001</ele>
        <time>2018-09-16T05:43:27Z</time>
      </trkpt>
      <trkpt lat="50.003006961196661" lon="8.424847014248371">
        <ele>105.40000000000001</ele>
        <time>2018-09-16T05:43:28Z</time>
      </trkpt>
      <trkpt lat="50.002965973690152" lon="8.424989003688097">
        <ele>104.92</ele>
        <time>2018-09-16T05:43:29Z</time>
      </trkpt>
      <trkpt lat="50.002888021990657" lon="8.425258984789252">
        <ele>104.92</ele>
        <time>2018-09-16T05:43:31Z</time>
      </trkpt>
      <trkpt lat="50.002850973978639" lon="8.425387982279062">
        <ele>104.92</ele>
        <time>2018-09-16T05:43:32Z</time>
      </trkpt>
      <trkpt lat="50.002793977037072" lon="8.425476998090744">
        <ele>104.44</ele>
        <time>2018-09-16T05:43:33Z</time>
      </trkpt>
      <trkpt lat="50.002709990367293" lon="8.425550004467368">
        <ele>104.44</ele>
        <time>2018-09-16T05:43:34Z</time>
      </trkpt>
      <trkpt lat="50.002630027011037" lon="8.425599038600922">
        <ele>104.44</ele>
        <time>2018-09-16T05:43:35Z</time>
      </trkpt>
      <trkpt lat="50.00253195874393" lon="8.425619993358851">
        <ele>104.44</ele>
        <time>2018-09-16T05:43:36Z</time>
      </trkpt>
      <trkpt lat="50.002434980124235" lon="8.425642037764192">
        <ele>103.95999999999999</ele>
        <time>2018-09-16T05:43:37Z</time>
      </trkpt>
      <trkpt lat="50.001861993223429" lon="8.425590991973877">
        <ele>103.48</ele>
        <time>2018-09-16T05:43:44Z</time>
      </trkpt>
      <trkpt lat="50.001750010997057" lon="8.425566013902426">
        <ele>103</ele>
        <time>2018-09-16T05:43:46Z</time>
      </trkpt>
      <trkpt lat="50.001705000177026" lon="8.425552016124129">
        <ele>103</ele>
        <time>2018-09-16T05:43:47Z</time>
      </trkpt>
      <trkpt lat="50.001530991867185" lon="8.425496025010943">
        <ele>101.56</ele>
        <time>2018-09-16T05:43:56Z</time>
      </trkpt>
      <trkpt lat="50.001344997435808" lon="8.425438022240996">
        <ele>102.04000000000001</ele>
        <time>2018-09-16T05:44:14Z</time>
      </trkpt>
      <trkpt lat="50.000330032780766" lon="8.425025967881084">
        <ele>101.08</ele>
        <time>2018-09-16T05:44:24Z</time>
      </trkpt>
      <trkpt lat="49.999201996251941" lon="8.424618020653725">
        <ele>100.59999999999999</ele>
        <time>2018-09-16T05:44:34Z</time>
      </trkpt>
      <trkpt lat="49.997661989182234" lon="8.424406964331865">
        <ele>98.670000000000002</ele>
        <time>2018-09-16T05:44:47Z</time>
      </trkpt>
      <trkpt lat="49.996353993192315" lon="8.424496985971928">
        <ele>98.670000000000002</ele>
        <time>2018-09-16T05:44:58Z</time>
      </trkpt>
      <trkpt lat="49.995042979717255" lon="8.424518024548888">
        <ele>92.900000000000006</ele>
        <time>2018-09-16T05:45:09Z</time>
      </trkpt>
      <trkpt lat="49.994061961770058" lon="8.424477037042379">
        <ele>86.180000000000007</ele>
        <time>2018-09-16T05:45:17Z</time>
      </trkpt>
      <trkpt lat="49.992358004674315" lon="8.424496985971928">
        <ele>90.019999999999996</ele>
        <time>2018-09-16T05:45:31Z</time>
      </trkpt>
      <trkpt lat="49.991243965923786" lon="8.424496985971928">
        <ele>90.5</ele>
        <time>2018-09-16T05:45:40Z</time>
      </trkpt>
      <trkpt lat="49.990181978791952" lon="8.424072023481131">
        <ele>90.980000000000004</ele>
        <time>2018-09-16T05:45:49Z</time>
      </trkpt>
      <trkpt lat="49.989972012117505" lon="8.423893991857767">
        <ele>91.939999999999998</ele>
        <time>2018-09-16T05:45:51Z</time>
      </trkpt>
      <trkpt lat="49.989866986870766" lon="8.423795001581311">
        <ele>91.939999999999998</ele>
        <time>2018-09-16T05:45:52Z</time>
      </trkpt>
      <trkpt lat="49.989762967452407" lon="8.423697017133236">
        <ele>92.420000000000002</ele>
        <time>2018-09-16T05:45:53Z</time>
      </trkpt>
      <trkpt lat="49.989669006317854" lon="8.423566007986665">
        <ele>92.900000000000006</ele>
        <time>2018-09-16T05:45:54Z</time>
      </trkpt>
      <trkpt lat="49.989582002162933" lon="8.423434998840094">
        <ele>93.870000000000005</ele>
        <time>2018-09-16T05:45:55Z</time>
      </trkpt>
      <trkpt lat="49.989500027149916" lon="8.423290997743607">
        <ele>94.349999999999994</ele>
        <time>2018-09-16T05:45:56Z</time>
      </trkpt>
      <trkpt lat="49.989428026601672" lon="8.423134004697204">
        <ele>94.349999999999994</ele>
        <time>2018-09-16T05:45:57Z</time>
      </trkpt>
      <trkpt lat="49.989355020225048" lon="8.42297600582242">
        <ele>94.829999999999998</ele>
        <time>2018-09-16T05:45:58Z</time>
      </trkpt>
      <trkpt lat="49.988701986148953" lon="8.421845035627484">
        <ele>94.829999999999998</ele>
        <time>2018-09-16T05:46:06Z</time>
      </trkpt>
      <trkpt lat="49.988413983955979" lon="8.421457959339023">
        <ele>95.790000000000006</ele>
        <time>2018-09-16T05:46:09Z</time>
      </trkpt>
      <trkpt lat="49.988346006721258" lon="8.42129903845489">
        <ele>95.790000000000006</ele>
        <time>2018-09-16T05:46:10Z</time>
      </trkpt>
      <trkpt lat="49.987602028995752" lon="8.419329961761832">
        <ele>96.269999999999996</ele>
        <time>2018-09-16T05:46:22Z</time>
      </trkpt>
      <trkpt lat="49.987057037651539" lon="8.416995014995337">
        <ele>93.870000000000005</ele>
        <time>2018-09-16T05:46:35Z</time>
      </trkpt>
      <trkpt lat="49.986701980233192" lon="8.414586978033185">
        <ele>92.420000000000002</ele>
        <time>2018-09-16T05:46:48Z</time>
      </trkpt>
      <trkpt lat="49.986505005508661" lon="8.413188038393855">
        <ele>91.459999999999994</ele>
        <time>2018-09-16T05:46:57Z</time>
      </trkpt>
      <trkpt lat="49.986496036872268" lon="8.413120983168483">
        <ele>91.459999999999994</ele>
        <time>2018-09-16T05:46:58Z</time>
      </trkpt>
      <trkpt lat="49.986487990245223" lon="8.413063986226916">
        <ele>91.459999999999994</ele>
        <time>2018-09-16T05:46:59Z</time>
      </trkpt>
      <trkpt lat="49.98648296110332" lon="8.413018975406885">
        <ele>91.459999999999994</ele>
        <time>2018-09-16T05:47:00Z</time>
      </trkpt>
      <trkpt lat="49.986479021608829" lon="8.412989974021912">
        <ele>91.459999999999994</ele>
        <time>2018-09-16T05:47:01Z</time>
      </trkpt>
      <trkpt lat="49.986479021608829" lon="8.412989974021912">
        <ele>91.459999999999994</ele>
        <time>2018-09-16T05:47:14Z</time>
      </trkpt>
      <trkpt lat="49.986479021608829" lon="8.412989974021912">
        <ele>90.5</ele>
        <time>2018-09-16T05:48:04Z</time>
      </trkpt>
      <trkpt lat="49.98645898886025" lon="8.412844967097044">
        <ele>90.5</ele>
        <time>2018-09-16T05:48:11Z</time>
      </trkpt>
      <trkpt lat="49.986405009403825" lon="8.412696020677686">
        <ele>90.019999999999996</ele>
        <time>2018-09-16T05:48:12Z</time>
      </trkpt>
      <trkpt lat="49.986340971663594" lon="8.412658972665668">
        <ele>90.019999999999996</ele>
        <time>2018-09-16T05:48:13Z</time>
      </trkpt>
      <trkpt lat="49.986255979165435" lon="8.412632988765836">
        <ele>90.019999999999996</ele>
        <time>2018-09-16T05:48:14Z</time>
      </trkpt>
      <trkpt lat="49.986170986667275" lon="8.412638017907739">
        <ele>90.019999999999996</ele>
        <time>2018-09-16T05:48:15Z</time>
      </trkpt>
      <trkpt lat="49.9860730022192" lon="8.412643969058991">
        <ele>90.019999999999996</ele>
        <time>2018-09-16T05:48:16Z</time>
      </trkpt>
      <trkpt lat="49.984837006777525" lon="8.412718987092376">
        <ele>88.579999999999998</ele>
        <time>2018-09-16T05:48:27Z</time>
      </trkpt>
      <trkpt lat="49.983170013874769" lon="8.412784030660987">
        <ele>87.140000000000001</ele>
        <time>2018-09-16T05:48:41Z</time>
      </trkpt>
      <trkpt lat="49.981385003775358" lon="8.412875980138779">
        <ele>88.579999999999998</ele>
        <time>2018-09-16T05:48:56Z</time>
      </trkpt>
      <trkpt lat="49.980082036927342" lon="8.412952004000545">
        <ele>88.099999999999994</ele>
        <time>2018-09-16T05:49:07Z</time>
      </trkpt>
      <trkpt lat="49.979080986231565" lon="8.413000032305718">
        <ele>89.060000000000002</ele>
        <time>2018-09-16T05:49:17Z</time>
      </trkpt>
      <trkpt lat="49.979033041745424" lon="8.413001960143447">
        <ele>89.060000000000002</ele>
        <time>2018-09-16T05:49:18Z</time>
      </trkpt>
      <trkpt lat="49.978802958503366" lon="8.413012018427253">
        <ele>90.5</ele>
        <time>2018-09-16T05:49:26Z</time>
      </trkpt>
      <trkpt lat="49.978780997917056" lon="8.413013024255633">
        <ele>90.5</ele>
        <time>2018-09-16T05:49:27Z</time>
      </trkpt>
      <trkpt lat="49.978741016238928" lon="8.413015035912395">
        <ele>90.980000000000004</ele>
        <time>2018-09-16T05:49:28Z</time>
      </trkpt>
      <trkpt lat="49.978525014594197" lon="8.413033979013562">
        <ele>90.980000000000004</ele>
        <time>2018-09-16T05:49:31Z</time>
      </trkpt>
      <trkpt lat="49.978481009602547" lon="8.413038002327085">
        <ele>90.019999999999996</ele>
        <time>2018-09-16T05:49:32Z</time>
      </trkpt>
      <trkpt lat="49.97749999165535" lon="8.413087036460638">
        <ele>89.060000000000002</ele>
        <time>2018-09-16T05:49:40Z</time>
      </trkpt>
      <trkpt lat="49.975947998464108" lon="8.413203964009881">
        <ele>93.390000000000001</ele>
        <time>2018-09-16T05:49:50Z</time>
      </trkpt>
      <trkpt lat="49.973899964243174" lon="8.413389036431909">
        <ele>97.709999999999994</ele>
        <time>2018-09-16T05:50:01Z</time>
      </trkpt>
      <trkpt lat="49.971655961126089" lon="8.413634961470962">
        <ele>92.900000000000006</ele>
        <time>2018-09-16T05:50:14Z</time>
      </trkpt>
      <trkpt lat="49.969952004030347" lon="8.41371500864625">
        <ele>87.140000000000001</ele>
        <time>2018-09-16T05:50:22Z</time>
      </trkpt>
      <trkpt lat="49.967384040355682" lon="8.413862027227879">
        <ele>85.689999999999998</ele>
        <time>2018-09-16T05:50:33Z</time>
      </trkpt>
      <trkpt lat="49.964326992630959" lon="8.414158998057246">
        <ele>86.180000000000007</ele>
        <time>2018-09-16T05:50:46Z</time>
      </trkpt>
      <trkpt lat="49.960938021540642" lon="8.414800968021154">
        <ele>91.939999999999998</ele>
        <time>2018-09-16T05:51:01Z</time>
      </trkpt>
      <trkpt lat="49.96003101579845" lon="8.415561961010099">
        <ele>91.459999999999994</ele>
        <time>2018-09-16T05:51:07Z</time>
      </trkpt>
      <trkpt lat="49.95900297537446" lon="8.41655102558434">
        <ele>88.099999999999994</ele>
        <time>2018-09-16T05:51:16Z</time>
      </trkpt>
      <trkpt lat="49.958885964006186" lon="8.416591007262468">
        <ele>88.099999999999994</ele>
        <time>2018-09-16T05:51:17Z</time>
      </trkpt>
      <trkpt lat="49.958773981779814" lon="8.416629983112216">
        <ele>87.620000000000005</ele>
        <time>2018-09-16T05:51:18Z</time>
      </trkpt>
      <trkpt lat="49.958674991503358" lon="8.416665019467473">
        <ele>87.620000000000005</ele>
        <time>2018-09-16T05:51:19Z</time>
      </trkpt>
      <trkpt lat="49.958585975691676" lon="8.416601987555623">
        <ele>87.620000000000005</ele>
        <time>2018-09-16T05:51:20Z</time>
      </trkpt>
      <trkpt lat="49.958521015942097" lon="8.416555970907211">
        <ele>87.620000000000005</ele>
        <time>2018-09-16T05:51:21Z</time>
      </trkpt>
      <trkpt lat="49.958474999293685" lon="8.416524035856128">
        <ele>87.620000000000005</ele>
        <time>2018-09-16T05:51:22Z</time>
      </trkpt>
      <trkpt lat="49.958441974595189" lon="8.416500985622406">
        <ele>87.620000000000005</ele>
        <time>2018-09-16T05:51:23Z</time>
      </trkpt>
      <trkpt lat="49.95842001400888" lon="8.416485982015729">
        <ele>87.620000000000005</ele>
        <time>2018-09-16T05:51:24Z</time>
      </trkpt>
      <trkpt lat="49.958339966833591" lon="8.416429990902543">
        <ele>87.140000000000001</ele>
        <time>2018-09-16T05:51:33Z</time>
      </trkpt>
      <trkpt lat="49.95829101651907" lon="8.416395960375667">
        <ele>87.140000000000001</ele>
        <time>2018-09-16T05:51:34Z</time>
      </trkpt>
      <trkpt lat="49.958191020414233" lon="8.416526969522238">
        <ele>87.140000000000001</ele>
        <time>2018-09-16T05:51:35Z</time>
      </trkpt>
      <trkpt lat="49.958151038736105" lon="8.416638029739261">
        <ele>87.620000000000005</ele>
        <time>2018-09-16T05:51:36Z</time>
      </trkpt>
      <trkpt lat="49.958100998774171" lon="8.416775995865464">
        <ele>87.620000000000005</ele>
        <time>2018-09-16T05:51:37Z</time>
      </trkpt>
      <trkpt lat="49.958044001832604" lon="8.416935000568628">
        <ele>88.099999999999994</ele>
        <time>2018-09-16T05:51:38Z</time>
      </trkpt>
      <trkpt lat="49.957364983856678" lon="8.418553965166211">
        <ele>88.099999999999994</ele>
        <time>2018-09-16T05:51:46Z</time>
      </trkpt>
      <trkpt lat="49.956299979239702" lon="8.420535027980804">
        <ele>87.140000000000001</ele>
        <time>2018-09-16T05:51:54Z</time>
      </trkpt>
      <trkpt lat="49.955285014584661" lon="8.422221969813108">
        <ele>86.659999999999997</ele>
        <time>2018-09-16T05:52:02Z</time>
      </trkpt>
      <trkpt lat="49.954278012737632" lon="8.423857027664781">
        <ele>89.060000000000002</ele>
        <time>2018-09-16T05:52:13Z</time>
      </trkpt>
      <trkpt lat="49.954208023846149" lon="8.423958029597998">
        <ele>89.540000000000006</ele>
        <time>2018-09-16T05:52:14Z</time>
      </trkpt>
      <trkpt lat="49.954148009419441" lon="8.424046039581299">
        <ele>89.540000000000006</ele>
        <time>2018-09-16T05:52:15Z</time>
      </trkpt>
      <trkpt lat="49.954093024134636" lon="8.424124997109175">
        <ele>89.540000000000006</ele>
        <time>2018-09-16T05:52:16Z</time>
      </trkpt>
      <trkpt lat="49.954038038849831" lon="8.424204038456082">
        <ele>90.019999999999996</ele>
        <time>2018-09-16T05:52:17Z</time>
      </trkpt>
      <trkpt lat="49.953991016373038" lon="8.424273021519184">
        <ele>90.019999999999996</ele>
        <time>2018-09-16T05:52:18Z</time>
      </trkpt>
      <trkpt lat="49.953687004745007" lon="8.424816001206636">
        <ele>92.420000000000002</ele>
        <time>2018-09-16T05:52:29Z</time>
      </trkpt>
      <trkpt lat="49.953674012795091" lon="8.424839973449707">
        <ele>92.900000000000006</ele>
        <time>2018-09-16T05:52:40Z</time>
      </trkpt>
      <trkpt lat="49.953618021681905" lon="8.424942987039685">
        <ele>93.390000000000001</ele>
        <time>2018-09-16T05:52:56Z</time>
      </trkpt>
      <trkpt lat="49.953238992020488" lon="8.425526032224298">
        <ele>94.349999999999994</ele>
        <time>2018-09-16T05:53:02Z</time>
      </trkpt>
      <trkpt lat="49.952344978228211" lon="8.427027985453606">
        <ele>95.310000000000002</ele>
        <time>2018-09-16T05:53:11Z</time>
      </trkpt>
      <trkpt lat="49.951121974736452" lon="8.428981974720955">
        <ele>98.189999999999998</ele>
        <time>2018-09-16T05:53:21Z</time>
      </trkpt>
      <trkpt lat="49.94950502179563" lon="8.431609030812979">
        <ele>98.670000000000002</ele>
        <time>2018-09-16T05:53:33Z</time>
      </trkpt>
      <trkpt lat="49.947768040001392" lon="8.434432977810502">
        <ele>97.230000000000004</ele>
        <time>2018-09-16T05:53:44Z</time>
      </trkpt>
      <trkpt lat="49.945871969684958" lon="8.437519026920199">
        <ele>93.870000000000005</ele>
        <time>2018-09-16T05:53:56Z</time>
      </trkpt>
      <trkpt lat="49.945089016109705" lon="8.438812019303441">
        <ele>91.939999999999998</ele>
        <time>2018-09-16T05:54:03Z</time>
      </trkpt>
      <trkpt lat="49.944770000874996" lon="8.439336977899075">
        <ele>90.980000000000004</ele>
        <time>2018-09-16T05:54:07Z</time>
      </trkpt>
      <trkpt lat="49.944705041125417" lon="8.439439991489053">
        <ele>90.5</ele>
        <time>2018-09-16T05:54:08Z</time>
      </trkpt>
      <trkpt lat="49.94409198872745" lon="8.440412962809205">
        <ele>88.579999999999998</ele>
        <time>2018-09-16T05:54:15Z</time>
      </trkpt>
      <trkpt lat="49.942985996603966" lon="8.442200990393758">
        <ele>90.019999999999996</ele>
        <time>2018-09-16T05:54:24Z</time>
      </trkpt>
      <trkpt lat="49.941889978945255" lon="8.443980971351266">
        <ele>92.420000000000002</ele>
        <time>2018-09-16T05:54:34Z</time>
      </trkpt>
      <trkpt lat="49.940922958776355" lon="8.445542016997933">
        <ele>95.310000000000002</ele>
        <time>2018-09-16T05:54:45Z</time>
      </trkpt>
      <trkpt lat="49.940178981050849" lon="8.446769965812564">
        <ele>94.349999999999994</ele>
        <time>2018-09-16T05:54:55Z</time>
      </trkpt>
      <trkpt lat="49.939305000007153" lon="8.448180975392461">
        <ele>91.939999999999998</ele>
        <time>2018-09-16T05:55:05Z</time>
      </trkpt>
      <trkpt lat="49.938049977645278" lon="8.450231021270156">
        <ele>92.420000000000002</ele>
        <time>2018-09-16T05:55:17Z</time>
      </trkpt>
      <trkpt lat="49.937283033505082" lon="8.451503980904818">
        <ele>93.390000000000001</ele>
        <time>2018-09-16T05:55:26Z</time>
      </trkpt>
      <trkpt lat="49.936996959149837" lon="8.45198099501431">
        <ele>93.390000000000001</ele>
        <time>2018-09-16T05:55:33Z</time>
      </trkpt>
      <trkpt lat="49.936449034139514" lon="8.452876014634967">
        <ele>93.390000000000001</ele>
        <time>2018-09-16T05:55:40Z</time>
      </trkpt>
      <trkpt lat="49.935185965150595" lon="8.454889012500644">
        <ele>94.349999999999994</ele>
        <time>2018-09-16T05:55:51Z</time>
      </trkpt>
      <trkpt lat="49.93328201584518" lon="8.457997022196651">
        <ele>94.829999999999998</ele>
        <time>2018-09-16T05:56:06Z</time>
      </trkpt>
      <trkpt lat="49.931464986875653" lon="8.460942003875971">
        <ele>95.790000000000006</ele>
        <time>2018-09-16T05:56:18Z</time>
      </trkpt>
      <trkpt lat="49.928819993510842" lon="8.465261030942202">
        <ele>94.829999999999998</ele>
        <time>2018-09-16T05:56:35Z</time>
      </trkpt>
      <trkpt lat="49.927749037742615" lon="8.46697898581624">
        <ele>93.870000000000005</ele>
        <time>2018-09-16T05:56:44Z</time>
      </trkpt>
      <trkpt lat="49.926122026517987" lon="8.469648035243154">
        <ele>93.390000000000001</ele>
        <time>2018-09-16T05:56:59Z</time>
      </trkpt>
      <trkpt lat="49.925046963617206" lon="8.470881013199687">
        <ele>94.829999999999998</ele>
        <time>2018-09-16T05:57:07Z</time>
      </trkpt>
      <trkpt lat="49.923539981245995" lon="8.471648041158915">
        <ele>95.790000000000006</ele>
        <time>2018-09-16T05:57:17Z</time>
      </trkpt>
      <trkpt lat="49.922082033008337" lon="8.472394030541182">
        <ele>94.829999999999998</ele>
        <time>2018-09-16T05:57:30Z</time>
      </trkpt>
      <trkpt lat="49.921549027785659" lon="8.472681026905775">
        <ele>93.870000000000005</ele>
        <time>2018-09-16T05:57:38Z</time>
      </trkpt>
      <trkpt lat="49.920582007616758" lon="8.4734239988029">
        <ele>94.829999999999998</ele>
        <time>2018-09-16T05:57:46Z</time>
      </trkpt>
      <trkpt lat="49.918217975646257" lon="8.475257037207484">
        <ele>94.349999999999994</ele>
        <time>2018-09-16T05:58:02Z</time>
      </trkpt>
      <trkpt lat="49.916820963844657" lon="8.476675003767014">
        <ele>95.790000000000006</ele>
        <time>2018-09-16T05:58:13Z</time>
      </trkpt>
      <trkpt lat="49.916708981618285" lon="8.476848006248474">
        <ele>95.790000000000006</ele>
        <time>2018-09-16T05:58:14Z</time>
      </trkpt>
      <trkpt lat="49.915119018405676" lon="8.479655021801591">
        <ele>95.790000000000006</ele>
        <time>2018-09-16T05:58:29Z</time>
      </trkpt>
      <trkpt lat="49.913765005767345" lon="8.482192978262901">
        <ele>97.709999999999994</ele>
        <time>2018-09-16T05:58:42Z</time>
      </trkpt>
      <trkpt lat="49.912834027782083" lon="8.484211005270481">
        <ele>98.189999999999998</ele>
        <time>2018-09-16T05:58:52Z</time>
      </trkpt>
      <trkpt lat="49.912802008911967" lon="8.484399011358619">
        <ele>98.189999999999998</ele>
        <time>2018-09-16T05:58:53Z</time>
      </trkpt>
      <trkpt lat="49.912770995870233" lon="8.484576959162951">
        <ele>98.670000000000002</ele>
        <time>2018-09-16T05:58:54Z</time>
      </trkpt>
      <trkpt lat="49.912755992263556" lon="8.484738981351256">
        <ele>98.189999999999998</ele>
        <time>2018-09-16T05:58:55Z</time>
      </trkpt>
      <trkpt lat="49.912755992263556" lon="8.484893962740898">
        <ele>98.670000000000002</ele>
        <time>2018-09-16T05:58:56Z</time>
      </trkpt>
      <trkpt lat="49.912755992263556" lon="8.485036035999656">
        <ele>98.670000000000002</ele>
        <time>2018-09-16T05:58:57Z</time>
      </trkpt>
      <trkpt lat="49.912755992263556" lon="8.485491005703807">
        <ele>98.189999999999998</ele>
        <time>2018-09-16T05:59:03Z</time>
      </trkpt>
      <trkpt lat="49.912755992263556" lon="8.486016970127821">
        <ele>98.189999999999998</ele>
        <time>2018-09-16T05:59:12Z</time>
      </trkpt>
      <trkpt lat="49.912824975326657" lon="8.487262018024921">
        <ele>96.75</ele>
        <time>2018-09-16T05:59:20Z</time>
      </trkpt>
      <trkpt lat="49.913089005276561" lon="8.488993970677257">
        <ele>95.310000000000002</ele>
        <time>2018-09-16T05:59:27Z</time>
      </trkpt>
      <trkpt lat="49.913858966901898" lon="8.491350961849093">
        <ele>93.870000000000005</ele>
        <time>2018-09-16T05:59:37Z</time>
      </trkpt>
      <trkpt lat="49.914251994341612" lon="8.492799019441009">
        <ele>93.390000000000001</ele>
        <time>2018-09-16T05:59:44Z</time>
      </trkpt>
      <trkpt lat="49.914229027926922" lon="8.494509011507034">
        <ele>93.390000000000001</ele>
        <time>2018-09-16T05:59:52Z</time>
      </trkpt>
      <trkpt lat="49.914165996015072" lon="8.494945960119367">
        <ele>92.900000000000006</ele>
        <time>2018-09-16T05:59:54Z</time>
      </trkpt>
      <trkpt lat="49.914117967709899" lon="8.495126003399491">
        <ele>92.900000000000006</ele>
        <time>2018-09-16T05:59:55Z</time>
      </trkpt>
      <trkpt lat="49.91386097855866" lon="8.495878027752042">
        <ele>93.870000000000005</ele>
        <time>2018-09-16T05:59:59Z</time>
      </trkpt>
      <trkpt lat="49.913785038515925" lon="8.496051030233502">
        <ele>93.870000000000005</ele>
        <time>2018-09-16T06:00:00Z</time>
      </trkpt>
      <trkpt lat="49.913691999390721" lon="8.496214980259538">
        <ele>93.870000000000005</ele>
        <time>2018-09-16T06:00:01Z</time>
      </trkpt>
      <trkpt lat="49.913589991629124" lon="8.49637096747756">
        <ele>94.349999999999994</ele>
        <time>2018-09-16T06:00:02Z</time>
      </trkpt>
      <trkpt lat="49.913477003574371" lon="8.496511029079557">
        <ele>94.349999999999994</ele>
        <time>2018-09-16T06:00:03Z</time>
      </trkpt>
      <trkpt lat="49.913365021348" lon="8.49664899520576">
        <ele>94.349999999999994</ele>
        <time>2018-09-16T06:00:04Z</time>
      </trkpt>
      <trkpt lat="49.913240969181061" lon="8.496735999360681">
        <ele>94.829999999999998</ele>
        <time>2018-09-16T06:00:05Z</time>
      </trkpt>
      <trkpt lat="49.912908039987087" lon="8.496945966035128">
        <ele>95.310000000000002</ele>
        <time>2018-09-16T06:00:10Z</time>
      </trkpt>
      <trkpt lat="49.912844002246857" lon="8.496983014047146">
        <ele>95.790000000000006</ele>
        <time>2018-09-16T06:00:19Z</time>
      </trkpt>
      <trkpt lat="49.912805026397109" lon="8.497004974633455">
        <ele>95.790000000000006</ele>
        <time>2018-09-16T06:00:33Z</time>
      </trkpt>
      <trkpt lat="49.912754986435175" lon="8.497033976018429">
        <ele>95.790000000000006</ele>
        <time>2018-09-16T06:00:34Z</time>
      </trkpt>
      <trkpt lat="49.912072028964758" lon="8.497341005131602">
        <ele>95.790000000000006</ele>
        <time>2018-09-16T06:00:41Z</time>
      </trkpt>
      <trkpt lat="49.910935023799539" lon="8.498027985915542">
        <ele>93.870000000000005</ele>
        <time>2018-09-16T06:00:49Z</time>
      </trkpt>
      <trkpt lat="49.909845963120461" lon="8.499304968863726">
        <ele>93.870000000000005</ele>
        <time>2018-09-16T06:00:57Z</time>
      </trkpt>
      <trkpt lat="49.909307006746531" lon="8.500088006258011">
        <ele>94.349999999999994</ele>
        <time>2018-09-16T06:01:03Z</time>
      </trkpt>
      <trkpt lat="49.908843990415335" lon="8.500737017020583">
        <ele>94.349999999999994</ele>
        <time>2018-09-16T06:01:10Z</time>
      </trkpt>
      <trkpt lat="49.907940002158284" lon="8.502016011625528">
        <ele>95.310000000000002</ele>
        <time>2018-09-16T06:01:18Z</time>
      </trkpt>
      <trkpt lat="49.906866028904915" lon="8.504073014482856">
        <ele>96.269999999999996</ele>
        <time>2018-09-16T06:01:28Z</time>
      </trkpt>
      <trkpt lat="49.90610302425921" lon="8.507318990305066">
        <ele>94.829999999999998</ele>
        <time>2018-09-16T06:01:41Z</time>
      </trkpt>
      <trkpt lat="49.905474968254566" lon="8.511147005483508">
        <ele>96.75</ele>
        <time>2018-09-16T06:01:56Z</time>
      </trkpt>
      <trkpt lat="49.905597008764744" lon="8.513781018555164">
        <ele>101.08</ele>
        <time>2018-09-16T06:02:06Z</time>
      </trkpt>
      <trkpt lat="49.90565400570631" lon="8.516978966072202">
        <ele>102.52</ele>
        <time>2018-09-16T06:02:18Z</time>
      </trkpt>
      <trkpt lat="49.905194006860256" lon="8.519799979403615">
        <ele>99.150000000000006</ele>
        <time>2018-09-16T06:02:29Z</time>
      </trkpt>
      <trkpt lat="49.904284989461303" lon="8.52234497666359">
        <ele>95.310000000000002</ele>
        <time>2018-09-16T06:02:40Z</time>
      </trkpt>
      <trkpt lat="49.903415031731129" lon="8.524907995015383">
        <ele>95.790000000000006</ele>
        <time>2018-09-16T06:02:51Z</time>
      </trkpt>
      <trkpt lat="49.903272036463022" lon="8.526997016742826">
        <ele>97.230000000000004</ele>
        <time>2018-09-16T06:02:59Z</time>
      </trkpt>
      <trkpt lat="49.903588034212589" lon="8.529605967923999">
        <ele>97.230000000000004</ele>
        <time>2018-09-16T06:03:08Z</time>
      </trkpt>
      <trkpt lat="49.904050966724753" lon="8.53325704112649">
        <ele>97.230000000000004</ele>
        <time>2018-09-16T06:03:18Z</time>
      </trkpt>
      <trkpt lat="49.90445002913475" lon="8.537931041792035">
        <ele>97.709999999999994</ele>
        <time>2018-09-16T06:03:30Z</time>
      </trkpt>
      <trkpt lat="49.904549019411206" lon="8.539932975545526">
        <ele>98.670000000000002</ele>
        <time>2018-09-16T06:03:37Z</time>
      </trkpt>
      <trkpt lat="49.904624037444592" lon="8.544083023443818">
        <ele>100.11</ele>
        <time>2018-09-16T06:03:52Z</time>
      </trkpt>
      <trkpt lat="49.904587995260954" lon="8.546910993754864">
        <ele>101.08</ele>
        <time>2018-09-16T06:04:00Z</time>
      </trkpt>
      <trkpt lat="49.904519012197852" lon="8.55072601698339">
        <ele>102.04000000000001</ele>
        <time>2018-09-16T06:04:10Z</time>
      </trkpt>
      <trkpt lat="49.904497973620892" lon="8.554661991074681">
        <ele>103</ele>
        <time>2018-09-16T06:04:20Z</time>
      </trkpt>
      <trkpt lat="49.904556982219219" lon="8.560870969668031">
        <ele>101.56</ele>
        <time>2018-09-16T06:04:36Z</time>
      </trkpt>
      <trkpt lat="49.904599981382489" lon="8.56437100097537">
        <ele>101.56</ele>
        <time>2018-09-16T06:04:46Z</time>
      </trkpt>
      <trkpt lat="49.904556982219219" lon="8.567008031532168">
        <ele>100.59999999999999</ele>
        <time>2018-09-16T06:04:56Z</time>
      </trkpt>
      <trkpt lat="49.904463021084666" lon="8.569639027118683">
        <ele>103.95999999999999</ele>
        <time>2018-09-16T06:05:06Z</time>
      </trkpt>
      <trkpt lat="49.904207037761807" lon="8.572264993563294">
        <ele>105.40000000000001</ele>
        <time>2018-09-16T06:05:16Z</time>
      </trkpt>
      <trkpt lat="49.903631033375859" lon="8.574173972010613">
        <ele>106.36</ele>
        <time>2018-09-16T06:05:24Z</time>
      </trkpt>
      <trkpt lat="49.902564017102122" lon="8.575914977118373">
        <ele>107.31999999999999</ele>
        <time>2018-09-16T06:05:33Z</time>
      </trkpt>
      <trkpt lat="49.901010012254119" lon="8.578370958566666">
        <ele>109.73</ele>
        <time>2018-09-16T06:05:46Z</time>
      </trkpt>
      <trkpt lat="49.900199985131621" lon="8.5806970205158">
        <ele>109.25</ele>
        <time>2018-09-16T06:05:56Z</time>
      </trkpt>
      <trkpt lat="49.899836964905262" lon="8.583271019160748">
        <ele>108.29000000000001</ele>
        <time>2018-09-16T06:06:06Z</time>
      </trkpt>
      <trkpt lat="49.899805029854178" lon="8.58617601916194">
        <ele>110.20999999999999</ele>
        <time>2018-09-16T06:06:17Z</time>
      </trkpt>
      <trkpt lat="49.89985297434032" lon="8.589346976950765">
        <ele>112.13</ele>
        <time>2018-09-16T06:06:29Z</time>
      </trkpt>
      <trkpt lat="49.899903014302254" lon="8.593884017318487">
        <ele>114.53</ele>
        <time>2018-09-16T06:06:46Z</time>
      </trkpt>
      <trkpt lat="49.899872001260519" lon="8.595338026061654">
        <ele>115.5</ele>
        <time>2018-09-16T06:06:53Z</time>
      </trkpt>
      <trkpt lat="49.899820033460855" lon="8.596419962123036">
        <ele>115.98</ele>
        <time>2018-09-16T06:07:02Z</time>
      </trkpt>
      <trkpt lat="49.899793965741992" lon="8.596916003152728">
        <ele>115.98</ele>
        <time>2018-09-16T06:07:13Z</time>
      </trkpt>
      <trkpt lat="49.899786002933979" lon="8.597085988149047">
        <ele>116.45999999999999</ele>
        <time>2018-09-16T06:07:28Z</time>
      </trkpt>
      <trkpt lat="49.899717019870877" lon="8.59823003411293">
        <ele>115.98</ele>
        <time>2018-09-16T06:07:34Z</time>
      </trkpt>
      <trkpt lat="49.899476962164044" lon="8.600996984168887">
        <ele>119.34</ele>
        <time>2018-09-16T06:07:45Z</time>
      </trkpt>
      <trkpt lat="49.898943034932017" lon="8.603845993056893">
        <ele>127.98999999999999</ele>
        <time>2018-09-16T06:07:56Z</time>
      </trkpt>
      <trkpt lat="49.898282960057259" lon="8.607319034636021">
        <ele>138.09</ele>
        <time>2018-09-16T06:08:09Z</time>
      </trkpt>
      <trkpt lat="49.897537976503372" lon="8.611438991501927">
        <ele>133.28</ele>
        <time>2018-09-16T06:08:25Z</time>
      </trkpt>
      <trkpt lat="49.897017041221261" lon="8.614773983135819">
        <ele>131.36000000000001</ele>
        <time>2018-09-16T06:08:38Z</time>
      </trkpt>
      <trkpt lat="49.896710012108088" lon="8.618452968075872">
        <ele>131.84</ele>
        <time>2018-09-16T06:08:52Z</time>
      </trkpt>
      <trkpt lat="49.89626401104033" lon="8.620958989486098">
        <ele>131.36000000000001</ele>
        <time>2018-09-16T06:09:02Z</time>
      </trkpt>
      <trkpt lat="49.895308976992965" lon="8.623123029246926">
        <ele>128.94999999999999</ele>
        <time>2018-09-16T06:09:12Z</time>
      </trkpt>
      <trkpt lat="49.894124027341604" lon="8.624608973041177">
        <ele>126.55</ele>
        <time>2018-09-16T06:09:21Z</time>
      </trkpt>
      <trkpt lat="49.891788996756077" lon="8.627283973619342">
        <ele>127.98999999999999</ele>
        <time>2018-09-16T06:09:38Z</time>
      </trkpt>
      <trkpt lat="49.891039989888668" lon="8.628254011273384">
        <ele>128.47</ele>
        <time>2018-09-16T06:09:45Z</time>
      </trkpt>
      <trkpt lat="49.890074981376529" lon="8.629477014765143">
        <ele>127.51000000000001</ele>
        <time>2018-09-16T06:09:57Z</time>
      </trkpt>
      <trkpt lat="49.889986971393228" lon="8.629596037790179">
        <ele>127.51000000000001</ele>
        <time>2018-09-16T06:09:58Z</time>
      </trkpt>
      <trkpt lat="49.889352964237332" lon="8.630450991913676">
        <ele>127.98999999999999</ele>
        <time>2018-09-16T06:10:05Z</time>
      </trkpt>
      <trkpt lat="49.88926000893116" lon="8.630583006888628">
        <ele>127.51000000000001</ele>
        <time>2018-09-16T06:10:06Z</time>
      </trkpt>
      <trkpt lat="49.889164036139846" lon="8.630719967186451">
        <ele>127.03</ele>
        <time>2018-09-16T06:10:07Z</time>
      </trkpt>
      <trkpt lat="49.889069991186261" lon="8.630854999646545">
        <ele>126.06999999999999</ele>
        <time>2018-09-16T06:10:08Z</time>
      </trkpt>
      <trkpt lat="49.888983992859721" lon="8.630979973822832">
        <ele>125.59</ele>
        <time>2018-09-16T06:10:09Z</time>
      </trkpt>
      <trkpt lat="49.888736978173256" lon="8.631301000714302">
        <ele>125.59</ele>
        <time>2018-09-16T06:10:12Z</time>
      </trkpt>
      <trkpt lat="49.888673024252057" lon="8.631427986547351">
        <ele>126.06999999999999</ele>
        <time>2018-09-16T06:10:13Z</time>
      </trkpt>
      <trkpt lat="49.888612003996968" lon="8.631550027057529">
        <ele>126.55</ele>
        <time>2018-09-16T06:10:14Z</time>
      </trkpt>
      <trkpt lat="49.888437995687127" lon="8.631915980949998">
        <ele>128.47</ele>
        <time>2018-09-16T06:10:17Z</time>
      </trkpt>
      <trkpt lat="49.888272034004331" lon="8.632589969784021">
        <ele>129.43000000000001</ele>
        <time>2018-09-16T06:10:22Z</time>
      </trkpt>
      <trkpt lat="49.88812199793756" lon="8.632760038599372">
        <ele>128.94999999999999</ele>
        <time>2018-09-16T06:10:23Z</time>
      </trkpt>
      <trkpt lat="49.88805796019733" lon="8.632744029164314">
        <ele>128.94999999999999</ele>
        <time>2018-09-16T06:10:24Z</time>
      </trkpt>
      <trkpt lat="49.88797196187079" lon="8.632721984758973">
        <ele>128.47</ele>
        <time>2018-09-16T06:10:25Z</time>
      </trkpt>
      <trkpt lat="49.887894010171294" lon="8.632705975323916">
        <ele>128.47</ele>
        <time>2018-09-16T06:10:26Z</time>
      </trkpt>
      <trkpt lat="49.887803988531232" lon="8.632734976708889">
        <ele>128.47</ele>
        <time>2018-09-16T06:10:27Z</time>
      </trkpt>
      <trkpt lat="49.88767197355628" lon="8.632807983085513">
        <ele>128.47</ele>
        <time>2018-09-16T06:10:28Z</time>
      </trkpt>
      <trkpt lat="49.887610031291842" lon="8.632875960320234">
        <ele>128.47</ele>
        <time>2018-09-16T06:10:29Z</time>
      </trkpt>
      <trkpt lat="49.887515986338258" lon="8.632979979738593">
        <ele>128.47</ele>
        <time>2018-09-16T06:10:30Z</time>
      </trkpt>
      <trkpt lat="49.887419007718563" lon="8.633092967793346">
        <ele>128.94999999999999</ele>
        <time>2018-09-16T06:10:31Z</time>
      </trkpt>
      <trkpt lat="49.886541003361344" lon="8.63423902541399">
        <ele>129.91999999999999</ele>
        <time>2018-09-16T06:10:40Z</time>
      </trkpt>
      <trkpt lat="49.885849999263883" lon="8.635179977864027">
        <ele>131.36000000000001</ele>
        <time>2018-09-16T06:10:48Z</time>
      </trkpt>
      <trkpt lat="49.885777998715639" lon="8.635277040302753">
        <ele>130.88</ele>
        <time>2018-09-16T06:10:49Z</time>
      </trkpt>
      <trkpt lat="49.885045001283288" lon="8.636279013007879">
        <ele>130.40000000000001</ele>
        <time>2018-09-16T06:10:58Z</time>
      </trkpt>
      <trkpt lat="49.884209996089339" lon="8.637376958504319">
        <ele>132.80000000000001</ele>
        <time>2018-09-16T06:11:08Z</time>
      </trkpt>
      <trkpt lat="49.883961975574493" lon="8.637710977345705">
        <ele>133.75999999999999</ele>
        <time>2018-09-16T06:11:11Z</time>
      </trkpt>
      <trkpt lat="49.883885029703379" lon="8.637813990935683">
        <ele>134.24000000000001</ele>
        <time>2018-09-16T06:11:12Z</time>
      </trkpt>
      <trkpt lat="49.883810011669993" lon="8.637918010354042">
        <ele>134.72</ele>
        <time>2018-09-16T06:11:13Z</time>
      </trkpt>
      <trkpt lat="49.883614964783192" lon="8.638185979798436">
        <ele>134.72</ele>
        <time>2018-09-16T06:11:16Z</time>
      </trkpt>
      <trkpt lat="49.883565008640289" lon="8.638249011710286">
        <ele>134.72</ele>
        <time>2018-09-16T06:11:17Z</time>
      </trkpt>
      <trkpt lat="49.883518991991878" lon="8.638306008651853">
        <ele>134.24000000000001</ele>
        <time>2018-09-16T06:11:18Z</time>
      </trkpt>
      <trkpt lat="49.883471969515085" lon="8.638366023078561">
        <ele>134.24000000000001</ele>
        <time>2018-09-16T06:11:19Z</time>
      </trkpt>
      <trkpt lat="49.883418995887041" lon="8.638431988656521">
        <ele>133.75999999999999</ele>
        <time>2018-09-16T06:11:20Z</time>
      </trkpt>
      <trkpt lat="49.883298967033625" lon="8.638584036380053">
        <ele>133.28</ele>
        <time>2018-09-16T06:11:22Z</time>
      </trkpt>
      <trkpt lat="49.883223026990891" lon="8.638643966987729">
        <ele>133.28</ele>
        <time>2018-09-16T06:11:23Z</time>
      </trkpt>
      <trkpt lat="49.883152032271028" lon="8.638643966987729">
        <ele>133.28</ele>
        <time>2018-09-16T06:11:24Z</time>
      </trkpt>
      <trkpt lat="49.883105009794235" lon="8.638770030811429">
        <ele>133.75999999999999</ele>
        <time>2018-09-16T06:11:25Z</time>
      </trkpt>
      <trkpt lat="49.883085982874036" lon="8.638901961967349">
        <ele>134.24000000000001</ele>
        <time>2018-09-16T06:11:26Z</time>
      </trkpt>
      <trkpt lat="49.883064022287726" lon="8.639057027176023">
        <ele>135.19999999999999</ele>
        <time>2018-09-16T06:11:27Z</time>
      </trkpt>
      <trkpt lat="49.883034015074372" lon="8.639227012172341">
        <ele>135.68000000000001</ele>
        <time>2018-09-16T06:11:28Z</time>
      </trkpt>
      <trkpt lat="49.882753975689411" lon="8.640780011191964">
        <ele>140.00999999999999</ele>
        <time>2018-09-16T06:11:37Z</time>
      </trkpt>
      <trkpt lat="49.882414005696774" lon="8.642763001844287">
        <ele>141.93000000000001</ele>
        <time>2018-09-16T06:11:49Z</time>
      </trkpt>
      <trkpt lat="49.882204961031675" lon="8.644242994487286">
        <ele>143.37</ele>
        <time>2018-09-16T06:11:58Z</time>
      </trkpt>
      <trkpt lat="49.881980996578932" lon="8.645522994920611">
        <ele>143.84999999999999</ele>
        <time>2018-09-16T06:12:07Z</time>
      </trkpt>
      <trkpt lat="49.881963981315494" lon="8.645608993247151">
        <ele>143.84999999999999</ele>
        <time>2018-09-16T06:12:08Z</time>
      </trkpt>
      <trkpt lat="49.881948977708817" lon="8.645677976310253">
        <ele>143.84999999999999</ele>
        <time>2018-09-16T06:12:09Z</time>
      </trkpt>
      <trkpt lat="49.881767006590962" lon="8.645796999335289">
        <ele>143.37</ele>
        <time>2018-09-16T06:12:10Z</time>
      </trkpt>
      <trkpt lat="49.881728030741215" lon="8.645761962980032">
        <ele>143.37</ele>
        <time>2018-09-16T06:12:11Z</time>
      </trkpt>
      <trkpt lat="49.881684025749564" lon="8.645721981301904">
        <ele>143.37</ele>
        <time>2018-09-16T06:12:12Z</time>
      </trkpt>
      <trkpt lat="49.881629962474108" lon="8.645673030987382">
        <ele>142.88999999999999</ele>
        <time>2018-09-16T06:12:13Z</time>
      </trkpt>
      <trkpt lat="49.881565002724528" lon="8.645614022389054">
        <ele>142.88999999999999</ele>
        <time>2018-09-16T06:12:14Z</time>
      </trkpt>
      <trkpt lat="49.881169963628054" lon="8.645254019647837">
        <ele>141.44999999999999</ele>
        <time>2018-09-16T06:12:19Z</time>
      </trkpt>
      <trkpt lat="49.881082037463784" lon="8.645172966644168">
        <ele>140.97</ele>
        <time>2018-09-16T06:12:20Z</time>
      </trkpt>
      <trkpt lat="49.880034970119596" lon="8.644256992265582">
        <ele>139.05000000000001</ele>
        <time>2018-09-16T06:12:31Z</time>
      </trkpt>
      <trkpt lat="49.879069961607456" lon="8.64392900839448">
        <ele>139.05000000000001</ele>
        <time>2018-09-16T06:12:40Z</time>
      </trkpt>
      <trkpt lat="49.877858022227883" lon="8.643658021464944">
        <ele>140.00999999999999</ele>
        <time>2018-09-16T06:12:51Z</time>
      </trkpt>
      <trkpt lat="49.87677801400423" lon="8.643369013443589">
        <ele>139.53</ele>
        <time>2018-09-16T06:13:01Z</time>
      </trkpt>
      <trkpt lat="49.875903027132154" lon="8.64322199486196">
        <ele>139.53</ele>
        <time>2018-09-16T06:13:09Z</time>
      </trkpt>
      <trkpt lat="49.875685013830662" lon="8.643233980983496">
        <ele>139.05000000000001</ele>
        <time>2018-09-16T06:13:11Z</time>
      </trkpt>
      <trkpt lat="49.875507988035679" lon="8.64328402094543">
        <ele>139.05000000000001</ele>
        <time>2018-09-16T06:13:13Z</time>
      </trkpt>
      <trkpt lat="49.875447973608971" lon="8.643302964046598">
        <ele>139.05000000000001</ele>
        <time>2018-09-16T06:13:14Z</time>
      </trkpt>
      <trkpt lat="49.875268014147878" lon="8.643360966816545">
        <ele>140.00999999999999</ele>
        <time>2018-09-16T06:13:22Z</time>
      </trkpt>
      <trkpt lat="49.875053018331528" lon="8.643430033698678">
        <ele>140.00999999999999</ele>
        <time>2018-09-16T06:13:38Z</time>
      </trkpt>
      <trkpt lat="49.874210972338915" lon="8.643690962344408">
        <ele>140.00999999999999</ele>
        <time>2018-09-16T06:13:47Z</time>
      </trkpt>
      <trkpt lat="49.87303901463747" lon="8.64403897896409">
        <ele>142.41</ele>
        <time>2018-09-16T06:13:58Z</time>
      </trkpt>
      <trkpt lat="49.872379023581743" lon="8.644247017800808">
        <ele>144.81999999999999</ele>
        <time>2018-09-16T06:14:05Z</time>
      </trkpt>
      <trkpt lat="49.87230802886188" lon="8.644265960901976">
        <ele>145.78</ele>
        <time>2018-09-16T06:14:06Z</time>
      </trkpt>
      <trkpt lat="49.872124968096614" lon="8.644364029169083">
        <ele>151.06</ele>
        <time>2018-09-16T06:14:13Z</time>
      </trkpt>
      <trkpt lat="49.87198599614203" lon="8.644438041374087">
        <ele>152.03</ele>
        <time>2018-09-16T06:14:51Z</time>
      </trkpt>
      <trkpt lat="49.871202036738396" lon="8.644762001931667">
        <ele>152.03</ele>
        <time>2018-09-16T06:14:59Z</time>
      </trkpt>
      <trkpt lat="49.87005203962326" lon="8.645255025476217">
        <ele>152.99000000000001</ele>
        <time>2018-09-16T06:15:09Z</time>
      </trkpt>
      <trkpt lat="49.868901958689094" lon="8.645645035430789">
        <ele>152.99000000000001</ele>
        <time>2018-09-16T06:15:20Z</time>
      </trkpt>
      <trkpt lat="49.868636000901461" lon="8.645721981301904">
        <ele>150.58000000000001</ele>
        <time>2018-09-16T06:15:26Z</time>
      </trkpt>
      <trkpt lat="49.868636000901461" lon="8.645721981301904">
        <ele>150.58000000000001</ele>
        <time>2018-09-16T06:15:41Z</time>
      </trkpt>
      <trkpt lat="49.868512032553554" lon="8.645758023485541">
        <ele>149.62</ele>
        <time>2018-09-16T06:15:47Z</time>
      </trkpt>
      <trkpt lat="49.868456963449717" lon="8.645774032920599">
        <ele>149.13999999999999</ele>
        <time>2018-09-16T06:15:48Z</time>
      </trkpt>
      <trkpt lat="49.868422010913491" lon="8.645905964076519">
        <ele>149.13999999999999</ele>
        <time>2018-09-16T06:15:49Z</time>
      </trkpt>
      <trkpt lat="49.868445983156562" lon="8.646047031506896">
        <ele>148.66</ele>
        <time>2018-09-16T06:15:50Z</time>
      </trkpt>
      <trkpt lat="49.868454029783607" lon="8.646132024005055">
        <ele>148.66</ele>
        <time>2018-09-16T06:15:51Z</time>
      </trkpt>
      <trkpt lat="49.868469033390284" lon="8.646269990131259">
        <ele>148.66</ele>
        <time>2018-09-16T06:15:52Z</time>
      </trkpt>
      <trkpt lat="49.868494011461735" lon="8.646427989006043">
        <ele>148.66</ele>
        <time>2018-09-16T06:15:53Z</time>
      </trkpt>
      <trkpt lat="49.868771033361554" lon="8.648253986611962">
        <ele>149.13999999999999</ele>
        <time>2018-09-16T06:16:04Z</time>
      </trkpt>
      <trkpt lat="49.869015030562878" lon="8.650304032489657">
        <ele>155.38999999999999</ele>
        <time>2018-09-16T06:16:17Z</time>
      </trkpt>
      <trkpt lat="49.869095999747515" lon="8.650822034105659">
        <ele>157.31</ele>
        <time>2018-09-16T06:16:22Z</time>
      </trkpt>
      <trkpt lat="49.869113015010953" lon="8.650928987190127">
        <ele>157.31</ele>
        <time>2018-09-16T06:16:23Z</time>
      </trkpt>
      <trkpt lat="49.869195995852351" lon="8.651440031826496">
        <ele>157.78999999999999</ele>
        <time>2018-09-16T06:16:28Z</time>
      </trkpt>
      <trkpt lat="49.869278976693749" lon="8.651988040655851">
        <ele>157.31</ele>
        <time>2018-09-16T06:16:32Z</time>
      </trkpt>
      <trkpt lat="49.869304038584232" lon="8.652141010388732">
        <ele>157.31</ele>
        <time>2018-09-16T06:16:36Z</time>
      </trkpt>
      <trkpt lat="49.869339996948838" lon="8.65230998955667">
        <ele>157.31</ele>
        <time>2018-09-16T06:16:37Z</time>
      </trkpt>
      <trkpt lat="49.869368998333812" lon="8.652442004531622">
        <ele>157.78999999999999</ele>
        <time>2018-09-16T06:16:38Z</time>
      </trkpt>
      <trkpt lat="49.869376039132476" lon="8.652496989816427">
        <ele>157.31</ele>
        <time>2018-09-16T06:16:39Z</time>
      </trkpt>
      <trkpt lat="49.869390036910772" lon="8.652602015063167">
        <ele>157.31</ele>
        <time>2018-09-16T06:16:40Z</time>
      </trkpt>
      <trkpt lat="49.869403028860688" lon="8.652701005339623">
        <ele>157.31</ele>
        <time>2018-09-16T06:16:41Z</time>
      </trkpt>
      <trkpt lat="49.869416020810604" lon="8.652794966474176">
        <ele>157.31</ele>
        <time>2018-09-16T06:16:42Z</time>
      </trkpt>
      <trkpt lat="49.869430018588901" lon="8.652903009206057">
        <ele>157.31</ele>
        <time>2018-09-16T06:16:43Z</time>
      </trkpt>
      <trkpt lat="49.869443010538816" lon="8.653003005310893">
        <ele>157.78999999999999</ele>
        <time>2018-09-16T06:16:44Z</time>
      </trkpt>
      <trkpt lat="49.869458014145494" lon="8.653109036386013">
        <ele>157.78999999999999</ele>
        <time>2018-09-16T06:16:45Z</time>
      </trkpt>
      <trkpt lat="49.869534960016608" lon="8.653647992759943">
        <ele>158.75</ele>
        <time>2018-09-16T06:16:50Z</time>
      </trkpt>
      <trkpt lat="49.869562033563852" lon="8.653878998011351">
        <ele>158.75</ele>
        <time>2018-09-16T06:16:51Z</time>
      </trkpt>
      <trkpt lat="49.869719026610255" lon="8.65495297126472">
        <ele>160.68000000000001</ele>
        <time>2018-09-16T06:17:02Z</time>
      </trkpt>
      <trkpt lat="49.869734030216932" lon="8.655067970976234">
        <ele>161.16</ele>
        <time>2018-09-16T06:17:03Z</time>
      </trkpt>
      <trkpt lat="49.869777029380202" lon="8.655394027009606">
        <ele>161.63999999999999</ele>
        <time>2018-09-16T06:17:06Z</time>
      </trkpt>
      <trkpt lat="49.869789015501738" lon="8.655485976487398">
        <ele>162.12</ele>
        <time>2018-09-16T06:17:07Z</time>
      </trkpt>
      <trkpt lat="49.869889011606574" lon="8.65617698058486">
        <ele>161.63999999999999</ele>
        <time>2018-09-16T06:17:17Z</time>
      </trkpt>
      <trkpt lat="49.869896974414587" lon="8.656229032203555">
        <ele>161.16</ele>
        <time>2018-09-16T06:17:29Z</time>
      </trkpt>
      <trkpt lat="49.869896974414587" lon="8.656229032203555">
        <ele>161.16</ele>
        <time>2018-09-16T06:17:32Z</time>
      </trkpt>
      <trkpt lat="49.869905021041632" lon="8.65628301165998">
        <ele>160.68000000000001</ele>
        <time>2018-09-16T06:17:33Z</time>
      </trkpt>
      <trkpt lat="49.869876019656658" lon="8.656332967802882">
        <ele>160.68000000000001</ele>
        <time>2018-09-16T06:17:34Z</time>
      </trkpt>
      <trkpt lat="49.869849029928446" lon="8.656380996108055">
        <ele>160.68000000000001</ele>
        <time>2018-09-16T06:17:35Z</time>
      </trkpt>
      <trkpt lat="49.869819022715092" lon="8.656432963907719">
        <ele>160.68000000000001</ele>
        <time>2018-09-16T06:17:36Z</time>
      </trkpt>
      <trkpt lat="49.869776023551822" lon="8.656471017748117">
        <ele>160.68000000000001</ele>
        <time>2018-09-16T06:17:37Z</time>
      </trkpt>
      <trkpt lat="49.869733024388552" lon="8.656507981941104">
        <ele>160.68000000000001</ele>
        <time>2018-09-16T06:17:38Z</time>
      </trkpt>
      <trkpt lat="49.869692958891392" lon="8.656543018296361">
        <ele>160.68000000000001</ele>
        <time>2018-09-16T06:17:39Z</time>
      </trkpt>
      <trkpt lat="49.869649037718773" lon="8.656581994146109">
        <ele>160.68000000000001</ele>
        <time>2018-09-16T06:17:40Z</time>
      </trkpt>
      <trkpt lat="49.869597991928458" lon="8.65662801079452">
        <ele>160.68000000000001</ele>
        <time>2018-09-16T06:17:41Z</time>
      </trkpt>
      <trkpt lat="49.869540994986892" lon="8.656678972765803">
        <ele>160.68000000000001</ele>
        <time>2018-09-16T06:17:42Z</time>
      </trkpt>
      <trkpt lat="49.869482992216945" lon="8.656731024384499">
        <ele>160.68000000000001</ele>
        <time>2018-09-16T06:17:43Z</time>
      </trkpt>
      <trkpt lat="49.869433036074042" lon="8.65677603520453">
        <ele>160.68000000000001</ele>
        <time>2018-09-16T06:17:44Z</time>
      </trkpt>
      <trkpt lat="49.869395988062024" lon="8.656845018267632">
        <ele>161.16</ele>
        <time>2018-09-16T06:17:45Z</time>
      </trkpt>
      <trkpt lat="49.869352988898754" lon="8.656924981623888">
        <ele>161.63999999999999</ele>
        <time>2018-09-16T06:17:46Z</time>
      </trkpt>
      <trkpt lat="49.869283000007272" lon="8.657054984942079">
        <ele>162.12</ele>
        <time>2018-09-16T06:17:47Z</time>
      </trkpt>
      <trkpt lat="49.869284005835652" lon="8.6571229621768">
        <ele>162.59999999999999</ele>
        <time>2018-09-16T06:17:48Z</time>
      </trkpt>
      <trkpt lat="49.869286017492414" lon="8.657241985201836">
        <ele>162.59999999999999</ele>
        <time>2018-09-16T06:17:49Z</time>
      </trkpt>
      <trkpt lat="49.869287023320794" lon="8.657366037368774">
        <ele>163.08000000000001</ele>
        <time>2018-09-16T06:17:50Z</time>
      </trkpt>
      <trkpt lat="49.869304038584232" lon="8.65890403278172">
        <ele>167.41</ele>
        <time>2018-09-16T06:18:00Z</time>
      </trkpt>
      <trkpt lat="49.86930001527071" lon="8.660772023722529">
        <ele>168.37</ele>
        <time>2018-09-16T06:18:12Z</time>
      </trkpt>
      <trkpt lat="49.869283000007272" lon="8.661540979519486">
        <ele>169.81</ele>
        <time>2018-09-16T06:18:20Z</time>
      </trkpt>
      <trkpt lat="49.869283000007272" lon="8.661598982289434">
        <ele>170.77000000000001</ele>
        <time>2018-09-16T06:18:28Z</time>
      </trkpt>
      <trkpt lat="49.869283000007272" lon="8.661736026406288">
        <ele>171.25</ele>
        <time>2018-09-16T06:18:38Z</time>
      </trkpt>
      <trkpt lat="49.869275959208608" lon="8.66191104054451">
        <ele>172.21000000000001</ele>
        <time>2018-09-16T06:18:40Z</time>
      </trkpt>
      <trkpt lat="49.869267996400595" lon="8.662007013335824">
        <ele>172.69</ele>
        <time>2018-09-16T06:18:41Z</time>
      </trkpt>
      <trkpt lat="49.869259027764201" lon="8.662104997783899">
        <ele>172.69</ele>
        <time>2018-09-16T06:18:42Z</time>
      </trkpt>
      <trkpt lat="49.869203958660364" lon="8.66234396584332">
        <ele>172.69</ele>
        <time>2018-09-16T06:18:43Z</time>
      </trkpt>
      <trkpt lat="49.869135981425643" lon="8.662404986098409">
        <ele>172.69</ele>
        <time>2018-09-16T06:18:44Z</time>
      </trkpt>
      <trkpt lat="49.869065992534161" lon="8.662468018010259">
        <ele>172.69</ele>
        <time>2018-09-16T06:18:45Z</time>
      </trkpt>
      <trkpt lat="49.868513038381934" lon="8.662988031283021">
        <ele>174.13999999999999</ele>
        <time>2018-09-16T06:18:52Z</time>
      </trkpt>
      <trkpt lat="49.86844195984304" lon="8.663055002689362">
        <ele>174.13999999999999</ele>
        <time>2018-09-16T06:18:53Z</time>
      </trkpt>
      <trkpt lat="49.868379011750221" lon="8.663114011287689">
        <ele>174.62</ele>
        <time>2018-09-16T06:18:54Z</time>
      </trkpt>
      <trkpt lat="49.868027977645397" lon="8.663467979058623">
        <ele>175.58000000000001</ele>
        <time>2018-09-16T06:19:01Z</time>
      </trkpt>
      <trkpt lat="49.867765959352255" lon="8.663737960159779">
        <ele>176.53999999999999</ele>
        <time>2018-09-16T06:19:10Z</time>
      </trkpt>
      <trkpt lat="49.867620030418038" lon="8.663887996226549">
        <ele>176.06</ele>
        <time>2018-09-16T06:19:36Z</time>
      </trkpt>
      <trkpt lat="49.867164976894855" lon="8.664255039766431">
        <ele>176.06</ele>
        <time>2018-09-16T06:19:41Z</time>
      </trkpt>
      <trkpt lat="49.867067998275161" lon="8.664323017001152">
        <ele>176.53999999999999</ele>
        <time>2018-09-16T06:19:42Z</time>
      </trkpt>
      <trkpt lat="49.866969007998705" lon="8.664390994235873">
        <ele>176.53999999999999</ele>
        <time>2018-09-16T06:19:43Z</time>
      </trkpt>
      <trkpt lat="49.865876007825136" lon="8.665144024416804">
        <ele>178.46000000000001</ele>
        <time>2018-09-16T06:19:54Z</time>
      </trkpt>
      <trkpt lat="49.864816032350063" lon="8.665897976607084">
        <ele>180.87</ele>
        <time>2018-09-16T06:20:04Z</time>
      </trkpt>
      <trkpt lat="49.863811964169145" lon="8.666605995967984">
        <ele>181.83000000000001</ele>
        <time>2018-09-16T06:20:13Z</time>
      </trkpt>
      <trkpt lat="49.862786019220948" lon="8.667293982580304">
        <ele>181.34999999999999</ele>
        <time>2018-09-16T06:20:22Z</time>
      </trkpt>
      <trkpt lat="49.862661967054009" lon="8.667326001450419">
        <ele>181.34999999999999</ele>
        <time>2018-09-16T06:20:23Z</time>
      </trkpt>
      <trkpt lat="49.86167399212718" lon="8.667586008086801">
        <ele>179.41999999999999</ele>
        <time>2018-09-16T06:20:31Z</time>
      </trkpt>
      <trkpt lat="49.860447971150279" lon="8.667874010279775">
        <ele>179.90000000000001</ele>
        <time>2018-09-16T06:20:41Z</time>
      </trkpt>
      <trkpt lat="49.858849961310625" lon="8.668240970000625">
        <ele>184.22999999999999</ele>
        <time>2018-09-16T06:20:54Z</time>
      </trkpt>
      <trkpt lat="49.857617989182472" lon="8.668567026033998">
        <ele>185.19</ele>
        <time>2018-09-16T06:21:04Z</time>
      </trkpt>
      <trkpt lat="49.856013022363186" lon="8.668949995189905">
        <ele>186.63</ele>
        <time>2018-09-16T06:21:17Z</time>
      </trkpt>
      <trkpt lat="49.854680970311165" lon="8.669438995420933">
        <ele>186.63</ele>
        <time>2018-09-16T06:21:28Z</time>
      </trkpt>
      <trkpt lat="49.854562031105161" lon="8.669501021504402">
        <ele>187.11000000000001</ele>
        <time>2018-09-16T06:21:29Z</time>
      </trkpt>
      <trkpt lat="49.853168036788702" lon="8.670315993949771">
        <ele>192.88</ele>
        <time>2018-09-16T06:21:41Z</time>
      </trkpt>
      <trkpt lat="49.852238986641169" lon="8.670814968645573">
        <ele>198.16999999999999</ele>
        <time>2018-09-16T06:21:49Z</time>
      </trkpt>
      <trkpt lat="49.852141002193093" lon="8.670933991670609">
        <ele>198.65000000000001</ele>
        <time>2018-09-16T06:21:50Z</time>
      </trkpt>
      <trkpt lat="49.852053998038173" lon="8.67106500081718">
        <ele>199.61000000000001</ele>
        <time>2018-09-16T06:21:51Z</time>
      </trkpt>
      <trkpt lat="49.851988032460213" lon="8.671196009963751">
        <ele>200.56999999999999</ele>
        <time>2018-09-16T06:21:52Z</time>
      </trkpt>
      <trkpt lat="49.851927012205124" lon="8.671388039365411">
        <ele>201.53</ele>
        <time>2018-09-16T06:21:53Z</time>
      </trkpt>
      <trkpt lat="49.85187403857708" lon="8.671557018533349">
        <ele>202.00999999999999</ele>
        <time>2018-09-16T06:21:54Z</time>
      </trkpt>
      <trkpt lat="49.851844031363726" lon="8.671739995479584">
        <ele>202.97999999999999</ele>
        <time>2018-09-16T06:21:55Z</time>
      </trkpt>
      <trkpt lat="49.851817041635513" lon="8.671934958547354">
        <ele>203.46000000000001</ele>
        <time>2018-09-16T06:21:56Z</time>
      </trkpt>
      <trkpt lat="49.851785022765398" lon="8.672148026525974">
        <ele>203.94</ele>
        <time>2018-09-16T06:21:57Z</time>
      </trkpt>
      <trkpt lat="49.85174898058176" lon="8.672382971271873">
        <ele>204.90000000000001</ele>
        <time>2018-09-16T06:21:58Z</time>
      </trkpt>
      <trkpt lat="49.851710004732013" lon="8.672639960423112">
        <ele>205.38</ele>
        <time>2018-09-16T06:21:59Z</time>
      </trkpt>
      <trkpt lat="49.851517975330353" lon="8.673904035240412">
        <ele>208.25999999999999</ele>
        <time>2018-09-16T06:22:04Z</time>
      </trkpt>
      <trkpt lat="49.85142502002418" lon="8.674065973609686">
        <ele>208.74000000000001</ele>
        <time>2018-09-16T06:22:05Z</time>
      </trkpt>
      <trkpt lat="49.851323012262583" lon="8.674229001626372">
        <ele>209.69999999999999</ele>
        <time>2018-09-16T06:22:06Z</time>
      </trkpt>
      <trkpt lat="49.851207006722689" lon="8.674294967204332">
        <ele>210.19</ele>
        <time>2018-09-16T06:22:07Z</time>
      </trkpt>
      <trkpt lat="49.851058982312679" lon="8.674345007166266">
        <ele>211.15000000000001</ele>
        <time>2018-09-16T06:22:08Z</time>
      </trkpt>
      <trkpt lat="49.850910035893321" lon="8.674362022429705">
        <ele>211.63</ele>
        <time>2018-09-16T06:22:09Z</time>
      </trkpt>
      <trkpt lat="49.850738039240241" lon="8.674336960539222">
        <ele>212.11000000000001</ele>
        <time>2018-09-16T06:22:10Z</time>
      </trkpt>
      <trkpt lat="49.850366972386837" lon="8.674283986911178">
        <ele>213.06999999999999</ele>
        <time>2018-09-16T06:22:12Z</time>
      </trkpt>
      <trkpt lat="49.850175026804209" lon="8.674256997182965">
        <ele>213.06999999999999</ele>
        <time>2018-09-16T06:22:13Z</time>
      </trkpt>
      <trkpt lat="49.849994983524084" lon="8.674250040203333">
        <ele>213.55000000000001</ele>
        <time>2018-09-16T06:22:14Z</time>
      </trkpt>
      <trkpt lat="49.849476981908083" lon="8.674298990517855">
        <ele>213.55000000000001</ele>
        <time>2018-09-16T06:22:17Z</time>
      </trkpt>
      <trkpt lat="49.849119996652007" lon="8.674418013542891">
        <ele>212.59</ele>
        <time>2018-09-16T06:22:19Z</time>
      </trkpt>
      <trkpt lat="49.848947999998927" lon="8.674488002434373">
        <ele>212.11000000000001</ele>
        <time>2018-09-16T06:22:20Z</time>
      </trkpt>
      <trkpt lat="49.847219986841083" lon="8.675071969628334">
        <ele>204.41999999999999</ele>
        <time>2018-09-16T06:22:30Z</time>
      </trkpt>
      <trkpt lat="49.845655001699924" lon="8.675597012042999">
        <ele>206.81999999999999</ele>
        <time>2018-09-16T06:22:39Z</time>
      </trkpt>
      <trkpt lat="49.844395034015179" lon="8.676106967031956">
        <ele>211.63</ele>
        <time>2018-09-16T06:22:46Z</time>
      </trkpt>
      <trkpt lat="49.844226976856589" lon="8.676229007542133">
        <ele>211.63</ele>
        <time>2018-09-16T06:22:47Z</time>
      </trkpt>
      <trkpt lat="49.843210000544786" lon="8.677389984950423">
        <ele>218.36000000000001</ele>
        <time>2018-09-16T06:22:54Z</time>
      </trkpt>
      <trkpt lat="49.842576999217272" lon="8.679162003099918">
        <ele>222.68000000000001</ele>
        <time>2018-09-16T06:23:01Z</time>
      </trkpt>
      <trkpt lat="49.842448001727462" lon="8.679715963080525">
        <ele>223.16</ele>
        <time>2018-09-16T06:23:03Z</time>
      </trkpt>
      <trkpt lat="49.842384969815612" lon="8.679989967495203">
        <ele>223.16</ele>
        <time>2018-09-16T06:23:04Z</time>
      </trkpt>
      <trkpt lat="49.841848025098443" lon="8.681869022548199">
        <ele>223.63999999999999</ele>
        <time>2018-09-16T06:23:11Z</time>
      </trkpt>
      <trkpt lat="49.841250982135534" lon="8.683732990175486">
        <ele>223.63999999999999</ele>
        <time>2018-09-16T06:23:18Z</time>
      </trkpt>
      <trkpt lat="49.840630972757936" lon="8.68587096221745">
        <ele>223.63999999999999</ele>
        <time>2018-09-16T06:23:26Z</time>
      </trkpt>
      <trkpt lat="49.840054968371987" lon="8.687865016981959">
        <ele>224.61000000000001</ele>
        <time>2018-09-16T06:23:34Z</time>
      </trkpt>
      <trkpt lat="49.839895041659474" lon="8.688259972259402">
        <ele>225.09</ele>
        <time>2018-09-16T06:23:36Z</time>
      </trkpt>
      <trkpt lat="49.839805020019412" lon="8.688416965305805">
        <ele>225.09</ele>
        <time>2018-09-16T06:23:37Z</time>
      </trkpt>
      <trkpt lat="49.839702006429434" lon="8.688560966402292">
        <ele>225.56999999999999</ele>
        <time>2018-09-16T06:23:38Z</time>
      </trkpt>
      <trkpt lat="49.839592035859823" lon="8.688694993034005">
        <ele>225.56999999999999</ele>
        <time>2018-09-16T06:23:39Z</time>
      </trkpt>
      <trkpt lat="49.83947996981442" lon="8.688798006623983">
        <ele>225.56999999999999</ele>
        <time>2018-09-16T06:23:40Z</time>
      </trkpt>
      <trkpt lat="49.839364970102906" lon="8.688903031870723">
        <ele>225.56999999999999</ele>
        <time>2018-09-16T06:23:41Z</time>
      </trkpt>
      <trkpt lat="49.838259983807802" lon="8.689428996294737">
        <ele>219.80000000000001</ele>
        <time>2018-09-16T06:23:50Z</time>
      </trkpt>
      <trkpt lat="49.838161999359727" lon="8.689527986571193">
        <ele>219.31999999999999</ele>
        <time>2018-09-16T06:23:51Z</time>
      </trkpt>
      <trkpt lat="49.837871985509992" lon="8.689816994592547">
        <ele>216.43000000000001</ele>
        <time>2018-09-16T06:23:54Z</time>
      </trkpt>
      <trkpt lat="49.837771989405155" lon="8.689928976818919">
        <ele>215.94999999999999</ele>
        <time>2018-09-16T06:23:55Z</time>
      </trkpt>
      <trkpt lat="49.837703006342053" lon="8.690074989572167">
        <ele>215.47</ele>
        <time>2018-09-16T06:23:56Z</time>
      </trkpt>
      <trkpt lat="49.836746966466308" lon="8.692010035738349">
        <ele>207.78</ele>
        <time>2018-09-16T06:24:09Z</time>
      </trkpt>
      <trkpt lat="49.835885977372527" lon="8.693786999210715">
        <ele>202.00999999999999</ele>
        <time>2018-09-16T06:24:20Z</time>
      </trkpt>
      <trkpt lat="49.835101012140512" lon="8.695420967414975">
        <ele>194.31999999999999</ele>
        <time>2018-09-16T06:24:29Z</time>
      </trkpt>
      <trkpt lat="49.835018031299114" lon="8.695588018745184">
        <ele>193.84</ele>
        <time>2018-09-16T06:24:30Z</time>
      </trkpt>
      <trkpt lat="49.833966018632054" lon="8.697738982737064">
        <ele>190.96000000000001</ele>
        <time>2018-09-16T06:24:42Z</time>
      </trkpt>
      <trkpt lat="49.833058007061481" lon="8.699569003656507">
        <ele>189.52000000000001</ele>
        <time>2018-09-16T06:24:52Z</time>
      </trkpt>
      <trkpt lat="49.832250997424126" lon="8.701221998780966">
        <ele>187.11000000000001</ele>
        <time>2018-09-16T06:25:01Z</time>
      </trkpt>
      <trkpt lat="49.831298980861902" lon="8.703217981383205">
        <ele>182.31</ele>
        <time>2018-09-16T06:25:12Z</time>
      </trkpt>
      <trkpt lat="49.830429023131728" lon="8.705042973160744">
        <ele>179.90000000000001</ele>
        <time>2018-09-16T06:25:22Z</time>
      </trkpt>
      <trkpt lat="49.829378016293049" lon="8.707210030406714">
        <ele>178.94</ele>
        <time>2018-09-16T06:25:34Z</time>
      </trkpt>
      <trkpt lat="49.829286988824606" lon="8.707384038716555">
        <ele>178.94</ele>
        <time>2018-09-16T06:25:35Z</time>
      </trkpt>
      <trkpt lat="49.828544016927481" lon="8.709305003285408">
        <ele>180.87</ele>
        <time>2018-09-16T06:25:45Z</time>
      </trkpt>
      <trkpt lat="49.828364979475737" lon="8.709918977692723">
        <ele>182.31</ele>
        <time>2018-09-16T06:25:48Z</time>
      </trkpt>
      <trkpt lat="49.827967006713152" lon="8.711326969787478">
        <ele>183.27000000000001</ele>
        <time>2018-09-16T06:25:56Z</time>
      </trkpt>
      <trkpt lat="49.827504996210337" lon="8.713048025965691">
        <ele>186.63</ele>
        <time>2018-09-16T06:26:06Z</time>
      </trkpt>
      <trkpt lat="49.827198972925544" lon="8.714474961161614">
        <ele>190</ele>
        <time>2018-09-16T06:26:14Z</time>
      </trkpt>
      <trkpt lat="49.827182963490486" lon="8.714659027755261">
        <ele>190.47999999999999</ele>
        <time>2018-09-16T06:26:15Z</time>
      </trkpt>
      <trkpt lat="49.82716703787446" lon="8.714844016358256">
        <ele>190.47999999999999</ele>
        <time>2018-09-16T06:26:16Z</time>
      </trkpt>
      <trkpt lat="49.827161002904177" lon="8.715532002970576">
        <ele>190.96000000000001</ele>
        <time>2018-09-16T06:26:20Z</time>
      </trkpt>
      <trkpt lat="49.827154967933893" lon="8.715662006288767">
        <ele>190.96000000000001</ele>
        <time>2018-09-16T06:26:21Z</time>
      </trkpt>
      <trkpt lat="49.827135019004345" lon="8.715757979080081">
        <ele>190.96000000000001</ele>
        <time>2018-09-16T06:26:22Z</time>
      </trkpt>
      <trkpt lat="49.827116997912526" lon="8.715840959921479">
        <ele>190.96000000000001</ele>
        <time>2018-09-16T06:26:23Z</time>
      </trkpt>
      <trkpt lat="49.827092019841075" lon="8.715942967683077">
        <ele>190.96000000000001</ele>
        <time>2018-09-16T06:26:24Z</time>
      </trkpt>
      <trkpt lat="49.827065030112863" lon="8.715984961017966">
        <ele>190.96000000000001</ele>
        <time>2018-09-16T06:26:25Z</time>
      </trkpt>
      <trkpt lat="49.827048014849424" lon="8.71601102873683">
        <ele>190.47999999999999</ele>
        <time>2018-09-16T06:26:26Z</time>
      </trkpt>
      <trkpt lat="49.826990012079477" lon="8.71610096655786">
        <ele>190.47999999999999</ele>
        <time>2018-09-16T06:26:35Z</time>
      </trkpt>
      <trkpt lat="49.826948018744588" lon="8.716166010126472">
        <ele>190.47999999999999</ele>
        <time>2018-09-16T06:26:36Z</time>
      </trkpt>
      <trkpt lat="49.826912982389331" lon="8.716277992352843">
        <ele>190.96000000000001</ele>
        <time>2018-09-16T06:26:37Z</time>
      </trkpt>
      <trkpt lat="49.826946007087827" lon="8.716425010934472">
        <ele>190.96000000000001</ele>
        <time>2018-09-16T06:26:38Z</time>
      </trkpt>
      <trkpt lat="49.826989006251097" lon="8.716596001759172">
        <ele>190.96000000000001</ele>
        <time>2018-09-16T06:26:39Z</time>
      </trkpt>
      <trkpt lat="49.827245995402336" lon="8.718394003808498">
        <ele>191.44</ele>
        <time>2018-09-16T06:26:47Z</time>
      </trkpt>
      <trkpt lat="49.827437018975616" lon="8.720029983669519">
        <ele>192.40000000000001</ele>
        <time>2018-09-16T06:26:55Z</time>
      </trkpt>
      <trkpt lat="49.827612033113837" lon="8.721419032663107">
        <ele>192.40000000000001</ele>
        <time>2018-09-16T06:27:03Z</time>
      </trkpt>
      <trkpt lat="49.827630976215005" lon="8.721593040972948">
        <ele>192.88</ele>
        <time>2018-09-16T06:27:04Z</time>
      </trkpt>
      <trkpt lat="49.827843960374594" lon="8.723636968061328">
        <ele>193.84</ele>
        <time>2018-09-16T06:27:14Z</time>
      </trkpt>
      <trkpt lat="49.827929036691785" lon="8.726137038320303">
        <ele>198.16999999999999</ele>
        <time>2018-09-16T06:27:25Z</time>
      </trkpt>
      <trkpt lat="49.827784029766917" lon="8.727221991866827">
        <ele>199.61000000000001</ele>
        <time>2018-09-16T06:27:32Z</time>
      </trkpt>
      <trkpt lat="49.827744970098138" lon="8.727377979084849">
        <ele>199.61000000000001</ele>
        <time>2018-09-16T06:27:33Z</time>
      </trkpt>
      <trkpt lat="49.827239038422704" lon="8.729036003351212">
        <ele>202.97999999999999</ele>
        <time>2018-09-16T06:27:44Z</time>
      </trkpt>
      <trkpt lat="49.826564965769649" lon="8.73010503128171">
        <ele>206.34</ele>
        <time>2018-09-16T06:27:50Z</time>
      </trkpt>
      <trkpt lat="49.825289994478226" lon="8.731679990887642">
        <ele>214.99000000000001</ele>
        <time>2018-09-16T06:27:57Z</time>
      </trkpt>
      <trkpt lat="49.824118036776781" lon="8.733627023175359">
        <ele>227.49000000000001</ele>
        <time>2018-09-16T06:28:04Z</time>
      </trkpt>
      <trkpt lat="49.823244977742434" lon="8.736302023753524">
        <ele>241.43000000000001</ele>
        <time>2018-09-16T06:28:12Z</time>
      </trkpt>
      <trkpt lat="49.822540981695056" lon="8.738079993054271">
        <ele>245.75</ele>
        <time>2018-09-16T06:28:18Z</time>
      </trkpt>
      <trkpt lat="49.821304986253381" lon="8.740242021158338">
        <ele>244.78999999999999</ele>
        <time>2018-09-16T06:28:26Z</time>
      </trkpt>
      <trkpt lat="49.820820009335876" lon="8.742264993488789">
        <ele>239.50999999999999</ele>
        <time>2018-09-16T06:28:32Z</time>
      </trkpt>
      <trkpt lat="49.82031399384141" lon="8.744991961866617">
        <ele>230.37</ele>
        <time>2018-09-16T06:28:40Z</time>
      </trkpt>
      <trkpt lat="49.81992700137198" lon="8.746491987258196">
        <ele>225.56999999999999</ele>
        <time>2018-09-16T06:28:45Z</time>
      </trkpt>
      <trkpt lat="49.819908980280161" lon="8.746804967522621">
        <ele>225.09</ele>
        <time>2018-09-16T06:28:46Z</time>
      </trkpt>
      <trkpt lat="49.819908980280161" lon="8.747122976928949">
        <ele>224.61000000000001</ele>
        <time>2018-09-16T06:28:47Z</time>
      </trkpt>
      <trkpt lat="49.819920966401696" lon="8.747421959415078">
        <ele>224.12</ele>
        <time>2018-09-16T06:28:48Z</time>
      </trkpt>
      <trkpt lat="49.819948961958289" lon="8.747698981314898">
        <ele>223.63999999999999</ele>
        <time>2018-09-16T06:28:49Z</time>
      </trkpt>
      <trkpt lat="49.819987015798688" lon="8.747974997386336">
        <ele>223.16</ele>
        <time>2018-09-16T06:28:50Z</time>
      </trkpt>
      <trkpt lat="49.820024985820055" lon="8.748249001801014">
        <ele>222.68000000000001</ele>
        <time>2018-09-16T06:28:51Z</time>
      </trkpt>
      <trkpt lat="49.820081982761621" lon="8.748509008437395">
        <ele>222.68000000000001</ele>
        <time>2018-09-16T06:28:52Z</time>
      </trkpt>
      <trkpt lat="49.820149959996343" lon="8.748772032558918">
        <ele>222.68000000000001</ele>
        <time>2018-09-16T06:28:53Z</time>
      </trkpt>
      <trkpt lat="49.820224978029728" lon="8.749031033366919">
        <ele>222.68000000000001</ele>
        <time>2018-09-16T06:28:54Z</time>
      </trkpt>
      <trkpt lat="49.820306031033397" lon="8.749286010861397">
        <ele>222.68000000000001</ele>
        <time>2018-09-16T06:28:55Z</time>
      </trkpt>
      <trkpt lat="49.820468975231051" lon="8.749793032184243">
        <ele>223.16</ele>
        <time>2018-09-16T06:28:57Z</time>
      </trkpt>
      <trkpt lat="49.82054902240634" lon="8.750040968880057">
        <ele>223.16</ele>
        <time>2018-09-16T06:28:58Z</time>
      </trkpt>
      <trkpt lat="49.820563020184636" lon="8.75032301992178">
        <ele>223.63999999999999</ele>
        <time>2018-09-16T06:28:59Z</time>
      </trkpt>
      <trkpt lat="49.820574000477791" lon="8.75060498714447">
        <ele>224.12</ele>
        <time>2018-09-16T06:29:00Z</time>
      </trkpt>
      <trkpt lat="49.820584980770946" lon="8.750887960195541">
        <ele>224.61000000000001</ele>
        <time>2018-09-16T06:29:01Z</time>
      </trkpt>
      <trkpt lat="49.82059302739799" lon="8.751166993752122">
        <ele>224.61000000000001</ele>
        <time>2018-09-16T06:29:02Z</time>
      </trkpt>
      <trkpt lat="49.82055296190083" lon="8.75144200399518">
        <ele>225.09</ele>
        <time>2018-09-16T06:29:03Z</time>
      </trkpt>
      <trkpt lat="49.820513986051083" lon="8.751715002581477">
        <ele>225.56999999999999</ele>
        <time>2018-09-16T06:29:04Z</time>
      </trkpt>
      <trkpt lat="49.820475010201335" lon="8.751989006996155">
        <ele>226.05000000000001</ele>
        <time>2018-09-16T06:29:05Z</time>
      </trkpt>
      <trkpt lat="49.820011993870139" lon="8.754399977624416">
        <ele>233.25999999999999</ele>
        <time>2018-09-16T06:29:14Z</time>
      </trkpt>
      <trkpt lat="49.819728014990687" lon="8.757647965103388">
        <ele>243.83000000000001</ele>
        <time>2018-09-16T06:29:26Z</time>
      </trkpt>
      <trkpt lat="49.819333981722593" lon="8.760690009221435">
        <ele>255.37</ele>
        <time>2018-09-16T06:29:38Z</time>
      </trkpt>
      <trkpt lat="49.818463018164039" lon="8.764361031353474">
        <ele>262.10000000000002</ele>
        <time>2018-09-16T06:29:52Z</time>
      </trkpt>
      <trkpt lat="49.817754998803139" lon="8.767094034701586">
        <ele>254.41</ele>
        <time>2018-09-16T06:30:01Z</time>
      </trkpt>
      <trkpt lat="49.816882023587823" lon="8.770191986113787">
        <ele>249.59999999999999</ele>
        <time>2018-09-16T06:30:12Z</time>
      </trkpt>
      <trkpt lat="49.816364021971822" lon="8.772305985912681">
        <ele>244.78999999999999</ele>
        <time>2018-09-16T06:30:20Z</time>
      </trkpt>
      <trkpt lat="49.816127987578511" lon="8.774928012862802">
        <ele>235.66</ele>
        <time>2018-09-16T06:30:29Z</time>
      </trkpt>
      <trkpt lat="49.81610300950706" lon="8.77520302310586">
        <ele>234.22</ele>
        <time>2018-09-16T06:30:30Z</time>
      </trkpt>
      <trkpt lat="49.816047018393874" lon="8.775471998378635">
        <ele>233.25999999999999</ele>
        <time>2018-09-16T06:30:31Z</time>
      </trkpt>
      <trkpt lat="49.815959008410573" lon="8.775724964216352">
        <ele>232.30000000000001</ele>
        <time>2018-09-16T06:30:32Z</time>
      </trkpt>
      <trkpt lat="49.815858006477356" lon="8.775974996387959">
        <ele>231.33000000000001</ele>
        <time>2018-09-16T06:30:33Z</time>
      </trkpt>
      <trkpt lat="49.815750969573855" lon="8.776211030781269">
        <ele>230.84999999999999</ele>
        <time>2018-09-16T06:30:34Z</time>
      </trkpt>
      <trkpt lat="49.815644016489387" lon="8.776446981355548">
        <ele>229.88999999999999</ele>
        <time>2018-09-16T06:30:35Z</time>
      </trkpt>
      <trkpt lat="49.815533962100744" lon="8.77668896690011">
        <ele>228.44999999999999</ele>
        <time>2018-09-16T06:30:36Z</time>
      </trkpt>
      <trkpt lat="49.815453998744488" lon="8.776955008506775">
        <ele>227.49000000000001</ele>
        <time>2018-09-16T06:30:37Z</time>
      </trkpt>
      <trkpt lat="49.815392978489399" lon="8.777243010699749">
        <ele>226.53</ele>
        <time>2018-09-16T06:30:38Z</time>
      </trkpt>
      <trkpt lat="49.814871037378907" lon="8.779488019645214">
        <ele>216.43000000000001</ele>
        <time>2018-09-16T06:30:47Z</time>
      </trkpt>
      <trkpt lat="49.814520003274083" lon="8.780917972326279">
        <ele>207.30000000000001</ele>
        <time>2018-09-16T06:30:56Z</time>
      </trkpt>
      <trkpt lat="49.814424030482769" lon="8.781266994774342">
        <ele>205.86000000000001</ele>
        <time>2018-09-16T06:30:59Z</time>
      </trkpt>
      <trkpt lat="49.814387988299131" lon="8.7813710141927">
        <ele>205.86000000000001</ele>
        <time>2018-09-16T06:31:00Z</time>
      </trkpt>
      <trkpt lat="49.814095962792635" lon="8.782199984416366">
        <ele>203.94</ele>
        <time>2018-09-16T06:31:08Z</time>
      </trkpt>
      <trkpt lat="49.814055981114507" lon="8.782305009663105">
        <ele>203.46000000000001</ele>
        <time>2018-09-16T06:31:09Z</time>
      </trkpt>
      <trkpt lat="49.81401801109314" lon="8.782406011596322">
        <ele>202.97999999999999</ele>
        <time>2018-09-16T06:31:10Z</time>
      </trkpt>
      <trkpt lat="49.813981968909502" lon="8.782500978559256">
        <ele>202.97999999999999</ele>
        <time>2018-09-16T06:31:11Z</time>
      </trkpt>
      <trkpt lat="49.813946010544896" lon="8.782597035169601">
        <ele>202.49000000000001</ele>
        <time>2018-09-16T06:31:12Z</time>
      </trkpt>
      <trkpt lat="49.813907034695148" lon="8.782700970768929">
        <ele>202.00999999999999</ele>
        <time>2018-09-16T06:31:13Z</time>
      </trkpt>
      <trkpt lat="49.813879039138556" lon="8.782775988802314">
        <ele>202.00999999999999</ele>
        <time>2018-09-16T06:31:14Z</time>
      </trkpt>
      <trkpt lat="49.813797986134887" lon="8.782870033755899">
        <ele>201.53</ele>
        <time>2018-09-16T06:31:15Z</time>
      </trkpt>
      <trkpt lat="49.813734032213688" lon="8.782945973798633">
        <ele>201.53</ele>
        <time>2018-09-16T06:31:16Z</time>
      </trkpt>
      <trkpt lat="49.813669994473457" lon="8.783020991832018">
        <ele>201.05000000000001</ele>
        <time>2018-09-16T06:31:17Z</time>
      </trkpt>
      <trkpt lat="49.813607968389988" lon="8.783093998208642">
        <ele>200.56999999999999</ele>
        <time>2018-09-16T06:31:18Z</time>
      </trkpt>
      <trkpt lat="49.813547031953931" lon="8.783165998756886">
        <ele>200.09</ele>
        <time>2018-09-16T06:31:19Z</time>
      </trkpt>
      <trkpt lat="49.813491962850094" lon="8.783248979598284">
        <ele>199.61000000000001</ele>
        <time>2018-09-16T06:31:20Z</time>
      </trkpt>
      <trkpt lat="49.813447035849094" lon="8.783339001238346">
        <ele>198.65000000000001</ele>
        <time>2018-09-16T06:31:21Z</time>
      </trkpt>
      <trkpt lat="49.813406970351934" lon="8.783418964594603">
        <ele>198.16999999999999</ele>
        <time>2018-09-16T06:31:22Z</time>
      </trkpt>
      <trkpt lat="49.813390038907528" lon="8.783545028418303">
        <ele>197.21000000000001</ele>
        <time>2018-09-16T06:31:23Z</time>
      </trkpt>
      <trkpt lat="49.813375035300851" lon="8.783661033958197">
        <ele>196.72999999999999</ele>
        <time>2018-09-16T06:31:24Z</time>
      </trkpt>
      <trkpt lat="49.813367994502187" lon="8.783772010356188">
        <ele>196.25</ele>
        <time>2018-09-16T06:31:25Z</time>
      </trkpt>
      <trkpt lat="49.813380986452103" lon="8.783897990360856">
        <ele>196.25</ele>
        <time>2018-09-16T06:31:26Z</time>
      </trkpt>
      <trkpt lat="49.813394984230399" lon="8.784023970365524">
        <ele>195.77000000000001</ele>
        <time>2018-09-16T06:31:27Z</time>
      </trkpt>
      <trkpt lat="49.81343898922205" lon="8.784416997805238">
        <ele>194.80000000000001</ele>
        <time>2018-09-16T06:31:30Z</time>
      </trkpt>
      <trkpt lat="49.813532028347254" lon="8.785411007702351">
        <ele>195.28</ele>
        <time>2018-09-16T06:31:38Z</time>
      </trkpt>
      <trkpt lat="49.813526999205351" lon="8.785532964393497">
        <ele>195.28</ele>
        <time>2018-09-16T06:31:39Z</time>
      </trkpt>
      <trkpt lat="49.813521970063448" lon="8.785653999075294">
        <ele>195.28</ele>
        <time>2018-09-16T06:31:40Z</time>
      </trkpt>
      <trkpt lat="49.813517024740577" lon="8.785764975473285">
        <ele>194.80000000000001</ele>
        <time>2018-09-16T06:31:41Z</time>
      </trkpt>
      <trkpt lat="49.813445024192333" lon="8.785877963528037">
        <ele>194.80000000000001</ele>
        <time>2018-09-16T06:31:42Z</time>
      </trkpt>
      <trkpt lat="49.813406970351934" lon="8.785907970741391">
        <ele>194.80000000000001</ele>
        <time>2018-09-16T06:31:43Z</time>
      </trkpt>
      <trkpt lat="49.81330999173224" lon="8.786068987101317">
        <ele>194.31999999999999</ele>
        <time>2018-09-16T06:31:44Z</time>
      </trkpt>
      <trkpt lat="49.813215024769306" lon="8.786101005971432">
        <ele>193.84</ele>
        <time>2018-09-16T06:31:45Z</time>
      </trkpt>
      <trkpt lat="49.813105976209044" lon="8.786122966557741">
        <ele>193.84</ele>
        <time>2018-09-16T06:31:46Z</time>
      </trkpt>
      <trkpt lat="49.81298603117466" lon="8.786148028448224">
        <ele>192.88</ele>
        <time>2018-09-16T06:31:47Z</time>
      </trkpt>
      <trkpt lat="49.81285803951323" lon="8.786180969327688">
        <ele>191.91999999999999</ele>
        <time>2018-09-16T06:31:48Z</time>
      </trkpt>
      <trkpt lat="49.812723007053137" lon="8.786214999854565">
        <ele>190.96000000000001</ele>
        <time>2018-09-16T06:31:49Z</time>
      </trkpt>
      <trkpt lat="49.811642998829484" lon="8.786493027582765">
        <ele>188.08000000000001</ele>
        <time>2018-09-16T06:31:55Z</time>
      </trkpt>
      <trkpt lat="49.809961002320051" lon="8.787082023918629">
        <ele>187.11000000000001</ele>
        <time>2018-09-16T06:32:03Z</time>
      </trkpt>
      <trkpt lat="49.809763021767139" lon="8.787229964509606">
        <ele>187.59</ele>
        <time>2018-09-16T06:32:04Z</time>
      </trkpt>
      <trkpt lat="49.809567974880338" lon="8.787376983091235">
        <ele>188.56</ele>
        <time>2018-09-16T06:32:05Z</time>
      </trkpt>
      <trkpt lat="49.809391032904387" lon="8.78756096586585">
        <ele>189.03999999999999</ele>
        <time>2018-09-16T06:32:06Z</time>
      </trkpt>
      <trkpt lat="49.8092280048877" lon="8.787780990824103">
        <ele>190</ele>
        <time>2018-09-16T06:32:07Z</time>
      </trkpt>
      <trkpt lat="49.808248998597264" lon="8.789077000692487">
        <ele>196.72999999999999</ele>
        <time>2018-09-16T06:32:13Z</time>
      </trkpt>
      <trkpt lat="49.807050973176956" lon="8.790834015235305">
        <ele>209.69999999999999</ele>
        <time>2018-09-16T06:32:21Z</time>
      </trkpt>
      <trkpt lat="49.805868035182357" lon="8.792956983670592">
        <ele>219.80000000000001</ele>
        <time>2018-09-16T06:32:29Z</time>
      </trkpt>
      <trkpt lat="49.804617036134005" lon="8.795247003436089">
        <ele>227.49000000000001</ele>
        <time>2018-09-16T06:32:37Z</time>
      </trkpt>
      <trkpt lat="49.803744982928038" lon="8.796918019652367">
        <ele>230.37</ele>
        <time>2018-09-16T06:32:43Z</time>
      </trkpt>
      <trkpt lat="49.803668037056923" lon="8.79722798243165">
        <ele>230.84999999999999</ele>
        <time>2018-09-16T06:32:44Z</time>
      </trkpt>
      <trkpt lat="49.803587989881635" lon="8.797545991837978">
        <ele>231.33000000000001</ele>
        <time>2018-09-16T06:32:45Z</time>
      </trkpt>
      <trkpt lat="49.803180964663625" lon="8.799335025250912">
        <ele>236.13999999999999</ele>
        <time>2018-09-16T06:32:51Z</time>
      </trkpt>
      <trkpt lat="49.803128996863961" lon="8.801496969535947">
        <ele>242.38999999999999</ele>
        <time>2018-09-16T06:32:58Z</time>
      </trkpt>
      <trkpt lat="49.803070994094014" lon="8.804186973720789">
        <ele>242.38999999999999</ele>
        <time>2018-09-16T06:33:06Z</time>
      </trkpt>
      <trkpt lat="49.803031012415886" lon="8.804498026147485">
        <ele>241.91</ele>
        <time>2018-09-16T06:33:07Z</time>
      </trkpt>
      <trkpt lat="49.802926992997527" lon="8.804758032783866">
        <ele>241.43000000000001</ele>
        <time>2018-09-16T06:33:08Z</time>
      </trkpt>
      <trkpt lat="49.802818028256297" lon="8.805029019713402">
        <ele>241.43000000000001</ele>
        <time>2018-09-16T06:33:09Z</time>
      </trkpt>
      <trkpt lat="49.802705040201545" lon="8.805310986936092">
        <ele>241.91</ele>
        <time>2018-09-16T06:33:10Z</time>
      </trkpt>
      <trkpt lat="49.802193995565176" lon="8.806580007076263">
        <ele>243.83000000000001</ele>
        <time>2018-09-16T06:33:15Z</time>
      </trkpt>
      <trkpt lat="49.802153008058667" lon="8.806815035641193">
        <ele>243.83000000000001</ele>
        <time>2018-09-16T06:33:16Z</time>
      </trkpt>
      <trkpt lat="49.802134986966848" lon="8.807080993428826">
        <ele>244.31</ele>
        <time>2018-09-16T06:33:17Z</time>
      </trkpt>
      <trkpt lat="49.802125012502074" lon="8.807352986186743">
        <ele>243.83000000000001</ele>
        <time>2018-09-16T06:33:18Z</time>
      </trkpt>
      <trkpt lat="49.802150996401906" lon="8.807635959237814">
        <ele>243.34999999999999</ele>
        <time>2018-09-16T06:33:19Z</time>
      </trkpt>
      <trkpt lat="49.802178991958499" lon="8.807932008057833">
        <ele>242.87</ele>
        <time>2018-09-16T06:33:20Z</time>
      </trkpt>
      <trkpt lat="49.802205981686711" lon="8.80822503939271">
        <ele>242.38999999999999</ele>
        <time>2018-09-16T06:33:21Z</time>
      </trkpt>
      <trkpt lat="49.802228026092052" lon="8.808522010222077">
        <ele>241.43000000000001</ele>
        <time>2018-09-16T06:33:22Z</time>
      </trkpt>
      <trkpt lat="49.802228026092052" lon="8.808831973001361">
        <ele>240.47</ele>
        <time>2018-09-16T06:33:23Z</time>
      </trkpt>
      <trkpt lat="49.802217967808247" lon="8.80915199406445">
        <ele>239.50999999999999</ele>
        <time>2018-09-16T06:33:24Z</time>
      </trkpt>
      <trkpt lat="49.802099028602242" lon="8.810499971732497">
        <ele>235.66</ele>
        <time>2018-09-16T06:33:28Z</time>
      </trkpt>
      <trkpt lat="49.802040020003915" lon="8.810823010280728">
        <ele>234.69999999999999</ele>
        <time>2018-09-16T06:33:29Z</time>
      </trkpt>
      <trkpt lat="49.801511960104108" lon="8.812596034258604">
        <ele>228.93000000000001</ele>
        <time>2018-09-16T06:33:35Z</time>
      </trkpt>
      <trkpt lat="49.801379023119807" lon="8.812827039510012">
        <ele>227.97</ele>
        <time>2018-09-16T06:33:36Z</time>
      </trkpt>
      <trkpt lat="49.801226975396276" lon="8.81303901784122">
        <ele>227.00999999999999</ele>
        <time>2018-09-16T06:33:37Z</time>
      </trkpt>
      <trkpt lat="49.800038002431393" lon="8.814683966338635">
        <ele>217.88</ele>
        <time>2018-09-16T06:33:45Z</time>
      </trkpt>
      <trkpt lat="49.799515977501869" lon="8.815605975687504">
        <ele>209.69999999999999</ele>
        <time>2018-09-16T06:33:52Z</time>
      </trkpt>
      <trkpt lat="49.799184976145625" lon="8.816316006705165">
        <ele>203.94</ele>
        <time>2018-09-16T06:33:58Z</time>
      </trkpt>
      <trkpt lat="49.799139965325594" lon="8.816438969224691">
        <ele>202.49000000000001</ele>
        <time>2018-09-16T06:33:59Z</time>
      </trkpt>
      <trkpt lat="49.798761019483209" lon="8.8174660038203">
        <ele>194.31999999999999</ele>
        <time>2018-09-16T06:34:07Z</time>
      </trkpt>
      <trkpt lat="49.798532025888562" lon="8.818922024220228">
        <ele>183.75</ele>
        <time>2018-09-16T06:34:17Z</time>
      </trkpt>
      <trkpt lat="49.798525990918279" lon="8.820200012996793">
        <ele>175.58000000000001</ele>
        <time>2018-09-16T06:34:27Z</time>
      </trkpt>
      <trkpt lat="49.798534037545323" lon="8.820540988817811">
        <ele>173.16999999999999</ele>
        <time>2018-09-16T06:34:30Z</time>
      </trkpt>
      <trkpt lat="49.798501012846828" lon="8.820765959098935">
        <ele>171.72999999999999</ele>
        <time>2018-09-16T06:34:32Z</time>
      </trkpt>
      <trkpt lat="49.798435969278216" lon="8.821215983480215">
        <ele>170.77000000000001</ele>
        <time>2018-09-16T06:34:36Z</time>
      </trkpt>
      <trkpt lat="49.79837997816503" lon="8.821599958464503">
        <ele>170.28999999999999</ele>
        <time>2018-09-16T06:34:39Z</time>
      </trkpt>
      <trkpt lat="49.798362040892243" lon="8.821729961782694">
        <ele>169.33000000000001</ele>
        <time>2018-09-16T06:34:40Z</time>
      </trkpt>
      <trkpt lat="49.798248969018459" lon="8.822468994185329">
        <ele>166.44999999999999</ele>
        <time>2018-09-16T06:34:48Z</time>
      </trkpt>
      <trkpt lat="49.798237988725305" lon="8.822529008612037">
        <ele>165.96000000000001</ele>
        <time>2018-09-16T06:34:49Z</time>
      </trkpt>
      <trkpt lat="49.798216028138995" lon="8.822583993896842">
        <ele>165.96000000000001</ele>
        <time>2018-09-16T06:34:50Z</time>
      </trkpt>
      <trkpt lat="49.798201024532318" lon="8.822618024423719">
        <ele>165.47999999999999</ele>
        <time>2018-09-16T06:34:51Z</time>
      </trkpt>
      <trkpt lat="49.798189960420132" lon="8.822645014151931">
        <ele>165.47999999999999</ele>
        <time>2018-09-16T06:34:52Z</time>
      </trkpt>
      <trkpt lat="49.798179985955358" lon="8.822667980566621">
        <ele>165</ele>
        <time>2018-09-16T06:34:53Z</time>
      </trkpt>
      <trkpt lat="49.798171017318964" lon="8.822689019143581">
        <ele>165</ele>
        <time>2018-09-16T06:34:54Z</time>
      </trkpt>
      <trkpt lat="49.798171017318964" lon="8.822689019143581">
        <ele>165</ele>
        <time>2018-09-16T06:34:55Z</time>
      </trkpt>
      <trkpt lat="49.798107985407114" lon="8.822836959734559">
        <ele>165.47999999999999</ele>
        <time>2018-09-16T06:35:03Z</time>
      </trkpt>
      <trkpt lat="49.798123994842172" lon="8.822869984433055">
        <ele>165.47999999999999</ele>
        <time>2018-09-16T06:35:04Z</time>
      </trkpt>
      <trkpt lat="49.798160037025809" lon="8.82294500246644">
        <ele>165.96000000000001</ele>
        <time>2018-09-16T06:35:05Z</time>
      </trkpt>
      <trkpt lat="49.798559015616775" lon="8.823772966861725">
        <ele>166.93000000000001</ele>
        <time>2018-09-16T06:35:14Z</time>
      </trkpt>
      <trkpt lat="49.798592962324619" lon="8.823843039572239">
        <ele>166.93000000000001</ele>
        <time>2018-09-16T06:35:15Z</time>
      </trkpt>
      <trkpt lat="49.7989790327847" lon="8.824416026473045">
        <ele>168.37</ele>
        <time>2018-09-16T06:35:23Z</time>
      </trkpt>
      <trkpt lat="49.799035023897886" lon="8.824488027021289">
        <ele>168.84999999999999</ele>
        <time>2018-09-16T06:35:24Z</time>
      </trkpt>
      <trkpt lat="49.799256976693869" lon="8.824772005900741">
        <ele>170.28999999999999</ele>
        <time>2018-09-16T06:35:28Z</time>
      </trkpt>
      <trkpt lat="49.799314979463816" lon="8.824841994792223">
        <ele>170.77000000000001</ele>
        <time>2018-09-16T06:35:29Z</time>
      </trkpt>
      <trkpt lat="49.799788976088166" lon="8.825450018048286">
        <ele>171.25</ele>
        <time>2018-09-16T06:35:37Z</time>
      </trkpt>
      <trkpt lat="49.799842033535242" lon="8.825534004718065">
        <ele>171.72999999999999</ele>
        <time>2018-09-16T06:35:38Z</time>
      </trkpt>
      <trkpt lat="49.799887966364622" lon="8.825609022751451">
        <ele>171.25</ele>
        <time>2018-09-16T06:35:39Z</time>
      </trkpt>
      <trkpt lat="49.799934988841414" lon="8.825683034956455">
        <ele>171.25</ele>
        <time>2018-09-16T06:35:40Z</time>
      </trkpt>
      <trkpt lat="49.799984022974968" lon="8.825755035504699">
        <ele>171.25</ele>
        <time>2018-09-16T06:35:41Z</time>
      </trkpt>
      <trkpt lat="49.800357017666101" lon="8.826316958293319">
        <ele>170.28999999999999</ele>
        <time>2018-09-16T06:35:48Z</time>
      </trkpt>
      <trkpt lat="49.800408985465765" lon="8.826399017125368">
        <ele>170.28999999999999</ele>
        <time>2018-09-16T06:35:49Z</time>
      </trkpt>
      <trkpt lat="49.800561033189297" lon="8.826644020155072">
        <ele>170.28999999999999</ele>
        <time>2018-09-16T06:35:52Z</time>
      </trkpt>
      <trkpt lat="49.800747027620673" lon="8.82694199681282">
        <ele>170.77000000000001</ele>
        <time>2018-09-16T06:35:56Z</time>
      </trkpt>
      <trkpt lat="49.800878958776593" lon="8.827154980972409">
        <ele>171.25</ele>
        <time>2018-09-16T06:36:04Z</time>
      </trkpt>
      <trkpt lat="49.80093402788043" lon="8.82724299095571">
        <ele>172.21000000000001</ele>
        <time>2018-09-16T06:36:23Z</time>
      </trkpt>
      <trkpt lat="49.800950037315488" lon="8.827368970960379">
        <ele>172.21000000000001</ele>
        <time>2018-09-16T06:36:24Z</time>
      </trkpt>
      <trkpt lat="49.800910977646708" lon="8.827427979558706">
        <ele>171.72999999999999</ele>
        <time>2018-09-16T06:36:25Z</time>
      </trkpt>
      <trkpt lat="49.800858004018664" lon="8.827504003420472">
        <ele>171.72999999999999</ele>
        <time>2018-09-16T06:36:26Z</time>
      </trkpt>
      <trkpt lat="49.800800001248717" lon="8.827588995918632">
        <ele>171.25</ele>
        <time>2018-09-16T06:36:27Z</time>
      </trkpt>
      <trkpt lat="49.80074099265039" lon="8.827677005901933">
        <ele>171.25</ele>
        <time>2018-09-16T06:36:28Z</time>
      </trkpt>
      <trkpt lat="49.80061300098896" lon="8.827855959534645">
        <ele>170.77000000000001</ele>
        <time>2018-09-16T06:36:30Z</time>
      </trkpt>
      <trkpt lat="49.80054602958262" lon="8.827942041680217">
        <ele>170.77000000000001</ele>
        <time>2018-09-16T06:36:31Z</time>
      </trkpt>
      <trkpt lat="49.800477968528867" lon="8.828028962016106">
        <ele>171.25</ele>
        <time>2018-09-16T06:36:32Z</time>
      </trkpt>
      <trkpt lat="49.799589989706874" lon="8.828909983858466">
        <ele>172.21000000000001</ele>
        <time>2018-09-16T06:36:43Z</time>
      </trkpt>
      <trkpt lat="49.798578964546323" lon="8.829983035102487">
        <ele>169.81</ele>
        <time>2018-09-16T06:36:55Z</time>
      </trkpt>
      <trkpt lat="49.79850796982646" lon="8.830089988186956">
        <ele>169.81</ele>
        <time>2018-09-16T06:36:56Z</time>
      </trkpt>
      <trkpt lat="49.79844301007688" lon="8.830199036747217">
        <ele>169.81</ele>
        <time>2018-09-16T06:36:57Z</time>
      </trkpt>
      <trkpt lat="49.798287022858858" lon="8.830761965364218">
        <ele>170.28999999999999</ele>
        <time>2018-09-16T06:37:01Z</time>
      </trkpt>
      <trkpt lat="49.798051994293928" lon="8.83186100050807">
        <ele>172.21000000000001</ele>
        <time>2018-09-16T06:37:09Z</time>
      </trkpt>
      <trkpt lat="49.798026010394096" lon="8.831982035189867">
        <ele>172.69</ele>
        <time>2018-09-16T06:37:10Z</time>
      </trkpt>
      <trkpt lat="49.797783019021153" lon="8.833635030314326">
        <ele>175.58000000000001</ele>
        <time>2018-09-16T06:37:22Z</time>
      </trkpt>
      <trkpt lat="49.797527035698295" lon="8.835046039894223">
        <ele>176.53999999999999</ele>
        <time>2018-09-16T06:37:29Z</time>
      </trkpt>
      <trkpt lat="49.797444976866245" lon="8.835279978811741">
        <ele>176.53999999999999</ele>
        <time>2018-09-16T06:37:30Z</time>
      </trkpt>
      <trkpt lat="49.797334000468254" lon="8.835510984063149">
        <ele>176.53999999999999</ele>
        <time>2018-09-16T06:37:31Z</time>
      </trkpt>
      <trkpt lat="49.797206008806825" lon="8.835737966001034">
        <ele>176.53999999999999</ele>
        <time>2018-09-16T06:37:32Z</time>
      </trkpt>
      <trkpt lat="49.797047004103661" lon="8.835936030372977">
        <ele>176.53999999999999</ele>
        <time>2018-09-16T06:37:33Z</time>
      </trkpt>
      <trkpt lat="49.796883976086974" lon="8.836138034239411">
        <ele>176.53999999999999</ele>
        <time>2018-09-16T06:37:34Z</time>
      </trkpt>
      <trkpt lat="49.796538976952434" lon="8.836567020043731">
        <ele>176.53999999999999</ele>
        <time>2018-09-16T06:37:36Z</time>
      </trkpt>
      <trkpt lat="49.795115981251001" lon="8.838848993182182">
        <ele>173.66</ele>
        <time>2018-09-16T06:37:44Z</time>
      </trkpt>
      <trkpt lat="49.792068991810083" lon="8.843919038772583">
        <ele>176.06</ele>
        <time>2018-09-16T06:38:01Z</time>
      </trkpt>
      <trkpt lat="49.790651025250554" lon="8.846966028213501">
        <ele>177.97999999999999</ele>
        <time>2018-09-16T06:38:10Z</time>
      </trkpt>
      <trkpt lat="49.789298018440604" lon="8.851699959486723">
        <ele>176.53999999999999</ele>
        <time>2018-09-16T06:38:22Z</time>
      </trkpt>
      <trkpt lat="49.788250029087067" lon="8.856055028736591">
        <ele>175.09999999999999</ele>
        <time>2018-09-16T06:38:33Z</time>
      </trkpt>
      <trkpt lat="49.78754997253418" lon="8.859574003145099">
        <ele>174.13999999999999</ele>
        <time>2018-09-16T06:38:42Z</time>
      </trkpt>
      <trkpt lat="49.787403037771583" lon="8.860283028334379">
        <ele>174.13999999999999</ele>
        <time>2018-09-16T06:38:44Z</time>
      </trkpt>
      <trkpt lat="49.787309998646379" lon="8.860620986670256">
        <ele>174.13999999999999</ele>
        <time>2018-09-16T06:38:45Z</time>
      </trkpt>
      <trkpt lat="49.786752015352249" lon="8.862193012610078">
        <ele>174.13999999999999</ele>
        <time>2018-09-16T06:38:51Z</time>
      </trkpt>
      <trkpt lat="49.785898989066482" lon="8.863737965002656">
        <ele>176.53999999999999</ele>
        <time>2018-09-16T06:38:59Z</time>
      </trkpt>
      <trkpt lat="49.784596022218466" lon="8.865704024210572">
        <ele>176.06</ele>
        <time>2018-09-16T06:39:10Z</time>
      </trkpt>
      <trkpt lat="49.783244021236897" lon="8.867760021239519">
        <ele>176.53999999999999</ele>
        <time>2018-09-16T06:39:20Z</time>
      </trkpt>
      <trkpt lat="49.780947966501117" lon="8.870826037600637">
        <ele>175.58000000000001</ele>
        <time>2018-09-16T06:39:34Z</time>
      </trkpt>
      <trkpt lat="49.779163962230086" lon="8.872334025800228">
        <ele>174.13999999999999</ele>
        <time>2018-09-16T06:39:43Z</time>
      </trkpt>
      <trkpt lat="49.77721500210464" lon="8.873253017663956">
        <ele>174.13999999999999</ele>
        <time>2018-09-16T06:39:52Z</time>
      </trkpt>
      <trkpt lat="49.775428986176848" lon="8.873742017894983">
        <ele>175.09999999999999</ele>
        <time>2018-09-16T06:40:01Z</time>
      </trkpt>
      <trkpt lat="49.774549975991249" lon="8.873984003439546">
        <ele>176.06</ele>
        <time>2018-09-16T06:40:08Z</time>
      </trkpt>
      <trkpt lat="49.7744420170784" lon="8.874017028138042">
        <ele>177.02000000000001</ele>
        <time>2018-09-16T06:40:15Z</time>
      </trkpt>
      <trkpt lat="49.774167006835341" lon="8.874129010364413">
        <ele>177.02000000000001</ele>
        <time>2018-09-16T06:40:30Z</time>
      </trkpt>
      <trkpt lat="49.773399978876114" lon="8.874541986733675">
        <ele>177.02000000000001</ele>
        <time>2018-09-16T06:40:36Z</time>
      </trkpt>
      <trkpt lat="49.77218996733427" lon="8.875555023550987">
        <ele>177.02000000000001</ele>
        <time>2018-09-16T06:40:43Z</time>
      </trkpt>
      <trkpt lat="49.770333962514997" lon="8.877676986157894">
        <ele>177.02000000000001</ele>
        <time>2018-09-16T06:40:53Z</time>
      </trkpt>
      <trkpt lat="49.769337018951774" lon="8.87878498993814">
        <ele>177.5</ele>
        <time>2018-09-16T06:41:00Z</time>
      </trkpt>
      <trkpt lat="49.768767971545458" lon="8.879311960190535">
        <ele>178.46000000000001</ele>
        <time>2018-09-16T06:41:07Z</time>
      </trkpt>
      <trkpt lat="49.76868499070406" lon="8.879383960738778">
        <ele>178.46000000000001</ele>
        <time>2018-09-16T06:41:09Z</time>
      </trkpt>
      <trkpt lat="49.768703011795878" lon="8.879496026784182">
        <ele>178.94</ele>
        <time>2018-09-16T06:41:10Z</time>
      </trkpt>
      <trkpt lat="49.768731007352471" lon="8.879573978483677">
        <ele>178.94</ele>
        <time>2018-09-16T06:41:11Z</time>
      </trkpt>
      <trkpt lat="49.768768977373838" lon="8.879680009558797">
        <ele>179.41999999999999</ele>
        <time>2018-09-16T06:41:12Z</time>
      </trkpt>
      <trkpt lat="49.768812982365489" lon="8.879803977906704">
        <ele>179.41999999999999</ele>
        <time>2018-09-16T06:41:13Z</time>
      </trkpt>
      <trkpt lat="49.768992019817233" lon="8.88031099922955">
        <ele>178.94</ele>
        <time>2018-09-16T06:41:17Z</time>
      </trkpt>
      <trkpt lat="49.769016997888684" lon="8.880422981455922">
        <ele>178.94</ele>
        <time>2018-09-16T06:41:18Z</time>
      </trkpt>
      <trkpt lat="49.769027978181839" lon="8.880529012531042">
        <ele>178.46000000000001</ele>
        <time>2018-09-16T06:41:19Z</time>
      </trkpt>
      <trkpt lat="49.769038958474994" lon="8.880624985322356">
        <ele>178.46000000000001</ele>
        <time>2018-09-16T06:41:20Z</time>
      </trkpt>
      <trkpt lat="49.769047005102038" lon="8.880708971992135">
        <ele>177.97999999999999</ele>
        <time>2018-09-16T06:41:21Z</time>
      </trkpt>
      <trkpt lat="49.768947008997202" lon="8.880859008058906">
        <ele>177.97999999999999</ele>
        <time>2018-09-16T06:41:22Z</time>
      </trkpt>
      <trkpt lat="49.768947008997202" lon="8.88086998835206">
        <ele>177.97999999999999</ele>
        <time>2018-09-16T06:41:23Z</time>
      </trkpt>
      <trkpt lat="49.768947008997202" lon="8.880947018042207">
        <ele>177.97999999999999</ele>
        <time>2018-09-16T06:41:24Z</time>
      </trkpt>
      <trkpt lat="49.768981961533427" lon="8.881077021360397">
        <ele>177.97999999999999</ele>
        <time>2018-09-16T06:41:25Z</time>
      </trkpt>
      <trkpt lat="49.769053962081671" lon="8.881115997210145">
        <ele>177.97999999999999</ele>
        <time>2018-09-16T06:41:26Z</time>
      </trkpt>
      <trkpt lat="49.769125040620565" lon="8.881059000268579">
        <ele>177.97999999999999</ele>
        <time>2018-09-16T06:41:27Z</time>
      </trkpt>
      <trkpt lat="49.769160998985171" lon="8.881029998883605">
        <ele>178.46000000000001</ele>
        <time>2018-09-16T06:41:28Z</time>
      </trkpt>
      <trkpt lat="49.769237022846937" lon="8.88086998835206">
        <ele>178.46000000000001</ele>
        <time>2018-09-16T06:41:29Z</time>
      </trkpt>
      <trkpt lat="49.769406002014875" lon="8.880798993632197">
        <ele>178.46000000000001</ele>
        <time>2018-09-16T06:41:31Z</time>
      </trkpt>
      <trkpt lat="49.770199013873935" lon="8.880394985899329">
        <ele>176.06</ele>
        <time>2018-09-16T06:41:40Z</time>
      </trkpt>
      <trkpt lat="49.771044999361038" lon="8.879736000671983">
        <ele>177.97999999999999</ele>
        <time>2018-09-16T06:41:50Z</time>
      </trkpt>
      <trkpt lat="49.771205009892583" lon="8.879586970433593">
        <ele>178.94</ele>
        <time>2018-09-16T06:41:52Z</time>
      </trkpt>
      <trkpt lat="49.771282961592078" lon="8.879513964056969">
        <ele>178.94</ele>
        <time>2018-09-16T06:41:53Z</time>
      </trkpt>
      <trkpt lat="49.772213017567992" lon="8.878797981888056">
        <ele>177.97999999999999</ele>
        <time>2018-09-16T06:42:05Z</time>
      </trkpt>
      <trkpt lat="49.772289963439107" lon="8.878742996603251">
        <ele>177.97999999999999</ele>
        <time>2018-09-16T06:42:06Z</time>
      </trkpt>
      <trkpt lat="49.77236095815897" lon="8.878680970519781">
        <ele>178.46000000000001</ele>
        <time>2018-09-16T06:42:07Z</time>
      </trkpt>
      <trkpt lat="49.772422984242439" lon="8.878626991063356">
        <ele>178.94</ele>
        <time>2018-09-16T06:42:08Z</time>
      </trkpt>
      <trkpt lat="49.772469000890851" lon="8.87852699495852">
        <ele>179.41999999999999</ele>
        <time>2018-09-16T06:42:09Z</time>
      </trkpt>
      <trkpt lat="49.772504037246108" lon="8.878450971096754">
        <ele>179.90000000000001</ele>
        <time>2018-09-16T06:42:10Z</time>
      </trkpt>
      <trkpt lat="49.772619036957622" lon="8.878391962498426">
        <ele>180.38</ele>
        <time>2018-09-16T06:42:12Z</time>
      </trkpt>
      <trkpt lat="49.772663963958621" lon="8.878422975540161">
        <ele>180.87</ele>
        <time>2018-09-16T06:42:13Z</time>
      </trkpt>
      <trkpt lat="49.772780975326896" lon="8.878500005230308">
        <ele>181.83000000000001</ele>
        <time>2018-09-16T06:42:15Z</time>
      </trkpt>
      <trkpt lat="49.772844007238746" lon="8.878543004393578">
        <ele>182.31</ele>
        <time>2018-09-16T06:42:16Z</time>
      </trkpt>
      <trkpt lat="49.773035030812025" lon="8.878691028803587">
        <ele>183.27000000000001</ele>
        <time>2018-09-16T06:42:19Z</time>
      </trkpt>
      <trkpt lat="49.773084986954927" lon="8.878736039623618">
        <ele>183.27000000000001</ele>
        <time>2018-09-16T06:42:20Z</time>
      </trkpt>
      <trkpt lat="49.773125974461436" lon="8.878851961344481">
        <ele>183.75</ele>
        <time>2018-09-16T06:42:21Z</time>
      </trkpt>
      <trkpt lat="49.773120023310184" lon="8.878950029611588">
        <ele>183.75</ele>
        <time>2018-09-16T06:42:22Z</time>
      </trkpt>
      <trkpt lat="49.77311197668314" lon="8.879055976867676">
        <ele>184.22999999999999</ele>
        <time>2018-09-16T06:42:23Z</time>
      </trkpt>
      <trkpt lat="49.773105019703507" lon="8.879167959094048">
        <ele>184.22999999999999</ele>
        <time>2018-09-16T06:42:24Z</time>
      </trkpt>
      <trkpt lat="49.773097978904843" lon="8.879272984340787">
        <ele>184.22999999999999</ele>
        <time>2018-09-16T06:42:25Z</time>
      </trkpt>
      <trkpt lat="49.773091021925211" lon="8.879374992102385">
        <ele>184.22999999999999</ele>
        <time>2018-09-16T06:42:26Z</time>
      </trkpt>
      <trkpt lat="49.773106025531888" lon="8.87947398237884">
        <ele>183.75</ele>
        <time>2018-09-16T06:42:27Z</time>
      </trkpt>
      <trkpt lat="49.773139972239733" lon="8.879576995968819">
        <ele>183.75</ele>
        <time>2018-09-16T06:42:28Z</time>
      </trkpt>
      <trkpt lat="49.773180959746242" lon="8.87968797236681">
        <ele>183.27000000000001</ele>
        <time>2018-09-16T06:42:29Z</time>
      </trkpt>
      <trkpt lat="49.773237034678459" lon="8.879757961258292">
        <ele>182.78999999999999</ele>
        <time>2018-09-16T06:42:30Z</time>
      </trkpt>
      <trkpt lat="49.773296965286136" lon="8.879834990948439">
        <ele>182.31</ele>
        <time>2018-09-16T06:42:31Z</time>
      </trkpt>
      <trkpt lat="49.773744978010654" lon="8.880694974213839">
        <ele>183.27000000000001</ele>
        <time>2018-09-16T06:42:40Z</time>
      </trkpt>
      <trkpt lat="49.774103974923491" lon="8.882019985467196">
        <ele>185.66999999999999</ele>
        <time>2018-09-16T06:42:49Z</time>
      </trkpt>
      <trkpt lat="49.774449979886413" lon="8.883841037750244">
        <ele>186.15000000000001</ele>
        <time>2018-09-16T06:42:57Z</time>
      </trkpt>
      <trkpt lat="49.774460960179567" lon="8.884080005809665">
        <ele>185.66999999999999</ele>
        <time>2018-09-16T06:42:58Z</time>
      </trkpt>
      <trkpt lat="49.774456014856696" lon="8.884314028546214">
        <ele>185.66999999999999</ele>
        <time>2018-09-16T06:42:59Z</time>
      </trkpt>
      <trkpt lat="49.774428019300103" lon="8.884541010484099">
        <ele>185.19</ele>
        <time>2018-09-16T06:43:00Z</time>
      </trkpt>
      <trkpt lat="49.774358030408621" lon="8.884741002693772">
        <ele>185.19</ele>
        <time>2018-09-16T06:43:01Z</time>
      </trkpt>
      <trkpt lat="49.774264991283417" lon="8.884935965761542">
        <ele>184.71000000000001</ele>
        <time>2018-09-16T06:43:02Z</time>
      </trkpt>
      <trkpt lat="49.77416499517858" lon="8.88512397184968">
        <ele>184.71000000000001</ele>
        <time>2018-09-16T06:43:03Z</time>
      </trkpt>
      <trkpt lat="49.774046977981925" lon="8.885306026786566">
        <ele>184.22999999999999</ele>
        <time>2018-09-16T06:43:04Z</time>
      </trkpt>
      <trkpt lat="49.773801974952221" lon="8.885684972628951">
        <ele>184.22999999999999</ele>
        <time>2018-09-16T06:43:06Z</time>
      </trkpt>
      <trkpt lat="49.773703990504146" lon="8.885900974273682">
        <ele>184.22999999999999</ele>
        <time>2018-09-16T06:43:07Z</time>
      </trkpt>
      <trkpt lat="49.773640958592296" lon="8.886152012273669">
        <ele>184.71000000000001</ele>
        <time>2018-09-16T06:43:08Z</time>
      </trkpt>
      <trkpt lat="49.773572981357574" lon="8.886418975889683">
        <ele>184.71000000000001</ele>
        <time>2018-09-16T06:43:09Z</time>
      </trkpt>
      <trkpt lat="49.773503998294473" lon="8.886688034981489">
        <ele>185.19</ele>
        <time>2018-09-16T06:43:10Z</time>
      </trkpt>
      <trkpt lat="49.773125974461436" lon="8.888515960425139">
        <ele>186.63</ele>
        <time>2018-09-16T06:43:17Z</time>
      </trkpt>
      <trkpt lat="49.773119017481804" lon="8.888745959848166">
        <ele>187.11000000000001</ele>
        <time>2018-09-16T06:43:18Z</time>
      </trkpt>
      <trkpt lat="49.773160004988313" lon="8.888986017554998">
        <ele>187.59</ele>
        <time>2018-09-16T06:43:19Z</time>
      </trkpt>
      <trkpt lat="49.773205015808344" lon="8.889242000877857">
        <ele>188.08000000000001</ele>
        <time>2018-09-16T06:43:20Z</time>
      </trkpt>
      <trkpt lat="49.773299982771277" lon="8.889488009735942">
        <ele>189.03999999999999</ele>
        <time>2018-09-16T06:43:21Z</time>
      </trkpt>
      <trkpt lat="49.773417999967933" lon="8.889734018594027">
        <ele>190</ele>
        <time>2018-09-16T06:43:22Z</time>
      </trkpt>
      <trkpt lat="49.77353903464973" lon="8.889984972774983">
        <ele>190.96000000000001</ele>
        <time>2018-09-16T06:43:23Z</time>
      </trkpt>
      <trkpt lat="49.773792000487447" lon="8.890514960512519">
        <ele>193.36000000000001</ele>
        <time>2018-09-16T06:43:25Z</time>
      </trkpt>
      <trkpt lat="49.773925021290779" lon="8.890792988240719">
        <ele>194.31999999999999</ele>
        <time>2018-09-16T06:43:26Z</time>
      </trkpt>
      <trkpt lat="49.774014037102461" lon="8.891115020960569">
        <ele>195.28</ele>
        <time>2018-09-16T06:43:27Z</time>
      </trkpt>
      <trkpt lat="49.774906961247325" lon="8.893657000735402">
        <ele>203.94</ele>
        <time>2018-09-16T06:43:35Z</time>
      </trkpt>
      <trkpt lat="49.77568899281323" lon="8.895374033600092">
        <ele>208.74000000000001</ele>
        <time>2018-09-16T06:43:42Z</time>
      </trkpt>
      <trkpt lat="49.776261979714036" lon="8.896326972171664">
        <ele>210.66999999999999</ele>
        <time>2018-09-16T06:43:49Z</time>
      </trkpt>
      <trkpt lat="49.776983996853232" lon="8.897417038679123">
        <ele>210.19</ele>
        <time>2018-09-16T06:44:00Z</time>
      </trkpt>
      <trkpt lat="49.777186000719666" lon="8.897723983973265">
        <ele>209.69999999999999</ele>
        <time>2018-09-16T06:44:03Z</time>
      </trkpt>
      <trkpt lat="49.777911035344005" lon="8.898508027195931">
        <ele>210.66999999999999</ele>
        <time>2018-09-16T06:44:13Z</time>
      </trkpt>
      <trkpt lat="49.778058975934982" lon="8.898860989138484">
        <ele>212.59</ele>
        <time>2018-09-16T06:44:16Z</time>
      </trkpt>
      <trkpt lat="49.778223009780049" lon="8.899377984926105">
        <ele>214.50999999999999</ele>
        <time>2018-09-16T06:44:20Z</time>
      </trkpt>
      <trkpt lat="49.778243964537978" lon="8.899522991850972">
        <ele>214.99000000000001</ele>
        <time>2018-09-16T06:44:21Z</time>
      </trkpt>
      <trkpt lat="49.7782670147717" lon="8.899672022089362">
        <ele>215.94999999999999</ele>
        <time>2018-09-16T06:44:22Z</time>
      </trkpt>
      <trkpt lat="49.77831001393497" lon="8.899965975433588">
        <ele>216.43000000000001</ele>
        <time>2018-09-16T06:44:24Z</time>
      </trkpt>
      <trkpt lat="49.778536995872855" lon="8.901241030544043">
        <ele>217.88</ele>
        <time>2018-09-16T06:44:34Z</time>
      </trkpt>
      <trkpt lat="49.778532972559333" lon="8.901367010548711">
        <ele>217.88</ele>
        <time>2018-09-16T06:44:35Z</time>
      </trkpt>
      <trkpt lat="49.778530960902572" lon="8.90252597630024">
        <ele>220.28</ele>
        <time>2018-09-16T06:44:44Z</time>
      </trkpt>
      <trkpt lat="49.778534984216094" lon="8.902657991275191">
        <ele>220.75999999999999</ele>
        <time>2018-09-16T06:44:45Z</time>
      </trkpt>
      <trkpt lat="49.778538001701236" lon="8.902787994593382">
        <ele>220.75999999999999</ele>
        <time>2018-09-16T06:44:46Z</time>
      </trkpt>
      <trkpt lat="49.778554011136293" lon="8.902911962941289">
        <ele>221.72</ele>
        <time>2018-09-16T06:44:47Z</time>
      </trkpt>
      <trkpt lat="49.778571026399732" lon="8.90304196625948">
        <ele>222.68000000000001</ele>
        <time>2018-09-16T06:44:48Z</time>
      </trkpt>
      <trkpt lat="49.77858804166317" lon="8.903172975406051">
        <ele>224.12</ele>
        <time>2018-09-16T06:44:49Z</time>
      </trkpt>
      <trkpt lat="49.778603967279196" lon="8.903302978724241">
        <ele>225.09</ele>
        <time>2018-09-16T06:44:50Z</time>
      </trkpt>
      <trkpt lat="49.778745034709573" lon="8.903960958123207">
        <ele>228.93000000000001</ele>
        <time>2018-09-16T06:44:55Z</time>
      </trkpt>
      <trkpt lat="49.778795996680856" lon="8.904076041653752">
        <ele>229.41</ele>
        <time>2018-09-16T06:44:56Z</time>
      </trkpt>
      <trkpt lat="49.778874032199383" lon="8.904192969202995">
        <ele>229.88999999999999</ele>
        <time>2018-09-16T06:44:57Z</time>
      </trkpt>
      <trkpt lat="49.778949972242117" lon="8.904295982792974">
        <ele>230.37</ele>
        <time>2018-09-16T06:44:58Z</time>
      </trkpt>
      <trkpt lat="49.77904200553894" lon="8.904393967241049">
        <ele>230.84999999999999</ele>
        <time>2018-09-16T06:44:59Z</time>
      </trkpt>
      <trkpt lat="49.779140995815396" lon="8.904499998316169">
        <ele>231.81</ele>
        <time>2018-09-16T06:45:00Z</time>
      </trkpt>
      <trkpt lat="49.779954962432384" lon="8.905288986861706">
        <ele>240.47</ele>
        <time>2018-09-16T06:45:06Z</time>
      </trkpt>
      <trkpt lat="49.78157602250576" lon="8.906591031700373">
        <ele>253.93000000000001</ele>
        <time>2018-09-16T06:45:15Z</time>
      </trkpt>
      <trkpt lat="49.782011965289712" lon="8.907000990584493">
        <ele>258.25</ele>
        <time>2018-09-16T06:45:18Z</time>
      </trkpt>
      <trkpt lat="49.782138029113412" lon="8.907197965309024">
        <ele>259.69</ele>
        <time>2018-09-16T06:45:19Z</time>
      </trkpt>
      <trkpt lat="49.782237019389868" lon="8.907436011359096">
        <ele>261.13999999999999</ele>
        <time>2018-09-16T06:45:20Z</time>
      </trkpt>
      <trkpt lat="49.782275995239615" lon="8.907695012167096">
        <ele>262.57999999999998</ele>
        <time>2018-09-16T06:45:21Z</time>
      </trkpt>
      <trkpt lat="49.782312959432602" lon="8.907948983833194">
        <ele>264.01999999999998</ele>
        <time>2018-09-16T06:45:22Z</time>
      </trkpt>
      <trkpt lat="49.782298961654305" lon="8.908216031268239">
        <ele>265.45999999999998</ele>
        <time>2018-09-16T06:45:23Z</time>
      </trkpt>
      <trkpt lat="49.78228303603828" lon="8.908481989055872">
        <ele>266.89999999999998</ele>
        <time>2018-09-16T06:45:24Z</time>
      </trkpt>
      <trkpt lat="49.782255962491035" lon="8.908738978207111">
        <ele>268.35000000000002</ele>
        <time>2018-09-16T06:45:25Z</time>
      </trkpt>
      <trkpt lat="49.782198965549469" lon="8.909005019813776">
        <ele>269.79000000000002</ele>
        <time>2018-09-16T06:45:26Z</time>
      </trkpt>
      <trkpt lat="49.782123025506735" lon="8.90927198342979">
        <ele>271.23000000000002</ele>
        <time>2018-09-16T06:45:27Z</time>
      </trkpt>
      <trkpt lat="49.78138298727572" lon="8.911179034039378">
        <ele>280.36000000000001</ele>
        <time>2018-09-16T06:45:34Z</time>
      </trkpt>
      <trkpt lat="49.780470030382276" lon="8.913663011044264">
        <ele>292.86000000000001</ele>
        <time>2018-09-16T06:45:43Z</time>
      </trkpt>
      <trkpt lat="49.780396018177271" lon="8.913931986317039">
        <ele>294.30000000000001</ele>
        <time>2018-09-16T06:45:44Z</time>
      </trkpt>
      <trkpt lat="49.780345978215337" lon="8.914210014045239">
        <ele>296.22000000000003</ele>
        <time>2018-09-16T06:45:45Z</time>
      </trkpt>
      <trkpt lat="49.780190996825695" lon="8.916263999417424">
        <ele>306.80000000000001</ele>
        <time>2018-09-16T06:45:52Z</time>
      </trkpt>
      <trkpt lat="49.780325023457408" lon="8.918836992233992">
        <ele>319.77999999999997</ele>
        <time>2018-09-16T06:46:00Z</time>
      </trkpt>
      <trkpt lat="49.780339021235704" lon="8.919765958562493">
        <ele>325.54000000000002</ele>
        <time>2018-09-16T06:46:03Z</time>
      </trkpt>
      <trkpt lat="49.780325023457408" lon="8.920066030696034">
        <ele>327.47000000000003</ele>
        <time>2018-09-16T06:46:04Z</time>
      </trkpt>
      <trkpt lat="49.780283030122519" lon="8.92035998404026">
        <ele>329.38999999999999</ele>
        <time>2018-09-16T06:46:05Z</time>
      </trkpt>
      <trkpt lat="49.780221004039049" lon="8.920649997889996">
        <ele>331.31</ele>
        <time>2018-09-16T06:46:06Z</time>
      </trkpt>
      <trkpt lat="49.780157972127199" lon="8.920944035053253">
        <ele>333.23000000000002</ele>
        <time>2018-09-16T06:46:07Z</time>
      </trkpt>
      <trkpt lat="49.780096029862761" lon="8.922186987474561">
        <ele>339.95999999999998</ele>
        <time>2018-09-16T06:46:11Z</time>
      </trkpt>
      <trkpt lat="49.780143974348903" lon="8.922495022416115">
        <ele>341.41000000000003</ele>
        <time>2018-09-16T06:46:12Z</time>
      </trkpt>
      <trkpt lat="49.780194014310837" lon="8.922809008508921">
        <ele>342.85000000000002</ele>
        <time>2018-09-16T06:46:13Z</time>
      </trkpt>
      <trkpt lat="49.78024497628212" lon="8.923131041228771">
        <ele>344.76999999999998</ele>
        <time>2018-09-16T06:46:14Z</time>
      </trkpt>
      <trkpt lat="49.780318988487124" lon="8.923447038978338">
        <ele>346.69</ele>
        <time>2018-09-16T06:46:15Z</time>
      </trkpt>
      <trkpt lat="49.780401969328523" lon="8.923768987879157">
        <ele>348.13</ele>
        <time>2018-09-16T06:46:16Z</time>
      </trkpt>
      <trkpt lat="49.780544964596629" lon="8.924402995035052">
        <ele>350.54000000000002</ele>
        <time>2018-09-16T06:46:18Z</time>
      </trkpt>
      <trkpt lat="49.780596010386944" lon="8.924723016098142">
        <ele>351.5</ele>
        <time>2018-09-16T06:46:19Z</time>
      </trkpt>
      <trkpt lat="49.780604979023337" lon="8.925073966383934">
        <ele>351.98000000000002</ele>
        <time>2018-09-16T06:46:20Z</time>
      </trkpt>
      <trkpt lat="49.780580000951886" lon="8.925415026023984">
        <ele>352.94</ele>
        <time>2018-09-16T06:46:21Z</time>
      </trkpt>
      <trkpt lat="49.780555022880435" lon="8.925756001845002">
        <ele>353.89999999999998</ele>
        <time>2018-09-16T06:46:22Z</time>
      </trkpt>
      <trkpt lat="49.780529038980603" lon="8.926107035949826">
        <ele>354.86000000000001</ele>
        <time>2018-09-16T06:46:23Z</time>
      </trkpt>
      <trkpt lat="49.78050297126174" lon="8.92646100372076">
        <ele>355.33999999999997</ele>
        <time>2018-09-16T06:46:24Z</time>
      </trkpt>
      <trkpt lat="49.780477993190289" lon="8.926806002855301">
        <ele>356.79000000000002</ele>
        <time>2018-09-16T06:46:25Z</time>
      </trkpt>
      <trkpt lat="49.780188985168934" lon="8.930896958336234">
        <ele>362.06999999999999</ele>
        <time>2018-09-16T06:46:37Z</time>
      </trkpt>
      <trkpt lat="49.780104998499155" lon="8.931518979370594">
        <ele>359.67000000000002</ele>
        <time>2018-09-16T06:46:39Z</time>
      </trkpt>
      <trkpt lat="49.780044984072447" lon="8.931817039847374">
        <ele>358.23000000000002</ele>
        <time>2018-09-16T06:46:40Z</time>
      </trkpt>
      <trkpt lat="49.779951022937894" lon="8.932093977928162">
        <ele>356.79000000000002</ele>
        <time>2018-09-16T06:46:41Z</time>
      </trkpt>
      <trkpt lat="49.779830994084477" lon="8.93234602175653">
        <ele>355.33999999999997</ele>
        <time>2018-09-16T06:46:42Z</time>
      </trkpt>
      <trkpt lat="49.779708031564951" lon="8.932593036442995">
        <ele>353.89999999999998</ele>
        <time>2018-09-16T06:46:43Z</time>
      </trkpt>
      <trkpt lat="49.77955799549818" lon="8.9327999856323">
        <ele>352.94</ele>
        <time>2018-09-16T06:46:44Z</time>
      </trkpt>
      <trkpt lat="49.779397984966636" lon="8.932993020862341">
        <ele>351.98000000000002</ele>
        <time>2018-09-16T06:46:45Z</time>
      </trkpt>
      <trkpt lat="49.779223976656795" lon="8.933174991980195">
        <ele>350.54000000000002</ele>
        <time>2018-09-16T06:46:46Z</time>
      </trkpt>
      <trkpt lat="49.779025996103883" lon="8.933282028883696">
        <ele>349.57999999999998</ele>
        <time>2018-09-16T06:46:47Z</time>
      </trkpt>
      <trkpt lat="49.778823992237449" lon="8.933390993624926">
        <ele>348.62</ele>
        <time>2018-09-16T06:46:48Z</time>
      </trkpt>
      <trkpt lat="49.778615031391382" lon="8.933473974466324">
        <ele>348.13</ele>
        <time>2018-09-16T06:46:49Z</time>
      </trkpt>
      <trkpt lat="49.778407998383045" lon="8.933539018034935">
        <ele>347.17000000000002</ele>
        <time>2018-09-16T06:46:50Z</time>
      </trkpt>
      <trkpt lat="49.777853032574058" lon="8.933775974437594">
        <ele>345.73000000000002</ele>
        <time>2018-09-16T06:46:53Z</time>
      </trkpt>
      <trkpt lat="49.777678018435836" lon="8.933903966099024">
        <ele>345.25</ele>
        <time>2018-09-16T06:46:54Z</time>
      </trkpt>
      <trkpt lat="49.777517002075911" lon="8.934069005772471">
        <ele>344.76999999999998</ele>
        <time>2018-09-16T06:46:55Z</time>
      </trkpt>
      <trkpt lat="49.777365038171411" lon="8.934272015467286">
        <ele>344.29000000000002</ele>
        <time>2018-09-16T06:46:56Z</time>
      </trkpt>
      <trkpt lat="49.777209972962737" lon="8.934477958828211">
        <ele>343.32999999999998</ele>
        <time>2018-09-16T06:46:57Z</time>
      </trkpt>
      <trkpt lat="49.777092961594462" lon="8.934737965464592">
        <ele>342.85000000000002</ele>
        <time>2018-09-16T06:46:58Z</time>
      </trkpt>
      <trkpt lat="49.776980979368091" lon="8.935009958222508">
        <ele>341.88999999999999</ele>
        <time>2018-09-16T06:46:59Z</time>
      </trkpt>
      <trkpt lat="49.776881989091635" lon="8.935306007042527">
        <ele>341.41000000000003</ele>
        <time>2018-09-16T06:47:00Z</time>
      </trkpt>
      <trkpt lat="49.776779981330037" lon="8.935608007013798">
        <ele>340.44</ele>
        <time>2018-09-16T06:47:01Z</time>
      </trkpt>
      <trkpt lat="49.77588102221489" lon="8.93838501535356">
        <ele>331.79000000000002</ele>
        <time>2018-09-16T06:47:11Z</time>
      </trkpt>
      <trkpt lat="49.775697961449623" lon="8.938956996425986">
        <ele>328.43000000000001</ele>
        <time>2018-09-16T06:47:15Z</time>
      </trkpt>
      <trkpt lat="49.775664014741778" lon="8.9390529692173">
        <ele>327.94999999999999</ele>
        <time>2018-09-16T06:47:16Z</time>
      </trkpt>
      <trkpt lat="49.775558989495039" lon="8.93911600112915">
        <ele>327.47000000000003</ele>
        <time>2018-09-16T06:47:17Z</time>
      </trkpt>
      <trkpt lat="49.775470979511738" lon="8.93911600112915">
        <ele>326.5</ele>
        <time>2018-09-16T06:47:18Z</time>
      </trkpt>
      <trkpt lat="49.77536603808403" lon="8.93911600112915">
        <ele>326.01999999999998</ele>
        <time>2018-09-16T06:47:19Z</time>
      </trkpt>
      <trkpt lat="49.775253972038627" lon="8.93911600112915">
        <ele>325.54000000000002</ele>
        <time>2018-09-16T06:47:20Z</time>
      </trkpt>
      <trkpt lat="49.7747010178864" lon="8.939156988635659">
        <ele>320.74000000000001</ele>
        <time>2018-09-16T06:47:27Z</time>
      </trkpt>
      <trkpt lat="49.774644020944834" lon="8.939163023605943">
        <ele>318.81</ele>
        <time>2018-09-16T06:47:36Z</time>
      </trkpt>
      <trkpt lat="49.774546958506107" lon="8.939171992242336">
        <ele>317.85000000000002</ele>
        <time>2018-09-16T06:48:25Z</time>
      </trkpt>
      <trkpt lat="49.773967014625669" lon="8.93937399610877">
        <ele>314.97000000000003</ele>
        <time>2018-09-16T06:48:31Z</time>
      </trkpt>
      <trkpt lat="49.772661030292511" lon="8.939982019364834">
        <ele>308.72000000000003</ele>
        <time>2018-09-16T06:48:39Z</time>
      </trkpt>
      <trkpt lat="49.771208027377725" lon="8.940506977960467">
        <ele>299.11000000000001</ele>
        <time>2018-09-16T06:48:47Z</time>
      </trkpt>
      <trkpt lat="49.770822962746024" lon="8.940687021240592">
        <ele>295.74000000000001</ele>
        <time>2018-09-16T06:48:50Z</time>
      </trkpt>
      <trkpt lat="49.770727995783091" lon="8.94079296849668">
        <ele>294.77999999999997</ele>
        <time>2018-09-16T06:48:51Z</time>
      </trkpt>
      <trkpt lat="49.770637974143028" lon="8.940906962379813">
        <ele>293.33999999999997</ele>
        <time>2018-09-16T06:48:52Z</time>
      </trkpt>
      <trkpt lat="49.769946970045567" lon="8.941854033619165">
        <ele>284.69</ele>
        <time>2018-09-16T06:49:01Z</time>
      </trkpt>
      <trkpt lat="49.76980104111135" lon="8.942071963101625">
        <ele>283.73000000000002</ele>
        <time>2018-09-16T06:49:03Z</time>
      </trkpt>
      <trkpt lat="49.769741026684642" lon="8.942162990570068">
        <ele>283.25</ele>
        <time>2018-09-16T06:49:04Z</time>
      </trkpt>
      <trkpt lat="49.769681012257934" lon="8.94231696613133">
        <ele>282.27999999999997</ele>
        <time>2018-09-16T06:49:05Z</time>
      </trkpt>
      <trkpt lat="49.769632983952761" lon="8.942442024126649">
        <ele>281.80000000000001</ele>
        <time>2018-09-16T06:49:06Z</time>
      </trkpt>
      <trkpt lat="49.769623009487987" lon="8.942593988031149">
        <ele>280.83999999999997</ele>
        <time>2018-09-16T06:49:07Z</time>
      </trkpt>
      <trkpt lat="49.769612029194832" lon="8.942763973027468">
        <ele>280.36000000000001</ele>
        <time>2018-09-16T06:49:08Z</time>
      </trkpt>
      <trkpt lat="49.769619992002845" lon="8.942889031022787">
        <ele>279.39999999999998</ele>
        <time>2018-09-16T06:49:09Z</time>
      </trkpt>
      <trkpt lat="49.769629966467619" lon="8.943029008805752">
        <ele>278.44</ele>
        <time>2018-09-16T06:49:10Z</time>
      </trkpt>
      <trkpt lat="49.769655028358102" lon="8.943408038467169">
        <ele>275.56</ele>
        <time>2018-09-16T06:49:13Z</time>
      </trkpt>
      <trkpt lat="49.769640024751425" lon="8.943543992936611">
        <ele>274.58999999999997</ele>
        <time>2018-09-16T06:49:14Z</time>
      </trkpt>
      <trkpt lat="49.769616974517703" lon="8.943634014576674">
        <ele>273.63</ele>
        <time>2018-09-16T06:49:15Z</time>
      </trkpt>
      <trkpt lat="49.769572969526052" lon="8.943721018731594">
        <ele>272.67000000000002</ele>
        <time>2018-09-16T06:49:16Z</time>
      </trkpt>
      <trkpt lat="49.769528964534402" lon="8.943809028714895">
        <ele>271.70999999999998</ele>
        <time>2018-09-16T06:49:17Z</time>
      </trkpt>
      <trkpt lat="49.769483031705022" lon="8.943901984021068">
        <ele>270.75</ele>
        <time>2018-09-16T06:49:18Z</time>
      </trkpt>
      <trkpt lat="49.76943701505661" lon="8.943988988175988">
        <ele>270.26999999999998</ele>
        <time>2018-09-16T06:49:19Z</time>
      </trkpt>
      <trkpt lat="49.769356967881322" lon="8.944044979289174">
        <ele>269.79000000000002</ele>
        <time>2018-09-16T06:49:20Z</time>
      </trkpt>
      <trkpt lat="49.769269963726401" lon="8.944104993715882">
        <ele>268.82999999999998</ele>
        <time>2018-09-16T06:49:21Z</time>
      </trkpt>
      <trkpt lat="49.769182037562132" lon="8.944166013970971">
        <ele>268.35000000000002</ele>
        <time>2018-09-16T06:49:22Z</time>
      </trkpt>
      <trkpt lat="49.769094027578831" lon="8.944226028397679">
        <ele>267.86000000000001</ele>
        <time>2018-09-16T06:49:23Z</time>
      </trkpt>
      <trkpt lat="49.768840977922082" lon="8.944400958716869">
        <ele>265.94</ele>
        <time>2018-09-16T06:49:26Z</time>
      </trkpt>
      <trkpt lat="49.768751040101051" lon="8.944463990628719">
        <ele>264.98000000000002</ele>
        <time>2018-09-16T06:49:27Z</time>
      </trkpt>
      <trkpt lat="49.768660012632608" lon="8.944527022540569">
        <ele>264.01999999999998</ele>
        <time>2018-09-16T06:49:28Z</time>
      </trkpt>
      <trkpt lat="49.768565967679024" lon="8.944592988118529">
        <ele>263.06</ele>
        <time>2018-09-16T06:49:29Z</time>
      </trkpt>
      <trkpt lat="49.768474018201232" lon="8.944658031687141">
        <ele>261.62</ele>
        <time>2018-09-16T06:49:30Z</time>
      </trkpt>
      <trkpt lat="49.767448995262384" lon="8.94538801163435">
        <ele>252.47999999999999</ele>
        <time>2018-09-16T06:49:41Z</time>
      </trkpt>
      <trkpt lat="49.766396982595325" lon="8.946177000179887">
        <ele>248.16</ele>
        <time>2018-09-16T06:49:53Z</time>
      </trkpt>
      <trkpt lat="49.765861965715885" lon="8.946540020406246">
        <ele>246.22999999999999</ele>
        <time>2018-09-16T06:50:00Z</time>
      </trkpt>
      <trkpt lat="49.765791976824403" lon="8.946562986820936">
        <ele>246.22999999999999</ele>
        <time>2018-09-16T06:50:01Z</time>
      </trkpt>
      <trkpt lat="49.765716958791018" lon="8.946566004306078">
        <ele>245.75</ele>
        <time>2018-09-16T06:50:02Z</time>
      </trkpt>
      <trkpt lat="49.764963006600738" lon="8.946593999862671">
        <ele>240.94999999999999</ele>
        <time>2018-09-16T06:50:12Z</time>
      </trkpt>
      <trkpt lat="49.764806013554335" lon="8.946601040661335">
        <ele>239.99000000000001</ele>
        <time>2018-09-16T06:50:14Z</time>
      </trkpt>
      <trkpt lat="49.764727978035808" lon="8.946602968499064">
        <ele>239.02000000000001</ele>
        <time>2018-09-16T06:50:15Z</time>
      </trkpt>
      <trkpt lat="49.764647008851171" lon="8.946574972942472">
        <ele>238.53999999999999</ele>
        <time>2018-09-16T06:50:16Z</time>
      </trkpt>
      <trkpt lat="49.764567967504263" lon="8.946529040113092">
        <ele>237.58000000000001</ele>
        <time>2018-09-16T06:50:17Z</time>
      </trkpt>
      <trkpt lat="49.764492027461529" lon="8.94648402929306">
        <ele>237.09999999999999</ele>
        <time>2018-09-16T06:50:18Z</time>
      </trkpt>
      <trkpt lat="49.764352971687913" lon="8.946403982117772">
        <ele>235.18000000000001</ele>
        <time>2018-09-16T06:50:20Z</time>
      </trkpt>
      <trkpt lat="49.764290023595095" lon="8.946367017924786">
        <ele>234.22</ele>
        <time>2018-09-16T06:50:21Z</time>
      </trkpt>
      <trkpt lat="49.764221962541342" lon="8.946327036246657">
        <ele>233.74000000000001</ele>
        <time>2018-09-16T06:50:22Z</time>
      </trkpt>
      <trkpt lat="49.764140993356705" lon="8.946323012933135">
        <ele>232.78</ele>
        <time>2018-09-16T06:50:23Z</time>
      </trkpt>
      <trkpt lat="49.764068992808461" lon="8.94635503180325">
        <ele>232.30000000000001</ele>
        <time>2018-09-16T06:50:24Z</time>
      </trkpt>
      <trkpt lat="49.763992968946695" lon="8.946388978511095">
        <ele>231.81</ele>
        <time>2018-09-16T06:50:25Z</time>
      </trkpt>
      <trkpt lat="49.763909988105297" lon="8.946425020694733">
        <ele>231.33000000000001</ele>
        <time>2018-09-16T06:50:26Z</time>
      </trkpt>
      <trkpt lat="49.76303399540484" lon="8.946745963767171">
        <ele>231.81</ele>
        <time>2018-09-16T06:50:36Z</time>
      </trkpt>
      <trkpt lat="49.762946991249919" lon="8.946770019829273">
        <ele>231.81</ele>
        <time>2018-09-16T06:50:37Z</time>
      </trkpt>
      <trkpt lat="49.76251901127398" lon="8.946930030360818">
        <ele>231.81</ele>
        <time>2018-09-16T06:50:42Z</time>
      </trkpt>
      <trkpt lat="49.762437036260962" lon="8.946987027302384">
        <ele>231.81</ele>
        <time>2018-09-16T06:50:43Z</time>
      </trkpt>
      <trkpt lat="49.762262022122741" lon="8.94710797816515">
        <ele>231.33000000000001</ele>
        <time>2018-09-16T06:50:45Z</time>
      </trkpt>
      <trkpt lat="49.76217401213944" lon="8.947168998420239">
        <ele>231.33000000000001</ele>
        <time>2018-09-16T06:50:46Z</time>
      </trkpt>
      <trkpt lat="49.760976992547512" lon="8.947892021387816">
        <ele>227.49000000000001</ele>
        <time>2018-09-16T06:50:59Z</time>
      </trkpt>
      <trkpt lat="49.760812958702445" lon="8.948024958372116">
        <ele>227.49000000000001</ele>
        <time>2018-09-16T06:51:01Z</time>
      </trkpt>
      <trkpt lat="49.760603997856379" lon="8.948269039392471">
        <ele>227.00999999999999</ele>
        <time>2018-09-16T06:51:04Z</time>
      </trkpt>
      <trkpt lat="49.76054398342967" lon="8.948373980820179">
        <ele>227.00999999999999</ele>
        <time>2018-09-16T06:51:05Z</time>
      </trkpt>
      <trkpt lat="49.760363018140197" lon="8.948687966912985">
        <ele>227.49000000000001</ele>
        <time>2018-09-16T06:51:08Z</time>
      </trkpt>
      <trkpt lat="49.76030501537025" lon="8.948788968846202">
        <ele>227.49000000000001</ele>
        <time>2018-09-16T06:51:09Z</time>
      </trkpt>
      <trkpt lat="49.760245000943542" lon="8.948892988264561">
        <ele>227.49000000000001</ele>
        <time>2018-09-16T06:51:10Z</time>
      </trkpt>
      <trkpt lat="49.759935038164258" lon="8.949432028457522">
        <ele>227.97</ele>
        <time>2018-09-16T06:51:15Z</time>
      </trkpt>
      <trkpt lat="49.759802017360926" lon="8.949626991525292">
        <ele>227.49000000000001</ele>
        <time>2018-09-16T06:51:17Z</time>
      </trkpt>
      <trkpt lat="49.759650975465775" lon="8.949808962643147">
        <ele>226.53</ele>
        <time>2018-09-16T06:51:19Z</time>
      </trkpt>
      <trkpt lat="49.759432962164283" lon="8.950110040605068">
        <ele>225.56999999999999</ele>
        <time>2018-09-16T06:51:22Z</time>
      </trkpt>
      <trkpt lat="49.759379988536239" lon="8.950238032266498">
        <ele>225.09</ele>
        <time>2018-09-16T06:51:23Z</time>
      </trkpt>
      <trkpt lat="49.758892999961972" lon="8.951536975800991">
        <ele>223.63999999999999</ele>
        <time>2018-09-16T06:51:33Z</time>
      </trkpt>
      <trkpt lat="49.758731983602047" lon="8.952099988237023">
        <ele>222.68000000000001</ele>
        <time>2018-09-16T06:51:37Z</time>
      </trkpt>
      <trkpt lat="49.758285982534289" lon="8.952961983159185">
        <ele>221.72</ele>
        <time>2018-09-16T06:51:43Z</time>
      </trkpt>
      <trkpt lat="49.758195038884878" lon="8.953128028661013">
        <ele>221.72</ele>
        <time>2018-09-16T06:51:44Z</time>
      </trkpt>
      <trkpt lat="49.757560025900602" lon="8.954610032960773">
        <ele>219.80000000000001</ele>
        <time>2018-09-16T06:51:51Z</time>
      </trkpt>
      <trkpt lat="49.757514009252191" lon="8.954881019890308">
        <ele>219.31999999999999</ele>
        <time>2018-09-16T06:51:52Z</time>
      </trkpt>
      <trkpt lat="49.757473021745682" lon="8.955147983506322">
        <ele>218.84</ele>
        <time>2018-09-16T06:51:53Z</time>
      </trkpt>
      <trkpt lat="49.757432034239173" lon="8.955416036769748">
        <ele>218.84</ele>
        <time>2018-09-16T06:51:54Z</time>
      </trkpt>
      <trkpt lat="49.757420970126987" lon="8.955695992335677">
        <ele>218.36000000000001</ele>
        <time>2018-09-16T06:51:55Z</time>
      </trkpt>
      <trkpt lat="49.757418036460876" lon="8.955973014235497">
        <ele>217.88</ele>
        <time>2018-09-16T06:51:56Z</time>
      </trkpt>
      <trkpt lat="49.75740403868258" lon="8.957005999982357">
        <ele>216.91</ele>
        <time>2018-09-16T06:52:00Z</time>
      </trkpt>
      <trkpt lat="49.757379982620478" lon="8.957245973870158">
        <ele>216.91</ele>
        <time>2018-09-16T06:52:01Z</time>
      </trkpt>
      <trkpt lat="49.757329020649195" lon="8.957477984949946">
        <ele>216.43000000000001</ele>
        <time>2018-09-16T06:52:02Z</time>
      </trkpt>
      <trkpt lat="49.757268000394106" lon="8.957705972716212">
        <ele>216.43000000000001</ele>
        <time>2018-09-16T06:52:03Z</time>
      </trkpt>
      <trkpt lat="49.757187031209469" lon="8.957917029038072">
        <ele>216.43000000000001</ele>
        <time>2018-09-16T06:52:04Z</time>
      </trkpt>
      <trkpt lat="49.757098015397787" lon="8.958124984055758">
        <ele>216.43000000000001</ele>
        <time>2018-09-16T06:52:05Z</time>
      </trkpt>
      <trkpt lat="49.756979998201132" lon="8.958307038992643">
        <ele>216.43000000000001</ele>
        <time>2018-09-16T06:52:06Z</time>
      </trkpt>
      <trkpt lat="49.756856029853225" lon="8.958480963483453">
        <ele>216.43000000000001</ele>
        <time>2018-09-16T06:52:07Z</time>
      </trkpt>
      <trkpt lat="49.756715968251228" lon="8.958621025085449">
        <ele>215.94999999999999</ele>
        <time>2018-09-16T06:52:08Z</time>
      </trkpt>
      <trkpt lat="49.756564004346728" lon="8.958734013140202">
        <ele>215.94999999999999</ele>
        <time>2018-09-16T06:52:09Z</time>
      </trkpt>
      <trkpt lat="49.756406005471945" lon="8.958836020901799">
        <ele>215.47</ele>
        <time>2018-09-16T06:52:10Z</time>
      </trkpt>
      <trkpt lat="49.755908958613873" lon="8.959155958145857">
        <ele>214.50999999999999</ele>
        <time>2018-09-16T06:52:13Z</time>
      </trkpt>
      <trkpt lat="49.755231030285358" lon="8.959642024710774">
        <ele>212.59</ele>
        <time>2018-09-16T06:52:17Z</time>
      </trkpt>
      <trkpt lat="49.755079988390207" lon="8.959801029413939">
        <ele>212.59</ele>
        <time>2018-09-16T06:52:18Z</time>
      </trkpt>
      <trkpt lat="49.75493598729372" lon="8.959992974996567">
        <ele>212.11000000000001</ele>
        <time>2018-09-16T06:52:19Z</time>
      </trkpt>
      <trkpt lat="49.754789974540472" lon="8.960188021883369">
        <ele>212.11000000000001</ele>
        <time>2018-09-16T06:52:20Z</time>
      </trkpt>
      <trkpt lat="49.754671035334468" lon="8.96040896885097">
        <ele>211.63</ele>
        <time>2018-09-16T06:52:21Z</time>
      </trkpt>
      <trkpt lat="49.754556035622954" lon="8.96066403016448">
        <ele>211.63</ele>
        <time>2018-09-16T06:52:22Z</time>
      </trkpt>
      <trkpt lat="49.754460984840989" lon="8.960939040407538">
        <ele>211.63</ele>
        <time>2018-09-16T06:52:23Z</time>
      </trkpt>
      <trkpt lat="49.754364006221294" lon="8.961226958781481">
        <ele>211.15000000000001</ele>
        <time>2018-09-16T06:52:24Z</time>
      </trkpt>
      <trkpt lat="49.754083966836333" lon="8.962116027250886">
        <ele>211.15000000000001</ele>
        <time>2018-09-16T06:52:27Z</time>
      </trkpt>
      <trkpt lat="49.754041973501444" lon="8.962435964494944">
        <ele>210.66999999999999</ele>
        <time>2018-09-16T06:52:28Z</time>
      </trkpt>
      <trkpt lat="49.753956981003284" lon="8.963078018277884">
        <ele>210.66999999999999</ele>
        <time>2018-09-16T06:52:30Z</time>
      </trkpt>
      <trkpt lat="49.753608964383602" lon="8.964735036715865">
        <ele>207.78</ele>
        <time>2018-09-16T06:52:36Z</time>
      </trkpt>
      <trkpt lat="49.753551967442036" lon="8.965002000331879">
        <ele>207.30000000000001</ele>
        <time>2018-09-16T06:52:37Z</time>
      </trkpt>
      <trkpt lat="49.753531012684107" lon="8.965282961726189">
        <ele>206.34</ele>
        <time>2018-09-16T06:52:38Z</time>
      </trkpt>
      <trkpt lat="49.753519026562572" lon="8.965569036081433">
        <ele>205.38</ele>
        <time>2018-09-16T06:52:39Z</time>
      </trkpt>
      <trkpt lat="49.753553979098797" lon="8.965854020789266">
        <ele>204.41999999999999</ele>
        <time>2018-09-16T06:52:40Z</time>
      </trkpt>
      <trkpt lat="49.753611981868744" lon="8.966114027425647">
        <ele>203.94</ele>
        <time>2018-09-16T06:52:41Z</time>
      </trkpt>
      <trkpt lat="49.753678031265736" lon="8.966365987434983">
        <ele>202.97999999999999</ele>
        <time>2018-09-16T06:52:42Z</time>
      </trkpt>
      <trkpt lat="49.753742991015315" lon="8.966609984636307">
        <ele>202.49000000000001</ele>
        <time>2018-09-16T06:52:43Z</time>
      </trkpt>
      <trkpt lat="49.753823038190603" lon="8.966846019029617">
        <ele>202.00999999999999</ele>
        <time>2018-09-16T06:52:44Z</time>
      </trkpt>
      <trkpt lat="49.753899984061718" lon="8.967069983482361">
        <ele>202.00999999999999</ele>
        <time>2018-09-16T06:52:45Z</time>
      </trkpt>
      <trkpt lat="49.754367023706436" lon="8.968719961121678">
        <ele>202.49000000000001</ele>
        <time>2018-09-16T06:52:53Z</time>
      </trkpt>
      <trkpt lat="49.754686038941145" lon="8.970196014270186">
        <ele>202.97999999999999</ele>
        <time>2018-09-16T06:53:02Z</time>
      </trkpt>
      <trkpt lat="49.754787040874362" lon="8.971887985244393">
        <ele>200.09</ele>
        <time>2018-09-16T06:53:13Z</time>
      </trkpt>
      <trkpt lat="49.754842026159167" lon="8.973316010087729">
        <ele>198.16999999999999</ele>
        <time>2018-09-16T06:53:23Z</time>
      </trkpt>
      <trkpt lat="49.754888964816928" lon="8.973700990900397">
        <ele>198.16999999999999</ele>
        <time>2018-09-16T06:53:27Z</time>
      </trkpt>
      <trkpt lat="49.754906985908747" lon="8.973790006712079">
        <ele>198.16999999999999</ele>
        <time>2018-09-16T06:53:28Z</time>
      </trkpt>
      <trkpt lat="49.754922995343804" lon="8.973877010867">
        <ele>198.16999999999999</ele>
        <time>2018-09-16T06:53:29Z</time>
      </trkpt>
      <trkpt lat="49.7549560200423" lon="8.97404900752008">
        <ele>198.16999999999999</ele>
        <time>2018-09-16T06:53:31Z</time>
      </trkpt>
      <trkpt lat="49.755001030862331" lon="8.974232990294695">
        <ele>197.69</ele>
        <time>2018-09-16T06:53:33Z</time>
      </trkpt>
      <trkpt lat="49.755016034469008" lon="8.974326029419899">
        <ele>197.69</ele>
        <time>2018-09-16T06:53:34Z</time>
      </trkpt>
      <trkpt lat="49.75508501753211" lon="8.974828021600843">
        <ele>197.69</ele>
        <time>2018-09-16T06:53:39Z</time>
      </trkpt>
      <trkpt lat="49.755105972290039" lon="8.97503798827529">
        <ele>197.69</ele>
        <time>2018-09-16T06:53:41Z</time>
      </trkpt>
      <trkpt lat="49.755070013925433" lon="8.97559798322618">
        <ele>198.16999999999999</ele>
        <time>2018-09-16T06:53:46Z</time>
      </trkpt>
      <trkpt lat="49.755061967298388" lon="8.975722035393119">
        <ele>198.65000000000001</ele>
        <time>2018-09-16T06:53:47Z</time>
      </trkpt>
      <trkpt lat="49.754954008385539" lon="8.977226000279188">
        <ele>197.21000000000001</ele>
        <time>2018-09-16T06:53:59Z</time>
      </trkpt>
      <trkpt lat="49.754926012828946" lon="8.977588014677167">
        <ele>196.72999999999999</ele>
        <time>2018-09-16T06:54:02Z</time>
      </trkpt>
      <trkpt lat="49.754906985908747" lon="8.97783201187849">
        <ele>195.28</ele>
        <time>2018-09-16T06:54:04Z</time>
      </trkpt>
      <trkpt lat="49.754776982590556" lon="8.978636004030705">
        <ele>192.40000000000001</ele>
        <time>2018-09-16T06:54:10Z</time>
      </trkpt>
      <trkpt lat="49.754628036171198" lon="8.97963797673583">
        <ele>190.47999999999999</ele>
        <time>2018-09-16T06:54:17Z</time>
      </trkpt>
      <trkpt lat="49.754613032564521" lon="8.979799998924136">
        <ele>190</ele>
        <time>2018-09-16T06:54:18Z</time>
      </trkpt>
      <trkpt lat="49.754609009250998" lon="8.981541004031897">
        <ele>187.11000000000001</ele>
        <time>2018-09-16T06:54:28Z</time>
      </trkpt>
      <trkpt lat="49.754628036171198" lon="8.982669962570071">
        <ele>185.66999999999999</ele>
        <time>2018-09-16T06:54:34Z</time>
      </trkpt>
      <trkpt lat="49.754652008414268" lon="8.98285998031497">
        <ele>185.66999999999999</ele>
        <time>2018-09-16T06:54:35Z</time>
      </trkpt>
      <trkpt lat="49.755109995603561" lon="8.985026031732559">
        <ele>184.71000000000001</ele>
        <time>2018-09-16T06:54:46Z</time>
      </trkpt>
      <trkpt lat="49.755641994997859" lon="8.987012961879373">
        <ele>185.19</ele>
        <time>2018-09-16T06:54:56Z</time>
      </trkpt>
      <trkpt lat="49.756067963317037" lon="8.98861700668931">
        <ele>182.78999999999999</ele>
        <time>2018-09-16T06:55:04Z</time>
      </trkpt>
      <trkpt lat="49.756957031786442" lon="8.990050982683897">
        <ele>177.5</ele>
        <time>2018-09-16T06:55:13Z</time>
      </trkpt>
      <trkpt lat="49.757073959335685" lon="8.990153996273875">
        <ele>177.02000000000001</ele>
        <time>2018-09-16T06:55:14Z</time>
      </trkpt>
      <trkpt lat="49.757188037037849" lon="8.990253992378712">
        <ele>176.53999999999999</ele>
        <time>2018-09-16T06:55:15Z</time>
      </trkpt>
      <trkpt lat="49.757403032854199" lon="8.99044300429523">
        <ele>175.58000000000001</ele>
        <time>2018-09-16T06:55:17Z</time>
      </trkpt>
      <trkpt lat="49.758224040269852" lon="8.991061002016068">
        <ele>172.69</ele>
        <time>2018-09-16T06:55:26Z</time>
      </trkpt>
      <trkpt lat="49.758834997192025" lon="8.992027016356587">
        <ele>171.25</ele>
        <time>2018-09-16T06:55:36Z</time>
      </trkpt>
      <trkpt lat="49.759057033807039" lon="8.99237796664238">
        <ele>171.72999999999999</ele>
        <time>2018-09-16T06:55:40Z</time>
      </trkpt>
      <trkpt lat="49.75910103879869" lon="8.992453990504146">
        <ele>172.21000000000001</ele>
        <time>2018-09-16T06:55:41Z</time>
      </trkpt>
      <trkpt lat="49.759187959134579" lon="8.992602014914155">
        <ele>173.66</ele>
        <time>2018-09-16T06:55:43Z</time>
      </trkpt>
      <trkpt lat="49.759227018803358" lon="8.992687007412314">
        <ele>174.13999999999999</ele>
        <time>2018-09-16T06:55:44Z</time>
      </trkpt>
      <trkpt lat="49.759552991017699" lon="8.994293985888362">
        <ele>176.06</ele>
        <time>2018-09-16T06:55:58Z</time>
      </trkpt>
      <trkpt lat="49.759586015716195" lon="8.994820034131408">
        <ele>175.09999999999999</ele>
        <time>2018-09-16T06:56:02Z</time>
      </trkpt>
      <trkpt lat="49.759545028209686" lon="8.996244035661221">
        <ele>173.66</ele>
        <time>2018-09-16T06:56:13Z</time>
      </trkpt>
      <trkpt lat="49.759487025439739" lon="8.997007962316275">
        <ele>174.13999999999999</ele>
        <time>2018-09-16T06:56:19Z</time>
      </trkpt>
      <trkpt lat="49.759328020736575" lon="8.99757700972259">
        <ele>174.13999999999999</ele>
        <time>2018-09-16T06:56:24Z</time>
      </trkpt>
      <trkpt lat="49.759283009916544" lon="8.997669965028763">
        <ele>174.13999999999999</ele>
        <time>2018-09-16T06:56:25Z</time>
      </trkpt>
      <trkpt lat="49.759225007146597" lon="8.997750012204051">
        <ele>174.62</ele>
        <time>2018-09-16T06:56:26Z</time>
      </trkpt>
      <trkpt lat="49.75916700437665" lon="8.997827963903546">
        <ele>174.62</ele>
        <time>2018-09-16T06:56:27Z</time>
      </trkpt>
      <trkpt lat="49.759106989949942" lon="8.997909016907215">
        <ele>174.62</ele>
        <time>2018-09-16T06:56:28Z</time>
      </trkpt>
      <trkpt lat="49.759046975523233" lon="8.997989986091852">
        <ele>174.62</ele>
        <time>2018-09-16T06:56:29Z</time>
      </trkpt>
      <trkpt lat="49.758989978581667" lon="8.998067015781999">
        <ele>174.62</ele>
        <time>2018-09-16T06:56:30Z</time>
      </trkpt>
      <trkpt lat="49.758874978870153" lon="8.998224008828402">
        <ele>175.58000000000001</ele>
        <time>2018-09-16T06:56:32Z</time>
      </trkpt>
      <trkpt lat="49.758815970271826" lon="8.998303972184658">
        <ele>176.06</ele>
        <time>2018-09-16T06:56:33Z</time>
      </trkpt>
      <trkpt lat="49.758757967501879" lon="8.998382007703185">
        <ele>176.53999999999999</ele>
        <time>2018-09-16T06:56:34Z</time>
      </trkpt>
      <trkpt lat="49.758700970560312" lon="8.998459037393332">
        <ele>177.02000000000001</ele>
        <time>2018-09-16T06:56:35Z</time>
      </trkpt>
      <trkpt lat="49.758646991103888" lon="8.998531959950924">
        <ele>177.02000000000001</ele>
        <time>2018-09-16T06:56:36Z</time>
      </trkpt>
      <trkpt lat="49.758632993325591" lon="8.998605972155929">
        <ele>177.5</ele>
        <time>2018-09-16T06:56:37Z</time>
      </trkpt>
      <trkpt lat="49.758600974455476" lon="8.998773023486137">
        <ele>177.97999999999999</ele>
        <time>2018-09-16T06:56:39Z</time>
      </trkpt>
      <trkpt lat="49.758411040529609" lon="8.998962035402656">
        <ele>177.97999999999999</ele>
        <time>2018-09-16T06:56:40Z</time>
      </trkpt>
      <trkpt lat="49.758411040529609" lon="8.998962035402656">
        <ele>177.97999999999999</ele>
        <time>2018-09-16T06:56:41Z</time>
      </trkpt>
      <trkpt lat="49.758351026102901" lon="8.998965974897146">
        <ele>177.97999999999999</ele>
        <time>2018-09-16T06:56:42Z</time>
      </trkpt>
      <trkpt lat="49.758273996412754" lon="8.99897301569581">
        <ele>178.46000000000001</ele>
        <time>2018-09-16T06:56:43Z</time>
      </trkpt>
      <trkpt lat="49.758189003914595" lon="8.998979972675443">
        <ele>178.46000000000001</ele>
        <time>2018-09-16T06:56:44Z</time>
      </trkpt>
      <trkpt lat="49.757807962596416" lon="8.999003022909164">
        <ele>178.46000000000001</ele>
        <time>2018-09-16T06:56:48Z</time>
      </trkpt>
      <trkpt lat="49.756559981033206" lon="8.999298987910152">
        <ele>177.97999999999999</ele>
        <time>2018-09-16T06:56:58Z</time>
      </trkpt>
      <trkpt lat="49.755485001951456" lon="8.999968031421304">
        <ele>178.94</ele>
        <time>2018-09-16T06:57:05Z</time>
      </trkpt>
      <trkpt lat="49.753910964354873" lon="9.001073017716408">
        <ele>180.87</ele>
        <time>2018-09-16T06:57:13Z</time>
      </trkpt>
      <trkpt lat="49.752653008326888" lon="9.001230010762811">
        <ele>182.78999999999999</ele>
        <time>2018-09-16T06:57:19Z</time>
      </trkpt>
      <trkpt lat="49.751398991793394" lon="9.001266974955797">
        <ele>182.78999999999999</ele>
        <time>2018-09-16T06:57:27Z</time>
      </trkpt>
      <trkpt lat="49.750139024108648" lon="9.001652039587498">
        <ele>182.31</ele>
        <time>2018-09-16T06:57:36Z</time>
      </trkpt>
      <trkpt lat="49.748978968709707" lon="9.001955967396498">
        <ele>179.41999999999999</ele>
        <time>2018-09-16T06:57:45Z</time>
      </trkpt>
      <trkpt lat="49.748608991503716" lon="9.001966025680304">
        <ele>178.46000000000001</ele>
        <time>2018-09-16T06:57:51Z</time>
      </trkpt>
      <trkpt lat="49.748497009277344" lon="9.001966025680304">
        <ele>177.97999999999999</ele>
        <time>2018-09-16T06:58:03Z</time>
      </trkpt>
      <trkpt lat="49.748412016779184" lon="9.002028973773122">
        <ele>177.5</ele>
        <time>2018-09-16T06:58:04Z</time>
      </trkpt>
      <trkpt lat="49.74838200956583" lon="9.002118995413184">
        <ele>177.5</ele>
        <time>2018-09-16T06:58:05Z</time>
      </trkpt>
      <trkpt lat="49.748347979038954" lon="9.002222009003162">
        <ele>177.5</ele>
        <time>2018-09-16T06:58:06Z</time>
      </trkpt>
      <trkpt lat="49.748309003189206" lon="9.002338014543057">
        <ele>177.5</ele>
        <time>2018-09-16T06:58:07Z</time>
      </trkpt>
      <trkpt lat="49.748269021511078" lon="9.002457959577441">
        <ele>177.5</ele>
        <time>2018-09-16T06:58:08Z</time>
      </trkpt>
      <trkpt lat="49.74821001291275" lon="9.002557033672929">
        <ele>177.97999999999999</ele>
        <time>2018-09-16T06:58:09Z</time>
      </trkpt>
      <trkpt lat="49.748147986829281" lon="9.002650994807482">
        <ele>177.97999999999999</ele>
        <time>2018-09-16T06:58:10Z</time>
      </trkpt>
      <trkpt lat="49.748088978230953" lon="9.002739004790783">
        <ele>177.97999999999999</ele>
        <time>2018-09-16T06:58:11Z</time>
      </trkpt>
      <trkpt lat="49.748034998774529" lon="9.002820979803801">
        <ele>177.97999999999999</ele>
        <time>2018-09-16T06:58:12Z</time>
      </trkpt>
      <trkpt lat="49.747970039024949" lon="9.002888035029173">
        <ele>178.46000000000001</ele>
        <time>2018-09-16T06:58:13Z</time>
      </trkpt>
      <trkpt lat="49.747904995456338" lon="9.002929022535682">
        <ele>178.46000000000001</ele>
        <time>2018-09-16T06:58:14Z</time>
      </trkpt>
      <trkpt lat="49.747842969372869" lon="9.002967998385429">
        <ele>178.46000000000001</ele>
        <time>2018-09-16T06:58:15Z</time>
      </trkpt>
      <trkpt lat="49.74778002128005" lon="9.003006974235177">
        <ele>178.46000000000001</ele>
        <time>2018-09-16T06:58:16Z</time>
      </trkpt>
      <trkpt lat="49.747110977768898" lon="9.003403019160032">
        <ele>181.34999999999999</ele>
        <time>2018-09-16T06:58:26Z</time>
      </trkpt>
      <trkpt lat="49.74687997251749" lon="9.003483988344669">
        <ele>183.75</ele>
        <time>2018-09-16T06:58:29Z</time>
      </trkpt>
      <trkpt lat="49.746794980019331" lon="9.003467978909612">
        <ele>184.22999999999999</ele>
        <time>2018-09-16T06:58:30Z</time>
      </trkpt>
      <trkpt lat="49.746713005006313" lon="9.003443000838161">
        <ele>184.71000000000001</ele>
        <time>2018-09-16T06:58:31Z</time>
      </trkpt>
      <trkpt lat="49.746287036687136" lon="9.003308974206448">
        <ele>185.66999999999999</ele>
        <time>2018-09-16T06:58:36Z</time>
      </trkpt>
      <trkpt lat="49.745683958753943" lon="9.003086015582085">
        <ele>185.19</ele>
        <time>2018-09-16T06:58:42Z</time>
      </trkpt>
      <trkpt lat="49.745583040639758" lon="9.00309800170362">
        <ele>185.19</ele>
        <time>2018-09-16T06:58:43Z</time>
      </trkpt>
      <trkpt lat="49.745485978201032" lon="9.003107976168394">
        <ele>185.19</ele>
        <time>2018-09-16T06:58:44Z</time>
      </trkpt>
      <trkpt lat="49.74539402872324" lon="9.003119040280581">
        <ele>184.71000000000001</ele>
        <time>2018-09-16T06:58:45Z</time>
      </trkpt>
      <trkpt lat="49.745300989598036" lon="9.003165978938341">
        <ele>184.71000000000001</ele>
        <time>2018-09-16T06:58:46Z</time>
      </trkpt>
      <trkpt lat="49.74522203207016" lon="9.003242002800107">
        <ele>184.71000000000001</ele>
        <time>2018-09-16T06:58:47Z</time>
      </trkpt>
      <trkpt lat="49.745141984894872" lon="9.003320038318634">
        <ele>184.71000000000001</ele>
        <time>2018-09-16T06:58:48Z</time>
      </trkpt>
      <trkpt lat="49.744822969660163" lon="9.003628995269537">
        <ele>185.19</ele>
        <time>2018-09-16T06:58:52Z</time>
      </trkpt>
      <trkpt lat="49.744749963283539" lon="9.003700995817781">
        <ele>185.19</ele>
        <time>2018-09-16T06:58:53Z</time>
      </trkpt>
      <trkpt lat="49.744591964408755" lon="9.003853965550661">
        <ele>185.19</ele>
        <time>2018-09-16T06:58:55Z</time>
      </trkpt>
      <trkpt lat="49.744535973295569" lon="9.003927977755666">
        <ele>185.19</ele>
        <time>2018-09-16T06:58:56Z</time>
      </trkpt>
      <trkpt lat="49.744219975546002" lon="9.00434598326683">
        <ele>184.22999999999999</ele>
        <time>2018-09-16T06:59:01Z</time>
      </trkpt>
      <trkpt lat="49.744160966947675" lon="9.004424018785358">
        <ele>183.75</ele>
        <time>2018-09-16T06:59:02Z</time>
      </trkpt>
      <trkpt lat="49.744102964177728" lon="9.004500964656472">
        <ele>183.75</ele>
        <time>2018-09-16T06:59:03Z</time>
      </trkpt>
      <trkpt lat="49.744048984721303" lon="9.004571959376335">
        <ele>183.75</ele>
        <time>2018-09-16T06:59:04Z</time>
      </trkpt>
      <trkpt lat="49.743987964466214" lon="9.004658041521907">
        <ele>184.22999999999999</ele>
        <time>2018-09-16T06:59:05Z</time>
      </trkpt>
      <trkpt lat="49.743953011929989" lon="9.004759965464473">
        <ele>184.71000000000001</ele>
        <time>2018-09-16T06:59:06Z</time>
      </trkpt>
      <trkpt lat="49.743874976411462" lon="9.00498703122139">
        <ele>185.19</ele>
        <time>2018-09-16T06:59:08Z</time>
      </trkpt>
      <trkpt lat="49.743834994733334" lon="9.005103036761284">
        <ele>185.19</ele>
        <time>2018-09-16T06:59:09Z</time>
      </trkpt>
      <trkpt lat="49.743764000013471" lon="9.005308980122209">
        <ele>185.19</ele>
        <time>2018-09-16T06:59:11Z</time>
      </trkpt>
      <trkpt lat="49.743746984750032" lon="9.005414005368948">
        <ele>185.19</ele>
        <time>2018-09-16T06:59:12Z</time>
      </trkpt>
      <trkpt lat="49.743734998628497" lon="9.005520958453417">
        <ele>185.19</ele>
        <time>2018-09-16T06:59:13Z</time>
      </trkpt>
      <trkpt lat="49.743722006678581" lon="9.00563201867044">
        <ele>185.19</ele>
        <time>2018-09-16T06:59:14Z</time>
      </trkpt>
      <trkpt lat="49.743708008900285" lon="9.005752969533205">
        <ele>185.19</ele>
        <time>2018-09-16T06:59:15Z</time>
      </trkpt>
      <trkpt lat="49.743694011121988" lon="9.005878027528524">
        <ele>185.66999999999999</ele>
        <time>2018-09-16T06:59:16Z</time>
      </trkpt>
      <trkpt lat="49.743622010573745" lon="9.006505999714136">
        <ele>187.59</ele>
        <time>2018-09-16T06:59:21Z</time>
      </trkpt>
      <trkpt lat="49.743602983653545" lon="9.006638014689088">
        <ele>187.59</ele>
        <time>2018-09-16T06:59:22Z</time>
      </trkpt>
      <trkpt lat="49.743584040552378" lon="9.006775980815291">
        <ele>187.59</ele>
        <time>2018-09-16T06:59:23Z</time>
      </trkpt>
      <trkpt lat="49.743572976440191" lon="9.006920987740159">
        <ele>188.08000000000001</ele>
        <time>2018-09-16T06:59:24Z</time>
      </trkpt>
      <trkpt lat="49.743561996147037" lon="9.007068006321788">
        <ele>188.56</ele>
        <time>2018-09-16T06:59:25Z</time>
      </trkpt>
      <trkpt lat="49.743513967841864" lon="9.007491962984204">
        <ele>189.03999999999999</ele>
        <time>2018-09-16T06:59:28Z</time>
      </trkpt>
      <trkpt lat="49.743344988673925" lon="9.0084039978683">
        <ele>187.59</ele>
        <time>2018-09-16T06:59:35Z</time>
      </trkpt>
      <trkpt lat="49.743309030309319" lon="9.008666016161442">
        <ele>187.11000000000001</ele>
        <time>2018-09-16T06:59:37Z</time>
      </trkpt>
      <trkpt lat="49.743235018104315" lon="9.009203966706991">
        <ele>186.15000000000001</ele>
        <time>2018-09-16T06:59:41Z</time>
      </trkpt>
      <trkpt lat="49.743153965100646" lon="9.009734960272908">
        <ele>186.15000000000001</ele>
        <time>2018-09-16T06:59:45Z</time>
      </trkpt>
      <trkpt lat="49.743128987029195" lon="9.00986404158175">
        <ele>186.15000000000001</ele>
        <time>2018-09-16T06:59:46Z</time>
      </trkpt>
      <trkpt lat="49.743070984259248" lon="9.010252039879561">
        <ele>186.15000000000001</ele>
        <time>2018-09-16T06:59:49Z</time>
      </trkpt>
      <trkpt lat="49.74305497482419" lon="9.010381959378719">
        <ele>186.63</ele>
        <time>2018-09-16T06:59:50Z</time>
      </trkpt>
      <trkpt lat="49.743037959560752" lon="9.010512968525291">
        <ele>186.63</ele>
        <time>2018-09-16T06:59:51Z</time>
      </trkpt>
      <trkpt lat="49.743025973439217" lon="9.010641966015101">
        <ele>186.63</ele>
        <time>2018-09-16T06:59:52Z</time>
      </trkpt>
      <trkpt lat="49.743025973439217" lon="9.010772975161672">
        <ele>187.11000000000001</ele>
        <time>2018-09-16T06:59:53Z</time>
      </trkpt>
      <trkpt lat="49.743025973439217" lon="9.010913036763668">
        <ele>187.11000000000001</ele>
        <time>2018-09-16T06:59:54Z</time>
      </trkpt>
      <trkpt lat="49.743025973439217" lon="9.011057959869504">
        <ele>187.59</ele>
        <time>2018-09-16T06:59:55Z</time>
      </trkpt>
      <trkpt lat="49.743025973439217" lon="9.01149901561439">
        <ele>188.56</ele>
        <time>2018-09-16T06:59:58Z</time>
      </trkpt>
      <trkpt lat="49.743025973439217" lon="9.0116470400244">
        <ele>189.03999999999999</ele>
        <time>2018-09-16T06:59:59Z</time>
      </trkpt>
      <trkpt lat="49.743025973439217" lon="9.011943005025387">
        <ele>189.52000000000001</ele>
        <time>2018-09-16T07:00:01Z</time>
      </trkpt>
      <trkpt lat="49.743025973439217" lon="9.012090023607016">
        <ele>189.52000000000001</ele>
        <time>2018-09-16T07:00:02Z</time>
      </trkpt>
      <trkpt lat="49.74301096983254" lon="9.012826960533857">
        <ele>190.96000000000001</ele>
        <time>2018-09-16T07:00:07Z</time>
      </trkpt>
      <trkpt lat="49.743002001196146" lon="9.012969033792615">
        <ele>190.96000000000001</ele>
        <time>2018-09-16T07:00:08Z</time>
      </trkpt>
      <trkpt lat="49.742992026731372" lon="9.013117980211973">
        <ele>190.96000000000001</ele>
        <time>2018-09-16T07:00:09Z</time>
      </trkpt>
      <trkpt lat="49.742917008697987" lon="9.014305025339127">
        <ele>191.91999999999999</ele>
        <time>2018-09-16T07:00:17Z</time>
      </trkpt>
      <trkpt lat="49.742908040061593" lon="9.014449026435614">
        <ele>191.91999999999999</ele>
        <time>2018-09-16T07:00:18Z</time>
      </trkpt>
      <trkpt lat="49.742856994271278" lon="9.015092002227902">
        <ele>191.91999999999999</ele>
        <time>2018-09-16T07:00:23Z</time>
      </trkpt>
      <trkpt lat="49.742908040061593" lon="9.015833968296647">
        <ele>190.96000000000001</ele>
        <time>2018-09-16T07:00:28Z</time>
      </trkpt>
      <trkpt lat="49.742912985384464" lon="9.015975035727024">
        <ele>190.96000000000001</ele>
        <time>2018-09-16T07:00:29Z</time>
      </trkpt>
      <trkpt lat="49.742919020354748" lon="9.016105961054564">
        <ele>190.96000000000001</ele>
        <time>2018-09-16T07:00:30Z</time>
      </trkpt>
      <trkpt lat="49.742888007313013" lon="9.016248034313321">
        <ele>190.47999999999999</ele>
        <time>2018-09-16T07:00:31Z</time>
      </trkpt>
      <trkpt lat="49.74285900592804" lon="9.016378959640861">
        <ele>190.47999999999999</ele>
        <time>2018-09-16T07:00:32Z</time>
      </trkpt>
      <trkpt lat="49.742831010371447" lon="9.016509968787432">
        <ele>190.47999999999999</ele>
        <time>2018-09-16T07:00:33Z</time>
      </trkpt>
      <trkpt lat="49.742799997329712" lon="9.016639972105622">
        <ele>190.47999999999999</ele>
        <time>2018-09-16T07:00:34Z</time>
      </trkpt>
      <trkpt lat="49.742763033136725" lon="9.016770981252194">
        <ele>190.47999999999999</ele>
        <time>2018-09-16T07:00:35Z</time>
      </trkpt>
      <trkpt lat="49.742721961811185" lon="9.016919005662203">
        <ele>190</ele>
        <time>2018-09-16T07:00:36Z</time>
      </trkpt>
      <trkpt lat="49.742679968476295" lon="9.017069963738322">
        <ele>190</ele>
        <time>2018-09-16T07:00:37Z</time>
      </trkpt>
      <trkpt lat="49.742639986798167" lon="9.017568016424775">
        <ele>190.47999999999999</ele>
        <time>2018-09-16T07:00:40Z</time>
      </trkpt>
      <trkpt lat="49.742549965158105" lon="9.019531980156899">
        <ele>193.84</ele>
        <time>2018-09-16T07:00:49Z</time>
      </trkpt>
      <trkpt lat="49.742189040407538" lon="9.02153299190104">
        <ele>198.65000000000001</ele>
        <time>2018-09-16T07:00:56Z</time>
      </trkpt>
      <trkpt lat="49.741987958550453" lon="9.022358022630215">
        <ele>201.05000000000001</ele>
        <time>2018-09-16T07:00:59Z</time>
      </trkpt>
      <trkpt lat="49.741933979094028" lon="9.022638984024525">
        <ele>202.00999999999999</ele>
        <time>2018-09-16T07:01:00Z</time>
      </trkpt>
      <trkpt lat="49.741703979671001" lon="9.025263022631407">
        <ele>205.38</ele>
        <time>2018-09-16T07:01:09Z</time>
      </trkpt>
      <trkpt lat="49.741630973294377" lon="9.026899002492428">
        <ele>204.90000000000001</ele>
        <time>2018-09-16T07:01:17Z</time>
      </trkpt>
      <trkpt lat="49.741671960800886" lon="9.02711701579392">
        <ele>204.90000000000001</ele>
        <time>2018-09-16T07:01:18Z</time>
      </trkpt>
      <trkpt lat="49.741712026298046" lon="9.027324970811606">
        <ele>204.90000000000001</ele>
        <time>2018-09-16T07:01:19Z</time>
      </trkpt>
      <trkpt lat="49.741753013804555" lon="9.027541978284717">
        <ele>205.38</ele>
        <time>2018-09-16T07:01:20Z</time>
      </trkpt>
      <trkpt lat="49.74178402684629" lon="9.027773989364505">
        <ele>205.86000000000001</ele>
        <time>2018-09-16T07:01:21Z</time>
      </trkpt>
      <trkpt lat="49.741792995482683" lon="9.028017986565828">
        <ele>206.34</ele>
        <time>2018-09-16T07:01:22Z</time>
      </trkpt>
      <trkpt lat="49.741801964119077" lon="9.028253015130758">
        <ele>206.81999999999999</ele>
        <time>2018-09-16T07:01:23Z</time>
      </trkpt>
      <trkpt lat="49.741810010746121" lon="9.028481002897024">
        <ele>207.78</ele>
        <time>2018-09-16T07:01:24Z</time>
      </trkpt>
      <trkpt lat="49.741800958290696" lon="9.029122972860932">
        <ele>210.19</ele>
        <time>2018-09-16T07:01:27Z</time>
      </trkpt>
      <trkpt lat="49.741781009361148" lon="9.029323970898986">
        <ele>211.15000000000001</ele>
        <time>2018-09-16T07:01:28Z</time>
      </trkpt>
      <trkpt lat="49.741727029904723" lon="9.029534021392465">
        <ele>212.11000000000001</ele>
        <time>2018-09-16T07:01:29Z</time>
      </trkpt>
      <trkpt lat="49.741622004657984" lon="9.029934005811811">
        <ele>214.50999999999999</ele>
        <time>2018-09-16T07:01:31Z</time>
      </trkpt>
      <trkpt lat="49.741068966686726" lon="9.03165296651423">
        <ele>218.36000000000001</ele>
        <time>2018-09-16T07:01:40Z</time>
      </trkpt>
      <trkpt lat="49.740863023325801" lon="9.03225302696228">
        <ele>219.31999999999999</ele>
        <time>2018-09-16T07:01:43Z</time>
      </trkpt>
      <trkpt lat="49.740794040262699" lon="9.032477997243404">
        <ele>219.31999999999999</ele>
        <time>2018-09-16T07:01:44Z</time>
      </trkpt>
      <trkpt lat="49.740724973380566" lon="9.032716965302825">
        <ele>219.80000000000001</ele>
        <time>2018-09-16T07:01:45Z</time>
      </trkpt>
      <trkpt lat="49.740353990346193" lon="9.034408014267683">
        <ele>222.19999999999999</ele>
        <time>2018-09-16T07:01:51Z</time>
      </trkpt>
      <trkpt lat="49.740330018103123" lon="9.034690987318754">
        <ele>222.19999999999999</ele>
        <time>2018-09-16T07:01:52Z</time>
      </trkpt>
      <trkpt lat="49.740334041416645" lon="9.034964991733432">
        <ele>222.68000000000001</ele>
        <time>2018-09-16T07:01:53Z</time>
      </trkpt>
      <trkpt lat="49.740310991182923" lon="9.035913990810514">
        <ele>224.12</ele>
        <time>2018-09-16T07:01:57Z</time>
      </trkpt>
      <trkpt lat="49.740290036424994" lon="9.036096967756748">
        <ele>224.12</ele>
        <time>2018-09-16T07:01:58Z</time>
      </trkpt>
      <trkpt lat="49.74025902338326" lon="9.036259995773435">
        <ele>224.61000000000001</ele>
        <time>2018-09-16T07:01:59Z</time>
      </trkpt>
      <trkpt lat="49.740193979814649" lon="9.03648697771132">
        <ele>224.61000000000001</ele>
        <time>2018-09-16T07:02:01Z</time>
      </trkpt>
      <trkpt lat="49.740175036713481" lon="9.036556966602802">
        <ele>225.09</ele>
        <time>2018-09-16T07:02:02Z</time>
      </trkpt>
      <trkpt lat="49.74015399813652" lon="9.036657968536019">
        <ele>225.09</ele>
        <time>2018-09-16T07:02:03Z</time>
      </trkpt>
      <trkpt lat="49.740166990086436" lon="9.036713037639856">
        <ele>225.09</ele>
        <time>2018-09-16T07:02:04Z</time>
      </trkpt>
      <trkpt lat="49.740177970379591" lon="9.036760982125998">
        <ele>225.09</ele>
        <time>2018-09-16T07:02:05Z</time>
      </trkpt>
      <trkpt lat="49.740120973438025" lon="9.036699961870909">
        <ele>225.09</ele>
        <time>2018-09-16T07:02:06Z</time>
      </trkpt>
      <trkpt lat="49.740199008956552" lon="9.03685100376606">
        <ele>224.61000000000001</ele>
        <time>2018-09-16T07:02:07Z</time>
      </trkpt>
      <trkpt lat="49.740208983421326" lon="9.036892997100949">
        <ele>224.61000000000001</ele>
        <time>2018-09-16T07:02:08Z</time>
      </trkpt>
      <trkpt lat="49.740215018391609" lon="9.036919986829162">
        <ele>224.61000000000001</ele>
        <time>2018-09-16T07:02:09Z</time>
      </trkpt>
      <trkpt lat="49.740215018391609" lon="9.036919986829162">
        <ele>224.61000000000001</ele>
        <time>2018-09-16T07:02:10Z</time>
      </trkpt>
      <trkpt lat="49.740215018391609" lon="9.036919986829162">
        <ele>224.61000000000001</ele>
        <time>2018-09-16T07:02:11Z</time>
      </trkpt>
      <trkpt lat="49.740215018391609" lon="9.036919986829162">
        <ele>224.12</ele>
        <time>2018-09-16T07:02:24Z</time>
      </trkpt>
      <trkpt lat="49.740215018391609" lon="9.036919986829162">
        <ele>224.61000000000001</ele>
        <time>2018-09-16T07:02:57Z</time>
      </trkpt>
      <trkpt lat="49.740207977592945" lon="9.037036998197436">
        <ele>223.16</ele>
        <time>2018-09-16T07:10:13Z</time>
      </trkpt>
      <trkpt lat="49.740124996751547" lon="9.036925015971065">
        <ele>224.61000000000001</ele>
        <time>2018-09-16T07:10:55Z</time>
      </trkpt>
      <trkpt lat="49.740156009793282" lon="9.036963991820812">
        <ele>227.97</ele>
        <time>2018-09-16T07:11:36Z</time>
      </trkpt>
      <trkpt lat="49.740171013399959" lon="9.03695804066956">
        <ele>227.97</ele>
        <time>2018-09-16T07:11:56Z</time>
      </trkpt>
      <trkpt lat="49.740171013399959" lon="9.03700296767056">
        <ele>227.49000000000001</ele>
        <time>2018-09-16T07:11:58Z</time>
      </trkpt>
      <trkpt lat="49.740146035328507" lon="9.037048984318972">
        <ele>227.49000000000001</ele>
        <time>2018-09-16T07:11:59Z</time>
      </trkpt>
      <trkpt lat="49.739991975948215" lon="9.03695703484118">
        <ele>227.49000000000001</ele>
        <time>2018-09-16T07:12:00Z</time>
      </trkpt>
      <trkpt lat="49.739978983998299" lon="9.036985030397773">
        <ele>227.49000000000001</ele>
        <time>2018-09-16T07:12:01Z</time>
      </trkpt>
      <trkpt lat="49.739728029817343" lon="9.037249982357025">
        <ele>226.53</ele>
        <time>2018-09-16T07:12:09Z</time>
      </trkpt>
      <trkpt lat="49.73968100734055" lon="9.037299016490579">
        <ele>226.53</ele>
        <time>2018-09-16T07:12:11Z</time>
      </trkpt>
      <trkpt lat="49.739592997357249" lon="9.037391971796751">
        <ele>226.53</ele>
        <time>2018-09-16T07:12:12Z</time>
      </trkpt>
      <trkpt lat="49.739546980708838" lon="9.037418039515615">
        <ele>226.53</ele>
        <time>2018-09-16T07:12:13Z</time>
      </trkpt>
      <trkpt lat="49.739453019574285" lon="9.037472018972039">
        <ele>226.05000000000001</ele>
        <time>2018-09-16T07:12:14Z</time>
      </trkpt>
      <trkpt lat="49.739342965185642" lon="9.037534967064858">
        <ele>226.05000000000001</ele>
        <time>2018-09-16T07:12:15Z</time>
      </trkpt>
      <trkpt lat="49.739224025979638" lon="9.03760302811861">
        <ele>226.05000000000001</ele>
        <time>2018-09-16T07:12:16Z</time>
      </trkpt>
      <trkpt lat="49.738285001367331" lon="9.038540963083506">
        <ele>225.56999999999999</ele>
        <time>2018-09-16T07:12:23Z</time>
      </trkpt>
      <trkpt lat="49.737441027536988" lon="9.039594987407327">
        <ele>226.53</ele>
        <time>2018-09-16T07:12:29Z</time>
      </trkpt>
      <trkpt lat="49.737358968704939" lon="9.039776036515832">
        <ele>226.53</ele>
        <time>2018-09-16T07:12:30Z</time>
      </trkpt>
      <trkpt lat="49.737290991470218" lon="9.039969993755221">
        <ele>227.00999999999999</ele>
        <time>2018-09-16T07:12:31Z</time>
      </trkpt>
      <trkpt lat="49.737229971215129" lon="9.040162023156881">
        <ele>227.49000000000001</ele>
        <time>2018-09-16T07:12:32Z</time>
      </trkpt>
      <trkpt lat="49.7372090164572" lon="9.040380036458373">
        <ele>227.49000000000001</ele>
        <time>2018-09-16T07:12:33Z</time>
      </trkpt>
      <trkpt lat="49.737186972051859" lon="9.040601989254355">
        <ele>227.97</ele>
        <time>2018-09-16T07:12:34Z</time>
      </trkpt>
      <trkpt lat="49.73716601729393" lon="9.040818996727467">
        <ele>227.97</ele>
        <time>2018-09-16T07:12:35Z</time>
      </trkpt>
      <trkpt lat="49.73714598454535" lon="9.04101898893714">
        <ele>228.44999999999999</ele>
        <time>2018-09-16T07:12:36Z</time>
      </trkpt>
      <trkpt lat="49.737098040059209" lon="9.041204983368516">
        <ele>228.93000000000001</ele>
        <time>2018-09-16T07:12:37Z</time>
      </trkpt>
      <trkpt lat="49.737050011754036" lon="9.041388966143131">
        <ele>229.41</ele>
        <time>2018-09-16T07:12:38Z</time>
      </trkpt>
      <trkpt lat="49.736984968185425" lon="9.041575966402888">
        <ele>229.41</ele>
        <time>2018-09-16T07:12:39Z</time>
      </trkpt>
      <trkpt lat="49.736384991556406" lon="9.042701991274953">
        <ele>232.78</ele>
        <time>2018-09-16T07:12:45Z</time>
      </trkpt>
      <trkpt lat="49.736094977706671" lon="9.043271038681269">
        <ele>234.22</ele>
        <time>2018-09-16T07:12:48Z</time>
      </trkpt>
      <trkpt lat="49.736038986593485" lon="9.043481005355716">
        <ele>234.69999999999999</ele>
        <time>2018-09-16T07:12:49Z</time>
      </trkpt>
      <trkpt lat="49.735959023237228" lon="9.043958019465208">
        <ele>235.66</ele>
        <time>2018-09-16T07:12:51Z</time>
      </trkpt>
      <trkpt lat="49.735922981053591" lon="9.0441760327667">
        <ele>236.13999999999999</ele>
        <time>2018-09-16T07:12:52Z</time>
      </trkpt>
      <trkpt lat="49.735874030739069" lon="9.04437099583447">
        <ele>237.09999999999999</ele>
        <time>2018-09-16T07:12:53Z</time>
      </trkpt>
      <trkpt lat="49.735810998827219" lon="9.044527988880873">
        <ele>237.58000000000001</ele>
        <time>2018-09-16T07:12:54Z</time>
      </trkpt>
      <trkpt lat="49.73572701215744" lon="9.044666960835457">
        <ele>238.53999999999999</ele>
        <time>2018-09-16T07:12:55Z</time>
      </trkpt>
      <trkpt lat="49.73561704158783" lon="9.044767962768674">
        <ele>239.50999999999999</ele>
        <time>2018-09-16T07:12:56Z</time>
      </trkpt>
      <trkpt lat="49.735499024391174" lon="9.044878017157316">
        <ele>240.47</ele>
        <time>2018-09-16T07:12:57Z</time>
      </trkpt>
      <trkpt lat="49.734451035037637" lon="9.045846965163946">
        <ele>248.63999999999999</ele>
        <time>2018-09-16T07:13:04Z</time>
      </trkpt>
      <trkpt lat="49.733652994036674" lon="9.04652195982635">
        <ele>255.37</ele>
        <time>2018-09-16T07:13:09Z</time>
      </trkpt>
      <trkpt lat="49.733511004596949" lon="9.046717006713152">
        <ele>256.81</ele>
        <time>2018-09-16T07:13:10Z</time>
      </trkpt>
      <trkpt lat="49.732387997210026" lon="9.04810999520123">
        <ele>265.45999999999998</ele>
        <time>2018-09-16T07:13:17Z</time>
      </trkpt>
      <trkpt lat="49.731233976781368" lon="9.049650002270937">
        <ele>274.58999999999997</ele>
        <time>2018-09-16T07:13:24Z</time>
      </trkpt>
      <trkpt lat="49.730276009067893" lon="9.050868982449174">
        <ele>281.80000000000001</ele>
        <time>2018-09-16T07:13:30Z</time>
      </trkpt>
      <trkpt lat="49.73016201518476" lon="9.051068974658847">
        <ele>282.76999999999998</ele>
        <time>2018-09-16T07:13:31Z</time>
      </trkpt>
      <trkpt lat="49.730045003816485" lon="9.051273996010423">
        <ele>283.25</ele>
        <time>2018-09-16T07:13:32Z</time>
      </trkpt>
      <trkpt lat="49.72994601354003" lon="9.051479017361999">
        <ele>283.73000000000002</ele>
        <time>2018-09-16T07:13:33Z</time>
      </trkpt>
      <trkpt lat="49.729889016598463" lon="9.051737012341619">
        <ele>284.20999999999998</ele>
        <time>2018-09-16T07:13:34Z</time>
      </trkpt>
      <trkpt lat="49.729827996343374" lon="9.052013028413057">
        <ele>283.73000000000002</ele>
        <time>2018-09-16T07:13:35Z</time>
      </trkpt>
      <trkpt lat="49.72945298999548" lon="9.05446800403297">
        <ele>287.08999999999997</ele>
        <time>2018-09-16T07:13:43Z</time>
      </trkpt>
      <trkpt lat="49.729060968384147" lon="9.056762969121337">
        <ele>291.89999999999998</ele>
        <time>2018-09-16T07:13:51Z</time>
      </trkpt>
      <trkpt lat="49.728619996458292" lon="9.059502007439733">
        <ele>302.94999999999999</ele>
        <time>2018-09-16T07:14:01Z</time>
      </trkpt>
      <trkpt lat="49.727966962382197" lon="9.061526991426945">
        <ele>309.19999999999999</ele>
        <time>2018-09-16T07:14:09Z</time>
      </trkpt>
      <trkpt lat="49.727449966594577" lon="9.062543967738748">
        <ele>311.60000000000002</ele>
        <time>2018-09-16T07:14:16Z</time>
      </trkpt>
      <trkpt lat="49.726652009412646" lon="9.063865961506963">
        <ele>312.08999999999997</ele>
        <time>2018-09-16T07:14:27Z</time>
      </trkpt>
      <trkpt lat="49.726568022742867" lon="9.063999988138676">
        <ele>312.56999999999999</ele>
        <time>2018-09-16T07:14:28Z</time>
      </trkpt>
      <trkpt lat="49.725523972883821" lon="9.064826024696231">
        <ele>316.88999999999999</ele>
        <time>2018-09-16T07:14:39Z</time>
      </trkpt>
      <trkpt lat="49.725127005949616" lon="9.065139004960656">
        <ele>319.77999999999997</ele>
        <time>2018-09-16T07:14:43Z</time>
      </trkpt>
      <trkpt lat="49.724551001563668" lon="9.06553303822875">
        <ele>324.10000000000002</ele>
        <time>2018-09-16T07:14:48Z</time>
      </trkpt>
      <trkpt lat="49.723810963332653" lon="9.066038969904184">
        <ele>326.5</ele>
        <time>2018-09-16T07:14:54Z</time>
      </trkpt>
      <trkpt lat="49.723065979778767" lon="9.066585972905159">
        <ele>329.87</ele>
        <time>2018-09-16T07:15:00Z</time>
      </trkpt>
      <trkpt lat="49.722955003380775" lon="9.066710025072098">
        <ele>330.35000000000002</ele>
        <time>2018-09-16T07:15:01Z</time>
      </trkpt>
      <trkpt lat="49.722851989790797" lon="9.066825024783611">
        <ele>331.31</ele>
        <time>2018-09-16T07:15:02Z</time>
      </trkpt>
      <trkpt lat="49.722747970372438" lon="9.066939018666744">
        <ele>331.79000000000002</ele>
        <time>2018-09-16T07:15:03Z</time>
      </trkpt>
      <trkpt lat="49.722691979259253" lon="9.067062987014651">
        <ele>332.26999999999998</ele>
        <time>2018-09-16T07:15:04Z</time>
      </trkpt>
      <trkpt lat="49.722630036994815" lon="9.067201958969235">
        <ele>332.26999999999998</ele>
        <time>2018-09-16T07:15:05Z</time>
      </trkpt>
      <trkpt lat="49.722570022568107" lon="9.067333973944187">
        <ele>332.75</ele>
        <time>2018-09-16T07:15:06Z</time>
      </trkpt>
      <trkpt lat="49.722141958773136" lon="9.068267969414592">
        <ele>335.63999999999999</ele>
        <time>2018-09-16T07:15:13Z</time>
      </trkpt>
      <trkpt lat="49.722073981538415" lon="9.06841398216784">
        <ele>336.60000000000002</ele>
        <time>2018-09-16T07:15:14Z</time>
      </trkpt>
      <trkpt lat="49.721993012353778" lon="9.068528981879354">
        <ele>337.56</ele>
        <time>2018-09-16T07:15:15Z</time>
      </trkpt>
      <trkpt lat="49.721899973228574" lon="9.06864901073277">
        <ele>338.51999999999998</ele>
        <time>2018-09-16T07:15:16Z</time>
      </trkpt>
      <trkpt lat="49.72180400043726" lon="9.068770967423916">
        <ele>339.48000000000002</ele>
        <time>2018-09-16T07:15:17Z</time>
      </trkpt>
      <trkpt lat="49.720896994695067" lon="9.069946026429534">
        <ele>345.73000000000002</ele>
        <time>2018-09-16T07:15:26Z</time>
      </trkpt>
      <trkpt lat="49.720329958945513" lon="9.070758987218142">
        <ele>349.57999999999998</ele>
        <time>2018-09-16T07:15:33Z</time>
      </trkpt>
      <trkpt lat="49.720175983384252" lon="9.070980018004775">
        <ele>351.01999999999998</ele>
        <time>2018-09-16T07:15:35Z</time>
      </trkpt>
      <trkpt lat="49.719852022826672" lon="9.071445968002081">
        <ele>355.33999999999997</ele>
        <time>2018-09-16T07:15:39Z</time>
      </trkpt>
      <trkpt lat="49.719766024500132" lon="9.071596004068852">
        <ele>356.31</ele>
        <time>2018-09-16T07:15:40Z</time>
      </trkpt>
      <trkpt lat="49.718899000436068" lon="9.072809033095837">
        <ele>362.55000000000001</ele>
        <time>2018-09-16T07:15:49Z</time>
      </trkpt>
      <trkpt lat="49.718307992443442" lon="9.073639009147883">
        <ele>366.88</ele>
        <time>2018-09-16T07:15:54Z</time>
      </trkpt>
      <trkpt lat="49.718009009957314" lon="9.073917036876082">
        <ele>367.83999999999997</ele>
        <time>2018-09-16T07:15:56Z</time>
      </trkpt>
      <trkpt lat="49.717840030789375" lon="9.074023989960551">
        <ele>368.80000000000001</ele>
        <time>2018-09-16T07:15:57Z</time>
      </trkpt>
      <trkpt lat="49.717491008341312" lon="9.074245020747185">
        <ele>370.24000000000001</ele>
        <time>2018-09-16T07:15:59Z</time>
      </trkpt>
      <trkpt lat="49.717312976717949" lon="9.074380975216627">
        <ele>371.20999999999998</ele>
        <time>2018-09-16T07:16:00Z</time>
      </trkpt>
      <trkpt lat="49.716136995702982" lon="9.075748985633254">
        <ele>378.42000000000002</ele>
        <time>2018-09-16T07:16:07Z</time>
      </trkpt>
      <trkpt lat="49.715834995731711" lon="9.076230023056269">
        <ele>381.30000000000001</ele>
        <time>2018-09-16T07:16:09Z</time>
      </trkpt>
      <trkpt lat="49.714741995558143" lon="9.078303035348654">
        <ele>393.80000000000001</ele>
        <time>2018-09-16T07:16:17Z</time>
      </trkpt>
      <trkpt lat="49.714495986700058" lon="9.079014994204044">
        <ele>399.56999999999999</ele>
        <time>2018-09-16T07:16:21Z</time>
      </trkpt>
      <trkpt lat="49.714465979486704" lon="9.079125970602036">
        <ele>401.00999999999999</ele>
        <time>2018-09-16T07:16:22Z</time>
      </trkpt>
      <trkpt lat="49.714503027498722" lon="9.079210963100195">
        <ele>401.97000000000003</ele>
        <time>2018-09-16T07:16:23Z</time>
      </trkpt>
      <trkpt lat="49.714540997520089" lon="9.079296039417386">
        <ele>402.93000000000001</ele>
        <time>2018-09-16T07:16:24Z</time>
      </trkpt>
      <trkpt lat="49.71460796892643" lon="9.079307019710541">
        <ele>403.88999999999999</ele>
        <time>2018-09-16T07:16:25Z</time>
      </trkpt>
      <trkpt lat="49.714678963646293" lon="9.079243987798691">
        <ele>404.85000000000002</ele>
        <time>2018-09-16T07:16:26Z</time>
      </trkpt>
      <trkpt lat="49.714764961972833" lon="9.0791330114007">
        <ele>405.81</ele>
        <time>2018-09-16T07:16:27Z</time>
      </trkpt>
      <trkpt lat="49.714865041896701" lon="9.079003008082509">
        <ele>406.76999999999998</ele>
        <time>2018-09-16T07:16:28Z</time>
      </trkpt>
      <trkpt lat="49.714978029951453" lon="9.07885598950088">
        <ele>407.74000000000001</ele>
        <time>2018-09-16T07:16:29Z</time>
      </trkpt>
      <trkpt lat="49.71510199829936" lon="9.078709976747632">
        <ele>408.69999999999999</ele>
        <time>2018-09-16T07:16:30Z</time>
      </trkpt>
      <trkpt lat="49.715245999395847" lon="9.078581985086203">
        <ele>409.18000000000001</ele>
        <time>2018-09-16T07:16:31Z</time>
      </trkpt>
      <trkpt lat="49.71540299244225" lon="9.078443013131619">
        <ele>410.13999999999999</ele>
        <time>2018-09-16T07:16:32Z</time>
      </trkpt>
      <trkpt lat="49.715569959953427" lon="9.078294988721609">
        <ele>410.62</ele>
        <time>2018-09-16T07:16:33Z</time>
      </trkpt>
      <trkpt lat="49.715751009061933" lon="9.078170014545322">
        <ele>411.57999999999998</ele>
        <time>2018-09-16T07:16:34Z</time>
      </trkpt>
      <trkpt lat="49.715935997664928" lon="9.078057026490569">
        <ele>412.06</ele>
        <time>2018-09-16T07:16:35Z</time>
      </trkpt>
      <trkpt lat="49.716607974842191" lon="9.077644972130656">
        <ele>415.43000000000001</ele>
        <time>2018-09-16T07:16:40Z</time>
      </trkpt>
      <trkpt lat="49.716676035895944" lon="9.077603984624147">
        <ele>415.91000000000003</ele>
        <time>2018-09-16T07:16:41Z</time>
      </trkpt>
      <trkpt lat="49.71673496067524" lon="9.077615970745683">
        <ele>416.38999999999999</ele>
        <time>2018-09-16T07:16:42Z</time>
      </trkpt>
      <trkpt lat="49.716789023950696" lon="9.077642038464546">
        <ele>416.87</ele>
        <time>2018-09-16T07:16:43Z</time>
      </trkpt>
      <trkpt lat="49.716823976486921" lon="9.077762989327312">
        <ele>417.35000000000002</ele>
        <time>2018-09-16T07:16:44Z</time>
      </trkpt>
      <trkpt lat="49.716805033385754" lon="9.077840019017458">
        <ele>417.82999999999998</ele>
        <time>2018-09-16T07:16:45Z</time>
      </trkpt>
      <trkpt lat="49.716708976775408" lon="9.0779759734869">
        <ele>418.31</ele>
        <time>2018-09-16T07:16:46Z</time>
      </trkpt>
      <trkpt lat="49.716613003984094" lon="9.078112011775374">
        <ele>418.79000000000002</ele>
        <time>2018-09-16T07:16:47Z</time>
      </trkpt>
      <trkpt lat="49.716384010389447" lon="9.078449970111251">
        <ele>419.26999999999998</ele>
        <time>2018-09-16T07:16:49Z</time>
      </trkpt>
      <trkpt lat="49.716290971264243" lon="9.078678041696549">
        <ele>419.26999999999998</ele>
        <time>2018-09-16T07:16:50Z</time>
      </trkpt>
      <trkpt lat="49.715690994635224" lon="9.080642005428672">
        <ele>427.44</ele>
        <time>2018-09-16T07:16:57Z</time>
      </trkpt>
      <trkpt lat="49.715307019650936" lon="9.082979969680309">
        <ele>440.42000000000002</ele>
        <time>2018-09-16T07:17:05Z</time>
      </trkpt>
      <trkpt lat="49.71512203104794" lon="9.085241993889213">
        <ele>452.44</ele>
        <time>2018-09-16T07:17:13Z</time>
      </trkpt>
      <trkpt lat="49.715077020227909" lon="9.085481967777014">
        <ele>453.88</ele>
        <time>2018-09-16T07:17:14Z</time>
      </trkpt>
      <trkpt lat="49.714609980583191" lon="9.087258009240031">
        <ele>460.13</ele>
        <time>2018-09-16T07:17:23Z</time>
      </trkpt>
      <trkpt lat="49.71407001838088" lon="9.089402016252279">
        <ele>462.05000000000001</ele>
        <time>2018-09-16T07:17:31Z</time>
      </trkpt>
      <trkpt lat="49.714012015610933" lon="9.089651964604855">
        <ele>461.56999999999999</ele>
        <time>2018-09-16T07:17:32Z</time>
      </trkpt>
      <trkpt lat="49.713986031711102" lon="9.089910965412855">
        <ele>461.08999999999997</ele>
        <time>2018-09-16T07:17:33Z</time>
      </trkpt>
      <trkpt lat="49.713974967598915" lon="9.090168038383126">
        <ele>460.61000000000001</ele>
        <time>2018-09-16T07:17:34Z</time>
      </trkpt>
      <trkpt lat="49.714010003954172" lon="9.091627998277545">
        <ele>457.24000000000001</ele>
        <time>2018-09-16T07:17:41Z</time>
      </trkpt>
      <trkpt lat="49.71402601338923" lon="9.092362001538277">
        <ele>454.36000000000001</ele>
        <time>2018-09-16T07:17:46Z</time>
      </trkpt>
      <trkpt lat="49.714029030874372" lon="9.09249996766448">
        <ele>453.88</ele>
        <time>2018-09-16T07:17:47Z</time>
      </trkpt>
      <trkpt lat="49.714068006724119" lon="9.093405967578292">
        <ele>450.02999999999997</ele>
        <time>2018-09-16T07:17:54Z</time>
      </trkpt>
      <trkpt lat="49.714074963703752" lon="9.093538988381624">
        <ele>449.55000000000001</ele>
        <time>2018-09-16T07:17:55Z</time>
      </trkpt>
      <trkpt lat="49.714078987017274" lon="9.093676032498479">
        <ele>449.06999999999999</ele>
        <time>2018-09-16T07:17:56Z</time>
      </trkpt>
      <trkpt lat="49.714130032807589" lon="9.095351994037628">
        <ele>442.81999999999999</ele>
        <time>2018-09-16T07:18:08Z</time>
      </trkpt>
      <trkpt lat="49.714235980063677" lon="9.0960200317204">
        <ele>438.98000000000002</ele>
        <time>2018-09-16T07:18:13Z</time>
      </trkpt>
      <trkpt lat="49.71426498144865" lon="9.096112987026572">
        <ele>438.01999999999998</ele>
        <time>2018-09-16T07:18:14Z</time>
      </trkpt>
      <trkpt lat="49.714305968955159" lon="9.096207031980157">
        <ele>437.54000000000002</ele>
        <time>2018-09-16T07:18:15Z</time>
      </trkpt>
      <trkpt lat="49.714346034452319" lon="9.09630099311471">
        <ele>437.06</ele>
        <time>2018-09-16T07:18:16Z</time>
      </trkpt>
      <trkpt lat="49.714386016130447" lon="9.096393026411533">
        <ele>436.10000000000002</ele>
        <time>2018-09-16T07:18:17Z</time>
      </trkpt>
      <trkpt lat="49.714425997808576" lon="9.096486987546086">
        <ele>435.61000000000001</ele>
        <time>2018-09-16T07:18:18Z</time>
      </trkpt>
      <trkpt lat="49.714466985315084" lon="9.096582038328052">
        <ele>435.13</ele>
        <time>2018-09-16T07:18:19Z</time>
      </trkpt>
      <trkpt lat="49.7144990041852" lon="9.096720004454255">
        <ele>434.64999999999998</ele>
        <time>2018-09-16T07:18:20Z</time>
      </trkpt>
      <trkpt lat="49.714472014456987" lon="9.09683701582253">
        <ele>434.17000000000002</ele>
        <time>2018-09-16T07:18:21Z</time>
      </trkpt>
      <trkpt lat="49.714443013072014" lon="9.096957966685295">
        <ele>433.69</ele>
        <time>2018-09-16T07:18:22Z</time>
      </trkpt>
      <trkpt lat="49.714404037222266" lon="9.097082018852234">
        <ele>433.20999999999998</ele>
        <time>2018-09-16T07:18:23Z</time>
      </trkpt>
      <trkpt lat="49.71435097977519" lon="9.097187966108322">
        <ele>432.25</ele>
        <time>2018-09-16T07:18:24Z</time>
      </trkpt>
      <trkpt lat="49.714251989498734" lon="9.097387036308646">
        <ele>431.29000000000002</ele>
        <time>2018-09-16T07:18:26Z</time>
      </trkpt>
      <trkpt lat="49.714207984507084" lon="9.097474040463567">
        <ele>430.81</ele>
        <time>2018-09-16T07:18:27Z</time>
      </trkpt>
      <trkpt lat="49.714131960645318" lon="9.097533971071243">
        <ele>430.32999999999998</ele>
        <time>2018-09-16T07:18:28Z</time>
      </trkpt>
      <trkpt lat="49.714064989238977" lon="9.0975880343467">
        <ele>429.85000000000002</ele>
        <time>2018-09-16T07:18:29Z</time>
      </trkpt>
      <trkpt lat="49.713998017832637" lon="9.097642013803124">
        <ele>428.88999999999999</ele>
        <time>2018-09-16T07:18:30Z</time>
      </trkpt>
      <trkpt lat="49.713536007329822" lon="9.097992964088917">
        <ele>423.12</ele>
        <time>2018-09-16T07:18:37Z</time>
      </trkpt>
      <trkpt lat="49.713472975417972" lon="9.098035963252187">
        <ele>422.63999999999999</ele>
        <time>2018-09-16T07:18:38Z</time>
      </trkpt>
      <trkpt lat="49.713413966819644" lon="9.098075022920966">
        <ele>422.63999999999999</ele>
        <time>2018-09-16T07:18:39Z</time>
      </trkpt>
      <trkpt lat="49.713331991806626" lon="9.098101006820798">
        <ele>422.16000000000003</ele>
        <time>2018-09-16T07:18:40Z</time>
      </trkpt>
      <trkpt lat="49.713248005136847" lon="9.09812799654901">
        <ele>421.68000000000001</ele>
        <time>2018-09-16T07:18:41Z</time>
      </trkpt>
      <trkpt lat="49.713172987103462" lon="9.098151968792081">
        <ele>421.19</ele>
        <time>2018-09-16T07:18:42Z</time>
      </trkpt>
      <trkpt lat="49.713099980726838" lon="9.098175019025803">
        <ele>421.19</ele>
        <time>2018-09-16T07:18:43Z</time>
      </trkpt>
      <trkpt lat="49.713026974350214" lon="9.098197985440493">
        <ele>421.19</ele>
        <time>2018-09-16T07:18:44Z</time>
      </trkpt>
      <trkpt lat="49.71295396797359" lon="9.098222041502595">
        <ele>420.70999999999998</ele>
        <time>2018-09-16T07:18:45Z</time>
      </trkpt>
      <trkpt lat="49.712885990738869" lon="9.098244002088904">
        <ele>420.23000000000002</ele>
        <time>2018-09-16T07:18:46Z</time>
      </trkpt>
      <trkpt lat="49.712842991575599" lon="9.098311979323626">
        <ele>419.75</ele>
        <time>2018-09-16T07:18:47Z</time>
      </trkpt>
      <trkpt lat="49.712798986583948" lon="9.098394038155675">
        <ele>419.26999999999998</ele>
        <time>2018-09-16T07:18:48Z</time>
      </trkpt>
      <trkpt lat="49.712753975763917" lon="9.098480036482215">
        <ele>418.79000000000002</ele>
        <time>2018-09-16T07:18:49Z</time>
      </trkpt>
      <trkpt lat="49.712708964943886" lon="9.098564023151994">
        <ele>418.79000000000002</ele>
        <time>2018-09-16T07:18:50Z</time>
      </trkpt>
      <trkpt lat="49.712684992700815" lon="9.098610961809754">
        <ele>418.31</ele>
        <time>2018-09-16T07:18:51Z</time>
      </trkpt>
      <trkpt lat="49.71258700825274" lon="9.098656978458166">
        <ele>417.82999999999998</ele>
        <time>2018-09-16T07:18:52Z</time>
      </trkpt>
      <trkpt lat="49.712537974119186" lon="9.09860098734498">
        <ele>417.35000000000002</ele>
        <time>2018-09-16T07:18:53Z</time>
      </trkpt>
      <trkpt lat="49.712482988834381" lon="9.098538039252162">
        <ele>416.38999999999999</ele>
        <time>2018-09-16T07:18:54Z</time>
      </trkpt>
      <trkpt lat="49.712422974407673" lon="9.098469978198409">
        <ele>415.91000000000003</ele>
        <time>2018-09-16T07:18:55Z</time>
      </trkpt>
      <trkpt lat="49.712361032143235" lon="9.098399989306927">
        <ele>414.94999999999999</ele>
        <time>2018-09-16T07:18:56Z</time>
      </trkpt>
      <trkpt lat="49.712319960817695" lon="9.098352966830134">
        <ele>413.98000000000002</ele>
        <time>2018-09-16T07:18:57Z</time>
      </trkpt>
      <trkpt lat="49.712230022996664" lon="9.098352966830134">
        <ele>413.01999999999998</ele>
        <time>2018-09-16T07:18:58Z</time>
      </trkpt>
      <trkpt lat="49.712163973599672" lon="9.098352966830134">
        <ele>412.06</ele>
        <time>2018-09-16T07:18:59Z</time>
      </trkpt>
      <trkpt lat="49.712102031335235" lon="9.098357995972037">
        <ele>411.10000000000002</ele>
        <time>2018-09-16T07:19:00Z</time>
      </trkpt>
      <trkpt lat="49.71205098554492" lon="9.098434019833803">
        <ele>410.13999999999999</ele>
        <time>2018-09-16T07:19:01Z</time>
      </trkpt>
      <trkpt lat="49.711651001125574" lon="9.099152013659477">
        <ele>405.81</ele>
        <time>2018-09-16T07:19:09Z</time>
      </trkpt>
      <trkpt lat="49.711624011397362" lon="9.099274976179004">
        <ele>405.32999999999998</ele>
        <time>2018-09-16T07:19:10Z</time>
      </trkpt>
      <trkpt lat="49.711596015840769" lon="9.099399028345943">
        <ele>404.85000000000002</ele>
        <time>2018-09-16T07:19:11Z</time>
      </trkpt>
      <trkpt lat="49.711592998355627" lon="9.099531965330243">
        <ele>404.37</ele>
        <time>2018-09-16T07:19:12Z</time>
      </trkpt>
      <trkpt lat="49.711596015840769" lon="9.099662974476814">
        <ele>404.37</ele>
        <time>2018-09-16T07:19:13Z</time>
      </trkpt>
      <trkpt lat="49.71159802749753" lon="9.099789038300514">
        <ele>404.37</ele>
        <time>2018-09-16T07:19:14Z</time>
      </trkpt>
      <trkpt lat="49.711610013619065" lon="9.100303016602993">
        <ele>402.93000000000001</ele>
        <time>2018-09-16T07:19:18Z</time>
      </trkpt>
      <trkpt lat="49.711605990305543" lon="9.100422961637378">
        <ele>402.93000000000001</ele>
        <time>2018-09-16T07:19:19Z</time>
      </trkpt>
      <trkpt lat="49.711584029719234" lon="9.100542990490794">
        <ele>402.93000000000001</ele>
        <time>2018-09-16T07:19:20Z</time>
      </trkpt>
      <trkpt lat="49.711551005020738" lon="9.10066201351583">
        <ele>402.44999999999999</ele>
        <time>2018-09-16T07:19:21Z</time>
      </trkpt>
      <trkpt lat="49.711499959230423" lon="9.100759997963905">
        <ele>402.44999999999999</ele>
        <time>2018-09-16T07:19:22Z</time>
      </trkpt>
      <trkpt lat="49.711444973945618" lon="9.100863011553884">
        <ele>402.93000000000001</ele>
        <time>2018-09-16T07:19:23Z</time>
      </trkpt>
      <trkpt lat="49.711388982832432" lon="9.100968958809972">
        <ele>402.93000000000001</ele>
        <time>2018-09-16T07:19:24Z</time>
      </trkpt>
      <trkpt lat="49.711082959547639" lon="9.101550998166204">
        <ele>401.49000000000001</ele>
        <time>2018-09-16T07:19:29Z</time>
      </trkpt>
      <trkpt lat="49.711015988141298" lon="9.101678989827633">
        <ele>401.00999999999999</ele>
        <time>2018-09-16T07:19:30Z</time>
      </trkpt>
      <trkpt lat="49.710588008165359" lon="9.102483987808228">
        <ele>396.68000000000001</ele>
        <time>2018-09-16T07:19:36Z</time>
      </trkpt>
      <trkpt lat="49.710518019273877" lon="9.102612985298038">
        <ele>395.72000000000003</ele>
        <time>2018-09-16T07:19:37Z</time>
      </trkpt>
      <trkpt lat="49.710449958220124" lon="9.102737959474325">
        <ele>394.75999999999999</ele>
        <time>2018-09-16T07:19:38Z</time>
      </trkpt>
      <trkpt lat="49.710384998470545" lon="9.102858994156122">
        <ele>393.80000000000001</ele>
        <time>2018-09-16T07:19:39Z</time>
      </trkpt>
      <trkpt lat="49.710319032892585" lon="9.102979023009539">
        <ele>393.31999999999999</ele>
        <time>2018-09-16T07:19:40Z</time>
      </trkpt>
      <trkpt lat="49.710186012089252" lon="9.103224026039243">
        <ele>389.94999999999999</ele>
        <time>2018-09-16T07:19:42Z</time>
      </trkpt>
      <trkpt lat="49.709827015176415" lon="9.103816961869597">
        <ele>382.25999999999999</ele>
        <time>2018-09-16T07:19:47Z</time>
      </trkpt>
      <trkpt lat="49.709673961624503" lon="9.104069005697966">
        <ele>379.38</ele>
        <time>2018-09-16T07:19:49Z</time>
      </trkpt>
      <trkpt lat="49.709591986611485" lon="9.104204038158059">
        <ele>377.94</ele>
        <time>2018-09-16T07:19:50Z</time>
      </trkpt>
      <trkpt lat="49.708902994170785" lon="9.105663998052478">
        <ele>368.80000000000001</ele>
        <time>2018-09-16T07:19:58Z</time>
      </trkpt>
      <trkpt lat="49.708432015031576" lon="9.10689102485776">
        <ele>361.58999999999997</ele>
        <time>2018-09-16T07:20:03Z</time>
      </trkpt>
      <trkpt lat="49.708331013098359" lon="9.107164023444057">
        <ele>360.14999999999998</ele>
        <time>2018-09-16T07:20:04Z</time>
      </trkpt>
      <trkpt lat="49.70792599953711" lon="9.108781982213259">
        <ele>350.06</ele>
        <time>2018-09-16T07:20:10Z</time>
      </trkpt>
      <trkpt lat="49.707847964018583" lon="9.110247977077961">
        <ele>340.44</ele>
        <time>2018-09-16T07:20:15Z</time>
      </trkpt>
      <trkpt lat="49.707876965403557" lon="9.110556012019515">
        <ele>338.51999999999998</ele>
        <time>2018-09-16T07:20:16Z</time>
      </trkpt>
      <trkpt lat="49.70790496096015" lon="9.110860023647547">
        <ele>336.60000000000002</ele>
        <time>2018-09-16T07:20:17Z</time>
      </trkpt>
      <trkpt lat="49.708374012261629" lon="9.112876961007714">
        <ele>320.74000000000001</ele>
        <time>2018-09-16T07:20:24Z</time>
      </trkpt>
      <trkpt lat="49.708611974492669" lon="9.113325979560614">
        <ele>316.41000000000003</ele>
        <time>2018-09-16T07:20:26Z</time>
      </trkpt>
      <trkpt lat="49.708865024149418" lon="9.113802993670106">
        <ele>309.68000000000001</ele>
        <time>2018-09-16T07:20:29Z</time>
      </trkpt>
      <trkpt lat="49.708898970857263" lon="9.113988988101482">
        <ele>307.27999999999997</ele>
        <time>2018-09-16T07:20:30Z</time>
      </trkpt>
      <trkpt lat="49.708902994170785" lon="9.114138018339872">
        <ele>305.83999999999997</ele>
        <time>2018-09-16T07:20:31Z</time>
      </trkpt>
      <trkpt lat="49.70886804163456" lon="9.114797003567219">
        <ele>300.06999999999999</ele>
        <time>2018-09-16T07:20:34Z</time>
      </trkpt>
      <trkpt lat="49.708854965865612" lon="9.115053992718458">
        <ele>298.14999999999998</ele>
        <time>2018-09-16T07:20:35Z</time>
      </trkpt>
      <trkpt lat="49.708925038576126" lon="9.117452977225184">
        <ele>286.13</ele>
        <time>2018-09-16T07:20:43Z</time>
      </trkpt>
      <trkpt lat="49.7089540399611" lon="9.117755983024836">
        <ele>284.69</ele>
        <time>2018-09-16T07:20:44Z</time>
      </trkpt>
      <trkpt lat="49.708983041346073" lon="9.118053959682584">
        <ele>282.76999999999998</ele>
        <time>2018-09-16T07:20:45Z</time>
      </trkpt>
      <trkpt lat="49.709011958912015" lon="9.118353025987744">
        <ele>281.31999999999999</ele>
        <time>2018-09-16T07:20:46Z</time>
      </trkpt>
      <trkpt lat="49.709038026630878" lon="9.118655025959015">
        <ele>279.39999999999998</ele>
        <time>2018-09-16T07:20:47Z</time>
      </trkpt>
      <trkpt lat="49.70904297195375" lon="9.118965994566679">
        <ele>277.95999999999998</ele>
        <time>2018-09-16T07:20:48Z</time>
      </trkpt>
      <trkpt lat="49.70902000553906" lon="9.120118003338575">
        <ele>271.23000000000002</ele>
        <time>2018-09-16T07:20:52Z</time>
      </trkpt>
      <trkpt lat="49.708973988890648" lon="9.120380021631718">
        <ele>269.31</ele>
        <time>2018-09-16T07:20:53Z</time>
      </trkpt>
      <trkpt lat="49.70889201387763" lon="9.120616978034377">
        <ele>267.38</ele>
        <time>2018-09-16T07:20:54Z</time>
      </trkpt>
      <trkpt lat="49.708163039758801" lon="9.122499972581863">
        <ele>255.37</ele>
        <time>2018-09-16T07:21:03Z</time>
      </trkpt>
      <trkpt lat="49.708065977320075" lon="9.122641962021589">
        <ele>253.44</ele>
        <time>2018-09-16T07:21:04Z</time>
      </trkpt>
      <trkpt lat="49.707938991487026" lon="9.122716980054975">
        <ele>252</ele>
        <time>2018-09-16T07:21:05Z</time>
      </trkpt>
      <trkpt lat="49.707794990390539" lon="9.122783029451966">
        <ele>251.03999999999999</ele>
        <time>2018-09-16T07:21:06Z</time>
      </trkpt>
      <trkpt lat="49.70764797180891" lon="9.122851006686688">
        <ele>249.59999999999999</ele>
        <time>2018-09-16T07:21:07Z</time>
      </trkpt>
      <trkpt lat="49.707497013732791" lon="9.12292200140655">
        <ele>249.12</ele>
        <time>2018-09-16T07:21:08Z</time>
      </trkpt>
      <trkpt lat="49.707352006807923" lon="9.123061979189515">
        <ele>248.63999999999999</ele>
        <time>2018-09-16T07:21:09Z</time>
      </trkpt>
      <trkpt lat="49.70708797685802" lon="9.123380994424224">
        <ele>248.63999999999999</ele>
        <time>2018-09-16T07:21:11Z</time>
      </trkpt>
      <trkpt lat="49.706955039873719" lon="9.123503034934402">
        <ele>249.12</ele>
        <time>2018-09-16T07:21:12Z</time>
      </trkpt>
      <trkpt lat="49.706811960786581" lon="9.123576963320375">
        <ele>249.59999999999999</ele>
        <time>2018-09-16T07:21:13Z</time>
      </trkpt>
      <trkpt lat="49.706652034074068" lon="9.123605964705348">
        <ele>250.56</ele>
        <time>2018-09-16T07:21:14Z</time>
      </trkpt>
      <trkpt lat="49.70648598857224" lon="9.123617028817534">
        <ele>251.03999999999999</ele>
        <time>2018-09-16T07:21:15Z</time>
      </trkpt>
      <trkpt lat="49.706320026889443" lon="9.123624991625547">
        <ele>252</ele>
        <time>2018-09-16T07:21:16Z</time>
      </trkpt>
      <trkpt lat="49.705796996131539" lon="9.12365198135376">
        <ele>254.41</ele>
        <time>2018-09-16T07:21:19Z</time>
      </trkpt>
      <trkpt lat="49.705334985628724" lon="9.1238450165838">
        <ele>255.84999999999999</ele>
        <time>2018-09-16T07:21:22Z</time>
      </trkpt>
      <trkpt lat="49.704070994630456" lon="9.124442981556058">
        <ele>253.93000000000001</ele>
        <time>2018-09-16T07:21:29Z</time>
      </trkpt>
      <trkpt lat="49.702821001410484" lon="9.125330038368702">
        <ele>244.78999999999999</ele>
        <time>2018-09-16T07:21:37Z</time>
      </trkpt>
      <trkpt lat="49.702430991455913" lon="9.125772016122937">
        <ele>242.87</ele>
        <time>2018-09-16T07:21:40Z</time>
      </trkpt>
      <trkpt lat="49.70234096981585" lon="9.125945018604398">
        <ele>241.91</ele>
        <time>2018-09-16T07:21:41Z</time>
      </trkpt>
      <trkpt lat="49.702246002852917" lon="9.126127995550633">
        <ele>241.43000000000001</ele>
        <time>2018-09-16T07:21:42Z</time>
      </trkpt>
      <trkpt lat="49.701755996793509" lon="9.127429034560919">
        <ele>239.99000000000001</ele>
        <time>2018-09-16T07:21:49Z</time>
      </trkpt>
      <trkpt lat="49.701690031215549" lon="9.127596002072096">
        <ele>239.99000000000001</ele>
        <time>2018-09-16T07:21:50Z</time>
      </trkpt>
      <trkpt lat="49.70160998404026" lon="9.127756012603641">
        <ele>239.99000000000001</ele>
        <time>2018-09-16T07:21:51Z</time>
      </trkpt>
      <trkpt lat="49.701504958793521" lon="9.127908982336521">
        <ele>239.99000000000001</ele>
        <time>2018-09-16T07:21:52Z</time>
      </trkpt>
      <trkpt lat="49.700680011883378" lon="9.128922019153833">
        <ele>239.99000000000001</ele>
        <time>2018-09-16T07:21:58Z</time>
      </trkpt>
      <trkpt lat="49.700266029685736" lon="9.129562983289361">
        <ele>239.02000000000001</ele>
        <time>2018-09-16T07:22:01Z</time>
      </trkpt>
      <trkpt lat="49.700120016932487" lon="9.129749983549118">
        <ele>239.02000000000001</ele>
        <time>2018-09-16T07:22:02Z</time>
      </trkpt>
      <trkpt lat="49.69995598308742" lon="9.129889961332083">
        <ele>238.53999999999999</ele>
        <time>2018-09-16T07:22:03Z</time>
      </trkpt>
      <trkpt lat="49.699791027233005" lon="9.129980988800526">
        <ele>238.06</ele>
        <time>2018-09-16T07:22:04Z</time>
      </trkpt>
      <trkpt lat="49.699623975902796" lon="9.130022982135415">
        <ele>238.06</ele>
        <time>2018-09-16T07:22:05Z</time>
      </trkpt>
      <trkpt lat="49.699445022270083" lon="9.130067992955446">
        <ele>238.53999999999999</ele>
        <time>2018-09-16T07:22:06Z</time>
      </trkpt>
      <trkpt lat="49.699274031445384" lon="9.130021976307035">
        <ele>238.53999999999999</ele>
        <time>2018-09-16T07:22:07Z</time>
      </trkpt>
      <trkpt lat="49.699098011478782" lon="9.129971014335752">
        <ele>238.53999999999999</ele>
        <time>2018-09-16T07:22:08Z</time>
      </trkpt>
      <trkpt lat="49.698924003168941" lon="9.129897002130747">
        <ele>238.06</ele>
        <time>2018-09-16T07:22:09Z</time>
      </trkpt>
      <trkpt lat="49.698369037359953" lon="9.129659961909056">
        <ele>238.06</ele>
        <time>2018-09-16T07:22:13Z</time>
      </trkpt>
      <trkpt lat="49.698248002678156" lon="9.129659961909056">
        <ele>238.06</ele>
        <time>2018-09-16T07:22:14Z</time>
      </trkpt>
      <trkpt lat="49.698134008795023" lon="9.129702961072326">
        <ele>238.06</ele>
        <time>2018-09-16T07:22:15Z</time>
      </trkpt>
      <trkpt lat="49.698021020740271" lon="9.12977697327733">
        <ele>238.06</ele>
        <time>2018-09-16T07:22:16Z</time>
      </trkpt>
      <trkpt lat="49.697897974401712" lon="9.129857020452619">
        <ele>238.53999999999999</ele>
        <time>2018-09-16T07:22:17Z</time>
      </trkpt>
      <trkpt lat="49.697765037417412" lon="9.129946958273649">
        <ele>238.53999999999999</ele>
        <time>2018-09-16T07:22:18Z</time>
      </trkpt>
      <trkpt lat="49.697632016614079" lon="9.130108980461955">
        <ele>238.53999999999999</ele>
        <time>2018-09-16T07:22:19Z</time>
      </trkpt>
      <trkpt lat="49.697480974718928" lon="9.130292041227222">
        <ele>238.53999999999999</ele>
        <time>2018-09-16T07:22:20Z</time>
      </trkpt>
      <trkpt lat="49.696961967274547" lon="9.130967035889626">
        <ele>239.02000000000001</ele>
        <time>2018-09-16T07:22:24Z</time>
      </trkpt>
      <trkpt lat="49.696851996704936" lon="9.131141966208816">
        <ele>238.53999999999999</ele>
        <time>2018-09-16T07:22:25Z</time>
      </trkpt>
      <trkpt lat="49.696763986721635" lon="9.131354028359056">
        <ele>238.53999999999999</ele>
        <time>2018-09-16T07:22:26Z</time>
      </trkpt>
      <trkpt lat="49.696656027808785" lon="9.131613029167056">
        <ele>238.06</ele>
        <time>2018-09-16T07:22:27Z</time>
      </trkpt>
      <trkpt lat="49.696555025875568" lon="9.131893990561366">
        <ele>237.58000000000001</ele>
        <time>2018-09-16T07:22:28Z</time>
      </trkpt>
      <trkpt lat="49.695790009573102" lon="9.133796012029052">
        <ele>235.18000000000001</ele>
        <time>2018-09-16T07:22:34Z</time>
      </trkpt>
      <trkpt lat="49.695671992376447" lon="9.134046966210008">
        <ele>234.69999999999999</ele>
        <time>2018-09-16T07:22:35Z</time>
      </trkpt>
      <trkpt lat="49.695581970736384" lon="9.13430898450315">
        <ele>233.74000000000001</ele>
        <time>2018-09-16T07:22:36Z</time>
      </trkpt>
      <trkpt lat="49.695522962138057" lon="9.134592041373253">
        <ele>233.25999999999999</ele>
        <time>2018-09-16T07:22:37Z</time>
      </trkpt>
      <trkpt lat="49.695411985740066" lon="9.135402990505099">
        <ele>231.33000000000001</ele>
        <time>2018-09-16T07:22:40Z</time>
      </trkpt>
      <trkpt lat="49.695354988798499" lon="9.135660985484719">
        <ele>230.84999999999999</ele>
        <time>2018-09-16T07:22:41Z</time>
      </trkpt>
      <trkpt lat="49.695162959396839" lon="9.136127019301057">
        <ele>229.88999999999999</ele>
        <time>2018-09-16T07:22:43Z</time>
      </trkpt>
      <trkpt lat="49.695053994655609" lon="9.1363509837538">
        <ele>229.41</ele>
        <time>2018-09-16T07:22:44Z</time>
      </trkpt>
      <trkpt lat="49.694945029914379" lon="9.136573020368815">
        <ele>228.93000000000001</ele>
        <time>2018-09-16T07:22:45Z</time>
      </trkpt>
      <trkpt lat="49.694846961647272" lon="9.136774018406868">
        <ele>227.97</ele>
        <time>2018-09-16T07:22:46Z</time>
      </trkpt>
      <trkpt lat="49.694726010784507" lon="9.136925982311368">
        <ele>227.00999999999999</ele>
        <time>2018-09-16T07:22:47Z</time>
      </trkpt>
      <trkpt lat="49.694590978324413" lon="9.137051040306687">
        <ele>226.05000000000001</ele>
        <time>2018-09-16T07:22:48Z</time>
      </trkpt>
      <trkpt lat="49.694445971399546" lon="9.13714500144124">
        <ele>225.56999999999999</ele>
        <time>2018-09-16T07:22:49Z</time>
      </trkpt>
      <trkpt lat="49.694293001666665" lon="9.137215996161103">
        <ele>225.09</ele>
        <time>2018-09-16T07:22:50Z</time>
      </trkpt>
      <trkpt lat="49.694127961993217" lon="9.137266036123037">
        <ele>224.61000000000001</ele>
        <time>2018-09-16T07:22:51Z</time>
      </trkpt>
      <trkpt lat="49.693954959511757" lon="9.137325966730714">
        <ele>223.63999999999999</ele>
        <time>2018-09-16T07:22:52Z</time>
      </trkpt>
      <trkpt lat="49.693775000050664" lon="9.137394027784467">
        <ele>223.16</ele>
        <time>2018-09-16T07:22:53Z</time>
      </trkpt>
      <trkpt lat="49.693599985912442" lon="9.137469967827201">
        <ele>222.68000000000001</ele>
        <time>2018-09-16T07:22:54Z</time>
      </trkpt>
      <trkpt lat="49.693425977602601" lon="9.137588990852237">
        <ele>221.72</ele>
        <time>2018-09-16T07:22:55Z</time>
      </trkpt>
      <trkpt lat="49.693222967907786" lon="9.137727962806821">
        <ele>221.24000000000001</ele>
        <time>2018-09-16T07:22:56Z</time>
      </trkpt>
      <trkpt lat="49.693034961819649" lon="9.137784959748387">
        <ele>221.24000000000001</ele>
        <time>2018-09-16T07:22:57Z</time>
      </trkpt>
      <trkpt lat="49.69284301623702" lon="9.137842962518334">
        <ele>221.24000000000001</ele>
        <time>2018-09-16T07:22:58Z</time>
      </trkpt>
      <trkpt lat="49.692661967128515" lon="9.137898031622171">
        <ele>221.24000000000001</ele>
        <time>2018-09-16T07:22:59Z</time>
      </trkpt>
      <trkpt lat="49.6924779843539" lon="9.13798201829195">
        <ele>221.24000000000001</ele>
        <time>2018-09-16T07:23:00Z</time>
      </trkpt>
      <trkpt lat="49.692328032106161" lon="9.138141022995114">
        <ele>221.24000000000001</ele>
        <time>2018-09-16T07:23:01Z</time>
      </trkpt>
      <trkpt lat="49.692185958847404" lon="9.138291981071234">
        <ele>221.24000000000001</ele>
        <time>2018-09-16T07:23:02Z</time>
      </trkpt>
      <trkpt lat="49.692076994106174" lon="9.138505971059203">
        <ele>221.72</ele>
        <time>2018-09-16T07:23:03Z</time>
      </trkpt>
      <trkpt lat="49.691975992172956" lon="9.138718033209443">
        <ele>221.72</ele>
        <time>2018-09-16T07:23:04Z</time>
      </trkpt>
      <trkpt lat="49.691892005503178" lon="9.138958007097244">
        <ele>221.72</ele>
        <time>2018-09-16T07:23:05Z</time>
      </trkpt>
      <trkpt lat="49.691712968051434" lon="9.139467040076852">
        <ele>220.75999999999999</ele>
        <time>2018-09-16T07:23:07Z</time>
      </trkpt>
      <trkpt lat="49.691570978611708" lon="9.139676000922918">
        <ele>220.75999999999999</ele>
        <time>2018-09-16T07:23:08Z</time>
      </trkpt>
      <trkpt lat="49.690593983978033" lon="9.141523037105799">
        <ele>218.84</ele>
        <time>2018-09-16T07:23:15Z</time>
      </trkpt>
      <trkpt lat="49.689395036548376" lon="9.143380969762802">
        <ele>219.31999999999999</ele>
        <time>2018-09-16T07:23:22Z</time>
      </trkpt>
      <trkpt lat="49.688279991969466" lon="9.144593998789787">
        <ele>219.80000000000001</ele>
        <time>2018-09-16T07:23:28Z</time>
      </trkpt>
      <trkpt lat="49.688121993094683" lon="9.144822992384434">
        <ele>219.80000000000001</ele>
        <time>2018-09-16T07:23:29Z</time>
      </trkpt>
      <trkpt lat="49.687844971194863" lon="9.145315010100603">
        <ele>218.84</ele>
        <time>2018-09-16T07:23:31Z</time>
      </trkpt>
      <trkpt lat="49.687716979533434" lon="9.14554500952363">
        <ele>218.84</ele>
        <time>2018-09-16T07:23:32Z</time>
      </trkpt>
      <trkpt lat="49.687462002038956" lon="9.145983969792724">
        <ele>217.88</ele>
        <time>2018-09-16T07:23:34Z</time>
      </trkpt>
      <trkpt lat="49.687322024255991" lon="9.146226039156318">
        <ele>216.91</ele>
        <time>2018-09-16T07:23:35Z</time>
      </trkpt>
      <trkpt lat="49.687268966808915" lon="9.146472970023751">
        <ele>216.43000000000001</ele>
        <time>2018-09-16T07:23:36Z</time>
      </trkpt>
      <trkpt lat="49.687207024544477" lon="9.146767007187009">
        <ele>215.94999999999999</ele>
        <time>2018-09-16T07:23:37Z</time>
      </trkpt>
      <trkpt lat="49.687139969319105" lon="9.147081999108195">
        <ele>215.47</ele>
        <time>2018-09-16T07:23:38Z</time>
      </trkpt>
      <trkpt lat="49.686424992978573" lon="9.150101998820901">
        <ele>209.69999999999999</ele>
        <time>2018-09-16T07:23:47Z</time>
      </trkpt>
      <trkpt lat="49.685586970299482" lon="9.152256986126304">
        <ele>206.34</ele>
        <time>2018-09-16T07:23:54Z</time>
      </trkpt>
      <trkpt lat="49.685453027486801" lon="9.152501989156008">
        <ele>205.86000000000001</ele>
        <time>2018-09-16T07:23:55Z</time>
      </trkpt>
      <trkpt lat="49.685309026390314" lon="9.152692006900907">
        <ele>204.90000000000001</ele>
        <time>2018-09-16T07:23:56Z</time>
      </trkpt>
      <trkpt lat="49.685163013637066" lon="9.152854029089212">
        <ele>204.41999999999999</ele>
        <time>2018-09-16T07:23:57Z</time>
      </trkpt>
      <trkpt lat="49.685022030025721" lon="9.153014961630106">
        <ele>203.94</ele>
        <time>2018-09-16T07:23:58Z</time>
      </trkpt>
      <trkpt lat="49.68493795953691" lon="9.153240015730262">
        <ele>203.46000000000001</ele>
        <time>2018-09-16T07:23:59Z</time>
      </trkpt>
      <trkpt lat="49.684877023100853" lon="9.153492981567979">
        <ele>202.97999999999999</ele>
        <time>2018-09-16T07:24:00Z</time>
      </trkpt>
      <trkpt lat="49.684838969260454" lon="9.153768997639418">
        <ele>202.49000000000001</ele>
        <time>2018-09-16T07:24:01Z</time>
      </trkpt>
      <trkpt lat="49.684798987582326" lon="9.154055994004011">
        <ele>202.00999999999999</ele>
        <time>2018-09-16T07:24:02Z</time>
      </trkpt>
      <trkpt lat="49.684759005904198" lon="9.154345002025366">
        <ele>201.53</ele>
        <time>2018-09-16T07:24:03Z</time>
      </trkpt>
      <trkpt lat="49.684721035882831" lon="9.154618000611663">
        <ele>201.05000000000001</ele>
        <time>2018-09-16T07:24:04Z</time>
      </trkpt>
      <trkpt lat="49.684663033112884" lon="9.154873983934522">
        <ele>201.05000000000001</ele>
        <time>2018-09-16T07:24:05Z</time>
      </trkpt>
      <trkpt lat="49.684583991765976" lon="9.155112029984593">
        <ele>200.09</ele>
        <time>2018-09-16T07:24:06Z</time>
      </trkpt>
      <trkpt lat="49.684477960690856" lon="9.155312022194266">
        <ele>199.61000000000001</ele>
        <time>2018-09-16T07:24:07Z</time>
      </trkpt>
      <trkpt lat="49.684365978464484" lon="9.155515031889081">
        <ele>199.13</ele>
        <time>2018-09-16T07:24:08Z</time>
      </trkpt>
      <trkpt lat="49.684215020388365" lon="9.1556659899652">
        <ele>198.65000000000001</ele>
        <time>2018-09-16T07:24:09Z</time>
      </trkpt>
      <trkpt lat="49.684046041220427" lon="9.155756011605263">
        <ele>198.16999999999999</ele>
        <time>2018-09-16T07:24:10Z</time>
      </trkpt>
      <trkpt lat="49.683873038738966" lon="9.155805967748165">
        <ele>197.69</ele>
        <time>2018-09-16T07:24:11Z</time>
      </trkpt>
      <trkpt lat="49.683703975751996" lon="9.15577202104032">
        <ele>197.21000000000001</ele>
        <time>2018-09-16T07:24:12Z</time>
      </trkpt>
      <trkpt lat="49.683526027947664" lon="9.155735978856683">
        <ele>196.72999999999999</ele>
        <time>2018-09-16T07:24:13Z</time>
      </trkpt>
      <trkpt lat="49.683333998546004" lon="9.155698008835316">
        <ele>196.72999999999999</ele>
        <time>2018-09-16T07:24:14Z</time>
      </trkpt>
      <trkpt lat="49.682719018310308" lon="9.155584014952183">
        <ele>195.77000000000001</ele>
        <time>2018-09-16T07:24:17Z</time>
      </trkpt>
      <trkpt lat="49.682507961988449" lon="9.155611004680395">
        <ele>195.28</ele>
        <time>2018-09-16T07:24:18Z</time>
      </trkpt>
      <trkpt lat="49.682299001142383" lon="9.155673030763865">
        <ele>195.28</ele>
        <time>2018-09-16T07:24:19Z</time>
      </trkpt>
      <trkpt lat="49.682081993669271" lon="9.155736984685063">
        <ele>195.28</ele>
        <time>2018-09-16T07:24:20Z</time>
      </trkpt>
      <trkpt lat="49.681877978146076" lon="9.155826000496745">
        <ele>195.28</ele>
        <time>2018-09-16T07:24:21Z</time>
      </trkpt>
      <trkpt lat="49.681695001199841" lon="9.1559440176934">
        <ele>194.80000000000001</ele>
        <time>2018-09-16T07:24:22Z</time>
      </trkpt>
      <trkpt lat="49.681515041738749" lon="9.156087012961507">
        <ele>194.31999999999999</ele>
        <time>2018-09-16T07:24:23Z</time>
      </trkpt>
      <trkpt lat="49.681345978751779" lon="9.15628700517118">
        <ele>194.31999999999999</ele>
        <time>2018-09-16T07:24:24Z</time>
      </trkpt>
      <trkpt lat="49.681198038160801" lon="9.156517004594207">
        <ele>193.84</ele>
        <time>2018-09-16T07:24:25Z</time>
      </trkpt>
      <trkpt lat="49.68104800209403" lon="9.156752033159137">
        <ele>193.84</ele>
        <time>2018-09-16T07:24:26Z</time>
      </trkpt>
      <trkpt lat="49.680896960198879" lon="9.156986977905035">
        <ele>193.84</ele>
        <time>2018-09-16T07:24:27Z</time>
      </trkpt>
      <trkpt lat="49.68072303570807" lon="9.157181018963456">
        <ele>193.36000000000001</ele>
        <time>2018-09-16T07:24:28Z</time>
      </trkpt>
      <trkpt lat="49.680530000478029" lon="9.157310016453266">
        <ele>192.88</ele>
        <time>2018-09-16T07:24:29Z</time>
      </trkpt>
      <trkpt lat="49.68033998273313" lon="9.15742602199316">
        <ele>192.40000000000001</ele>
        <time>2018-09-16T07:24:30Z</time>
      </trkpt>
      <trkpt lat="49.680165974423289" lon="9.157515037804842">
        <ele>191.91999999999999</ele>
        <time>2018-09-16T07:24:31Z</time>
      </trkpt>
      <trkpt lat="49.679982997477055" lon="9.157529035583139">
        <ele>190.96000000000001</ele>
        <time>2018-09-16T07:24:32Z</time>
      </trkpt>
      <trkpt lat="49.679789962247014" lon="9.157544039189816">
        <ele>190</ele>
        <time>2018-09-16T07:24:33Z</time>
      </trkpt>
      <trkpt lat="49.679420990869403" lon="9.157572034746409">
        <ele>187.59</ele>
        <time>2018-09-16T07:24:35Z</time>
      </trkpt>
      <trkpt lat="49.679257962852716" lon="9.157624002546072">
        <ele>186.63</ele>
        <time>2018-09-16T07:24:36Z</time>
      </trkpt>
      <trkpt lat="49.679082026705146" lon="9.157704971730709">
        <ele>186.15000000000001</ele>
        <time>2018-09-16T07:24:37Z</time>
      </trkpt>
      <trkpt lat="49.678959986194968" lon="9.157827012240887">
        <ele>186.15000000000001</ele>
        <time>2018-09-16T07:24:38Z</time>
      </trkpt>
      <trkpt lat="49.678826965391636" lon="9.1579610388726">
        <ele>185.66999999999999</ele>
        <time>2018-09-16T07:24:39Z</time>
      </trkpt>
      <trkpt lat="49.678707020357251" lon="9.158153990283608">
        <ele>185.66999999999999</ele>
        <time>2018-09-16T07:24:40Z</time>
      </trkpt>
      <trkpt lat="49.678613981232047" lon="9.158375021070242">
        <ele>185.66999999999999</ele>
        <time>2018-09-16T07:24:41Z</time>
      </trkpt>
      <trkpt lat="49.678538041189313" lon="9.158594962209463">
        <ele>185.19</ele>
        <time>2018-09-16T07:24:42Z</time>
      </trkpt>
      <trkpt lat="49.678460005670786" lon="9.158821022138">
        <ele>185.19</ele>
        <time>2018-09-16T07:24:43Z</time>
      </trkpt>
      <trkpt lat="49.678413989022374" lon="9.159040041267872">
        <ele>185.19</ele>
        <time>2018-09-16T07:24:44Z</time>
      </trkpt>
      <trkpt lat="49.678377024829388" lon="9.159293007105589">
        <ele>185.19</ele>
        <time>2018-09-16T07:24:45Z</time>
      </trkpt>
      <trkpt lat="49.678386999294162" lon="9.159518983215094">
        <ele>185.19</ele>
        <time>2018-09-16T07:24:46Z</time>
      </trkpt>
      <trkpt lat="49.678397979587317" lon="9.159754011780024">
        <ele>185.66999999999999</ele>
        <time>2018-09-16T07:24:47Z</time>
      </trkpt>
      <trkpt lat="49.678408959880471" lon="9.159988034516573">
        <ele>186.15000000000001</ele>
        <time>2018-09-16T07:24:48Z</time>
      </trkpt>
      <trkpt lat="49.678420023992658" lon="9.1602180339396">
        <ele>186.15000000000001</ele>
        <time>2018-09-16T07:24:49Z</time>
      </trkpt>
      <trkpt lat="49.678436033427715" lon="9.160677026957274">
        <ele>186.15000000000001</ele>
        <time>2018-09-16T07:24:51Z</time>
      </trkpt>
      <trkpt lat="49.67842698097229" lon="9.160936027765274">
        <ele>186.15000000000001</ele>
        <time>2018-09-16T07:24:52Z</time>
      </trkpt>
      <trkpt lat="49.678418012335896" lon="9.161205003038049">
        <ele>185.66999999999999</ele>
        <time>2018-09-16T07:24:53Z</time>
      </trkpt>
      <trkpt lat="49.678376019001007" lon="9.161479007452726">
        <ele>185.19</ele>
        <time>2018-09-16T07:24:54Z</time>
      </trkpt>
      <trkpt lat="49.678327990695834" lon="9.161772038787603">
        <ele>184.22999999999999</ele>
        <time>2018-09-16T07:24:55Z</time>
      </trkpt>
      <trkpt lat="49.678155994042754" lon="9.162831008434296">
        <ele>181.83000000000001</ele>
        <time>2018-09-16T07:24:59Z</time>
      </trkpt>
      <trkpt lat="49.678078964352608" lon="9.163067964836955">
        <ele>181.34999999999999</ele>
        <time>2018-09-16T07:25:00Z</time>
      </trkpt>
      <trkpt lat="49.677967987954617" lon="9.163290001451969">
        <ele>180.87</ele>
        <time>2018-09-16T07:25:01Z</time>
      </trkpt>
      <trkpt lat="49.677828010171652" lon="9.163481025025249">
        <ele>181.34999999999999</ele>
        <time>2018-09-16T07:25:02Z</time>
      </trkpt>
      <trkpt lat="49.677688032388687" lon="9.163672970607877">
        <ele>181.34999999999999</ele>
        <time>2018-09-16T07:25:03Z</time>
      </trkpt>
      <trkpt lat="49.677315037697554" lon="9.164223996922374">
        <ele>181.34999999999999</ele>
        <time>2018-09-16T07:25:06Z</time>
      </trkpt>
      <trkpt lat="49.677231973037124" lon="9.164462964981794">
        <ele>181.83000000000001</ele>
        <time>2018-09-16T07:25:07Z</time>
      </trkpt>
      <trkpt lat="49.676582040265203" lon="9.166086036711931">
        <ele>180.87</ele>
        <time>2018-09-16T07:25:13Z</time>
      </trkpt>
      <trkpt lat="49.67552499845624" lon="9.16778102517128">
        <ele>180.38</ele>
        <time>2018-09-16T07:25:20Z</time>
      </trkpt>
      <trkpt lat="49.675283012911677" lon="9.168244963511825">
        <ele>179.41999999999999</ele>
        <time>2018-09-16T07:25:22Z</time>
      </trkpt>
      <trkpt lat="49.675191985443234" lon="9.168502958491445">
        <ele>178.94</ele>
        <time>2018-09-16T07:25:23Z</time>
      </trkpt>
      <trkpt lat="49.675125014036894" lon="9.168779980391264">
        <ele>178.46000000000001</ele>
        <time>2018-09-16T07:25:24Z</time>
      </trkpt>
      <trkpt lat="49.675082014873624" lon="9.169066976755858">
        <ele>178.46000000000001</ele>
        <time>2018-09-16T07:25:25Z</time>
      </trkpt>
      <trkpt lat="49.675057036802173" lon="9.169359002262354">
        <ele>177.97999999999999</ele>
        <time>2018-09-16T07:25:26Z</time>
      </trkpt>
      <trkpt lat="49.675027029588819" lon="9.169699978083372">
        <ele>177.5</ele>
        <time>2018-09-16T07:25:27Z</time>
      </trkpt>
      <trkpt lat="49.675044966861606" lon="9.169978005811572">
        <ele>177.02000000000001</ele>
        <time>2018-09-16T07:25:28Z</time>
      </trkpt>
      <trkpt lat="49.675064999610186" lon="9.170284029096365">
        <ele>176.06</ele>
        <time>2018-09-16T07:25:29Z</time>
      </trkpt>
      <trkpt lat="49.675085032358766" lon="9.17057697661221">
        <ele>175.09999999999999</ele>
        <time>2018-09-16T07:25:30Z</time>
      </trkpt>
      <trkpt lat="49.675103975459933" lon="9.170861961320043">
        <ele>174.62</ele>
        <time>2018-09-16T07:25:31Z</time>
      </trkpt>
      <trkpt lat="49.675087966024876" lon="9.171150969341397">
        <ele>174.13999999999999</ele>
        <time>2018-09-16T07:25:32Z</time>
      </trkpt>
      <trkpt lat="49.675043961033225" lon="9.171440983191133">
        <ele>173.66</ele>
        <time>2018-09-16T07:25:33Z</time>
      </trkpt>
      <trkpt lat="49.674999034032226" lon="9.171738959848881">
        <ele>172.69</ele>
        <time>2018-09-16T07:25:34Z</time>
      </trkpt>
      <trkpt lat="49.674678007140756" lon="9.173803003504872">
        <ele>172.69</ele>
        <time>2018-09-16T07:25:42Z</time>
      </trkpt>
      <trkpt lat="49.674626039341092" lon="9.174331985414028">
        <ele>173.16999999999999</ele>
        <time>2018-09-16T07:25:45Z</time>
      </trkpt>
      <trkpt lat="49.674612041562796" lon="9.174487972632051">
        <ele>173.66</ele>
        <time>2018-09-16T07:25:46Z</time>
      </trkpt>
      <trkpt lat="49.674468962475657" lon="9.176072990521789">
        <ele>172.21000000000001</ele>
        <time>2018-09-16T07:25:57Z</time>
      </trkpt>
      <trkpt lat="49.674476003274322" lon="9.176223026588559">
        <ele>171.72999999999999</ele>
        <time>2018-09-16T07:25:58Z</time>
      </trkpt>
      <trkpt lat="49.674482960253954" lon="9.176370967179537">
        <ele>171.25</ele>
        <time>2018-09-16T07:25:59Z</time>
      </trkpt>
      <trkpt lat="49.674490001052618" lon="9.176519997417927">
        <ele>171.25</ele>
        <time>2018-09-16T07:26:00Z</time>
      </trkpt>
      <trkpt lat="49.674497041851282" lon="9.176674978807569">
        <ele>170.77000000000001</ele>
        <time>2018-09-16T07:26:01Z</time>
      </trkpt>
      <trkpt lat="49.674505004659295" lon="9.176830966025591">
        <ele>170.28999999999999</ele>
        <time>2018-09-16T07:26:02Z</time>
      </trkpt>
      <trkpt lat="49.674511961638927" lon="9.176989970728755">
        <ele>169.81</ele>
        <time>2018-09-16T07:26:03Z</time>
      </trkpt>
      <trkpt lat="49.674520008265972" lon="9.177147969603539">
        <ele>169.33000000000001</ele>
        <time>2018-09-16T07:26:04Z</time>
      </trkpt>
      <trkpt lat="49.674526965245605" lon="9.177303034812212">
        <ele>168.37</ele>
        <time>2018-09-16T07:26:05Z</time>
      </trkpt>
      <trkpt lat="49.674599971622229" lon="9.177910974249244">
        <ele>166.93000000000001</ele>
        <time>2018-09-16T07:26:09Z</time>
      </trkpt>
      <trkpt lat="49.674620004370809" lon="9.178060004487634">
        <ele>166.93000000000001</ele>
        <time>2018-09-16T07:26:10Z</time>
      </trkpt>
      <trkpt lat="49.674660991877317" lon="9.178356975317001">
        <ele>165.96000000000001</ele>
        <time>2018-09-16T07:26:12Z</time>
      </trkpt>
      <trkpt lat="49.674683036282659" lon="9.178518997505307">
        <ele>165.96000000000001</ele>
        <time>2018-09-16T07:26:13Z</time>
      </trkpt>
      <trkpt lat="49.674721006304026" lon="9.178646989166737">
        <ele>165.47999999999999</ele>
        <time>2018-09-16T07:26:14Z</time>
      </trkpt>
      <trkpt lat="49.674890991300344" lon="9.17921100743115">
        <ele>166.44999999999999</ele>
        <time>2018-09-16T07:26:18Z</time>
      </trkpt>
      <trkpt lat="49.674933990463614" lon="9.179356014356017">
        <ele>166.44999999999999</ele>
        <time>2018-09-16T07:26:19Z</time>
      </trkpt>
      <trkpt lat="49.674941031262279" lon="9.179517030715942">
        <ele>166.93000000000001</ele>
        <time>2018-09-16T07:26:20Z</time>
      </trkpt>
      <trkpt lat="49.674941031262279" lon="9.179688021540642">
        <ele>166.93000000000001</ele>
        <time>2018-09-16T07:26:21Z</time>
      </trkpt>
      <trkpt lat="49.674941031262279" lon="9.179892959073186">
        <ele>166.93000000000001</ele>
        <time>2018-09-16T07:26:22Z</time>
      </trkpt>
      <trkpt lat="49.674898032099009" lon="9.180045006796718">
        <ele>166.93000000000001</ele>
        <time>2018-09-16T07:26:23Z</time>
      </trkpt>
      <trkpt lat="49.674851009622216" lon="9.180213985964656">
        <ele>167.41</ele>
        <time>2018-09-16T07:26:24Z</time>
      </trkpt>
      <trkpt lat="49.674425963312387" lon="9.181974017992616">
        <ele>164.52000000000001</ele>
        <time>2018-09-16T07:26:33Z</time>
      </trkpt>
      <trkpt lat="49.674425963312387" lon="9.182204017415643">
        <ele>164.03999999999999</ele>
        <time>2018-09-16T07:26:34Z</time>
      </trkpt>
      <trkpt lat="49.674436021596193" lon="9.182466035708785">
        <ele>163.56</ele>
        <time>2018-09-16T07:26:35Z</time>
      </trkpt>
      <trkpt lat="49.674477009102702" lon="9.182729981839657">
        <ele>163.08000000000001</ele>
        <time>2018-09-16T07:26:36Z</time>
      </trkpt>
      <trkpt lat="49.674519002437592" lon="9.182999040931463">
        <ele>162.59999999999999</ele>
        <time>2018-09-16T07:26:37Z</time>
      </trkpt>
      <trkpt lat="49.6745599899441" lon="9.183264998719096">
        <ele>163.08000000000001</ele>
        <time>2018-09-16T07:26:38Z</time>
      </trkpt>
      <trkpt lat="49.67460298910737" lon="9.183540008962154">
        <ele>163.08000000000001</ele>
        <time>2018-09-16T07:26:39Z</time>
      </trkpt>
      <trkpt lat="49.674640037119389" lon="9.183825999498367">
        <ele>163.08000000000001</ele>
        <time>2018-09-16T07:26:40Z</time>
      </trkpt>
      <trkpt lat="49.674640037119389" lon="9.184140991419554">
        <ele>163.08000000000001</ele>
        <time>2018-09-16T07:26:41Z</time>
      </trkpt>
      <trkpt lat="49.674425963312387" lon="9.186867959797382">
        <ele>165.47999999999999</ele>
        <time>2018-09-16T07:26:49Z</time>
      </trkpt>
      <trkpt lat="49.674227982759476" lon="9.188665961846709">
        <ele>166.44999999999999</ele>
        <time>2018-09-16T07:26:54Z</time>
      </trkpt>
      <trkpt lat="49.674166962504387" lon="9.188975002616644">
        <ele>166.44999999999999</ele>
        <time>2018-09-16T07:26:55Z</time>
      </trkpt>
      <trkpt lat="49.674079958349466" lon="9.189260993152857">
        <ele>166.44999999999999</ele>
        <time>2018-09-16T07:26:56Z</time>
      </trkpt>
      <trkpt lat="49.673975016921759" lon="9.189537009224296">
        <ele>166.44999999999999</ele>
        <time>2018-09-16T07:26:57Z</time>
      </trkpt>
      <trkpt lat="49.673860017210245" lon="9.18980598449707">
        <ele>165.96000000000001</ele>
        <time>2018-09-16T07:26:58Z</time>
      </trkpt>
      <trkpt lat="49.673702018335462" lon="9.190037995576859">
        <ele>165.96000000000001</ele>
        <time>2018-09-16T07:26:59Z</time>
      </trkpt>
      <trkpt lat="49.673538990318775" lon="9.190276963636279">
        <ele>165.96000000000001</ele>
        <time>2018-09-16T07:27:00Z</time>
      </trkpt>
      <trkpt lat="49.672914035618305" lon="9.191198972985148">
        <ele>164.52000000000001</ele>
        <time>2018-09-16T07:27:04Z</time>
      </trkpt>
      <trkpt lat="49.672787971794605" lon="9.19145998544991">
        <ele>164.03999999999999</ele>
        <time>2018-09-16T07:27:05Z</time>
      </trkpt>
      <trkpt lat="49.672659980133176" lon="9.191725021228194">
        <ele>163.08000000000001</ele>
        <time>2018-09-16T07:27:06Z</time>
      </trkpt>
      <trkpt lat="49.672568030655384" lon="9.192020986229181">
        <ele>162.59999999999999</ele>
        <time>2018-09-16T07:27:07Z</time>
      </trkpt>
      <trkpt lat="49.672507010400295" lon="9.192336983978748">
        <ele>162.12</ele>
        <time>2018-09-16T07:27:08Z</time>
      </trkpt>
      <trkpt lat="49.672444984316826" lon="9.192662034183741">
        <ele>161.63999999999999</ele>
        <time>2018-09-16T07:27:09Z</time>
      </trkpt>
      <trkpt lat="49.672385975718498" lon="9.192990018054843">
        <ele>161.16</ele>
        <time>2018-09-16T07:27:10Z</time>
      </trkpt>
      <trkpt lat="49.672372983768582" lon="9.193331999704242">
        <ele>160.68000000000001</ele>
        <time>2018-09-16T07:27:11Z</time>
      </trkpt>
      <trkpt lat="49.672360997647047" lon="9.193673981353641">
        <ele>160.68000000000001</ele>
        <time>2018-09-16T07:27:12Z</time>
      </trkpt>
      <trkpt lat="49.672243986278772" lon="9.197294963523746">
        <ele>157.78999999999999</ele>
        <time>2018-09-16T07:27:23Z</time>
      </trkpt>
      <trkpt lat="49.672195035964251" lon="9.19762596487999">
        <ele>157.78999999999999</ele>
        <time>2018-09-16T07:27:24Z</time>
      </trkpt>
      <trkpt lat="49.672109959647059" lon="9.197921007871628">
        <ele>157.31</ele>
        <time>2018-09-16T07:27:25Z</time>
      </trkpt>
      <trkpt lat="49.672028990462422" lon="9.19820599257946">
        <ele>157.31</ele>
        <time>2018-09-16T07:27:26Z</time>
      </trkpt>
      <trkpt lat="49.671924971044064" lon="9.198469016700983">
        <ele>156.83000000000001</ele>
        <time>2018-09-16T07:27:27Z</time>
      </trkpt>
      <trkpt lat="49.671261962503195" lon="9.199907016009092">
        <ele>155.87</ele>
        <time>2018-09-16T07:27:34Z</time>
      </trkpt>
      <trkpt lat="49.670523013919592" lon="9.201485998928547">
        <ele>153.47</ele>
        <time>2018-09-16T07:27:44Z</time>
      </trkpt>
      <trkpt lat="49.670444978401065" lon="9.201654978096485">
        <ele>153.47</ele>
        <time>2018-09-16T07:27:45Z</time>
      </trkpt>
      <trkpt lat="49.669666970148683" lon="9.203423978760839">
        <ele>150.09999999999999</ele>
        <time>2018-09-16T07:27:56Z</time>
      </trkpt>
      <trkpt lat="49.669216023758054" lon="9.205403029918671">
        <ele>150.58000000000001</ele>
        <time>2018-09-16T07:28:07Z</time>
      </trkpt>
      <trkpt lat="49.668991975486279" lon="9.206132004037499">
        <ele>149.13999999999999</ele>
        <time>2018-09-16T07:28:11Z</time>
      </trkpt>
      <trkpt lat="49.668930033221841" lon="9.206310035660863">
        <ele>148.66</ele>
        <time>2018-09-16T07:28:12Z</time>
      </trkpt>
      <trkpt lat="49.668680001050234" lon="9.207030963152647">
        <ele>146.25999999999999</ele>
        <time>2018-09-16T07:28:16Z</time>
      </trkpt>
      <trkpt lat="49.66852099634707" lon="9.207925982773304">
        <ele>142.41</ele>
        <time>2018-09-16T07:28:21Z</time>
      </trkpt>
      <trkpt lat="49.668502975255251" lon="9.20808800496161">
        <ele>141.93000000000001</ele>
        <time>2018-09-16T07:28:22Z</time>
      </trkpt>
      <trkpt lat="49.668523008003831" lon="9.208247009664774">
        <ele>141.44999999999999</ele>
        <time>2018-09-16T07:28:23Z</time>
      </trkpt>
      <trkpt lat="49.668667009100318" lon="9.209413016214967">
        <ele>138.56999999999999</ele>
        <time>2018-09-16T07:28:30Z</time>
      </trkpt>
      <trkpt lat="49.668682012706995" lon="9.209711998701096">
        <ele>138.09</ele>
        <time>2018-09-16T07:28:32Z</time>
      </trkpt>
      <trkpt lat="49.668653011322021" lon="9.209831021726131">
        <ele>138.09</ele>
        <time>2018-09-16T07:28:33Z</time>
      </trkpt>
      <trkpt lat="49.66862803325057" lon="9.209930012002587">
        <ele>137.61000000000001</ele>
        <time>2018-09-16T07:28:34Z</time>
      </trkpt>
      <trkpt lat="49.668609006330371" lon="9.210004024207592">
        <ele>138.09</ele>
        <time>2018-09-16T07:28:35Z</time>
      </trkpt>
      <trkpt lat="49.668450001627207" lon="9.210068983957171">
        <ele>138.09</ele>
        <time>2018-09-16T07:28:36Z</time>
      </trkpt>
      <trkpt lat="49.668385963886976" lon="9.210012992843986">
        <ele>138.09</ele>
        <time>2018-09-16T07:28:37Z</time>
      </trkpt>
      <trkpt lat="49.668298959732056" lon="9.209938980638981">
        <ele>138.09</ele>
        <time>2018-09-16T07:28:38Z</time>
      </trkpt>
      <trkpt lat="49.667331017553806" lon="9.209561040624976">
        <ele>139.53</ele>
        <time>2018-09-16T07:28:45Z</time>
      </trkpt>
      <trkpt lat="49.666001982986927" lon="9.209781987592578">
        <ele>141.93000000000001</ele>
        <time>2018-09-16T07:28:52Z</time>
      </trkpt>
      <trkpt lat="49.664844023063779" lon="9.210729980841279">
        <ele>143.84999999999999</ele>
        <time>2018-09-16T07:28:58Z</time>
      </trkpt>
      <trkpt lat="49.663338968530297" lon="9.211903028190136">
        <ele>145.78</ele>
        <time>2018-09-16T07:29:05Z</time>
      </trkpt>
      <trkpt lat="49.661806002259254" lon="9.211979974061251">
        <ele>146.25999999999999</ele>
        <time>2018-09-16T07:29:11Z</time>
      </trkpt>
      <trkpt lat="49.660302959382534" lon="9.211226021870971">
        <ele>147.22</ele>
        <time>2018-09-16T07:29:17Z</time>
      </trkpt>
      <trkpt lat="49.657701971009374" lon="9.209260968491435">
        <ele>149.62</ele>
        <time>2018-09-16T07:29:28Z</time>
      </trkpt>
      <trkpt lat="49.655943028628826" lon="9.208168974146247">
        <ele>151.06</ele>
        <time>2018-09-16T07:29:36Z</time>
      </trkpt>
      <trkpt lat="49.654887998476624" lon="9.208123963326216">
        <ele>152.99000000000001</ele>
        <time>2018-09-16T07:29:41Z</time>
      </trkpt>
      <trkpt lat="49.653385961428285" lon="9.208937007933855">
        <ele>153.47</ele>
        <time>2018-09-16T07:29:49Z</time>
      </trkpt>
      <trkpt lat="49.653228968381882" lon="9.209117973223329">
        <ele>153.47</ele>
        <time>2018-09-16T07:29:50Z</time>
      </trkpt>
      <trkpt lat="49.653074992820621" lon="9.209303967654705">
        <ele>153.94999999999999</ele>
        <time>2018-09-16T07:29:51Z</time>
      </trkpt>
      <trkpt lat="49.652199000120163" lon="9.210839029401541">
        <ele>155.38999999999999</ele>
        <time>2018-09-16T07:29:57Z</time>
      </trkpt>
      <trkpt lat="49.651051014661789" lon="9.213126031681895">
        <ele>154.91</ele>
        <time>2018-09-16T07:30:05Z</time>
      </trkpt>
      <trkpt lat="49.649563981220126" lon="9.215246988460422">
        <ele>153.94999999999999</ele>
        <time>2018-09-16T07:30:14Z</time>
      </trkpt>
      <trkpt lat="49.648134028539062" lon="9.217221010476351">
        <ele>152.99000000000001</ele>
        <time>2018-09-16T07:30:23Z</time>
      </trkpt>
      <trkpt lat="49.647172037512064" lon="9.218679964542389">
        <ele>154.43000000000001</ele>
        <time>2018-09-16T07:30:32Z</time>
      </trkpt>
      <trkpt lat="49.646850004792213" lon="9.219312965869904">
        <ele>155.38999999999999</ele>
        <time>2018-09-16T07:30:37Z</time>
      </trkpt>
      <trkpt lat="49.646724024787545" lon="9.219353031367064">
        <ele>155.87</ele>
        <time>2018-09-16T07:30:38Z</time>
      </trkpt>
      <trkpt lat="49.646638026461005" lon="9.219417991116643">
        <ele>155.87</ele>
        <time>2018-09-16T07:30:39Z</time>
      </trkpt>
      <trkpt lat="49.646595027297735" lon="9.219525028020144">
        <ele>155.87</ele>
        <time>2018-09-16T07:30:40Z</time>
      </trkpt>
      <trkpt lat="49.64662897400558" lon="9.219757961109281">
        <ele>156.34999999999999</ele>
        <time>2018-09-16T07:30:41Z</time>
      </trkpt>
      <trkpt lat="49.646562002599239" lon="9.219891987740994">
        <ele>156.34999999999999</ele>
        <time>2018-09-16T07:30:42Z</time>
      </trkpt>
      <trkpt lat="49.646487990394235" lon="9.220039006322622">
        <ele>156.34999999999999</ele>
        <time>2018-09-16T07:30:43Z</time>
      </trkpt>
      <trkpt lat="49.645757004618645" lon="9.22151799313724">
        <ele>161.16</ele>
        <time>2018-09-16T07:30:53Z</time>
      </trkpt>
      <trkpt lat="49.645148981362581" lon="9.22267796471715">
        <ele>162.12</ele>
        <time>2018-09-16T07:31:03Z</time>
      </trkpt>
      <trkpt lat="49.645064994692802" lon="9.222691040486097">
        <ele>162.12</ele>
        <time>2018-09-16T07:31:04Z</time>
      </trkpt>
      <trkpt lat="49.644963992759585" lon="9.222750971093774">
        <ele>162.12</ele>
        <time>2018-09-16T07:31:05Z</time>
      </trkpt>
      <trkpt lat="49.644934991374612" lon="9.22284702770412">
        <ele>161.63999999999999</ele>
        <time>2018-09-16T07:31:06Z</time>
      </trkpt>
      <trkpt lat="49.644920993596315" lon="9.22289396636188">
        <ele>161.63999999999999</ele>
        <time>2018-09-16T07:31:07Z</time>
      </trkpt>
      <trkpt lat="49.644984025508165" lon="9.223123965784907">
        <ele>161.63999999999999</ele>
        <time>2018-09-16T07:31:08Z</time>
      </trkpt>
      <trkpt lat="49.644945971667767" lon="9.22325799241662">
        <ele>161.16</ele>
        <time>2018-09-16T07:31:09Z</time>
      </trkpt>
      <trkpt lat="49.644900038838387" lon="9.223416997119784">
        <ele>160.68000000000001</ele>
        <time>2018-09-16T07:31:10Z</time>
      </trkpt>
      <trkpt lat="49.64484597556293" lon="9.223605003207922">
        <ele>160.68000000000001</ele>
        <time>2018-09-16T07:31:11Z</time>
      </trkpt>
      <trkpt lat="49.644431993365288" lon="9.225011989474297">
        <ele>160.19999999999999</ele>
        <time>2018-09-16T07:31:16Z</time>
      </trkpt>
      <trkpt lat="49.643798992037773" lon="9.227031022310257">
        <ele>158.27000000000001</ele>
        <time>2018-09-16T07:31:24Z</time>
      </trkpt>
      <trkpt lat="49.642860973253846" lon="9.229177040979266">
        <ele>157.78999999999999</ele>
        <time>2018-09-16T07:31:34Z</time>
      </trkpt>
      <trkpt lat="49.642455959692597" lon="9.230185970664024">
        <ele>158.27000000000001</ele>
        <time>2018-09-16T07:31:39Z</time>
      </trkpt>
      <trkpt lat="49.642166029661894" lon="9.231995958834887">
        <ele>157.78999999999999</ele>
        <time>2018-09-16T07:31:48Z</time>
      </trkpt>
      <trkpt lat="49.64215898886323" lon="9.232200980186462">
        <ele>157.78999999999999</ele>
        <time>2018-09-16T07:31:49Z</time>
      </trkpt>
      <trkpt lat="49.642157983034849" lon="9.232407007366419">
        <ele>157.31</ele>
        <time>2018-09-16T07:31:50Z</time>
      </trkpt>
      <trkpt lat="49.642190001904964" lon="9.232602976262569">
        <ele>157.31</ele>
        <time>2018-09-16T07:31:51Z</time>
      </trkpt>
      <trkpt lat="49.64222202077508" lon="9.232797017320991">
        <ele>157.31</ele>
        <time>2018-09-16T07:31:52Z</time>
      </trkpt>
      <trkpt lat="49.642254039645195" lon="9.232994997873902">
        <ele>157.31</ele>
        <time>2018-09-16T07:31:53Z</time>
      </trkpt>
      <trkpt lat="49.642615970224142" lon="9.234762992709875">
        <ele>156.34999999999999</ele>
        <time>2018-09-16T07:32:02Z</time>
      </trkpt>
      <trkpt lat="49.642634997144341" lon="9.234978994354606">
        <ele>156.83000000000001</ele>
        <time>2018-09-16T07:32:03Z</time>
      </trkpt>
      <trkpt lat="49.642642037943006" lon="9.235881976783276">
        <ele>157.78999999999999</ele>
        <time>2018-09-16T07:32:07Z</time>
      </trkpt>
      <trkpt lat="49.642372978851199" lon="9.238910023123026">
        <ele>163.08000000000001</ele>
        <time>2018-09-16T07:32:20Z</time>
      </trkpt>
      <trkpt lat="49.641899988055229" lon="9.24109099432826">
        <ele>169.81</ele>
        <time>2018-09-16T07:32:29Z</time>
      </trkpt>
      <trkpt lat="49.641411993652582" lon="9.242510972544551">
        <ele>174.13999999999999</ele>
        <time>2018-09-16T07:32:37Z</time>
      </trkpt>
      <trkpt lat="49.641292970627546" lon="9.242987986654043">
        <ele>175.09999999999999</ele>
        <time>2018-09-16T07:32:40Z</time>
      </trkpt>
      <trkpt lat="49.641270004212856" lon="9.243163000792265">
        <ele>175.58000000000001</ele>
        <time>2018-09-16T07:32:41Z</time>
      </trkpt>
      <trkpt lat="49.641262963414192" lon="9.243338014930487">
        <ele>175.58000000000001</ele>
        <time>2018-09-16T07:32:42Z</time>
      </trkpt>
      <trkpt lat="49.641162967309356" lon="9.244982041418552">
        <ele>176.53999999999999</ele>
        <time>2018-09-16T07:32:51Z</time>
      </trkpt>
      <trkpt lat="49.641126003116369" lon="9.245146997272968">
        <ele>176.53999999999999</ele>
        <time>2018-09-16T07:32:52Z</time>
      </trkpt>
      <trkpt lat="49.641080992296338" lon="9.24530097283423">
        <ele>176.06</ele>
        <time>2018-09-16T07:32:53Z</time>
      </trkpt>
      <trkpt lat="49.641035981476307" lon="9.245453020557761">
        <ele>175.58000000000001</ele>
        <time>2018-09-16T07:32:54Z</time>
      </trkpt>
      <trkpt lat="49.640992982313037" lon="9.245601966977119">
        <ele>175.09999999999999</ele>
        <time>2018-09-16T07:32:55Z</time>
      </trkpt>
      <trkpt lat="49.640945037826896" lon="9.245744040235877">
        <ele>174.62</ele>
        <time>2018-09-16T07:32:56Z</time>
      </trkpt>
      <trkpt lat="49.640841018408537" lon="9.246003041043878">
        <ele>173.66</ele>
        <time>2018-09-16T07:32:58Z</time>
      </trkpt>
      <trkpt lat="49.640789972618222" lon="9.246117034927011">
        <ele>172.69</ele>
        <time>2018-09-16T07:32:59Z</time>
      </trkpt>
      <trkpt lat="49.64074001647532" lon="9.246228011325002">
        <ele>172.21000000000001</ele>
        <time>2018-09-16T07:33:00Z</time>
      </trkpt>
      <trkpt lat="49.640683019533753" lon="9.246325995773077">
        <ele>171.72999999999999</ele>
        <time>2018-09-16T07:33:01Z</time>
      </trkpt>
      <trkpt lat="49.640620993450284" lon="9.246408976614475">
        <ele>170.77000000000001</ele>
        <time>2018-09-16T07:33:02Z</time>
      </trkpt>
      <trkpt lat="49.640560979023576" lon="9.246489023789764">
        <ele>170.28999999999999</ele>
        <time>2018-09-16T07:33:03Z</time>
      </trkpt>
      <trkpt lat="49.640499958768487" lon="9.246569992974401">
        <ele>169.81</ele>
        <time>2018-09-16T07:33:04Z</time>
      </trkpt>
      <trkpt lat="49.640451008453965" lon="9.246665965765715">
        <ele>169.33000000000001</ele>
        <time>2018-09-16T07:33:05Z</time>
      </trkpt>
      <trkpt lat="49.640429969877005" lon="9.246780965477228">
        <ele>168.84999999999999</ele>
        <time>2018-09-16T07:33:06Z</time>
      </trkpt>
      <trkpt lat="49.640414966270328" lon="9.246895965188742">
        <ele>168.37</ele>
        <time>2018-09-16T07:33:07Z</time>
      </trkpt>
      <trkpt lat="49.640414966270328" lon="9.247022029012442">
        <ele>168.37</ele>
        <time>2018-09-16T07:33:08Z</time>
      </trkpt>
      <trkpt lat="49.640414966270328" lon="9.247141974046826">
        <ele>168.37</ele>
        <time>2018-09-16T07:33:09Z</time>
      </trkpt>
      <trkpt lat="49.640414966270328" lon="9.247266026213765">
        <ele>168.37</ele>
        <time>2018-09-16T07:33:10Z</time>
      </trkpt>
      <trkpt lat="49.640394011512399" lon="9.247420001775026">
        <ele>168.37</ele>
        <time>2018-09-16T07:33:11Z</time>
      </trkpt>
      <trkpt lat="49.640385964885354" lon="9.24751203507185">
        <ele>168.37</ele>
        <time>2018-09-16T07:33:12Z</time>
      </trkpt>
      <trkpt lat="49.640371967107058" lon="9.247676990926266">
        <ele>167.88999999999999</ele>
        <time>2018-09-16T07:33:13Z</time>
      </trkpt>
      <trkpt lat="49.640359980985522" lon="9.247757038101554">
        <ele>167.88999999999999</ele>
        <time>2018-09-16T07:33:14Z</time>
      </trkpt>
      <trkpt lat="49.640340032055974" lon="9.2478789947927">
        <ele>167.41</ele>
        <time>2018-09-16T07:33:15Z</time>
      </trkpt>
      <trkpt lat="49.640321005135775" lon="9.247998017817736">
        <ele>166.93000000000001</ele>
        <time>2018-09-16T07:33:16Z</time>
      </trkpt>
      <trkpt lat="49.640301978215575" lon="9.24811402335763">
        <ele>166.93000000000001</ele>
        <time>2018-09-16T07:33:17Z</time>
      </trkpt>
      <trkpt lat="49.640258979052305" lon="9.248346034437418">
        <ele>166.93000000000001</ele>
        <time>2018-09-16T07:33:19Z</time>
      </trkpt>
      <trkpt lat="49.64018396101892" lon="9.249084983021021">
        <ele>168.37</ele>
        <time>2018-09-16T07:33:25Z</time>
      </trkpt>
      <trkpt lat="49.640327040106058" lon="9.25047897733748">
        <ele>172.69</ele>
        <time>2018-09-16T07:33:35Z</time>
      </trkpt>
      <trkpt lat="49.640609007328749" lon="9.252076987177134">
        <ele>174.13999999999999</ele>
        <time>2018-09-16T07:33:45Z</time>
      </trkpt>
      <trkpt lat="49.640991976484656" lon="9.254100965335965">
        <ele>175.58000000000001</ele>
        <time>2018-09-16T07:33:58Z</time>
      </trkpt>
      <trkpt lat="49.6411710139364" lon="9.254794986918569">
        <ele>176.06</ele>
        <time>2018-09-16T07:34:02Z</time>
      </trkpt>
      <trkpt lat="49.641185011714697" lon="9.254985004663467">
        <ele>176.06</ele>
        <time>2018-09-16T07:34:03Z</time>
      </trkpt>
      <trkpt lat="49.641163973137736" lon="9.255168987438083">
        <ele>176.06</ele>
        <time>2018-09-16T07:34:04Z</time>
      </trkpt>
      <trkpt lat="49.641134971752763" lon="9.255336038768292">
        <ele>176.53999999999999</ele>
        <time>2018-09-16T07:34:05Z</time>
      </trkpt>
      <trkpt lat="49.641094990074635" lon="9.255497977137566">
        <ele>176.53999999999999</ele>
        <time>2018-09-16T07:34:06Z</time>
      </trkpt>
      <trkpt lat="49.641056014224887" lon="9.255662010982633">
        <ele>176.53999999999999</ele>
        <time>2018-09-16T07:34:07Z</time>
      </trkpt>
      <trkpt lat="49.640627028420568" lon="9.257596973329783">
        <ele>178.94</ele>
        <time>2018-09-16T07:34:18Z</time>
      </trkpt>
      <trkpt lat="49.640391999855638" lon="9.259308977052569">
        <ele>183.27000000000001</ele>
        <time>2018-09-16T07:34:26Z</time>
      </trkpt>
      <trkpt lat="49.64037699624896" lon="9.259568983688951">
        <ele>184.22999999999999</ele>
        <time>2018-09-16T07:34:27Z</time>
      </trkpt>
      <trkpt lat="49.640404991805553" lon="9.259850028902292">
        <ele>184.71000000000001</ele>
        <time>2018-09-16T07:34:28Z</time>
      </trkpt>
      <trkpt lat="49.640450002625585" lon="9.260130990296602">
        <ele>185.19</ele>
        <time>2018-09-16T07:34:29Z</time>
      </trkpt>
      <trkpt lat="49.64050498791039" lon="9.260421004146338">
        <ele>186.15000000000001</ele>
        <time>2018-09-16T07:34:30Z</time>
      </trkpt>
      <trkpt lat="49.640575982630253" lon="9.260715041309595">
        <ele>187.11000000000001</ele>
        <time>2018-09-16T07:34:31Z</time>
      </trkpt>
      <trkpt lat="49.640649994835258" lon="9.261020980775356">
        <ele>188.08000000000001</ele>
        <time>2018-09-16T07:34:32Z</time>
      </trkpt>
      <trkpt lat="49.640801958739758" lon="9.261646019294858">
        <ele>189.52000000000001</ele>
        <time>2018-09-16T07:34:34Z</time>
      </trkpt>
      <trkpt lat="49.640816040337086" lon="9.26197400316596">
        <ele>190.47999999999999</ele>
        <time>2018-09-16T07:34:35Z</time>
      </trkpt>
      <trkpt lat="49.640830038115382" lon="9.262308022007346">
        <ele>191.91999999999999</ele>
        <time>2018-09-16T07:34:36Z</time>
      </trkpt>
      <trkpt lat="49.640844035893679" lon="9.262632988393307">
        <ele>192.88</ele>
        <time>2018-09-16T07:34:37Z</time>
      </trkpt>
      <trkpt lat="49.640816962346435" lon="9.262949991971254">
        <ele>193.84</ele>
        <time>2018-09-16T07:34:38Z</time>
      </trkpt>
      <trkpt lat="49.640769017860293" lon="9.263258026912808">
        <ele>195.28</ele>
        <time>2018-09-16T07:34:39Z</time>
      </trkpt>
      <trkpt lat="49.640723001211882" lon="9.263549968600273">
        <ele>196.25</ele>
        <time>2018-09-16T07:34:40Z</time>
      </trkpt>
      <trkpt lat="49.640680002048612" lon="9.26382296718657">
        <ele>197.21000000000001</ele>
        <time>2018-09-16T07:34:41Z</time>
      </trkpt>
      <trkpt lat="49.640102991834283" lon="9.265403039753437">
        <ele>204.90000000000001</ele>
        <time>2018-09-16T07:34:48Z</time>
      </trkpt>
      <trkpt lat="49.639896964654326" lon="9.265752984210849">
        <ele>206.81999999999999</ele>
        <time>2018-09-16T07:34:50Z</time>
      </trkpt>
      <trkpt lat="49.639781964942813" lon="9.265898996964097">
        <ele>207.30000000000001</ele>
        <time>2018-09-16T07:34:51Z</time>
      </trkpt>
      <trkpt lat="49.639648022130132" lon="9.266016008332372">
        <ele>207.78</ele>
        <time>2018-09-16T07:34:52Z</time>
      </trkpt>
      <trkpt lat="49.639509972184896" lon="9.266135031357408">
        <ele>208.25999999999999</ele>
        <time>2018-09-16T07:34:53Z</time>
      </trkpt>
      <trkpt lat="49.639363037422299" lon="9.266263023018837">
        <ele>208.25999999999999</ele>
        <time>2018-09-16T07:34:54Z</time>
      </trkpt>
      <trkpt lat="49.638802036643028" lon="9.266818994656205">
        <ele>208.25999999999999</ele>
        <time>2018-09-16T07:34:58Z</time>
      </trkpt>
      <trkpt lat="49.638724001124501" lon="9.267004989087582">
        <ele>208.25999999999999</ele>
        <time>2018-09-16T07:34:59Z</time>
      </trkpt>
      <trkpt lat="49.638647977262735" lon="9.267211016267538">
        <ele>208.25999999999999</ele>
        <time>2018-09-16T07:35:00Z</time>
      </trkpt>
      <trkpt lat="49.638571031391621" lon="9.267421988770366">
        <ele>208.25999999999999</ele>
        <time>2018-09-16T07:35:01Z</time>
      </trkpt>
      <trkpt lat="49.638515040278435" lon="9.267638996243477">
        <ele>208.25999999999999</ele>
        <time>2018-09-16T07:35:02Z</time>
      </trkpt>
      <trkpt lat="49.638470029458404" lon="9.267852986231446">
        <ele>208.25999999999999</ele>
        <time>2018-09-16T07:35:03Z</time>
      </trkpt>
      <trkpt lat="49.638357041403651" lon="9.268285995349288">
        <ele>208.25999999999999</ele>
        <time>2018-09-16T07:35:05Z</time>
      </trkpt>
      <trkpt lat="49.638255033642054" lon="9.268521023914218">
        <ele>208.74000000000001</ele>
        <time>2018-09-16T07:35:06Z</time>
      </trkpt>
      <trkpt lat="49.638137016445398" lon="9.268794022500515">
        <ele>208.74000000000001</ele>
        <time>2018-09-16T07:35:07Z</time>
      </trkpt>
      <trkpt lat="49.63745104148984" lon="9.269956005737186">
        <ele>209.69999999999999</ele>
        <time>2018-09-16T07:35:11Z</time>
      </trkpt>
      <trkpt lat="49.63723998516798" lon="9.270221963524818">
        <ele>210.66999999999999</ele>
        <time>2018-09-16T07:35:12Z</time>
      </trkpt>
      <trkpt lat="49.636085964739323" lon="9.271429963409901">
        <ele>214.99000000000001</ele>
        <time>2018-09-16T07:35:18Z</time>
      </trkpt>
      <trkpt lat="49.63504996150732" lon="9.272550037130714">
        <ele>218.84</ele>
        <time>2018-09-16T07:35:24Z</time>
      </trkpt>
      <trkpt lat="49.634878970682621" lon="9.272761009633541">
        <ele>218.84</ele>
        <time>2018-09-16T07:35:25Z</time>
      </trkpt>
      <trkpt lat="49.633529987186193" lon="9.274488016963005">
        <ele>219.31999999999999</ele>
        <time>2018-09-16T07:35:32Z</time>
      </trkpt>
      <trkpt lat="49.631215995177627" lon="9.277595020830631">
        <ele>221.72</ele>
        <time>2018-09-16T07:35:43Z</time>
      </trkpt>
      <trkpt lat="49.629424028098583" lon="9.28053698502481">
        <ele>227.00999999999999</ele>
        <time>2018-09-16T07:35:53Z</time>
      </trkpt>
      <trkpt lat="49.628385007381439" lon="9.282819963991642">
        <ele>227.49000000000001</ele>
        <time>2018-09-16T07:36:00Z</time>
      </trkpt>
      <trkpt lat="49.627854013815522" lon="9.284740006551147">
        <ele>228.93000000000001</ele>
        <time>2018-09-16T07:36:06Z</time>
      </trkpt>
      <trkpt lat="49.627758041024208" lon="9.284992972388864">
        <ele>228.93000000000001</ele>
        <time>2018-09-16T07:36:07Z</time>
      </trkpt>
      <trkpt lat="49.626837959513068" lon="9.286707993596792">
        <ele>230.37</ele>
        <time>2018-09-16T07:36:15Z</time>
      </trkpt>
      <trkpt lat="49.626104962080717" lon="9.287930997088552">
        <ele>229.88999999999999</ele>
        <time>2018-09-16T07:36:21Z</time>
      </trkpt>
      <trkpt lat="49.625085974112153" lon="9.289385005831718">
        <ele>229.88999999999999</ele>
        <time>2018-09-16T07:36:27Z</time>
      </trkpt>
      <trkpt lat="49.6243030205369" lon="9.290646985173225">
        <ele>229.88999999999999</ele>
        <time>2018-09-16T07:36:34Z</time>
      </trkpt>
      <trkpt lat="49.623412024229765" lon="9.292081966996193">
        <ele>227.97</ele>
        <time>2018-09-16T07:36:45Z</time>
      </trkpt>
      <trkpt lat="49.622872984036803" lon="9.293050998821855">
        <ele>227.49000000000001</ele>
        <time>2018-09-16T07:36:53Z</time>
      </trkpt>
      <trkpt lat="49.622774999588728" lon="9.293329026550055">
        <ele>226.05000000000001</ele>
        <time>2018-09-16T07:36:55Z</time>
      </trkpt>
      <trkpt lat="49.622730994597077" lon="9.293462969362736">
        <ele>225.56999999999999</ele>
        <time>2018-09-16T07:36:56Z</time>
      </trkpt>
      <trkpt lat="49.622700987383723" lon="9.293611999601126">
        <ele>225.09</ele>
        <time>2018-09-16T07:36:57Z</time>
      </trkpt>
      <trkpt lat="49.622630998492241" lon="9.295090986415744">
        <ele>227.00999999999999</ele>
        <time>2018-09-16T07:37:06Z</time>
      </trkpt>
      <trkpt lat="49.622592022642493" lon="9.29587502963841">
        <ele>230.37</ele>
        <time>2018-09-16T07:37:11Z</time>
      </trkpt>
      <trkpt lat="49.622578024864197" lon="9.296184992417693">
        <ele>231.33000000000001</ele>
        <time>2018-09-16T07:37:13Z</time>
      </trkpt>
      <trkpt lat="49.622554974630475" lon="9.296682961285114">
        <ele>233.25999999999999</ele>
        <time>2018-09-16T07:37:16Z</time>
      </trkpt>
      <trkpt lat="49.622547011822462" lon="9.296855041757226">
        <ele>233.74000000000001</ele>
        <time>2018-09-16T07:37:17Z</time>
      </trkpt>
      <trkpt lat="49.622448021546006" lon="9.299040958285332">
        <ele>239.99000000000001</ele>
        <time>2018-09-16T07:37:28Z</time>
      </trkpt>
      <trkpt lat="49.6223050262779" lon="9.301025038585067">
        <ele>243.83000000000001</ele>
        <time>2018-09-16T07:37:35Z</time>
      </trkpt>
      <trkpt lat="49.621973019093275" lon="9.303925009444356">
        <ele>252</ele>
        <time>2018-09-16T07:37:43Z</time>
      </trkpt>
      <trkpt lat="49.62144898250699" lon="9.307509027421475">
        <ele>262.57999999999998</ele>
        <time>2018-09-16T07:37:53Z</time>
      </trkpt>
      <trkpt lat="49.621257036924362" lon="9.308107998222113">
        <ele>264.01999999999998</ele>
        <time>2018-09-16T07:37:55Z</time>
      </trkpt>
      <trkpt lat="49.621144970878959" lon="9.308396000415087">
        <ele>264.5</ele>
        <time>2018-09-16T07:37:56Z</time>
      </trkpt>
      <trkpt lat="49.621002981439233" lon="9.308651983737946">
        <ele>265.45999999999998</ele>
        <time>2018-09-16T07:37:57Z</time>
      </trkpt>
      <trkpt lat="49.620860991999507" lon="9.308906961232424">
        <ele>265.94</ele>
        <time>2018-09-16T07:37:58Z</time>
      </trkpt>
      <trkpt lat="49.620707016438246" lon="9.309151964262128">
        <ele>266.89999999999998</ele>
        <time>2018-09-16T07:37:59Z</time>
      </trkpt>
      <trkpt lat="49.620529990643263" lon="9.309361008927226">
        <ele>267.38</ele>
        <time>2018-09-16T07:38:00Z</time>
      </trkpt>
      <trkpt lat="49.620349025353789" lon="9.309574998915196">
        <ele>267.86000000000001</ele>
        <time>2018-09-16T07:38:01Z</time>
      </trkpt>
      <trkpt lat="49.619455011561513" lon="9.310727007687092">
        <ele>270.26999999999998</ele>
        <time>2018-09-16T07:38:06Z</time>
      </trkpt>
      <trkpt lat="49.619315033778548" lon="9.311022972688079">
        <ele>270.26999999999998</ele>
        <time>2018-09-16T07:38:07Z</time>
      </trkpt>
      <trkpt lat="49.618077026680112" lon="9.314021011814475">
        <ele>274.58999999999997</ele>
        <time>2018-09-16T07:38:16Z</time>
      </trkpt>
      <trkpt lat="49.617232969030738" lon="9.315940970554948">
        <ele>278.44</ele>
        <time>2018-09-16T07:38:22Z</time>
      </trkpt>
      <trkpt lat="49.615536974743009" lon="9.318000990897417">
        <ele>284.20999999999998</ele>
        <time>2018-09-16T07:38:30Z</time>
      </trkpt>
      <trkpt lat="49.614476999267936" lon="9.319417029619217">
        <ele>288.52999999999997</ele>
        <time>2018-09-16T07:38:36Z</time>
      </trkpt>
      <trkpt lat="49.614369040355086" lon="9.319721041247249">
        <ele>288.52999999999997</ele>
        <time>2018-09-16T07:38:37Z</time>
      </trkpt>
      <trkpt lat="49.614280024543405" lon="9.320076014846563">
        <ele>288.52999999999997</ele>
        <time>2018-09-16T07:38:38Z</time>
      </trkpt>
      <trkpt lat="49.614190002903342" lon="9.32043400593102">
        <ele>289.00999999999999</ele>
        <time>2018-09-16T07:38:39Z</time>
      </trkpt>
      <trkpt lat="49.614124959334731" lon="9.320802977308631">
        <ele>289.49000000000001</ele>
        <time>2018-09-16T07:38:40Z</time>
      </trkpt>
      <trkpt lat="49.61407701484859" lon="9.321187036111951">
        <ele>289.97000000000003</ele>
        <time>2018-09-16T07:38:41Z</time>
      </trkpt>
      <trkpt lat="49.613791024312377" lon="9.324806006625295">
        <ele>294.30000000000001</ele>
        <time>2018-09-16T07:38:50Z</time>
      </trkpt>
      <trkpt lat="49.613722963258624" lon="9.325188975781202">
        <ele>295.25999999999999</ele>
        <time>2018-09-16T07:38:51Z</time>
      </trkpt>
      <trkpt lat="49.613066995516419" lon="9.327300963923335">
        <ele>299.58999999999997</ele>
        <time>2018-09-16T07:38:57Z</time>
      </trkpt>
      <trkpt lat="49.611986987292767" lon="9.329474978148937">
        <ele>303.91000000000003</ele>
        <time>2018-09-16T07:39:04Z</time>
      </trkpt>
      <trkpt lat="49.6101029869169" lon="9.332282999530435">
        <ele>309.19999999999999</ele>
        <time>2018-09-16T07:39:14Z</time>
      </trkpt>
      <trkpt lat="49.608000973239541" lon="9.33556099422276">
        <ele>313.52999999999997</ele>
        <time>2018-09-16T07:39:25Z</time>
      </trkpt>
      <trkpt lat="49.606451997533441" lon="9.337238967418671">
        <ele>316.88999999999999</ele>
        <time>2018-09-16T07:39:32Z</time>
      </trkpt>
      <trkpt lat="49.606243958696723" lon="9.337518000975251">
        <ele>317.37</ele>
        <time>2018-09-16T07:39:33Z</time>
      </trkpt>
      <trkpt lat="49.606066010892391" lon="9.33783701620996">
        <ele>318.32999999999998</ele>
        <time>2018-09-16T07:39:34Z</time>
      </trkpt>
      <trkpt lat="49.604500019922853" lon="9.340562978759408">
        <ele>326.5</ele>
        <time>2018-09-16T07:39:43Z</time>
      </trkpt>
      <trkpt lat="49.604115039110184" lon="9.341045022010803">
        <ele>327.94999999999999</ele>
        <time>2018-09-16T07:39:45Z</time>
      </trkpt>
      <trkpt lat="49.603884033858776" lon="9.34123202227056">
        <ele>328.91000000000003</ele>
        <time>2018-09-16T07:39:46Z</time>
      </trkpt>
      <trkpt lat="49.601728962734342" lon="9.342791978269815">
        <ele>336.12</ele>
        <time>2018-09-16T07:39:55Z</time>
      </trkpt>
      <trkpt lat="49.601349011063576" lon="9.343302017077804">
        <ele>337.56</ele>
        <time>2018-09-16T07:39:57Z</time>
      </trkpt>
      <trkpt lat="49.60116796195507" lon="9.34357300400734">
        <ele>338.51999999999998</ele>
        <time>2018-09-16T07:39:58Z</time>
      </trkpt>
      <trkpt lat="49.600988002493978" lon="9.343843990936875">
        <ele>339</ele>
        <time>2018-09-16T07:39:59Z</time>
      </trkpt>
      <trkpt lat="49.600849030539393" lon="9.344151020050049">
        <ele>339.95999999999998</ele>
        <time>2018-09-16T07:40:00Z</time>
      </trkpt>
      <trkpt lat="49.600727995857596" lon="9.344446985051036">
        <ele>340.44</ele>
        <time>2018-09-16T07:40:01Z</time>
      </trkpt>
      <trkpt lat="49.600614001974463" lon="9.344723001122475">
        <ele>341.41000000000003</ele>
        <time>2018-09-16T07:40:02Z</time>
      </trkpt>
      <trkpt lat="49.600540995597839" lon="9.345012009143829">
        <ele>341.88999999999999</ele>
        <time>2018-09-16T07:40:03Z</time>
      </trkpt>
      <trkpt lat="49.600473018363118" lon="9.345284001901746">
        <ele>342.37</ele>
        <time>2018-09-16T07:40:04Z</time>
      </trkpt>
      <trkpt lat="49.600351983681321" lon="9.345784988254309">
        <ele>343.32999999999998</ele>
        <time>2018-09-16T07:40:06Z</time>
      </trkpt>
      <trkpt lat="49.600309990346432" lon="9.347359025850892">
        <ele>346.20999999999998</ele>
        <time>2018-09-16T07:40:13Z</time>
      </trkpt>
      <trkpt lat="49.600371010601521" lon="9.347495986148715">
        <ele>346.69</ele>
        <time>2018-09-16T07:40:14Z</time>
      </trkpt>
      <trkpt lat="49.60043303668499" lon="9.347628001123667">
        <ele>347.17000000000002</ele>
        <time>2018-09-16T07:40:15Z</time>
      </trkpt>
      <trkpt lat="49.600496990606189" lon="9.34776202775538">
        <ele>347.64999999999998</ele>
        <time>2018-09-16T07:40:16Z</time>
      </trkpt>
      <trkpt lat="49.600591035559773" lon="9.347864035516977">
        <ele>347.64999999999998</ele>
        <time>2018-09-16T07:40:17Z</time>
      </trkpt>
      <trkpt lat="49.600704023614526" lon="9.348017005249858">
        <ele>348.13</ele>
        <time>2018-09-16T07:40:18Z</time>
      </trkpt>
      <trkpt lat="49.600815000012517" lon="9.348223032429814">
        <ele>348.62</ele>
        <time>2018-09-16T07:40:19Z</time>
      </trkpt>
      <trkpt lat="49.600919019430876" lon="9.348462000489235">
        <ele>348.62</ele>
        <time>2018-09-16T07:40:20Z</time>
      </trkpt>
      <trkpt lat="49.601024966686964" lon="9.348727036267519">
        <ele>349.57999999999998</ele>
        <time>2018-09-16T07:40:21Z</time>
      </trkpt>
      <trkpt lat="49.601672971621156" lon="9.350932985544205">
        <ele>354.86000000000001</ele>
        <time>2018-09-16T07:40:28Z</time>
      </trkpt>
      <trkpt lat="49.601785037666559" lon="9.352073008194566">
        <ele>357.75</ele>
        <time>2018-09-16T07:40:32Z</time>
      </trkpt>
      <trkpt lat="49.601760981604457" lon="9.352374002337456">
        <ele>358.23000000000002</ele>
        <time>2018-09-16T07:40:33Z</time>
      </trkpt>
      <trkpt lat="49.601715970784426" lon="9.352670973166823">
        <ele>358.70999999999998</ele>
        <time>2018-09-16T07:40:34Z</time>
      </trkpt>
      <trkpt lat="49.60163801908493" lon="9.352960987016559">
        <ele>359.19</ele>
        <time>2018-09-16T07:40:35Z</time>
      </trkpt>
      <trkpt lat="49.601533999666572" lon="9.353229040279985">
        <ele>359.67000000000002</ele>
        <time>2018-09-16T07:40:36Z</time>
      </trkpt>
      <trkpt lat="49.601403996348381" lon="9.353487035259605">
        <ele>360.63</ele>
        <time>2018-09-16T07:40:37Z</time>
      </trkpt>
      <trkpt lat="49.601256977766752" lon="9.353733966127038">
        <ele>361.58999999999997</ele>
        <time>2018-09-16T07:40:38Z</time>
      </trkpt>
      <trkpt lat="49.601087998598814" lon="9.35397301800549">
        <ele>362.55000000000001</ele>
        <time>2018-09-16T07:40:39Z</time>
      </trkpt>
      <trkpt lat="49.600916001945734" lon="9.354218021035194">
        <ele>363.04000000000002</ele>
        <time>2018-09-16T07:40:40Z</time>
      </trkpt>
      <trkpt lat="49.599320003762841" lon="9.355916026979685">
        <ele>369.75999999999999</ele>
        <time>2018-09-16T07:40:48Z</time>
      </trkpt>
      <trkpt lat="49.597494006156921" lon="9.357144981622696">
        <ele>374.08999999999997</ele>
        <time>2018-09-16T07:40:56Z</time>
      </trkpt>
      <trkpt lat="49.595930026844144" lon="9.357920978218317">
        <ele>376.00999999999999</ele>
        <time>2018-09-16T07:41:03Z</time>
      </trkpt>
      <trkpt lat="49.594197990372777" lon="9.358767969533801">
        <ele>376.97000000000003</ele>
        <time>2018-09-16T07:41:11Z</time>
      </trkpt>
      <trkpt lat="49.592879014089704" lon="9.360150983557105">
        <ele>378.42000000000002</ele>
        <time>2018-09-16T07:41:19Z</time>
      </trkpt>
      <trkpt lat="49.591402960941195" lon="9.362193988636136">
        <ele>382.74000000000001</ele>
        <time>2018-09-16T07:41:28Z</time>
      </trkpt>
      <trkpt lat="49.590355977416039" lon="9.364283010363579">
        <ele>384.66000000000003</ele>
        <time>2018-09-16T07:41:34Z</time>
      </trkpt>
      <trkpt lat="49.589020991697907" lon="9.366419976577163">
        <ele>388.02999999999997</ele>
        <time>2018-09-16T07:41:40Z</time>
      </trkpt>
      <trkpt lat="49.587669996544719" lon="9.367950009182096">
        <ele>391.87</ele>
        <time>2018-09-16T07:41:46Z</time>
      </trkpt>
      <trkpt lat="49.586479011923075" lon="9.369311984628439">
        <ele>398.60000000000002</ele>
        <time>2018-09-16T07:41:53Z</time>
      </trkpt>
      <trkpt lat="49.585311999544501" lon="9.3711600266397">
        <ele>405.81</ele>
        <time>2018-09-16T07:42:00Z</time>
      </trkpt>
      <trkpt lat="49.584453022107482" lon="9.373362958431244">
        <ele>410.13999999999999</ele>
        <time>2018-09-16T07:42:06Z</time>
      </trkpt>
      <trkpt lat="49.583846004679799" lon="9.376028990373015">
        <ele>412.06</ele>
        <time>2018-09-16T07:42:13Z</time>
      </trkpt>
      <trkpt lat="49.583437973633409" lon="9.378610029816628">
        <ele>410.13999999999999</ele>
        <time>2018-09-16T07:42:21Z</time>
      </trkpt>
      <trkpt lat="49.582991972565651" lon="9.381445040926337">
        <ele>407.25999999999999</ele>
        <time>2018-09-16T07:42:31Z</time>
      </trkpt>
      <trkpt lat="49.582954002544284" lon="9.381615025922656">
        <ele>407.25999999999999</ele>
        <time>2018-09-16T07:42:32Z</time>
      </trkpt>
      <trkpt lat="49.582930030301213" lon="9.381723990663886">
        <ele>407.25999999999999</ele>
        <time>2018-09-16T07:42:33Z</time>
      </trkpt>
      <trkpt lat="49.582849983125925" lon="9.38181702978909">
        <ele>406.76999999999998</ele>
        <time>2018-09-16T07:42:34Z</time>
      </trkpt>
      <trkpt lat="49.582788962870836" lon="9.381874026730657">
        <ele>406.29000000000002</ele>
        <time>2018-09-16T07:42:35Z</time>
      </trkpt>
      <trkpt lat="49.582703970372677" lon="9.381874026730657">
        <ele>406.29000000000002</ele>
        <time>2018-09-16T07:42:36Z</time>
      </trkpt>
      <trkpt lat="49.582607997581363" lon="9.381874026730657">
        <ele>405.81</ele>
        <time>2018-09-16T07:42:37Z</time>
      </trkpt>
      <trkpt lat="49.582556029781699" lon="9.381769001483917">
        <ele>405.32999999999998</ele>
        <time>2018-09-16T07:42:38Z</time>
      </trkpt>
      <trkpt lat="49.582496015354991" lon="9.381649978458881">
        <ele>404.85000000000002</ele>
        <time>2018-09-16T07:42:39Z</time>
      </trkpt>
      <trkpt lat="49.582433989271522" lon="9.381501032039523">
        <ele>403.88999999999999</ele>
        <time>2018-09-16T07:42:40Z</time>
      </trkpt>
      <trkpt lat="49.582415968179703" lon="9.38132300041616">
        <ele>403.41000000000003</ele>
        <time>2018-09-16T07:42:41Z</time>
      </trkpt>
      <trkpt lat="49.582397025078535" lon="9.381133988499641">
        <ele>402.93000000000001</ele>
        <time>2018-09-16T07:42:42Z</time>
      </trkpt>
      <trkpt lat="49.582416974008083" lon="9.380928967148066">
        <ele>402.44999999999999</ele>
        <time>2018-09-16T07:42:43Z</time>
      </trkpt>
      <trkpt lat="49.582441030070186" lon="9.380750013515353">
        <ele>401.49000000000001</ele>
        <time>2018-09-16T07:42:44Z</time>
      </trkpt>
      <trkpt lat="49.582462990656495" lon="9.380585979670286">
        <ele>401.49000000000001</ele>
        <time>2018-09-16T07:42:45Z</time>
      </trkpt>
      <trkpt lat="49.582484029233456" lon="9.380429992452264">
        <ele>401.00999999999999</ele>
        <time>2018-09-16T07:42:46Z</time>
      </trkpt>
      <trkpt lat="49.582531973719597" lon="9.380269981920719">
        <ele>400.52999999999997</ele>
        <time>2018-09-16T07:42:47Z</time>
      </trkpt>
      <trkpt lat="49.58260003477335" lon="9.380187001079321">
        <ele>400.52999999999997</ele>
        <time>2018-09-16T07:42:48Z</time>
      </trkpt>
      <trkpt lat="49.582663988694549" lon="9.380107959732413">
        <ele>400.05000000000001</ele>
        <time>2018-09-16T07:42:49Z</time>
      </trkpt>
      <trkpt lat="49.582749987021089" lon="9.380065966397524">
        <ele>400.05000000000001</ele>
        <time>2018-09-16T07:42:50Z</time>
      </trkpt>
      <trkpt lat="49.582832967862487" lon="9.380059009417892">
        <ele>400.05000000000001</ele>
        <time>2018-09-16T07:42:51Z</time>
      </trkpt>
      <trkpt lat="49.582955008372664" lon="9.380082981660962">
        <ele>399.56999999999999</ele>
        <time>2018-09-16T07:42:52Z</time>
      </trkpt>
      <trkpt lat="49.583042012527585" lon="9.380202004685998">
        <ele>400.05000000000001</ele>
        <time>2018-09-16T07:42:53Z</time>
      </trkpt>
      <trkpt lat="49.583141002804041" lon="9.380337037146092">
        <ele>399.56999999999999</ele>
        <time>2018-09-16T07:42:54Z</time>
      </trkpt>
      <trkpt lat="49.583242004737258" lon="9.380508027970791">
        <ele>399.07999999999998</ele>
        <time>2018-09-16T07:42:55Z</time>
      </trkpt>
      <trkpt lat="49.583349963650107" lon="9.380702991038561">
        <ele>398.60000000000002</ele>
        <time>2018-09-16T07:42:56Z</time>
      </trkpt>
      <trkpt lat="49.584353026002645" lon="9.382724035531282">
        <ele>400.52999999999997</ele>
        <time>2018-09-16T07:43:04Z</time>
      </trkpt>
      <trkpt lat="49.585304958745837" lon="9.385485034435988">
        <ele>402.93000000000001</ele>
        <time>2018-09-16T07:43:12Z</time>
      </trkpt>
      <trkpt lat="49.586808001622558" lon="9.390484001487494">
        <ele>405.32999999999998</ele>
        <time>2018-09-16T07:43:25Z</time>
      </trkpt>
      <trkpt lat="49.588200990110636" lon="9.393617995083332">
        <ele>406.29000000000002</ele>
        <time>2018-09-16T07:43:34Z</time>
      </trkpt>
      <trkpt lat="49.590502995997667" lon="9.397930987179279">
        <ele>415.91000000000003</ele>
        <time>2018-09-16T07:43:47Z</time>
      </trkpt>
      <trkpt lat="49.591570012271404" lon="9.40070103853941">
        <ele>424.56</ele>
        <time>2018-09-16T07:43:55Z</time>
      </trkpt>
      <trkpt lat="49.592450028285384" lon="9.403945002704859">
        <ele>429.37</ele>
        <time>2018-09-16T07:44:04Z</time>
      </trkpt>
      <trkpt lat="49.593637995421886" lon="9.409393994137645">
        <ele>430.81</ele>
        <time>2018-09-16T07:44:18Z</time>
      </trkpt>
      <trkpt lat="49.594619013369083" lon="9.413972022011876">
        <ele>431.29000000000002</ele>
        <time>2018-09-16T07:44:30Z</time>
      </trkpt>
      <trkpt lat="49.595519984140992" lon="9.416990010067821">
        <ele>428.39999999999998</ele>
        <time>2018-09-16T07:44:39Z</time>
      </trkpt>
      <trkpt lat="49.59678397513926" lon="9.4196090195328">
        <ele>423.12</ele>
        <time>2018-09-16T07:44:48Z</time>
      </trkpt>
      <trkpt lat="49.598340997472405" lon="9.421600978821516">
        <ele>416.87</ele>
        <time>2018-09-16T07:44:57Z</time>
      </trkpt>
      <trkpt lat="49.600050989538431" lon="9.423871971666813">
        <ele>406.76999999999998</ele>
        <time>2018-09-16T07:45:08Z</time>
      </trkpt>
      <trkpt lat="49.600644009187818" lon="9.424908980727196">
        <ele>401.49000000000001</ele>
        <time>2018-09-16T07:45:15Z</time>
      </trkpt>
      <trkpt lat="49.601510027423501" lon="9.426698014140129">
        <ele>396.19999999999999</ele>
        <time>2018-09-16T07:45:28Z</time>
      </trkpt>
      <trkpt lat="49.602174963802099" lon="9.428380010649562">
        <ele>396.19999999999999</ele>
        <time>2018-09-16T07:45:40Z</time>
      </trkpt>
      <trkpt lat="49.602610990405083" lon="9.429671997204423">
        <ele>393.31999999999999</ele>
        <time>2018-09-16T07:45:49Z</time>
      </trkpt>
      <trkpt lat="49.602913996204734" lon="9.430608004331589">
        <ele>392.36000000000001</ele>
        <time>2018-09-16T07:45:55Z</time>
      </trkpt>
      <trkpt lat="49.602967975661159" lon="9.430774971842766">
        <ele>392.83999999999997</ele>
        <time>2018-09-16T07:45:56Z</time>
      </trkpt>
      <trkpt lat="49.603022960945964" lon="9.430943029001355">
        <ele>393.31999999999999</ele>
        <time>2018-09-16T07:45:57Z</time>
      </trkpt>
      <trkpt lat="49.603385981172323" lon="9.431881969794631">
        <ele>393.31999999999999</ele>
        <time>2018-09-16T07:46:03Z</time>
      </trkpt>
      <trkpt lat="49.604169018566608" lon="9.433390041813254">
        <ele>393.31999999999999</ele>
        <time>2018-09-16T07:46:13Z</time>
      </trkpt>
      <trkpt lat="49.604862034320831" lon="9.434667024761438">
        <ele>391.87</ele>
        <time>2018-09-16T07:46:23Z</time>
      </trkpt>
      <trkpt lat="49.605622021481395" lon="9.436021959409118">
        <ele>390.43000000000001</ele>
        <time>2018-09-16T07:46:33Z</time>
      </trkpt>
      <trkpt lat="49.606100963428617" lon="9.436874985694885">
        <ele>385.63</ele>
        <time>2018-09-16T07:46:41Z</time>
      </trkpt>
      <trkpt lat="49.606140023097396" lon="9.436942040920258">
        <ele>384.66000000000003</ele>
        <time>2018-09-16T07:46:48Z</time>
      </trkpt>
      <trkpt lat="49.606218980625272" lon="9.437081012874842">
        <ele>382.74000000000001</ele>
        <time>2018-09-16T07:47:18Z</time>
      </trkpt>
      <trkpt lat="49.606267008930445" lon="9.43716399371624">
        <ele>381.77999999999997</ele>
        <time>2018-09-16T07:47:19Z</time>
      </trkpt>
      <trkpt lat="49.606326017528772" lon="9.437268013134599">
        <ele>381.30000000000001</ele>
        <time>2018-09-16T07:47:20Z</time>
      </trkpt>
      <trkpt lat="49.606799008324742" lon="9.438117016106844">
        <ele>379.38</ele>
        <time>2018-09-16T07:47:25Z</time>
      </trkpt>
      <trkpt lat="49.607492024078965" lon="9.439459964632988">
        <ele>375.52999999999997</ele>
        <time>2018-09-16T07:47:33Z</time>
      </trkpt>
      <trkpt lat="49.607908017933369" lon="9.441113965585828">
        <ele>372.17000000000002</ele>
        <time>2018-09-16T07:47:42Z</time>
      </trkpt>
      <trkpt lat="49.608258968219161" lon="9.443110032007098">
        <ele>368.80000000000001</ele>
        <time>2018-09-16T07:47:53Z</time>
      </trkpt>
      <trkpt lat="49.608579995110631" lon="9.444624977186322">
        <ele>367.83999999999997</ele>
        <time>2018-09-16T07:47:59Z</time>
      </trkpt>
      <trkpt lat="49.609078969806433" lon="9.447363009676337">
        <ele>363.04000000000002</ele>
        <time>2018-09-16T07:48:07Z</time>
      </trkpt>
      <trkpt lat="49.609364960342646" lon="9.450270021334291">
        <ele>360.63</ele>
        <time>2018-09-16T07:48:14Z</time>
      </trkpt>
      <trkpt lat="49.609594959765673" lon="9.453748008236289">
        <ele>358.70999999999998</ele>
        <time>2018-09-16T07:48:24Z</time>
      </trkpt>
      <trkpt lat="49.609302012249827" lon="9.456644961610436">
        <ele>349.57999999999998</ele>
        <time>2018-09-16T07:48:32Z</time>
      </trkpt>
      <trkpt lat="49.609412988647819" lon="9.458935987204313">
        <ele>341.41000000000003</ele>
        <time>2018-09-16T07:48:38Z</time>
      </trkpt>
      <trkpt lat="49.609444001689553" lon="9.46124997921288">
        <ele>331.31</ele>
        <time>2018-09-16T07:48:44Z</time>
      </trkpt>
      <trkpt lat="49.608880989253521" lon="9.464138969779015">
        <ele>316.41000000000003</ele>
        <time>2018-09-16T07:48:52Z</time>
      </trkpt>
      <trkpt lat="49.608786022290587" lon="9.464423032477498">
        <ele>314.49000000000001</ele>
        <time>2018-09-16T07:48:53Z</time>
      </trkpt>
      <trkpt lat="49.60866398178041" lon="9.464674992486835">
        <ele>313.05000000000001</ele>
        <time>2018-09-16T07:48:54Z</time>
      </trkpt>
      <trkpt lat="49.60851302370429" lon="9.464862998574972">
        <ele>311.12</ele>
        <time>2018-09-16T07:48:55Z</time>
      </trkpt>
      <trkpt lat="49.608354019001126" lon="9.465014040470123">
        <ele>309.68000000000001</ele>
        <time>2018-09-16T07:48:56Z</time>
      </trkpt>
      <trkpt lat="49.608196020126343" lon="9.465164998546243">
        <ele>308.24000000000001</ele>
        <time>2018-09-16T07:48:57Z</time>
      </trkpt>
      <trkpt lat="49.608038021251559" lon="9.465313022956252">
        <ele>306.80000000000001</ele>
        <time>2018-09-16T07:48:58Z</time>
      </trkpt>
      <trkpt lat="49.607599982991815" lon="9.465763969346881">
        <ele>301.99000000000001</ele>
        <time>2018-09-16T07:49:01Z</time>
      </trkpt>
      <trkpt lat="49.607492024078965" lon="9.465963961556554">
        <ele>300.55000000000001</ele>
        <time>2018-09-16T07:49:02Z</time>
      </trkpt>
      <trkpt lat="49.607388004660606" lon="9.466158002614975">
        <ele>299.11000000000001</ele>
        <time>2018-09-16T07:49:03Z</time>
      </trkpt>
      <trkpt lat="49.607293037697673" lon="9.466356988996267">
        <ele>297.67000000000002</ele>
        <time>2018-09-16T07:49:04Z</time>
      </trkpt>
      <trkpt lat="49.607230005785823" lon="9.466582965105772">
        <ele>296.22000000000003</ele>
        <time>2018-09-16T07:49:05Z</time>
      </trkpt>
      <trkpt lat="49.607189018279314" lon="9.466809025034308">
        <ele>294.77999999999997</ele>
        <time>2018-09-16T07:49:06Z</time>
      </trkpt>
      <trkpt lat="49.607167979702353" lon="9.467041958123446">
        <ele>293.81999999999999</ele>
        <time>2018-09-16T07:49:07Z</time>
      </trkpt>
      <trkpt lat="49.607148030772805" lon="9.467271035537124">
        <ele>292.86000000000001</ele>
        <time>2018-09-16T07:49:08Z</time>
      </trkpt>
      <trkpt lat="49.607134032994509" lon="9.467492988333106">
        <ele>291.89999999999998</ele>
        <time>2018-09-16T07:49:09Z</time>
      </trkpt>
      <trkpt lat="49.607134032994509" lon="9.467713013291359">
        <ele>290.94</ele>
        <time>2018-09-16T07:49:10Z</time>
      </trkpt>
      <trkpt lat="49.607104025781155" lon="9.468365041539073">
        <ele>288.52999999999997</ele>
        <time>2018-09-16T07:49:13Z</time>
      </trkpt>
      <trkpt lat="49.606908978894353" lon="9.469730034470558">
        <ele>284.20999999999998</ele>
        <time>2018-09-16T07:49:20Z</time>
      </trkpt>
      <trkpt lat="49.606758020818233" lon="9.470383990556002">
        <ele>282.27999999999997</ele>
        <time>2018-09-16T07:49:24Z</time>
      </trkpt>
      <trkpt lat="49.606718039140105" lon="9.470539977774024">
        <ele>281.31999999999999</ele>
        <time>2018-09-16T07:49:25Z</time>
      </trkpt>
      <trkpt lat="49.606505976989865" lon="9.471430974081159">
        <ele>276.51999999999998</ele>
        <time>2018-09-16T07:49:31Z</time>
      </trkpt>
      <trkpt lat="49.606500025838614" lon="9.471601964905858">
        <ele>275.56</ele>
        <time>2018-09-16T07:49:32Z</time>
      </trkpt>
      <trkpt lat="49.60649399086833" lon="9.471772033721209">
        <ele>274.58999999999997</ele>
        <time>2018-09-16T07:49:33Z</time>
      </trkpt>
      <trkpt lat="49.60649399086833" lon="9.471939001232386">
        <ele>273.63</ele>
        <time>2018-09-16T07:49:34Z</time>
      </trkpt>
      <trkpt lat="49.606502037495375" lon="9.472109992057085">
        <ele>272.67000000000002</ele>
        <time>2018-09-16T07:49:35Z</time>
      </trkpt>
      <trkpt lat="49.606510000303388" lon="9.472282994538546">
        <ele>272.19</ele>
        <time>2018-09-16T07:49:36Z</time>
      </trkpt>
      <trkpt lat="49.606518968939781" lon="9.472461026161909">
        <ele>271.70999999999998</ele>
        <time>2018-09-16T07:49:37Z</time>
      </trkpt>
      <trkpt lat="49.606528021395206" lon="9.472648026421666">
        <ele>271.23000000000002</ele>
        <time>2018-09-16T07:49:38Z</time>
      </trkpt>
      <trkpt lat="49.606533972546458" lon="9.472845001146197">
        <ele>270.75</ele>
        <time>2018-09-16T07:49:39Z</time>
      </trkpt>
      <trkpt lat="49.606484016403556" lon="9.473036024719477">
        <ele>270.26999999999998</ele>
        <time>2018-09-16T07:49:40Z</time>
      </trkpt>
      <trkpt lat="49.606434982270002" lon="9.473195029422641">
        <ele>269.79000000000002</ele>
        <time>2018-09-16T07:49:41Z</time>
      </trkpt>
      <trkpt lat="49.606392988935113" lon="9.473334001377225">
        <ele>269.79000000000002</ele>
        <time>2018-09-16T07:49:42Z</time>
      </trkpt>
      <trkpt lat="49.606353007256985" lon="9.473462998867035">
        <ele>270.26999999999998</ele>
        <time>2018-09-16T07:49:43Z</time>
      </trkpt>
      <trkpt lat="49.606314031407237" lon="9.473589984700084">
        <ele>270.26999999999998</ele>
        <time>2018-09-16T07:49:44Z</time>
      </trkpt>
      <trkpt lat="49.606274971738458" lon="9.473715964704752">
        <ele>271.23000000000002</ele>
        <time>2018-09-16T07:49:45Z</time>
      </trkpt>
      <trkpt lat="49.606237001717091" lon="9.473840016871691">
        <ele>271.23000000000002</ele>
        <time>2018-09-16T07:49:46Z</time>
      </trkpt>
      <trkpt lat="49.606128036975861" lon="9.474194990471005">
        <ele>272.19</ele>
        <time>2018-09-16T07:49:49Z</time>
      </trkpt>
      <trkpt lat="49.606115967035294" lon="9.474320970475674">
        <ele>272.19</ele>
        <time>2018-09-16T07:49:50Z</time>
      </trkpt>
      <trkpt lat="49.606144968420267" lon="9.474443010985851">
        <ele>271.70999999999998</ele>
        <time>2018-09-16T07:49:51Z</time>
      </trkpt>
      <trkpt lat="49.606175981462002" lon="9.474573014304042">
        <ele>271.70999999999998</ele>
        <time>2018-09-16T07:49:52Z</time>
      </trkpt>
      <trkpt lat="49.60621596314013" lon="9.474693965166807">
        <ele>271.23000000000002</ele>
        <time>2018-09-16T07:49:53Z</time>
      </trkpt>
      <trkpt lat="49.606268014758825" lon="9.474811982363462">
        <ele>271.23000000000002</ele>
        <time>2018-09-16T07:49:54Z</time>
      </trkpt>
      <trkpt lat="49.606458032503724" lon="9.475144995376468">
        <ele>270.75</ele>
        <time>2018-09-16T07:49:57Z</time>
      </trkpt>
      <trkpt lat="49.606530033051968" lon="9.475248008966446">
        <ele>270.75</ele>
        <time>2018-09-16T07:49:58Z</time>
      </trkpt>
      <trkpt lat="49.606598010286689" lon="9.47534297592938">
        <ele>271.23000000000002</ele>
        <time>2018-09-16T07:49:59Z</time>
      </trkpt>
      <trkpt lat="49.606685014441609" lon="9.475377006456256">
        <ele>271.23000000000002</ele>
        <time>2018-09-16T07:50:00Z</time>
      </trkpt>
      <trkpt lat="49.606777969747782" lon="9.475412964820862">
        <ele>271.70999999999998</ele>
        <time>2018-09-16T07:50:01Z</time>
      </trkpt>
      <trkpt lat="49.606870003044605" lon="9.475449007004499">
        <ele>271.70999999999998</ele>
        <time>2018-09-16T07:50:02Z</time>
      </trkpt>
      <trkpt lat="49.606954995542765" lon="9.475482031702995">
        <ele>272.19</ele>
        <time>2018-09-16T07:50:03Z</time>
      </trkpt>
      <trkpt lat="49.60703001357615" lon="9.475482031702995">
        <ele>272.67000000000002</ele>
        <time>2018-09-16T07:50:04Z</time>
      </trkpt>
      <trkpt lat="49.607120035216212" lon="9.475459987297654">
        <ele>272.67000000000002</ele>
        <time>2018-09-16T07:50:05Z</time>
      </trkpt>
      <trkpt lat="49.607205027714372" lon="9.475416988134384">
        <ele>272.67000000000002</ele>
        <time>2018-09-16T07:50:06Z</time>
      </trkpt>
      <trkpt lat="49.607299994677305" lon="9.475351022556424">
        <ele>273.14999999999998</ele>
        <time>2018-09-16T07:50:07Z</time>
      </trkpt>
      <trkpt lat="49.607391022145748" lon="9.475287990644574">
        <ele>273.14999999999998</ele>
        <time>2018-09-16T07:50:08Z</time>
      </trkpt>
      <trkpt lat="49.60746101103723" lon="9.475224958732724">
        <ele>272.67000000000002</ele>
        <time>2018-09-16T07:50:09Z</time>
      </trkpt>
      <trkpt lat="49.607527982443571" lon="9.475143989548087">
        <ele>272.67000000000002</ele>
        <time>2018-09-16T07:50:10Z</time>
      </trkpt>
      <trkpt lat="49.607595037668943" lon="9.47506302036345">
        <ele>272.19</ele>
        <time>2018-09-16T07:50:11Z</time>
      </trkpt>
      <trkpt lat="49.607663014903665" lon="9.474980039522052">
        <ele>271.70999999999998</ele>
        <time>2018-09-16T07:50:12Z</time>
      </trkpt>
      <trkpt lat="49.607728980481625" lon="9.474899992346764">
        <ele>271.23000000000002</ele>
        <time>2018-09-16T07:50:13Z</time>
      </trkpt>
      <trkpt lat="49.607792012393475" lon="9.474822040647268">
        <ele>271.23000000000002</ele>
        <time>2018-09-16T07:50:14Z</time>
      </trkpt>
      <trkpt lat="49.6079340018332" lon="9.47465498931706">
        <ele>271.23000000000002</ele>
        <time>2018-09-16T07:50:16Z</time>
      </trkpt>
      <trkpt lat="49.608087977394462" lon="9.474598998203874">
        <ele>271.23000000000002</ele>
        <time>2018-09-16T07:50:18Z</time>
      </trkpt>
      <trkpt lat="49.608159977942705" lon="9.474572008475661">
        <ele>271.70999999999998</ele>
        <time>2018-09-16T07:50:19Z</time>
      </trkpt>
      <trkpt lat="49.608246982097626" lon="9.474674016237259">
        <ele>272.19</ele>
        <time>2018-09-16T07:50:20Z</time>
      </trkpt>
      <trkpt lat="49.608308002352715" lon="9.474750040099025">
        <ele>273.14999999999998</ele>
        <time>2018-09-16T07:50:21Z</time>
      </trkpt>
      <trkpt lat="49.608361981809139" lon="9.474875014275312">
        <ele>273.63</ele>
        <time>2018-09-16T07:50:22Z</time>
      </trkpt>
      <trkpt lat="49.608401041477919" lon="9.475010968744755">
        <ele>274.11000000000001</ele>
        <time>2018-09-16T07:50:23Z</time>
      </trkpt>
      <trkpt lat="49.608443034812808" lon="9.475156981498003">
        <ele>275.06999999999999</ele>
        <time>2018-09-16T07:50:24Z</time>
      </trkpt>
      <trkpt lat="49.608486033976078" lon="9.475305005908012">
        <ele>276.04000000000002</ele>
        <time>2018-09-16T07:50:25Z</time>
      </trkpt>
      <trkpt lat="49.608573038130999" lon="9.475603988394141">
        <ele>277.48000000000002</ele>
        <time>2018-09-16T07:50:27Z</time>
      </trkpt>
      <trkpt lat="49.608615031465888" lon="9.47575100697577">
        <ele>277.95999999999998</ele>
        <time>2018-09-16T07:50:28Z</time>
      </trkpt>
      <trkpt lat="49.60868401452899" lon="9.475846979767084">
        <ele>278.44</ele>
        <time>2018-09-16T07:50:29Z</time>
      </trkpt>
      <trkpt lat="49.608828015625477" lon="9.476047977805138">
        <ele>279.88</ele>
        <time>2018-09-16T07:50:31Z</time>
      </trkpt>
      <trkpt lat="49.608902027830482" lon="9.476150991395116">
        <ele>280.36000000000001</ele>
        <time>2018-09-16T07:50:32Z</time>
      </trkpt>
      <trkpt lat="49.608976962044835" lon="9.476255010813475">
        <ele>280.36000000000001</ele>
        <time>2018-09-16T07:50:33Z</time>
      </trkpt>
      <trkpt lat="49.609700990840793" lon="9.477639030665159">
        <ele>282.27999999999997</ele>
        <time>2018-09-16T07:50:44Z</time>
      </trkpt>
      <trkpt lat="49.610069962218404" lon="9.478875026106834">
        <ele>283.25</ele>
        <time>2018-09-16T07:50:52Z</time>
      </trkpt>
      <trkpt lat="49.610261991620064" lon="9.47966200299561">
        <ele>283.73000000000002</ele>
        <time>2018-09-16T07:50:57Z</time>
      </trkpt>
      <trkpt lat="49.610519986599684" lon="9.481963003054261">
        <ele>290.45999999999998</ele>
        <time>2018-09-16T07:51:09Z</time>
      </trkpt>
      <trkpt lat="49.610873032361269" lon="9.483742984011769">
        <ele>291.89999999999998</ele>
        <time>2018-09-16T07:51:15Z</time>
      </trkpt>
      <trkpt lat="49.611639976501465" lon="9.486221009865403">
        <ele>294.77999999999997</ele>
        <time>2018-09-16T07:51:25Z</time>
      </trkpt>
      <trkpt lat="49.612197959795594" lon="9.487938964739442">
        <ele>297.18000000000001</ele>
        <time>2018-09-16T07:51:33Z</time>
      </trkpt>
      <trkpt lat="49.612766001373529" lon="9.490104010328651">
        <ele>300.55000000000001</ele>
        <time>2018-09-16T07:51:40Z</time>
      </trkpt>
      <trkpt lat="49.613120974972844" lon="9.493131972849369">
        <ele>304.38999999999999</ele>
        <time>2018-09-16T07:51:48Z</time>
      </trkpt>
      <trkpt lat="49.613708965480328" lon="9.496517004445195">
        <ele>305.83999999999997</ele>
        <time>2018-09-16T07:51:57Z</time>
      </trkpt>
      <trkpt lat="49.614570960402489" lon="9.498469987884164">
        <ele>303.91000000000003</ele>
        <time>2018-09-16T07:52:03Z</time>
      </trkpt>
      <trkpt lat="49.614743962883949" lon="9.49876100756228">
        <ele>303.43000000000001</ele>
        <time>2018-09-16T07:52:04Z</time>
      </trkpt>
      <trkpt lat="49.616339039057493" lon="9.501321008428931">
        <ele>301.50999999999999</ele>
        <time>2018-09-16T07:52:13Z</time>
      </trkpt>
      <trkpt lat="49.617059966549277" lon="9.503369964659214">
        <ele>303.43000000000001</ele>
        <time>2018-09-16T07:52:19Z</time>
      </trkpt>
      <trkpt lat="49.617388034239411" lon="9.505991991609335">
        <ele>307.75999999999999</ele>
        <time>2018-09-16T07:52:26Z</time>
      </trkpt>
      <trkpt lat="49.617172032594681" lon="9.509001011028886">
        <ele>312.08999999999997</ele>
        <time>2018-09-16T07:52:34Z</time>
      </trkpt>
      <trkpt lat="49.61710698902607" lon="9.512284034863114">
        <ele>314.49000000000001</ele>
        <time>2018-09-16T07:52:43Z</time>
      </trkpt>
      <trkpt lat="49.617469003424048" lon="9.51513497158885">
        <ele>319.30000000000001</ele>
        <time>2018-09-16T07:52:51Z</time>
      </trkpt>
      <trkpt lat="49.618237037211657" lon="9.518500976264477">
        <ele>328.91000000000003</ele>
        <time>2018-09-16T07:53:01Z</time>
      </trkpt>
      <trkpt lat="49.618386989459395" lon="9.521033987402916">
        <ele>337.56</ele>
        <time>2018-09-16T07:53:08Z</time>
      </trkpt>
      <trkpt lat="49.617996979504824" lon="9.523506984114647">
        <ele>344.76999999999998</ele>
        <time>2018-09-16T07:53:15Z</time>
      </trkpt>
      <trkpt lat="49.617176977917552" lon="9.525981992483139">
        <ele>352.45999999999998</ele>
        <time>2018-09-16T07:53:23Z</time>
      </trkpt>
      <trkpt lat="49.61680599488318" lon="9.528094986453652">
        <ele>358.70999999999998</ele>
        <time>2018-09-16T07:53:30Z</time>
      </trkpt>
      <trkpt lat="49.616822004318237" lon="9.530057022348046">
        <ele>364</ele>
        <time>2018-09-16T07:53:37Z</time>
      </trkpt>
      <trkpt lat="49.616855029016733" lon="9.530321974307299">
        <ele>364.95999999999998</ele>
        <time>2018-09-16T07:53:38Z</time>
      </trkpt>
      <trkpt lat="49.617330031469464" lon="9.532358022406697">
        <ele>368.80000000000001</ele>
        <time>2018-09-16T07:53:46Z</time>
      </trkpt>
      <trkpt lat="49.618210969492793" lon="9.534458024427295">
        <ele>371.69</ele>
        <time>2018-09-16T07:53:55Z</time>
      </trkpt>
      <trkpt lat="49.618908008560538" lon="9.536632038652897">
        <ele>369.27999999999997</ele>
        <time>2018-09-16T07:54:04Z</time>
      </trkpt>
      <trkpt lat="49.618962993845344" lon="9.538479996845126">
        <ele>362.06999999999999</ele>
        <time>2018-09-16T07:54:11Z</time>
      </trkpt>
      <trkpt lat="49.618523027747869" lon="9.540016986429691">
        <ele>355.82999999999998</ele>
        <time>2018-09-16T07:54:17Z</time>
      </trkpt>
      <trkpt lat="49.618402998894453" lon="9.540244974195957">
        <ele>354.86000000000001</ele>
        <time>2018-09-16T07:54:18Z</time>
      </trkpt>
      <trkpt lat="49.618283975869417" lon="9.540472961962223">
        <ele>353.89999999999998</ele>
        <time>2018-09-16T07:54:19Z</time>
      </trkpt>
      <trkpt lat="49.617839986458421" lon="9.541129013523459">
        <ele>351.01999999999998</ele>
        <time>2018-09-16T07:54:22Z</time>
      </trkpt>
      <trkpt lat="49.617635970935225" lon="9.541311990469694">
        <ele>350.06</ele>
        <time>2018-09-16T07:54:23Z</time>
      </trkpt>
      <trkpt lat="49.617416029796004" lon="9.541474012658">
        <ele>349.10000000000002</ele>
        <time>2018-09-16T07:54:24Z</time>
      </trkpt>
      <trkpt lat="49.617181001231074" lon="9.541618013754487">
        <ele>348.13</ele>
        <time>2018-09-16T07:54:25Z</time>
      </trkpt>
      <trkpt lat="49.616931974887848" lon="9.541751034557819">
        <ele>346.69</ele>
        <time>2018-09-16T07:54:26Z</time>
      </trkpt>
      <trkpt lat="49.616667022928596" lon="9.541824962943792">
        <ele>345.25</ele>
        <time>2018-09-16T07:54:27Z</time>
      </trkpt>
      <trkpt lat="49.616403998807073" lon="9.54184097237885">
        <ele>344.29000000000002</ele>
        <time>2018-09-16T07:54:28Z</time>
      </trkpt>
      <trkpt lat="49.616149021312594" lon="9.541856981813908">
        <ele>342.85000000000002</ele>
        <time>2018-09-16T07:54:29Z</time>
      </trkpt>
      <trkpt lat="49.614824010059237" lon="9.54203300178051">
        <ele>334.68000000000001</ele>
        <time>2018-09-16T07:54:35Z</time>
      </trkpt>
      <trkpt lat="49.614644972607493" lon="9.542077006772161">
        <ele>333.23000000000002</ele>
        <time>2018-09-16T07:54:36Z</time>
      </trkpt>
      <trkpt lat="49.614482028409839" lon="9.542180020362139">
        <ele>331.79000000000002</ele>
        <time>2018-09-16T07:54:37Z</time>
      </trkpt>
      <trkpt lat="49.614317994564772" lon="9.542284039780498">
        <ele>330.82999999999998</ele>
        <time>2018-09-16T07:54:38Z</time>
      </trkpt>
      <trkpt lat="49.614153960719705" lon="9.542386969551444">
        <ele>329.87</ele>
        <time>2018-09-16T07:54:39Z</time>
      </trkpt>
      <trkpt lat="49.613994034007192" lon="9.542491994798183">
        <ele>328.91000000000003</ele>
        <time>2018-09-16T07:54:40Z</time>
      </trkpt>
      <trkpt lat="49.613851038739085" lon="9.542657034471631">
        <ele>328.43000000000001</ele>
        <time>2018-09-16T07:54:41Z</time>
      </trkpt>
      <trkpt lat="49.613707037642598" lon="9.542821990326047">
        <ele>327.47000000000003</ele>
        <time>2018-09-16T07:54:42Z</time>
      </trkpt>
      <trkpt lat="49.613555995747447" lon="9.542994992807508">
        <ele>326.5</ele>
        <time>2018-09-16T07:54:43Z</time>
      </trkpt>
      <trkpt lat="49.61339196190238" lon="9.543204959481955">
        <ele>325.06</ele>
        <time>2018-09-16T07:54:44Z</time>
      </trkpt>
      <trkpt lat="49.612955013290048" lon="9.544187989085913">
        <ele>321.69999999999999</ele>
        <time>2018-09-16T07:54:47Z</time>
      </trkpt>
      <trkpt lat="49.612850993871689" lon="9.544596020132303">
        <ele>320.74000000000001</ele>
        <time>2018-09-16T07:54:48Z</time>
      </trkpt>
      <trkpt lat="49.612744962796569" lon="9.545018970966339">
        <ele>318.81</ele>
        <time>2018-09-16T07:54:49Z</time>
      </trkpt>
      <trkpt lat="49.612658964470029" lon="9.545456003397703">
        <ele>317.37</ele>
        <time>2018-09-16T07:54:50Z</time>
      </trkpt>
      <trkpt lat="49.612624011933804" lon="9.545905021950603">
        <ele>315.93000000000001</ele>
        <time>2018-09-16T07:54:51Z</time>
      </trkpt>
      <trkpt lat="49.612588975578547" lon="9.546342976391316">
        <ele>314.97000000000003</ele>
        <time>2018-09-16T07:54:52Z</time>
      </trkpt>
      <trkpt lat="49.612565003335476" lon="9.546758970245719">
        <ele>313.52999999999997</ele>
        <time>2018-09-16T07:54:53Z</time>
      </trkpt>
      <trkpt lat="49.612575983628631" lon="9.547162977978587">
        <ele>312.08999999999997</ele>
        <time>2018-09-16T07:54:54Z</time>
      </trkpt>
      <trkpt lat="49.612623006105423" lon="9.549146974459291">
        <ele>305.83999999999997</ele>
        <time>2018-09-16T07:55:00Z</time>
      </trkpt>
      <trkpt lat="49.612485961988568" lon="9.551052013412118">
        <ele>298.14999999999998</ele>
        <time>2018-09-16T07:55:08Z</time>
      </trkpt>
      <trkpt lat="49.612087989225984" lon="9.552955962717533">
        <ele>293.33999999999997</ele>
        <time>2018-09-16T07:55:18Z</time>
      </trkpt>
      <trkpt lat="49.611516008153558" lon="9.554940965026617">
        <ele>289.97000000000003</ele>
        <time>2018-09-16T07:55:27Z</time>
      </trkpt>
      <trkpt lat="49.611104037612677" lon="9.557356964796782">
        <ele>283.73000000000002</ele>
        <time>2018-09-16T07:55:35Z</time>
      </trkpt>
      <trkpt lat="49.611277040094137" lon="9.559642039239407">
        <ele>277.95999999999998</ele>
        <time>2018-09-16T07:55:42Z</time>
      </trkpt>
      <trkpt lat="49.611753970384598" lon="9.561443980783224">
        <ele>274.58999999999997</ele>
        <time>2018-09-16T07:55:47Z</time>
      </trkpt>
      <trkpt lat="49.612885024398565" lon="9.563902979716659">
        <ele>270.75</ele>
        <time>2018-09-16T07:55:53Z</time>
      </trkpt>
      <trkpt lat="49.613952962681651" lon="9.566086968407035">
        <ele>267.38</ele>
        <time>2018-09-16T07:55:59Z</time>
      </trkpt>
      <trkpt lat="49.614604990929365" lon="9.5684580411762">
        <ele>262.57999999999998</ele>
        <time>2018-09-16T07:56:05Z</time>
      </trkpt>
      <trkpt lat="49.614650001749396" lon="9.570539016276598">
        <ele>258.25</ele>
        <time>2018-09-16T07:56:10Z</time>
      </trkpt>
      <trkpt lat="49.614253034815192" lon="9.572963984683156">
        <ele>253.44</ele>
        <time>2018-09-16T07:56:16Z</time>
      </trkpt>
      <trkpt lat="49.613360026851296" lon="9.57651799544692">
        <ele>247.68000000000001</ele>
        <time>2018-09-16T07:56:25Z</time>
      </trkpt>
      <trkpt lat="49.612998012453318" lon="9.579813005402684">
        <ele>244.31</ele>
        <time>2018-09-16T07:56:33Z</time>
      </trkpt>
      <trkpt lat="49.613103037700057" lon="9.582099001854658">
        <ele>240.94999999999999</ele>
        <time>2018-09-16T07:56:39Z</time>
      </trkpt>
      <trkpt lat="49.613318033516407" lon="9.583117989823222">
        <ele>239.50999999999999</ele>
        <time>2018-09-16T07:56:43Z</time>
      </trkpt>
      <trkpt lat="49.614129988476634" lon="9.585056975483894">
        <ele>238.06</ele>
        <time>2018-09-16T07:56:49Z</time>
      </trkpt>
      <trkpt lat="49.615308986976743" lon="9.586926978081465">
        <ele>238.06</ele>
        <time>2018-09-16T07:56:58Z</time>
      </trkpt>
      <trkpt lat="49.615898989140987" lon="9.588797986507416">
        <ele>239.99000000000001</ele>
        <time>2018-09-16T07:57:05Z</time>
      </trkpt>
      <trkpt lat="49.616047013550997" lon="9.590549971908331">
        <ele>242.87</ele>
        <time>2018-09-16T07:57:11Z</time>
      </trkpt>
      <trkpt lat="49.616078026592731" lon="9.592920960858464">
        <ele>246.72</ele>
        <time>2018-09-16T07:57:19Z</time>
      </trkpt>
      <trkpt lat="49.616540037095547" lon="9.596146987751126">
        <ele>249.59999999999999</ele>
        <time>2018-09-16T07:57:30Z</time>
      </trkpt>
      <trkpt lat="49.617380993440747" lon="9.599273018538952">
        <ele>244.78999999999999</ele>
        <time>2018-09-16T07:57:41Z</time>
      </trkpt>
      <trkpt lat="49.61822597309947" lon="9.600912015885115">
        <ele>237.58000000000001</ele>
        <time>2018-09-16T07:57:48Z</time>
      </trkpt>
      <trkpt lat="49.619230963289738" lon="9.6028140373528">
        <ele>231.81</ele>
        <time>2018-09-16T07:57:56Z</time>
      </trkpt>
      <trkpt lat="49.619674030691385" lon="9.604824017733336">
        <ele>227.97</ele>
        <time>2018-09-16T07:58:03Z</time>
      </trkpt>
      <trkpt lat="49.619706971570849" lon="9.607537994161248">
        <ele>224.12</ele>
        <time>2018-09-16T07:58:12Z</time>
      </trkpt>
      <trkpt lat="49.619575040414929" lon="9.611644959077239">
        <ele>218.84</ele>
        <time>2018-09-16T07:58:25Z</time>
      </trkpt>
      <trkpt lat="49.619451994076371" lon="9.614762021228671">
        <ele>216.43000000000001</ele>
        <time>2018-09-16T07:58:32Z</time>
      </trkpt>
      <trkpt lat="49.618965005502105" lon="9.618104975670576">
        <ele>214.99000000000001</ele>
        <time>2018-09-16T07:58:40Z</time>
      </trkpt>
      <trkpt lat="49.618075015023351" lon="9.620758015662432">
        <ele>214.03</ele>
        <time>2018-09-16T07:58:47Z</time>
      </trkpt>
      <trkpt lat="49.616400981321931" lon="9.623756976798177">
        <ele>212.11000000000001</ele>
        <time>2018-09-16T07:58:56Z</time>
      </trkpt>
      <trkpt lat="49.61414398625493" lon="9.627674007788301">
        <ele>211.15000000000001</ele>
        <time>2018-09-16T07:59:08Z</time>
      </trkpt>
      <trkpt lat="49.612799026072025" lon="9.629278974607587">
        <ele>210.66999999999999</ele>
        <time>2018-09-16T07:59:14Z</time>
      </trkpt>
      <trkpt lat="49.610938997939229" lon="9.630441963672638">
        <ele>209.69999999999999</ele>
        <time>2018-09-16T07:59:21Z</time>
      </trkpt>
      <trkpt lat="49.609187012538314" lon="9.632020024582744">
        <ele>207.30000000000001</ele>
        <time>2018-09-16T07:59:28Z</time>
      </trkpt>
      <trkpt lat="49.607221959158778" lon="9.634693013504148">
        <ele>206.34</ele>
        <time>2018-09-16T07:59:37Z</time>
      </trkpt>
      <trkpt lat="49.606109010055661" lon="9.637173973023891">
        <ele>204.41999999999999</ele>
        <time>2018-09-16T07:59:44Z</time>
      </trkpt>
      <trkpt lat="49.605649011209607" lon="9.639098038896918">
        <ele>202.00999999999999</ele>
        <time>2018-09-16T07:59:50Z</time>
      </trkpt>
      <trkpt lat="49.605491012334824" lon="9.641584027558565">
        <ele>199.61000000000001</ele>
        <time>2018-09-16T07:59:59Z</time>
      </trkpt>
      <trkpt lat="49.605769962072372" lon="9.643595013767481">
        <ele>197.21000000000001</ele>
        <time>2018-09-16T08:00:07Z</time>
      </trkpt>
      <trkpt lat="49.606419978663325" lon="9.645379018038511">
        <ele>195.77000000000001</ele>
        <time>2018-09-16T08:00:14Z</time>
      </trkpt>
      <trkpt lat="49.607572993263602" lon="9.647022960707545">
        <ele>194.31999999999999</ele>
        <time>2018-09-16T08:00:20Z</time>
      </trkpt>
      <trkpt lat="49.609405025839806" lon="9.648499013856053">
        <ele>193.36000000000001</ele>
        <time>2018-09-16T08:00:27Z</time>
      </trkpt>
      <trkpt lat="49.612025041133165" lon="9.65023297816515">
        <ele>190.96000000000001</ele>
        <time>2018-09-16T08:00:37Z</time>
      </trkpt>
      <trkpt lat="49.613860007375479" lon="9.65203600935638">
        <ele>190.47999999999999</ele>
        <time>2018-09-16T08:00:45Z</time>
      </trkpt>
      <trkpt lat="49.615587014704943" lon="9.654351007193327">
        <ele>189.52000000000001</ele>
        <time>2018-09-16T08:00:54Z</time>
      </trkpt>
      <trkpt lat="49.616478011012077" lon="9.65612000785768">
        <ele>188.08000000000001</ele>
        <time>2018-09-16T08:01:01Z</time>
      </trkpt>
      <trkpt lat="49.617327013984323" lon="9.658763995394111">
        <ele>185.66999999999999</ele>
        <time>2018-09-16T08:01:11Z</time>
      </trkpt>
      <trkpt lat="49.617560030892491" lon="9.660861985757947">
        <ele>186.15000000000001</ele>
        <time>2018-09-16T08:01:17Z</time>
      </trkpt>
      <trkpt lat="49.617883991450071" lon="9.665021002292633">
        <ele>185.19</ele>
        <time>2018-09-16T08:01:28Z</time>
      </trkpt>
      <trkpt lat="49.618249023333192" lon="9.667017990723252">
        <ele>184.71000000000001</ele>
        <time>2018-09-16T08:01:35Z</time>
      </trkpt>
      <trkpt lat="49.618985960260034" lon="9.668832002207637">
        <ele>187.11000000000001</ele>
        <time>2018-09-16T08:01:43Z</time>
      </trkpt>
      <trkpt lat="49.619666989892721" lon="9.669813020154834">
        <ele>190</ele>
        <time>2018-09-16T08:01:50Z</time>
      </trkpt>
      <trkpt lat="49.619837980717421" lon="9.670007983222604">
        <ele>190.96000000000001</ele>
        <time>2018-09-16T08:01:52Z</time>
      </trkpt>
      <trkpt lat="49.619905035942793" lon="9.670075038447976">
        <ele>190.96000000000001</ele>
        <time>2018-09-16T08:01:53Z</time>
      </trkpt>
      <trkpt lat="49.619893971830606" lon="9.670394975692034">
        <ele>190.96000000000001</ele>
        <time>2018-09-16T08:01:54Z</time>
      </trkpt>
      <trkpt lat="49.619843009859324" lon="9.670490026473999">
        <ele>190.96000000000001</ele>
        <time>2018-09-16T08:01:55Z</time>
      </trkpt>
      <trkpt lat="49.6197509765625" lon="9.670553980395198">
        <ele>190.96000000000001</ele>
        <time>2018-09-16T08:01:56Z</time>
      </trkpt>
      <trkpt lat="49.619658021256328" lon="9.670610977336764">
        <ele>190.47999999999999</ele>
        <time>2018-09-16T08:01:57Z</time>
      </trkpt>
      <trkpt lat="49.619545033201575" lon="9.670677026733756">
        <ele>190</ele>
        <time>2018-09-16T08:01:58Z</time>
      </trkpt>
      <trkpt lat="49.618864003568888" lon="9.670768976211548">
        <ele>186.15000000000001</ele>
        <time>2018-09-16T08:02:03Z</time>
      </trkpt>
      <trkpt lat="49.618729976937175" lon="9.670751038938761">
        <ele>185.66999999999999</ele>
        <time>2018-09-16T08:02:04Z</time>
      </trkpt>
      <trkpt lat="49.618629980832338" lon="9.670696975663304">
        <ele>185.19</ele>
        <time>2018-09-16T08:02:05Z</time>
      </trkpt>
      <trkpt lat="49.618554040789604" lon="9.670654982328415">
        <ele>184.71000000000001</ele>
        <time>2018-09-16T08:02:06Z</time>
      </trkpt>
      <trkpt lat="49.618490003049374" lon="9.670608965680003">
        <ele>184.22999999999999</ele>
        <time>2018-09-16T08:02:07Z</time>
      </trkpt>
      <trkpt lat="49.618454966694117" lon="9.670566972345114">
        <ele>183.75</ele>
        <time>2018-09-16T08:02:08Z</time>
      </trkpt>
      <trkpt lat="49.618429988622665" lon="9.67053797096014">
        <ele>183.27000000000001</ele>
        <time>2018-09-16T08:02:09Z</time>
      </trkpt>
      <trkpt lat="49.618429988622665" lon="9.67053797096014">
        <ele>182.78999999999999</ele>
        <time>2018-09-16T08:02:10Z</time>
      </trkpt>
      <trkpt lat="49.618429988622665" lon="9.67053797096014">
        <ele>182.31</ele>
        <time>2018-09-16T08:02:24Z</time>
      </trkpt>
      <trkpt lat="49.618294034153223" lon="9.670289028435946">
        <ele>181.83000000000001</ele>
        <time>2018-09-16T08:02:31Z</time>
      </trkpt>
      <trkpt lat="49.618270983919501" lon="9.670243011787534">
        <ele>182.31</ele>
        <time>2018-09-16T08:02:32Z</time>
      </trkpt>
      <trkpt lat="49.618257991969585" lon="9.670253992080689">
        <ele>182.31</ele>
        <time>2018-09-16T08:02:33Z</time>
      </trkpt>
      <trkpt lat="49.618198983371258" lon="9.670305037871003">
        <ele>182.31</ele>
        <time>2018-09-16T08:02:34Z</time>
      </trkpt>
      <trkpt lat="49.618124971166253" lon="9.670366980135441">
        <ele>182.78999999999999</ele>
        <time>2018-09-16T08:02:35Z</time>
      </trkpt>
      <trkpt lat="49.617349980399013" lon="9.671107018366456">
        <ele>182.78999999999999</ele>
        <time>2018-09-16T08:02:42Z</time>
      </trkpt>
      <trkpt lat="49.616018012166023" lon="9.672861015424132">
        <ele>182.31</ele>
        <time>2018-09-16T08:02:51Z</time>
      </trkpt>
      <trkpt lat="49.615002041682601" lon="9.674636973068118">
        <ele>184.22999999999999</ele>
        <time>2018-09-16T08:02:58Z</time>
      </trkpt>
      <trkpt lat="49.613320967182517" lon="9.677724028006196">
        <ele>189.52000000000001</ele>
        <time>2018-09-16T08:03:08Z</time>
      </trkpt>
      <trkpt lat="49.61109297350049" lon="9.681892013177276">
        <ele>200.09</ele>
        <time>2018-09-16T08:03:21Z</time>
      </trkpt>
      <trkpt lat="49.608644032850862" lon="9.686182960867882">
        <ele>208.74000000000001</ele>
        <time>2018-09-16T08:03:35Z</time>
      </trkpt>
      <trkpt lat="49.606950972229242" lon="9.688280029222369">
        <ele>211.63</ele>
        <time>2018-09-16T08:03:43Z</time>
      </trkpt>
      <trkpt lat="49.603971038013697" lon="9.69141997396946">
        <ele>221.24000000000001</ele>
        <time>2018-09-16T08:03:56Z</time>
      </trkpt>
      <trkpt lat="49.602485010400414" lon="9.693931024521589">
        <ele>227.97</ele>
        <time>2018-09-16T08:04:04Z</time>
      </trkpt>
      <trkpt lat="49.600898986682296" lon="9.69706803560257">
        <ele>231.81</ele>
        <time>2018-09-16T08:04:13Z</time>
      </trkpt>
      <trkpt lat="49.599179020151496" lon="9.699485041201115">
        <ele>231.81</ele>
        <time>2018-09-16T08:04:21Z</time>
      </trkpt>
      <trkpt lat="49.59746802225709" lon="9.701069975271821">
        <ele>229.88999999999999</ele>
        <time>2018-09-16T08:04:28Z</time>
      </trkpt>
      <trkpt lat="49.59467701613903" lon="9.703047014772892">
        <ele>223.63999999999999</ele>
        <time>2018-09-16T08:04:39Z</time>
      </trkpt>
      <trkpt lat="49.591227024793625" lon="9.704902013763785">
        <ele>217.88</ele>
        <time>2018-09-16T08:04:52Z</time>
      </trkpt>
      <trkpt lat="49.588299980387092" lon="9.705943968147039">
        <ele>212.59</ele>
        <time>2018-09-16T08:05:03Z</time>
      </trkpt>
      <trkpt lat="49.585537975654006" lon="9.706727005541325">
        <ele>208.25999999999999</ele>
        <time>2018-09-16T08:05:15Z</time>
      </trkpt>
      <trkpt lat="49.5831189583987" lon="9.707591012120247">
        <ele>202.00999999999999</ele>
        <time>2018-09-16T08:05:26Z</time>
      </trkpt>
      <trkpt lat="49.58228001371026" lon="9.708189982920885">
        <ele>195.28</ele>
        <time>2018-09-16T08:05:32Z</time>
      </trkpt>
      <trkpt lat="49.580700024962425" lon="9.709284994751215">
        <ele>190.96000000000001</ele>
        <time>2018-09-16T08:05:44Z</time>
      </trkpt>
      <trkpt lat="49.579678019508719" lon="9.709611972793937">
        <ele>189.03999999999999</ele>
        <time>2018-09-16T08:05:53Z</time>
      </trkpt>
      <trkpt lat="49.578700019046664" lon="9.709881031885743">
        <ele>188.56</ele>
        <time>2018-09-16T08:06:02Z</time>
      </trkpt>
      <trkpt lat="49.578143041580915" lon="9.710083035752177">
        <ele>189.03999999999999</ele>
        <time>2018-09-16T08:06:11Z</time>
      </trkpt>
      <trkpt lat="49.57748900167644" lon="9.710428034886718">
        <ele>189.52000000000001</ele>
        <time>2018-09-16T08:06:16Z</time>
      </trkpt>
      <trkpt lat="49.576086038723588" lon="9.711004039272666">
        <ele>190.47999999999999</ele>
        <time>2018-09-16T08:06:23Z</time>
      </trkpt>
      <trkpt lat="49.574654996395111" lon="9.711333028972149">
        <ele>190.47999999999999</ele>
        <time>2018-09-16T08:06:30Z</time>
      </trkpt>
      <trkpt lat="49.572967970743775" lon="9.711987990885973">
        <ele>189.52000000000001</ele>
        <time>2018-09-16T08:06:40Z</time>
      </trkpt>
      <trkpt lat="49.570995038375258" lon="9.712978983297944">
        <ele>189.03999999999999</ele>
        <time>2018-09-16T08:06:54Z</time>
      </trkpt>
      <trkpt lat="49.569232994690537" lon="9.713784987106919">
        <ele>188.08000000000001</ele>
        <time>2018-09-16T08:07:05Z</time>
      </trkpt>
      <trkpt lat="49.567293003201485" lon="9.714358979836106">
        <ele>188.56</ele>
        <time>2018-09-16T08:07:14Z</time>
      </trkpt>
      <trkpt lat="49.565680995583534" lon="9.715274032205343">
        <ele>190</ele>
        <time>2018-09-16T08:07:20Z</time>
      </trkpt>
      <trkpt lat="49.564302004873753" lon="9.716849997639656">
        <ele>190.47999999999999</ele>
        <time>2018-09-16T08:07:26Z</time>
      </trkpt>
      <trkpt lat="49.563422994688153" lon="9.718337031081319">
        <ele>192.88</ele>
        <time>2018-09-16T08:07:31Z</time>
      </trkpt>
      <trkpt lat="49.561918023973703" lon="9.720829976722598">
        <ele>196.25</ele>
        <time>2018-09-16T08:07:42Z</time>
      </trkpt>
      <trkpt lat="49.560525035485625" lon="9.722170997411013">
        <ele>195.77000000000001</ele>
        <time>2018-09-16T08:07:50Z</time>
      </trkpt>
      <trkpt lat="49.559113020077348" lon="9.722931990399957">
        <ele>195.77000000000001</ele>
        <time>2018-09-16T08:07:57Z</time>
      </trkpt>
      <trkpt lat="49.557555997744203" lon="9.723377991467714">
        <ele>197.21000000000001</ele>
        <time>2018-09-16T08:08:03Z</time>
      </trkpt>
      <trkpt lat="49.556360989809036" lon="9.723765989765525">
        <ele>198.65000000000001</ele>
        <time>2018-09-16T08:08:09Z</time>
      </trkpt>
      <trkpt lat="49.556200979277492" lon="9.723879983648658">
        <ele>198.65000000000001</ele>
        <time>2018-09-16T08:08:10Z</time>
      </trkpt>
      <trkpt lat="49.556030994281173" lon="9.724019961431623">
        <ele>199.13</ele>
        <time>2018-09-16T08:08:11Z</time>
      </trkpt>
      <trkpt lat="49.554983004927635" lon="9.724998967722058">
        <ele>200.09</ele>
        <time>2018-09-16T08:08:16Z</time>
      </trkpt>
      <trkpt lat="49.553900985047221" lon="9.726091967895627">
        <ele>202.00999999999999</ele>
        <time>2018-09-16T08:08:22Z</time>
      </trkpt>
      <trkpt lat="49.552931031212211" lon="9.727099975571036">
        <ele>204.41999999999999</ele>
        <time>2018-09-16T08:08:30Z</time>
      </trkpt>
      <trkpt lat="49.552378999069333" lon="9.727675979956985">
        <ele>204.41999999999999</ele>
        <time>2018-09-16T08:08:37Z</time>
      </trkpt>
      <trkpt lat="49.552276991307735" lon="9.727782011032105">
        <ele>203.94</ele>
        <time>2018-09-16T08:08:39Z</time>
      </trkpt>
      <trkpt lat="49.551667040213943" lon="9.728421969339252">
        <ele>204.90000000000001</ele>
        <time>2018-09-16T08:08:47Z</time>
      </trkpt>
      <trkpt lat="49.550898000597954" lon="9.729188997298479">
        <ele>203.94</ele>
        <time>2018-09-16T08:08:58Z</time>
      </trkpt>
      <trkpt lat="49.550263993442059" lon="9.729654025286436">
        <ele>204.41999999999999</ele>
        <time>2018-09-16T08:09:07Z</time>
      </trkpt>
      <trkpt lat="49.549753032624722" lon="9.729805989190936">
        <ele>203.46000000000001</ele>
        <time>2018-09-16T08:09:14Z</time>
      </trkpt>
      <trkpt lat="49.549683965742588" lon="9.729824010282755">
        <ele>203.46000000000001</ele>
        <time>2018-09-16T08:09:15Z</time>
      </trkpt>
      <trkpt lat="49.549618000164628" lon="9.729841025546193">
        <ele>202.97999999999999</ele>
        <time>2018-09-16T08:09:16Z</time>
      </trkpt>
      <trkpt lat="49.548803027719259" lon="9.730067001655698">
        <ele>201.53</ele>
        <time>2018-09-16T08:09:27Z</time>
      </trkpt>
      <trkpt lat="49.5485919713974" lon="9.730177978053689">
        <ele>201.53</ele>
        <time>2018-09-16T08:09:30Z</time>
      </trkpt>
      <trkpt lat="49.548532040789723" lon="9.730232041329145">
        <ele>201.05000000000001</ele>
        <time>2018-09-16T08:09:31Z</time>
      </trkpt>
      <trkpt lat="49.547702986747026" lon="9.730983981862664">
        <ele>198.65000000000001</ele>
        <time>2018-09-16T08:09:42Z</time>
      </trkpt>
      <trkpt lat="49.546753987669945" lon="9.731877995654941">
        <ele>193.84</ele>
        <time>2018-09-16T08:09:53Z</time>
      </trkpt>
      <trkpt lat="49.546465985476971" lon="9.732045968994498">
        <ele>193.36000000000001</ele>
        <time>2018-09-16T08:09:56Z</time>
      </trkpt>
      <trkpt lat="49.545446997508407" lon="9.732404965907335">
        <ele>194.31999999999999</ele>
        <time>2018-09-16T08:10:07Z</time>
      </trkpt>
      <trkpt lat="49.544635964557528" lon="9.732754994183779">
        <ele>195.77000000000001</ele>
        <time>2018-09-16T08:10:16Z</time>
      </trkpt>
      <trkpt lat="49.544029030948877" lon="9.733269978314638">
        <ele>197.69</ele>
        <time>2018-09-16T08:10:23Z</time>
      </trkpt>
      <trkpt lat="49.542890014126897" lon="9.734508991241455">
        <ele>198.65000000000001</ele>
        <time>2018-09-16T08:10:36Z</time>
      </trkpt>
      <trkpt lat="49.54180003143847" lon="9.735629986971617">
        <ele>199.61000000000001</ele>
        <time>2018-09-16T08:10:45Z</time>
      </trkpt>
      <trkpt lat="49.540476026013494" lon="9.736985005438328">
        <ele>200.09</ele>
        <time>2018-09-16T08:10:52Z</time>
      </trkpt>
      <trkpt lat="49.538899976760149" lon="9.738585026934743">
        <ele>198.65000000000001</ele>
        <time>2018-09-16T08:11:00Z</time>
      </trkpt>
      <trkpt lat="49.537166012451053" lon="9.739878019317985">
        <ele>201.05000000000001</ele>
        <time>2018-09-16T08:11:10Z</time>
      </trkpt>
      <trkpt lat="49.534994009882212" lon="9.741057017818093">
        <ele>202.00999999999999</ele>
        <time>2018-09-16T08:11:21Z</time>
      </trkpt>
      <trkpt lat="49.532817983999848" lon="9.7420599963516">
        <ele>203.94</ele>
        <time>2018-09-16T08:11:29Z</time>
      </trkpt>
      <trkpt lat="49.531479980796576" lon="9.742644969373941">
        <ele>205.38</ele>
        <time>2018-09-16T08:11:35Z</time>
      </trkpt>
      <trkpt lat="49.530368959531188" lon="9.743017964065075">
        <ele>207.30000000000001</ele>
        <time>2018-09-16T08:11:42Z</time>
      </trkpt>
      <trkpt lat="49.529261961579323" lon="9.743716008961201">
        <ele>208.74000000000001</ele>
        <time>2018-09-16T08:11:51Z</time>
      </trkpt>
      <trkpt lat="49.529049983248115" lon="9.743920024484396">
        <ele>209.22</ele>
        <time>2018-09-16T08:11:53Z</time>
      </trkpt>
      <trkpt lat="49.528970019891858" lon="9.744054973125458">
        <ele>209.69999999999999</ele>
        <time>2018-09-16T08:11:54Z</time>
      </trkpt>
      <trkpt lat="49.528902964666486" lon="9.744205009192228">
        <ele>209.69999999999999</ele>
        <time>2018-09-16T08:11:55Z</time>
      </trkpt>
      <trkpt lat="49.528833981603384" lon="9.744353033602238">
        <ele>210.19</ele>
        <time>2018-09-16T08:11:56Z</time>
      </trkpt>
      <trkpt lat="49.528764998540282" lon="9.744499968364835">
        <ele>210.19</ele>
        <time>2018-09-16T08:11:57Z</time>
      </trkpt>
      <trkpt lat="49.528188994154334" lon="9.745780974626541">
        <ele>209.69999999999999</ele>
        <time>2018-09-16T08:12:06Z</time>
      </trkpt>
      <trkpt lat="49.528148006647825" lon="9.745940985158086">
        <ele>209.22</ele>
        <time>2018-09-16T08:12:07Z</time>
      </trkpt>
      <trkpt lat="49.528109030798078" lon="9.746094960719347">
        <ele>208.74000000000001</ele>
        <time>2018-09-16T08:12:08Z</time>
      </trkpt>
      <trkpt lat="49.528027977794409" lon="9.746411964297295">
        <ele>206.81999999999999</ele>
        <time>2018-09-16T08:12:10Z</time>
      </trkpt>
      <trkpt lat="49.527907026931643" lon="9.746856037527323">
        <ele>204.41999999999999</ele>
        <time>2018-09-16T08:12:13Z</time>
      </trkpt>
      <trkpt lat="49.527854975312948" lon="9.746976988390088">
        <ele>204.41999999999999</ele>
        <time>2018-09-16T08:12:14Z</time>
      </trkpt>
      <trkpt lat="49.52779202722013" lon="9.74708997644484">
        <ele>203.94</ele>
        <time>2018-09-16T08:12:15Z</time>
      </trkpt>
      <trkpt lat="49.52772899530828" lon="9.747203970327973">
        <ele>203.46000000000001</ele>
        <time>2018-09-16T08:12:16Z</time>
      </trkpt>
      <trkpt lat="49.527660012245178" lon="9.747314024716616">
        <ele>203.46000000000001</ele>
        <time>2018-09-16T08:12:17Z</time>
      </trkpt>
      <trkpt lat="49.527576025575399" lon="9.747417038306594">
        <ele>202.97999999999999</ele>
        <time>2018-09-16T08:12:18Z</time>
      </trkpt>
      <trkpt lat="49.52749396674335" lon="9.747523991391063">
        <ele>202.97999999999999</ele>
        <time>2018-09-16T08:12:19Z</time>
      </trkpt>
      <trkpt lat="49.526728028431535" lon="9.748149029910564">
        <ele>202.49000000000001</ele>
        <time>2018-09-16T08:12:27Z</time>
      </trkpt>
      <trkpt lat="49.526615040376782" lon="9.748182976618409">
        <ele>202.97999999999999</ele>
        <time>2018-09-16T08:12:28Z</time>
      </trkpt>
      <trkpt lat="49.526502974331379" lon="9.74820502102375">
        <ele>203.46000000000001</ele>
        <time>2018-09-16T08:12:29Z</time>
      </trkpt>
      <trkpt lat="49.524969002231956" lon="9.748363019898534">
        <ele>208.74000000000001</ele>
        <time>2018-09-16T08:12:41Z</time>
      </trkpt>
      <trkpt lat="49.523219028487802" lon="9.748392021283507">
        <ele>211.63</ele>
        <time>2018-09-16T08:12:50Z</time>
      </trkpt>
      <trkpt lat="49.521552035585046" lon="9.748469972983003">
        <ele>214.03</ele>
        <time>2018-09-16T08:12:57Z</time>
      </trkpt>
      <trkpt lat="49.519922006875277" lon="9.748943969607353">
        <ele>216.43000000000001</ele>
        <time>2018-09-16T08:13:04Z</time>
      </trkpt>
      <trkpt lat="49.517226973548532" lon="9.750069994479418">
        <ele>217.40000000000001</ele>
        <time>2018-09-16T08:13:16Z</time>
      </trkpt>
      <trkpt lat="49.516375958919525" lon="9.750658990815282">
        <ele>214.99000000000001</ele>
        <time>2018-09-16T08:13:22Z</time>
      </trkpt>
      <trkpt lat="49.515798026695848" lon="9.751095017418265">
        <ele>211.15000000000001</ele>
        <time>2018-09-16T08:13:30Z</time>
      </trkpt>
      <trkpt lat="49.515581019222736" lon="9.751214040443301">
        <ele>209.22</ele>
        <time>2018-09-16T08:13:37Z</time>
      </trkpt>
      <trkpt lat="49.515070980414748" lon="9.751430964097381">
        <ele>209.69999999999999</ele>
        <time>2018-09-16T08:13:43Z</time>
      </trkpt>
      <trkpt lat="49.513802966102958" lon="9.751903032884002">
        <ele>214.03</ele>
        <time>2018-09-16T08:13:55Z</time>
      </trkpt>
      <trkpt lat="49.512551967054605" lon="9.752104030922055">
        <ele>213.55000000000001</ele>
        <time>2018-09-16T08:14:07Z</time>
      </trkpt>
      <trkpt lat="49.511115979403257" lon="9.752315003424883">
        <ele>214.99000000000001</ele>
        <time>2018-09-16T08:14:20Z</time>
      </trkpt>
      <trkpt lat="49.510007975623012" lon="9.752649022266269">
        <ele>215.94999999999999</ele>
        <time>2018-09-16T08:14:32Z</time>
      </trkpt>
      <trkpt lat="49.509364999830723" lon="9.752905005589128">
        <ele>216.43000000000001</ele>
        <time>2018-09-16T08:14:39Z</time>
      </trkpt>
      <trkpt lat="49.508233023807406" lon="9.753203988075256">
        <ele>218.36000000000001</ele>
        <time>2018-09-16T08:14:45Z</time>
      </trkpt>
      <trkpt lat="49.506722018122673" lon="9.753139028325677">
        <ele>220.75999999999999</ele>
        <time>2018-09-16T08:14:53Z</time>
      </trkpt>
      <trkpt lat="49.505335986614227" lon="9.75295496173203">
        <ele>220.28</ele>
        <time>2018-09-16T08:15:01Z</time>
      </trkpt>
      <trkpt lat="49.505163989961147" lon="9.752983041107655">
        <ele>220.28</ele>
        <time>2018-09-16T08:15:02Z</time>
      </trkpt>
      <trkpt lat="49.504991993308067" lon="9.753010030835867">
        <ele>220.28</ele>
        <time>2018-09-16T08:15:03Z</time>
      </trkpt>
      <trkpt lat="49.504828965291381" lon="9.753065016120672">
        <ele>220.28</ele>
        <time>2018-09-16T08:15:04Z</time>
      </trkpt>
      <trkpt lat="49.504671972244978" lon="9.753166018053889">
        <ele>220.28</ele>
        <time>2018-09-16T08:15:05Z</time>
      </trkpt>
      <trkpt lat="49.504513973370194" lon="9.753267019987106">
        <ele>220.28</ele>
        <time>2018-09-16T08:15:06Z</time>
      </trkpt>
      <trkpt lat="49.50435203500092" lon="9.753370033577085">
        <ele>220.28</ele>
        <time>2018-09-16T08:15:07Z</time>
      </trkpt>
      <trkpt lat="49.504213985055685" lon="9.753524009138346">
        <ele>219.80000000000001</ele>
        <time>2018-09-16T08:15:08Z</time>
      </trkpt>
      <trkpt lat="49.504085993394256" lon="9.753707991912961">
        <ele>219.80000000000001</ele>
        <time>2018-09-16T08:15:09Z</time>
      </trkpt>
      <trkpt lat="49.503965964540839" lon="9.753912007436156">
        <ele>219.31999999999999</ele>
        <time>2018-09-16T08:15:10Z</time>
      </trkpt>
      <trkpt lat="49.503853982314467" lon="9.754121974110603">
        <ele>219.31999999999999</ele>
        <time>2018-09-16T08:15:11Z</time>
      </trkpt>
      <trkpt lat="49.503758009523153" lon="9.754358008503914">
        <ele>218.84</ele>
        <time>2018-09-16T08:15:12Z</time>
      </trkpt>
      <trkpt lat="49.503661030903459" lon="9.754594964906573">
        <ele>218.84</ele>
        <time>2018-09-16T08:15:13Z</time>
      </trkpt>
      <trkpt lat="49.5026780012995" lon="9.757343977689743">
        <ele>214.50999999999999</ele>
        <time>2018-09-16T08:15:24Z</time>
      </trkpt>
      <trkpt lat="49.50153898447752" lon="9.758881973102689">
        <ele>210.19</ele>
        <time>2018-09-16T08:15:32Z</time>
      </trkpt>
      <trkpt lat="49.50016301125288" lon="9.759808005765081">
        <ele>205.86000000000001</ele>
        <time>2018-09-16T08:15:40Z</time>
      </trkpt>
      <trkpt lat="49.499106975272298" lon="9.760268004611135">
        <ele>203.94</ele>
        <time>2018-09-16T08:15:48Z</time>
      </trkpt>
      <trkpt lat="49.498654017224908" lon="9.760423991829157">
        <ele>203.46000000000001</ele>
        <time>2018-09-16T08:15:53Z</time>
      </trkpt>
      <trkpt lat="49.498515967279673" lon="9.76032298989594">
        <ele>203.46000000000001</ele>
        <time>2018-09-16T08:15:54Z</time>
      </trkpt>
      <trkpt lat="49.49850800447166" lon="9.760320978239179">
        <ele>203.46000000000001</ele>
        <time>2018-09-16T08:15:55Z</time>
      </trkpt>
      <trkpt lat="49.498439021408558" lon="9.76030396297574">
        <ele>203.46000000000001</ele>
        <time>2018-09-16T08:15:56Z</time>
      </trkpt>
      <trkpt lat="49.498361991718411" lon="9.760369006544352">
        <ele>203.46000000000001</ele>
        <time>2018-09-16T08:15:57Z</time>
      </trkpt>
      <trkpt lat="49.498323015868664" lon="9.76040898822248">
        <ele>203.46000000000001</ele>
        <time>2018-09-16T08:15:58Z</time>
      </trkpt>
      <trkpt lat="49.498199969530106" lon="9.760544020682573">
        <ele>203.46000000000001</ele>
        <time>2018-09-16T08:15:59Z</time>
      </trkpt>
      <trkpt lat="49.498088993132114" lon="9.760568998754025">
        <ele>203.46000000000001</ele>
        <time>2018-09-16T08:16:00Z</time>
      </trkpt>
      <trkpt lat="49.4968740362674" lon="9.760963032022119">
        <ele>202.97999999999999</ele>
        <time>2018-09-16T08:16:09Z</time>
      </trkpt>
      <trkpt lat="49.495524968951941" lon="9.761559991165996">
        <ele>206.34</ele>
        <time>2018-09-16T08:16:21Z</time>
      </trkpt>
      <trkpt lat="49.493881026282907" lon="9.762468002736569">
        <ele>213.55000000000001</ele>
        <time>2018-09-16T08:16:38Z</time>
      </trkpt>
      <trkpt lat="49.49352496303618" lon="9.762720968574286">
        <ele>214.99000000000001</ele>
        <time>2018-09-16T08:16:46Z</time>
      </trkpt>
      <trkpt lat="49.493462014943361" lon="9.762770002707839">
        <ele>215.47</ele>
        <time>2018-09-16T08:16:48Z</time>
      </trkpt>
      <trkpt lat="49.493276020511985" lon="9.762918027117848">
        <ele>218.36000000000001</ele>
        <time>2018-09-16T08:16:58Z</time>
      </trkpt>
      <trkpt lat="49.493076028302312" lon="9.763110978528857">
        <ele>218.84</ele>
        <time>2018-09-16T08:17:09Z</time>
      </trkpt>
      <trkpt lat="49.492730023339391" lon="9.763570977374911">
        <ele>219.80000000000001</ele>
        <time>2018-09-16T08:17:13Z</time>
      </trkpt>
      <trkpt lat="49.492648970335722" lon="9.763701986521483">
        <ele>219.80000000000001</ele>
        <time>2018-09-16T08:17:14Z</time>
      </trkpt>
      <trkpt lat="49.492172040045261" lon="9.764449987560511">
        <ele>220.75999999999999</ele>
        <time>2018-09-16T08:17:20Z</time>
      </trkpt>
      <trkpt lat="49.49206399731338" lon="9.764578985050321">
        <ele>220.75999999999999</ele>
        <time>2018-09-16T08:17:21Z</time>
      </trkpt>
      <trkpt lat="49.491945980116725" lon="9.764675041660667">
        <ele>220.75999999999999</ele>
        <time>2018-09-16T08:17:22Z</time>
      </trkpt>
      <trkpt lat="49.490759018808603" lon="9.76539202965796">
        <ele>216.91</ele>
        <time>2018-09-16T08:17:30Z</time>
      </trkpt>
      <trkpt lat="49.488870995119214" lon="9.766217982396483">
        <ele>208.25999999999999</ele>
        <time>2018-09-16T08:17:41Z</time>
      </trkpt>
      <trkpt lat="49.487161003053188" lon="9.766524005681276">
        <ele>203.46000000000001</ele>
        <time>2018-09-16T08:17:51Z</time>
      </trkpt>
      <trkpt lat="49.485051026567817" lon="9.766524005681276">
        <ele>202.97999999999999</ele>
        <time>2018-09-16T08:18:03Z</time>
      </trkpt>
      <trkpt lat="49.482797970995307" lon="9.766717040911317">
        <ele>204.90000000000001</ele>
        <time>2018-09-16T08:18:15Z</time>
      </trkpt>
      <trkpt lat="49.481702959164977" lon="9.767161030322313">
        <ele>209.22</ele>
        <time>2018-09-16T08:18:23Z</time>
      </trkpt>
      <trkpt lat="49.480757983401418" lon="9.768070969730616">
        <ele>214.03</ele>
        <time>2018-09-16T08:18:32Z</time>
      </trkpt>
      <trkpt lat="49.480679025873542" lon="9.76820801384747">
        <ele>214.50999999999999</ele>
        <time>2018-09-16T08:18:33Z</time>
      </trkpt>
      <trkpt lat="49.480608031153679" lon="9.768353020772338">
        <ele>214.99000000000001</ele>
        <time>2018-09-16T08:18:34Z</time>
      </trkpt>
      <trkpt lat="49.480539970099926" lon="9.768506996333599">
        <ele>215.47</ele>
        <time>2018-09-16T08:18:35Z</time>
      </trkpt>
      <trkpt lat="49.480472998693585" lon="9.76865703240037">
        <ele>215.94999999999999</ele>
        <time>2018-09-16T08:18:36Z</time>
      </trkpt>
      <trkpt lat="49.480416001752019" lon="9.76881000213325">
        <ele>216.43000000000001</ele>
        <time>2018-09-16T08:18:37Z</time>
      </trkpt>
      <trkpt lat="49.480367973446846" lon="9.768974035978317">
        <ele>216.43000000000001</ele>
        <time>2018-09-16T08:18:38Z</time>
      </trkpt>
      <trkpt lat="49.480254985392094" lon="9.769484996795654">
        <ele>216.91</ele>
        <time>2018-09-16T08:18:42Z</time>
      </trkpt>
      <trkpt lat="49.480148032307625" lon="9.769592033699155">
        <ele>216.91</ele>
        <time>2018-09-16T08:18:43Z</time>
      </trkpt>
      <trkpt lat="49.480106960982084" lon="9.769768975675106">
        <ele>216.91</ele>
        <time>2018-09-16T08:18:44Z</time>
      </trkpt>
      <trkpt lat="49.480023980140686" lon="9.769866038113833">
        <ele>216.91</ele>
        <time>2018-09-16T08:18:45Z</time>
      </trkpt>
      <trkpt lat="49.479919038712978" lon="9.769938038662076">
        <ele>216.91</ele>
        <time>2018-09-16T08:18:46Z</time>
      </trkpt>
      <trkpt lat="49.479806972667575" lon="9.770011967048049">
        <ele>216.43000000000001</ele>
        <time>2018-09-16T08:18:47Z</time>
      </trkpt>
      <trkpt lat="49.47968602180481" lon="9.770094025880098">
        <ele>216.43000000000001</ele>
        <time>2018-09-16T08:18:48Z</time>
      </trkpt>
      <trkpt lat="49.479560041800141" lon="9.770174995064735">
        <ele>216.43000000000001</ele>
        <time>2018-09-16T08:18:49Z</time>
      </trkpt>
      <trkpt lat="49.479420986026525" lon="9.770235009491444">
        <ele>215.94999999999999</ele>
        <time>2018-09-16T08:18:50Z</time>
      </trkpt>
      <trkpt lat="49.47760596871376" lon="9.771126005798578">
        <ele>218.84</ele>
        <time>2018-09-16T08:19:03Z</time>
      </trkpt>
      <trkpt lat="49.476386988535523" lon="9.771997975185514">
        <ele>220.75999999999999</ele>
        <time>2018-09-16T08:19:14Z</time>
      </trkpt>
      <trkpt lat="49.475996978580952" lon="9.772301986813545">
        <ele>220.75999999999999</ele>
        <time>2018-09-16T08:19:18Z</time>
      </trkpt>
      <trkpt lat="49.47592799551785" lon="9.772357977926731">
        <ele>220.75999999999999</ele>
        <time>2018-09-16T08:19:19Z</time>
      </trkpt>
      <trkpt lat="49.475920032709837" lon="9.772485969588161">
        <ele>220.75999999999999</ele>
        <time>2018-09-16T08:19:20Z</time>
      </trkpt>
      <trkpt lat="49.475940987467766" lon="9.772588983178139">
        <ele>220.75999999999999</ele>
        <time>2018-09-16T08:19:21Z</time>
      </trkpt>
      <trkpt lat="49.475967977195978" lon="9.772724015638232">
        <ele>220.75999999999999</ele>
        <time>2018-09-16T08:19:22Z</time>
      </trkpt>
      <trkpt lat="49.476010976359248" lon="9.772875979542732">
        <ele>220.75999999999999</ele>
        <time>2018-09-16T08:19:23Z</time>
      </trkpt>
      <trkpt lat="49.476406015455723" lon="9.774097977206111">
        <ele>223.63999999999999</ele>
        <time>2018-09-16T08:19:29Z</time>
      </trkpt>
      <trkpt lat="49.476786972954869" lon="9.775334978476167">
        <ele>227.49000000000001</ele>
        <time>2018-09-16T08:19:36Z</time>
      </trkpt>
      <trkpt lat="49.477209001779556" lon="9.776912033557892">
        <ele>233.74000000000001</ele>
        <time>2018-09-16T08:19:41Z</time>
      </trkpt>
      <trkpt lat="49.477790035307407" lon="9.780330006033182">
        <ele>250.08000000000001</ele>
        <time>2018-09-16T08:19:50Z</time>
      </trkpt>
      <trkpt lat="49.478002013638616" lon="9.782358007505536">
        <ele>261.62</ele>
        <time>2018-09-16T08:19:57Z</time>
      </trkpt>
      <trkpt lat="49.478060016408563" lon="9.783120006322861">
        <ele>267.38</ele>
        <time>2018-09-16T08:20:02Z</time>
      </trkpt>
      <trkpt lat="49.478080971166492" lon="9.783403985202313">
        <ele>272.67000000000002</ele>
        <time>2018-09-16T08:20:10Z</time>
      </trkpt>
      <trkpt lat="49.478102009743452" lon="9.783673966303468">
        <ele>275.06999999999999</ele>
        <time>2018-09-16T08:20:19Z</time>
      </trkpt>
      <trkpt lat="49.478108966723084" lon="9.783771028742194">
        <ele>275.56</ele>
        <time>2018-09-16T08:20:20Z</time>
      </trkpt>
      <trkpt lat="49.47820401750505" lon="9.783789971843362">
        <ele>276.04000000000002</ele>
        <time>2018-09-16T08:20:21Z</time>
      </trkpt>
      <trkpt lat="49.478293033316731" lon="9.783803969621658">
        <ele>277</ele>
        <time>2018-09-16T08:20:22Z</time>
      </trkpt>
      <trkpt lat="49.478407027199864" lon="9.783831965178251">
        <ele>277.48000000000002</ele>
        <time>2018-09-16T08:20:23Z</time>
      </trkpt>
      <trkpt lat="49.478502999991179" lon="9.783903965726495">
        <ele>277.95999999999998</ele>
        <time>2018-09-16T08:20:24Z</time>
      </trkpt>
      <trkpt lat="49.478600984439254" lon="9.784060958772898">
        <ele>278.44</ele>
        <time>2018-09-16T08:20:25Z</time>
      </trkpt>
      <trkpt lat="49.47865697555244" lon="9.78425701148808">
        <ele>278.92000000000002</ele>
        <time>2018-09-16T08:20:26Z</time>
      </trkpt>
      <trkpt lat="49.478686982765794" lon="9.784465972334147">
        <ele>279.39999999999998</ele>
        <time>2018-09-16T08:20:27Z</time>
      </trkpt>
      <trkpt lat="49.47872000746429" lon="9.784691026434302">
        <ele>279.88</ele>
        <time>2018-09-16T08:20:28Z</time>
      </trkpt>
      <trkpt lat="49.478882029652596" lon="9.78655700571835">
        <ele>286.13</ele>
        <time>2018-09-16T08:20:35Z</time>
      </trkpt>
      <trkpt lat="49.478610036894679" lon="9.788432037457824">
        <ele>294.30000000000001</ele>
        <time>2018-09-16T08:20:41Z</time>
      </trkpt>
      <trkpt lat="49.478513980284333" lon="9.788740994408727">
        <ele>295.74000000000001</ele>
        <time>2018-09-16T08:20:42Z</time>
      </trkpt>
      <trkpt lat="49.47839898057282" lon="9.789036037400365">
        <ele>297.67000000000002</ele>
        <time>2018-09-16T08:20:43Z</time>
      </trkpt>
      <trkpt lat="49.478282975032926" lon="9.789335019886494">
        <ele>299.11000000000001</ele>
        <time>2018-09-16T08:20:44Z</time>
      </trkpt>
      <trkpt lat="49.478146014735103" lon="9.789623022079468">
        <ele>301.02999999999997</ele>
        <time>2018-09-16T08:20:45Z</time>
      </trkpt>
      <trkpt lat="49.477988015860319" lon="9.789885962381959">
        <ele>302.94999999999999</ele>
        <time>2018-09-16T08:20:46Z</time>
      </trkpt>
      <trkpt lat="49.477831022813916" lon="9.790148986503482">
        <ele>304.38999999999999</ele>
        <time>2018-09-16T08:20:47Z</time>
      </trkpt>
      <trkpt lat="49.477638993412256" lon="9.790371023118496">
        <ele>306.80000000000001</ele>
        <time>2018-09-16T08:20:48Z</time>
      </trkpt>
      <trkpt lat="49.477450987324119" lon="9.790589036419988">
        <ele>308.72000000000003</ele>
        <time>2018-09-16T08:20:49Z</time>
      </trkpt>
      <trkpt lat="49.475930007174611" lon="9.792171958833933">
        <ele>325.54000000000002</ele>
        <time>2018-09-16T08:20:57Z</time>
      </trkpt>
      <trkpt lat="49.475407982245088" lon="9.792793979868293">
        <ele>332.26999999999998</ele>
        <time>2018-09-16T08:21:00Z</time>
      </trkpt>
      <trkpt lat="49.475257024168968" lon="9.793048035353422">
        <ele>334.19999999999999</ele>
        <time>2018-09-16T08:21:01Z</time>
      </trkpt>
      <trkpt lat="49.475110005587339" lon="9.793319022282958">
        <ele>336.60000000000002</ele>
        <time>2018-09-16T08:21:02Z</time>
      </trkpt>
      <trkpt lat="49.473858000710607" lon="9.79641797952354">
        <ele>360.14999999999998</ele>
        <time>2018-09-16T08:21:12Z</time>
      </trkpt>
      <trkpt lat="49.472789978608489" lon="9.797848016023636">
        <ele>367.83999999999997</ele>
        <time>2018-09-16T08:21:18Z</time>
      </trkpt>
      <trkpt lat="49.471425991505384" lon="9.798588976264">
        <ele>370.73000000000002</ele>
        <time>2018-09-16T08:21:24Z</time>
      </trkpt>
      <trkpt lat="49.469556994736195" lon="9.799289032816887">
        <ele>364.48000000000002</ele>
        <time>2018-09-16T08:21:33Z</time>
      </trkpt>
      <trkpt lat="49.468022016808391" lon="9.799788007512689">
        <ele>357.75</ele>
        <time>2018-09-16T08:21:43Z</time>
      </trkpt>
      <trkpt lat="49.466085964813828" lon="9.800041979178786">
        <ele>355.33999999999997</ele>
        <time>2018-09-16T08:21:54Z</time>
      </trkpt>
      <trkpt lat="49.46385595947504" lon="9.80022101663053">
        <ele>356.79000000000002</ele>
        <time>2018-09-16T08:22:04Z</time>
      </trkpt>
      <trkpt lat="49.461739026010036" lon="9.799956986680627">
        <ele>358.70999999999998</ele>
        <time>2018-09-16T08:22:13Z</time>
      </trkpt>
      <trkpt lat="49.460385013371706" lon="9.799399003386498">
        <ele>363.04000000000002</ele>
        <time>2018-09-16T08:22:20Z</time>
      </trkpt>
      <trkpt lat="49.459872040897608" lon="9.799181995913386">
        <ele>364.95999999999998</ele>
        <time>2018-09-16T08:22:23Z</time>
      </trkpt>
      <trkpt lat="49.459702977910638" lon="9.799116030335426">
        <ele>365.44</ele>
        <time>2018-09-16T08:22:24Z</time>
      </trkpt>
      <trkpt lat="49.459524024277925" lon="9.799088034778833">
        <ele>365.44</ele>
        <time>2018-09-16T08:22:25Z</time>
      </trkpt>
      <trkpt lat="49.459343980997801" lon="9.799091974273324">
        <ele>365.44</ele>
        <time>2018-09-16T08:22:26Z</time>
      </trkpt>
      <trkpt lat="49.459155974909663" lon="9.79912499897182">
        <ele>365.92000000000002</ele>
        <time>2018-09-16T08:22:27Z</time>
      </trkpt>
      <trkpt lat="49.458965035155416" lon="9.799158023670316">
        <ele>365.44</ele>
        <time>2018-09-16T08:22:28Z</time>
      </trkpt>
      <trkpt lat="49.45878398604691" lon="9.799247039481998">
        <ele>365.44</ele>
        <time>2018-09-16T08:22:29Z</time>
      </trkpt>
      <trkpt lat="49.458590028807521" lon="9.799348963424563">
        <ele>364.95999999999998</ele>
        <time>2018-09-16T08:22:30Z</time>
      </trkpt>
      <trkpt lat="49.458380984142423" lon="9.799458011984825">
        <ele>364.48000000000002</ele>
        <time>2018-09-16T08:22:31Z</time>
      </trkpt>
      <trkpt lat="49.45816095918417" lon="9.799574017524719">
        <ele>363.51999999999998</ele>
        <time>2018-09-16T08:22:32Z</time>
      </trkpt>
      <trkpt lat="49.456437975168228" lon="9.800849994644523">
        <ele>353.89999999999998</ele>
        <time>2018-09-16T08:22:39Z</time>
      </trkpt>
      <trkpt lat="49.453394003212452" lon="9.802867015823722">
        <ele>348.62</ele>
        <time>2018-09-16T08:22:50Z</time>
      </trkpt>
      <trkpt lat="49.449828006327152" lon="9.805043963715434">
        <ele>360.14999999999998</ele>
        <time>2018-09-16T08:23:03Z</time>
      </trkpt>
      <trkpt lat="49.449566993862391" lon="9.805166004225612">
        <ele>361.58999999999997</ele>
        <time>2018-09-16T08:23:04Z</time>
      </trkpt>
      <trkpt lat="49.447882985696197" lon="9.805497005581856">
        <ele>368.80000000000001</ele>
        <time>2018-09-16T08:23:10Z</time>
      </trkpt>
      <trkpt lat="49.445839980617166" lon="9.806093964725733">
        <ele>370.24000000000001</ele>
        <time>2018-09-16T08:23:17Z</time>
      </trkpt>
      <trkpt lat="49.442298961803317" lon="9.80724697932601">
        <ele>365.44</ele>
        <time>2018-09-16T08:23:29Z</time>
      </trkpt>
      <trkpt lat="49.438991965726018" lon="9.80748301371932">
        <ele>365.92000000000002</ele>
        <time>2018-09-16T08:23:40Z</time>
      </trkpt>
      <trkpt lat="49.437352968379855" lon="9.80808399617672">
        <ele>364</ele>
        <time>2018-09-16T08:23:46Z</time>
      </trkpt>
      <trkpt lat="49.434834038838744" lon="9.809112036600709">
        <ele>356.31</ele>
        <time>2018-09-16T08:23:55Z</time>
      </trkpt>
      <trkpt lat="49.434544024989009" lon="9.809100972488523">
        <ele>355.82999999999998</ele>
        <time>2018-09-16T08:23:56Z</time>
      </trkpt>
      <trkpt lat="49.434258034452796" lon="9.809056967496872">
        <ele>355.82999999999998</ele>
        <time>2018-09-16T08:23:57Z</time>
      </trkpt>
      <trkpt lat="49.433977995067835" lon="9.808974992483854">
        <ele>356.31</ele>
        <time>2018-09-16T08:23:58Z</time>
      </trkpt>
      <trkpt lat="49.432577965781093" lon="9.80842798948288">
        <ele>359.67000000000002</ele>
        <time>2018-09-16T08:24:04Z</time>
      </trkpt>
      <trkpt lat="49.432125007733703" lon="9.808370992541313">
        <ele>360.14999999999998</ele>
        <time>2018-09-16T08:24:06Z</time>
      </trkpt>
      <trkpt lat="49.431888973340392" lon="9.808396976441145">
        <ele>360.14999999999998</ele>
        <time>2018-09-16T08:24:07Z</time>
      </trkpt>
      <trkpt lat="49.43164799362421" lon="9.808457996696234">
        <ele>360.14999999999998</ele>
        <time>2018-09-16T08:24:08Z</time>
      </trkpt>
      <trkpt lat="49.431402990594506" lon="9.808562016114593">
        <ele>359.67000000000002</ele>
        <time>2018-09-16T08:24:09Z</time>
      </trkpt>
      <trkpt lat="49.431155975908041" lon="9.808695036917925">
        <ele>359.67000000000002</ele>
        <time>2018-09-16T08:24:10Z</time>
      </trkpt>
      <trkpt lat="49.430910972878337" lon="9.808870973065496">
        <ele>359.67000000000002</ele>
        <time>2018-09-16T08:24:11Z</time>
      </trkpt>
      <trkpt lat="49.430663958191872" lon="9.80905101634562">
        <ele>359.19</ele>
        <time>2018-09-16T08:24:12Z</time>
      </trkpt>
      <trkpt lat="49.427381018176675" lon="9.811767004430294">
        <ele>364.48000000000002</ele>
        <time>2018-09-16T08:24:25Z</time>
      </trkpt>
      <trkpt lat="49.424122972413898" lon="9.814373021945357">
        <ele>365.44</ele>
        <time>2018-09-16T08:24:38Z</time>
      </trkpt>
      <trkpt lat="49.4211629871279" lon="9.81650797650218">
        <ele>372.17000000000002</ele>
        <time>2018-09-16T08:24:50Z</time>
      </trkpt>
      <trkpt lat="49.418039973825216" lon="9.81874099932611">
        <ele>389.47000000000003</ele>
        <time>2018-09-16T08:25:03Z</time>
      </trkpt>
      <trkpt lat="49.415607964619994" lon="9.820431964471936">
        <ele>401.97000000000003</ele>
        <time>2018-09-16T08:25:13Z</time>
      </trkpt>
      <trkpt lat="49.412771025672555" lon="9.821498980745673">
        <ele>418.31</ele>
        <time>2018-09-16T08:25:24Z</time>
      </trkpt>
      <trkpt lat="49.411047035828233" lon="9.822914013639092">
        <ele>420.70999999999998</ele>
        <time>2018-09-16T08:25:31Z</time>
      </trkpt>
      <trkpt lat="49.409213997423649" lon="9.823907017707825">
        <ele>425.04000000000002</ele>
        <time>2018-09-16T08:25:38Z</time>
      </trkpt>
      <trkpt lat="49.408113034442067" lon="9.824732970446348">
        <ele>431.29000000000002</ele>
        <time>2018-09-16T08:25:43Z</time>
      </trkpt>
      <trkpt lat="49.407921005040407" lon="9.824963975697756">
        <ele>432.25</ele>
        <time>2018-09-16T08:25:44Z</time>
      </trkpt>
      <trkpt lat="49.407019028440118" lon="9.826415972784162">
        <ele>432.25</ele>
        <time>2018-09-16T08:25:50Z</time>
      </trkpt>
      <trkpt lat="49.406503038480878" lon="9.82725097797811">
        <ele>430.81</ele>
        <time>2018-09-16T08:25:56Z</time>
      </trkpt>
      <trkpt lat="49.405703991651535" lon="9.828360993415117">
        <ele>427.92000000000002</ele>
        <time>2018-09-16T08:26:05Z</time>
      </trkpt>
      <trkpt lat="49.405382964760065" lon="9.829137995839119">
        <ele>427.44</ele>
        <time>2018-09-16T08:26:10Z</time>
      </trkpt>
      <trkpt lat="49.40448903478682" lon="9.830353036522865">
        <ele>428.39999999999998</ele>
        <time>2018-09-16T08:26:20Z</time>
      </trkpt>
      <trkpt lat="49.403352029621601" lon="9.831408988684416">
        <ele>428.88999999999999</ele>
        <time>2018-09-16T08:26:31Z</time>
      </trkpt>
      <trkpt lat="49.402336981147528" lon="9.832003014162183">
        <ele>426.95999999999998</ele>
        <time>2018-09-16T08:26:39Z</time>
      </trkpt>
      <trkpt lat="49.40096503123641" lon="9.832608019933105">
        <ele>425.51999999999998</ele>
        <time>2018-09-16T08:26:46Z</time>
      </trkpt>
      <trkpt lat="49.39950599335134" lon="9.832592010498047">
        <ele>425.04000000000002</ele>
        <time>2018-09-16T08:26:52Z</time>
      </trkpt>
      <trkpt lat="49.39675304107368" lon="9.831974012777209">
        <ele>419.75</ele>
        <time>2018-09-16T08:27:03Z</time>
      </trkpt>
      <trkpt lat="49.395199958235025" lon="9.832301996648312">
        <ele>416.38999999999999</ele>
        <time>2018-09-16T08:27:10Z</time>
      </trkpt>
      <trkpt lat="49.392583966255188" lon="9.833333976566792">
        <ele>416.87</ele>
        <time>2018-09-16T08:27:22Z</time>
      </trkpt>
      <trkpt lat="49.391423994675279" lon="9.834449021145701">
        <ele>415.91000000000003</ele>
        <time>2018-09-16T08:27:28Z</time>
      </trkpt>
      <trkpt lat="49.390543978661299" lon="9.836406027898192">
        <ele>414.94999999999999</ele>
        <time>2018-09-16T08:27:35Z</time>
      </trkpt>
      <trkpt lat="49.389866972342134" lon="9.839080022647977">
        <ele>415.43000000000001</ele>
        <time>2018-09-16T08:27:43Z</time>
      </trkpt>
      <trkpt lat="49.389091981574893" lon="9.840854974463582">
        <ele>416.87</ele>
        <time>2018-09-16T08:27:49Z</time>
      </trkpt>
      <trkpt lat="49.387749033048749" lon="9.842405961826444">
        <ele>417.82999999999998</ele>
        <time>2018-09-16T08:27:56Z</time>
      </trkpt>
      <trkpt lat="49.385458007454872" lon="9.844768987968564">
        <ele>423.60000000000002</ele>
        <time>2018-09-16T08:28:06Z</time>
      </trkpt>
      <trkpt lat="49.384039035066962" lon="9.846561038866639">
        <ele>428.88999999999999</ele>
        <time>2018-09-16T08:28:13Z</time>
      </trkpt>
      <trkpt lat="49.383703004568815" lon="9.84714400023222">
        <ele>430.32999999999998</ele>
        <time>2018-09-16T08:28:15Z</time>
      </trkpt>
      <trkpt lat="49.383308971300721" lon="9.848073972389102">
        <ele>432.25</ele>
        <time>2018-09-16T08:28:18Z</time>
      </trkpt>
      <trkpt lat="49.38322096131742" lon="9.848415032029152">
        <ele>432.73000000000002</ele>
        <time>2018-09-16T08:28:19Z</time>
      </trkpt>
      <trkpt lat="49.38309196382761" lon="9.849103018641472">
        <ele>433.69</ele>
        <time>2018-09-16T08:28:21Z</time>
      </trkpt>
      <trkpt lat="49.383043013513088" lon="9.849456986412406">
        <ele>434.17000000000002</ele>
        <time>2018-09-16T08:28:22Z</time>
      </trkpt>
      <trkpt lat="49.383031027391553" lon="9.849824029952288">
        <ele>434.64999999999998</ele>
        <time>2018-09-16T08:28:23Z</time>
      </trkpt>
      <trkpt lat="49.383031027391553" lon="9.850202975794673">
        <ele>435.13</ele>
        <time>2018-09-16T08:28:24Z</time>
      </trkpt>
      <trkpt lat="49.383031027391553" lon="9.850589968264103">
        <ele>435.61000000000001</ele>
        <time>2018-09-16T08:28:25Z</time>
      </trkpt>
      <trkpt lat="49.383053993806243" lon="9.850980984047055">
        <ele>436.10000000000002</ele>
        <time>2018-09-16T08:28:26Z</time>
      </trkpt>
      <trkpt lat="49.383423971012235" lon="9.85509398393333">
        <ele>442.81999999999999</ele>
        <time>2018-09-16T08:28:36Z</time>
      </trkpt>
      <trkpt lat="49.383588004857302" lon="9.85868202522397">
        <ele>447.14999999999998</ele>
        <time>2018-09-16T08:28:45Z</time>
      </trkpt>
      <trkpt lat="49.383405027911067" lon="9.861276978626847">
        <ele>447.63</ele>
        <time>2018-09-16T08:28:52Z</time>
      </trkpt>
      <trkpt lat="49.383212998509407" lon="9.86194996163249">
        <ele>447.63</ele>
        <time>2018-09-16T08:28:54Z</time>
      </trkpt>
      <trkpt lat="49.383088024333119" lon="9.862264031544328">
        <ele>447.14999999999998</ele>
        <time>2018-09-16T08:28:55Z</time>
      </trkpt>
      <trkpt lat="49.382948968559504" lon="9.862569971010089">
        <ele>446.67000000000002</ele>
        <time>2018-09-16T08:28:56Z</time>
      </trkpt>
      <trkpt lat="49.382789963856339" lon="9.862855039536953">
        <ele>446.19</ele>
        <time>2018-09-16T08:28:57Z</time>
      </trkpt>
      <trkpt lat="49.382613021880388" lon="9.863123008981347">
        <ele>446.19</ele>
        <time>2018-09-16T08:28:58Z</time>
      </trkpt>
      <trkpt lat="49.382412023842335" lon="9.863347979262471">
        <ele>445.70999999999998</ele>
        <time>2018-09-16T08:28:59Z</time>
      </trkpt>
      <trkpt lat="49.38220901414752" lon="9.863574961200357">
        <ele>445.70999999999998</ele>
        <time>2018-09-16T08:29:00Z</time>
      </trkpt>
      <trkpt lat="49.382003992795944" lon="9.863803032785654">
        <ele>445.70999999999998</ele>
        <time>2018-09-16T08:29:01Z</time>
      </trkpt>
      <trkpt lat="49.381799977272749" lon="9.864030014723539">
        <ele>445.70999999999998</ele>
        <time>2018-09-16T08:29:02Z</time>
      </trkpt>
      <trkpt lat="49.37969502992928" lon="9.865791974589229">
        <ele>447.63</ele>
        <time>2018-09-16T08:29:12Z</time>
      </trkpt>
      <trkpt lat="49.378538997843862" lon="9.86656797118485">
        <ele>446.67000000000002</ele>
        <time>2018-09-16T08:29:17Z</time>
      </trkpt>
      <trkpt lat="49.378306986764073" lon="9.866778021678329">
        <ele>446.19</ele>
        <time>2018-09-16T08:29:18Z</time>
      </trkpt>
      <trkpt lat="49.376507978886366" lon="9.868642995133996">
        <ele>445.70999999999998</ele>
        <time>2018-09-16T08:29:26Z</time>
      </trkpt>
      <trkpt lat="49.374540997669101" lon="9.870495982468128">
        <ele>456.27999999999997</ele>
        <time>2018-09-16T08:29:35Z</time>
      </trkpt>
      <trkpt lat="49.373706998303533" lon="9.871979998424649">
        <ele>462.05000000000001</ele>
        <time>2018-09-16T08:29:40Z</time>
      </trkpt>
      <trkpt lat="49.372579967603087" lon="9.874831018969417">
        <ele>463.49000000000001</ele>
        <time>2018-09-16T08:29:48Z</time>
      </trkpt>
      <trkpt lat="49.371687965467572" lon="9.877144005149603">
        <ele>461.56999999999999</ele>
        <time>2018-09-16T08:29:55Z</time>
      </trkpt>
      <trkpt lat="49.370848014950752" lon="9.879471994936466">
        <ele>465.89999999999998</ele>
        <time>2018-09-16T08:30:03Z</time>
      </trkpt>
      <trkpt lat="49.369703968986869" lon="9.881341997534037">
        <ele>466.86000000000001</ele>
        <time>2018-09-16T08:30:11Z</time>
      </trkpt>
      <trkpt lat="49.36929602175951" lon="9.882039958611131">
        <ele>463.97000000000003</ele>
        <time>2018-09-16T08:30:14Z</time>
      </trkpt>
      <trkpt lat="49.369186973199248" lon="9.882322009652853">
        <ele>462.52999999999997</ele>
        <time>2018-09-16T08:30:15Z</time>
      </trkpt>
      <trkpt lat="49.369074990972877" lon="9.88261504098773">
        <ele>461.08999999999997</ele>
        <time>2018-09-16T08:30:16Z</time>
      </trkpt>
      <trkpt lat="49.368339981883764" lon="9.885069010779262">
        <ele>448.58999999999997</ele>
        <time>2018-09-16T08:30:23Z</time>
      </trkpt>
      <trkpt lat="49.368187012150884" lon="9.885400012135506">
        <ele>447.63</ele>
        <time>2018-09-16T08:30:24Z</time>
      </trkpt>
      <trkpt lat="49.36800504103303" lon="9.885696982964873">
        <ele>446.67000000000002</ele>
        <time>2018-09-16T08:30:25Z</time>
      </trkpt>
      <trkpt lat="49.367800019681454" lon="9.885965036228299">
        <ele>446.67000000000002</ele>
        <time>2018-09-16T08:30:26Z</time>
      </trkpt>
      <trkpt lat="49.3675990216434" lon="9.88622797653079">
        <ele>447.14999999999998</ele>
        <time>2018-09-16T08:30:27Z</time>
      </trkpt>
      <trkpt lat="49.36736298725009" lon="9.886422017589212">
        <ele>447.63</ele>
        <time>2018-09-16T08:30:28Z</time>
      </trkpt>
      <trkpt lat="49.36712502501905" lon="9.886597031727433">
        <ele>448.11000000000001</ele>
        <time>2018-09-16T08:30:29Z</time>
      </trkpt>
      <trkpt lat="49.366879016160965" lon="9.886733992025256">
        <ele>449.06999999999999</ele>
        <time>2018-09-16T08:30:30Z</time>
      </trkpt>
      <trkpt lat="49.366629989817739" lon="9.886830970644951">
        <ele>449.55000000000001</ele>
        <time>2018-09-16T08:30:31Z</time>
      </trkpt>
      <trkpt lat="49.366399990394711" lon="9.88695602864027">
        <ele>450.02999999999997</ele>
        <time>2018-09-16T08:30:32Z</time>
      </trkpt>
      <trkpt lat="49.365957006812096" lon="9.887199020013213">
        <ele>451.95999999999998</ele>
        <time>2018-09-16T08:30:34Z</time>
      </trkpt>
      <trkpt lat="49.365735976025462" lon="9.887333968654275">
        <ele>452.44</ele>
        <time>2018-09-16T08:30:35Z</time>
      </trkpt>
      <trkpt lat="49.365545036271214" lon="9.88755801692605">
        <ele>453.39999999999998</ele>
        <time>2018-09-16T08:30:36Z</time>
      </trkpt>
      <trkpt lat="49.365353006869555" lon="9.887782987207174">
        <ele>453.88</ele>
        <time>2018-09-16T08:30:37Z</time>
      </trkpt>
      <trkpt lat="49.365186961367726" lon="9.888054979965091">
        <ele>454.83999999999997</ele>
        <time>2018-09-16T08:30:38Z</time>
      </trkpt>
      <trkpt lat="49.36504396609962" lon="9.888365026563406">
        <ele>455.80000000000001</ele>
        <time>2018-09-16T08:30:39Z</time>
      </trkpt>
      <trkpt lat="49.364898959174752" lon="9.888682030141354">
        <ele>456.27999999999997</ele>
        <time>2018-09-16T08:30:40Z</time>
      </trkpt>
      <trkpt lat="49.364809021353722" lon="9.889048989862204">
        <ele>456.75999999999999</ele>
        <time>2018-09-16T08:30:41Z</time>
      </trkpt>
      <trkpt lat="49.364716988056898" lon="9.889422990381718">
        <ele>457.24000000000001</ele>
        <time>2018-09-16T08:30:42Z</time>
      </trkpt>
      <trkpt lat="49.364630989730358" lon="9.889803025871515">
        <ele>457.24000000000001</ele>
        <time>2018-09-16T08:30:43Z</time>
      </trkpt>
      <trkpt lat="49.364573992788792" lon="9.890195969492197">
        <ele>457.24000000000001</ele>
        <time>2018-09-16T08:30:44Z</time>
      </trkpt>
      <trkpt lat="49.364516995847225" lon="9.890588996931911">
        <ele>456.75999999999999</ele>
        <time>2018-09-16T08:30:45Z</time>
      </trkpt>
      <trkpt lat="49.364537028595805" lon="9.89325100556016">
        <ele>459.17000000000002</ele>
        <time>2018-09-16T08:30:52Z</time>
      </trkpt>
      <trkpt lat="49.364812960848212" lon="9.896235968917608">
        <ele>462.52999999999997</ele>
        <time>2018-09-16T08:31:01Z</time>
      </trkpt>
      <trkpt lat="49.364628978073597" lon="9.898932008072734">
        <ele>463.97000000000003</ele>
        <time>2018-09-16T08:31:09Z</time>
      </trkpt>
      <trkpt lat="49.364024978131056" lon="9.901024969294667">
        <ele>462.05000000000001</ele>
        <time>2018-09-16T08:31:16Z</time>
      </trkpt>
      <trkpt lat="49.363777041435242" lon="9.901482034474611">
        <ele>461.08999999999997</ele>
        <time>2018-09-16T08:31:18Z</time>
      </trkpt>
      <trkpt lat="49.363647038117051" lon="9.901665011420846">
        <ele>461.08999999999997</ele>
        <time>2018-09-16T08:31:19Z</time>
      </trkpt>
      <trkpt lat="49.36312903650105" lon="9.902398008853197">
        <ele>461.56999999999999</ele>
        <time>2018-09-16T08:31:24Z</time>
      </trkpt>
      <trkpt lat="49.363072961568832" lon="9.902476966381073">
        <ele>461.56999999999999</ele>
        <time>2018-09-16T08:31:25Z</time>
      </trkpt>
      <trkpt lat="49.362900964915752" lon="9.902427010238171">
        <ele>462.05000000000001</ele>
        <time>2018-09-16T08:31:26Z</time>
      </trkpt>
      <trkpt lat="49.362823013216257" lon="9.902328019961715">
        <ele>462.05000000000001</ele>
        <time>2018-09-16T08:31:27Z</time>
      </trkpt>
      <trkpt lat="49.362726034596562" lon="9.902204973623157">
        <ele>462.05000000000001</ele>
        <time>2018-09-16T08:31:28Z</time>
      </trkpt>
      <trkpt lat="49.361979961395264" lon="9.901615977287293">
        <ele>463.49000000000001</ele>
        <time>2018-09-16T08:31:33Z</time>
      </trkpt>
      <trkpt lat="49.361832020804286" lon="9.901451021432877">
        <ele>463.97000000000003</ele>
        <time>2018-09-16T08:31:34Z</time>
      </trkpt>
      <trkpt lat="49.361679973080754" lon="9.901261003687978">
        <ele>464.44999999999999</ele>
        <time>2018-09-16T08:31:35Z</time>
      </trkpt>
      <trkpt lat="49.361546030268073" lon="9.901022035628557">
        <ele>464.44999999999999</ele>
        <time>2018-09-16T08:31:36Z</time>
      </trkpt>
      <trkpt lat="49.361406974494457" lon="9.900774015113711">
        <ele>464.93000000000001</ele>
        <time>2018-09-16T08:31:37Z</time>
      </trkpt>
      <trkpt lat="49.360239962115884" lon="9.898695973679423">
        <ele>465.42000000000002</ele>
        <time>2018-09-16T08:31:45Z</time>
      </trkpt>
      <trkpt lat="49.359726989641786" lon="9.897525021806359">
        <ele>466.86000000000001</ele>
        <time>2018-09-16T08:31:51Z</time>
      </trkpt>
      <trkpt lat="49.35947704128921" lon="9.896867964416742">
        <ele>468.30000000000001</ele>
        <time>2018-09-16T08:31:54Z</time>
      </trkpt>
      <trkpt lat="49.359360029920936" lon="9.896708959713578">
        <ele>468.77999999999997</ele>
        <time>2018-09-16T08:31:55Z</time>
      </trkpt>
      <trkpt lat="49.359224997460842" lon="9.896579962223768">
        <ele>468.77999999999997</ele>
        <time>2018-09-16T08:31:56Z</time>
      </trkpt>
      <trkpt lat="49.359082002192736" lon="9.896444007754326">
        <ele>468.77999999999997</ele>
        <time>2018-09-16T08:31:57Z</time>
      </trkpt>
      <trkpt lat="49.358929032459855" lon="9.896336970850825">
        <ele>468.77999999999997</ele>
        <time>2018-09-16T08:31:58Z</time>
      </trkpt>
      <trkpt lat="49.35876801609993" lon="9.896273016929627">
        <ele>468.30000000000001</ele>
        <time>2018-09-16T08:31:59Z</time>
      </trkpt>
      <trkpt lat="49.358614962548018" lon="9.896210990846157">
        <ele>467.81999999999999</ele>
        <time>2018-09-16T08:32:00Z</time>
      </trkpt>
      <trkpt lat="49.358496023342013" lon="9.896094985306263">
        <ele>467.81999999999999</ele>
        <time>2018-09-16T08:32:01Z</time>
      </trkpt>
      <trkpt lat="49.35840399004519" lon="9.895973028615117">
        <ele>467.33999999999997</ele>
        <time>2018-09-16T08:32:02Z</time>
      </trkpt>
      <trkpt lat="49.358354033902287" lon="9.895817963406444">
        <ele>466.86000000000001</ele>
        <time>2018-09-16T08:32:03Z</time>
      </trkpt>
      <trkpt lat="49.358320003375411" lon="9.895627023652196">
        <ele>466.38</ele>
        <time>2018-09-16T08:32:04Z</time>
      </trkpt>
      <trkpt lat="49.358288990333676" lon="9.895404987037182">
        <ele>466.38</ele>
        <time>2018-09-16T08:32:05Z</time>
      </trkpt>
      <trkpt lat="49.358283961191773" lon="9.895159984007478">
        <ele>466.38</ele>
        <time>2018-09-16T08:32:06Z</time>
      </trkpt>
      <trkpt lat="49.358112970367074" lon="9.893377991393209">
        <ele>463.49000000000001</ele>
        <time>2018-09-16T08:32:13Z</time>
      </trkpt>
      <trkpt lat="49.358051028102636" lon="9.893153021112084">
        <ele>463.00999999999999</ele>
        <time>2018-09-16T08:32:14Z</time>
      </trkpt>
      <trkpt lat="49.357968969270587" lon="9.892934001982212">
        <ele>462.52999999999997</ele>
        <time>2018-09-16T08:32:15Z</time>
      </trkpt>
      <trkpt lat="49.357869978994131" lon="9.892724035307765">
        <ele>461.56999999999999</ele>
        <time>2018-09-16T08:32:16Z</time>
      </trkpt>
      <trkpt lat="49.357767971232533" lon="9.892509039491415">
        <ele>460.13</ele>
        <time>2018-09-16T08:32:17Z</time>
      </trkpt>
      <trkpt lat="49.356672959402204" lon="9.890198986977339">
        <ele>448.58999999999997</ele>
        <time>2018-09-16T08:32:28Z</time>
      </trkpt>
      <trkpt lat="49.356060996651649" lon="9.889254011213779">
        <ele>442.33999999999997</ele>
        <time>2018-09-16T08:32:37Z</time>
      </trkpt>
      <trkpt lat="49.355816999450326" lon="9.888880010694265">
        <ele>439.45999999999998</ele>
        <time>2018-09-16T08:32:41Z</time>
      </trkpt>
      <trkpt lat="49.355667969211936" lon="9.888479020446539">
        <ele>435.61000000000001</ele>
        <time>2018-09-16T08:32:45Z</time>
      </trkpt>
      <trkpt lat="49.355607032775879" lon="9.888454964384437">
        <ele>435.13</ele>
        <time>2018-09-16T08:32:46Z</time>
      </trkpt>
      <trkpt lat="49.35556897893548" lon="9.888477008789778">
        <ele>434.17000000000002</ele>
        <time>2018-09-16T08:32:47Z</time>
      </trkpt>
      <trkpt lat="49.355532014742494" lon="9.888540962710977">
        <ele>433.20999999999998</ele>
        <time>2018-09-16T08:32:48Z</time>
      </trkpt>
      <trkpt lat="49.355495972558856" lon="9.888611035421491">
        <ele>431.76999999999998</ele>
        <time>2018-09-16T08:32:49Z</time>
      </trkpt>
      <trkpt lat="49.35546001419425" lon="9.888716982677579">
        <ele>431.29000000000002</ele>
        <time>2018-09-16T08:32:50Z</time>
      </trkpt>
      <trkpt lat="49.355422966182232" lon="9.888828964903951">
        <ele>430.32999999999998</ele>
        <time>2018-09-16T08:32:51Z</time>
      </trkpt>
      <trkpt lat="49.355386001989245" lon="9.888939019292593">
        <ele>429.37</ele>
        <time>2018-09-16T08:32:52Z</time>
      </trkpt>
      <trkpt lat="49.355349959805608" lon="9.889046978205442">
        <ele>428.39999999999998</ele>
        <time>2018-09-16T08:32:53Z</time>
      </trkpt>
      <trkpt lat="49.355294974520802" lon="9.889074973762035">
        <ele>427.92000000000002</ele>
        <time>2018-09-16T08:32:54Z</time>
      </trkpt>
      <trkpt lat="49.355226997286081" lon="9.889077991247177">
        <ele>427.44</ele>
        <time>2018-09-16T08:32:55Z</time>
      </trkpt>
      <trkpt lat="49.355149967595935" lon="9.889052007347345">
        <ele>426.95999999999998</ele>
        <time>2018-09-16T08:32:56Z</time>
      </trkpt>
      <trkpt lat="49.355060029774904" lon="9.888995010405779">
        <ele>426.95999999999998</ele>
        <time>2018-09-16T08:32:57Z</time>
      </trkpt>
      <trkpt lat="49.355007978156209" lon="9.888854026794434">
        <ele>426.48000000000002</ele>
        <time>2018-09-16T08:32:58Z</time>
      </trkpt>
      <trkpt lat="49.354946035891771" lon="9.888686975464225">
        <ele>426</ele>
        <time>2018-09-16T08:32:59Z</time>
      </trkpt>
      <trkpt lat="49.354530964046717" lon="9.887263979762793">
        <ele>421.68000000000001</ele>
        <time>2018-09-16T08:33:05Z</time>
      </trkpt>
      <trkpt lat="49.354059984907508" lon="9.885605033487082">
        <ele>415.43000000000001</ele>
        <time>2018-09-16T08:33:11Z</time>
      </trkpt>
      <trkpt lat="49.354029977694154" lon="9.885309990495443">
        <ele>413.98000000000002</ele>
        <time>2018-09-16T08:33:12Z</time>
      </trkpt>
      <trkpt lat="49.353787992149591" lon="9.882669020444155">
        <ele>401.49000000000001</ele>
        <time>2018-09-16T08:33:21Z</time>
      </trkpt>
      <trkpt lat="49.353749016299844" lon="9.881450962275267">
        <ele>395.24000000000001</ele>
        <time>2018-09-16T08:33:27Z</time>
      </trkpt>
      <trkpt lat="49.353740969672799" lon="9.881172012537718">
        <ele>393.31999999999999</ele>
        <time>2018-09-16T08:33:29Z</time>
      </trkpt>
      <trkpt lat="49.353766031563282" lon="9.881061958149076">
        <ele>392.36000000000001</ele>
        <time>2018-09-16T08:33:30Z</time>
      </trkpt>
      <trkpt lat="49.353797966614366" lon="9.880951987579465">
        <ele>391.87</ele>
        <time>2018-09-16T08:33:31Z</time>
      </trkpt>
      <trkpt lat="49.353829985484481" lon="9.880843022838235">
        <ele>391.38999999999999</ele>
        <time>2018-09-16T08:33:32Z</time>
      </trkpt>
      <trkpt lat="49.353873990476131" lon="9.880740009248257">
        <ele>390.91000000000003</ele>
        <time>2018-09-16T08:33:33Z</time>
      </trkpt>
      <trkpt lat="49.354201974347234" lon="9.879854964092374">
        <ele>387.55000000000001</ele>
        <time>2018-09-16T08:33:41Z</time>
      </trkpt>
      <trkpt lat="49.354207003489137" lon="9.879729989916086">
        <ele>387.06999999999999</ele>
        <time>2018-09-16T08:33:42Z</time>
      </trkpt>
      <trkpt lat="49.354199962690473" lon="9.879611972719431">
        <ele>386.58999999999997</ele>
        <time>2018-09-16T08:33:43Z</time>
      </trkpt>
      <trkpt lat="49.35419300571084" lon="9.879497978836298">
        <ele>386.11000000000001</ele>
        <time>2018-09-16T08:33:44Z</time>
      </trkpt>
      <trkpt lat="49.354141037911177" lon="9.879413992166519">
        <ele>385.63</ele>
        <time>2018-09-16T08:33:45Z</time>
      </trkpt>
      <trkpt lat="49.35408404096961" lon="9.879367975518107">
        <ele>384.66000000000003</ele>
        <time>2018-09-16T08:33:46Z</time>
      </trkpt>
      <trkpt lat="49.354006005451083" lon="9.879360012710095">
        <ele>383.69999999999999</ele>
        <time>2018-09-16T08:33:47Z</time>
      </trkpt>
      <trkpt lat="49.35389100573957" lon="9.879348026588559">
        <ele>383.22000000000003</ele>
        <time>2018-09-16T08:33:48Z</time>
      </trkpt>
      <trkpt lat="49.353819005191326" lon="9.879374010488391">
        <ele>382.25999999999999</ele>
        <time>2018-09-16T08:33:49Z</time>
      </trkpt>
      <trkpt lat="49.353705011308193" lon="9.879413992166519">
        <ele>381.30000000000001</ele>
        <time>2018-09-16T08:33:50Z</time>
      </trkpt>
      <trkpt lat="49.353048037737608" lon="9.879788998514414">
        <ele>375.52999999999997</ele>
        <time>2018-09-16T08:33:56Z</time>
      </trkpt>
      <trkpt lat="49.352977965027094" lon="9.879781035706401">
        <ele>375.05000000000001</ele>
        <time>2018-09-16T08:33:57Z</time>
      </trkpt>
      <trkpt lat="49.352904036641121" lon="9.879755973815918">
        <ele>373.61000000000001</ele>
        <time>2018-09-16T08:33:58Z</time>
      </trkpt>
      <trkpt lat="49.35288299806416" lon="9.879682967439294">
        <ele>372.64999999999998</ele>
        <time>2018-09-16T08:33:59Z</time>
      </trkpt>
      <trkpt lat="49.352865982800722" lon="9.879590012133122">
        <ele>372.17000000000002</ele>
        <time>2018-09-16T08:34:00Z</time>
      </trkpt>
      <trkpt lat="49.352888027206063" lon="9.87952496856451">
        <ele>372.17000000000002</ele>
        <time>2018-09-16T08:34:01Z</time>
      </trkpt>
      <trkpt lat="49.352923985570669" lon="9.879467971622944">
        <ele>371.69</ele>
        <time>2018-09-16T08:34:02Z</time>
      </trkpt>
      <trkpt lat="49.352997997775674" lon="9.879433019086719">
        <ele>371.20999999999998</ele>
        <time>2018-09-16T08:34:03Z</time>
      </trkpt>
      <trkpt lat="49.353088019415736" lon="9.879390019923449">
        <ele>370.73000000000002</ele>
        <time>2018-09-16T08:34:04Z</time>
      </trkpt>
      <trkpt lat="49.35331198386848" lon="9.879283988848329">
        <ele>369.75999999999999</ele>
        <time>2018-09-16T08:34:06Z</time>
      </trkpt>
      <trkpt lat="49.353494038805366" lon="9.879149962216616">
        <ele>368.31999999999999</ele>
        <time>2018-09-16T08:34:08Z</time>
      </trkpt>
      <trkpt lat="49.354053027927876" lon="9.878705972805619">
        <ele>365.92000000000002</ele>
        <time>2018-09-16T08:34:15Z</time>
      </trkpt>
      <trkpt lat="49.35410600155592" lon="9.878661967813969">
        <ele>365.92000000000002</ele>
        <time>2018-09-16T08:34:16Z</time>
      </trkpt>
      <trkpt lat="49.354156041517854" lon="9.878569012507796">
        <ele>365.44</ele>
        <time>2018-09-16T08:34:17Z</time>
      </trkpt>
      <trkpt lat="49.354196023195982" lon="9.878497011959553">
        <ele>364.95999999999998</ele>
        <time>2018-09-16T08:34:18Z</time>
      </trkpt>
      <trkpt lat="49.354233993217349" lon="9.878424005582929">
        <ele>364.48000000000002</ele>
        <time>2018-09-16T08:34:19Z</time>
      </trkpt>
      <trkpt lat="49.354228964075446" lon="9.878343958407641">
        <ele>364</ele>
        <time>2018-09-16T08:34:20Z</time>
      </trkpt>
      <trkpt lat="49.354224018752575" lon="9.878263995051384">
        <ele>364</ele>
        <time>2018-09-16T08:34:21Z</time>
      </trkpt>
      <trkpt lat="49.354218989610672" lon="9.878195011988282">
        <ele>363.51999999999998</ele>
        <time>2018-09-16T08:34:22Z</time>
      </trkpt>
      <trkpt lat="49.354199040681124" lon="9.878101972863078">
        <ele>363.04000000000002</ele>
        <time>2018-09-16T08:34:23Z</time>
      </trkpt>
      <trkpt lat="49.354153024032712" lon="9.878095015883446">
        <ele>363.04000000000002</ele>
        <time>2018-09-16T08:34:24Z</time>
      </trkpt>
      <trkpt lat="49.354096027091146" lon="9.878086969256401">
        <ele>362.55000000000001</ele>
        <time>2018-09-16T08:34:25Z</time>
      </trkpt>
      <trkpt lat="49.354022014886141" lon="9.878117982298136">
        <ele>362.06999999999999</ele>
        <time>2018-09-16T08:34:26Z</time>
      </trkpt>
      <trkpt lat="49.35395403765142" lon="9.878176990896463">
        <ele>361.58999999999997</ele>
        <time>2018-09-16T08:34:27Z</time>
      </trkpt>
      <trkpt lat="49.353881031274796" lon="9.878240022808313">
        <ele>361.11000000000001</ele>
        <time>2018-09-16T08:34:28Z</time>
      </trkpt>
      <trkpt lat="49.353549024090171" lon="9.878438003361225">
        <ele>361.58999999999997</ele>
        <time>2018-09-16T08:34:32Z</time>
      </trkpt>
      <trkpt lat="49.353469982743263" lon="9.878424005582929">
        <ele>361.58999999999997</ele>
        <time>2018-09-16T08:34:33Z</time>
      </trkpt>
      <trkpt lat="49.353388007730246" lon="9.878388969227672">
        <ele>362.06999999999999</ele>
        <time>2018-09-16T08:34:34Z</time>
      </trkpt>
      <trkpt lat="49.353304021060467" lon="9.878354016691446">
        <ele>362.06999999999999</ele>
        <time>2018-09-16T08:34:35Z</time>
      </trkpt>
      <trkpt lat="49.353218022733927" lon="9.878317974507809">
        <ele>362.06999999999999</ele>
        <time>2018-09-16T08:34:36Z</time>
      </trkpt>
      <trkpt lat="49.353135041892529" lon="9.878282016143203">
        <ele>362.06999999999999</ele>
        <time>2018-09-16T08:34:37Z</time>
      </trkpt>
      <trkpt lat="49.353068992495537" lon="9.87821102142334">
        <ele>362.06999999999999</ele>
        <time>2018-09-16T08:34:38Z</time>
      </trkpt>
      <trkpt lat="49.353024987503886" lon="9.878154024481773">
        <ele>361.58999999999997</ele>
        <time>2018-09-16T08:34:39Z</time>
      </trkpt>
      <trkpt lat="49.352938989177346" lon="9.878042964264751">
        <ele>361.58999999999997</ele>
        <time>2018-09-16T08:34:42Z</time>
      </trkpt>
      <trkpt lat="49.352876041084528" lon="9.878024021163583">
        <ele>361.11000000000001</ele>
        <time>2018-09-16T08:34:43Z</time>
      </trkpt>
      <trkpt lat="49.352830024436116" lon="9.878070959821343">
        <ele>361.11000000000001</ele>
        <time>2018-09-16T08:34:44Z</time>
      </trkpt>
      <trkpt lat="49.352206997573376" lon="9.878500029444695">
        <ele>361.58999999999997</ele>
        <time>2018-09-16T08:34:51Z</time>
      </trkpt>
      <trkpt lat="49.351714979857206" lon="9.878903031349182">
        <ele>362.55000000000001</ele>
        <time>2018-09-16T08:34:55Z</time>
      </trkpt>
      <trkpt lat="49.351458996534348" lon="9.879187010228634">
        <ele>363.04000000000002</ele>
        <time>2018-09-16T08:34:57Z</time>
      </trkpt>
      <trkpt lat="49.35135698877275" lon="9.879381973296404">
        <ele>363.51999999999998</ele>
        <time>2018-09-16T08:34:58Z</time>
      </trkpt>
      <trkpt lat="49.3512490298599" lon="9.879570985212922">
        <ele>364.48000000000002</ele>
        <time>2018-09-16T08:34:59Z</time>
      </trkpt>
      <trkpt lat="49.35111902654171" lon="9.879728984087706">
        <ele>365.44</ele>
        <time>2018-09-16T08:35:00Z</time>
      </trkpt>
      <trkpt lat="49.350984999909997" lon="9.879891006276012">
        <ele>366.88</ele>
        <time>2018-09-16T08:35:01Z</time>
      </trkpt>
      <trkpt lat="49.350836975499988" lon="9.880010029301047">
        <ele>368.31999999999999</ele>
        <time>2018-09-16T08:35:02Z</time>
      </trkpt>
      <trkpt lat="49.350696997717023" lon="9.880116982385516">
        <ele>369.75999999999999</ele>
        <time>2018-09-16T08:35:03Z</time>
      </trkpt>
      <trkpt lat="49.350559031590819" lon="9.88018898293376">
        <ele>371.20999999999998</ele>
        <time>2018-09-16T08:35:04Z</time>
      </trkpt>
      <trkpt lat="49.350418969988823" lon="9.880200969055295">
        <ele>373.13</ele>
        <time>2018-09-16T08:35:05Z</time>
      </trkpt>
      <trkpt lat="49.350277986377478" lon="9.880164004862309">
        <ele>375.05000000000001</ele>
        <time>2018-09-16T08:35:06Z</time>
      </trkpt>
      <trkpt lat="49.350142031908035" lon="9.880084041506052">
        <ele>376.97000000000003</ele>
        <time>2018-09-16T08:35:07Z</time>
      </trkpt>
      <trkpt lat="49.350000964477658" lon="9.880001982674003">
        <ele>379.38</ele>
        <time>2018-09-16T08:35:08Z</time>
      </trkpt>
      <trkpt lat="49.349391013383865" lon="9.879718003794551">
        <ele>389.94999999999999</ele>
        <time>2018-09-16T08:35:12Z</time>
      </trkpt>
      <trkpt lat="49.349213987588882" lon="9.879683973267674">
        <ele>392.36000000000001</ele>
        <time>2018-09-16T08:35:13Z</time>
      </trkpt>
      <trkpt lat="49.347726032137871" lon="9.879443999379873">
        <ele>406.76999999999998</ele>
        <time>2018-09-16T08:35:21Z</time>
      </trkpt>
      <trkpt lat="49.347391007468104" lon="9.879422038793564">
        <ele>410.13999999999999</ele>
        <time>2018-09-16T08:35:23Z</time>
      </trkpt>
      <trkpt lat="49.34723200276494" lon="9.879494961351156">
        <ele>412.06</ele>
        <time>2018-09-16T08:35:24Z</time>
      </trkpt>
      <trkpt lat="49.347078027203679" lon="9.879590012133122">
        <ele>414.47000000000003</ele>
        <time>2018-09-16T08:35:25Z</time>
      </trkpt>
      <trkpt lat="49.346944000571966" lon="9.879713980481029">
        <ele>416.87</ele>
        <time>2018-09-16T08:35:26Z</time>
      </trkpt>
      <trkpt lat="49.346819026395679" lon="9.879828980192542">
        <ele>419.75</ele>
        <time>2018-09-16T08:35:27Z</time>
      </trkpt>
      <trkpt lat="49.34669497422874" lon="9.879941968247294">
        <ele>421.68000000000001</ele>
        <time>2018-09-16T08:35:28Z</time>
      </trkpt>
      <trkpt lat="49.346559019759297" lon="9.880052022635937">
        <ele>423.60000000000002</ele>
        <time>2018-09-16T08:35:29Z</time>
      </trkpt>
      <trkpt lat="49.345224034041166" lon="9.88094100728631">
        <ele>433.69</ele>
        <time>2018-09-16T08:35:37Z</time>
      </trkpt>
      <trkpt lat="49.343774970620871" lon="9.882034007459879">
        <ele>443.31</ele>
        <time>2018-09-16T08:35:45Z</time>
      </trkpt>
      <trkpt lat="49.343604985624552" lon="9.882080024108291">
        <ele>444.75</ele>
        <time>2018-09-16T08:35:46Z</time>
      </trkpt>
      <trkpt lat="49.343442041426897" lon="9.882099973037839">
        <ele>446.19</ele>
        <time>2018-09-16T08:35:47Z</time>
      </trkpt>
      <trkpt lat="49.343294017016888" lon="9.882103996351361">
        <ele>447.63</ele>
        <time>2018-09-16T08:35:48Z</time>
      </trkpt>
      <trkpt lat="49.343154039233923" lon="9.882005006074905">
        <ele>448.58999999999997</ele>
        <time>2018-09-16T08:35:49Z</time>
      </trkpt>
      <trkpt lat="49.343035016208887" lon="9.881867961958051">
        <ele>450.02999999999997</ele>
        <time>2018-09-16T08:35:50Z</time>
      </trkpt>
      <trkpt lat="49.342914987355471" lon="9.881680961698294">
        <ele>451.48000000000002</ele>
        <time>2018-09-16T08:35:51Z</time>
      </trkpt>
      <trkpt lat="49.342793030664325" lon="9.881490021944046">
        <ele>452.44</ele>
        <time>2018-09-16T08:35:52Z</time>
      </trkpt>
      <trkpt lat="49.342674007639289" lon="9.881303021684289">
        <ele>453.39999999999998</ele>
        <time>2018-09-16T08:35:53Z</time>
      </trkpt>
      <trkpt lat="49.342549033463001" lon="9.881138987839222">
        <ele>453.88</ele>
        <time>2018-09-16T08:35:54Z</time>
      </trkpt>
      <trkpt lat="49.342419030144811" lon="9.881007978692651">
        <ele>454.36000000000001</ele>
        <time>2018-09-16T08:35:55Z</time>
      </trkpt>
      <trkpt lat="49.342265976592898" lon="9.880935978144407">
        <ele>454.83999999999997</ele>
        <time>2018-09-16T08:35:56Z</time>
      </trkpt>
      <trkpt lat="49.342094985768199" lon="9.880935978144407">
        <ele>455.31999999999999</ele>
        <time>2018-09-16T08:35:57Z</time>
      </trkpt>
      <trkpt lat="49.341909997165203" lon="9.880942013114691">
        <ele>455.31999999999999</ele>
        <time>2018-09-16T08:35:58Z</time>
      </trkpt>
      <trkpt lat="49.341713022440672" lon="9.880949975922704">
        <ele>455.80000000000001</ele>
        <time>2018-09-16T08:35:59Z</time>
      </trkpt>
      <trkpt lat="49.340230012312531" lon="9.880805974826217">
        <ele>458.20999999999998</ele>
        <time>2018-09-16T08:36:06Z</time>
      </trkpt>
      <trkpt lat="49.338408038020134" lon="9.880591984838247">
        <ele>459.64999999999998</ele>
        <time>2018-09-16T08:36:14Z</time>
      </trkpt>
      <trkpt lat="49.337732959538698" lon="9.880614029243588">
        <ele>461.56999999999999</ele>
        <time>2018-09-16T08:36:18Z</time>
      </trkpt>
      <trkpt lat="49.337611002847552" lon="9.880701033398509">
        <ele>461.56999999999999</ele>
        <time>2018-09-16T08:36:19Z</time>
      </trkpt>
      <trkpt lat="49.337432971224189" lon="9.880829025059938">
        <ele>461.56999999999999</ele>
        <time>2018-09-16T08:36:20Z</time>
      </trkpt>
      <trkpt lat="49.336381964385509" lon="9.881729995831847">
        <ele>459.64999999999998</ele>
        <time>2018-09-16T08:36:26Z</time>
      </trkpt>
      <trkpt lat="49.334968021139503" lon="9.882700033485889">
        <ele>459.17000000000002</ele>
        <time>2018-09-16T08:36:33Z</time>
      </trkpt>
      <trkpt lat="49.332325039431453" lon="9.883719021454454">
        <ele>461.08999999999997</ele>
        <time>2018-09-16T08:36:45Z</time>
      </trkpt>
      <trkpt lat="49.331951960921288" lon="9.883932005614042">
        <ele>460.61000000000001</ele>
        <time>2018-09-16T08:36:47Z</time>
      </trkpt>
      <trkpt lat="49.331802008673549" lon="9.884087992832065">
        <ele>461.08999999999997</ele>
        <time>2018-09-16T08:36:48Z</time>
      </trkpt>
      <trkpt lat="49.331678040325642" lon="9.884266024455428">
        <ele>461.08999999999997</ele>
        <time>2018-09-16T08:36:49Z</time>
      </trkpt>
      <trkpt lat="49.331567985936999" lon="9.884425029158592">
        <ele>461.08999999999997</ele>
        <time>2018-09-16T08:36:50Z</time>
      </trkpt>
      <trkpt lat="49.331471007317305" lon="9.884562995284796">
        <ele>461.08999999999997</ele>
        <time>2018-09-16T08:36:51Z</time>
      </trkpt>
      <trkpt lat="49.331387020647526" lon="9.884685035794973">
        <ele>461.08999999999997</ele>
        <time>2018-09-16T08:36:52Z</time>
      </trkpt>
      <trkpt lat="49.331305967643857" lon="9.884724011644721">
        <ele>461.08999999999997</ele>
        <time>2018-09-16T08:36:53Z</time>
      </trkpt>
      <trkpt lat="49.331205971539021" lon="9.884833982214332">
        <ele>461.56999999999999</ele>
        <time>2018-09-16T08:36:54Z</time>
      </trkpt>
      <trkpt lat="49.331162972375751" lon="9.88496096804738">
        <ele>461.56999999999999</ele>
        <time>2018-09-16T08:36:55Z</time>
      </trkpt>
      <trkpt lat="49.331109998747706" lon="9.885118966922164">
        <ele>462.05000000000001</ele>
        <time>2018-09-16T08:36:56Z</time>
      </trkpt>
      <trkpt lat="49.331048978492618" lon="9.885303033515811">
        <ele>462.52999999999997</ele>
        <time>2018-09-16T08:36:57Z</time>
      </trkpt>
      <trkpt lat="49.330340037122369" lon="9.886598959565163">
        <ele>463.00999999999999</ele>
        <time>2018-09-16T08:37:03Z</time>
      </trkpt>
      <trkpt lat="49.329295987263322" lon="9.888527970761061">
        <ele>455.31999999999999</ele>
        <time>2018-09-16T08:37:11Z</time>
      </trkpt>
      <trkpt lat="49.329161960631609" lon="9.888692004606128">
        <ele>454.36000000000001</ele>
        <time>2018-09-16T08:37:12Z</time>
      </trkpt>
      <trkpt lat="49.329045033082366" lon="9.88882401958108">
        <ele>453.39999999999998</ele>
        <time>2018-09-16T08:37:13Z</time>
      </trkpt>
      <trkpt lat="49.328927015885711" lon="9.888899959623814">
        <ele>452.44</ele>
        <time>2018-09-16T08:37:14Z</time>
      </trkpt>
      <trkpt lat="49.328814027830958" lon="9.888971960172057">
        <ele>451.95999999999998</ele>
        <time>2018-09-16T08:37:15Z</time>
      </trkpt>
      <trkpt lat="49.328220002353191" lon="9.889272032305598">
        <ele>450.51999999999998</ele>
        <time>2018-09-16T08:37:21Z</time>
      </trkpt>
      <trkpt lat="49.328124029561877" lon="9.88927798345685">
        <ele>450.02999999999997</ele>
        <time>2018-09-16T08:37:22Z</time>
      </trkpt>
      <trkpt lat="49.327793028205633" lon="9.889246970415115">
        <ele>448.58999999999997</ele>
        <time>2018-09-16T08:37:26Z</time>
      </trkpt>
      <trkpt lat="49.327532015740871" lon="9.889221992343664">
        <ele>446.19</ele>
        <time>2018-09-16T08:37:30Z</time>
      </trkpt>
      <trkpt lat="49.327497985213995" lon="9.8892339784652">
        <ele>445.70999999999998</ele>
        <time>2018-09-16T08:37:31Z</time>
      </trkpt>
      <trkpt lat="49.327494967728853" lon="9.889301033690572">
        <ele>445.23000000000002</ele>
        <time>2018-09-16T08:37:32Z</time>
      </trkpt>
      <trkpt lat="49.327492034062743" lon="9.889402035623789">
        <ele>445.23000000000002</ele>
        <time>2018-09-16T08:37:33Z</time>
      </trkpt>
      <trkpt lat="49.32748700492084" lon="9.889533966779709">
        <ele>444.75</ele>
        <time>2018-09-16T08:37:34Z</time>
      </trkpt>
      <trkpt lat="49.327481975778937" lon="9.889681991189718">
        <ele>444.26999999999998</ele>
        <time>2018-09-16T08:37:35Z</time>
      </trkpt>
      <trkpt lat="49.327450040727854" lon="9.890582961961627">
        <ele>438.5</ele>
        <time>2018-09-16T08:37:41Z</time>
      </trkpt>
      <trkpt lat="49.327435959130526" lon="9.890985963866115">
        <ele>435.61000000000001</ele>
        <time>2018-09-16T08:37:45Z</time>
      </trkpt>
      <trkpt lat="49.327407041564584" lon="9.891052013263106">
        <ele>435.13</ele>
        <time>2018-09-16T08:37:46Z</time>
      </trkpt>
      <trkpt lat="49.327352978289127" lon="9.891070034354925">
        <ele>434.64999999999998</ele>
        <time>2018-09-16T08:37:47Z</time>
      </trkpt>
      <trkpt lat="49.327019965276122" lon="9.891180004924536">
        <ele>433.20999999999998</ele>
        <time>2018-09-16T08:37:51Z</time>
      </trkpt>
      <trkpt lat="49.32692700996995" lon="9.891212023794651">
        <ele>433.20999999999998</ele>
        <time>2018-09-16T08:37:52Z</time>
      </trkpt>
      <trkpt lat="49.326856015250087" lon="9.891281006857753">
        <ele>433.20999999999998</ele>
        <time>2018-09-16T08:37:53Z</time>
      </trkpt>
      <trkpt lat="49.326776973903179" lon="9.891363987699151">
        <ele>432.73000000000002</ele>
        <time>2018-09-16T08:37:54Z</time>
      </trkpt>
      <trkpt lat="49.326694998890162" lon="9.891449986025691">
        <ele>432.25</ele>
        <time>2018-09-16T08:37:55Z</time>
      </trkpt>
      <trkpt lat="49.32660698890686" lon="9.891542019322515">
        <ele>431.76999999999998</ele>
        <time>2018-09-16T08:37:56Z</time>
      </trkpt>
      <trkpt lat="49.325795033946633" lon="9.892569975927472">
        <ele>430.81</ele>
        <time>2018-09-16T08:38:03Z</time>
      </trkpt>
      <trkpt lat="49.325634017586708" lon="9.892723029479384">
        <ele>430.81</ele>
        <time>2018-09-16T08:38:04Z</time>
      </trkpt>
      <trkpt lat="49.325460009276867" lon="9.8928879853338">
        <ele>430.81</ele>
        <time>2018-09-16T08:38:05Z</time>
      </trkpt>
      <trkpt lat="49.325276026502252" lon="9.892975995317102">
        <ele>430.81</ele>
        <time>2018-09-16T08:38:06Z</time>
      </trkpt>
      <trkpt lat="49.323741970583797" lon="9.893966987729073">
        <ele>434.64999999999998</ele>
        <time>2018-09-16T08:38:14Z</time>
      </trkpt>
      <trkpt lat="49.323570979759097" lon="9.894148036837578">
        <ele>435.13</ele>
        <time>2018-09-16T08:38:15Z</time>
      </trkpt>
      <trkpt lat="49.322474962100387" lon="9.895776975899935">
        <ele>441.38</ele>
        <time>2018-09-16T08:38:22Z</time>
      </trkpt>
      <trkpt lat="49.321522023528814" lon="9.897620994597673">
        <ele>443.79000000000002</ele>
        <time>2018-09-16T08:38:29Z</time>
      </trkpt>
      <trkpt lat="49.321387996897101" lon="9.897824004292488">
        <ele>443.79000000000002</ele>
        <time>2018-09-16T08:38:30Z</time>
      </trkpt>
      <trkpt lat="49.32123301550746" lon="9.897991977632046">
        <ele>444.26999999999998</ele>
        <time>2018-09-16T08:38:31Z</time>
      </trkpt>
      <trkpt lat="49.32106101885438" lon="9.898140002042055">
        <ele>444.75</ele>
        <time>2018-09-16T08:38:32Z</time>
      </trkpt>
      <trkpt lat="49.320878963917494" lon="9.898282997310162">
        <ele>444.75</ele>
        <time>2018-09-16T08:38:33Z</time>
      </trkpt>
      <trkpt lat="49.320702021941543" lon="9.89845298230648">
        <ele>444.75</ele>
        <time>2018-09-16T08:38:34Z</time>
      </trkpt>
      <trkpt lat="49.320529019460082" lon="9.898651968687773">
        <ele>445.23000000000002</ele>
        <time>2018-09-16T08:38:35Z</time>
      </trkpt>
      <trkpt lat="49.320355011150241" lon="9.89885900169611">
        <ele>445.70999999999998</ele>
        <time>2018-09-16T08:38:36Z</time>
      </trkpt>
      <trkpt lat="49.319050032645464" lon="9.9007089715451">
        <ele>449.06999999999999</ele>
        <time>2018-09-16T08:38:44Z</time>
      </trkpt>
      <trkpt lat="49.318261966109276" lon="9.902003975585103">
        <ele>448.11000000000001</ele>
        <time>2018-09-16T08:38:49Z</time>
      </trkpt>
      <trkpt lat="49.318126011639833" lon="9.902257025241852">
        <ele>448.58999999999997</ele>
        <time>2018-09-16T08:38:50Z</time>
      </trkpt>
      <trkpt lat="49.317999025806785" lon="9.90249096415937">
        <ele>449.06999999999999</ele>
        <time>2018-09-16T08:38:51Z</time>
      </trkpt>
      <trkpt lat="49.31788201443851" lon="9.90270595997572">
        <ele>449.06999999999999</ele>
        <time>2018-09-16T08:38:52Z</time>
      </trkpt>
      <trkpt lat="49.317745976150036" lon="9.902869993820787">
        <ele>449.06999999999999</ele>
        <time>2018-09-16T08:38:53Z</time>
      </trkpt>
      <trkpt lat="49.317588983103633" lon="9.903016006574035">
        <ele>449.55000000000001</ele>
        <time>2018-09-16T08:38:54Z</time>
      </trkpt>
      <trkpt lat="49.317424027249217" lon="9.903168976306915">
        <ele>450.02999999999997</ele>
        <time>2018-09-16T08:38:55Z</time>
      </trkpt>
      <trkpt lat="49.317254964262247" lon="9.903326975181699">
        <ele>450.02999999999997</ele>
        <time>2018-09-16T08:38:56Z</time>
      </trkpt>
      <trkpt lat="49.316937960684299" lon="9.903623024001718">
        <ele>450.51999999999998</ele>
        <time>2018-09-16T08:38:58Z</time>
      </trkpt>
      <trkpt lat="49.316813992336392" lon="9.903794014826417">
        <ele>450.02999999999997</ele>
        <time>2018-09-16T08:38:59Z</time>
      </trkpt>
      <trkpt lat="49.316742997616529" lon="9.904011022299528">
        <ele>450.02999999999997</ele>
        <time>2018-09-16T08:39:00Z</time>
      </trkpt>
      <trkpt lat="49.316682983189821" lon="9.904240015894175">
        <ele>450.02999999999997</ele>
        <time>2018-09-16T08:39:01Z</time>
      </trkpt>
      <trkpt lat="49.316621962934732" lon="9.904471021145582">
        <ele>449.55000000000001</ele>
        <time>2018-09-16T08:39:02Z</time>
      </trkpt>
      <trkpt lat="49.316549962386489" lon="9.904699008911848">
        <ele>449.06999999999999</ele>
        <time>2018-09-16T08:39:03Z</time>
      </trkpt>
      <trkpt lat="49.316447032615542" lon="9.904904030263424">
        <ele>449.06999999999999</ele>
        <time>2018-09-16T08:39:04Z</time>
      </trkpt>
      <trkpt lat="49.316291967406869" lon="9.905055994167924">
        <ele>449.06999999999999</ele>
        <time>2018-09-16T08:39:05Z</time>
      </trkpt>
      <trkpt lat="49.316124999895692" lon="9.90521902218461">
        <ele>448.58999999999997</ele>
        <time>2018-09-16T08:39:06Z</time>
      </trkpt>
      <trkpt lat="49.314883975312114" lon="9.906371030956507">
        <ele>449.55000000000001</ele>
        <time>2018-09-16T08:39:13Z</time>
      </trkpt>
      <trkpt lat="49.314754977822304" lon="9.906563982367516">
        <ele>449.55000000000001</ele>
        <time>2018-09-16T08:39:14Z</time>
      </trkpt>
      <trkpt lat="49.314664034172893" lon="9.906802028417587">
        <ele>449.55000000000001</ele>
        <time>2018-09-16T08:39:15Z</time>
      </trkpt>
      <trkpt lat="49.314416013658047" lon="9.90745497867465">
        <ele>450.02999999999997</ele>
        <time>2018-09-16T08:39:18Z</time>
      </trkpt>
      <trkpt lat="49.314334038645029" lon="9.907605014741421">
        <ele>450.51999999999998</ele>
        <time>2018-09-16T08:39:19Z</time>
      </trkpt>
      <trkpt lat="49.314236976206303" lon="9.907660000026226">
        <ele>450.51999999999998</ele>
        <time>2018-09-16T08:39:20Z</time>
      </trkpt>
      <trkpt lat="49.314127005636692" lon="9.90764600224793">
        <ele>451</ele>
        <time>2018-09-16T08:39:21Z</time>
      </trkpt>
      <trkpt lat="49.314001025632024" lon="9.907608032226563">
        <ele>451.48000000000002</ele>
        <time>2018-09-16T08:39:22Z</time>
      </trkpt>
      <trkpt lat="49.313893988728523" lon="9.907513987272978">
        <ele>452.44</ele>
        <time>2018-09-16T08:39:23Z</time>
      </trkpt>
      <trkpt lat="49.313769014552236" lon="9.907404016703367">
        <ele>453.39999999999998</ele>
        <time>2018-09-16T08:39:24Z</time>
      </trkpt>
      <trkpt lat="49.3127900082618" lon="9.906540010124445">
        <ele>458.69</ele>
        <time>2018-09-16T08:39:30Z</time>
      </trkpt>
      <trkpt lat="49.311141036450863" lon="9.905546000227332">
        <ele>467.33999999999997</ele>
        <time>2018-09-16T08:39:38Z</time>
      </trkpt>
      <trkpt lat="49.309103982523084" lon="9.905164958909154">
        <ele>469.25999999999999</ele>
        <time>2018-09-16T08:39:47Z</time>
      </trkpt>
      <trkpt lat="49.30830099619925" lon="9.90500696003437">
        <ele>467.33999999999997</ele>
        <time>2018-09-16T08:39:52Z</time>
      </trkpt>
      <trkpt lat="49.308048030361533" lon="9.904949041083455">
        <ele>465.89999999999998</ele>
        <time>2018-09-16T08:39:56Z</time>
      </trkpt>
      <trkpt lat="49.307961026206613" lon="9.904950968921185">
        <ele>465.89999999999998</ele>
        <time>2018-09-16T08:39:57Z</time>
      </trkpt>
      <trkpt lat="49.307856000959873" lon="9.904953986406326">
        <ele>465.89999999999998</ele>
        <time>2018-09-16T08:39:58Z</time>
      </trkpt>
      <trkpt lat="49.306887974962592" lon="9.90502699278295">
        <ele>464.93000000000001</ele>
        <time>2018-09-16T08:40:04Z</time>
      </trkpt>
      <trkpt lat="49.305089972913265" lon="9.90537098608911">
        <ele>459.17000000000002</ele>
        <time>2018-09-16T08:40:12Z</time>
      </trkpt>
      <trkpt lat="49.302178015932441" lon="9.90635602734983">
        <ele>461.56999999999999</ele>
        <time>2018-09-16T08:40:24Z</time>
      </trkpt>
      <trkpt lat="49.300150014460087" lon="9.906687028706074">
        <ele>470.69999999999999</ele>
        <time>2018-09-16T08:40:33Z</time>
      </trkpt>
      <trkpt lat="49.29955598898232" lon="9.90672399289906">
        <ele>469.25999999999999</ele>
        <time>2018-09-16T08:40:36Z</time>
      </trkpt>
      <trkpt lat="49.299374017864466" lon="9.906664984300733">
        <ele>468.77999999999997</ele>
        <time>2018-09-16T08:40:37Z</time>
      </trkpt>
      <trkpt lat="49.299200009554625" lon="9.906539004296064">
        <ele>468.30000000000001</ele>
        <time>2018-09-16T08:40:38Z</time>
      </trkpt>
      <trkpt lat="49.299027007073164" lon="9.906412018463016">
        <ele>467.33999999999997</ele>
        <time>2018-09-16T08:40:39Z</time>
      </trkpt>
      <trkpt lat="49.298857022076845" lon="9.906317973509431">
        <ele>466.86000000000001</ele>
        <time>2018-09-16T08:40:40Z</time>
      </trkpt>
      <trkpt lat="49.298693994060159" lon="9.906243961304426">
        <ele>466.38</ele>
        <time>2018-09-16T08:40:41Z</time>
      </trkpt>
      <trkpt lat="49.298529960215092" lon="9.906170032918453">
        <ele>465.89999999999998</ele>
        <time>2018-09-16T08:40:42Z</time>
      </trkpt>
      <trkpt lat="49.298356035724282" lon="9.906170032918453">
        <ele>465.89999999999998</ele>
        <time>2018-09-16T08:40:43Z</time>
      </trkpt>
      <trkpt lat="49.298172974959016" lon="9.90623096935451">
        <ele>465.42000000000002</ele>
        <time>2018-09-16T08:40:44Z</time>
      </trkpt>
      <trkpt lat="49.297989998012781" lon="9.906309004873037">
        <ele>465.42000000000002</ele>
        <time>2018-09-16T08:40:45Z</time>
      </trkpt>
      <trkpt lat="49.296861039474607" lon="9.906717035919428">
        <ele>468.77999999999997</ele>
        <time>2018-09-16T08:40:52Z</time>
      </trkpt>
      <trkpt lat="49.295997032895684" lon="9.907223973423243">
        <ele>474.06999999999999</ele>
        <time>2018-09-16T08:40:57Z</time>
      </trkpt>
      <trkpt lat="49.295831993222237" lon="9.907359005883336">
        <ele>475.02999999999997</ele>
        <time>2018-09-16T08:40:58Z</time>
      </trkpt>
      <trkpt lat="49.295676006004214" lon="9.907506024464965">
        <ele>476.47000000000003</ele>
        <time>2018-09-16T08:40:59Z</time>
      </trkpt>
      <trkpt lat="49.29553703404963" lon="9.907675003632903">
        <ele>477.43000000000001</ele>
        <time>2018-09-16T08:41:00Z</time>
      </trkpt>
      <trkpt lat="49.295423962175846" lon="9.907879019156098">
        <ele>477.91000000000003</ele>
        <time>2018-09-16T08:41:01Z</time>
      </trkpt>
      <trkpt lat="49.295316003262997" lon="9.908103989437223">
        <ele>478.87</ele>
        <time>2018-09-16T08:41:02Z</time>
      </trkpt>
      <trkpt lat="49.295204021036625" lon="9.908339018002152">
        <ele>479.83999999999997</ele>
        <time>2018-09-16T08:41:03Z</time>
      </trkpt>
      <trkpt lat="49.295115005224943" lon="9.908606987446547">
        <ele>480.31999999999999</ele>
        <time>2018-09-16T08:41:04Z</time>
      </trkpt>
      <trkpt lat="49.294275976717472" lon="9.911045031622052">
        <ele>475.50999999999999</ele>
        <time>2018-09-16T08:41:12Z</time>
      </trkpt>
      <trkpt lat="49.293165961280465" lon="9.913831008598208">
        <ele>464.93000000000001</ele>
        <time>2018-09-16T08:41:21Z</time>
      </trkpt>
      <trkpt lat="49.292679978534579" lon="9.915220979601145">
        <ele>459.17000000000002</ele>
        <time>2018-09-16T08:41:27Z</time>
      </trkpt>
      <trkpt lat="49.2925959918648" lon="9.915360035374761">
        <ele>458.69</ele>
        <time>2018-09-16T08:41:28Z</time>
      </trkpt>
      <trkpt lat="49.292495995759964" lon="9.915462965145707">
        <ele>457.72000000000003</ele>
        <time>2018-09-16T08:41:29Z</time>
      </trkpt>
      <trkpt lat="49.292397005483508" lon="9.915557010099292">
        <ele>456.75999999999999</ele>
        <time>2018-09-16T08:41:30Z</time>
      </trkpt>
      <trkpt lat="49.292302038520575" lon="9.915648959577084">
        <ele>455.80000000000001</ele>
        <time>2018-09-16T08:41:31Z</time>
      </trkpt>
      <trkpt lat="49.292210005223751" lon="9.915736969560385">
        <ele>455.31999999999999</ele>
        <time>2018-09-16T08:41:32Z</time>
      </trkpt>
      <trkpt lat="49.292118977755308" lon="9.915823973715305">
        <ele>454.83999999999997</ele>
        <time>2018-09-16T08:41:33Z</time>
      </trkpt>
      <trkpt lat="49.292049994692206" lon="9.915891028940678">
        <ele>453.88</ele>
        <time>2018-09-16T08:41:34Z</time>
      </trkpt>
      <trkpt lat="49.291996015235782" lon="9.916017008945346">
        <ele>453.39999999999998</ele>
        <time>2018-09-16T08:41:35Z</time>
      </trkpt>
      <trkpt lat="49.29194999858737" lon="9.916123962029815">
        <ele>452.92000000000002</ele>
        <time>2018-09-16T08:41:36Z</time>
      </trkpt>
      <trkpt lat="49.291920997202396" lon="9.916255977004767">
        <ele>452.44</ele>
        <time>2018-09-16T08:41:37Z</time>
      </trkpt>
      <trkpt lat="49.291920997202396" lon="9.916363013908267">
        <ele>451.95999999999998</ele>
        <time>2018-09-16T08:41:38Z</time>
      </trkpt>
      <trkpt lat="49.291973970830441" lon="9.916513971984386">
        <ele>451.48000000000002</ele>
        <time>2018-09-16T08:41:39Z</time>
      </trkpt>
      <trkpt lat="49.292016969993711" lon="9.916638024151325">
        <ele>451</ele>
        <time>2018-09-16T08:41:40Z</time>
      </trkpt>
      <trkpt lat="49.2920589633286" lon="9.916759980842471">
        <ele>450.51999999999998</ele>
        <time>2018-09-16T08:41:41Z</time>
      </trkpt>
      <trkpt lat="49.29210003465414" lon="9.916879003867507">
        <ele>450.51999999999998</ele>
        <time>2018-09-16T08:41:42Z</time>
      </trkpt>
      <trkpt lat="49.292141022160649" lon="9.916999032720923">
        <ele>450.02999999999997</ele>
        <time>2018-09-16T08:41:43Z</time>
      </trkpt>
      <trkpt lat="49.292182009667158" lon="9.917116966098547">
        <ele>449.55000000000001</ele>
        <time>2018-09-16T08:41:44Z</time>
      </trkpt>
      <trkpt lat="49.292225008830428" lon="9.917240012437105">
        <ele>449.55000000000001</ele>
        <time>2018-09-16T08:41:45Z</time>
      </trkpt>
      <trkpt lat="49.29231503047049" lon="9.917634967714548">
        <ele>448.58999999999997</ele>
        <time>2018-09-16T08:41:48Z</time>
      </trkpt>
      <trkpt lat="49.292322993278503" lon="9.91778701543808">
        <ele>448.58999999999997</ele>
        <time>2018-09-16T08:41:49Z</time>
      </trkpt>
      <trkpt lat="49.292320981621742" lon="9.917944008484483">
        <ele>448.58999999999997</ele>
        <time>2018-09-16T08:41:50Z</time>
      </trkpt>
      <trkpt lat="49.292288962751627" lon="9.91808800958097">
        <ele>448.58999999999997</ele>
        <time>2018-09-16T08:41:51Z</time>
      </trkpt>
      <trkpt lat="49.292212016880512" lon="9.918198985978961">
        <ele>448.58999999999997</ele>
        <time>2018-09-16T08:41:52Z</time>
      </trkpt>
      <trkpt lat="49.292149990797043" lon="9.918309962376952">
        <ele>448.58999999999997</ele>
        <time>2018-09-16T08:41:53Z</time>
      </trkpt>
      <trkpt lat="49.292058041319251" lon="9.918370982632041">
        <ele>448.58999999999997</ele>
        <time>2018-09-16T08:41:54Z</time>
      </trkpt>
      <trkpt lat="49.291943041607738" lon="9.918423034250736">
        <ele>449.06999999999999</ele>
        <time>2018-09-16T08:41:55Z</time>
      </trkpt>
      <trkpt lat="49.291881015524268" lon="9.918409958481789">
        <ele>449.55000000000001</ele>
        <time>2018-09-16T08:41:56Z</time>
      </trkpt>
      <trkpt lat="49.291793005540967" lon="9.918364025652409">
        <ele>450.02999999999997</ele>
        <time>2018-09-16T08:41:57Z</time>
      </trkpt>
      <trkpt lat="49.291716981679201" lon="9.918296970427036">
        <ele>450.51999999999998</ele>
        <time>2018-09-16T08:41:58Z</time>
      </trkpt>
      <trkpt lat="49.291552025824785" lon="9.91815104149282">
        <ele>451.95999999999998</ele>
        <time>2018-09-16T08:42:00Z</time>
      </trkpt>
      <trkpt lat="49.29145697504282" lon="9.918077029287815">
        <ele>452.44</ele>
        <time>2018-09-16T08:42:01Z</time>
      </trkpt>
      <trkpt lat="49.291353039443493" lon="9.918060014024377">
        <ele>452.44</ele>
        <time>2018-09-16T08:42:02Z</time>
      </trkpt>
      <trkpt lat="49.291246002539992" lon="9.918041992932558">
        <ele>452.92000000000002</ele>
        <time>2018-09-16T08:42:03Z</time>
      </trkpt>
      <trkpt lat="49.291136031970382" lon="9.918072000145912">
        <ele>453.39999999999998</ele>
        <time>2018-09-16T08:42:04Z</time>
      </trkpt>
      <trkpt lat="49.291030000895262" lon="9.918121034279466">
        <ele>453.88</ele>
        <time>2018-09-16T08:42:05Z</time>
      </trkpt>
      <trkpt lat="49.290921958163381" lon="9.918169984593988">
        <ele>454.36000000000001</ele>
        <time>2018-09-16T08:42:06Z</time>
      </trkpt>
      <trkpt lat="49.290815005078912" lon="9.918220024555922">
        <ele>455.31999999999999</ele>
        <time>2018-09-16T08:42:07Z</time>
      </trkpt>
      <trkpt lat="49.290249980986118" lon="9.918516995385289">
        <ele>459.17000000000002</ele>
        <time>2018-09-16T08:42:13Z</time>
      </trkpt>
      <trkpt lat="49.290114026516676" lon="9.918611040338874">
        <ele>461.08999999999997</ele>
        <time>2018-09-16T08:42:15Z</time>
      </trkpt>
      <trkpt lat="49.28999399766326" lon="9.918566029518843">
        <ele>461.56999999999999</ele>
        <time>2018-09-16T08:42:16Z</time>
      </trkpt>
      <trkpt lat="49.289210960268974" lon="9.918425967916846">
        <ele>462.52999999999997</ele>
        <time>2018-09-16T08:42:23Z</time>
      </trkpt>
      <trkpt lat="49.288730006664991" lon="9.918366959318519">
        <ele>461.08999999999997</ele>
        <time>2018-09-16T08:42:26Z</time>
      </trkpt>
      <trkpt lat="49.288550969213247" lon="9.9183230381459">
        <ele>460.61000000000001</ele>
        <time>2018-09-16T08:42:27Z</time>
      </trkpt>
      <trkpt lat="49.288364974781871" lon="9.918257994577289">
        <ele>459.64999999999998</ele>
        <time>2018-09-16T08:42:28Z</time>
      </trkpt>
      <trkpt lat="49.286671997979283" lon="9.917481997981668">
        <ele>460.13</ele>
        <time>2018-09-16T08:42:37Z</time>
      </trkpt>
      <trkpt lat="49.284306960180402" lon="9.916310962289572">
        <ele>472.63</ele>
        <time>2018-09-16T08:42:49Z</time>
      </trkpt>
      <trkpt lat="49.283001981675625" lon="9.9154909607023">
        <ele>483.19999999999999</ele>
        <time>2018-09-16T08:42:57Z</time>
      </trkpt>
      <trkpt lat="49.281775038689375" lon="9.914325037971139">
        <ele>478.38999999999999</ele>
        <time>2018-09-16T08:43:04Z</time>
      </trkpt>
      <trkpt lat="49.281215965747833" lon="9.913845006376505">
        <ele>473.58999999999997</ele>
        <time>2018-09-16T08:43:07Z</time>
      </trkpt>
      <trkpt lat="49.281038017943501" lon="9.913732018321753">
        <ele>471.66000000000003</ele>
        <time>2018-09-16T08:43:08Z</time>
      </trkpt>
      <trkpt lat="49.280868032947183" lon="9.913655994459987">
        <ele>470.22000000000003</ele>
        <time>2018-09-16T08:43:09Z</time>
      </trkpt>
      <trkpt lat="49.280703999102116" lon="9.913635039702058">
        <ele>469.25999999999999</ele>
        <time>2018-09-16T08:43:10Z</time>
      </trkpt>
      <trkpt lat="49.280543988570571" lon="9.913615006953478">
        <ele>468.30000000000001</ele>
        <time>2018-09-16T08:43:11Z</time>
      </trkpt>
      <trkpt lat="49.280379032716155" lon="9.913592962548137">
        <ele>467.33999999999997</ele>
        <time>2018-09-16T08:43:12Z</time>
      </trkpt>
      <trkpt lat="49.279070030897856" lon="9.913346031680703">
        <ele>463.49000000000001</ele>
        <time>2018-09-16T08:43:19Z</time>
      </trkpt>
      <trkpt lat="49.278859980404377" lon="9.913348965346813">
        <ele>463.00999999999999</ele>
        <time>2018-09-16T08:43:20Z</time>
      </trkpt>
      <trkpt lat="49.277533041313291" lon="9.91338299587369">
        <ele>463.97000000000003</ele>
        <time>2018-09-16T08:43:27Z</time>
      </trkpt>
      <trkpt lat="49.27714797668159" lon="9.9134929664433">
        <ele>467.33999999999997</ele>
        <time>2018-09-16T08:43:32Z</time>
      </trkpt>
      <trkpt lat="49.276624023914337" lon="9.913394981995225">
        <ele>470.22000000000003</ele>
        <time>2018-09-16T08:43:37Z</time>
      </trkpt>
      <trkpt lat="49.276173999533057" lon="9.913402022793889">
        <ele>472.13999999999999</ele>
        <time>2018-09-16T08:43:40Z</time>
      </trkpt>
      <trkpt lat="49.275580979883671" lon="9.91323203779757">
        <ele>473.11000000000001</ele>
        <time>2018-09-16T08:43:44Z</time>
      </trkpt>
      <trkpt lat="49.275458017364144" lon="9.913138998672366">
        <ele>473.11000000000001</ele>
        <time>2018-09-16T08:43:45Z</time>
      </trkpt>
      <trkpt lat="49.275355003774166" lon="9.913036990910769">
        <ele>473.11000000000001</ele>
        <time>2018-09-16T08:43:46Z</time>
      </trkpt>
      <trkpt lat="49.275257019326091" lon="9.912898018956184">
        <ele>472.63</ele>
        <time>2018-09-16T08:43:47Z</time>
      </trkpt>
      <trkpt lat="49.275173032656312" lon="9.912715964019299">
        <ele>472.63</ele>
        <time>2018-09-16T08:43:48Z</time>
      </trkpt>
      <trkpt lat="49.275078987702727" lon="9.912511026486754">
        <ele>472.13999999999999</ele>
        <time>2018-09-16T08:43:49Z</time>
      </trkpt>
      <trkpt lat="49.274975974112749" lon="9.912285972386599">
        <ele>471.66000000000003</ele>
        <time>2018-09-16T08:43:50Z</time>
      </trkpt>
      <trkpt lat="49.274371974170208" lon="9.911055006086826">
        <ele>468.30000000000001</ele>
        <time>2018-09-16T08:43:55Z</time>
      </trkpt>
      <trkpt lat="49.274225039407611" lon="9.910819977521896">
        <ele>467.81999999999999</ele>
        <time>2018-09-16T08:43:56Z</time>
      </trkpt>
      <trkpt lat="49.27405497059226" lon="9.910600958392024">
        <ele>466.86000000000001</ele>
        <time>2018-09-16T08:43:57Z</time>
      </trkpt>
      <trkpt lat="49.273368995636702" lon="9.909700993448496">
        <ele>465.42000000000002</ele>
        <time>2018-09-16T08:44:01Z</time>
      </trkpt>
      <trkpt lat="49.273232035338879" lon="9.909419026225805">
        <ele>465.42000000000002</ele>
        <time>2018-09-16T08:44:02Z</time>
      </trkpt>
      <trkpt lat="49.272395018488169" lon="9.907694030553103">
        <ele>470.22000000000003</ele>
        <time>2018-09-16T08:44:09Z</time>
      </trkpt>
      <trkpt lat="49.271230017766356" lon="9.905653037130833">
        <ele>468.30000000000001</ele>
        <time>2018-09-16T08:44:18Z</time>
      </trkpt>
      <trkpt lat="49.269964015111327" lon="9.903871966525912">
        <ele>461.56999999999999</ele>
        <time>2018-09-16T08:44:26Z</time>
      </trkpt>
      <trkpt lat="49.269828982651234" lon="9.90362998098135">
        <ele>461.08999999999997</ele>
        <time>2018-09-16T08:44:27Z</time>
      </trkpt>
      <trkpt lat="49.269694034010172" lon="9.903377015143633">
        <ele>461.08999999999997</ele>
        <time>2018-09-16T08:44:28Z</time>
      </trkpt>
      <trkpt lat="49.269581967964768" lon="9.903096975758672">
        <ele>461.56999999999999</ele>
        <time>2018-09-16T08:44:29Z</time>
      </trkpt>
      <trkpt lat="49.268727013841271" lon="9.900152999907732">
        <ele>464.93000000000001</ele>
        <time>2018-09-16T08:44:38Z</time>
      </trkpt>
      <trkpt lat="49.268056964501739" lon="9.89772099070251">
        <ele>462.52999999999997</ele>
        <time>2018-09-16T08:44:45Z</time>
      </trkpt>
      <trkpt lat="49.268028968945146" lon="9.897350007668138">
        <ele>462.05000000000001</ele>
        <time>2018-09-16T08:44:46Z</time>
      </trkpt>
      <trkpt lat="49.26801698282361" lon="9.896980030462146">
        <ele>462.05000000000001</ele>
        <time>2018-09-16T08:44:47Z</time>
      </trkpt>
      <trkpt lat="49.268004996702075" lon="9.896614998579025">
        <ele>462.05000000000001</ele>
        <time>2018-09-16T08:44:48Z</time>
      </trkpt>
      <trkpt lat="49.26799301058054" lon="9.896254995837808">
        <ele>462.05000000000001</ele>
        <time>2018-09-16T08:44:49Z</time>
      </trkpt>
      <trkpt lat="49.267981024459004" lon="9.895897004753351">
        <ele>462.05000000000001</ele>
        <time>2018-09-16T08:44:50Z</time>
      </trkpt>
      <trkpt lat="49.267949005588889" lon="9.895544964820147">
        <ele>462.52999999999997</ele>
        <time>2018-09-16T08:44:51Z</time>
      </trkpt>
      <trkpt lat="49.267453970387578" lon="9.893180010840297">
        <ele>469.74000000000001</ele>
        <time>2018-09-16T08:44:58Z</time>
      </trkpt>
      <trkpt lat="49.266517963260412" lon="9.890753030776978">
        <ele>476.94999999999999</ele>
        <time>2018-09-16T08:45:06Z</time>
      </trkpt>
      <trkpt lat="49.265885967761278" lon="9.889241019263864">
        <ele>480.80000000000001</ele>
        <time>2018-09-16T08:45:12Z</time>
      </trkpt>
      <trkpt lat="49.265774991363287" lon="9.888989981263876">
        <ele>481.75999999999999</ele>
        <time>2018-09-16T08:45:14Z</time>
      </trkpt>
      <trkpt lat="49.265710031613708" lon="9.888922004029155">
        <ele>481.75999999999999</ele>
        <time>2018-09-16T08:45:15Z</time>
      </trkpt>
      <trkpt lat="49.265642976388335" lon="9.888928961008787">
        <ele>482.24000000000001</ele>
        <time>2018-09-16T08:45:16Z</time>
      </trkpt>
      <trkpt lat="49.265556978061795" lon="9.888938013464212">
        <ele>482.24000000000001</ele>
        <time>2018-09-16T08:45:17Z</time>
      </trkpt>
      <trkpt lat="49.265451030805707" lon="9.888948993757367">
        <ele>482.24000000000001</ele>
        <time>2018-09-16T08:45:18Z</time>
      </trkpt>
      <trkpt lat="49.265059009194374" lon="9.889029962942004">
        <ele>482.72000000000003</ele>
        <time>2018-09-16T08:45:21Z</time>
      </trkpt>
      <trkpt lat="49.264931017532945" lon="9.889127025380731">
        <ele>482.72000000000003</ele>
        <time>2018-09-16T08:45:22Z</time>
      </trkpt>
      <trkpt lat="49.264801014214754" lon="9.889227021485567">
        <ele>482.72000000000003</ele>
        <time>2018-09-16T08:45:23Z</time>
      </trkpt>
      <trkpt lat="49.264691965654492" lon="9.88936398178339">
        <ele>482.72000000000003</ele>
        <time>2018-09-16T08:45:24Z</time>
      </trkpt>
      <trkpt lat="49.264596998691559" lon="9.889517035335302">
        <ele>482.72000000000003</ele>
        <time>2018-09-16T08:45:25Z</time>
      </trkpt>
      <trkpt lat="49.264501025900245" lon="9.889671010896564">
        <ele>482.72000000000003</ele>
        <time>2018-09-16T08:45:26Z</time>
      </trkpt>
      <trkpt lat="49.263742966577411" lon="9.890783037990332">
        <ele>484.16000000000003</ele>
        <time>2018-09-16T08:45:35Z</time>
      </trkpt>
      <trkpt lat="49.263630984351039" lon="9.890936007723212">
        <ele>484.63999999999999</ele>
        <time>2018-09-16T08:45:37Z</time>
      </trkpt>
      <trkpt lat="49.263582034036517" lon="9.891042960807681">
        <ele>484.63999999999999</ele>
        <time>2018-09-16T08:45:38Z</time>
      </trkpt>
      <trkpt lat="49.26352696493268" lon="9.891160978004336">
        <ele>484.63999999999999</ele>
        <time>2018-09-16T08:45:39Z</time>
      </trkpt>
      <trkpt lat="49.263468962162733" lon="9.891285030171275">
        <ele>484.16000000000003</ele>
        <time>2018-09-16T08:45:40Z</time>
      </trkpt>
      <trkpt lat="49.263410037383437" lon="9.891412016004324">
        <ele>484.63999999999999</ele>
        <time>2018-09-16T08:45:41Z</time>
      </trkpt>
      <trkpt lat="49.263023966923356" lon="9.892193041741848">
        <ele>484.16000000000003</ele>
        <time>2018-09-16T08:45:47Z</time>
      </trkpt>
      <trkpt lat="49.262935034930706" lon="9.892297983169556">
        <ele>484.16000000000003</ele>
        <time>2018-09-16T08:45:48Z</time>
      </trkpt>
      <trkpt lat="49.262845013290644" lon="9.892405020073056">
        <ele>483.68000000000001</ele>
        <time>2018-09-16T08:45:49Z</time>
      </trkpt>
      <trkpt lat="49.26275197416544" lon="9.892509961500764">
        <ele>483.68000000000001</ele>
        <time>2018-09-16T08:45:50Z</time>
      </trkpt>
      <trkpt lat="49.262663964182138" lon="9.892601994797587">
        <ele>483.68000000000001</ele>
        <time>2018-09-16T08:45:51Z</time>
      </trkpt>
      <trkpt lat="49.262577965855598" lon="9.892699979245663">
        <ele>483.68000000000001</ele>
        <time>2018-09-16T08:45:52Z</time>
      </trkpt>
      <trkpt lat="49.262245036661625" lon="9.89307900890708">
        <ele>482.24000000000001</ele>
        <time>2018-09-16T08:45:56Z</time>
      </trkpt>
      <trkpt lat="49.261876987293363" lon="9.893496008589864">
        <ele>480.80000000000001</ele>
        <time>2018-09-16T08:46:01Z</time>
      </trkpt>
      <trkpt lat="49.261824013665318" lon="9.893602039664984">
        <ele>480.31999999999999</ele>
        <time>2018-09-16T08:46:02Z</time>
      </trkpt>
      <trkpt lat="49.261765005066991" lon="9.893720978870988">
        <ele>480.31999999999999</ele>
        <time>2018-09-16T08:46:03Z</time>
      </trkpt>
      <trkpt lat="49.261103002354503" lon="9.894899977371097">
        <ele>476.94999999999999</ele>
        <time>2018-09-16T08:46:11Z</time>
      </trkpt>
      <trkpt lat="49.260862022638321" lon="9.895184962078929">
        <ele>475.99000000000001</ele>
        <time>2018-09-16T08:46:13Z</time>
      </trkpt>
      <trkpt lat="49.260719027370214" lon="9.895289987325668">
        <ele>475.50999999999999</ele>
        <time>2018-09-16T08:46:14Z</time>
      </trkpt>
      <trkpt lat="49.260563040152192" lon="9.89540096372366">
        <ele>475.02999999999997</ele>
        <time>2018-09-16T08:46:15Z</time>
      </trkpt>
      <trkpt lat="49.260386014357209" lon="9.89544496871531">
        <ele>474.06999999999999</ele>
        <time>2018-09-16T08:46:16Z</time>
      </trkpt>
      <trkpt lat="49.260198008269072" lon="9.895491991192102">
        <ele>473.11000000000001</ele>
        <time>2018-09-16T08:46:17Z</time>
      </trkpt>
      <trkpt lat="49.260002039372921" lon="9.895517975091934">
        <ele>472.13999999999999</ele>
        <time>2018-09-16T08:46:18Z</time>
      </trkpt>
      <trkpt lat="49.259799029678106" lon="9.895535996183753">
        <ele>471.18000000000001</ele>
        <time>2018-09-16T08:46:19Z</time>
      </trkpt>
      <trkpt lat="49.259052034467459" lon="9.895640015602112">
        <ele>467.33999999999997</ele>
        <time>2018-09-16T08:46:23Z</time>
      </trkpt>
      <trkpt lat="49.258876014500856" lon="9.895720984786749">
        <ele>466.38</ele>
        <time>2018-09-16T08:46:24Z</time>
      </trkpt>
      <trkpt lat="49.258739976212382" lon="9.89589499309659">
        <ele>465.89999999999998</ele>
        <time>2018-09-16T08:46:25Z</time>
      </trkpt>
      <trkpt lat="49.257804974913597" lon="9.897070974111557">
        <ele>463.97000000000003</ele>
        <time>2018-09-16T08:46:32Z</time>
      </trkpt>
      <trkpt lat="49.257692992687225" lon="9.897183040156961">
        <ele>463.49000000000001</ele>
        <time>2018-09-16T08:46:33Z</time>
      </trkpt>
      <trkpt lat="49.257568018510938" lon="9.89722503349185">
        <ele>463.00999999999999</ele>
        <time>2018-09-16T08:46:34Z</time>
      </trkpt>
      <trkpt lat="49.25744597800076" lon="9.897229978814721">
        <ele>462.05000000000001</ele>
        <time>2018-09-16T08:46:35Z</time>
      </trkpt>
      <trkpt lat="49.257317986339331" lon="9.897179016843438">
        <ele>462.05000000000001</ele>
        <time>2018-09-16T08:46:36Z</time>
      </trkpt>
      <trkpt lat="49.257194017991424" lon="9.897073991596699">
        <ele>461.56999999999999</ele>
        <time>2018-09-16T08:46:37Z</time>
      </trkpt>
      <trkpt lat="49.257069965824485" lon="9.896929990500212">
        <ele>461.56999999999999</ele>
        <time>2018-09-16T08:46:38Z</time>
      </trkpt>
      <trkpt lat="49.256939040496945" lon="9.896769979968667">
        <ele>461.56999999999999</ele>
        <time>2018-09-16T08:46:39Z</time>
      </trkpt>
      <trkpt lat="49.255595002323389" lon="9.894954040646553">
        <ele>459.17000000000002</ele>
        <time>2018-09-16T08:46:48Z</time>
      </trkpt>
      <trkpt lat="49.253677977249026" lon="9.89249998703599">
        <ele>457.72000000000003</ele>
        <time>2018-09-16T08:47:00Z</time>
      </trkpt>
      <trkpt lat="49.253327026963234" lon="9.892246015369892">
        <ele>456.75999999999999</ele>
        <time>2018-09-16T08:47:02Z</time>
      </trkpt>
      <trkpt lat="49.253161987289786" lon="9.89213403314352">
        <ele>455.80000000000001</ele>
        <time>2018-09-16T08:47:03Z</time>
      </trkpt>
      <trkpt lat="49.252992002293468" lon="9.89204803481698">
        <ele>455.31999999999999</ele>
        <time>2018-09-16T08:47:04Z</time>
      </trkpt>
      <trkpt lat="49.252823023125529" lon="9.892036970704794">
        <ele>454.83999999999997</ele>
        <time>2018-09-16T08:47:05Z</time>
      </trkpt>
      <trkpt lat="49.252649014815688" lon="9.892045017331839">
        <ele>454.36000000000001</ele>
        <time>2018-09-16T08:47:06Z</time>
      </trkpt>
      <trkpt lat="49.252483975142241" lon="9.892082987353206">
        <ele>453.88</ele>
        <time>2018-09-16T08:47:07Z</time>
      </trkpt>
      <trkpt lat="49.251895984634757" lon="9.892195975407958">
        <ele>451.95999999999998</ele>
        <time>2018-09-16T08:47:11Z</time>
      </trkpt>
      <trkpt lat="49.251776039600372" lon="9.892186000943184">
        <ele>451.48000000000002</ele>
        <time>2018-09-16T08:47:12Z</time>
      </trkpt>
      <trkpt lat="49.251669002696872" lon="9.892169991508126">
        <ele>451.48000000000002</ele>
        <time>2018-09-16T08:47:13Z</time>
      </trkpt>
      <trkpt lat="49.251571018248796" lon="9.892145013436675">
        <ele>451.48000000000002</ele>
        <time>2018-09-16T08:47:14Z</time>
      </trkpt>
      <trkpt lat="49.251480996608734" lon="9.892121963202953">
        <ele>451.48000000000002</ele>
        <time>2018-09-16T08:47:15Z</time>
      </trkpt>
      <trkpt lat="49.250370981171727" lon="9.891930017620325">
        <ele>447.14999999999998</ele>
        <time>2018-09-16T08:47:27Z</time>
      </trkpt>
      <trkpt lat="49.249360039830208" lon="9.892036970704794">
        <ele>443.31</ele>
        <time>2018-09-16T08:47:38Z</time>
      </trkpt>
      <trkpt lat="49.248546995222569" lon="9.891884000971913">
        <ele>437.06</ele>
        <time>2018-09-16T08:47:47Z</time>
      </trkpt>
      <trkpt lat="49.247979037463665" lon="9.891695994883776">
        <ele>434.64999999999998</ele>
        <time>2018-09-16T08:47:54Z</time>
      </trkpt>
      <trkpt lat="49.247428011149168" lon="9.891522992402315">
        <ele>432.25</ele>
        <time>2018-09-16T08:48:01Z</time>
      </trkpt>
      <trkpt lat="49.247084017843008" lon="9.891395000740886">
        <ele>429.37</ele>
        <time>2018-09-16T08:48:06Z</time>
      </trkpt>
      <trkpt lat="49.247032972052693" lon="9.891344960778952">
        <ele>428.88999999999999</ele>
        <time>2018-09-16T08:48:07Z</time>
      </trkpt>
      <trkpt lat="49.246984021738172" lon="9.891295004636049">
        <ele>428.39999999999998</ele>
        <time>2018-09-16T08:48:08Z</time>
      </trkpt>
      <trkpt lat="49.24693800508976" lon="9.891249993816018">
        <ele>428.39999999999998</ele>
        <time>2018-09-16T08:48:09Z</time>
      </trkpt>
      <trkpt lat="49.246897017583251" lon="9.891208000481129">
        <ele>428.88999999999999</ele>
        <time>2018-09-16T08:48:10Z</time>
      </trkpt>
      <trkpt lat="49.246839014813304" lon="9.891149997711182">
        <ele>428.39999999999998</ele>
        <time>2018-09-16T08:48:11Z</time>
      </trkpt>
      <trkpt lat="49.246823005378246" lon="9.891085959970951">
        <ele>428.39999999999998</ele>
        <time>2018-09-16T08:48:12Z</time>
      </trkpt>
      <trkpt lat="49.246796015650034" lon="9.890978001058102">
        <ele>428.39999999999998</ele>
        <time>2018-09-16T08:48:13Z</time>
      </trkpt>
      <trkpt lat="49.246748993173242" lon="9.890946988016367">
        <ele>427.92000000000002</ele>
        <time>2018-09-16T08:48:14Z</time>
      </trkpt>
      <trkpt lat="49.24668001011014" lon="9.890927039086819">
        <ele>427.92000000000002</ele>
        <time>2018-09-16T08:48:15Z</time>
      </trkpt>
      <trkpt lat="49.246602980419993" lon="9.890913963317871">
        <ele>427.44</ele>
        <time>2018-09-16T08:48:16Z</time>
      </trkpt>
      <trkpt lat="49.246521005406976" lon="9.890900971367955">
        <ele>426.95999999999998</ele>
        <time>2018-09-16T08:48:17Z</time>
      </trkpt>
      <trkpt lat="49.246280025690794" lon="9.890859983861446">
        <ele>425.51999999999998</ele>
        <time>2018-09-16T08:48:20Z</time>
      </trkpt>
      <trkpt lat="49.246206013485789" lon="9.890850009396672">
        <ele>424.56</ele>
        <time>2018-09-16T08:48:21Z</time>
      </trkpt>
      <trkpt lat="49.246138036251068" lon="9.890850009396672">
        <ele>424.07999999999998</ele>
        <time>2018-09-16T08:48:22Z</time>
      </trkpt>
      <trkpt lat="49.246034016832709" lon="9.890926033258438">
        <ele>423.12</ele>
        <time>2018-09-16T08:48:23Z</time>
      </trkpt>
      <trkpt lat="49.245986994355917" lon="9.891032986342907">
        <ele>422.16000000000003</ele>
        <time>2018-09-16T08:48:24Z</time>
      </trkpt>
      <trkpt lat="49.245586004108191" lon="9.891557022929192">
        <ele>418.31</ele>
        <time>2018-09-16T08:48:29Z</time>
      </trkpt>
      <trkpt lat="49.245333038270473" lon="9.891848964616656">
        <ele>417.82999999999998</ele>
        <time>2018-09-16T08:48:32Z</time>
      </trkpt>
      <trkpt lat="49.245250979438424" lon="9.891944015398622">
        <ele>417.35000000000002</ele>
        <time>2018-09-16T08:48:33Z</time>
      </trkpt>
      <trkpt lat="49.245210997760296" lon="9.892068989574909">
        <ele>417.35000000000002</ele>
        <time>2018-09-16T08:48:34Z</time>
      </trkpt>
      <trkpt lat="49.245007988065481" lon="9.892711965367198">
        <ele>417.82999999999998</ele>
        <time>2018-09-16T08:48:39Z</time>
      </trkpt>
      <trkpt lat="49.244945039972663" lon="9.89282201975584">
        <ele>417.82999999999998</ele>
        <time>2018-09-16T08:48:40Z</time>
      </trkpt>
      <trkpt lat="49.244868010282516" lon="9.892921010032296">
        <ele>417.82999999999998</ele>
        <time>2018-09-16T08:48:41Z</time>
      </trkpt>
      <trkpt lat="49.244056977331638" lon="9.893986014649272">
        <ele>415.43000000000001</ele>
        <time>2018-09-16T08:48:52Z</time>
      </trkpt>
      <trkpt lat="49.243536964058876" lon="9.894715994596481">
        <ele>411.57999999999998</ele>
        <time>2018-09-16T08:48:59Z</time>
      </trkpt>
      <trkpt lat="49.243438979610801" lon="9.89482001401484">
        <ele>410.62</ele>
        <time>2018-09-16T08:49:00Z</time>
      </trkpt>
      <trkpt lat="49.243330014869571" lon="9.894911041483283">
        <ele>409.66000000000003</ele>
        <time>2018-09-16T08:49:01Z</time>
      </trkpt>
      <trkpt lat="49.243233958259225" lon="9.89499100483954">
        <ele>408.69999999999999</ele>
        <time>2018-09-16T08:49:02Z</time>
      </trkpt>
      <trkpt lat="49.243095992133021" lon="9.894977007061243">
        <ele>407.25999999999999</ele>
        <time>2018-09-16T08:49:03Z</time>
      </trkpt>
      <trkpt lat="49.242965988814831" lon="9.894964015111327">
        <ele>406.29000000000002</ele>
        <time>2018-09-16T08:49:04Z</time>
      </trkpt>
      <trkpt lat="49.242833973839879" lon="9.894951023161411">
        <ele>404.85000000000002</ele>
        <time>2018-09-16T08:49:05Z</time>
      </trkpt>
      <trkpt lat="49.242704976350069" lon="9.894938031211495">
        <ele>403.41000000000003</ele>
        <time>2018-09-16T08:49:06Z</time>
      </trkpt>
      <trkpt lat="49.242142969742417" lon="9.894772991538048">
        <ele>398.12</ele>
        <time>2018-09-16T08:49:10Z</time>
      </trkpt>
      <trkpt lat="49.242009026929736" lon="9.89466997794807">
        <ele>396.68000000000001</ele>
        <time>2018-09-16T08:49:11Z</time>
      </trkpt>
      <trkpt lat="49.241875000298023" lon="9.894539974629879">
        <ele>395.72000000000003</ele>
        <time>2018-09-16T08:49:12Z</time>
      </trkpt>
      <trkpt lat="49.241738962009549" lon="9.894408965483308">
        <ele>394.27999999999997</ele>
        <time>2018-09-16T08:49:13Z</time>
      </trkpt>
      <trkpt lat="49.241609964519739" lon="9.89428399130702">
        <ele>392.83999999999997</ele>
        <time>2018-09-16T08:49:14Z</time>
      </trkpt>
      <trkpt lat="49.241491025313735" lon="9.894168991595507">
        <ele>391.87</ele>
        <time>2018-09-16T08:49:15Z</time>
      </trkpt>
      <trkpt lat="49.24137300811708" lon="9.89411098882556">
        <ele>390.43000000000001</ele>
        <time>2018-09-16T08:49:16Z</time>
      </trkpt>
      <trkpt lat="49.241252979263663" lon="9.89411098882556">
        <ele>389.47000000000003</ele>
        <time>2018-09-16T08:49:17Z</time>
      </trkpt>
      <trkpt lat="49.241121970117092" lon="9.894116017967463">
        <ele>388.50999999999999</ele>
        <time>2018-09-16T08:49:18Z</time>
      </trkpt>
      <trkpt lat="49.240993978455663" lon="9.894179971888661">
        <ele>387.55000000000001</ele>
        <time>2018-09-16T08:49:19Z</time>
      </trkpt>
      <trkpt lat="49.240518976002932" lon="9.894537040963769">
        <ele>383.22000000000003</ele>
        <time>2018-09-16T08:49:23Z</time>
      </trkpt>
      <trkpt lat="49.240400958806276" lon="9.894678024575114">
        <ele>381.77999999999997</ele>
        <time>2018-09-16T08:49:24Z</time>
      </trkpt>
      <trkpt lat="49.240283025428653" lon="9.894848009571433">
        <ele>380.33999999999997</ele>
        <time>2018-09-16T08:49:25Z</time>
      </trkpt>
      <trkpt lat="49.240158973261714" lon="9.895026963204145">
        <ele>379.38</ele>
        <time>2018-09-16T08:49:26Z</time>
      </trkpt>
      <trkpt lat="49.24004296772182" lon="9.895235002040863">
        <ele>377.94</ele>
        <time>2018-09-16T08:49:27Z</time>
      </trkpt>
      <trkpt lat="49.23995504155755" lon="9.895459972321987">
        <ele>376.49000000000001</ele>
        <time>2018-09-16T08:49:28Z</time>
      </trkpt>
      <trkpt lat="49.239865019917488" lon="9.895689971745014">
        <ele>375.05000000000001</ele>
        <time>2018-09-16T08:49:29Z</time>
      </trkpt>
      <trkpt lat="49.239124981686473" lon="9.897803971543908">
        <ele>368.31999999999999</ele>
        <time>2018-09-16T08:49:37Z</time>
      </trkpt>
      <trkpt lat="49.239040995016694" lon="9.89808602258563">
        <ele>367.83999999999997</ele>
        <time>2018-09-16T08:49:38Z</time>
      </trkpt>
      <trkpt lat="49.238957008346915" lon="9.898379975929856">
        <ele>366.88</ele>
        <time>2018-09-16T08:49:39Z</time>
      </trkpt>
      <trkpt lat="49.238876039162278" lon="9.898690022528172">
        <ele>365.92000000000002</ele>
        <time>2018-09-16T08:49:40Z</time>
      </trkpt>
      <trkpt lat="49.238240020349622" lon="9.90111499093473">
        <ele>358.70999999999998</ele>
        <time>2018-09-16T08:49:48Z</time>
      </trkpt>
      <trkpt lat="49.237911030650139" lon="9.901756960898638">
        <ele>355.33999999999997</ele>
        <time>2018-09-16T08:49:51Z</time>
      </trkpt>
      <trkpt lat="49.237791001796722" lon="9.90195200778544">
        <ele>354.38</ele>
        <time>2018-09-16T08:49:52Z</time>
      </trkpt>
      <trkpt lat="49.237667033448815" lon="9.902154011651874">
        <ele>352.94</ele>
        <time>2018-09-16T08:49:53Z</time>
      </trkpt>
      <trkpt lat="49.236632036045194" lon="9.903840031474829">
        <ele>347.17000000000002</ele>
        <time>2018-09-16T08:50:01Z</time>
      </trkpt>
      <trkpt lat="49.236359959468246" lon="9.90444696508348">
        <ele>346.20999999999998</ele>
        <time>2018-09-16T08:50:04Z</time>
      </trkpt>
      <trkpt lat="49.23630103468895" lon="9.904644023627043">
        <ele>345.25</ele>
        <time>2018-09-16T08:50:05Z</time>
      </trkpt>
      <trkpt lat="49.23626096919179" lon="9.904824988916516">
        <ele>344.76999999999998</ele>
        <time>2018-09-16T08:50:06Z</time>
      </trkpt>
      <trkpt lat="49.236231967806816" lon="9.904991034418345">
        <ele>344.29000000000002</ele>
        <time>2018-09-16T08:50:07Z</time>
      </trkpt>
      <trkpt lat="49.236205983906984" lon="9.905136963352561">
        <ele>343.32999999999998</ele>
        <time>2018-09-16T08:50:08Z</time>
      </trkpt>
      <trkpt lat="49.236121997237206" lon="9.905415996909142">
        <ele>341.41000000000003</ele>
        <time>2018-09-16T08:50:12Z</time>
      </trkpt>
      <trkpt lat="49.23611001111567" lon="9.905440974980593">
        <ele>340.92000000000002</ele>
        <time>2018-09-16T08:50:13Z</time>
      </trkpt>
      <trkpt lat="49.23611001111567" lon="9.905440974980593">
        <ele>340.44</ele>
        <time>2018-09-16T08:50:14Z</time>
      </trkpt>
      <trkpt lat="49.236071035265923" lon="9.90545698441565">
        <ele>339.95999999999998</ele>
        <time>2018-09-16T08:50:16Z</time>
      </trkpt>
      <trkpt lat="49.236054020002484" lon="9.905465031042695">
        <ele>339.95999999999998</ele>
        <time>2018-09-16T08:50:17Z</time>
      </trkpt>
      <trkpt lat="49.236035998910666" lon="9.905472993850708">
        <ele>339.95999999999998</ele>
        <time>2018-09-16T08:50:18Z</time>
      </trkpt>
      <trkpt lat="49.235968021675944" lon="9.905421026051045">
        <ele>339.48000000000002</ele>
        <time>2018-09-16T08:50:19Z</time>
      </trkpt>
      <trkpt lat="49.235972966998816" lon="9.905371991917491">
        <ele>339</ele>
        <time>2018-09-16T08:50:20Z</time>
      </trkpt>
      <trkpt lat="49.23598101362586" lon="9.905291022732854">
        <ele>338.51999999999998</ele>
        <time>2018-09-16T08:50:21Z</time>
      </trkpt>
      <trkpt lat="49.235985958948731" lon="9.905187003314495">
        <ele>338.04000000000002</ele>
        <time>2018-09-16T08:50:22Z</time>
      </trkpt>
      <trkpt lat="49.235991993919015" lon="9.905059011653066">
        <ele>337.56</ele>
        <time>2018-09-16T08:50:23Z</time>
      </trkpt>
      <trkpt lat="49.236230961978436" lon="9.90386500954628">
        <ele>333.23000000000002</ele>
        <time>2018-09-16T08:50:32Z</time>
      </trkpt>
      <trkpt lat="49.23623900860548" lon="9.903831984847784">
        <ele>332.26999999999998</ele>
        <time>2018-09-16T08:50:33Z</time>
      </trkpt>
      <trkpt lat="49.236226016655564" lon="9.903706004843116">
        <ele>331.31</ele>
        <time>2018-09-16T08:50:34Z</time>
      </trkpt>
      <trkpt lat="49.236215958371758" lon="9.903614977374673">
        <ele>329.87</ele>
        <time>2018-09-16T08:50:36Z</time>
      </trkpt>
      <trkpt lat="49.236187040805817" lon="9.903577007353306">
        <ele>328.91000000000003</ele>
        <time>2018-09-16T08:50:37Z</time>
      </trkpt>
      <trkpt lat="49.23615301027894" lon="9.903530990704894">
        <ele>327.94999999999999</ele>
        <time>2018-09-16T08:50:38Z</time>
      </trkpt>
      <trkpt lat="49.236143035814166" lon="9.903562003746629">
        <ele>326.99000000000001</ele>
        <time>2018-09-16T08:50:39Z</time>
      </trkpt>
      <trkpt lat="49.236120991408825" lon="9.903637021780014">
        <ele>326.01999999999998</ele>
        <time>2018-09-16T08:50:40Z</time>
      </trkpt>
      <trkpt lat="49.236094001680613" lon="9.903727965429425">
        <ele>325.54000000000002</ele>
        <time>2018-09-16T08:50:41Z</time>
      </trkpt>
      <trkpt lat="49.236062988638878" lon="9.903832990676165">
        <ele>324.57999999999998</ele>
        <time>2018-09-16T08:50:42Z</time>
      </trkpt>
      <trkpt lat="49.236027030274272" lon="9.903954025357962">
        <ele>323.13999999999999</ele>
        <time>2018-09-16T08:50:43Z</time>
      </trkpt>
      <trkpt lat="49.235986964777112" lon="9.904088973999023">
        <ele>321.69999999999999</ele>
        <time>2018-09-16T08:50:44Z</time>
      </trkpt>
      <trkpt lat="49.235942959785461" lon="9.904236998409033">
        <ele>320.25999999999999</ele>
        <time>2018-09-16T08:50:45Z</time>
      </trkpt>
      <trkpt lat="49.235888980329037" lon="9.904390973970294">
        <ele>319.30000000000001</ele>
        <time>2018-09-16T08:50:46Z</time>
      </trkpt>
      <trkpt lat="49.235825026407838" lon="9.904542015865445">
        <ele>317.85000000000002</ele>
        <time>2018-09-16T08:50:47Z</time>
      </trkpt>
      <trkpt lat="49.235756965354085" lon="9.904701020568609">
        <ele>317.37</ele>
        <time>2018-09-16T08:50:48Z</time>
      </trkpt>
      <trkpt lat="49.23561698757112" lon="9.905031016096473">
        <ele>315.44999999999999</ele>
        <time>2018-09-16T08:50:50Z</time>
      </trkpt>
      <trkpt lat="49.235459994524717" lon="9.905366040766239">
        <ele>313.05000000000001</ele>
        <time>2018-09-16T08:50:52Z</time>
      </trkpt>
      <trkpt lat="49.235354969277978" lon="9.905505012720823">
        <ele>311.60000000000002</ele>
        <time>2018-09-16T08:50:53Z</time>
      </trkpt>
      <trkpt lat="49.235246004536748" lon="9.905633004382253">
        <ele>310.63999999999999</ele>
        <time>2018-09-16T08:50:54Z</time>
      </trkpt>
      <trkpt lat="49.23514299094677" lon="9.905755966901779">
        <ele>309.19999999999999</ele>
        <time>2018-09-16T08:50:55Z</time>
      </trkpt>
      <trkpt lat="49.235059004276991" lon="9.905893011018634">
        <ele>308.24000000000001</ele>
        <time>2018-09-16T08:50:56Z</time>
      </trkpt>
      <trkpt lat="49.23499496653676" lon="9.906027037650347">
        <ele>306.80000000000001</ele>
        <time>2018-09-16T08:50:57Z</time>
      </trkpt>
      <trkpt lat="49.234936041757464" lon="9.906150000169873">
        <ele>305.83999999999997</ele>
        <time>2018-09-16T08:50:58Z</time>
      </trkpt>
      <trkpt lat="49.234880972653627" lon="9.906267011538148">
        <ele>304.88</ele>
        <time>2018-09-16T08:50:59Z</time>
      </trkpt>
      <trkpt lat="49.234830010682344" lon="9.906377987936139">
        <ele>304.38999999999999</ele>
        <time>2018-09-16T08:51:00Z</time>
      </trkpt>
      <trkpt lat="49.234579978510737" lon="9.906925996765494">
        <ele>302.47000000000003</ele>
        <time>2018-09-16T08:51:05Z</time>
      </trkpt>
      <trkpt lat="49.234479982405901" lon="9.907146021723747">
        <ele>301.50999999999999</ele>
        <time>2018-09-16T08:51:07Z</time>
      </trkpt>
      <trkpt lat="49.23443203791976" lon="9.907249035313726">
        <ele>301.50999999999999</ele>
        <time>2018-09-16T08:51:08Z</time>
      </trkpt>
      <trkpt lat="49.234215030446649" lon="9.907558998093009">
        <ele>299.58999999999997</ele>
        <time>2018-09-16T08:51:12Z</time>
      </trkpt>
      <trkpt lat="49.234163984656334" lon="9.907632004469633">
        <ele>299.11000000000001</ele>
        <time>2018-09-16T08:51:13Z</time>
      </trkpt>
      <trkpt lat="49.233984025195241" lon="9.907891005277634">
        <ele>297.67000000000002</ele>
        <time>2018-09-16T08:51:16Z</time>
      </trkpt>
      <trkpt lat="49.233873970806599" lon="9.908137014135718">
        <ele>296.69999999999999</ele>
        <time>2018-09-16T08:51:18Z</time>
      </trkpt>
      <trkpt lat="49.233823008835316" lon="9.908273974433541">
        <ele>296.22000000000003</ele>
        <time>2018-09-16T08:51:19Z</time>
      </trkpt>
      <trkpt lat="49.233558978885412" lon="9.909039996564388">
        <ele>295.25999999999999</ele>
        <time>2018-09-16T08:51:25Z</time>
      </trkpt>
      <trkpt lat="49.233492007479072" lon="9.909281982108951">
        <ele>295.25999999999999</ele>
        <time>2018-09-16T08:51:27Z</time>
      </trkpt>
      <trkpt lat="49.233472980558872" lon="9.909393964335322">
        <ele>295.74000000000001</ele>
        <time>2018-09-16T08:51:28Z</time>
      </trkpt>
      <trkpt lat="49.233485972508788" lon="9.909550035372376">
        <ele>296.22000000000003</ele>
        <time>2018-09-16T08:51:29Z</time>
      </trkpt>
      <trkpt lat="49.233523020520806" lon="9.909879025071859">
        <ele>298.14999999999998</ele>
        <time>2018-09-16T08:51:31Z</time>
      </trkpt>
      <trkpt lat="49.233524026349187" lon="9.910059990361333">
        <ele>299.11000000000001</ele>
        <time>2018-09-16T08:51:32Z</time>
      </trkpt>
      <trkpt lat="49.233492007479072" lon="9.910269035026431">
        <ele>300.06999999999999</ele>
        <time>2018-09-16T08:51:33Z</time>
      </trkpt>
      <trkpt lat="49.233438028022647" lon="9.910468021407723">
        <ele>301.50999999999999</ele>
        <time>2018-09-16T08:51:34Z</time>
      </trkpt>
      <trkpt lat="49.233377007767558" lon="9.910690980032086">
        <ele>303.43000000000001</ele>
        <time>2018-09-16T08:51:35Z</time>
      </trkpt>
      <trkpt lat="49.23306000418961" lon="9.911851035431027">
        <ele>311.12</ele>
        <time>2018-09-16T08:51:40Z</time>
      </trkpt>
      <trkpt lat="49.232703018933535" lon="9.913006983697414">
        <ele>320.25999999999999</ele>
        <time>2018-09-16T08:51:45Z</time>
      </trkpt>
      <trkpt lat="49.232450975105166" lon="9.914214983582497">
        <ele>331.31</ele>
        <time>2018-09-16T08:51:50Z</time>
      </trkpt>
      <trkpt lat="49.232418034225702" lon="9.914466021582484">
        <ele>333.23000000000002</ele>
        <time>2018-09-16T08:51:51Z</time>
      </trkpt>
      <trkpt lat="49.232408981770277" lon="9.91473600268364">
        <ele>335.63999999999999</ele>
        <time>2018-09-16T08:51:52Z</time>
      </trkpt>
      <trkpt lat="49.232548959553242" lon="9.915816010907292">
        <ele>344.76999999999998</ele>
        <time>2018-09-16T08:51:56Z</time>
      </trkpt>
      <trkpt lat="49.232784993946552" lon="9.916534004732966">
        <ele>351.5</ele>
        <time>2018-09-16T08:51:59Z</time>
      </trkpt>
      <trkpt lat="49.232889013364911" lon="9.916730979457498">
        <ele>354.38</ele>
        <time>2018-09-16T08:52:00Z</time>
      </trkpt>
      <trkpt lat="49.233096968382597" lon="9.917123001068831">
        <ele>359.19</ele>
        <time>2018-09-16T08:52:02Z</time>
      </trkpt>
      <trkpt lat="49.233688982203603" lon="9.917849963530898">
        <ele>374.56999999999999</ele>
        <time>2018-09-16T08:52:08Z</time>
      </trkpt>
      <trkpt lat="49.234015960246325" lon="9.918122040107846">
        <ele>383.69999999999999</ele>
        <time>2018-09-16T08:52:12Z</time>
      </trkpt>
      <trkpt lat="49.234071029350162" lon="9.918167972937226">
        <ele>386.11000000000001</ele>
        <time>2018-09-16T08:52:13Z</time>
      </trkpt>
      <trkpt lat="49.234148981049657" lon="9.918233016505837">
        <ele>390.43000000000001</ele>
        <time>2018-09-16T08:52:15Z</time>
      </trkpt>
      <trkpt lat="49.234182005748153" lon="9.91826101206243">
        <ele>391.87</ele>
        <time>2018-09-16T08:52:16Z</time>
      </trkpt>
      <trkpt lat="49.234221987426281" lon="9.918294036760926">
        <ele>393.80000000000001</ele>
        <time>2018-09-16T08:52:17Z</time>
      </trkpt>
      <trkpt lat="49.234237996861339" lon="9.91832697764039">
        <ele>395.72000000000003</ele>
        <time>2018-09-16T08:52:18Z</time>
      </trkpt>
      <trkpt lat="49.234244031831622" lon="9.918421022593975">
        <ele>398.12</ele>
        <time>2018-09-16T08:52:19Z</time>
      </trkpt>
      <trkpt lat="49.234221987426281" lon="9.918466033414006">
        <ele>400.05000000000001</ele>
        <time>2018-09-16T08:52:20Z</time>
      </trkpt>
      <trkpt lat="49.234130959957838" lon="9.918448012322187">
        <ele>402.44999999999999</ele>
        <time>2018-09-16T08:52:21Z</time>
      </trkpt>
      <trkpt lat="49.234073963016272" lon="9.918436026200652">
        <ele>404.85000000000002</ele>
        <time>2018-09-16T08:52:22Z</time>
      </trkpt>
      <trkpt lat="49.233998022973537" lon="9.918418005108833">
        <ele>406.76999999999998</ele>
        <time>2018-09-16T08:52:23Z</time>
      </trkpt>
      <trkpt lat="49.233914036303759" lon="9.918380035087466">
        <ele>408.22000000000003</ele>
        <time>2018-09-16T08:52:24Z</time>
      </trkpt>
      <trkpt lat="49.233822003006935" lon="9.918337035924196">
        <ele>409.18000000000001</ele>
        <time>2018-09-16T08:52:25Z</time>
      </trkpt>
      <trkpt lat="49.233721001073718" lon="9.918289007619023">
        <ele>410.13999999999999</ele>
        <time>2018-09-16T08:52:26Z</time>
      </trkpt>
      <trkpt lat="49.233611030504107" lon="9.91828297264874">
        <ele>411.10000000000002</ele>
        <time>2018-09-16T08:52:27Z</time>
      </trkpt>
      <trkpt lat="49.233535006642342" lon="9.918294036760926">
        <ele>412.06</ele>
        <time>2018-09-16T08:52:28Z</time>
      </trkpt>
      <trkpt lat="49.233411960303783" lon="9.918374000117183">
        <ele>412.54000000000002</ele>
        <time>2018-09-16T08:52:29Z</time>
      </trkpt>
      <trkpt lat="49.233310036361217" lon="9.918438959866762">
        <ele>413.5</ele>
        <time>2018-09-16T08:52:30Z</time>
      </trkpt>
      <trkpt lat="49.233202999457717" lon="9.918508026748896">
        <ele>413.98000000000002</ele>
        <time>2018-09-16T08:52:31Z</time>
      </trkpt>
      <trkpt lat="49.233111971989274" lon="9.918636018410325">
        <ele>414.47000000000003</ele>
        <time>2018-09-16T08:52:32Z</time>
      </trkpt>
      <trkpt lat="49.233040977269411" lon="9.918766021728516">
        <ele>415.43000000000001</ele>
        <time>2018-09-16T08:52:33Z</time>
      </trkpt>
      <trkpt lat="49.232971994206309" lon="9.918979005888104">
        <ele>416.38999999999999</ele>
        <time>2018-09-16T08:52:34Z</time>
      </trkpt>
      <trkpt lat="49.23290703445673" lon="9.919177992269397">
        <ele>417.35000000000002</ele>
        <time>2018-09-16T08:52:35Z</time>
      </trkpt>
      <trkpt lat="49.232839979231358" lon="9.919385025277734">
        <ele>418.31</ele>
        <time>2018-09-16T08:52:36Z</time>
      </trkpt>
      <trkpt lat="49.232315020635724" lon="9.921551998704672">
        <ele>428.88999999999999</ele>
        <time>2018-09-16T08:52:47Z</time>
      </trkpt>
      <trkpt lat="49.232230028137565" lon="9.92236495949328">
        <ele>430.81</ele>
        <time>2018-09-16T08:52:51Z</time>
      </trkpt>
      <trkpt lat="49.232235979288816" lon="9.922607028856874">
        <ele>430.81</ele>
        <time>2018-09-16T08:52:52Z</time>
      </trkpt>
      <trkpt lat="49.232243020087481" lon="9.922864018008113">
        <ele>430.32999999999998</ele>
        <time>2018-09-16T08:52:53Z</time>
      </trkpt>
      <trkpt lat="49.232259029522538" lon="9.923128969967365">
        <ele>430.32999999999998</ele>
        <time>2018-09-16T08:52:54Z</time>
      </trkpt>
      <trkpt lat="49.232290964573622" lon="9.923392999917269">
        <ele>430.32999999999998</ele>
        <time>2018-09-16T08:52:55Z</time>
      </trkpt>
      <trkpt lat="49.232323989272118" lon="9.923664992675185">
        <ele>430.32999999999998</ele>
        <time>2018-09-16T08:52:56Z</time>
      </trkpt>
      <trkpt lat="49.232333041727543" lon="9.923949977383018">
        <ele>430.32999999999998</ele>
        <time>2018-09-16T08:52:57Z</time>
      </trkpt>
      <trkpt lat="49.232558012008667" lon="9.92610102519393">
        <ele>430.32999999999998</ele>
        <time>2018-09-16T08:53:05Z</time>
      </trkpt>
      <trkpt lat="49.232718022540212" lon="9.926799992099404">
        <ele>429.85000000000002</ele>
        <time>2018-09-16T08:53:08Z</time>
      </trkpt>
      <trkpt lat="49.233268965035677" lon="9.92876697331667">
        <ele>431.29000000000002</ele>
        <time>2018-09-16T08:53:17Z</time>
      </trkpt>
      <trkpt lat="49.233654029667377" lon="9.930018978193402">
        <ele>434.64999999999998</ele>
        <time>2018-09-16T08:53:25Z</time>
      </trkpt>
      <trkpt lat="49.233816973865032" lon="9.93044201284647">
        <ele>436.10000000000002</ele>
        <time>2018-09-16T08:53:28Z</time>
      </trkpt>
      <trkpt lat="49.233871959149837" lon="9.930577967315912">
        <ele>436.57999999999998</ele>
        <time>2018-09-16T08:53:29Z</time>
      </trkpt>
      <trkpt lat="49.234164990484715" lon="9.931265031918883">
        <ele>437.54000000000002</ele>
        <time>2018-09-16T08:53:34Z</time>
      </trkpt>
      <trkpt lat="49.234280996024609" lon="9.931545993313193">
        <ele>438.01999999999998</ele>
        <time>2018-09-16T08:53:36Z</time>
      </trkpt>
      <trkpt lat="49.234341010451317" lon="9.931681025773287">
        <ele>438.5</ele>
        <time>2018-09-16T08:53:37Z</time>
      </trkpt>
      <trkpt lat="49.234419967979193" lon="9.9317960254848">
        <ele>438.5</ele>
        <time>2018-09-16T08:53:38Z</time>
      </trkpt>
      <trkpt lat="49.234682992100716" lon="9.932072963565588">
        <ele>438.5</ele>
        <time>2018-09-16T08:53:41Z</time>
      </trkpt>
      <trkpt lat="49.234912991523743" lon="9.932426009327173">
        <ele>439.94</ele>
        <time>2018-09-16T08:53:44Z</time>
      </trkpt>
      <trkpt lat="49.235026985406876" lon="9.932745024561882">
        <ele>440.42000000000002</ele>
        <time>2018-09-16T08:53:46Z</time>
      </trkpt>
      <trkpt lat="49.235079037025571" lon="9.932917021214962">
        <ele>440.89999999999998</ele>
        <time>2018-09-16T08:53:47Z</time>
      </trkpt>
      <trkpt lat="49.23510099761188" lon="9.933103015646339">
        <ele>440.89999999999998</ele>
        <time>2018-09-16T08:53:48Z</time>
      </trkpt>
      <trkpt lat="49.23510099761188" lon="9.933304013684392">
        <ele>440.89999999999998</ele>
        <time>2018-09-16T08:53:49Z</time>
      </trkpt>
      <trkpt lat="49.2350999917835" lon="9.933518003672361">
        <ele>441.38</ele>
        <time>2018-09-16T08:53:50Z</time>
      </trkpt>
      <trkpt lat="49.235071996226907" lon="9.933745991438627">
        <ele>441.38</ele>
        <time>2018-09-16T08:53:51Z</time>
      </trkpt>
      <trkpt lat="49.234717022627592" lon="9.936627019196749">
        <ele>437.54000000000002</ele>
        <time>2018-09-16T08:54:02Z</time>
      </trkpt>
      <trkpt lat="49.234288958832622" lon="9.93920998647809">
        <ele>437.06</ele>
        <time>2018-09-16T08:54:13Z</time>
      </trkpt>
      <trkpt lat="49.234229028224945" lon="9.939554985612631">
        <ele>437.54000000000002</ele>
        <time>2018-09-16T08:54:15Z</time>
      </trkpt>
      <trkpt lat="49.234206983819604" lon="9.939736034721136">
        <ele>438.01999999999998</ele>
        <time>2018-09-16T08:54:16Z</time>
      </trkpt>
      <trkpt lat="49.234185023233294" lon="9.939930997788906">
        <ele>437.54000000000002</ele>
        <time>2018-09-16T08:54:17Z</time>
      </trkpt>
      <trkpt lat="49.234173959121108" lon="9.941907031461597">
        <ele>435.13</ele>
        <time>2018-09-16T08:54:25Z</time>
      </trkpt>
      <trkpt lat="49.234385015442967" lon="9.944078028202057">
        <ele>432.73000000000002</ele>
        <time>2018-09-16T08:54:33Z</time>
      </trkpt>
      <trkpt lat="49.23419700935483" lon="9.946480030193925">
        <ele>431.76999999999998</ele>
        <time>2018-09-16T08:54:44Z</time>
      </trkpt>
      <trkpt lat="49.23415501601994" lon="9.946682034060359">
        <ele>432.25</ele>
        <time>2018-09-16T08:54:45Z</time>
      </trkpt>
      <trkpt lat="49.234115034341812" lon="9.946880014613271">
        <ele>432.25</ele>
        <time>2018-09-16T08:54:46Z</time>
      </trkpt>
      <trkpt lat="49.234071029350162" lon="9.947089981287718">
        <ele>432.73000000000002</ele>
        <time>2018-09-16T08:54:47Z</time>
      </trkpt>
      <trkpt lat="49.234014032408595" lon="9.947219984605908">
        <ele>432.73000000000002</ele>
        <time>2018-09-16T08:54:48Z</time>
      </trkpt>
      <trkpt lat="49.233931973576546" lon="9.947343030944467">
        <ele>432.73000000000002</ele>
        <time>2018-09-16T08:54:49Z</time>
      </trkpt>
      <trkpt lat="49.233842035755515" lon="9.947442021220923">
        <ele>432.73000000000002</ele>
        <time>2018-09-16T08:54:50Z</time>
      </trkpt>
      <trkpt lat="49.233745979145169" lon="9.94754696264863">
        <ele>432.73000000000002</ele>
        <time>2018-09-16T08:54:51Z</time>
      </trkpt>
      <trkpt lat="49.232802009209991" lon="9.948593024164438">
        <ele>428.88999999999999</ele>
        <time>2018-09-16T08:55:00Z</time>
      </trkpt>
      <trkpt lat="49.232587013393641" lon="9.948989991098642">
        <ele>428.88999999999999</ele>
        <time>2018-09-16T08:55:03Z</time>
      </trkpt>
      <trkpt lat="49.232520963996649" lon="9.949115971103311">
        <ele>428.39999999999998</ele>
        <time>2018-09-16T08:55:04Z</time>
      </trkpt>
      <trkpt lat="49.232470002025366" lon="9.949213033542037">
        <ele>427.92000000000002</ele>
        <time>2018-09-16T08:55:05Z</time>
      </trkpt>
      <trkpt lat="49.232430020347238" lon="9.949290985241532">
        <ele>427.44</ele>
        <time>2018-09-16T08:55:06Z</time>
      </trkpt>
      <trkpt lat="49.232394983991981" lon="9.949358040466905">
        <ele>427.44</ele>
        <time>2018-09-16T08:55:07Z</time>
      </trkpt>
      <trkpt lat="49.232299011200666" lon="9.949541017413139">
        <ele>426</ele>
        <time>2018-09-16T08:55:10Z</time>
      </trkpt>
      <trkpt lat="49.232274033129215" lon="9.949596002697945">
        <ele>425.51999999999998</ele>
        <time>2018-09-16T08:55:11Z</time>
      </trkpt>
      <trkpt lat="49.232245031744242" lon="9.949665991589427">
        <ele>425.04000000000002</ele>
        <time>2018-09-16T08:55:12Z</time>
      </trkpt>
      <trkpt lat="49.232206977903843" lon="9.949756013229489">
        <ele>424.56</ele>
        <time>2018-09-16T08:55:13Z</time>
      </trkpt>
      <trkpt lat="49.232162972912192" lon="9.949859026819468">
        <ele>424.56</ele>
        <time>2018-09-16T08:55:14Z</time>
      </trkpt>
      <trkpt lat="49.23211301676929" lon="9.949978971853852">
        <ele>424.07999999999998</ele>
        <time>2018-09-16T08:55:15Z</time>
      </trkpt>
      <trkpt lat="49.231586968526244" lon="9.951228965073824">
        <ele>421.68000000000001</ele>
        <time>2018-09-16T08:55:23Z</time>
      </trkpt>
      <trkpt lat="49.231300977990031" lon="9.95199297554791">
        <ele>423.12</ele>
        <time>2018-09-16T08:55:29Z</time>
      </trkpt>
      <trkpt lat="49.231259990483522" lon="9.952118033543229">
        <ele>424.07999999999998</ele>
        <time>2018-09-16T08:55:31Z</time>
      </trkpt>
      <trkpt lat="49.231241969391704" lon="9.952173018828034">
        <ele>424.56</ele>
        <time>2018-09-16T08:55:32Z</time>
      </trkpt>
      <trkpt lat="49.231187989935279" lon="9.95233696885407">
        <ele>425.51999999999998</ele>
        <time>2018-09-16T08:55:35Z</time>
      </trkpt>
      <trkpt lat="49.231168963015079" lon="9.952393965795636">
        <ele>426</ele>
        <time>2018-09-16T08:55:36Z</time>
      </trkpt>
      <trkpt lat="49.231152031570673" lon="9.95244400575757">
        <ele>426.48000000000002</ele>
        <time>2018-09-16T08:55:37Z</time>
      </trkpt>
      <trkpt lat="49.231056980788708" lon="9.952734019607306">
        <ele>429.37</ele>
        <time>2018-09-16T08:55:49Z</time>
      </trkpt>
      <trkpt lat="49.231056980788708" lon="9.952734019607306">
        <ele>429.37</ele>
        <time>2018-09-16T08:56:17Z</time>
      </trkpt>
      <trkpt lat="49.231056980788708" lon="9.952734019607306">
        <ele>430.81</ele>
        <time>2018-09-16T08:57:14Z</time>
      </trkpt>
      <trkpt lat="49.231056980788708" lon="9.952734019607306">
        <ele>430.32999999999998</ele>
        <time>2018-09-16T08:58:05Z</time>
      </trkpt>
      <trkpt lat="49.231037031859159" lon="9.952793028205633">
        <ele>430.81</ele>
        <time>2018-09-16T08:58:08Z</time>
      </trkpt>
      <trkpt lat="49.231021022424102" lon="9.952840972691774">
        <ele>430.81</ele>
        <time>2018-09-16T08:58:09Z</time>
      </trkpt>
      <trkpt lat="49.230995960533619" lon="9.952919008210301">
        <ele>430.81</ele>
        <time>2018-09-16T08:58:10Z</time>
      </trkpt>
      <trkpt lat="49.230962013825774" lon="9.953021015971899">
        <ele>430.81</ele>
        <time>2018-09-16T08:58:11Z</time>
      </trkpt>
      <trkpt lat="49.230922032147646" lon="9.953141966834664">
        <ele>430.81</ele>
        <time>2018-09-16T08:58:12Z</time>
      </trkpt>
      <trkpt lat="49.230597987771034" lon="9.954458009451628">
        <ele>429.85000000000002</ele>
        <time>2018-09-16T08:58:20Z</time>
      </trkpt>
      <trkpt lat="49.230474019423127" lon="9.95521598495543">
        <ele>428.88999999999999</ele>
        <time>2018-09-16T08:58:24Z</time>
      </trkpt>
      <trkpt lat="49.230446023866534" lon="9.95538798160851">
        <ele>429.37</ele>
        <time>2018-09-16T08:58:25Z</time>
      </trkpt>
      <trkpt lat="49.230366982519627" lon="9.955512033775449">
        <ele>429.85000000000002</ele>
        <time>2018-09-16T08:58:26Z</time>
      </trkpt>
      <trkpt lat="49.230273021385074" lon="9.955652011558414">
        <ele>430.32999999999998</ele>
        <time>2018-09-16T08:58:27Z</time>
      </trkpt>
      <trkpt lat="49.230182999745011" lon="9.955710014328361">
        <ele>430.81</ele>
        <time>2018-09-16T08:58:28Z</time>
      </trkpt>
      <trkpt lat="49.230057019740343" lon="9.955790983512998">
        <ele>431.29000000000002</ele>
        <time>2018-09-16T08:58:29Z</time>
      </trkpt>
      <trkpt lat="49.228753969073296" lon="9.956661025062203">
        <ele>431.76999999999998</ele>
        <time>2018-09-16T08:58:37Z</time>
      </trkpt>
      <trkpt lat="49.228381980210543" lon="9.956959001719952">
        <ele>430.81</ele>
        <time>2018-09-16T08:58:39Z</time>
      </trkpt>
      <trkpt lat="49.227443961426616" lon="9.957808004692197">
        <ele>434.17000000000002</ele>
        <time>2018-09-16T08:58:45Z</time>
      </trkpt>
      <trkpt lat="49.227281017228961" lon="9.957874976098537">
        <ele>434.64999999999998</ele>
        <time>2018-09-16T08:58:46Z</time>
      </trkpt>
      <trkpt lat="49.2271270416677" lon="9.957896014675498">
        <ele>435.13</ele>
        <time>2018-09-16T08:58:47Z</time>
      </trkpt>
      <trkpt lat="49.226960996165872" lon="9.957918981090188">
        <ele>435.13</ele>
        <time>2018-09-16T08:58:48Z</time>
      </trkpt>
      <trkpt lat="49.226776007562876" lon="9.957915041595697">
        <ele>435.61000000000001</ele>
        <time>2018-09-16T08:58:49Z</time>
      </trkpt>
      <trkpt lat="49.225349994376302" lon="9.957785038277507">
        <ele>434.17000000000002</ele>
        <time>2018-09-16T08:58:56Z</time>
      </trkpt>
      <trkpt lat="49.224182981997728" lon="9.957549003884196">
        <ele>430.32999999999998</ele>
        <time>2018-09-16T08:59:02Z</time>
      </trkpt>
      <trkpt lat="49.224024983122945" lon="9.957590997219086">
        <ele>429.85000000000002</ele>
        <time>2018-09-16T08:59:03Z</time>
      </trkpt>
      <trkpt lat="49.223871007561684" lon="9.95768797583878">
        <ele>429.85000000000002</ele>
        <time>2018-09-16T08:59:04Z</time>
      </trkpt>
      <trkpt lat="49.22371200285852" lon="9.957788977771998">
        <ele>429.85000000000002</ele>
        <time>2018-09-16T08:59:05Z</time>
      </trkpt>
      <trkpt lat="49.223547969013453" lon="9.957892997190356">
        <ele>430.32999999999998</ele>
        <time>2018-09-16T08:59:06Z</time>
      </trkpt>
      <trkpt lat="49.223257033154368" lon="9.958076979964972">
        <ele>430.32999999999998</ele>
        <time>2018-09-16T08:59:08Z</time>
      </trkpt>
      <trkpt lat="49.223076989874244" lon="9.958096006885171">
        <ele>430.32999999999998</ele>
        <time>2018-09-16T08:59:09Z</time>
      </trkpt>
      <trkpt lat="49.222916979342699" lon="9.95811402797699">
        <ele>429.85000000000002</ele>
        <time>2018-09-16T08:59:10Z</time>
      </trkpt>
      <trkpt lat="49.222756968811154" lon="9.958131965249777">
        <ele>429.85000000000002</ele>
        <time>2018-09-16T08:59:11Z</time>
      </trkpt>
      <trkpt lat="49.222601987421513" lon="9.958148980513215">
        <ele>429.37</ele>
        <time>2018-09-16T08:59:12Z</time>
      </trkpt>
      <trkpt lat="49.222455974668264" lon="9.958164989948273">
        <ele>428.88999999999999</ele>
        <time>2018-09-16T08:59:13Z</time>
      </trkpt>
      <trkpt lat="49.222313985228539" lon="9.95818099938333">
        <ele>428.39999999999998</ele>
        <time>2018-09-16T08:59:14Z</time>
      </trkpt>
      <trkpt lat="49.22218800522387" lon="9.958285018801689">
        <ele>427.44</ele>
        <time>2018-09-16T08:59:15Z</time>
      </trkpt>
      <trkpt lat="49.222050961107016" lon="9.958420973271132">
        <ele>426.95999999999998</ele>
        <time>2018-09-16T08:59:16Z</time>
      </trkpt>
      <trkpt lat="49.221900003030896" lon="9.958568997681141">
        <ele>426</ele>
        <time>2018-09-16T08:59:17Z</time>
      </trkpt>
      <trkpt lat="49.220659984275699" lon="9.959694016724825">
        <ele>417.82999999999998</ele>
        <time>2018-09-16T08:59:24Z</time>
      </trkpt>
      <trkpt lat="49.219199018552899" lon="9.96015896089375">
        <ele>405.81</ele>
        <time>2018-09-16T08:59:31Z</time>
      </trkpt>
      <trkpt lat="49.217970985919237" lon="9.960071034729481">
        <ele>395.72000000000003</ele>
        <time>2018-09-16T08:59:37Z</time>
      </trkpt>
      <trkpt lat="49.217429012060165" lon="9.960149992257357">
        <ele>392.36000000000001</ele>
        <time>2018-09-16T08:59:40Z</time>
      </trkpt>
      <trkpt lat="49.217278975993395" lon="9.960230961441994">
        <ele>391.87</ele>
        <time>2018-09-16T08:59:41Z</time>
      </trkpt>
      <trkpt lat="49.217136986553669" lon="9.960337998345494">
        <ele>390.43000000000001</ele>
        <time>2018-09-16T08:59:42Z</time>
      </trkpt>
      <trkpt lat="49.21701000072062" lon="9.960491973906755">
        <ele>389.47000000000003</ele>
        <time>2018-09-16T08:59:43Z</time>
      </trkpt>
      <trkpt lat="49.2169039696455" lon="9.960689032450318">
        <ele>388.99000000000001</ele>
        <time>2018-09-16T08:59:44Z</time>
      </trkpt>
      <trkpt lat="49.216804979369044" lon="9.960906961932778">
        <ele>388.02999999999997</ele>
        <time>2018-09-16T08:59:45Z</time>
      </trkpt>
      <trkpt lat="49.216717975214124" lon="9.961159005761147">
        <ele>387.06999999999999</ele>
        <time>2018-09-16T08:59:46Z</time>
      </trkpt>
      <trkpt lat="49.216647986322641" lon="9.961428986862302">
        <ele>386.11000000000001</ele>
        <time>2018-09-16T08:59:47Z</time>
      </trkpt>
      <trkpt lat="49.216265017166734" lon="9.962833039462566">
        <ele>380.81999999999999</ele>
        <time>2018-09-16T08:59:53Z</time>
      </trkpt>
      <trkpt lat="49.21619201079011" lon="9.962979974225164">
        <ele>380.33999999999997</ele>
        <time>2018-09-16T08:59:54Z</time>
      </trkpt>
      <trkpt lat="49.216111041605473" lon="9.963087011128664">
        <ele>380.33999999999997</ele>
        <time>2018-09-16T08:59:55Z</time>
      </trkpt>
      <trkpt lat="49.216009033843875" lon="9.963164040818811">
        <ele>379.86000000000001</ele>
        <time>2018-09-16T08:59:56Z</time>
      </trkpt>
      <trkpt lat="49.215879030525684" lon="9.963190024718642">
        <ele>379.86000000000001</ele>
        <time>2018-09-16T08:59:57Z</time>
      </trkpt>
      <trkpt lat="49.21574198640883" lon="9.963197987526655">
        <ele>379.38</ele>
        <time>2018-09-16T08:59:58Z</time>
      </trkpt>
      <trkpt lat="49.215606031939387" lon="9.9632060341537">
        <ele>378.89999999999998</ele>
        <time>2018-09-16T08:59:59Z</time>
      </trkpt>
      <trkpt lat="49.215346025303006" lon="9.963221959769726">
        <ele>377.94</ele>
        <time>2018-09-16T09:00:01Z</time>
      </trkpt>
      <trkpt lat="49.215213004499674" lon="9.963247021660209">
        <ele>376.97000000000003</ele>
        <time>2018-09-16T09:00:02Z</time>
      </trkpt>
      <trkpt lat="49.215078977867961" lon="9.963293960317969">
        <ele>376.00999999999999</ele>
        <time>2018-09-16T09:00:03Z</time>
      </trkpt>
      <trkpt lat="49.214941011741757" lon="9.963340982794762">
        <ele>375.05000000000001</ele>
        <time>2018-09-16T09:00:04Z</time>
      </trkpt>
      <trkpt lat="49.214799022302032" lon="9.963390016928315">
        <ele>374.56999999999999</ele>
        <time>2018-09-16T09:00:05Z</time>
      </trkpt>
      <trkpt lat="49.214658960700035" lon="9.963437961414456">
        <ele>373.61000000000001</ele>
        <time>2018-09-16T09:00:06Z</time>
      </trkpt>
      <trkpt lat="49.214548990130424" lon="9.963409965857863">
        <ele>372.64999999999998</ele>
        <time>2018-09-16T09:00:07Z</time>
      </trkpt>
      <trkpt lat="49.214402977377176" lon="9.963365038856864">
        <ele>371.69</ele>
        <time>2018-09-16T09:00:08Z</time>
      </trkpt>
      <trkpt lat="49.214255036786199" lon="9.963320028036833">
        <ele>370.73000000000002</ele>
        <time>2018-09-16T09:00:09Z</time>
      </trkpt>
      <trkpt lat="49.214112041518092" lon="9.963258001953363">
        <ele>369.27999999999997</ele>
        <time>2018-09-16T09:00:10Z</time>
      </trkpt>
      <trkpt lat="49.213956976309419" lon="9.963149959221482">
        <ele>367.83999999999997</ele>
        <time>2018-09-16T09:00:11Z</time>
      </trkpt>
      <trkpt lat="49.213405027985573" lon="9.962781993672252">
        <ele>363.04000000000002</ele>
        <time>2018-09-16T09:00:15Z</time>
      </trkpt>
      <trkpt lat="49.213284999132156" lon="9.962773025035858">
        <ele>362.06999999999999</ele>
        <time>2018-09-16T09:00:16Z</time>
      </trkpt>
      <trkpt lat="49.213191037997603" lon="9.96281904168427">
        <ele>361.11000000000001</ele>
        <time>2018-09-16T09:00:17Z</time>
      </trkpt>
      <trkpt lat="49.213088024407625" lon="9.962900010868907">
        <ele>359.67000000000002</ele>
        <time>2018-09-16T09:00:18Z</time>
      </trkpt>
      <trkpt lat="49.213019963353872" lon="9.96303697116673">
        <ele>358.23000000000002</ele>
        <time>2018-09-16T09:00:19Z</time>
      </trkpt>
      <trkpt lat="49.212946034967899" lon="9.963183989748359">
        <ele>357.26999999999998</ele>
        <time>2018-09-16T09:00:20Z</time>
      </trkpt>
      <trkpt lat="49.212201973423362" lon="9.964140029624105">
        <ele>349.57999999999998</ele>
        <time>2018-09-16T09:00:27Z</time>
      </trkpt>
      <trkpt lat="49.211247023195028" lon="9.96514099650085">
        <ele>342.37</ele>
        <time>2018-09-16T09:00:35Z</time>
      </trkpt>
      <trkpt lat="49.210995985195041" lon="9.965483983978629">
        <ele>340.44</ele>
        <time>2018-09-16T09:00:38Z</time>
      </trkpt>
      <trkpt lat="49.210896994918585" lon="9.965533018112183">
        <ele>339.95999999999998</ele>
        <time>2018-09-16T09:00:39Z</time>
      </trkpt>
      <trkpt lat="49.210798004642129" lon="9.965560007840395">
        <ele>339.48000000000002</ele>
        <time>2018-09-16T09:00:40Z</time>
      </trkpt>
      <trkpt lat="49.210718041285872" lon="9.96552798897028">
        <ele>339</ele>
        <time>2018-09-16T09:00:41Z</time>
      </trkpt>
      <trkpt lat="49.210646040737629" lon="9.965392034500837">
        <ele>338.04000000000002</ele>
        <time>2018-09-16T09:00:42Z</time>
      </trkpt>
      <trkpt lat="49.210617961362004" lon="9.965255996212363">
        <ele>337.07999999999998</ele>
        <time>2018-09-16T09:00:43Z</time>
      </trkpt>
      <trkpt lat="49.210617961362004" lon="9.96512196958065">
        <ele>336.60000000000002</ele>
        <time>2018-09-16T09:00:44Z</time>
      </trkpt>
      <trkpt lat="49.210633970797062" lon="9.96498903259635">
        <ele>335.63999999999999</ele>
        <time>2018-09-16T09:00:45Z</time>
      </trkpt>
      <trkpt lat="49.21067101880908" lon="9.964845031499863">
        <ele>335.16000000000003</ele>
        <time>2018-09-16T09:00:46Z</time>
      </trkpt>
      <trkpt lat="49.210709994658828" lon="9.96469097211957">
        <ele>334.68000000000001</ele>
        <time>2018-09-16T09:00:47Z</time>
      </trkpt>
      <trkpt lat="49.210752993822098" lon="9.964527022093535">
        <ele>333.70999999999998</ele>
        <time>2018-09-16T09:00:48Z</time>
      </trkpt>
      <trkpt lat="49.210810996592045" lon="9.964049002155662">
        <ele>331.79000000000002</ele>
        <time>2018-09-16T09:00:51Z</time>
      </trkpt>
      <trkpt lat="49.210810996592045" lon="9.96389796026051">
        <ele>331.31</ele>
        <time>2018-09-16T09:00:52Z</time>
      </trkpt>
      <trkpt lat="49.210798004642129" lon="9.963771980255842">
        <ele>330.35000000000002</ele>
        <time>2018-09-16T09:00:53Z</time>
      </trkpt>
      <trkpt lat="49.210749976336956" lon="9.963652035221458">
        <ele>329.87</ele>
        <time>2018-09-16T09:00:54Z</time>
      </trkpt>
      <trkpt lat="49.210705971345305" lon="9.963541980832815">
        <ele>329.38999999999999</ele>
        <time>2018-09-16T09:00:55Z</time>
      </trkpt>
      <trkpt lat="49.210660960525274" lon="9.9634650349617">
        <ele>329.38999999999999</ele>
        <time>2018-09-16T09:00:56Z</time>
      </trkpt>
      <trkpt lat="49.21060698106885" lon="9.963416000828147">
        <ele>329.38999999999999</ele>
        <time>2018-09-16T09:00:57Z</time>
      </trkpt>
      <trkpt lat="49.210556019097567" lon="9.963369984179735">
        <ele>328.91000000000003</ele>
        <time>2018-09-16T09:00:58Z</time>
      </trkpt>
      <trkpt lat="49.210504973307252" lon="9.963323967531323">
        <ele>328.91000000000003</ele>
        <time>2018-09-16T09:00:59Z</time>
      </trkpt>
      <trkpt lat="49.210468009114265" lon="9.963291026651859">
        <ele>328.91000000000003</ele>
        <time>2018-09-16T09:01:00Z</time>
      </trkpt>
      <trkpt lat="49.210405983030796" lon="9.963291026651859">
        <ele>328.91000000000003</ele>
        <time>2018-09-16T09:01:01Z</time>
      </trkpt>
      <trkpt lat="49.210352003574371" lon="9.963291026651859">
        <ele>328.91000000000003</ele>
        <time>2018-09-16T09:01:02Z</time>
      </trkpt>
      <trkpt lat="49.210299029946327" lon="9.963291026651859">
        <ele>329.38999999999999</ele>
        <time>2018-09-16T09:01:03Z</time>
      </trkpt>
      <trkpt lat="49.209797037765384" lon="9.963327990844846">
        <ele>329.87</ele>
        <time>2018-09-16T09:01:13Z</time>
      </trkpt>
      <trkpt lat="49.209759989753366" lon="9.963334025815129">
        <ele>329.38999999999999</ele>
        <time>2018-09-16T09:01:14Z</time>
      </trkpt>
      <trkpt lat="49.209742974489927" lon="9.963364033028483">
        <ele>329.38999999999999</ele>
        <time>2018-09-16T09:01:15Z</time>
      </trkpt>
      <trkpt lat="49.209712967276573" lon="9.963418012484908">
        <ele>329.38999999999999</ele>
        <time>2018-09-16T09:01:16Z</time>
      </trkpt>
      <trkpt lat="49.2096839658916" lon="9.963470986112952">
        <ele>329.38999999999999</ele>
        <time>2018-09-16T09:01:17Z</time>
      </trkpt>
      <trkpt lat="49.209653036668897" lon="9.963525971397758">
        <ele>328.91000000000003</ele>
        <time>2018-09-16T09:01:18Z</time>
      </trkpt>
      <trkpt lat="49.209647001698613" lon="9.963589003309608">
        <ele>328.91000000000003</ele>
        <time>2018-09-16T09:01:19Z</time>
      </trkpt>
      <trkpt lat="49.209639960899949" lon="9.963666032999754">
        <ele>328.91000000000003</ele>
        <time>2018-09-16T09:01:20Z</time>
      </trkpt>
      <trkpt lat="49.209610037505627" lon="9.963878011330962">
        <ele>328.91000000000003</ele>
        <time>2018-09-16T09:01:23Z</time>
      </trkpt>
      <trkpt lat="49.20959796756506" lon="9.963946994394064">
        <ele>328.91000000000003</ele>
        <time>2018-09-16T09:01:24Z</time>
      </trkpt>
      <trkpt lat="49.209583969786763" lon="9.964018994942308">
        <ele>328.91000000000003</ele>
        <time>2018-09-16T09:01:25Z</time>
      </trkpt>
      <trkpt lat="49.209417002275586" lon="9.964522998780012">
        <ele>328.91000000000003</ele>
        <time>2018-09-16T09:01:31Z</time>
      </trkpt>
      <trkpt lat="49.209279958158731" lon="9.964824998751283">
        <ele>329.87</ele>
        <time>2018-09-16T09:01:35Z</time>
      </trkpt>
      <trkpt lat="49.209098992869258" lon="9.965103026479483">
        <ele>329.38999999999999</ele>
        <time>2018-09-16T09:01:39Z</time>
      </trkpt>
      <trkpt lat="49.209055993705988" lon="9.965168992057443">
        <ele>329.38999999999999</ele>
        <time>2018-09-16T09:01:40Z</time>
      </trkpt>
      <trkpt lat="49.208966977894306" lon="9.965305030345917">
        <ele>329.38999999999999</ele>
        <time>2018-09-16T09:01:42Z</time>
      </trkpt>
      <trkpt lat="49.208921967074275" lon="9.96537996456027">
        <ele>328.91000000000003</ele>
        <time>2018-09-16T09:01:43Z</time>
      </trkpt>
      <trkpt lat="49.208907969295979" lon="9.965477026998997">
        <ele>328.91000000000003</ele>
        <time>2018-09-16T09:01:44Z</time>
      </trkpt>
      <trkpt lat="49.208902018144727" lon="9.965574005618691">
        <ele>328.91000000000003</ele>
        <time>2018-09-16T09:01:45Z</time>
      </trkpt>
      <trkpt lat="49.208904029801488" lon="9.965675007551909">
        <ele>328.43000000000001</ele>
        <time>2018-09-16T09:01:46Z</time>
      </trkpt>
      <trkpt lat="49.208906041458249" lon="9.965781960636377">
        <ele>328.43000000000001</ele>
        <time>2018-09-16T09:01:47Z</time>
      </trkpt>
      <trkpt lat="49.208906963467598" lon="9.965890003368259">
        <ele>328.91000000000003</ele>
        <time>2018-09-16T09:01:48Z</time>
      </trkpt>
      <trkpt lat="49.208919033408165" lon="9.966616965830326">
        <ele>330.35000000000002</ele>
        <time>2018-09-16T09:01:54Z</time>
      </trkpt>
      <trkpt lat="49.208922972902656" lon="9.966998007148504">
        <ele>329.87</ele>
        <time>2018-09-16T09:01:57Z</time>
      </trkpt>
      <trkpt lat="49.208940993994474" lon="9.967646012082696">
        <ele>329.87</ele>
        <time>2018-09-16T09:02:02Z</time>
      </trkpt>
      <trkpt lat="49.208966977894306" lon="9.967771992087364">
        <ele>330.35000000000002</ele>
        <time>2018-09-16T09:02:03Z</time>
      </trkpt>
      <trkpt lat="49.209020035341382" lon="9.968027975410223">
        <ele>330.35000000000002</ele>
        <time>2018-09-16T09:02:05Z</time>
      </trkpt>
      <trkpt lat="49.209051970392466" lon="9.968183040618897">
        <ele>329.87</ele>
        <time>2018-09-16T09:02:06Z</time>
      </trkpt>
      <trkpt lat="49.209051970392466" lon="9.968312038108707">
        <ele>329.87</ele>
        <time>2018-09-16T09:02:07Z</time>
      </trkpt>
      <trkpt lat="49.209033027291298" lon="9.968477999791503">
        <ele>329.38999999999999</ele>
        <time>2018-09-16T09:02:08Z</time>
      </trkpt>
      <trkpt lat="49.20897301286459" lon="9.968598028644919">
        <ele>329.38999999999999</ele>
        <time>2018-09-16T09:02:09Z</time>
      </trkpt>
      <trkpt lat="49.208907969295979" lon="9.96872803196311">
        <ele>329.87</ele>
        <time>2018-09-16T09:02:10Z</time>
      </trkpt>
      <trkpt lat="49.20882498845458" lon="9.968846971169114">
        <ele>329.87</ele>
        <time>2018-09-16T09:02:11Z</time>
      </trkpt>
      <trkpt lat="49.208730021491647" lon="9.968957025557756">
        <ele>330.35000000000002</ele>
        <time>2018-09-16T09:02:12Z</time>
      </trkpt>
      <trkpt lat="49.208627007901669" lon="9.969075964763761">
        <ele>331.31</ele>
        <time>2018-09-16T09:02:13Z</time>
      </trkpt>
      <trkpt lat="49.208498010411859" lon="9.969177972525358">
        <ele>331.79000000000002</ele>
        <time>2018-09-16T09:02:14Z</time>
      </trkpt>
      <trkpt lat="49.207936003804207" lon="9.969606958329678">
        <ele>334.19999999999999</ele>
        <time>2018-09-16T09:02:18Z</time>
      </trkpt>
      <trkpt lat="49.207802983000875" lon="9.969750959426165">
        <ele>335.16000000000003</ele>
        <time>2018-09-16T09:02:19Z</time>
      </trkpt>
      <trkpt lat="49.2076859716326" lon="9.969945000484586">
        <ele>336.60000000000002</ele>
        <time>2018-09-16T09:02:20Z</time>
      </trkpt>
      <trkpt lat="49.206494987010956" lon="9.972279025241733">
        <ele>351.98000000000002</ele>
        <time>2018-09-16T09:02:30Z</time>
      </trkpt>
      <trkpt lat="49.205549005419016" lon="9.97377703897655">
        <ele>362.06999999999999</ele>
        <time>2018-09-16T09:02:37Z</time>
      </trkpt>
      <trkpt lat="49.20444100163877" lon="9.974872972816229">
        <ele>366.39999999999998</ele>
        <time>2018-09-16T09:02:44Z</time>
      </trkpt>
      <trkpt lat="49.20401000417769" lon="9.975430034101009">
        <ele>365.92000000000002</ele>
        <time>2018-09-16T09:02:47Z</time>
      </trkpt>
      <trkpt lat="49.203874971717596" lon="9.975604964420199">
        <ele>365.92000000000002</ele>
        <time>2018-09-16T09:02:48Z</time>
      </trkpt>
      <trkpt lat="49.202673006802797" lon="9.976998958736658">
        <ele>367.83999999999997</ele>
        <time>2018-09-16T09:02:56Z</time>
      </trkpt>
      <trkpt lat="49.202106976881623" lon="9.977648975327611">
        <ele>367.83999999999997</ele>
        <time>2018-09-16T09:03:01Z</time>
      </trkpt>
      <trkpt lat="49.202018966898322" lon="9.977804040536284">
        <ele>368.31999999999999</ele>
        <time>2018-09-16T09:03:05Z</time>
      </trkpt>
      <trkpt lat="49.202006980776787" lon="9.977861037477851">
        <ele>368.80000000000001</ele>
        <time>2018-09-16T09:03:13Z</time>
      </trkpt>
      <trkpt lat="49.201989965513349" lon="9.977944018319249">
        <ele>369.27999999999997</ele>
        <time>2018-09-16T09:03:14Z</time>
      </trkpt>
      <trkpt lat="49.201772036030889" lon="9.978476017713547">
        <ele>369.75999999999999</ele>
        <time>2018-09-16T09:03:18Z</time>
      </trkpt>
      <trkpt lat="49.201674973592162" lon="9.978600991889834">
        <ele>369.75999999999999</ele>
        <time>2018-09-16T09:03:19Z</time>
      </trkpt>
      <trkpt lat="49.201577994972467" lon="9.978725966066122">
        <ele>369.27999999999997</ele>
        <time>2018-09-16T09:03:20Z</time>
      </trkpt>
      <trkpt lat="49.20130399055779" lon="9.979017991572619">
        <ele>368.80000000000001</ele>
        <time>2018-09-16T09:03:23Z</time>
      </trkpt>
      <trkpt lat="49.201263003051281" lon="9.979061996564269">
        <ele>368.80000000000001</ele>
        <time>2018-09-16T09:03:24Z</time>
      </trkpt>
      <trkpt lat="49.201249005272985" lon="9.979227036237717">
        <ele>368.80000000000001</ele>
        <time>2018-09-16T09:03:25Z</time>
      </trkpt>
      <trkpt lat="49.20124095864594" lon="9.979319991543889">
        <ele>369.75999999999999</ele>
        <time>2018-09-16T09:03:26Z</time>
      </trkpt>
      <trkpt lat="49.201267026364803" lon="9.979361984878779">
        <ele>371.20999999999998</ele>
        <time>2018-09-16T09:03:27Z</time>
      </trkpt>
      <trkpt lat="49.201317988336086" lon="9.979447983205319">
        <ele>372.64999999999998</ele>
        <time>2018-09-16T09:03:28Z</time>
      </trkpt>
      <trkpt lat="49.201376996934414" lon="9.979538004845381">
        <ele>373.61000000000001</ele>
        <time>2018-09-16T09:03:29Z</time>
      </trkpt>
      <trkpt lat="49.20147699303925" lon="9.979590978473425">
        <ele>374.08999999999997</ele>
        <time>2018-09-16T09:03:30Z</time>
      </trkpt>
      <trkpt lat="49.201579000800848" lon="9.979645041748881">
        <ele>374.56999999999999</ele>
        <time>2018-09-16T09:03:31Z</time>
      </trkpt>
      <trkpt lat="49.201865997165442" lon="9.979774039238691">
        <ele>375.52999999999997</ele>
        <time>2018-09-16T09:03:34Z</time>
      </trkpt>
      <trkpt lat="49.201954007148743" lon="9.979805974289775">
        <ele>376.00999999999999</ele>
        <time>2018-09-16T09:03:35Z</time>
      </trkpt>
      <trkpt lat="49.202044028788805" lon="9.979842016473413">
        <ele>376.49000000000001</ele>
        <time>2018-09-16T09:03:36Z</time>
      </trkpt>
      <trkpt lat="49.202119968831539" lon="9.979910999536514">
        <ele>376.97000000000003</ele>
        <time>2018-09-16T09:03:37Z</time>
      </trkpt>
      <trkpt lat="49.202194986864924" lon="9.979977970942855">
        <ele>377.44999999999999</ele>
        <time>2018-09-16T09:03:38Z</time>
      </trkpt>
      <trkpt lat="49.202535040676594" lon="9.98030997812748">
        <ele>378.42000000000002</ele>
        <time>2018-09-16T09:03:43Z</time>
      </trkpt>
      <trkpt lat="49.202672000974417" lon="9.980516005307436">
        <ele>378.89999999999998</ele>
        <time>2018-09-16T09:03:46Z</time>
      </trkpt>
      <trkpt lat="49.202691027894616" lon="9.980593034997582">
        <ele>378.89999999999998</ele>
        <time>2018-09-16T09:03:47Z</time>
      </trkpt>
      <trkpt lat="49.202708965167403" lon="9.980664029717445">
        <ele>378.89999999999998</ele>
        <time>2018-09-16T09:03:48Z</time>
      </trkpt>
      <trkpt lat="49.202710976824164" lon="9.980757990851998">
        <ele>379.38</ele>
        <time>2018-09-16T09:03:49Z</time>
      </trkpt>
      <trkpt lat="49.202691027894616" lon="9.980838960036635">
        <ele>379.86000000000001</ele>
        <time>2018-09-16T09:03:50Z</time>
      </trkpt>
      <trkpt lat="49.202649034559727" lon="9.980930993333459">
        <ele>379.86000000000001</ele>
        <time>2018-09-16T09:03:51Z</time>
      </trkpt>
      <trkpt lat="49.202603017911315" lon="9.98099897056818">
        <ele>380.33999999999997</ele>
        <time>2018-09-16T09:03:52Z</time>
      </trkpt>
      <trkpt lat="49.202544009312987" lon="9.98108203522861">
        <ele>380.33999999999997</ele>
        <time>2018-09-16T09:03:53Z</time>
      </trkpt>
      <trkpt lat="49.202482989057899" lon="9.981120005249977">
        <ele>380.81999999999999</ele>
        <time>2018-09-16T09:03:54Z</time>
      </trkpt>
      <trkpt lat="49.202353991568089" lon="9.981226958334446">
        <ele>381.30000000000001</ele>
        <time>2018-09-16T09:03:56Z</time>
      </trkpt>
      <trkpt lat="49.20229003764689" lon="9.981279009953141">
        <ele>381.30000000000001</ele>
        <time>2018-09-16T09:03:57Z</time>
      </trkpt>
      <trkpt lat="49.20216497965157" lon="9.981382023543119">
        <ele>381.77999999999997</ele>
        <time>2018-09-16T09:03:59Z</time>
      </trkpt>
      <trkpt lat="49.20214201323688" lon="9.981400966644287">
        <ele>382.74000000000001</ele>
        <time>2018-09-16T09:04:00Z</time>
      </trkpt>
      <trkpt lat="49.201953001320362" lon="9.981661979109049">
        <ele>384.66000000000003</ele>
        <time>2018-09-16T09:04:02Z</time>
      </trkpt>
      <trkpt lat="49.20177698135376" lon="9.981740014627576">
        <ele>386.11000000000001</ele>
        <time>2018-09-16T09:04:04Z</time>
      </trkpt>
      <trkpt lat="49.200856983661652" lon="9.98248097486794">
        <ele>394.27999999999997</ele>
        <time>2018-09-16T09:04:14Z</time>
      </trkpt>
      <trkpt lat="49.199515040963888" lon="9.983531981706619">
        <ele>406.76999999999998</ele>
        <time>2018-09-16T09:04:27Z</time>
      </trkpt>
      <trkpt lat="49.199278000742197" lon="9.98361999168992">
        <ele>408.69999999999999</ele>
        <time>2018-09-16T09:04:29Z</time>
      </trkpt>
      <trkpt lat="49.198029013350606" lon="9.984086025506258">
        <ele>414.94999999999999</ele>
        <time>2018-09-16T09:04:37Z</time>
      </trkpt>
      <trkpt lat="49.196701990440488" lon="9.984738975763321">
        <ele>420.23000000000002</ele>
        <time>2018-09-16T09:04:44Z</time>
      </trkpt>
      <trkpt lat="49.195359963923693" lon="9.985927026718855">
        <ele>421.68000000000001</ele>
        <time>2018-09-16T09:04:51Z</time>
      </trkpt>
      <trkpt lat="49.193166000768542" lon="9.987882021814585">
        <ele>422.63999999999999</ele>
        <time>2018-09-16T09:05:01Z</time>
      </trkpt>
      <trkpt lat="49.192882021889091" lon="9.988125013187528">
        <ele>424.07999999999998</ele>
        <time>2018-09-16T09:05:03Z</time>
      </trkpt>
      <trkpt lat="49.192762998864055" lon="9.988225009292364">
        <ele>424.07999999999998</ele>
        <time>2018-09-16T09:05:04Z</time>
      </trkpt>
      <trkpt lat="49.19262302108109" lon="9.988277982920408">
        <ele>423.60000000000002</ele>
        <time>2018-09-16T09:05:05Z</time>
      </trkpt>
      <trkpt lat="49.192468961700797" lon="9.988288963213563">
        <ele>423.12</ele>
        <time>2018-09-16T09:05:06Z</time>
      </trkpt>
      <trkpt lat="49.192304005846381" lon="9.988288963213563">
        <ele>422.63999999999999</ele>
        <time>2018-09-16T09:05:07Z</time>
      </trkpt>
      <trkpt lat="49.191949032247066" lon="9.988308995962143">
        <ele>421.19</ele>
        <time>2018-09-16T09:05:09Z</time>
      </trkpt>
      <trkpt lat="49.191757002845407" lon="9.988353000953794">
        <ele>420.23000000000002</ele>
        <time>2018-09-16T09:05:10Z</time>
      </trkpt>
      <trkpt lat="49.191607972607017" lon="9.988475041463971">
        <ele>419.75</ele>
        <time>2018-09-16T09:05:11Z</time>
      </trkpt>
      <trkpt lat="49.191460032016039" lon="9.988632034510374">
        <ele>418.79000000000002</ele>
        <time>2018-09-16T09:05:12Z</time>
      </trkpt>
      <trkpt lat="49.191328017041087" lon="9.988820040598512">
        <ele>418.31</ele>
        <time>2018-09-16T09:05:13Z</time>
      </trkpt>
      <trkpt lat="49.191207988187671" lon="9.989050040021539">
        <ele>418.31</ele>
        <time>2018-09-16T09:05:14Z</time>
      </trkpt>
      <trkpt lat="49.191108997911215" lon="9.989303005859256">
        <ele>418.79000000000002</ele>
        <time>2018-09-16T09:05:15Z</time>
      </trkpt>
      <trkpt lat="49.190657967701554" lon="9.990562973544002">
        <ele>422.63999999999999</ele>
        <time>2018-09-16T09:05:20Z</time>
      </trkpt>
      <trkpt lat="49.190601976588368" lon="9.990842007100582">
        <ele>423.60000000000002</ele>
        <time>2018-09-16T09:05:21Z</time>
      </trkpt>
      <trkpt lat="49.190568029880524" lon="9.991149036213756">
        <ele>424.07999999999998</ele>
        <time>2018-09-16T09:05:22Z</time>
      </trkpt>
      <trkpt lat="49.190465016290545" lon="9.993978012353182">
        <ele>431.29000000000002</ele>
        <time>2018-09-16T09:05:31Z</time>
      </trkpt>
      <trkpt lat="49.190531987696886" lon="9.995503015816212">
        <ele>429.85000000000002</ele>
        <time>2018-09-16T09:05:36Z</time>
      </trkpt>
      <trkpt lat="49.190491000190377" lon="9.996282029896975">
        <ele>428.88999999999999</ele>
        <time>2018-09-16T09:05:39Z</time>
      </trkpt>
      <trkpt lat="49.190499968826771" lon="9.996548993512988">
        <ele>428.39999999999998</ele>
        <time>2018-09-16T09:05:40Z</time>
      </trkpt>
      <trkpt lat="49.190530981868505" lon="9.996822997927666">
        <ele>427.44</ele>
        <time>2018-09-16T09:05:41Z</time>
      </trkpt>
      <trkpt lat="49.19060398824513" lon="9.997894037514925">
        <ele>423.12</ele>
        <time>2018-09-16T09:05:45Z</time>
      </trkpt>
      <trkpt lat="49.190557971596718" lon="9.998697023838759">
        <ele>419.26999999999998</ele>
        <time>2018-09-16T09:05:49Z</time>
      </trkpt>
      <trkpt lat="49.190522013232112" lon="9.998820992186666">
        <ele>418.31</ele>
        <time>2018-09-16T09:05:50Z</time>
      </trkpt>
      <trkpt lat="49.190483037382364" lon="9.998919982463121">
        <ele>417.35000000000002</ele>
        <time>2018-09-16T09:05:51Z</time>
      </trkpt>
      <trkpt lat="49.190423022955656" lon="9.99896096996963">
        <ele>416.38999999999999</ele>
        <time>2018-09-16T09:05:52Z</time>
      </trkpt>
      <trkpt lat="49.190352028235793" lon="9.998973039910197">
        <ele>415.43000000000001</ele>
        <time>2018-09-16T09:05:53Z</time>
      </trkpt>
      <trkpt lat="49.190301988273859" lon="9.998900033533573">
        <ele>414.47000000000003</ele>
        <time>2018-09-16T09:05:54Z</time>
      </trkpt>
      <trkpt lat="49.190247002989054" lon="9.998791990801692">
        <ele>413.5</ele>
        <time>2018-09-16T09:05:55Z</time>
      </trkpt>
      <trkpt lat="49.19017500244081" lon="9.998654024675489">
        <ele>412.54000000000002</ele>
        <time>2018-09-16T09:05:56Z</time>
      </trkpt>
      <trkpt lat="49.190091015771031" lon="9.998490996658802">
        <ele>411.57999999999998</ele>
        <time>2018-09-16T09:05:57Z</time>
      </trkpt>
      <trkpt lat="49.189995964989066" lon="9.998306008055806">
        <ele>410.62</ele>
        <time>2018-09-16T09:05:58Z</time>
      </trkpt>
      <trkpt lat="49.189891023561358" lon="9.998101992532611">
        <ele>409.18000000000001</ele>
        <time>2018-09-16T09:05:59Z</time>
      </trkpt>
      <trkpt lat="49.189437981694937" lon="9.997294982895255">
        <ele>402.93000000000001</ele>
        <time>2018-09-16T09:06:03Z</time>
      </trkpt>
      <trkpt lat="49.189210999757051" lon="9.996946966275573">
        <ele>399.07999999999998</ele>
        <time>2018-09-16T09:06:05Z</time>
      </trkpt>
      <trkpt lat="49.188105007633567" lon="9.995936024934053">
        <ele>386.58999999999997</ele>
        <time>2018-09-16T09:06:12Z</time>
      </trkpt>
      <trkpt lat="49.18791800737381" lon="9.99590702354908">
        <ele>385.14999999999998</ele>
        <time>2018-09-16T09:06:13Z</time>
      </trkpt>
      <trkpt lat="49.187750034034252" lon="9.995885984972119">
        <ele>384.18000000000001</ele>
        <time>2018-09-16T09:06:14Z</time>
      </trkpt>
      <trkpt lat="49.187463959679008" lon="9.995850026607513">
        <ele>381.30000000000001</ele>
        <time>2018-09-16T09:06:16Z</time>
      </trkpt>
      <trkpt lat="49.187354994937778" lon="9.995808033272624">
        <ele>379.86000000000001</ele>
        <time>2018-09-16T09:06:17Z</time>
      </trkpt>
      <trkpt lat="49.187248963862658" lon="9.995731003582478">
        <ele>378.42000000000002</ele>
        <time>2018-09-16T09:06:18Z</time>
      </trkpt>
      <trkpt lat="49.187157014384866" lon="9.995664032176137">
        <ele>377.44999999999999</ele>
        <time>2018-09-16T09:06:19Z</time>
      </trkpt>
      <trkpt lat="49.187083002179861" lon="9.9956089630723">
        <ele>376.49000000000001</ele>
        <time>2018-09-16T09:06:20Z</time>
      </trkpt>
      <trkpt lat="49.187004966661334" lon="9.995635030791163">
        <ele>375.52999999999997</ele>
        <time>2018-09-16T09:06:21Z</time>
      </trkpt>
      <trkpt lat="49.186959033831954" lon="9.995680041611195">
        <ele>374.56999999999999</ele>
        <time>2018-09-16T09:06:22Z</time>
      </trkpt>
      <trkpt lat="49.186923997476697" lon="9.995767967775464">
        <ele>374.08999999999997</ele>
        <time>2018-09-16T09:06:23Z</time>
      </trkpt>
      <trkpt lat="49.186889966949821" lon="9.995895037427545">
        <ele>373.13</ele>
        <time>2018-09-16T09:06:24Z</time>
      </trkpt>
      <trkpt lat="49.186912011355162" lon="9.996054964140058">
        <ele>373.13</ele>
        <time>2018-09-16T09:06:25Z</time>
      </trkpt>
      <trkpt lat="49.186939001083374" lon="9.996250011026859">
        <ele>372.64999999999998</ele>
        <time>2018-09-16T09:06:26Z</time>
      </trkpt>
      <trkpt lat="49.186985017731786" lon="9.996465006843209">
        <ele>372.64999999999998</ele>
        <time>2018-09-16T09:06:27Z</time>
      </trkpt>
      <trkpt lat="49.187054000794888" lon="9.996699029579759">
        <ele>372.64999999999998</ele>
        <time>2018-09-16T09:06:28Z</time>
      </trkpt>
      <trkpt lat="49.18714796192944" lon="9.996917964890599">
        <ele>372.64999999999998</ele>
        <time>2018-09-16T09:06:29Z</time>
      </trkpt>
      <trkpt lat="49.187592035159469" lon="9.998518992215395">
        <ele>372.17000000000002</ele>
        <time>2018-09-16T09:06:35Z</time>
      </trkpt>
      <trkpt lat="49.187841983512044" lon="9.999836962670088">
        <ele>372.64999999999998</ele>
        <time>2018-09-16T09:06:41Z</time>
      </trkpt>
      <trkpt lat="49.187861010432243" lon="9.999984987080097">
        <ele>372.64999999999998</ele>
        <time>2018-09-16T09:06:42Z</time>
      </trkpt>
      <trkpt lat="49.187872996553779" lon="10.000130999833345">
        <ele>373.13</ele>
        <time>2018-09-16T09:06:43Z</time>
      </trkpt>
      <trkpt lat="49.187884982675314" lon="10.000272989273071">
        <ele>373.61000000000001</ele>
        <time>2018-09-16T09:06:44Z</time>
      </trkpt>
      <trkpt lat="49.187883976846933" lon="10.000415984541178">
        <ele>374.08999999999997</ele>
        <time>2018-09-16T09:06:45Z</time>
      </trkpt>
      <trkpt lat="49.187835026532412" lon="10.000537019222975">
        <ele>374.08999999999997</ele>
        <time>2018-09-16T09:06:46Z</time>
      </trkpt>
      <trkpt lat="49.187785992398858" lon="10.00065503641963">
        <ele>374.08999999999997</ele>
        <time>2018-09-16T09:06:47Z</time>
      </trkpt>
      <trkpt lat="49.187710974365473" lon="10.000770036131144">
        <ele>374.56999999999999</ele>
        <time>2018-09-16T09:06:48Z</time>
      </trkpt>
      <trkpt lat="49.187619024887681" lon="10.000809011980891">
        <ele>375.05000000000001</ele>
        <time>2018-09-16T09:06:49Z</time>
      </trkpt>
      <trkpt lat="49.187523974105716" lon="10.000852011144161">
        <ele>375.52999999999997</ele>
        <time>2018-09-16T09:06:50Z</time>
      </trkpt>
      <trkpt lat="49.187428001314402" lon="10.000896016135812">
        <ele>376.00999999999999</ele>
        <time>2018-09-16T09:06:51Z</time>
      </trkpt>
      <trkpt lat="49.187150979414582" lon="10.001023001968861">
        <ele>377.44999999999999</ele>
        <time>2018-09-16T09:06:54Z</time>
      </trkpt>
      <trkpt lat="49.187071016058326" lon="10.001067006960511">
        <ele>377.44999999999999</ele>
        <time>2018-09-16T09:06:55Z</time>
      </trkpt>
      <trkpt lat="49.186997003853321" lon="10.001157028600574">
        <ele>378.42000000000002</ele>
        <time>2018-09-16T09:06:56Z</time>
      </trkpt>
      <trkpt lat="49.186918968334794" lon="10.001250989735126">
        <ele>378.89999999999998</ele>
        <time>2018-09-16T09:06:57Z</time>
      </trkpt>
      <trkpt lat="49.186841016635299" lon="10.001346040517092">
        <ele>379.86000000000001</ele>
        <time>2018-09-16T09:06:58Z</time>
      </trkpt>
      <trkpt lat="49.186529964208603" lon="10.001724986359477">
        <ele>381.30000000000001</ele>
        <time>2018-09-16T09:07:02Z</time>
      </trkpt>
      <trkpt lat="49.185918001458049" lon="10.002404004335403">
        <ele>382.74000000000001</ele>
        <time>2018-09-16T09:07:10Z</time>
      </trkpt>
      <trkpt lat="49.185843989253044" lon="10.002499977126718">
        <ele>382.74000000000001</ele>
        <time>2018-09-16T09:07:11Z</time>
      </trkpt>
      <trkpt lat="49.185787998139858" lon="10.002630986273289">
        <ele>382.25999999999999</ele>
        <time>2018-09-16T09:07:12Z</time>
      </trkpt>
      <trkpt lat="49.185315007343888" lon="10.003912998363376">
        <ele>384.18000000000001</ele>
        <time>2018-09-16T09:07:22Z</time>
      </trkpt>
      <trkpt lat="49.185292962938547" lon="10.004049958661199">
        <ele>384.18000000000001</ele>
        <time>2018-09-16T09:07:23Z</time>
      </trkpt>
      <trkpt lat="49.185247030109167" lon="10.004325974732637">
        <ele>383.69999999999999</ele>
        <time>2018-09-16T09:07:25Z</time>
      </trkpt>
      <trkpt lat="49.185221968218684" lon="10.004470981657505">
        <ele>383.22000000000003</ele>
        <time>2018-09-16T09:07:26Z</time>
      </trkpt>
      <trkpt lat="49.185191038995981" lon="10.004660999402404">
        <ele>383.22000000000003</ele>
        <time>2018-09-16T09:07:27Z</time>
      </trkpt>
      <trkpt lat="49.184669014066458" lon="10.006159013137221">
        <ele>383.69999999999999</ele>
        <time>2018-09-16T09:07:35Z</time>
      </trkpt>
      <trkpt lat="49.184587961062789" lon="10.006361017003655">
        <ele>383.22000000000003</ele>
        <time>2018-09-16T09:07:36Z</time>
      </trkpt>
      <trkpt lat="49.18450397439301" lon="10.006570983678102">
        <ele>382.74000000000001</ele>
        <time>2018-09-16T09:07:37Z</time>
      </trkpt>
      <trkpt lat="49.184379000216722" lon="10.006706016138196">
        <ele>382.25999999999999</ele>
        <time>2018-09-16T09:07:38Z</time>
      </trkpt>
      <trkpt lat="49.183973986655474" lon="10.007142964750528">
        <ele>381.30000000000001</ele>
        <time>2018-09-16T09:07:41Z</time>
      </trkpt>
      <trkpt lat="49.183868039399385" lon="10.007333988323808">
        <ele>381.30000000000001</ele>
        <time>2018-09-16T09:07:42Z</time>
      </trkpt>
      <trkpt lat="49.183767037466168" lon="10.007521994411945">
        <ele>381.30000000000001</ele>
        <time>2018-09-16T09:07:43Z</time>
      </trkpt>
      <trkpt lat="49.183393958956003" lon="10.008216015994549">
        <ele>381.77999999999997</ele>
        <time>2018-09-16T09:07:47Z</time>
      </trkpt>
      <trkpt lat="49.183278037235141" lon="10.008345013484359">
        <ele>381.77999999999997</ele>
        <time>2018-09-16T09:07:48Z</time>
      </trkpt>
      <trkpt lat="49.183174017816782" lon="10.008437968790531">
        <ele>381.77999999999997</ele>
        <time>2018-09-16T09:07:49Z</time>
      </trkpt>
      <trkpt lat="49.182404978200793" lon="10.008963011205196">
        <ele>381.77999999999997</ele>
        <time>2018-09-16T09:07:54Z</time>
      </trkpt>
      <trkpt lat="49.18229098431766" lon="10.009135007858276">
        <ele>381.77999999999997</ele>
        <time>2018-09-16T09:07:55Z</time>
      </trkpt>
      <trkpt lat="49.182186964899302" lon="10.00931697897613">
        <ele>382.25999999999999</ele>
        <time>2018-09-16T09:07:56Z</time>
      </trkpt>
      <trkpt lat="49.182078000158072" lon="10.00950800254941">
        <ele>382.25999999999999</ele>
        <time>2018-09-16T09:07:57Z</time>
      </trkpt>
      <trkpt lat="49.18196702376008" lon="10.009719980880618">
        <ele>382.25999999999999</ele>
        <time>2018-09-16T09:07:58Z</time>
      </trkpt>
      <trkpt lat="49.18123603798449" lon="10.011260993778706">
        <ele>384.18000000000001</ele>
        <time>2018-09-16T09:08:05Z</time>
      </trkpt>
      <trkpt lat="49.181132018566132" lon="10.011428967118263">
        <ele>384.66000000000003</ele>
        <time>2018-09-16T09:08:06Z</time>
      </trkpt>
      <trkpt lat="49.181006960570812" lon="10.011601969599724">
        <ele>385.14999999999998</ele>
        <time>2018-09-16T09:08:07Z</time>
      </trkpt>
      <trkpt lat="49.18057001195848" lon="10.012120977044106">
        <ele>386.11000000000001</ele>
        <time>2018-09-16T09:08:10Z</time>
      </trkpt>
      <trkpt lat="49.180405978113413" lon="10.012241005897522">
        <ele>387.06999999999999</ele>
        <time>2018-09-16T09:08:11Z</time>
      </trkpt>
      <trkpt lat="49.180225012823939" lon="10.01227998174727">
        <ele>388.02999999999997</ele>
        <time>2018-09-16T09:08:12Z</time>
      </trkpt>
      <trkpt lat="49.180040024220943" lon="10.012305965647101">
        <ele>388.99000000000001</ele>
        <time>2018-09-16T09:08:13Z</time>
      </trkpt>
      <trkpt lat="49.179853023961186" lon="10.012333039194345">
        <ele>389.94999999999999</ele>
        <time>2018-09-16T09:08:14Z</time>
      </trkpt>
      <trkpt lat="49.179523028433323" lon="10.012341002002358">
        <ele>391.87</ele>
        <time>2018-09-16T09:08:16Z</time>
      </trkpt>
      <trkpt lat="49.179355977103114" lon="10.012304959818721">
        <ele>393.31999999999999</ele>
        <time>2018-09-16T09:08:17Z</time>
      </trkpt>
      <trkpt lat="49.179215999320149" lon="10.012219967320561">
        <ele>393.80000000000001</ele>
        <time>2018-09-16T09:08:18Z</time>
      </trkpt>
      <trkpt lat="49.179055988788605" lon="10.012109996750951">
        <ele>394.75999999999999</ele>
        <time>2018-09-16T09:08:19Z</time>
      </trkpt>
      <trkpt lat="49.178908970206976" lon="10.011968007311225">
        <ele>395.72000000000003</ele>
        <time>2018-09-16T09:08:20Z</time>
      </trkpt>
      <trkpt lat="49.178752982988954" lon="10.01178503036499">
        <ele>396.68000000000001</ele>
        <time>2018-09-16T09:08:21Z</time>
      </trkpt>
      <trkpt lat="49.178592972457409" lon="10.011595012620091">
        <ele>397.63999999999999</ele>
        <time>2018-09-16T09:08:22Z</time>
      </trkpt>
      <trkpt lat="49.177336022257805" lon="10.010101022198796">
        <ele>406.29000000000002</ele>
        <time>2018-09-16T09:08:30Z</time>
      </trkpt>
      <trkpt lat="49.177093030884862" lon="10.009801033884287">
        <ele>408.69999999999999</ele>
        <time>2018-09-16T09:08:33Z</time>
      </trkpt>
      <trkpt lat="49.176842998713255" lon="10.009549995884299">
        <ele>410.13999999999999</ele>
        <time>2018-09-16T09:08:37Z</time>
      </trkpt>
      <trkpt lat="49.176778960973024" lon="10.009511020034552">
        <ele>410.13999999999999</ele>
        <time>2018-09-16T09:08:38Z</time>
      </trkpt>
      <trkpt lat="49.176732022315264" lon="10.00955200754106">
        <ele>410.62</ele>
        <time>2018-09-16T09:08:39Z</time>
      </trkpt>
      <trkpt lat="49.176665972918272" lon="10.009610010311007">
        <ele>410.62</ele>
        <time>2018-09-16T09:08:40Z</time>
      </trkpt>
      <trkpt lat="49.176607970148325" lon="10.00966097228229">
        <ele>411.10000000000002</ele>
        <time>2018-09-16T09:08:41Z</time>
      </trkpt>
      <trkpt lat="49.176562037318945" lon="10.009753005579114">
        <ele>411.10000000000002</ele>
        <time>2018-09-16T09:08:42Z</time>
      </trkpt>
      <trkpt lat="49.17650998570025" lon="10.009855013340712">
        <ele>411.57999999999998</ele>
        <time>2018-09-16T09:08:43Z</time>
      </trkpt>
      <trkpt lat="49.175775982439518" lon="10.011263005435467">
        <ele>419.26999999999998</ele>
        <time>2018-09-16T09:08:55Z</time>
      </trkpt>
      <trkpt lat="49.1757130343467" lon="10.011393008753657">
        <ele>419.26999999999998</ele>
        <time>2018-09-16T09:08:56Z</time>
      </trkpt>
      <trkpt lat="49.175586970523" lon="10.01165796071291">
        <ele>419.26999999999998</ele>
        <time>2018-09-16T09:08:58Z</time>
      </trkpt>
      <trkpt lat="49.17552201077342" lon="10.011797016486526">
        <ele>419.26999999999998</ele>
        <time>2018-09-16T09:08:59Z</time>
      </trkpt>
      <trkpt lat="49.174871994182467" lon="10.013282038271427">
        <ele>423.60000000000002</ele>
        <time>2018-09-16T09:09:09Z</time>
      </trkpt>
      <trkpt lat="49.174095997586846" lon="10.014638984575868">
        <ele>428.88999999999999</ele>
        <time>2018-09-16T09:09:17Z</time>
      </trkpt>
      <trkpt lat="49.173137024044991" lon="10.015896018594503">
        <ele>432.73000000000002</ele>
        <time>2018-09-16T09:09:25Z</time>
      </trkpt>
      <trkpt lat="49.172608964145184" lon="10.017066970467567">
        <ele>433.20999999999998</ele>
        <time>2018-09-16T09:09:30Z</time>
      </trkpt>
      <trkpt lat="49.172530006617308" lon="10.017368970438838">
        <ele>433.20999999999998</ele>
        <time>2018-09-16T09:09:31Z</time>
      </trkpt>
      <trkpt lat="49.172449037432671" lon="10.017683962360024">
        <ele>433.20999999999998</ele>
        <time>2018-09-16T09:09:32Z</time>
      </trkpt>
      <trkpt lat="49.172359015792608" lon="10.018028961494565">
        <ele>432.73000000000002</ele>
        <time>2018-09-16T09:09:33Z</time>
      </trkpt>
      <trkpt lat="49.172320961952209" lon="10.01835803501308">
        <ele>432.25</ele>
        <time>2018-09-16T09:09:34Z</time>
      </trkpt>
      <trkpt lat="49.172291960567236" lon="10.018722983077168">
        <ele>431.76999999999998</ele>
        <time>2018-09-16T09:09:35Z</time>
      </trkpt>
      <trkpt lat="49.172282991930842" lon="10.019095977768302">
        <ele>431.29000000000002</ele>
        <time>2018-09-16T09:09:36Z</time>
      </trkpt>
      <trkpt lat="49.172275029122829" lon="10.019468972459435">
        <ele>430.32999999999998</ele>
        <time>2018-09-16T09:09:37Z</time>
      </trkpt>
      <trkpt lat="49.172291960567236" lon="10.019846996292472">
        <ele>430.32999999999998</ele>
        <time>2018-09-16T09:09:38Z</time>
      </trkpt>
      <trkpt lat="49.172421963885427" lon="10.021176030859351">
        <ele>429.37</ele>
        <time>2018-09-16T09:09:42Z</time>
      </trkpt>
      <trkpt lat="49.172502011060715" lon="10.021459003910422">
        <ele>428.88999999999999</ele>
        <time>2018-09-16T09:09:43Z</time>
      </trkpt>
      <trkpt lat="49.172938037663698" lon="10.022874036803842">
        <ele>427.92000000000002</ele>
        <time>2018-09-16T09:09:48Z</time>
      </trkpt>
      <trkpt lat="49.172971984371543" lon="10.023164972662926">
        <ele>427.92000000000002</ele>
        <time>2018-09-16T09:09:49Z</time>
      </trkpt>
      <trkpt lat="49.172990005463362" lon="10.023450963199139">
        <ele>427.92000000000002</ele>
        <time>2018-09-16T09:09:50Z</time>
      </trkpt>
      <trkpt lat="49.1730070207268" lon="10.023725973442197">
        <ele>428.39999999999998</ele>
        <time>2018-09-16T09:09:51Z</time>
      </trkpt>
      <trkpt lat="49.173026969656348" lon="10.024000983685255">
        <ele>428.88999999999999</ele>
        <time>2018-09-16T09:09:52Z</time>
      </trkpt>
      <trkpt lat="49.173121014609933" lon="10.024235006421804">
        <ele>429.37</ele>
        <time>2018-09-16T09:09:53Z</time>
      </trkpt>
      <trkpt lat="49.173213969916105" lon="10.024464000016451">
        <ele>429.85000000000002</ele>
        <time>2018-09-16T09:09:54Z</time>
      </trkpt>
      <trkpt lat="49.173303991556168" lon="10.024686958640814">
        <ele>430.32999999999998</ele>
        <time>2018-09-16T09:09:55Z</time>
      </trkpt>
      <trkpt lat="49.173392001539469" lon="10.024905977770686">
        <ele>430.81</ele>
        <time>2018-09-16T09:09:56Z</time>
      </trkpt>
      <trkpt lat="49.173474982380867" lon="10.025109993293881">
        <ele>430.81</ele>
        <time>2018-09-16T09:09:57Z</time>
      </trkpt>
      <trkpt lat="49.173517981544137" lon="10.025335969403386">
        <ele>431.29000000000002</ele>
        <time>2018-09-16T09:09:58Z</time>
      </trkpt>
      <trkpt lat="49.173560980707407" lon="10.025561023503542">
        <ele>431.76999999999998</ele>
        <time>2018-09-16T09:09:59Z</time>
      </trkpt>
      <trkpt lat="49.173560980707407" lon="10.025802003219724">
        <ele>431.76999999999998</ele>
        <time>2018-09-16T09:10:00Z</time>
      </trkpt>
      <trkpt lat="49.17352301068604" lon="10.026042982935905">
        <ele>432.25</ele>
        <time>2018-09-16T09:10:01Z</time>
      </trkpt>
      <trkpt lat="49.173472970724106" lon="10.026283040642738">
        <ele>432.73000000000002</ele>
        <time>2018-09-16T09:10:02Z</time>
      </trkpt>
      <trkpt lat="49.173387978225946" lon="10.026496024802327">
        <ele>433.20999999999998</ele>
        <time>2018-09-16T09:10:03Z</time>
      </trkpt>
      <trkpt lat="49.173274990171194" lon="10.026700040325522">
        <ele>433.69</ele>
        <time>2018-09-16T09:10:04Z</time>
      </trkpt>
      <trkpt lat="49.173142975196242" lon="10.026887962594628">
        <ele>434.64999999999998</ele>
        <time>2018-09-16T09:10:05Z</time>
      </trkpt>
      <trkpt lat="49.172984976321459" lon="10.027053002268076">
        <ele>435.13</ele>
        <time>2018-09-16T09:10:06Z</time>
      </trkpt>
      <trkpt lat="49.172807028517127" lon="10.027202032506466">
        <ele>435.61000000000001</ele>
        <time>2018-09-16T09:10:07Z</time>
      </trkpt>
      <trkpt lat="49.17262296192348" lon="10.027356008067727">
        <ele>436.10000000000002</ele>
        <time>2018-09-16T09:10:08Z</time>
      </trkpt>
      <trkpt lat="49.171959031373262" lon="10.02800602465868">
        <ele>438.01999999999998</ele>
        <time>2018-09-16T09:10:12Z</time>
      </trkpt>
      <trkpt lat="49.171821987256408" lon="10.028211968019605">
        <ele>438.01999999999998</ele>
        <time>2018-09-16T09:10:13Z</time>
      </trkpt>
      <trkpt lat="49.171544965356588" lon="10.028627039864659">
        <ele>438.5</ele>
        <time>2018-09-16T09:10:15Z</time>
      </trkpt>
      <trkpt lat="49.171412028372288" lon="10.028827032074332">
        <ele>438.01999999999998</ele>
        <time>2018-09-16T09:10:16Z</time>
      </trkpt>
      <trkpt lat="49.171254029497504" lon="10.028993999585509">
        <ele>438.01999999999998</ele>
        <time>2018-09-16T09:10:17Z</time>
      </trkpt>
      <trkpt lat="49.171069962903857" lon="10.029098019003868">
        <ele>437.06</ele>
        <time>2018-09-16T09:10:18Z</time>
      </trkpt>
      <trkpt lat="49.170878017321229" lon="10.029206983745098">
        <ele>436.10000000000002</ele>
        <time>2018-09-16T09:10:19Z</time>
      </trkpt>
      <trkpt lat="49.170505022630095" lon="10.029435977339745">
        <ele>434.17000000000002</ele>
        <time>2018-09-16T09:10:21Z</time>
      </trkpt>
      <trkpt lat="49.170359009876847" lon="10.029614008963108">
        <ele>433.20999999999998</ele>
        <time>2018-09-16T09:10:22Z</time>
      </trkpt>
      <trkpt lat="49.170223977416754" lon="10.029809977859259">
        <ele>432.73000000000002</ele>
        <time>2018-09-16T09:10:23Z</time>
      </trkpt>
      <trkpt lat="49.16920599527657" lon="10.031518964096904">
        <ele>430.81</ele>
        <time>2018-09-16T09:10:30Z</time>
      </trkpt>
      <trkpt lat="49.166801981627941" lon="10.034321034327149">
        <ele>427.44</ele>
        <time>2018-09-16T09:10:43Z</time>
      </trkpt>
      <trkpt lat="49.16536096483469" lon="10.035945028066635">
        <ele>426</ele>
        <time>2018-09-16T09:10:51Z</time>
      </trkpt>
      <trkpt lat="49.165236996486783" lon="10.036154994741082">
        <ele>425.51999999999998</ele>
        <time>2018-09-16T09:10:52Z</time>
      </trkpt>
      <trkpt lat="49.165115961804986" lon="10.036362027749419">
        <ele>425.51999999999998</ele>
        <time>2018-09-16T09:10:53Z</time>
      </trkpt>
      <trkpt lat="49.164999034255743" lon="10.036561014130712">
        <ele>425.51999999999998</ele>
        <time>2018-09-16T09:10:54Z</time>
      </trkpt>
      <trkpt lat="49.164910018444061" lon="10.036784978583455">
        <ele>425.51999999999998</ele>
        <time>2018-09-16T09:10:55Z</time>
      </trkpt>
      <trkpt lat="49.16484204120934" lon="10.037003997713327">
        <ele>425.51999999999998</ele>
        <time>2018-09-16T09:10:56Z</time>
      </trkpt>
      <trkpt lat="49.16477900929749" lon="10.037217987701297">
        <ele>425.51999999999998</ele>
        <time>2018-09-16T09:10:57Z</time>
      </trkpt>
      <trkpt lat="49.16473500430584" lon="10.037420997396111">
        <ele>425.51999999999998</ele>
        <time>2018-09-16T09:10:58Z</time>
      </trkpt>
      <trkpt lat="49.16445798240602" lon="10.038651963695884">
        <ele>424.56</ele>
        <time>2018-09-16T09:11:06Z</time>
      </trkpt>
      <trkpt lat="49.164380030706525" lon="10.039042979478836">
        <ele>423.60000000000002</ele>
        <time>2018-09-16T09:11:09Z</time>
      </trkpt>
      <trkpt lat="49.164353962987661" lon="10.039170971140265">
        <ele>423.60000000000002</ele>
        <time>2018-09-16T09:11:10Z</time>
      </trkpt>
      <trkpt lat="49.16432797908783" lon="10.039300974458456">
        <ele>423.60000000000002</ele>
        <time>2018-09-16T09:11:11Z</time>
      </trkpt>
      <trkpt lat="49.164249021559954" lon="10.039697019383311">
        <ele>424.56</ele>
        <time>2018-09-16T09:11:14Z</time>
      </trkpt>
      <trkpt lat="49.164223037660122" lon="10.039827022701502">
        <ele>425.51999999999998</ele>
        <time>2018-09-16T09:11:15Z</time>
      </trkpt>
      <trkpt lat="49.164196969941258" lon="10.039956020191312">
        <ele>426.95999999999998</ele>
        <time>2018-09-16T09:11:16Z</time>
      </trkpt>
      <trkpt lat="49.164166962727904" lon="10.040083006024361">
        <ele>427.92000000000002</ele>
        <time>2018-09-16T09:11:17Z</time>
      </trkpt>
      <trkpt lat="49.164132010191679" lon="10.04021099768579">
        <ele>428.88999999999999</ele>
        <time>2018-09-16T09:11:18Z</time>
      </trkpt>
      <trkpt lat="49.164096973836422" lon="10.040335971862078">
        <ele>428.88999999999999</ele>
        <time>2018-09-16T09:11:19Z</time>
      </trkpt>
      <trkpt lat="49.164057997986674" lon="10.040438985452056">
        <ele>428.88999999999999</ele>
        <time>2018-09-16T09:11:20Z</time>
      </trkpt>
      <trkpt lat="49.164001001045108" lon="10.04053202457726">
        <ele>428.88999999999999</ele>
        <time>2018-09-16T09:11:21Z</time>
      </trkpt>
      <trkpt lat="49.163942998275161" lon="10.040625985711813">
        <ele>428.88999999999999</ele>
        <time>2018-09-16T09:11:22Z</time>
      </trkpt>
      <trkpt lat="49.163870997726917" lon="10.040707038715482">
        <ele>428.88999999999999</ele>
        <time>2018-09-16T09:11:23Z</time>
      </trkpt>
      <trkpt lat="49.163792040199041" lon="10.040750959888101">
        <ele>428.88999999999999</ele>
        <time>2018-09-16T09:11:24Z</time>
      </trkpt>
      <trkpt lat="49.163715010508895" lon="10.040793959051371">
        <ele>428.88999999999999</ele>
        <time>2018-09-16T09:11:25Z</time>
      </trkpt>
      <trkpt lat="49.163622977212071" lon="10.040795970708132">
        <ele>428.39999999999998</ele>
        <time>2018-09-16T09:11:26Z</time>
      </trkpt>
      <trkpt lat="49.163535973057151" lon="10.040795970708132">
        <ele>428.88999999999999</ele>
        <time>2018-09-16T09:11:27Z</time>
      </trkpt>
      <trkpt lat="49.163019983097911" lon="10.040825977921486">
        <ele>427.92000000000002</ele>
        <time>2018-09-16T09:11:33Z</time>
      </trkpt>
      <trkpt lat="49.162917975336313" lon="10.040838969871402">
        <ele>427.92000000000002</ele>
        <time>2018-09-16T09:11:34Z</time>
      </trkpt>
      <trkpt lat="49.162865001708269" lon="10.040878029540181">
        <ele>427.92000000000002</ele>
        <time>2018-09-16T09:11:35Z</time>
      </trkpt>
      <trkpt lat="49.162810016423464" lon="10.040964027866721">
        <ele>427.92000000000002</ele>
        <time>2018-09-16T09:11:36Z</time>
      </trkpt>
      <trkpt lat="49.162771040573716" lon="10.04107098095119">
        <ele>427.92000000000002</ele>
        <time>2018-09-16T09:11:37Z</time>
      </trkpt>
      <trkpt lat="49.162745978683233" lon="10.041179023683071">
        <ele>428.39999999999998</ele>
        <time>2018-09-16T09:11:38Z</time>
      </trkpt>
      <trkpt lat="49.162745978683233" lon="10.041300980374217">
        <ele>428.39999999999998</ele>
        <time>2018-09-16T09:11:39Z</time>
      </trkpt>
      <trkpt lat="49.162745978683233" lon="10.041460990905762">
        <ele>427.92000000000002</ele>
        <time>2018-09-16T09:11:40Z</time>
      </trkpt>
      <trkpt lat="49.162771040573716" lon="10.041547995060682">
        <ele>427.92000000000002</ele>
        <time>2018-09-16T09:11:41Z</time>
      </trkpt>
      <trkpt lat="49.162805993109941" lon="10.041666012257338">
        <ele>427.92000000000002</ele>
        <time>2018-09-16T09:11:42Z</time>
      </trkpt>
      <trkpt lat="49.162841029465199" lon="10.041786041110754">
        <ele>427.92000000000002</ele>
        <time>2018-09-16T09:11:43Z</time>
      </trkpt>
      <trkpt lat="49.162875982001424" lon="10.041905986145139">
        <ele>427.44</ele>
        <time>2018-09-16T09:11:44Z</time>
      </trkpt>
      <trkpt lat="49.162912024185061" lon="10.042028026655316">
        <ele>426.95999999999998</ele>
        <time>2018-09-16T09:11:45Z</time>
      </trkpt>
      <trkpt lat="49.163024006411433" lon="10.042394986376166">
        <ele>425.51999999999998</ele>
        <time>2018-09-16T09:11:48Z</time>
      </trkpt>
      <trkpt lat="49.163050996139646" lon="10.042522978037596">
        <ele>425.04000000000002</ele>
        <time>2018-09-16T09:11:49Z</time>
      </trkpt>
      <trkpt lat="49.163075974211097" lon="10.042797988280654">
        <ele>424.56</ele>
        <time>2018-09-16T09:11:51Z</time>
      </trkpt>
      <trkpt lat="49.163088966161013" lon="10.042936038225889">
        <ele>424.07999999999998</ele>
        <time>2018-09-16T09:11:52Z</time>
      </trkpt>
      <trkpt lat="49.163079997524619" lon="10.043067969381809">
        <ele>424.07999999999998</ele>
        <time>2018-09-16T09:11:53Z</time>
      </trkpt>
      <trkpt lat="49.163070023059845" lon="10.043200990185142">
        <ele>423.12</ele>
        <time>2018-09-16T09:11:54Z</time>
      </trkpt>
      <trkpt lat="49.16306097060442" lon="10.04332797601819">
        <ele>421.68000000000001</ele>
        <time>2018-09-16T09:11:55Z</time>
      </trkpt>
      <trkpt lat="49.163036998361349" lon="10.043572979047894">
        <ele>419.75</ele>
        <time>2018-09-16T09:11:57Z</time>
      </trkpt>
      <trkpt lat="49.162958962842822" lon="10.043889982625842">
        <ele>416.38999999999999</ele>
        <time>2018-09-16T09:12:00Z</time>
      </trkpt>
      <trkpt lat="49.16290900669992" lon="10.043947985395789">
        <ele>415.43000000000001</ele>
        <time>2018-09-16T09:12:01Z</time>
      </trkpt>
      <trkpt lat="49.162860978394747" lon="10.044001964852214">
        <ele>414.94999999999999</ele>
        <time>2018-09-16T09:12:02Z</time>
      </trkpt>
      <trkpt lat="49.162799036130309" lon="10.044046975672245">
        <ele>413.98000000000002</ele>
        <time>2018-09-16T09:12:03Z</time>
      </trkpt>
      <trkpt lat="49.162723012268543" lon="10.044043036177754">
        <ele>413.5</ele>
        <time>2018-09-16T09:12:04Z</time>
      </trkpt>
      <trkpt lat="49.162659980356693" lon="10.044021997600794">
        <ele>412.06</ele>
        <time>2018-09-16T09:12:05Z</time>
      </trkpt>
      <trkpt lat="49.162573982030153" lon="10.04399299621582">
        <ele>411.10000000000002</ele>
        <time>2018-09-16T09:12:06Z</time>
      </trkpt>
      <trkpt lat="49.16243702173233" lon="10.043975980952382">
        <ele>409.66000000000003</ele>
        <time>2018-09-16T09:12:08Z</time>
      </trkpt>
      <trkpt lat="49.162365021184087" lon="10.043967012315989">
        <ele>408.69999999999999</ele>
        <time>2018-09-16T09:12:09Z</time>
      </trkpt>
      <trkpt lat="49.162230994552374" lon="10.04394999705255">
        <ele>407.74000000000001</ele>
        <time>2018-09-16T09:12:11Z</time>
      </trkpt>
      <trkpt lat="49.162184977903962" lon="10.043967012315989">
        <ele>408.22000000000003</ele>
        <time>2018-09-16T09:12:12Z</time>
      </trkpt>
      <trkpt lat="49.162124041467905" lon="10.043988972902298">
        <ele>408.22000000000003</ele>
        <time>2018-09-16T09:12:13Z</time>
      </trkpt>
      <trkpt lat="49.162056986242533" lon="10.0440130289644">
        <ele>408.22000000000003</ele>
        <time>2018-09-16T09:12:14Z</time>
      </trkpt>
      <trkpt lat="49.161981968209147" lon="10.044049993157387">
        <ele>408.22000000000003</ele>
        <time>2018-09-16T09:12:15Z</time>
      </trkpt>
      <trkpt lat="49.16149104014039" lon="10.044569000601768">
        <ele>413.98000000000002</ele>
        <time>2018-09-16T09:12:22Z</time>
      </trkpt>
      <trkpt lat="49.161418033763766" lon="10.044647036120296">
        <ele>414.47000000000003</ele>
        <time>2018-09-16T09:12:23Z</time>
      </trkpt>
      <trkpt lat="49.160646982491016" lon="10.045358994975686">
        <ele>420.70999999999998</ele>
        <time>2018-09-16T09:12:33Z</time>
      </trkpt>
      <trkpt lat="49.160570958629251" lon="10.04540802910924">
        <ele>421.19</ele>
        <time>2018-09-16T09:12:34Z</time>
      </trkpt>
      <trkpt lat="49.160432992503047" lon="10.045467037707567">
        <ele>422.16000000000003</ele>
        <time>2018-09-16T09:12:36Z</time>
      </trkpt>
      <trkpt lat="49.160369038581848" lon="10.045488998293877">
        <ele>422.63999999999999</ele>
        <time>2018-09-16T09:12:37Z</time>
      </trkpt>
      <trkpt lat="49.160228976979852" lon="10.04553803242743">
        <ele>423.12</ele>
        <time>2018-09-16T09:12:39Z</time>
      </trkpt>
      <trkpt lat="49.160148007795215" lon="10.045566027984023">
        <ele>423.12</ele>
        <time>2018-09-16T09:12:40Z</time>
      </trkpt>
      <trkpt lat="49.160055974498391" lon="10.045579019933939">
        <ele>423.12</ele>
        <time>2018-09-16T09:12:41Z</time>
      </trkpt>
      <trkpt lat="49.159768978133798" lon="10.045565022155643">
        <ele>424.07999999999998</ele>
        <time>2018-09-16T09:12:44Z</time>
      </trkpt>
      <trkpt lat="49.158536000177264" lon="10.04545203410089">
        <ele>424.56</ele>
        <time>2018-09-16T09:12:56Z</time>
      </trkpt>
      <trkpt lat="49.157680962234735" lon="10.045886971056461">
        <ele>430.32999999999998</ele>
        <time>2018-09-16T09:13:05Z</time>
      </trkpt>
      <trkpt lat="49.157338980585337" lon="10.046202968806028">
        <ele>432.25</ele>
        <time>2018-09-16T09:13:11Z</time>
      </trkpt>
      <trkpt lat="49.157225992530584" lon="10.046374965459108">
        <ele>433.69</ele>
        <time>2018-09-16T09:13:18Z</time>
      </trkpt>
      <trkpt lat="49.157225992530584" lon="10.046374965459108">
        <ele>433.69</ele>
        <time>2018-09-16T09:14:03Z</time>
      </trkpt>
      <trkpt lat="49.157220963388681" lon="10.046382006257772">
        <ele>433.69</ele>
        <time>2018-09-16T09:14:06Z</time>
      </trkpt>
      <trkpt lat="49.157181987538934" lon="10.046442020684481">
        <ele>434.17000000000002</ele>
        <time>2018-09-16T09:14:08Z</time>
      </trkpt>
      <trkpt lat="49.157142005860806" lon="10.046502035111189">
        <ele>434.17000000000002</ele>
        <time>2018-09-16T09:14:09Z</time>
      </trkpt>
      <trkpt lat="49.156687958166003" lon="10.047217011451721">
        <ele>432.73000000000002</ele>
        <time>2018-09-16T09:14:15Z</time>
      </trkpt>
      <trkpt lat="49.155747005715966" lon="10.048751989379525">
        <ele>429.37</ele>
        <time>2018-09-16T09:14:23Z</time>
      </trkpt>
      <trkpt lat="49.154386958107352" lon="10.050657028332353">
        <ele>423.12</ele>
        <time>2018-09-16T09:14:32Z</time>
      </trkpt>
      <trkpt lat="49.15296396240592" lon="10.052297031506896">
        <ele>418.31</ele>
        <time>2018-09-16T09:14:41Z</time>
      </trkpt>
      <trkpt lat="49.152867989614606" lon="10.052400967106223">
        <ele>418.31</ele>
        <time>2018-09-16T09:14:42Z</time>
      </trkpt>
      <trkpt lat="49.152795989066362" lon="10.05247799679637">
        <ele>418.31</ele>
        <time>2018-09-16T09:14:43Z</time>
      </trkpt>
      <trkpt lat="49.152700016275048" lon="10.052575981244445">
        <ele>418.31</ele>
        <time>2018-09-16T09:14:44Z</time>
      </trkpt>
      <trkpt lat="49.152632039040327" lon="10.052566006779671">
        <ele>418.31</ele>
        <time>2018-09-16T09:14:45Z</time>
      </trkpt>
      <trkpt lat="49.152565989643335" lon="10.052557038143277">
        <ele>417.82999999999998</ele>
        <time>2018-09-16T09:14:46Z</time>
      </trkpt>
      <trkpt lat="49.152509998530149" lon="10.052548991516232">
        <ele>417.82999999999998</ele>
        <time>2018-09-16T09:14:47Z</time>
      </trkpt>
      <trkpt lat="49.152402961626649" lon="10.052330978214741">
        <ele>417.82999999999998</ele>
        <time>2018-09-16T09:14:48Z</time>
      </trkpt>
      <trkpt lat="49.152402961626649" lon="10.052212039008737">
        <ele>417.82999999999998</ele>
        <time>2018-09-16T09:14:49Z</time>
      </trkpt>
      <trkpt lat="49.152402961626649" lon="10.052066026255488">
        <ele>417.82999999999998</ele>
        <time>2018-09-16T09:14:50Z</time>
      </trkpt>
      <trkpt lat="49.152402961626649" lon="10.051894029602408">
        <ele>417.82999999999998</ele>
        <time>2018-09-16T09:14:51Z</time>
      </trkpt>
      <trkpt lat="49.152402961626649" lon="10.051694959402084">
        <ele>418.31</ele>
        <time>2018-09-16T09:14:52Z</time>
      </trkpt>
      <trkpt lat="49.152402961626649" lon="10.051476024091244">
        <ele>417.82999999999998</ele>
        <time>2018-09-16T09:14:53Z</time>
      </trkpt>
      <trkpt lat="49.152161981910467" lon="10.049834009259939">
        <ele>418.31</ele>
        <time>2018-09-16T09:14:59Z</time>
      </trkpt>
      <trkpt lat="49.151529986411333" lon="10.045986967161298">
        <ele>423.12</ele>
        <time>2018-09-16T09:15:10Z</time>
      </trkpt>
      <trkpt lat="49.150648964568973" lon="10.043215993791819">
        <ele>427.44</ele>
        <time>2018-09-16T09:15:18Z</time>
      </trkpt>
      <trkpt lat="49.149217000231147" lon="10.0387910194695">
        <ele>432.25</ele>
        <time>2018-09-16T09:15:31Z</time>
      </trkpt>
      <trkpt lat="49.149193027988076" lon="10.03849295899272">
        <ele>432.25</ele>
        <time>2018-09-16T09:15:32Z</time>
      </trkpt>
      <trkpt lat="49.14918003603816" lon="10.038238987326622">
        <ele>432.25</ele>
        <time>2018-09-16T09:15:33Z</time>
      </trkpt>
      <trkpt lat="49.149167966097593" lon="10.03802097402513">
        <ele>432.73000000000002</ele>
        <time>2018-09-16T09:15:34Z</time>
      </trkpt>
      <trkpt lat="49.149157991632819" lon="10.037835985422134">
        <ele>432.73000000000002</ele>
        <time>2018-09-16T09:15:35Z</time>
      </trkpt>
      <trkpt lat="49.149249019101262" lon="10.037490986287594">
        <ele>433.20999999999998</ele>
        <time>2018-09-16T09:15:37Z</time>
      </trkpt>
      <trkpt lat="49.149253964424133" lon="10.037457039579749">
        <ele>433.20999999999998</ele>
        <time>2018-09-16T09:15:38Z</time>
      </trkpt>
      <trkpt lat="49.149270979687572" lon="10.037341034039855">
        <ele>433.20999999999998</ele>
        <time>2018-09-16T09:15:39Z</time>
      </trkpt>
      <trkpt lat="49.149270979687572" lon="10.037276996299624">
        <ele>433.20999999999998</ele>
        <time>2018-09-16T09:15:40Z</time>
      </trkpt>
      <trkpt lat="49.149224041029811" lon="10.037240032106638">
        <ele>433.20999999999998</ele>
        <time>2018-09-16T09:15:41Z</time>
      </trkpt>
      <trkpt lat="49.149112980812788" lon="10.037251012399793">
        <ele>432.73000000000002</ele>
        <time>2018-09-16T09:15:43Z</time>
      </trkpt>
      <trkpt lat="49.148970991373062" lon="10.037284037098289">
        <ele>432.73000000000002</ele>
        <time>2018-09-16T09:15:44Z</time>
      </trkpt>
      <trkpt lat="49.148863032460213" lon="10.037239026278257">
        <ele>432.25</ele>
        <time>2018-09-16T09:15:45Z</time>
      </trkpt>
      <trkpt lat="49.147803978994489" lon="10.036720018833876">
        <ele>430.81</ele>
        <time>2018-09-16T09:15:52Z</time>
      </trkpt>
      <trkpt lat="49.146438986063004" lon="10.035460973158479">
        <ele>427.44</ele>
        <time>2018-09-16T09:16:00Z</time>
      </trkpt>
      <trkpt lat="49.145338023081422" lon="10.03449403680861">
        <ele>426.95999999999998</ele>
        <time>2018-09-16T09:16:08Z</time>
      </trkpt>
      <trkpt lat="49.144158018752933" lon="10.033835973590612">
        <ele>426.95999999999998</ele>
        <time>2018-09-16T09:16:17Z</time>
      </trkpt>
      <trkpt lat="49.142841976135969" lon="10.033758021891117">
        <ele>425.04000000000002</ele>
        <time>2018-09-16T09:16:27Z</time>
      </trkpt>
      <trkpt lat="49.141759034246206" lon="10.033917026594281">
        <ele>425.51999999999998</ele>
        <time>2018-09-16T09:16:36Z</time>
      </trkpt>
      <trkpt lat="49.141362989321351" lon="10.034000007435679">
        <ele>425.04000000000002</ele>
        <time>2018-09-16T09:16:41Z</time>
      </trkpt>
      <trkpt lat="49.141224017366767" lon="10.033887019380927">
        <ele>425.51999999999998</ele>
        <time>2018-09-16T09:16:42Z</time>
      </trkpt>
      <trkpt lat="49.141224017366767" lon="10.033887019380927">
        <ele>425.51999999999998</ele>
        <time>2018-09-16T09:16:43Z</time>
      </trkpt>
      <trkpt lat="49.141169032081962" lon="10.033887019380927">
        <ele>425.51999999999998</ele>
        <time>2018-09-16T09:16:44Z</time>
      </trkpt>
      <trkpt lat="49.141114968806505" lon="10.033942004665732">
        <ele>425.51999999999998</ele>
        <time>2018-09-16T09:16:45Z</time>
      </trkpt>
      <trkpt lat="49.141073981299996" lon="10.034020040184259">
        <ele>426</ele>
        <time>2018-09-16T09:16:46Z</time>
      </trkpt>
      <trkpt lat="49.141073981299996" lon="10.034101009368896">
        <ele>426</ele>
        <time>2018-09-16T09:16:47Z</time>
      </trkpt>
      <trkpt lat="49.141117986291647" lon="10.034157000482082">
        <ele>426</ele>
        <time>2018-09-16T09:16:48Z</time>
      </trkpt>
      <trkpt lat="49.141159979626536" lon="10.034207962453365">
        <ele>426</ele>
        <time>2018-09-16T09:16:49Z</time>
      </trkpt>
      <trkpt lat="49.141228040680289" lon="10.034334026277065">
        <ele>426</ele>
        <time>2018-09-16T09:16:50Z</time>
      </trkpt>
      <trkpt lat="49.141251007094979" lon="10.034447014331818">
        <ele>426</ele>
        <time>2018-09-16T09:16:51Z</time>
      </trkpt>
      <trkpt lat="49.141281014308333" lon="10.034581962972879">
        <ele>426</ele>
        <time>2018-09-16T09:16:52Z</time>
      </trkpt>
      <trkpt lat="49.141308004036546" lon="10.034739961847663">
        <ele>426</ele>
        <time>2018-09-16T09:16:53Z</time>
      </trkpt>
      <trkpt lat="49.141621990129352" lon="10.036695040762424">
        <ele>426</ele>
        <time>2018-09-16T09:17:03Z</time>
      </trkpt>
      <trkpt lat="49.141974030062556" lon="10.038962010294199">
        <ele>423.60000000000002</ele>
        <time>2018-09-16T09:17:14Z</time>
      </trkpt>
      <trkpt lat="49.142335960641503" lon="10.041296035051346">
        <ele>419.26999999999998</ele>
        <time>2018-09-16T09:17:27Z</time>
      </trkpt>
      <trkpt lat="49.14245598949492" lon="10.043407017365098">
        <ele>414.47000000000003</ele>
        <time>2018-09-16T09:17:39Z</time>
      </trkpt>
      <trkpt lat="49.142459006980062" lon="10.045942040160298">
        <ele>410.62</ele>
        <time>2018-09-16T09:17:53Z</time>
      </trkpt>
      <trkpt lat="49.142446015030146" lon="10.047677010297775">
        <ele>408.69999999999999</ele>
        <time>2018-09-16T09:18:05Z</time>
      </trkpt>
      <trkpt lat="49.142445009201765" lon="10.047907009720802">
        <ele>408.69999999999999</ele>
        <time>2018-09-16T09:18:08Z</time>
      </trkpt>
      <trkpt lat="49.142445009201765" lon="10.047969035804272">
        <ele>408.69999999999999</ele>
        <time>2018-09-16T09:18:09Z</time>
      </trkpt>
      <trkpt lat="49.142445009201765" lon="10.048018991947174">
        <ele>408.69999999999999</ele>
        <time>2018-09-16T09:18:10Z</time>
      </trkpt>
      <trkpt lat="49.142445009201765" lon="10.048048999160528">
        <ele>408.69999999999999</ele>
        <time>2018-09-16T09:18:11Z</time>
      </trkpt>
      <trkpt lat="49.142580041661859" lon="10.048054028302431">
        <ele>409.18000000000001</ele>
        <time>2018-09-16T09:18:16Z</time>
      </trkpt>
      <trkpt lat="49.142667967826128" lon="10.047936011105776">
        <ele>408.69999999999999</ele>
        <time>2018-09-16T09:18:27Z</time>
      </trkpt>
      <trkpt lat="49.14267199113965" lon="10.047938022762537">
        <ele>408.22000000000003</ele>
        <time>2018-09-16T09:19:08Z</time>
      </trkpt>
      <trkpt lat="49.142312994226813" lon="10.048069031909108">
        <ele>444.75</ele>
        <time>2018-09-16T09:52:32Z</time>
      </trkpt>
      <trkpt lat="49.142696969211102" lon="10.04792301915586">
        <ele>414.47000000000003</ele>
        <time>2018-09-16T09:53:15Z</time>
      </trkpt>
      <trkpt lat="49.142680959776044" lon="10.047951014712453">
        <ele>415.43000000000001</ele>
        <time>2018-09-16T09:54:04Z</time>
      </trkpt>
      <trkpt lat="49.142679031938314" lon="10.047932993620634">
        <ele>415.91000000000003</ele>
        <time>2018-09-16T09:54:56Z</time>
      </trkpt>
      <trkpt lat="49.142680959776044" lon="10.047930981963873">
        <ele>415.91000000000003</ele>
        <time>2018-09-16T09:55:48Z</time>
      </trkpt>
      <trkpt lat="49.142682971432805" lon="10.047932993620634">
        <ele>415.91000000000003</ele>
        <time>2018-09-16T09:56:43Z</time>
      </trkpt>
      <trkpt lat="49.142681965604424" lon="10.047929976135492">
        <ele>415.91000000000003</ele>
        <time>2018-09-16T09:57:29Z</time>
      </trkpt>
      <trkpt lat="49.142684983089566" lon="10.047937016934156">
        <ele>415.91000000000003</ele>
        <time>2018-09-16T09:58:25Z</time>
      </trkpt>
      <trkpt lat="49.142685988917947" lon="10.047936011105776">
        <ele>415.91000000000003</ele>
        <time>2018-09-16T09:59:13Z</time>
      </trkpt>
      <trkpt lat="49.142694035544991" lon="10.047896029427648">
        <ele>425.04000000000002</ele>
        <time>2018-09-16T10:02:23Z</time>
      </trkpt>
      <trkpt lat="49.142727982252836" lon="10.047937016934156">
        <ele>412.06</ele>
        <time>2018-09-16T10:03:09Z</time>
      </trkpt>
      <trkpt lat="49.142682971432805" lon="10.047952020540833">
        <ele>411.57999999999998</ele>
        <time>2018-09-16T10:03:55Z</time>
      </trkpt>
      <trkpt lat="49.142681965604424" lon="10.047950008884072">
        <ele>410.13999999999999</ele>
        <time>2018-09-16T10:04:45Z</time>
      </trkpt>
      <trkpt lat="49.142683977261186" lon="10.047950008884072">
        <ele>410.62</ele>
        <time>2018-09-16T10:05:30Z</time>
      </trkpt>
      <trkpt lat="49.142683977261186" lon="10.047950008884072">
        <ele>410.62</ele>
        <time>2018-09-16T10:05:42Z</time>
      </trkpt>
      <trkpt lat="49.142666039988399" lon="10.047659995034337">
        <ele>411.10000000000002</ele>
        <time>2018-09-16T10:05:47Z</time>
      </trkpt>
      <trkpt lat="49.14256302639842" lon="10.047537032514811">
        <ele>410.62</ele>
        <time>2018-09-16T10:05:51Z</time>
      </trkpt>
      <trkpt lat="49.142535030841827" lon="10.047524962574244">
        <ele>410.62</ele>
        <time>2018-09-16T10:05:54Z</time>
      </trkpt>
      <trkpt lat="49.142447020858526" lon="10.047549018636346">
        <ele>410.13999999999999</ele>
        <time>2018-09-16T10:05:56Z</time>
      </trkpt>
      <trkpt lat="49.142446015030146" lon="10.047602998092771">
        <ele>410.62</ele>
        <time>2018-09-16T10:05:57Z</time>
      </trkpt>
      <trkpt lat="49.142446015030146" lon="10.047696959227324">
        <ele>410.13999999999999</ele>
        <time>2018-09-16T10:05:58Z</time>
      </trkpt>
      <trkpt lat="49.142445009201765" lon="10.047815982252359">
        <ele>410.13999999999999</ele>
        <time>2018-09-16T10:05:59Z</time>
      </trkpt>
      <trkpt lat="49.142445009201765" lon="10.047947997227311">
        <ele>410.13999999999999</ele>
        <time>2018-09-16T10:06:00Z</time>
      </trkpt>
      <trkpt lat="49.142444003373384" lon="10.04809501580894">
        <ele>410.13999999999999</ele>
        <time>2018-09-16T10:06:01Z</time>
      </trkpt>
      <trkpt lat="49.142437968403101" lon="10.049675004556775">
        <ele>408.22000000000003</ele>
        <time>2018-09-16T10:06:09Z</time>
      </trkpt>
      <trkpt lat="49.142431011423469" lon="10.051669981330633">
        <ele>407.74000000000001</ele>
        <time>2018-09-16T10:06:19Z</time>
      </trkpt>
      <trkpt lat="49.142410978674889" lon="10.054286979138851">
        <ele>410.13999999999999</ele>
        <time>2018-09-16T10:06:34Z</time>
      </trkpt>
      <trkpt lat="49.142384994775057" lon="10.056554032489657">
        <ele>408.69999999999999</ele>
        <time>2018-09-16T10:06:47Z</time>
      </trkpt>
      <trkpt lat="49.142366973683238" lon="10.056901965290308">
        <ele>408.69999999999999</ele>
        <time>2018-09-16T10:06:49Z</time>
      </trkpt>
      <trkpt lat="49.14234702475369" lon="10.057073961943388">
        <ele>408.69999999999999</ele>
        <time>2018-09-16T10:06:50Z</time>
      </trkpt>
      <trkpt lat="49.142243005335331" lon="10.057751974090934">
        <ele>406.29000000000002</ele>
        <time>2018-09-16T10:06:54Z</time>
      </trkpt>
      <trkpt lat="49.142208974808455" lon="10.057905027642846">
        <ele>405.81</ele>
        <time>2018-09-16T10:06:55Z</time>
      </trkpt>
      <trkpt lat="49.142169998958707" lon="10.058028995990753">
        <ele>404.85000000000002</ele>
        <time>2018-09-16T10:06:56Z</time>
      </trkpt>
      <trkpt lat="49.14213596843183" lon="10.058137960731983">
        <ele>404.37</ele>
        <time>2018-09-16T10:06:57Z</time>
      </trkpt>
      <trkpt lat="49.142105961218476" lon="10.05823502317071">
        <ele>403.88999999999999</ele>
        <time>2018-09-16T10:06:58Z</time>
      </trkpt>
      <trkpt lat="49.142079977318645" lon="10.058315992355347">
        <ele>403.41000000000003</ele>
        <time>2018-09-16T10:06:59Z</time>
      </trkpt>
      <trkpt lat="49.142033960670233" lon="10.058464016765356">
        <ele>402.93000000000001</ele>
        <time>2018-09-16T10:07:01Z</time>
      </trkpt>
      <trkpt lat="49.14196397177875" lon="10.05868898704648">
        <ele>401.00999999999999</ele>
        <time>2018-09-16T10:07:07Z</time>
      </trkpt>
      <trkpt lat="49.14196397177875" lon="10.05868898704648">
        <ele>400.52999999999997</ele>
        <time>2018-09-16T10:07:21Z</time>
      </trkpt>
      <trkpt lat="49.14196397177875" lon="10.05868898704648">
        <ele>400.52999999999997</ele>
        <time>2018-09-16T10:08:20Z</time>
      </trkpt>
      <trkpt lat="49.14196397177875" lon="10.05868898704648">
        <ele>401.00999999999999</ele>
        <time>2018-09-16T10:09:16Z</time>
      </trkpt>
    </trkseg>
  </trk>

  <trk>
    <name>Track vom: 2018-09-16 12:11</name>
    <extensions>
      <gpxx:TrackExtension>
        <gpxx:DisplayColor>DarkGray</gpxx:DisplayColor>
      </gpxx:TrackExtension>
    </extensions>
    <trkseg>
      <trkpt lat="49.14196397177875" lon="10.05868898704648">
        <ele>401.49000000000001</ele>
        <time>2018-09-16T10:11:18Z</time>
      </trkpt>
      <trkpt lat="49.14196397177875" lon="10.05868898704648">
        <ele>401.97000000000003</ele>
        <time>2018-09-16T10:12:03Z</time>
      </trkpt>
      <trkpt lat="49.141937987878919" lon="10.058770040050149">
        <ele>402.44999999999999</ele>
        <time>2018-09-16T10:12:04Z</time>
      </trkpt>
      <trkpt lat="49.14196103811264" lon="10.058932984247804">
        <ele>402.44999999999999</ele>
        <time>2018-09-16T10:12:05Z</time>
      </trkpt>
      <trkpt lat="49.141945028677583" lon="10.058747995644808">
        <ele>402.93000000000001</ele>
        <time>2018-09-16T10:12:06Z</time>
      </trkpt>
      <trkpt lat="49.14196003228426" lon="10.058701978996396">
        <ele>402.93000000000001</ele>
        <time>2018-09-16T10:12:07Z</time>
      </trkpt>
      <trkpt lat="49.141978975385427" lon="10.058640036731958">
        <ele>402.93000000000001</ele>
        <time>2018-09-16T10:12:08Z</time>
      </trkpt>
      <trkpt lat="49.142004959285259" lon="10.058555966243148">
        <ele>403.41000000000003</ele>
        <time>2018-09-16T10:12:09Z</time>
      </trkpt>
      <trkpt lat="49.14228399284184" lon="10.05757000297308">
        <ele>406.76999999999998</ele>
        <time>2018-09-16T10:12:16Z</time>
      </trkpt>
      <trkpt lat="49.142387006431818" lon="10.056357979774475">
        <ele>409.18000000000001</ele>
        <time>2018-09-16T10:12:23Z</time>
      </trkpt>
      <trkpt lat="49.142389018088579" lon="10.056172991171479">
        <ele>409.18000000000001</ele>
        <time>2018-09-16T10:12:24Z</time>
      </trkpt>
      <trkpt lat="49.142422964796424" lon="10.053192973136902">
        <ele>411.57999999999998</ele>
        <time>2018-09-16T10:12:40Z</time>
      </trkpt>
      <trkpt lat="49.14243402890861" lon="10.050647975876927">
        <ele>411.10000000000002</ele>
        <time>2018-09-16T10:12:53Z</time>
      </trkpt>
      <trkpt lat="49.142440985888243" lon="10.04906203597784">
        <ele>411.10000000000002</ele>
        <time>2018-09-16T10:13:02Z</time>
      </trkpt>
      <trkpt lat="49.142454983666539" lon="10.046437997370958">
        <ele>415.91000000000003</ele>
        <time>2018-09-16T10:13:17Z</time>
      </trkpt>
      <trkpt lat="49.14245598949492" lon="10.043478012084961">
        <ele>416.87</ele>
        <time>2018-09-16T10:13:34Z</time>
      </trkpt>
      <trkpt lat="49.142330009490252" lon="10.041239960119128">
        <ele>417.35000000000002</ele>
        <time>2018-09-16T10:13:47Z</time>
      </trkpt>
      <trkpt lat="49.142310982570052" lon="10.041072992607951">
        <ele>417.35000000000002</ele>
        <time>2018-09-16T10:13:48Z</time>
      </trkpt>
      <trkpt lat="49.142231019213796" lon="10.040573012083769">
        <ele>418.31</ele>
        <time>2018-09-16T10:13:51Z</time>
      </trkpt>
      <trkpt lat="49.142205035313964" lon="10.040409984067082">
        <ele>417.82999999999998</ele>
        <time>2018-09-16T10:13:52Z</time>
      </trkpt>
      <trkpt lat="49.141806978732347" lon="10.037883007898927">
        <ele>423.12</ele>
        <time>2018-09-16T10:14:07Z</time>
      </trkpt>
      <trkpt lat="49.14138101041317" lon="10.035199038684368">
        <ele>426.48000000000002</ele>
        <time>2018-09-16T10:14:23Z</time>
      </trkpt>
      <trkpt lat="49.14123298600316" lon="10.034359004348516">
        <ele>427.44</ele>
        <time>2018-09-16T10:14:30Z</time>
      </trkpt>
      <trkpt lat="49.141217982396483" lon="10.034285997971892">
        <ele>427.92000000000002</ele>
        <time>2018-09-16T10:14:31Z</time>
      </trkpt>
      <trkpt lat="49.141310015693307" lon="10.034101009368896">
        <ele>427.92000000000002</ele>
        <time>2018-09-16T10:14:32Z</time>
      </trkpt>
      <trkpt lat="49.141310015693307" lon="10.034063961356878">
        <ele>428.39999999999998</ele>
        <time>2018-09-16T10:14:33Z</time>
      </trkpt>
      <trkpt lat="49.141310015693307" lon="10.034015011042356">
        <ele>428.39999999999998</ele>
        <time>2018-09-16T10:14:34Z</time>
      </trkpt>
      <trkpt lat="49.141245977953076" lon="10.033919038251042">
        <ele>428.39999999999998</ele>
        <time>2018-09-16T10:14:35Z</time>
      </trkpt>
      <trkpt lat="49.141211025416851" lon="10.033887019380927">
        <ele>428.88999999999999</ele>
        <time>2018-09-16T10:14:36Z</time>
      </trkpt>
      <trkpt lat="49.141159979626536" lon="10.033887019380927">
        <ele>428.88999999999999</ele>
        <time>2018-09-16T10:14:37Z</time>
      </trkpt>
      <trkpt lat="49.141121003776789" lon="10.033934041857719">
        <ele>428.39999999999998</ele>
        <time>2018-09-16T10:14:38Z</time>
      </trkpt>
      <trkpt lat="49.141073981299996" lon="10.033993972465396">
        <ele>428.39999999999998</ele>
        <time>2018-09-16T10:14:39Z</time>
      </trkpt>
      <trkpt lat="49.14099502377212" lon="10.034123975783587">
        <ele>427.92000000000002</ele>
        <time>2018-09-16T10:14:40Z</time>
      </trkpt>
      <trkpt lat="49.1409080196172" lon="10.034149959683418">
        <ele>428.39999999999998</ele>
        <time>2018-09-16T10:14:41Z</time>
      </trkpt>
      <trkpt lat="49.140802994370461" lon="10.034188013523817">
        <ele>428.39999999999998</ele>
        <time>2018-09-16T10:14:42Z</time>
      </trkpt>
      <trkpt lat="49.139870004728436" lon="10.034518009051681">
        <ele>426.48000000000002</ele>
        <time>2018-09-16T10:14:51Z</time>
      </trkpt>
      <trkpt lat="49.139036005362868" lon="10.034938026219606">
        <ele>424.07999999999998</ele>
        <time>2018-09-16T10:15:03Z</time>
      </trkpt>
      <trkpt lat="49.138626968488097" lon="10.035148998722434">
        <ele>423.60000000000002</ele>
        <time>2018-09-16T10:15:12Z</time>
      </trkpt>
      <trkpt lat="49.137767991051078" lon="10.035344967618585">
        <ele>425.04000000000002</ele>
        <time>2018-09-16T10:15:21Z</time>
      </trkpt>
      <trkpt lat="49.136307025328279" lon="10.035346979275346">
        <ele>428.39999999999998</ele>
        <time>2018-09-16T10:15:33Z</time>
      </trkpt>
      <trkpt lat="49.135403037071228" lon="10.035341028124094">
        <ele>428.88999999999999</ele>
        <time>2018-09-16T10:15:43Z</time>
      </trkpt>
      <trkpt lat="49.134771963581443" lon="10.035309009253979">
        <ele>430.32999999999998</ele>
        <time>2018-09-16T10:15:53Z</time>
      </trkpt>
      <trkpt lat="49.134726030752063" lon="10.035305991768837">
        <ele>430.32999999999998</ele>
        <time>2018-09-16T10:15:54Z</time>
      </trkpt>
      <trkpt lat="49.134636009112" lon="10.035130977630615">
        <ele>430.32999999999998</ele>
        <time>2018-09-16T10:15:55Z</time>
      </trkpt>
      <trkpt lat="49.134612958878279" lon="10.035108011215925">
        <ele>430.32999999999998</ele>
        <time>2018-09-16T10:15:56Z</time>
      </trkpt>
      <trkpt lat="49.134497959166765" lon="10.035003991797566">
        <ele>430.32999999999998</ele>
        <time>2018-09-16T10:15:57Z</time>
      </trkpt>
      <trkpt lat="49.134409027174115" lon="10.035022012889385">
        <ele>430.81</ele>
        <time>2018-09-16T10:15:58Z</time>
      </trkpt>
      <trkpt lat="49.134293021634221" lon="10.035238014534116">
        <ele>430.81</ele>
        <time>2018-09-16T10:15:59Z</time>
      </trkpt>
      <trkpt lat="49.134198976680636" lon="10.035211024805903">
        <ele>430.81</ele>
        <time>2018-09-16T10:16:00Z</time>
      </trkpt>
      <trkpt lat="49.134077019989491" lon="10.035176994279027">
        <ele>430.81</ele>
        <time>2018-09-16T10:16:01Z</time>
      </trkpt>
      <trkpt lat="49.133950034156442" lon="10.035141035914421">
        <ele>431.29000000000002</ele>
        <time>2018-09-16T10:16:02Z</time>
      </trkpt>
      <trkpt lat="49.132593004032969" lon="10.034753037616611">
        <ele>436.57999999999998</ele>
        <time>2018-09-16T10:16:11Z</time>
      </trkpt>
      <trkpt lat="49.13087303750217" lon="10.033867992460728">
        <ele>434.17000000000002</ele>
        <time>2018-09-16T10:16:23Z</time>
      </trkpt>
      <trkpt lat="49.129783976823092" lon="10.033155027776957">
        <ele>428.88999999999999</ele>
        <time>2018-09-16T10:16:33Z</time>
      </trkpt>
      <trkpt lat="49.129704013466835" lon="10.03309803083539">
        <ele>428.39999999999998</ele>
        <time>2018-09-16T10:16:34Z</time>
      </trkpt>
      <trkpt lat="49.129608040675521" lon="10.032830983400345">
        <ele>427.44</ele>
        <time>2018-09-16T10:16:36Z</time>
      </trkpt>
      <trkpt lat="49.12952003069222" lon="10.032770968973637">
        <ele>426.95999999999998</ele>
        <time>2018-09-16T10:16:37Z</time>
      </trkpt>
      <trkpt lat="49.129283996298909" lon="10.032781027257442">
        <ele>426.48000000000002</ele>
        <time>2018-09-16T10:16:39Z</time>
      </trkpt>
      <trkpt lat="49.129165979102254" lon="10.032682036980987">
        <ele>426</ele>
        <time>2018-09-16T10:16:40Z</time>
      </trkpt>
      <trkpt lat="49.129036981612444" lon="10.032572988420725">
        <ele>425.51999999999998</ele>
        <time>2018-09-16T10:16:41Z</time>
      </trkpt>
      <trkpt lat="49.127859994769096" lon="10.031587025150657">
        <ele>424.07999999999998</ele>
        <time>2018-09-16T10:16:50Z</time>
      </trkpt>
      <trkpt lat="49.126550992950797" lon="10.030587986111641">
        <ele>423.60000000000002</ele>
        <time>2018-09-16T10:17:01Z</time>
      </trkpt>
      <trkpt lat="49.126398023217916" lon="10.030515985563397">
        <ele>423.60000000000002</ele>
        <time>2018-09-16T10:17:02Z</time>
      </trkpt>
      <trkpt lat="49.126233989372849" lon="10.030455971136689">
        <ele>423.60000000000002</ele>
        <time>2018-09-16T10:17:03Z</time>
      </trkpt>
      <trkpt lat="49.126058975234628" lon="10.030411966145039">
        <ele>423.60000000000002</ele>
        <time>2018-09-16T10:17:04Z</time>
      </trkpt>
      <trkpt lat="49.125874992460012" lon="10.030422024428844">
        <ele>423.60000000000002</ele>
        <time>2018-09-16T10:17:05Z</time>
      </trkpt>
      <trkpt lat="49.125684974715114" lon="10.030450019985437">
        <ele>423.60000000000002</ele>
        <time>2018-09-16T10:17:06Z</time>
      </trkpt>
      <trkpt lat="49.125497974455357" lon="10.030522020533681">
        <ele>423.60000000000002</ele>
        <time>2018-09-16T10:17:07Z</time>
      </trkpt>
      <trkpt lat="49.125306028872728" lon="10.030597038567066">
        <ele>423.12</ele>
        <time>2018-09-16T10:17:08Z</time>
      </trkpt>
      <trkpt lat="49.125109976157546" lon="10.03067197278142">
        <ele>423.12</ele>
        <time>2018-09-16T10:17:09Z</time>
      </trkpt>
      <trkpt lat="49.12406500428915" lon="10.030797030776739">
        <ele>424.07999999999998</ele>
        <time>2018-09-16T10:17:14Z</time>
      </trkpt>
      <trkpt lat="49.123856965452433" lon="10.030722012743354">
        <ele>424.56</ele>
        <time>2018-09-16T10:17:15Z</time>
      </trkpt>
      <trkpt lat="49.123645992949605" lon="10.030645988881588">
        <ele>425.51999999999998</ele>
        <time>2018-09-16T10:17:16Z</time>
      </trkpt>
      <trkpt lat="49.122816016897559" lon="10.030364021658897">
        <ele>427.44</ele>
        <time>2018-09-16T10:17:20Z</time>
      </trkpt>
      <trkpt lat="49.1226049605757" lon="10.030350023880601">
        <ele>427.44</ele>
        <time>2018-09-16T10:17:21Z</time>
      </trkpt>
      <trkpt lat="49.122397005558014" lon="10.030387993901968">
        <ele>427.44</ele>
        <time>2018-09-16T10:17:22Z</time>
      </trkpt>
      <trkpt lat="49.122191984206438" lon="10.030450019985437">
        <ele>426.95999999999998</ele>
        <time>2018-09-16T10:17:23Z</time>
      </trkpt>
      <trkpt lat="49.121999032795429" lon="10.030526965856552">
        <ele>426.48000000000002</ele>
        <time>2018-09-16T10:17:24Z</time>
      </trkpt>
      <trkpt lat="49.121824018657207" lon="10.030653029680252">
        <ele>426</ele>
        <time>2018-09-16T10:17:25Z</time>
      </trkpt>
      <trkpt lat="49.121653027832508" lon="10.030776998028159">
        <ele>425.51999999999998</ele>
        <time>2018-09-16T10:17:26Z</time>
      </trkpt>
      <trkpt lat="49.121479019522667" lon="10.030902978032827">
        <ele>425.04000000000002</ele>
        <time>2018-09-16T10:17:27Z</time>
      </trkpt>
      <trkpt lat="49.120317958295345" lon="10.03144302405417">
        <ele>423.60000000000002</ele>
        <time>2018-09-16T10:17:33Z</time>
      </trkpt>
      <trkpt lat="49.11918799392879" lon="10.031644022092223">
        <ele>424.07999999999998</ele>
        <time>2018-09-16T10:17:40Z</time>
      </trkpt>
      <trkpt lat="49.11841400898993" lon="10.031829010695219">
        <ele>423.60000000000002</ele>
        <time>2018-09-16T10:17:46Z</time>
      </trkpt>
      <trkpt lat="49.118296997621655" lon="10.031877039000392">
        <ele>423.60000000000002</ele>
        <time>2018-09-16T10:17:47Z</time>
      </trkpt>
      <trkpt lat="49.118188032880425" lon="10.031945016235113">
        <ele>423.60000000000002</ele>
        <time>2018-09-16T10:17:48Z</time>
      </trkpt>
      <trkpt lat="49.118080995976925" lon="10.032021962106228">
        <ele>423.12</ele>
        <time>2018-09-16T10:17:49Z</time>
      </trkpt>
      <trkpt lat="49.11796398460865" lon="10.032106032595038">
        <ele>423.12</ele>
        <time>2018-09-16T10:17:50Z</time>
      </trkpt>
      <trkpt lat="49.117874968796968" lon="10.03219697624445">
        <ele>422.63999999999999</ele>
        <time>2018-09-16T10:17:51Z</time>
      </trkpt>
      <trkpt lat="49.11753399297595" lon="10.032553961500525">
        <ele>422.16000000000003</ele>
        <time>2018-09-16T10:17:57Z</time>
      </trkpt>
      <trkpt lat="49.117469033226371" lon="10.032535018399358">
        <ele>421.68000000000001</ele>
        <time>2018-09-16T10:17:58Z</time>
      </trkpt>
      <trkpt lat="49.117450006306171" lon="10.032480033114552">
        <ele>421.68000000000001</ele>
        <time>2018-09-16T10:17:59Z</time>
      </trkpt>
      <trkpt lat="49.117423016577959" lon="10.032403003424406">
        <ele>421.68000000000001</ele>
        <time>2018-09-16T10:18:00Z</time>
      </trkpt>
      <trkpt lat="49.117390997707844" lon="10.032311975955963">
        <ele>421.68000000000001</ele>
        <time>2018-09-16T10:18:01Z</time>
      </trkpt>
      <trkpt lat="49.117357973009348" lon="10.032216003164649">
        <ele>421.68000000000001</ele>
        <time>2018-09-16T10:18:02Z</time>
      </trkpt>
      <trkpt lat="49.1173189971596" lon="10.032106032595038">
        <ele>421.68000000000001</ele>
        <time>2018-09-16T10:18:03Z</time>
      </trkpt>
      <trkpt lat="49.117021020501852" lon="10.031255017966032">
        <ele>419.75</ele>
        <time>2018-09-16T10:18:10Z</time>
      </trkpt>
      <trkpt lat="49.116991013288498" lon="10.031169019639492">
        <ele>419.26999999999998</ele>
        <time>2018-09-16T10:18:11Z</time>
      </trkpt>
      <trkpt lat="49.116962011903524" lon="10.031086038798094">
        <ele>418.79000000000002</ele>
        <time>2018-09-16T10:18:12Z</time>
      </trkpt>
      <trkpt lat="49.116938961669803" lon="10.031019989401102">
        <ele>417.82999999999998</ele>
        <time>2018-09-16T10:18:13Z</time>
      </trkpt>
      <trkpt lat="49.116923036053777" lon="10.03097397275269">
        <ele>417.35000000000002</ele>
        <time>2018-09-16T10:18:14Z</time>
      </trkpt>
      <trkpt lat="49.11691096611321" lon="10.030940026044846">
        <ele>416.87</ele>
        <time>2018-09-16T10:18:15Z</time>
      </trkpt>
      <trkpt lat="49.116898979991674" lon="10.030905995517969">
        <ele>416.38999999999999</ele>
        <time>2018-09-16T10:18:16Z</time>
      </trkpt>
      <trkpt lat="49.116863021627069" lon="10.030885962769389">
        <ele>415.91000000000003</ele>
        <time>2018-09-16T10:18:17Z</time>
      </trkpt>
      <trkpt lat="49.116819016635418" lon="10.030893003568053">
        <ele>415.43000000000001</ele>
        <time>2018-09-16T10:18:18Z</time>
      </trkpt>
      <trkpt lat="49.116771994158626" lon="10.030899038538337">
        <ele>414.94999999999999</ele>
        <time>2018-09-16T10:18:19Z</time>
      </trkpt>
      <trkpt lat="49.116727989166975" lon="10.030905995517969">
        <ele>414.47000000000003</ele>
        <time>2018-09-16T10:18:20Z</time>
      </trkpt>
      <trkpt lat="49.116692030802369" lon="10.030911024659872">
        <ele>413.98000000000002</ele>
        <time>2018-09-16T10:18:21Z</time>
      </trkpt>
      <trkpt lat="49.11658801138401" lon="10.030832989141345">
        <ele>413.5</ele>
        <time>2018-09-16T10:18:22Z</time>
      </trkpt>
      <trkpt lat="49.116585999727249" lon="10.03075797110796">
        <ele>413.01999999999998</ele>
        <time>2018-09-16T10:18:23Z</time>
      </trkpt>
      <trkpt lat="49.116583988070488" lon="10.030665015801787">
        <ele>412.54000000000002</ele>
        <time>2018-09-16T10:18:24Z</time>
      </trkpt>
      <trkpt lat="49.116574013605714" lon="10.03030601888895">
        <ele>412.54000000000002</ele>
        <time>2018-09-16T10:18:27Z</time>
      </trkpt>
      <trkpt lat="49.116570996120572" lon="10.030183978378773">
        <ele>412.54000000000002</ele>
        <time>2018-09-16T10:18:28Z</time>
      </trkpt>
      <trkpt lat="49.116624975576997" lon="10.030038971453905">
        <ele>413.01999999999998</ele>
        <time>2018-09-16T10:18:29Z</time>
      </trkpt>
      <trkpt lat="49.116697981953621" lon="10.029947021976113">
        <ele>413.01999999999998</ele>
        <time>2018-09-16T10:18:30Z</time>
      </trkpt>
      <trkpt lat="49.116778029128909" lon="10.029845014214516">
        <ele>413.5</ele>
        <time>2018-09-16T10:18:31Z</time>
      </trkpt>
      <trkpt lat="49.116861009970307" lon="10.029739988967776">
        <ele>413.98000000000002</ele>
        <time>2018-09-16T10:18:32Z</time>
      </trkpt>
      <trkpt lat="49.1174709610641" lon="10.028969021514058">
        <ele>416.87</ele>
        <time>2018-09-16T10:18:40Z</time>
      </trkpt>
      <trkpt lat="49.117620997130871" lon="10.028779003769159">
        <ele>416.87</ele>
        <time>2018-09-16T10:18:42Z</time>
      </trkpt>
      <trkpt lat="49.117690986022353" lon="10.028728041797876">
        <ele>417.35000000000002</ele>
        <time>2018-09-16T10:18:43Z</time>
      </trkpt>
      <trkpt lat="49.11774798296392" lon="10.028686970472336">
        <ele>417.35000000000002</ele>
        <time>2018-09-16T10:18:44Z</time>
      </trkpt>
      <trkpt lat="49.117986029013991" lon="10.028546992689371">
        <ele>418.79000000000002</ele>
        <time>2018-09-16T10:18:48Z</time>
      </trkpt>
      <trkpt lat="49.118572007864714" lon="10.028270976617932">
        <ele>421.68000000000001</ele>
        <time>2018-09-16T10:18:55Z</time>
      </trkpt>
      <trkpt lat="49.118849029764533" lon="10.028140973299742">
        <ele>425.51999999999998</ele>
        <time>2018-09-16T10:19:01Z</time>
      </trkpt>
      <trkpt lat="49.118876019492745" lon="10.028127981349826">
        <ele>426.95999999999998</ele>
        <time>2018-09-16T10:19:04Z</time>
      </trkpt>
      <trkpt lat="49.118855986744165" lon="10.028138039633632">
        <ele>427.44</ele>
        <time>2018-09-16T10:19:16Z</time>
      </trkpt>
      <trkpt lat="49.118828997015953" lon="10.028150025755167">
        <ele>426.48000000000002</ele>
        <time>2018-09-16T10:19:17Z</time>
      </trkpt>
      <trkpt lat="49.118785997852683" lon="10.028169974684715">
        <ele>426</ele>
        <time>2018-09-16T10:19:18Z</time>
      </trkpt>
      <trkpt lat="49.118291968479753" lon="10.028402991592884">
        <ele>424.07999999999998</ele>
        <time>2018-09-16T10:19:23Z</time>
      </trkpt>
      <trkpt lat="49.117720993235707" lon="10.028707003220916">
        <ele>422.16000000000003</ele>
        <time>2018-09-16T10:19:27Z</time>
      </trkpt>
      <trkpt lat="49.117590989917517" lon="10.028816973790526">
        <ele>421.68000000000001</ele>
        <time>2018-09-16T10:19:28Z</time>
      </trkpt>
      <trkpt lat="49.117475990206003" lon="10.028962986543775">
        <ele>421.19</ele>
        <time>2018-09-16T10:19:29Z</time>
      </trkpt>
      <trkpt lat="49.116752967238426" lon="10.029878038913012">
        <ele>419.75</ele>
        <time>2018-09-16T10:19:37Z</time>
      </trkpt>
      <trkpt lat="49.116661017760634" lon="10.029993038624525">
        <ele>419.26999999999998</ele>
        <time>2018-09-16T10:19:39Z</time>
      </trkpt>
      <trkpt lat="49.116636039689183" lon="10.030024973675609">
        <ele>418.79000000000002</ele>
        <time>2018-09-16T10:19:40Z</time>
      </trkpt>
      <trkpt lat="49.116621036082506" lon="10.030045006424189">
        <ele>418.79000000000002</ele>
        <time>2018-09-16T10:19:41Z</time>
      </trkpt>
      <trkpt lat="49.116608966141939" lon="10.030060010030866">
        <ele>418.31</ele>
        <time>2018-09-16T10:19:42Z</time>
      </trkpt>
      <trkpt lat="49.116556998342276" lon="10.030084988102317">
        <ele>417.82999999999998</ele>
        <time>2018-09-16T10:19:43Z</time>
      </trkpt>
      <trkpt lat="49.116549035534263" lon="10.030065961182117">
        <ele>417.82999999999998</ele>
        <time>2018-09-16T10:19:44Z</time>
      </trkpt>
      <trkpt lat="49.116537971422076" lon="10.030045006424189">
        <ele>417.35000000000002</ele>
        <time>2018-09-16T10:19:45Z</time>
      </trkpt>
      <trkpt lat="49.11652497947216" lon="10.030017010867596">
        <ele>417.35000000000002</ele>
        <time>2018-09-16T10:19:46Z</time>
      </trkpt>
      <trkpt lat="49.116507964208722" lon="10.029979962855577">
        <ele>417.35000000000002</ele>
        <time>2018-09-16T10:19:47Z</time>
      </trkpt>
      <trkpt lat="49.116487009450793" lon="10.029935035854578">
        <ele>416.87</ele>
        <time>2018-09-16T10:19:48Z</time>
      </trkpt>
      <trkpt lat="49.116460019722581" lon="10.02987896092236">
        <ele>416.87</ele>
        <time>2018-09-16T10:19:49Z</time>
      </trkpt>
      <trkpt lat="49.116429006680846" lon="10.0298129953444">
        <ele>416.87</ele>
        <time>2018-09-16T10:19:50Z</time>
      </trkpt>
      <trkpt lat="49.116306966170669" lon="10.029551982879639">
        <ele>416.38999999999999</ele>
        <time>2018-09-16T10:19:53Z</time>
      </trkpt>
      <trkpt lat="49.11598501726985" lon="10.028718989342451">
        <ele>418.31</ele>
        <time>2018-09-16T10:20:00Z</time>
      </trkpt>
      <trkpt lat="49.115949980914593" lon="10.028602983802557">
        <ele>418.31</ele>
        <time>2018-09-16T10:20:01Z</time>
      </trkpt>
      <trkpt lat="49.115921985358" lon="10.028483960777521">
        <ele>418.31</ele>
        <time>2018-09-16T10:20:02Z</time>
      </trkpt>
      <trkpt lat="49.115831963717937" lon="10.027588019147515">
        <ele>419.26999999999998</ele>
        <time>2018-09-16T10:20:11Z</time>
      </trkpt>
      <trkpt lat="49.115818971768022" lon="10.027461033314466">
        <ele>419.26999999999998</ele>
        <time>2018-09-16T10:20:13Z</time>
      </trkpt>
      <trkpt lat="49.11581302061677" lon="10.027402024716139">
        <ele>419.26999999999998</ele>
        <time>2018-09-16T10:20:14Z</time>
      </trkpt>
      <trkpt lat="49.115807991474867" lon="10.027348967269063">
        <ele>419.26999999999998</ele>
        <time>2018-09-16T10:20:15Z</time>
      </trkpt>
      <trkpt lat="49.1157700214535" lon="10.027241008356214">
        <ele>419.26999999999998</ele>
        <time>2018-09-16T10:20:16Z</time>
      </trkpt>
      <trkpt lat="49.115743031725287" lon="10.027246959507465">
        <ele>419.26999999999998</ele>
        <time>2018-09-16T10:20:17Z</time>
      </trkpt>
      <trkpt lat="49.115715036168694" lon="10.027252994477749">
        <ele>419.26999999999998</ele>
        <time>2018-09-16T10:20:18Z</time>
      </trkpt>
      <trkpt lat="49.115681005641818" lon="10.027260035276413">
        <ele>419.26999999999998</ele>
        <time>2018-09-16T10:20:19Z</time>
      </trkpt>
      <trkpt lat="49.115635994821787" lon="10.027270009741187">
        <ele>419.26999999999998</ele>
        <time>2018-09-16T10:20:20Z</time>
      </trkpt>
      <trkpt lat="49.115603975951672" lon="10.0272779725492">
        <ele>419.26999999999998</ele>
        <time>2018-09-16T10:20:21Z</time>
      </trkpt>
      <trkpt lat="49.115529041737318" lon="10.027351984754205">
        <ele>419.26999999999998</ele>
        <time>2018-09-16T10:20:22Z</time>
      </trkpt>
      <trkpt lat="49.115476990118623" lon="10.0274040363729">
        <ele>419.75</ele>
        <time>2018-09-16T10:20:23Z</time>
      </trkpt>
      <trkpt lat="49.115410018712282" lon="10.027471007779241">
        <ele>419.75</ele>
        <time>2018-09-16T10:20:24Z</time>
      </trkpt>
      <trkpt lat="49.11538403481245" lon="10.027546025812626">
        <ele>419.26999999999998</ele>
        <time>2018-09-16T10:20:25Z</time>
      </trkpt>
      <trkpt lat="49.115348998457193" lon="10.027645016089082">
        <ele>419.26999999999998</ele>
        <time>2018-09-16T10:20:26Z</time>
      </trkpt>
      <trkpt lat="49.115313040092587" lon="10.027750041335821">
        <ele>419.26999999999998</ele>
        <time>2018-09-16T10:20:27Z</time>
      </trkpt>
      <trkpt lat="49.115228969603777" lon="10.028052963316441">
        <ele>419.26999999999998</ele>
        <time>2018-09-16T10:20:30Z</time>
      </trkpt>
      <trkpt lat="49.11521103233099" lon="10.028138039633632">
        <ele>419.26999999999998</ele>
        <time>2018-09-16T10:20:31Z</time>
      </trkpt>
      <trkpt lat="49.115100977942348" lon="10.028546992689371">
        <ele>419.26999999999998</ele>
        <time>2018-09-16T10:20:40Z</time>
      </trkpt>
      <trkpt lat="49.115079017356038" lon="10.02856501378119">
        <ele>419.75</ele>
        <time>2018-09-16T10:20:41Z</time>
      </trkpt>
      <trkpt lat="49.11506300792098" lon="10.028579011559486">
        <ele>419.75</ele>
        <time>2018-09-16T10:20:52Z</time>
      </trkpt>
      <trkpt lat="49.11501900292933" lon="10.028613964095712">
        <ele>419.75</ele>
        <time>2018-09-16T10:21:08Z</time>
      </trkpt>
      <trkpt lat="49.114943984895945" lon="10.028675990179181">
        <ele>419.75</ele>
        <time>2018-09-16T10:21:10Z</time>
      </trkpt>
      <trkpt lat="49.114899979904294" lon="10.028712032362819">
        <ele>419.26999999999998</ele>
        <time>2018-09-16T10:21:11Z</time>
      </trkpt>
      <trkpt lat="49.114807024598122" lon="10.028788978233933">
        <ele>419.26999999999998</ele>
        <time>2018-09-16T10:21:17Z</time>
      </trkpt>
      <trkpt lat="49.114773999899626" lon="10.028814962133765">
        <ele>419.26999999999998</ele>
        <time>2018-09-16T10:21:18Z</time>
      </trkpt>
      <trkpt lat="49.114763019606471" lon="10.028825020417571">
        <ele>419.26999999999998</ele>
        <time>2018-09-16T10:21:19Z</time>
      </trkpt>
      <trkpt lat="49.114726977422833" lon="10.028678001835942">
        <ele>419.26999999999998</ele>
        <time>2018-09-16T10:21:21Z</time>
      </trkpt>
      <trkpt lat="49.114384995773435" lon="10.027868980541825">
        <ele>421.19</ele>
        <time>2018-09-16T10:21:31Z</time>
      </trkpt>
      <trkpt lat="49.114293968304992" lon="10.027758004143834">
        <ele>421.19</ele>
        <time>2018-09-16T10:21:35Z</time>
      </trkpt>
      <trkpt lat="49.113779990002513" lon="10.027738977223635">
        <ele>422.16000000000003</ele>
        <time>2018-09-16T10:21:44Z</time>
      </trkpt>
      <trkpt lat="49.113660966977477" lon="10.027725985273719">
        <ele>422.63999999999999</ele>
        <time>2018-09-16T10:21:49Z</time>
      </trkpt>
      <trkpt lat="49.113642023876309" lon="10.027716010808945">
        <ele>423.12</ele>
        <time>2018-09-16T10:22:06Z</time>
      </trkpt>
      <trkpt lat="49.113642023876309" lon="10.027716010808945">
        <ele>423.12</ele>
        <time>2018-09-16T10:22:18Z</time>
      </trkpt>
      <trkpt lat="49.113558037206531" lon="10.027722967788577">
        <ele>423.60000000000002</ele>
        <time>2018-09-16T10:22:29Z</time>
      </trkpt>
      <trkpt lat="49.113558037206531" lon="10.027722967788577">
        <ele>423.60000000000002</ele>
        <time>2018-09-16T10:22:55Z</time>
      </trkpt>
      <trkpt lat="49.113478995859623" lon="10.027663959190249">
        <ele>424.07999999999998</ele>
        <time>2018-09-16T10:22:57Z</time>
      </trkpt>
      <trkpt lat="49.113481007516384" lon="10.027785999700427">
        <ele>424.07999999999998</ele>
        <time>2018-09-16T10:22:58Z</time>
      </trkpt>
      <trkpt lat="49.113483019173145" lon="10.027848025783896">
        <ele>423.60000000000002</ele>
        <time>2018-09-16T10:22:59Z</time>
      </trkpt>
      <trkpt lat="49.113484025001526" lon="10.027926983311772">
        <ele>423.60000000000002</ele>
        <time>2018-09-16T10:23:00Z</time>
      </trkpt>
      <trkpt lat="49.113486036658287" lon="10.028023039922118">
        <ele>423.12</ele>
        <time>2018-09-16T10:23:01Z</time>
      </trkpt>
      <trkpt lat="49.113487964496017" lon="10.028124041855335">
        <ele>422.63999999999999</ele>
        <time>2018-09-16T10:23:02Z</time>
      </trkpt>
      <trkpt lat="49.1134939994663" lon="10.028431992977858">
        <ele>422.16000000000003</ele>
        <time>2018-09-16T10:23:06Z</time>
      </trkpt>
      <trkpt lat="49.113495005294681" lon="10.028486978262663">
        <ele>422.16000000000003</ele>
        <time>2018-09-16T10:23:07Z</time>
      </trkpt>
      <trkpt lat="49.113395009189844" lon="10.028621004894376">
        <ele>421.68000000000001</ele>
        <time>2018-09-16T10:23:09Z</time>
      </trkpt>
      <trkpt lat="49.113378999754786" lon="10.028597032651305">
        <ele>421.68000000000001</ele>
        <time>2018-09-16T10:23:10Z</time>
      </trkpt>
      <trkpt lat="49.113347986713052" lon="10.028550010174513">
        <ele>421.68000000000001</ele>
        <time>2018-09-16T10:23:11Z</time>
      </trkpt>
      <trkpt lat="49.113297024741769" lon="10.028473986312747">
        <ele>421.68000000000001</ele>
        <time>2018-09-16T10:23:12Z</time>
      </trkpt>
      <trkpt lat="49.113231981173158" lon="10.028377007693052">
        <ele>421.19</ele>
        <time>2018-09-16T10:23:13Z</time>
      </trkpt>
      <trkpt lat="49.112614989280701" lon="10.027450975030661">
        <ele>420.23000000000002</ele>
        <time>2018-09-16T10:23:19Z</time>
      </trkpt>
      <trkpt lat="49.11138704046607" lon="10.025630006566644">
        <ele>421.68000000000001</ele>
        <time>2018-09-16T10:23:27Z</time>
      </trkpt>
      <trkpt lat="49.109768997877836" lon="10.022860961034894">
        <ele>424.07999999999998</ele>
        <time>2018-09-16T10:23:37Z</time>
      </trkpt>
      <trkpt lat="49.10887598991394" lon="10.020001977682114">
        <ele>425.04000000000002</ele>
        <time>2018-09-16T10:23:45Z</time>
      </trkpt>
      <trkpt lat="49.107576040551066" lon="10.015286989510059">
        <ele>436.10000000000002</ele>
        <time>2018-09-16T10:23:58Z</time>
      </trkpt>
      <trkpt lat="49.106598040089011" lon="10.012133968994021">
        <ele>444.26999999999998</ele>
        <time>2018-09-16T10:24:07Z</time>
      </trkpt>
      <trkpt lat="49.106462001800537" lon="10.011831969022751">
        <ele>444.75</ele>
        <time>2018-09-16T10:24:08Z</time>
      </trkpt>
      <trkpt lat="49.106307020410895" lon="10.01157003454864">
        <ele>444.75</ele>
        <time>2018-09-16T10:24:09Z</time>
      </trkpt>
      <trkpt lat="49.106142986565828" lon="10.011308016255498">
        <ele>444.75</ele>
        <time>2018-09-16T10:24:10Z</time>
      </trkpt>
      <trkpt lat="49.105947017669678" lon="10.011092014610767">
        <ele>444.75</ele>
        <time>2018-09-16T10:24:11Z</time>
      </trkpt>
      <trkpt lat="49.105741996318102" lon="10.010879030451179">
        <ele>444.26999999999998</ele>
        <time>2018-09-16T10:24:12Z</time>
      </trkpt>
      <trkpt lat="49.105531023815274" lon="10.010663028806448">
        <ele>443.79000000000002</ele>
        <time>2018-09-16T10:24:13Z</time>
      </trkpt>
      <trkpt lat="49.105290966108441" lon="10.010504024103284">
        <ele>443.31</ele>
        <time>2018-09-16T10:24:14Z</time>
      </trkpt>
      <trkpt lat="49.105046968907118" lon="10.010339990258217">
        <ele>442.33999999999997</ele>
        <time>2018-09-16T10:24:15Z</time>
      </trkpt>
      <trkpt lat="49.104789979755878" lon="10.010209986940026">
        <ele>441.86000000000001</ele>
        <time>2018-09-16T10:24:16Z</time>
      </trkpt>
      <trkpt lat="49.103242009878159" lon="10.00950900837779">
        <ele>438.5</ele>
        <time>2018-09-16T10:24:23Z</time>
      </trkpt>
      <trkpt lat="49.101780960336328" lon="10.008463030681014">
        <ele>434.64999999999998</ele>
        <time>2018-09-16T10:24:31Z</time>
      </trkpt>
      <trkpt lat="49.100563991814852" lon="10.00727497972548">
        <ele>432.73000000000002</ele>
        <time>2018-09-16T10:24:36Z</time>
      </trkpt>
      <trkpt lat="49.099194975569844" lon="10.005894983187318">
        <ele>430.32999999999998</ele>
        <time>2018-09-16T10:24:42Z</time>
      </trkpt>
      <trkpt lat="49.098199037835002" lon="10.004814974963665">
        <ele>427.92000000000002</ele>
        <time>2018-09-16T10:24:48Z</time>
      </trkpt>
      <trkpt lat="49.097979012876749" lon="10.004529990255833">
        <ele>426.95999999999998</ele>
        <time>2018-09-16T10:24:51Z</time>
      </trkpt>
      <trkpt lat="49.097931990399957" lon="10.004466958343983">
        <ele>426.48000000000002</ele>
        <time>2018-09-16T10:24:52Z</time>
      </trkpt>
      <trkpt lat="49.097859989851713" lon="10.00447902828455">
        <ele>426.48000000000002</ele>
        <time>2018-09-16T10:24:53Z</time>
      </trkpt>
      <trkpt lat="49.09780902788043" lon="10.00454599969089">
        <ele>426.48000000000002</ele>
        <time>2018-09-16T10:24:54Z</time>
      </trkpt>
      <trkpt lat="49.097739038988948" lon="10.004637027159333">
        <ele>426</ele>
        <time>2018-09-16T10:24:55Z</time>
      </trkpt>
      <trkpt lat="49.097653040662408" lon="10.004751021042466">
        <ele>425.04000000000002</ele>
        <time>2018-09-16T10:24:56Z</time>
      </trkpt>
      <trkpt lat="49.097439972683787" lon="10.005029970780015">
        <ele>423.60000000000002</ele>
        <time>2018-09-16T10:24:58Z</time>
      </trkpt>
      <trkpt lat="49.097322961315513" lon="10.005183024331927">
        <ele>423.12</ele>
        <time>2018-09-16T10:24:59Z</time>
      </trkpt>
      <trkpt lat="49.097202010452747" lon="10.005331970751286">
        <ele>422.16000000000003</ele>
        <time>2018-09-16T10:25:00Z</time>
      </trkpt>
      <trkpt lat="49.097046023234725" lon="10.00540598295629">
        <ele>422.16000000000003</ele>
        <time>2018-09-16T10:25:01Z</time>
      </trkpt>
      <trkpt lat="49.096887018531561" lon="10.005482006818056">
        <ele>421.68000000000001</ele>
        <time>2018-09-16T10:25:02Z</time>
      </trkpt>
      <trkpt lat="49.09570399671793" lon="10.006215004250407">
        <ele>420.23000000000002</ele>
        <time>2018-09-16T10:25:09Z</time>
      </trkpt>
      <trkpt lat="49.094421984627843" lon="10.007565999403596">
        <ele>417.82999999999998</ele>
        <time>2018-09-16T10:25:17Z</time>
      </trkpt>
      <trkpt lat="49.094273960217834" lon="10.007760040462017">
        <ele>417.82999999999998</ele>
        <time>2018-09-16T10:25:18Z</time>
      </trkpt>
      <trkpt lat="49.094153009355068" lon="10.008006971329451">
        <ele>417.35000000000002</ele>
        <time>2018-09-16T10:25:19Z</time>
      </trkpt>
      <trkpt lat="49.094057036563754" lon="10.008277958258986">
        <ele>417.35000000000002</ele>
        <time>2018-09-16T10:25:20Z</time>
      </trkpt>
      <trkpt lat="49.093986041843891" lon="10.00856202095747">
        <ele>416.87</ele>
        <time>2018-09-16T10:25:21Z</time>
      </trkpt>
      <trkpt lat="49.093942036852241" lon="10.008864020928741">
        <ele>416.38999999999999</ele>
        <time>2018-09-16T10:25:22Z</time>
      </trkpt>
      <trkpt lat="49.093944970518351" lon="10.009172977879643">
        <ele>416.38999999999999</ele>
        <time>2018-09-16T10:25:23Z</time>
      </trkpt>
      <trkpt lat="49.09396399743855" lon="10.009469026699662">
        <ele>416.38999999999999</ele>
        <time>2018-09-16T10:25:24Z</time>
      </trkpt>
      <trkpt lat="49.093999033793807" lon="10.009773038327694">
        <ele>415.91000000000003</ele>
        <time>2018-09-16T10:25:25Z</time>
      </trkpt>
      <trkpt lat="49.094056030735373" lon="10.010072020813823">
        <ele>416.38999999999999</ele>
        <time>2018-09-16T10:25:26Z</time>
      </trkpt>
      <trkpt lat="49.094358030706644" lon="10.011906987056136">
        <ele>416.87</ele>
        <time>2018-09-16T10:25:32Z</time>
      </trkpt>
      <trkpt lat="49.094376973807812" lon="10.012229019775987">
        <ele>416.87</ele>
        <time>2018-09-16T10:25:33Z</time>
      </trkpt>
      <trkpt lat="49.094344032928348" lon="10.012549962848425">
        <ele>417.35000000000002</ele>
        <time>2018-09-16T10:25:34Z</time>
      </trkpt>
      <trkpt lat="49.093928961083293" lon="10.015483964234591">
        <ele>417.35000000000002</ele>
        <time>2018-09-16T10:25:43Z</time>
      </trkpt>
      <trkpt lat="49.093803986907005" lon="10.01814597286284">
        <ele>419.75</ele>
        <time>2018-09-16T10:25:51Z</time>
      </trkpt>
      <trkpt lat="49.093588991090655" lon="10.019661001861095">
        <ele>420.23000000000002</ele>
        <time>2018-09-16T10:25:56Z</time>
      </trkpt>
      <trkpt lat="49.093593014404178" lon="10.019969958811998">
        <ele>420.23000000000002</ele>
        <time>2018-09-16T10:25:57Z</time>
      </trkpt>
      <trkpt lat="49.09353400580585" lon="10.022495007142425">
        <ele>418.79000000000002</ele>
        <time>2018-09-16T10:26:05Z</time>
      </trkpt>
      <trkpt lat="49.093492012470961" lon="10.022770017385483">
        <ele>418.31</ele>
        <time>2018-09-16T10:26:06Z</time>
      </trkpt>
      <trkpt lat="49.093438033014536" lon="10.023018959909678">
        <ele>417.82999999999998</ele>
        <time>2018-09-16T10:26:07Z</time>
      </trkpt>
      <trkpt lat="49.093373995274305" lon="10.023263040930033">
        <ele>417.35000000000002</ele>
        <time>2018-09-16T10:26:08Z</time>
      </trkpt>
      <trkpt lat="49.093275004997849" lon="10.023462027311325">
        <ele>416.38999999999999</ele>
        <time>2018-09-16T10:26:09Z</time>
      </trkpt>
      <trkpt lat="49.093139972537756" lon="10.023613991215825">
        <ele>415.91000000000003</ele>
        <time>2018-09-16T10:26:10Z</time>
      </trkpt>
      <trkpt lat="49.093002006411552" lon="10.023762015625834">
        <ele>415.91000000000003</ele>
        <time>2018-09-16T10:26:11Z</time>
      </trkpt>
      <trkpt lat="49.092849958688021" lon="10.023875003680587">
        <ele>415.43000000000001</ele>
        <time>2018-09-16T10:26:12Z</time>
      </trkpt>
      <trkpt lat="49.092687014490366" lon="10.02394700422883">
        <ele>414.94999999999999</ele>
        <time>2018-09-16T10:26:13Z</time>
      </trkpt>
      <trkpt lat="49.092515017837286" lon="10.023992015048862">
        <ele>414.94999999999999</ele>
        <time>2018-09-16T10:26:14Z</time>
      </trkpt>
      <trkpt lat="49.092335980385542" lon="10.024037025868893">
        <ele>414.94999999999999</ele>
        <time>2018-09-16T10:26:15Z</time>
      </trkpt>
      <trkpt lat="49.092161972075701" lon="10.024013975635171">
        <ele>414.94999999999999</ele>
        <time>2018-09-16T10:26:16Z</time>
      </trkpt>
      <trkpt lat="49.09198796376586" lon="10.023991009220481">
        <ele>414.94999999999999</ele>
        <time>2018-09-16T10:26:17Z</time>
      </trkpt>
      <trkpt lat="49.09181403927505" lon="10.023957984521985">
        <ele>414.94999999999999</ele>
        <time>2018-09-16T10:26:18Z</time>
      </trkpt>
      <trkpt lat="49.0916439704597" lon="10.023886989802122">
        <ele>414.94999999999999</ele>
        <time>2018-09-16T10:26:19Z</time>
      </trkpt>
      <trkpt lat="49.091468034312129" lon="10.023811971768737">
        <ele>414.94999999999999</ele>
        <time>2018-09-16T10:26:20Z</time>
      </trkpt>
      <trkpt lat="49.091298971325159" lon="10.023670988157392">
        <ele>414.94999999999999</ele>
        <time>2018-09-16T10:26:21Z</time>
      </trkpt>
      <trkpt lat="49.09112798050046" lon="10.023513995110989">
        <ele>414.94999999999999</ele>
        <time>2018-09-16T10:26:22Z</time>
      </trkpt>
      <trkpt lat="49.090952966362238" lon="10.023354990407825">
        <ele>414.94999999999999</ele>
        <time>2018-09-16T10:26:23Z</time>
      </trkpt>
      <trkpt lat="49.090780969709158" lon="10.023196991533041">
        <ele>414.47000000000003</ele>
        <time>2018-09-16T10:26:24Z</time>
      </trkpt>
      <trkpt lat="49.090240001678467" lon="10.02263599075377">
        <ele>413.5</ele>
        <time>2018-09-16T10:26:29Z</time>
      </trkpt>
      <trkpt lat="49.090170012786984" lon="10.022586034610868">
        <ele>413.01999999999998</ele>
        <time>2018-09-16T10:26:31Z</time>
      </trkpt>
      <trkpt lat="49.09014000557363" lon="10.022564996033907">
        <ele>413.01999999999998</ele>
        <time>2018-09-16T10:26:32Z</time>
      </trkpt>
      <trkpt lat="49.090113015845418" lon="10.022544963285327">
        <ele>412.54000000000002</ele>
        <time>2018-09-16T10:26:33Z</time>
      </trkpt>
      <trkpt lat="49.090059958398342" lon="10.022578993812203">
        <ele>412.54000000000002</ele>
        <time>2018-09-16T10:26:34Z</time>
      </trkpt>
      <trkpt lat="49.090048978105187" lon="10.022658035159111">
        <ele>412.54000000000002</ele>
        <time>2018-09-16T10:26:35Z</time>
      </trkpt>
      <trkpt lat="49.09003397449851" lon="10.022762976586819">
        <ele>412.54000000000002</ele>
        <time>2018-09-16T10:26:36Z</time>
      </trkpt>
      <trkpt lat="49.090016959235072" lon="10.022885017096996">
        <ele>413.01999999999998</ele>
        <time>2018-09-16T10:26:37Z</time>
      </trkpt>
      <trkpt lat="49.089997010305524" lon="10.023029018193483">
        <ele>413.01999999999998</ele>
        <time>2018-09-16T10:26:38Z</time>
      </trkpt>
      <trkpt lat="49.089922998100519" lon="10.023805014789104">
        <ele>414.47000000000003</ele>
        <time>2018-09-16T10:26:42Z</time>
      </trkpt>
      <trkpt lat="49.089951999485493" lon="10.02609402872622">
        <ele>416.87</ele>
        <time>2018-09-16T10:26:51Z</time>
      </trkpt>
      <trkpt lat="49.08975200727582" lon="10.028229989111423">
        <ele>417.82999999999998</ele>
        <time>2018-09-16T10:26:58Z</time>
      </trkpt>
      <trkpt lat="49.089554026722908" lon="10.030626961961389">
        <ele>420.23000000000002</ele>
        <time>2018-09-16T10:27:05Z</time>
      </trkpt>
      <trkpt lat="49.089677995070815" lon="10.032034032046795">
        <ele>421.68000000000001</ele>
        <time>2018-09-16T10:27:09Z</time>
      </trkpt>
      <trkpt lat="49.090370004996657" lon="10.034429999068379">
        <ele>422.63999999999999</ele>
        <time>2018-09-16T10:27:16Z</time>
      </trkpt>
      <trkpt lat="49.091520002111793" lon="10.03789097070694">
        <ele>415.43000000000001</ele>
        <time>2018-09-16T10:27:26Z</time>
      </trkpt>
      <trkpt lat="49.091953011229634" lon="10.040927985683084">
        <ele>414.47000000000003</ele>
        <time>2018-09-16T10:27:34Z</time>
      </trkpt>
      <trkpt lat="49.092190973460674" lon="10.044233975932002">
        <ele>416.38999999999999</ele>
        <time>2018-09-16T10:27:43Z</time>
      </trkpt>
      <trkpt lat="49.09222299233079" lon="10.044555002823472">
        <ele>416.87</ele>
        <time>2018-09-16T10:27:44Z</time>
      </trkpt>
      <trkpt lat="49.092261968180537" lon="10.044868988916278">
        <ele>417.35000000000002</ele>
        <time>2018-09-16T10:27:45Z</time>
      </trkpt>
      <trkpt lat="49.092342015355825" lon="10.045168977230787">
        <ele>417.82999999999998</ele>
        <time>2018-09-16T10:27:46Z</time>
      </trkpt>
      <trkpt lat="49.092429019510746" lon="10.04549503326416">
        <ele>418.31</ele>
        <time>2018-09-16T10:27:47Z</time>
      </trkpt>
      <trkpt lat="49.092533038929105" lon="10.045779012143612">
        <ele>418.31</ele>
        <time>2018-09-16T10:27:48Z</time>
      </trkpt>
      <trkpt lat="49.092643009498715" lon="10.046081012114882">
        <ele>418.31</ele>
        <time>2018-09-16T10:27:49Z</time>
      </trkpt>
      <trkpt lat="49.093566024675965" lon="10.049033034592867">
        <ele>414.47000000000003</ele>
        <time>2018-09-16T10:27:58Z</time>
      </trkpt>
      <trkpt lat="49.094054019078612" lon="10.051897969096899">
        <ele>410.62</ele>
        <time>2018-09-16T10:28:06Z</time>
      </trkpt>
      <trkpt lat="49.093977995216846" lon="10.053889006376266">
        <ele>410.62</ele>
        <time>2018-09-16T10:28:12Z</time>
      </trkpt>
      <trkpt lat="49.093928039073944" lon="10.054216990247369">
        <ele>410.62</ele>
        <time>2018-09-16T10:28:13Z</time>
      </trkpt>
      <trkpt lat="49.09383499994874" lon="10.054517984390259">
        <ele>410.62</ele>
        <time>2018-09-16T10:28:14Z</time>
      </trkpt>
      <trkpt lat="49.093350023031235" lon="10.056457975879312">
        <ele>414.47000000000003</ele>
        <time>2018-09-16T10:28:21Z</time>
      </trkpt>
      <trkpt lat="49.093324961140752" lon="10.057653989642859">
        <ele>416.38999999999999</ele>
        <time>2018-09-16T10:28:27Z</time>
      </trkpt>
      <trkpt lat="49.093327978625894" lon="10.057806959375739">
        <ele>416.38999999999999</ele>
        <time>2018-09-16T10:28:28Z</time>
      </trkpt>
      <trkpt lat="49.093329990282655" lon="10.057897986844182">
        <ele>416.38999999999999</ele>
        <time>2018-09-16T10:28:29Z</time>
      </trkpt>
      <trkpt lat="49.093300988897681" lon="10.058081969618797">
        <ele>416.38999999999999</ele>
        <time>2018-09-16T10:28:30Z</time>
      </trkpt>
      <trkpt lat="49.093279028311372" lon="10.05821599625051">
        <ele>416.38999999999999</ele>
        <time>2018-09-16T10:28:31Z</time>
      </trkpt>
      <trkpt lat="49.093257989734411" lon="10.058349017053843">
        <ele>416.38999999999999</ele>
        <time>2018-09-16T10:28:32Z</time>
      </trkpt>
      <trkpt lat="49.093236029148102" lon="10.058482959866524">
        <ele>415.91000000000003</ele>
        <time>2018-09-16T10:28:33Z</time>
      </trkpt>
      <trkpt lat="49.093059003353119" lon="10.059815011918545">
        <ele>412.06</ele>
        <time>2018-09-16T10:28:44Z</time>
      </trkpt>
      <trkpt lat="49.093013992533088" lon="10.059954989701509">
        <ele>410.62</ele>
        <time>2018-09-16T10:28:46Z</time>
      </trkpt>
      <trkpt lat="49.09297501668334" lon="10.060040988028049">
        <ele>410.13999999999999</ele>
        <time>2018-09-16T10:28:47Z</time>
      </trkpt>
      <trkpt lat="49.092923970893025" lon="10.060121035203338">
        <ele>410.13999999999999</ele>
        <time>2018-09-16T10:28:48Z</time>
      </trkpt>
      <trkpt lat="49.092728001996875" lon="10.060251960530877">
        <ele>409.66000000000003</ele>
        <time>2018-09-16T10:28:51Z</time>
      </trkpt>
      <trkpt lat="49.092704029753804" lon="10.060336031019688">
        <ele>409.66000000000003</ele>
        <time>2018-09-16T10:28:52Z</time>
      </trkpt>
      <trkpt lat="49.092722972854972" lon="10.060400990769267">
        <ele>409.66000000000003</ele>
        <time>2018-09-16T10:28:53Z</time>
      </trkpt>
      <trkpt lat="49.092749040573835" lon="10.060485983267426">
        <ele>409.66000000000003</ele>
        <time>2018-09-16T10:28:54Z</time>
      </trkpt>
      <trkpt lat="49.092779969796538" lon="10.060588996857405">
        <ele>409.66000000000003</ele>
        <time>2018-09-16T10:28:55Z</time>
      </trkpt>
      <trkpt lat="49.092822968959808" lon="10.060722017660737">
        <ele>409.66000000000003</ele>
        <time>2018-09-16T10:28:56Z</time>
      </trkpt>
      <trkpt lat="49.0928890183568" lon="10.060847997665405">
        <ele>409.66000000000003</ele>
        <time>2018-09-16T10:28:57Z</time>
      </trkpt>
      <trkpt lat="49.093091022223234" lon="10.061229038983583">
        <ele>409.66000000000003</ele>
        <time>2018-09-16T10:29:00Z</time>
      </trkpt>
      <trkpt lat="49.093157993629575" lon="10.061355018988252">
        <ele>410.13999999999999</ele>
        <time>2018-09-16T10:29:01Z</time>
      </trkpt>
      <trkpt lat="49.093254972249269" lon="10.061598010361195">
        <ele>411.10000000000002</ele>
        <time>2018-09-16T10:29:03Z</time>
      </trkpt>
      <trkpt lat="49.093295959755778" lon="10.061721978709102">
        <ele>411.57999999999998</ele>
        <time>2018-09-16T10:29:04Z</time>
      </trkpt>
      <trkpt lat="49.093336025252938" lon="10.061841001734138">
        <ele>411.57999999999998</ele>
        <time>2018-09-16T10:29:05Z</time>
      </trkpt>
      <trkpt lat="49.093353962525725" lon="10.06195499561727">
        <ele>412.06</ele>
        <time>2018-09-16T10:29:06Z</time>
      </trkpt>
      <trkpt lat="49.093357985839248" lon="10.062066977843642">
        <ele>412.06</ele>
        <time>2018-09-16T10:29:07Z</time>
      </trkpt>
      <trkpt lat="49.09336200915277" lon="10.062170997262001">
        <ele>412.54000000000002</ele>
        <time>2018-09-16T10:29:08Z</time>
      </trkpt>
      <trkpt lat="49.093365026637912" lon="10.062252972275019">
        <ele>412.54000000000002</ele>
        <time>2018-09-16T10:29:09Z</time>
      </trkpt>
      <trkpt lat="49.093367038294673" lon="10.062308041378856">
        <ele>412.06</ele>
        <time>2018-09-16T10:29:10Z</time>
      </trkpt>
      <trkpt lat="49.093356980010867" lon="10.062465034425259">
        <ele>412.06</ele>
        <time>2018-09-16T10:29:11Z</time>
      </trkpt>
      <trkpt lat="49.093369971960783" lon="10.062366966158152">
        <ele>412.06</ele>
        <time>2018-09-16T10:29:12Z</time>
      </trkpt>
      <trkpt lat="49.093370977789164" lon="10.062395967543125">
        <ele>412.06</ele>
        <time>2018-09-16T10:29:13Z</time>
      </trkpt>
      <trkpt lat="49.093266036361456" lon="10.06244701333344">
        <ele>412.06</ele>
        <time>2018-09-16T10:29:14Z</time>
      </trkpt>
      <trkpt lat="49.093238962814212" lon="10.062445001676679">
        <ele>412.06</ele>
        <time>2018-09-16T10:29:15Z</time>
      </trkpt>
      <trkpt lat="49.093168973922729" lon="10.062440978363156">
        <ele>411.57999999999998</ele>
        <time>2018-09-16T10:29:16Z</time>
      </trkpt>
      <trkpt lat="49.093084987252951" lon="10.062435027211905">
        <ele>411.57999999999998</ele>
        <time>2018-09-16T10:29:17Z</time>
      </trkpt>
      <trkpt lat="49.09299798309803" lon="10.062428992241621">
        <ele>411.10000000000002</ele>
        <time>2018-09-16T10:29:18Z</time>
      </trkpt>
      <trkpt lat="49.092907961457968" lon="10.062423963099718">
        <ele>410.62</ele>
        <time>2018-09-16T10:29:19Z</time>
      </trkpt>
      <trkpt lat="49.092601016163826" lon="10.06240401417017">
        <ele>408.69999999999999</ele>
        <time>2018-09-16T10:29:22Z</time>
      </trkpt>
      <trkpt lat="49.092509988695383" lon="10.062374006956816">
        <ele>408.69999999999999</ele>
        <time>2018-09-16T10:29:23Z</time>
      </trkpt>
      <trkpt lat="49.092300022020936" lon="10.062321033328772">
        <ele>408.69999999999999</ele>
        <time>2018-09-16T10:29:25Z</time>
      </trkpt>
      <trkpt lat="49.092192985117435" lon="10.062296977266669">
        <ele>408.69999999999999</ele>
        <time>2018-09-16T10:29:26Z</time>
      </trkpt>
      <trkpt lat="49.092087959870696" lon="10.062322961166501">
        <ele>408.69999999999999</ele>
        <time>2018-09-16T10:29:27Z</time>
      </trkpt>
      <trkpt lat="49.091983018442988" lon="10.062353974208236">
        <ele>408.22000000000003</ele>
        <time>2018-09-16T10:29:28Z</time>
      </trkpt>
      <trkpt lat="49.09188000485301" lon="10.062392028048635">
        <ele>408.22000000000003</ele>
        <time>2018-09-16T10:29:29Z</time>
      </trkpt>
      <trkpt lat="49.090744005516171" lon="10.063024023547769">
        <ele>409.66000000000003</ele>
        <time>2018-09-16T10:29:41Z</time>
      </trkpt>
      <trkpt lat="49.089776985347271" lon="10.063849976286292">
        <ele>409.66000000000003</ele>
        <time>2018-09-16T10:29:51Z</time>
      </trkpt>
      <trkpt lat="49.08872103318572" lon="10.064611975103617">
        <ele>410.13999999999999</ele>
        <time>2018-09-16T10:29:59Z</time>
      </trkpt>
      <trkpt lat="49.087297031655908" lon="10.065894993022084">
        <ele>410.13999999999999</ele>
        <time>2018-09-16T10:30:07Z</time>
      </trkpt>
      <trkpt lat="49.085903959348798" lon="10.066933007910848">
        <ele>409.18000000000001</ele>
        <time>2018-09-16T10:30:15Z</time>
      </trkpt>
      <trkpt lat="49.08328696154058" lon="10.068449964746833">
        <ele>409.66000000000003</ele>
        <time>2018-09-16T10:30:28Z</time>
      </trkpt>
      <trkpt lat="49.081129040569067" lon="10.069636004045606">
        <ele>408.22000000000003</ele>
        <time>2018-09-16T10:30:39Z</time>
      </trkpt>
      <trkpt lat="49.079865971580148" lon="10.070194993168116">
        <ele>408.22000000000003</ele>
        <time>2018-09-16T10:30:47Z</time>
      </trkpt>
      <trkpt lat="49.079147977754474" lon="10.070711988955736">
        <ele>410.62</ele>
        <time>2018-09-16T10:30:54Z</time>
      </trkpt>
      <trkpt lat="49.078718991950154" lon="10.071143992245197">
        <ele>410.13999999999999</ele>
        <time>2018-09-16T10:30:59Z</time>
      </trkpt>
      <trkpt lat="49.07862301915884" lon="10.071187997236848">
        <ele>410.13999999999999</ele>
        <time>2018-09-16T10:31:00Z</time>
      </trkpt>
      <trkpt lat="49.077501017600298" lon="10.071650007739663">
        <ele>411.10000000000002</ele>
        <time>2018-09-16T10:31:10Z</time>
      </trkpt>
      <trkpt lat="49.075931003317237" lon="10.072389962151647">
        <ele>410.13999999999999</ele>
        <time>2018-09-16T10:31:22Z</time>
      </trkpt>
      <trkpt lat="49.074541032314301" lon="10.073075015097857">
        <ele>409.18000000000001</ele>
        <time>2018-09-16T10:31:29Z</time>
      </trkpt>
      <trkpt lat="49.0723289642483" lon="10.074162986129522">
        <ele>410.62</ele>
        <time>2018-09-16T10:31:38Z</time>
      </trkpt>
      <trkpt lat="49.069116013124585" lon="10.075692012906075">
        <ele>412.06</ele>
        <time>2018-09-16T10:31:51Z</time>
      </trkpt>
      <trkpt lat="49.066816018894315" lon="10.076426016166806">
        <ele>408.69999999999999</ele>
        <time>2018-09-16T10:32:00Z</time>
      </trkpt>
      <trkpt lat="49.063117001205683" lon="10.07776603102684">
        <ele>409.66000000000003</ele>
        <time>2018-09-16T10:32:15Z</time>
      </trkpt>
      <trkpt lat="49.060915997251868" lon="10.079622035846114">
        <ele>408.69999999999999</ele>
        <time>2018-09-16T10:32:25Z</time>
      </trkpt>
      <trkpt lat="49.05905001796782" lon="10.081229014322162">
        <ele>410.13999999999999</ele>
        <time>2018-09-16T10:32:35Z</time>
      </trkpt>
      <trkpt lat="49.05866201967001" lon="10.081538977101445">
        <ele>410.62</ele>
        <time>2018-09-16T10:32:38Z</time>
      </trkpt>
      <trkpt lat="49.058538973331451" lon="10.081594968214631">
        <ele>411.10000000000002</ele>
        <time>2018-09-16T10:32:39Z</time>
      </trkpt>
      <trkpt lat="49.058408970013261" lon="10.081618018448353">
        <ele>411.57999999999998</ele>
        <time>2018-09-16T10:32:40Z</time>
      </trkpt>
      <trkpt lat="49.058286007493734" lon="10.08159102872014">
        <ele>412.06</ele>
        <time>2018-09-16T10:32:41Z</time>
      </trkpt>
      <trkpt lat="49.058166984468699" lon="10.081507964059711">
        <ele>412.54000000000002</ele>
        <time>2018-09-16T10:32:42Z</time>
      </trkpt>
      <trkpt lat="49.058055002242327" lon="10.081420037895441">
        <ele>413.01999999999998</ele>
        <time>2018-09-16T10:32:43Z</time>
      </trkpt>
      <trkpt lat="49.057948971167207" lon="10.081336973235011">
        <ele>413.5</ele>
        <time>2018-09-16T10:32:44Z</time>
      </trkpt>
      <trkpt lat="49.057452008128166" lon="10.080991974100471">
        <ele>417.82999999999998</ele>
        <time>2018-09-16T10:32:49Z</time>
      </trkpt>
      <trkpt lat="49.057356035336852" lon="10.08094796910882">
        <ele>418.31</ele>
        <time>2018-09-16T10:32:50Z</time>
      </trkpt>
      <trkpt lat="49.05726601369679" lon="10.08098803460598">
        <ele>418.79000000000002</ele>
        <time>2018-09-16T10:32:51Z</time>
      </trkpt>
      <trkpt lat="49.057164005935192" lon="10.081046037375927">
        <ele>419.75</ele>
        <time>2018-09-16T10:32:52Z</time>
      </trkpt>
      <trkpt lat="49.057059986516833" lon="10.081104962155223">
        <ele>420.23000000000002</ele>
        <time>2018-09-16T10:32:53Z</time>
      </trkpt>
      <trkpt lat="49.056273009628057" lon="10.081501007080078">
        <ele>421.68000000000001</ele>
        <time>2018-09-16T10:33:00Z</time>
      </trkpt>
      <trkpt lat="49.0549670252949" lon="10.081696975976229">
        <ele>420.70999999999998</ele>
        <time>2018-09-16T10:33:11Z</time>
      </trkpt>
      <trkpt lat="49.05324898660183" lon="10.081901997327805">
        <ele>416.87</ele>
        <time>2018-09-16T10:33:24Z</time>
      </trkpt>
      <trkpt lat="49.051861027255654" lon="10.082078017294407">
        <ele>414.94999999999999</ele>
        <time>2018-09-16T10:33:31Z</time>
      </trkpt>
      <trkpt lat="49.048960972577333" lon="10.082458974793553">
        <ele>421.68000000000001</ele>
        <time>2018-09-16T10:33:43Z</time>
      </trkpt>
      <trkpt lat="49.046491999179125" lon="10.082715963944793">
        <ele>425.04000000000002</ele>
        <time>2018-09-16T10:33:53Z</time>
      </trkpt>
      <trkpt lat="49.045119965448976" lon="10.082968007773161">
        <ele>424.07999999999998</ele>
        <time>2018-09-16T10:34:00Z</time>
      </trkpt>
      <trkpt lat="49.044946040958166" lon="10.083103040233254">
        <ele>422.63999999999999</ele>
        <time>2018-09-16T10:34:01Z</time>
      </trkpt>
      <trkpt lat="49.044771026819944" lon="10.083236983045936">
        <ele>421.68000000000001</ele>
        <time>2018-09-16T10:34:02Z</time>
      </trkpt>
      <trkpt lat="49.043025998398662" lon="10.084680011495948">
        <ele>424.07999999999998</ele>
        <time>2018-09-16T10:34:12Z</time>
      </trkpt>
      <trkpt lat="49.041252974420786" lon="10.086135026067495">
        <ele>429.85000000000002</ele>
        <time>2018-09-16T10:34:23Z</time>
      </trkpt>
      <trkpt lat="49.039839031174779" lon="10.087754996493459">
        <ele>430.32999999999998</ele>
        <time>2018-09-16T10:34:31Z</time>
      </trkpt>
      <trkpt lat="49.038364989683032" lon="10.090104024857283">
        <ele>426.48000000000002</ele>
        <time>2018-09-16T10:34:39Z</time>
      </trkpt>
      <trkpt lat="49.036831017583609" lon="10.093094017356634">
        <ele>422.16000000000003</ele>
        <time>2018-09-16T10:34:48Z</time>
      </trkpt>
      <trkpt lat="49.035774981603026" lon="10.094682974740863">
        <ele>421.68000000000001</ele>
        <time>2018-09-16T10:34:54Z</time>
      </trkpt>
      <trkpt lat="49.03481500223279" lon="10.095746973529458">
        <ele>424.56</ele>
        <time>2018-09-16T10:35:00Z</time>
      </trkpt>
      <trkpt lat="49.034031964838505" lon="10.096487011760473">
        <ele>426.48000000000002</ele>
        <time>2018-09-16T10:35:07Z</time>
      </trkpt>
      <trkpt lat="49.033152032643557" lon="10.097278011962771">
        <ele>425.04000000000002</ele>
        <time>2018-09-16T10:35:16Z</time>
      </trkpt>
      <trkpt lat="49.032400008291006" lon="10.097892992198467">
        <ele>419.26999999999998</ele>
        <time>2018-09-16T10:35:25Z</time>
      </trkpt>
      <trkpt lat="49.031493002548814" lon="10.09835097938776">
        <ele>415.43000000000001</ele>
        <time>2018-09-16T10:35:37Z</time>
      </trkpt>
      <trkpt lat="49.030951028689742" lon="10.098495986312628">
        <ele>418.31</ele>
        <time>2018-09-16T10:35:44Z</time>
      </trkpt>
      <trkpt lat="49.030851032584906" lon="10.098495986312628">
        <ele>418.31</ele>
        <time>2018-09-16T10:35:45Z</time>
      </trkpt>
      <trkpt lat="49.030751036480069" lon="10.098495986312628">
        <ele>417.82999999999998</ele>
        <time>2018-09-16T10:35:46Z</time>
      </trkpt>
      <trkpt lat="49.030666965991259" lon="10.098475031554699">
        <ele>417.82999999999998</ele>
        <time>2018-09-16T10:35:47Z</time>
      </trkpt>
      <trkpt lat="49.030592031776905" lon="10.098444018512964">
        <ele>417.35000000000002</ele>
        <time>2018-09-16T10:35:48Z</time>
      </trkpt>
      <trkpt lat="49.030521959066391" lon="10.098416022956371">
        <ele>416.87</ele>
        <time>2018-09-16T10:35:49Z</time>
      </trkpt>
      <trkpt lat="49.030452976003289" lon="10.098388027399778">
        <ele>416.38999999999999</ele>
        <time>2018-09-16T10:35:50Z</time>
      </trkpt>
      <trkpt lat="49.030386004596949" lon="10.098361037671566">
        <ele>416.38999999999999</ele>
        <time>2018-09-16T10:35:51Z</time>
      </trkpt>
      <trkpt lat="49.030247032642365" lon="10.09830404073">
        <ele>415.43000000000001</ele>
        <time>2018-09-16T10:35:53Z</time>
      </trkpt>
      <trkpt lat="49.030170002952218" lon="10.098273027688265">
        <ele>415.43000000000001</ele>
        <time>2018-09-16T10:35:54Z</time>
      </trkpt>
      <trkpt lat="49.030089033767581" lon="10.098272021859884">
        <ele>414.94999999999999</ele>
        <time>2018-09-16T10:35:55Z</time>
      </trkpt>
      <trkpt lat="49.030014015734196" lon="10.098332036286592">
        <ele>414.94999999999999</ele>
        <time>2018-09-16T10:35:56Z</time>
      </trkpt>
      <trkpt lat="49.029947966337204" lon="10.098419040441513">
        <ele>414.47000000000003</ele>
        <time>2018-09-16T10:35:57Z</time>
      </trkpt>
      <trkpt lat="49.029876971617341" lon="10.098514007404447">
        <ele>414.47000000000003</ele>
        <time>2018-09-16T10:35:58Z</time>
      </trkpt>
      <trkpt lat="49.029029980301857" lon="10.099525032564998">
        <ele>417.82999999999998</ele>
        <time>2018-09-16T10:36:10Z</time>
      </trkpt>
      <trkpt lat="49.028970971703529" lon="10.099590998142958">
        <ele>417.82999999999998</ele>
        <time>2018-09-16T10:36:11Z</time>
      </trkpt>
      <trkpt lat="49.028911963105202" lon="10.099654030054808">
        <ele>418.31</ele>
        <time>2018-09-16T10:36:12Z</time>
      </trkpt>
      <trkpt lat="49.028839962556958" lon="10.099642965942621">
        <ele>417.82999999999998</ele>
        <time>2018-09-16T10:36:13Z</time>
      </trkpt>
      <trkpt lat="49.028766034170985" lon="10.099631985649467">
        <ele>417.82999999999998</ele>
        <time>2018-09-16T10:36:14Z</time>
      </trkpt>
      <trkpt lat="49.028685986995697" lon="10.099619999527931">
        <ele>417.82999999999998</ele>
        <time>2018-09-16T10:36:15Z</time>
      </trkpt>
      <trkpt lat="49.028606023639441" lon="10.099608013406396">
        <ele>417.82999999999998</ele>
        <time>2018-09-16T10:36:16Z</time>
      </trkpt>
      <trkpt lat="49.028161028400064" lon="10.099556967616081">
        <ele>418.31</ele>
        <time>2018-09-16T10:36:21Z</time>
      </trkpt>
      <trkpt lat="49.027167018502951" lon="10.099780010059476">
        <ele>421.68000000000001</ele>
        <time>2018-09-16T10:36:31Z</time>
      </trkpt>
      <trkpt lat="49.026851020753384" lon="10.099801970645785">
        <ele>423.12</ele>
        <time>2018-09-16T10:36:34Z</time>
      </trkpt>
      <trkpt lat="49.02673602104187" lon="10.099790990352631">
        <ele>423.12</ele>
        <time>2018-09-16T10:36:35Z</time>
      </trkpt>
      <trkpt lat="49.026492023840547" lon="10.099769029766321">
        <ele>424.56</ele>
        <time>2018-09-16T10:36:37Z</time>
      </trkpt>
      <trkpt lat="49.026359003037214" lon="10.099756037816405">
        <ele>425.04000000000002</ele>
        <time>2018-09-16T10:36:38Z</time>
      </trkpt>
      <trkpt lat="49.025219986215234" lon="10.09991898201406">
        <ele>426.95999999999998</ele>
        <time>2018-09-16T10:36:45Z</time>
      </trkpt>
      <trkpt lat="49.023735970258713" lon="10.100042028352618">
        <ele>426.95999999999998</ele>
        <time>2018-09-16T10:36:52Z</time>
      </trkpt>
      <trkpt lat="49.022755036130548" lon="10.100282002240419">
        <ele>426</ele>
        <time>2018-09-16T10:36:56Z</time>
      </trkpt>
      <trkpt lat="49.022511960938573" lon="10.100410999730229">
        <ele>425.51999999999998</ele>
        <time>2018-09-16T10:36:57Z</time>
      </trkpt>
      <trkpt lat="49.020689986646175" lon="10.101773981004953">
        <ele>434.64999999999998</ele>
        <time>2018-09-16T10:37:05Z</time>
      </trkpt>
      <trkpt lat="49.020511033013463" lon="10.102000962942839">
        <ele>436.57999999999998</ele>
        <time>2018-09-16T10:37:06Z</time>
      </trkpt>
      <trkpt lat="49.020342975854874" lon="10.102247977629304">
        <ele>438.5</ele>
        <time>2018-09-16T10:37:07Z</time>
      </trkpt>
      <trkpt lat="49.020176008343697" lon="10.102509995922446">
        <ele>440.42000000000002</ele>
        <time>2018-09-16T10:37:08Z</time>
      </trkpt>
      <trkpt lat="49.020020021125674" lon="10.102794980630279">
        <ele>441.86000000000001</ele>
        <time>2018-09-16T10:37:09Z</time>
      </trkpt>
      <trkpt lat="49.019208988174796" lon="10.104212025180459">
        <ele>444.75</ele>
        <time>2018-09-16T10:37:14Z</time>
      </trkpt>
      <trkpt lat="49.018686963245273" lon="10.104836979880929">
        <ele>444.26999999999998</ele>
        <time>2018-09-16T10:37:17Z</time>
      </trkpt>
      <trkpt lat="49.01850700378418" lon="10.10496698319912">
        <ele>444.26999999999998</ele>
        <time>2018-09-16T10:37:18Z</time>
      </trkpt>
      <trkpt lat="49.018321009352803" lon="10.105063961818814">
        <ele>443.79000000000002</ele>
        <time>2018-09-16T10:37:19Z</time>
      </trkpt>
      <trkpt lat="49.018136020749807" lon="10.105161024257541">
        <ele>443.31</ele>
        <time>2018-09-16T10:37:20Z</time>
      </trkpt>
      <trkpt lat="49.017944997176528" lon="10.105261020362377">
        <ele>442.81999999999999</ele>
        <time>2018-09-16T10:37:21Z</time>
      </trkpt>
      <trkpt lat="49.017749028280377" lon="10.105364033952355">
        <ele>442.33999999999997</ele>
        <time>2018-09-16T10:37:22Z</time>
      </trkpt>
      <trkpt lat="49.017569990828633" lon="10.105506023392081">
        <ele>441.38</ele>
        <time>2018-09-16T10:37:23Z</time>
      </trkpt>
      <trkpt lat="49.01739296503365" lon="10.105682965368032">
        <ele>440.42000000000002</ele>
        <time>2018-09-16T10:37:24Z</time>
      </trkpt>
      <trkpt lat="49.01721996255219" lon="10.105855967849493">
        <ele>439.45999999999998</ele>
        <time>2018-09-16T10:37:25Z</time>
      </trkpt>
      <trkpt lat="49.016991974785924" lon="10.106246983632445">
        <ele>437.54000000000002</ele>
        <time>2018-09-16T10:37:27Z</time>
      </trkpt>
      <trkpt lat="49.016917962580919" lon="10.10642702691257">
        <ele>437.06</ele>
        <time>2018-09-16T10:37:28Z</time>
      </trkpt>
      <trkpt lat="49.01685400865972" lon="10.106639005243778">
        <ele>436.10000000000002</ele>
        <time>2018-09-16T10:37:29Z</time>
      </trkpt>
      <trkpt lat="49.016787959262729" lon="10.106861041858792">
        <ele>435.13</ele>
        <time>2018-09-16T10:37:30Z</time>
      </trkpt>
      <trkpt lat="49.016712019219995" lon="10.107084000483155">
        <ele>434.17000000000002</ele>
        <time>2018-09-16T10:37:31Z</time>
      </trkpt>
      <trkpt lat="49.016630966216326" lon="10.107290027663112">
        <ele>433.69</ele>
        <time>2018-09-16T10:37:32Z</time>
      </trkpt>
      <trkpt lat="49.01655301451683" lon="10.107488008216023">
        <ele>432.73000000000002</ele>
        <time>2018-09-16T10:37:33Z</time>
      </trkpt>
      <trkpt lat="49.016482019796968" lon="10.107667967677116">
        <ele>431.76999999999998</ele>
        <time>2018-09-16T10:37:34Z</time>
      </trkpt>
      <trkpt lat="49.016384035348892" lon="10.107799982652068">
        <ele>430.81</ele>
        <time>2018-09-16T10:37:35Z</time>
      </trkpt>
      <trkpt lat="49.016288984566927" lon="10.107910959050059">
        <ele>429.37</ele>
        <time>2018-09-16T10:37:36Z</time>
      </trkpt>
      <trkpt lat="49.016192005947232" lon="10.108009027317166">
        <ele>428.39999999999998</ele>
        <time>2018-09-16T10:37:37Z</time>
      </trkpt>
      <trkpt lat="49.01607901789248" lon="10.108057977631688">
        <ele>427.44</ele>
        <time>2018-09-16T10:37:38Z</time>
      </trkpt>
      <trkpt lat="49.015964018180966" lon="10.108108017593622">
        <ele>426.48000000000002</ele>
        <time>2018-09-16T10:37:39Z</time>
      </trkpt>
      <trkpt lat="49.015846000984311" lon="10.10812503285706">
        <ele>426</ele>
        <time>2018-09-16T10:37:40Z</time>
      </trkpt>
      <trkpt lat="49.015728989616036" lon="10.108114974573255">
        <ele>425.51999999999998</ele>
        <time>2018-09-16T10:37:41Z</time>
      </trkpt>
      <trkpt lat="49.015613989904523" lon="10.108092008158565">
        <ele>425.04000000000002</ele>
        <time>2018-09-16T10:37:42Z</time>
      </trkpt>
      <trkpt lat="49.01549999602139" lon="10.108044985681772">
        <ele>424.56</ele>
        <time>2018-09-16T10:37:43Z</time>
      </trkpt>
      <trkpt lat="49.015392037108541" lon="10.10799603536725">
        <ele>424.56</ele>
        <time>2018-09-16T10:37:44Z</time>
      </trkpt>
      <trkpt lat="49.015296986326575" lon="10.107885980978608">
        <ele>424.56</ele>
        <time>2018-09-16T10:37:45Z</time>
      </trkpt>
      <trkpt lat="49.015203025192022" lon="10.107757989317179">
        <ele>424.56</ele>
        <time>2018-09-16T10:37:46Z</time>
      </trkpt>
      <trkpt lat="49.015107974410057" lon="10.107621029019356">
        <ele>424.56</ele>
        <time>2018-09-16T10:37:47Z</time>
      </trkpt>
      <trkpt lat="49.015019964426756" lon="10.107469987124205">
        <ele>424.07999999999998</ele>
        <time>2018-09-16T10:37:48Z</time>
      </trkpt>
      <trkpt lat="49.014193005859852" lon="10.105830989778042">
        <ele>423.60000000000002</ele>
        <time>2018-09-16T10:37:58Z</time>
      </trkpt>
      <trkpt lat="49.013399994000793" lon="10.104244966059923">
        <ele>433.69</ele>
        <time>2018-09-16T10:38:05Z</time>
      </trkpt>
      <trkpt lat="49.012705972418189" lon="10.102924983948469">
        <ele>442.33999999999997</ele>
        <time>2018-09-16T10:38:10Z</time>
      </trkpt>
      <trkpt lat="49.012547973543406" lon="10.102704036980867">
        <ele>444.26999999999998</ele>
        <time>2018-09-16T10:38:11Z</time>
      </trkpt>
      <trkpt lat="49.012366002425551" lon="10.102513013407588">
        <ele>445.70999999999998</ele>
        <time>2018-09-16T10:38:12Z</time>
      </trkpt>
      <trkpt lat="49.012156035751104" lon="10.102293994277716">
        <ele>447.63</ele>
        <time>2018-09-16T10:38:13Z</time>
      </trkpt>
      <trkpt lat="49.011973980814219" lon="10.102168014273047">
        <ele>449.06999999999999</ele>
        <time>2018-09-16T10:38:14Z</time>
      </trkpt>
      <trkpt lat="49.010767992585897" lon="10.101471981033683">
        <ele>454.83999999999997</ele>
        <time>2018-09-16T10:38:20Z</time>
      </trkpt>
      <trkpt lat="49.009502995759249" lon="10.101350024342537">
        <ele>458.69</ele>
        <time>2018-09-16T10:38:26Z</time>
      </trkpt>
      <trkpt lat="49.009326975792646" lon="10.101389000192285">
        <ele>459.17000000000002</ele>
        <time>2018-09-16T10:38:27Z</time>
      </trkpt>
      <trkpt lat="49.009151961654425" lon="10.101427976042032">
        <ele>460.13</ele>
        <time>2018-09-16T10:38:28Z</time>
      </trkpt>
      <trkpt lat="49.008984994143248" lon="10.101483967155218">
        <ele>460.61000000000001</ele>
        <time>2018-09-16T10:38:29Z</time>
      </trkpt>
      <trkpt lat="49.008828001096845" lon="10.101595027372241">
        <ele>461.56999999999999</ele>
        <time>2018-09-16T10:38:30Z</time>
      </trkpt>
      <trkpt lat="49.008672013878822" lon="10.101706003770232">
        <ele>462.05000000000001</ele>
        <time>2018-09-16T10:38:31Z</time>
      </trkpt>
      <trkpt lat="49.007075009867549" lon="10.102690039202571">
        <ele>464.93000000000001</ele>
        <time>2018-09-16T10:38:40Z</time>
      </trkpt>
      <trkpt lat="49.004771998152137" lon="10.103867026045918">
        <ele>468.77999999999997</ele>
        <time>2018-09-16T10:38:52Z</time>
      </trkpt>
      <trkpt lat="49.003814030438662" lon="10.10434303432703">
        <ele>467.81999999999999</ele>
        <time>2018-09-16T10:39:00Z</time>
      </trkpt>
      <trkpt lat="49.003485962748528" lon="10.104459039866924">
        <ele>465.42000000000002</ele>
        <time>2018-09-16T10:39:03Z</time>
      </trkpt>
      <trkpt lat="49.003380015492439" lon="10.104475971311331">
        <ele>464.93000000000001</ele>
        <time>2018-09-16T10:39:04Z</time>
      </trkpt>
      <trkpt lat="49.003277001902461" lon="10.104454010725021">
        <ele>464.93000000000001</ele>
        <time>2018-09-16T10:39:05Z</time>
      </trkpt>
      <trkpt lat="49.003170970827341" lon="10.104403970763087">
        <ele>464.44999999999999</ele>
        <time>2018-09-16T10:39:06Z</time>
      </trkpt>
      <trkpt lat="49.003056976944208" lon="10.104350997135043">
        <ele>464.44999999999999</ele>
        <time>2018-09-16T10:39:07Z</time>
      </trkpt>
      <trkpt lat="49.002937031909823" lon="10.1042789965868">
        <ele>464.44999999999999</ele>
        <time>2018-09-16T10:39:08Z</time>
      </trkpt>
      <trkpt lat="49.002812979742885" lon="10.104168020188808">
        <ele>464.93000000000001</ele>
        <time>2018-09-16T10:39:09Z</time>
      </trkpt>
      <trkpt lat="49.002679036930203" lon="10.104046985507011">
        <ele>465.42000000000002</ele>
        <time>2018-09-16T10:39:10Z</time>
      </trkpt>
      <trkpt lat="49.002206968143582" lon="10.103666028007865">
        <ele>467.81999999999999</ele>
        <time>2018-09-16T10:39:13Z</time>
      </trkpt>
      <trkpt lat="49.002029020339251" lon="10.103568965569139">
        <ele>468.77999999999997</ele>
        <time>2018-09-16T10:39:14Z</time>
      </trkpt>
      <trkpt lat="49.001814024522901" lon="10.103452038019896">
        <ele>469.74000000000001</ele>
        <time>2018-09-16T10:39:15Z</time>
      </trkpt>
      <trkpt lat="49.001645967364311" lon="10.103432005271316">
        <ele>469.74000000000001</ele>
        <time>2018-09-16T10:39:16Z</time>
      </trkpt>
      <trkpt lat="49.001432983204722" lon="10.103471986949444">
        <ele>469.74000000000001</ele>
        <time>2018-09-16T10:39:17Z</time>
      </trkpt>
      <trkpt lat="49.001212958246469" lon="10.103516997769475">
        <ele>469.74000000000001</ele>
        <time>2018-09-16T10:39:18Z</time>
      </trkpt>
      <trkpt lat="49.000985976308584" lon="10.103562008589506">
        <ele>469.25999999999999</ele>
        <time>2018-09-16T10:39:19Z</time>
      </trkpt>
      <trkpt lat="48.999916026368737" lon="10.10354801081121">
        <ele>469.74000000000001</ele>
        <time>2018-09-16T10:39:24Z</time>
      </trkpt>
      <trkpt lat="48.998624039813876" lon="10.102888019755483">
        <ele>469.25999999999999</ele>
        <time>2018-09-16T10:39:31Z</time>
      </trkpt>
      <trkpt lat="48.997071962803602" lon="10.102014960721135">
        <ele>466.38</ele>
        <time>2018-09-16T10:39:38Z</time>
      </trkpt>
      <trkpt lat="48.995267003774643" lon="10.101160006597638">
        <ele>459.64999999999998</ele>
        <time>2018-09-16T10:39:45Z</time>
      </trkpt>
      <trkpt lat="48.993809977546334" lon="10.100806038826704">
        <ele>451.48000000000002</ele>
        <time>2018-09-16T10:39:51Z</time>
      </trkpt>
      <trkpt lat="48.99360403418541" lon="10.100816013291478">
        <ele>451</ele>
        <time>2018-09-16T10:39:52Z</time>
      </trkpt>
      <trkpt lat="48.99339297786355" lon="10.100868986919522">
        <ele>450.51999999999998</ele>
        <time>2018-09-16T10:39:53Z</time>
      </trkpt>
      <trkpt lat="48.993174964562058" lon="10.100922966375947">
        <ele>450.02999999999997</ele>
        <time>2018-09-16T10:39:54Z</time>
      </trkpt>
      <trkpt lat="48.992951000109315" lon="10.100979041308165">
        <ele>450.02999999999997</ele>
        <time>2018-09-16T10:39:55Z</time>
      </trkpt>
      <trkpt lat="48.992734998464584" lon="10.101081971079111">
        <ele>449.55000000000001</ele>
        <time>2018-09-16T10:39:56Z</time>
      </trkpt>
      <trkpt lat="48.992526037618518" lon="10.101197976619005">
        <ele>449.06999999999999</ele>
        <time>2018-09-16T10:39:57Z</time>
      </trkpt>
      <trkpt lat="48.992333002388477" lon="10.101316999644041">
        <ele>449.06999999999999</ele>
        <time>2018-09-16T10:39:58Z</time>
      </trkpt>
      <trkpt lat="48.99182396940887" lon="10.1016800198704">
        <ele>448.11000000000001</ele>
        <time>2018-09-16T10:40:01Z</time>
      </trkpt>
      <trkpt lat="48.99167301133275" lon="10.101802982389927">
        <ele>447.63</ele>
        <time>2018-09-16T10:40:02Z</time>
      </trkpt>
      <trkpt lat="48.991491962224245" lon="10.101950000971556">
        <ele>447.14999999999998</ele>
        <time>2018-09-16T10:40:03Z</time>
      </trkpt>
      <trkpt lat="48.990494012832642" lon="10.103093041107059">
        <ele>443.79000000000002</ele>
        <time>2018-09-16T10:40:09Z</time>
      </trkpt>
      <trkpt lat="48.990131998434663" lon="10.103623028844595">
        <ele>442.33999999999997</ele>
        <time>2018-09-16T10:40:11Z</time>
      </trkpt>
      <trkpt lat="48.989962013438344" lon="10.10391203686595">
        <ele>441.86000000000001</ele>
        <time>2018-09-16T10:40:12Z</time>
      </trkpt>
      <trkpt lat="48.989812983199954" lon="10.104246977716684">
        <ele>441.86000000000001</ele>
        <time>2018-09-16T10:40:13Z</time>
      </trkpt>
      <trkpt lat="48.988732974976301" lon="10.107041001319885">
        <ele>447.14999999999998</ele>
        <time>2018-09-16T10:40:21Z</time>
      </trkpt>
      <trkpt lat="48.988565001636744" lon="10.107316011562943">
        <ele>448.58999999999997</ele>
        <time>2018-09-16T10:40:22Z</time>
      </trkpt>
      <trkpt lat="48.987339986488223" lon="10.109279975295067">
        <ele>453.39999999999998</ele>
        <time>2018-09-16T10:40:29Z</time>
      </trkpt>
      <trkpt lat="48.986339019611478" lon="10.110760973766446">
        <ele>455.31999999999999</ele>
        <time>2018-09-16T10:40:36Z</time>
      </trkpt>
      <trkpt lat="48.986189989373088" lon="10.110914027318358">
        <ele>454.83999999999997</ele>
        <time>2018-09-16T10:40:37Z</time>
      </trkpt>
      <trkpt lat="48.985998965799809" lon="10.11109096929431">
        <ele>454.83999999999997</ele>
        <time>2018-09-16T10:40:38Z</time>
      </trkpt>
      <trkpt lat="48.985839039087296" lon="10.111144026741385">
        <ele>454.36000000000001</ele>
        <time>2018-09-16T10:40:39Z</time>
      </trkpt>
      <trkpt lat="48.985641980543733" lon="10.111203035339713">
        <ele>453.88</ele>
        <time>2018-09-16T10:40:40Z</time>
      </trkpt>
      <trkpt lat="48.985428996384144" lon="10.111230025067925">
        <ele>453.39999999999998</ele>
        <time>2018-09-16T10:40:41Z</time>
      </trkpt>
      <trkpt lat="48.985209977254272" lon="10.111250979825854">
        <ele>452.44</ele>
        <time>2018-09-16T10:40:42Z</time>
      </trkpt>
      <trkpt lat="48.983623031526804" lon="10.111362962052226">
        <ele>443.31</ele>
        <time>2018-09-16T10:40:50Z</time>
      </trkpt>
      <trkpt lat="48.981756968423724" lon="10.111485002562404">
        <ele>447.63</ele>
        <time>2018-09-16T10:41:01Z</time>
      </trkpt>
      <trkpt lat="48.980077989399433" lon="10.111594973132014">
        <ele>461.56999999999999</ele>
        <time>2018-09-16T10:41:11Z</time>
      </trkpt>
      <trkpt lat="48.978892033919692" lon="10.112107023596764">
        <ele>464.44999999999999</ele>
        <time>2018-09-16T10:41:18Z</time>
      </trkpt>
      <trkpt lat="48.978743003681302" lon="10.112241972237825">
        <ele>463.97000000000003</ele>
        <time>2018-09-16T10:41:19Z</time>
      </trkpt>
      <trkpt lat="48.978606965392828" lon="10.112410029396415">
        <ele>463.97000000000003</ele>
        <time>2018-09-16T10:41:20Z</time>
      </trkpt>
      <trkpt lat="48.977676993235946" lon="10.114006027579308">
        <ele>455.80000000000001</ele>
        <time>2018-09-16T10:41:28Z</time>
      </trkpt>
      <trkpt lat="48.976163975894451" lon="10.116438958793879">
        <ele>448.58999999999997</ele>
        <time>2018-09-16T10:41:41Z</time>
      </trkpt>
      <trkpt lat="48.976033972576261" lon="10.116555970162153">
        <ele>449.55000000000001</ele>
        <time>2018-09-16T10:41:42Z</time>
      </trkpt>
      <trkpt lat="48.974943989887834" lon="10.117123005911708">
        <ele>452.92000000000002</ele>
        <time>2018-09-16T10:41:51Z</time>
      </trkpt>
      <trkpt lat="48.974299002438784" lon="10.117520978674293">
        <ele>451</ele>
        <time>2018-09-16T10:41:56Z</time>
      </trkpt>
      <trkpt lat="48.974175034090877" lon="10.117618041113019">
        <ele>450.51999999999998</ele>
        <time>2018-09-16T10:41:57Z</time>
      </trkpt>
      <trkpt lat="48.974060034379363" lon="10.117742009460926">
        <ele>449.55000000000001</ele>
        <time>2018-09-16T10:41:58Z</time>
      </trkpt>
      <trkpt lat="48.973226035013795" lon="10.118900975212455">
        <ele>443.79000000000002</ele>
        <time>2018-09-16T10:42:07Z</time>
      </trkpt>
      <trkpt lat="48.972540982067585" lon="10.119754001498222">
        <ele>442.33999999999997</ele>
        <time>2018-09-16T10:42:17Z</time>
      </trkpt>
      <trkpt lat="48.971651997417212" lon="10.120667964220047">
        <ele>444.75</ele>
        <time>2018-09-16T10:42:27Z</time>
      </trkpt>
      <trkpt lat="48.970428993925452" lon="10.122329005971551">
        <ele>447.14999999999998</ele>
        <time>2018-09-16T10:42:42Z</time>
      </trkpt>
      <trkpt lat="48.970345007255673" lon="10.122427996248007">
        <ele>447.14999999999998</ele>
        <time>2018-09-16T10:42:43Z</time>
      </trkpt>
      <trkpt lat="48.970263032242656" lon="10.122525980696082">
        <ele>446.67000000000002</ele>
        <time>2018-09-16T10:42:44Z</time>
      </trkpt>
      <trkpt lat="48.969292994588614" lon="10.123278005048633">
        <ele>441.86000000000001</ele>
        <time>2018-09-16T10:42:54Z</time>
      </trkpt>
      <trkpt lat="48.967688027769327" lon="10.124373016878963">
        <ele>432.73000000000002</ele>
        <time>2018-09-16T10:43:10Z</time>
      </trkpt>
      <trkpt lat="48.96750396117568" lon="10.124535039067268">
        <ele>432.25</ele>
        <time>2018-09-16T10:43:12Z</time>
      </trkpt>
      <trkpt lat="48.966558985412121" lon="10.125725017860532">
        <ele>430.32999999999998</ele>
        <time>2018-09-16T10:43:23Z</time>
      </trkpt>
      <trkpt lat="48.965464979410172" lon="10.127058997750282">
        <ele>429.85000000000002</ele>
        <time>2018-09-16T10:43:36Z</time>
      </trkpt>
      <trkpt lat="48.964525032788515" lon="10.127881010994315">
        <ele>432.25</ele>
        <time>2018-09-16T10:43:46Z</time>
      </trkpt>
      <trkpt lat="48.963816007599235" lon="10.128271020948887">
        <ele>432.73000000000002</ele>
        <time>2018-09-16T10:43:53Z</time>
      </trkpt>
      <trkpt lat="48.963621966540813" lon="10.128317037597299">
        <ele>432.73000000000002</ele>
        <time>2018-09-16T10:43:55Z</time>
      </trkpt>
      <trkpt lat="48.963497998192906" lon="10.128305973485112">
        <ele>432.73000000000002</ele>
        <time>2018-09-16T10:43:57Z</time>
      </trkpt>
      <trkpt lat="48.963454999029636" lon="10.128303039819002">
        <ele>432.73000000000002</ele>
        <time>2018-09-16T10:43:58Z</time>
      </trkpt>
      <trkpt lat="48.963416023179889" lon="10.12830002233386">
        <ele>432.73000000000002</ele>
        <time>2018-09-16T10:43:59Z</time>
      </trkpt>
      <trkpt lat="48.963387021794915" lon="10.128297004848719">
        <ele>432.73000000000002</ele>
        <time>2018-09-16T10:44:00Z</time>
      </trkpt>
      <trkpt lat="48.963361959904432" lon="10.128294993191957">
        <ele>432.73000000000002</ele>
        <time>2018-09-16T10:44:01Z</time>
      </trkpt>
      <trkpt lat="48.963343016803265" lon="10.128292981535196">
        <ele>432.25</ele>
        <time>2018-09-16T10:44:02Z</time>
      </trkpt>
      <trkpt lat="48.963314015418291" lon="10.128290969878435">
        <ele>431.76999999999998</ele>
        <time>2018-09-16T10:44:13Z</time>
      </trkpt>
      <trkpt lat="48.963274033740163" lon="10.128288036212325">
        <ele>431.76999999999998</ele>
        <time>2018-09-16T10:44:14Z</time>
      </trkpt>
      <trkpt lat="48.962586969137192" lon="10.128225004300475">
        <ele>431.29000000000002</ele>
        <time>2018-09-16T10:44:22Z</time>
      </trkpt>
      <trkpt lat="48.961545014753938" lon="10.128151997923851">
        <ele>431.76999999999998</ele>
        <time>2018-09-16T10:44:33Z</time>
      </trkpt>
      <trkpt lat="48.961368994787335" lon="10.128102041780949">
        <ele>431.76999999999998</ele>
        <time>2018-09-16T10:44:36Z</time>
      </trkpt>
      <trkpt lat="48.961300011724234" lon="10.128082009032369">
        <ele>431.76999999999998</ele>
        <time>2018-09-16T10:44:37Z</time>
      </trkpt>
      <trkpt lat="48.961223987862468" lon="10.128060970455408">
        <ele>432.25</ele>
        <time>2018-09-16T10:44:38Z</time>
      </trkpt>
      <trkpt lat="48.9604970254004" lon="10.127669032663107">
        <ele>435.13</ele>
        <time>2018-09-16T10:44:45Z</time>
      </trkpt>
      <trkpt lat="48.959578033536673" lon="10.127465017139912">
        <ele>439.45999999999998</ele>
        <time>2018-09-16T10:44:53Z</time>
      </trkpt>
      <trkpt lat="48.958979984745383" lon="10.12750600464642">
        <ele>440.42000000000002</ele>
        <time>2018-09-16T10:44:59Z</time>
      </trkpt>
      <trkpt lat="48.95832703448832" lon="10.12729000300169">
        <ele>438.01999999999998</ele>
        <time>2018-09-16T10:45:05Z</time>
      </trkpt>
      <trkpt lat="48.958224020898342" lon="10.127214984968305">
        <ele>437.54000000000002</ele>
        <time>2018-09-16T10:45:06Z</time>
      </trkpt>
      <trkpt lat="48.958127964287996" lon="10.127123035490513">
        <ele>437.54000000000002</ele>
        <time>2018-09-16T10:45:07Z</time>
      </trkpt>
      <trkpt lat="48.958034003153443" lon="10.127027984708548">
        <ele>437.54000000000002</ele>
        <time>2018-09-16T10:45:08Z</time>
      </trkpt>
      <trkpt lat="48.957939958199859" lon="10.126934023573995">
        <ele>437.54000000000002</ele>
        <time>2018-09-16T10:45:09Z</time>
      </trkpt>
      <trkpt lat="48.957866029813886" lon="10.126801002770662">
        <ele>437.06</ele>
        <time>2018-09-16T10:45:10Z</time>
      </trkpt>
      <trkpt lat="48.957794029265642" lon="10.126664964482188">
        <ele>437.06</ele>
        <time>2018-09-16T10:45:11Z</time>
      </trkpt>
      <trkpt lat="48.957728985697031" lon="10.126525992527604">
        <ele>437.06</ele>
        <time>2018-09-16T10:45:12Z</time>
      </trkpt>
      <trkpt lat="48.957681963220239" lon="10.126370005309582">
        <ele>437.06</ele>
        <time>2018-09-16T10:45:13Z</time>
      </trkpt>
      <trkpt lat="48.957634018734097" lon="10.126212006434798">
        <ele>436.57999999999998</ele>
        <time>2018-09-16T10:45:14Z</time>
      </trkpt>
      <trkpt lat="48.95759898237884" lon="10.126045038923621">
        <ele>437.06</ele>
        <time>2018-09-16T10:45:15Z</time>
      </trkpt>
      <trkpt lat="48.95757501013577" lon="10.12587396427989">
        <ele>436.57999999999998</ele>
        <time>2018-09-16T10:45:16Z</time>
      </trkpt>
      <trkpt lat="48.957546008750796" lon="10.125660980120301">
        <ele>436.57999999999998</ele>
        <time>2018-09-16T10:45:17Z</time>
      </trkpt>
      <trkpt lat="48.957456992939115" lon="10.1237459667027">
        <ele>436.57999999999998</ele>
        <time>2018-09-16T10:45:28Z</time>
      </trkpt>
      <trkpt lat="48.957394966855645" lon="10.123413037508726">
        <ele>436.57999999999998</ele>
        <time>2018-09-16T10:45:30Z</time>
      </trkpt>
      <trkpt lat="48.957350039854646" lon="10.123241962864995">
        <ele>437.06</ele>
        <time>2018-09-16T10:45:31Z</time>
      </trkpt>
      <trkpt lat="48.95671502687037" lon="10.121499029919505">
        <ele>438.98000000000002</ele>
        <time>2018-09-16T10:45:42Z</time>
      </trkpt>
      <trkpt lat="48.956209011375904" lon="10.119826002046466">
        <ele>440.89999999999998</ele>
        <time>2018-09-16T10:45:52Z</time>
      </trkpt>
      <trkpt lat="48.955958979204297" lon="10.118990996852517">
        <ele>439.94</ele>
        <time>2018-09-16T10:45:57Z</time>
      </trkpt>
      <trkpt lat="48.955819001421332" lon="10.118709029629827">
        <ele>438.98000000000002</ele>
        <time>2018-09-16T10:45:59Z</time>
      </trkpt>
      <trkpt lat="48.955742977559566" lon="10.118569973856211">
        <ele>438.5</ele>
        <time>2018-09-16T10:46:00Z</time>
      </trkpt>
      <trkpt lat="48.955662008374929" lon="10.118442988023162">
        <ele>438.01999999999998</ele>
        <time>2018-09-16T10:46:01Z</time>
      </trkpt>
      <trkpt lat="48.954724995419383" lon="10.117734968662262">
        <ele>435.61000000000001</ele>
        <time>2018-09-16T10:46:10Z</time>
      </trkpt>
      <trkpt lat="48.954616030678153" lon="10.117696998640895">
        <ele>435.61000000000001</ele>
        <time>2018-09-16T10:46:11Z</time>
      </trkpt>
      <trkpt lat="48.954505976289511" lon="10.117678977549076">
        <ele>435.13</ele>
        <time>2018-09-16T10:46:12Z</time>
      </trkpt>
      <trkpt lat="48.954387037083507" lon="10.117678977549076">
        <ele>435.13</ele>
        <time>2018-09-16T10:46:13Z</time>
      </trkpt>
      <trkpt lat="48.954272037371993" lon="10.117678977549076">
        <ele>434.64999999999998</ele>
        <time>2018-09-16T10:46:14Z</time>
      </trkpt>
      <trkpt lat="48.954157959669828" lon="10.117718037217855">
        <ele>434.64999999999998</ele>
        <time>2018-09-16T10:46:15Z</time>
      </trkpt>
      <trkpt lat="48.954042037948966" lon="10.117761958390474">
        <ele>434.64999999999998</ele>
        <time>2018-09-16T10:46:16Z</time>
      </trkpt>
      <trkpt lat="48.953925026580691" lon="10.117805963382125">
        <ele>434.64999999999998</ele>
        <time>2018-09-16T10:46:17Z</time>
      </trkpt>
      <trkpt lat="48.953809021040797" lon="10.117848962545395">
        <ele>434.64999999999998</ele>
        <time>2018-09-16T10:46:18Z</time>
      </trkpt>
      <trkpt lat="48.953697038814425" lon="10.117916017770767">
        <ele>434.64999999999998</ele>
        <time>2018-09-16T10:46:19Z</time>
      </trkpt>
      <trkpt lat="48.953592013567686" lon="10.118007967248559">
        <ele>434.17000000000002</ele>
        <time>2018-09-16T10:46:20Z</time>
      </trkpt>
      <trkpt lat="48.952953983098269" lon="10.118832997977734">
        <ele>434.17000000000002</ele>
        <time>2018-09-16T10:46:27Z</time>
      </trkpt>
      <trkpt lat="48.952524997293949" lon="10.119545962661505">
        <ele>434.64999999999998</ele>
        <time>2018-09-16T10:46:34Z</time>
      </trkpt>
      <trkpt lat="48.952524997293949" lon="10.119713013991714">
        <ele>435.13</ele>
        <time>2018-09-16T10:46:35Z</time>
      </trkpt>
      <trkpt lat="48.952528014779091" lon="10.120021970942616">
        <ele>435.13</ele>
        <time>2018-09-16T10:46:37Z</time>
      </trkpt>
      <trkpt lat="48.952470012009144" lon="10.120166977867484">
        <ele>434.64999999999998</ele>
        <time>2018-09-16T10:46:38Z</time>
      </trkpt>
      <trkpt lat="48.95190398208797" lon="10.121827013790607">
        <ele>434.17000000000002</ele>
        <time>2018-09-16T10:46:46Z</time>
      </trkpt>
      <trkpt lat="48.951050033792853" lon="10.123846968635917">
        <ele>434.64999999999998</ele>
        <time>2018-09-16T10:46:54Z</time>
      </trkpt>
      <trkpt lat="48.949945969507098" lon="10.125340037047863">
        <ele>433.20999999999998</ele>
        <time>2018-09-16T10:47:01Z</time>
      </trkpt>
      <trkpt lat="48.948557004332542" lon="10.126392971724272">
        <ele>433.20999999999998</ele>
        <time>2018-09-16T10:47:08Z</time>
      </trkpt>
      <trkpt lat="48.945834981277585" lon="10.128305973485112">
        <ele>434.17000000000002</ele>
        <time>2018-09-16T10:47:19Z</time>
      </trkpt>
      <trkpt lat="48.943409007042646" lon="10.130558023229241">
        <ele>434.64999999999998</ele>
        <time>2018-09-16T10:47:30Z</time>
      </trkpt>
      <trkpt lat="48.940198989585042" lon="10.134011032059789">
        <ele>436.10000000000002</ele>
        <time>2018-09-16T10:47:46Z</time>
      </trkpt>
      <trkpt lat="48.938210969790816" lon="10.13556101359427">
        <ele>437.54000000000002</ele>
        <time>2018-09-16T10:47:55Z</time>
      </trkpt>
      <trkpt lat="48.935579974204302" lon="10.136997001245618">
        <ele>439.94</ele>
        <time>2018-09-16T10:48:06Z</time>
      </trkpt>
      <trkpt lat="48.933952962979674" lon="10.138510018587112">
        <ele>441.86000000000001</ele>
        <time>2018-09-16T10:48:13Z</time>
      </trkpt>
      <trkpt lat="48.932697018608451" lon="10.140661988407373">
        <ele>441.86000000000001</ele>
        <time>2018-09-16T10:48:20Z</time>
      </trkpt>
      <trkpt lat="48.931926973164082" lon="10.143188964575529">
        <ele>442.33999999999997</ele>
        <time>2018-09-16T10:48:27Z</time>
      </trkpt>
      <trkpt lat="48.931058021262288" lon="10.145503040403128">
        <ele>442.81999999999999</ele>
        <time>2018-09-16T10:48:34Z</time>
      </trkpt>
      <trkpt lat="48.930305996909738" lon="10.146559998393059">
        <ele>443.31</ele>
        <time>2018-09-16T10:48:38Z</time>
      </trkpt>
      <trkpt lat="48.928907979279757" lon="10.147645035758615">
        <ele>444.75</ele>
        <time>2018-09-16T10:48:44Z</time>
      </trkpt>
      <trkpt lat="48.927276022732258" lon="10.147899007424712">
        <ele>444.75</ele>
        <time>2018-09-16T10:48:50Z</time>
      </trkpt>
      <trkpt lat="48.925672983750701" lon="10.147246979176998">
        <ele>445.23000000000002</ele>
        <time>2018-09-16T10:48:56Z</time>
      </trkpt>
      <trkpt lat="48.924299022182822" lon="10.145772015675902">
        <ele>446.67000000000002</ele>
        <time>2018-09-16T10:49:02Z</time>
      </trkpt>
      <trkpt lat="48.922092989087105" lon="10.143047980964184">
        <ele>448.11000000000001</ele>
        <time>2018-09-16T10:49:12Z</time>
      </trkpt>
      <trkpt lat="48.920538984239101" lon="10.142090013250709">
        <ele>448.58999999999997</ele>
        <time>2018-09-16T10:49:18Z</time>
      </trkpt>
      <trkpt lat="48.918651966378093" lon="10.141779966652393">
        <ele>449.06999999999999</ele>
        <time>2018-09-16T10:49:25Z</time>
      </trkpt>
      <trkpt lat="48.916940968483686" lon="10.142213981598616">
        <ele>449.06999999999999</ele>
        <time>2018-09-16T10:49:32Z</time>
      </trkpt>
      <trkpt lat="48.915418982505798" lon="10.143054015934467">
        <ele>449.06999999999999</ele>
        <time>2018-09-16T10:49:41Z</time>
      </trkpt>
      <trkpt lat="48.913519978523254" lon="10.14452101662755">
        <ele>448.58999999999997</ele>
        <time>2018-09-16T10:49:53Z</time>
      </trkpt>
      <trkpt lat="48.912235032767057" lon="10.145526006817818">
        <ele>447.14999999999998</ele>
        <time>2018-09-16T10:49:59Z</time>
      </trkpt>
      <trkpt lat="48.909235987812281" lon="10.147890960797668">
        <ele>451.95999999999998</ele>
        <time>2018-09-16T10:50:11Z</time>
      </trkpt>
      <trkpt lat="48.907423987984657" lon="10.149319991469383">
        <ele>457.72000000000003</ele>
        <time>2018-09-16T10:50:18Z</time>
      </trkpt>
      <trkpt lat="48.905025003477931" lon="10.150993019342422">
        <ele>465.42000000000002</ele>
        <time>2018-09-16T10:50:28Z</time>
      </trkpt>
      <trkpt lat="48.902894994243979" lon="10.152037991210818">
        <ele>472.13999999999999</ele>
        <time>2018-09-16T10:50:36Z</time>
      </trkpt>
      <trkpt lat="48.900079010054469" lon="10.152634028345346">
        <ele>478.38999999999999</ele>
        <time>2018-09-16T10:50:45Z</time>
      </trkpt>
      <trkpt lat="48.897798964753747" lon="10.152546018362045">
        <ele>484.16000000000003</ele>
        <time>2018-09-16T10:50:53Z</time>
      </trkpt>
      <trkpt lat="48.895377013832331" lon="10.151859037578106">
        <ele>487.05000000000001</ele>
        <time>2018-09-16T10:51:02Z</time>
      </trkpt>
      <trkpt lat="48.892338993027806" lon="10.150841977447271">
        <ele>490.88999999999999</ele>
        <time>2018-09-16T10:51:13Z</time>
      </trkpt>
      <trkpt lat="48.890881966799498" lon="10.15040896832943">
        <ele>492.32999999999998</ele>
        <time>2018-09-16T10:51:19Z</time>
      </trkpt>
      <trkpt lat="48.889389988034964" lon="10.150152985006571">
        <ele>493.76999999999998</ele>
        <time>2018-09-16T10:51:27Z</time>
      </trkpt>
      <trkpt lat="48.888512989506125" lon="10.150127001106739">
        <ele>494.74000000000001</ele>
        <time>2018-09-16T10:51:34Z</time>
      </trkpt>
      <trkpt lat="48.88828600756824" lon="10.150122977793217">
        <ele>495.69999999999999</ele>
        <time>2018-09-16T10:51:40Z</time>
      </trkpt>
      <trkpt lat="48.888211995363235" lon="10.150122977793217">
        <ele>496.18000000000001</ele>
        <time>2018-09-16T10:52:00Z</time>
      </trkpt>
      <trkpt lat="48.888151980936527" lon="10.150205036625266">
        <ele>495.69999999999999</ele>
        <time>2018-09-16T10:52:01Z</time>
      </trkpt>
      <trkpt lat="48.888151980936527" lon="10.150312995538116">
        <ele>495.22000000000003</ele>
        <time>2018-09-16T10:52:02Z</time>
      </trkpt>
      <trkpt lat="48.888151980936527" lon="10.15045003965497">
        <ele>495.69999999999999</ele>
        <time>2018-09-16T10:52:03Z</time>
      </trkpt>
      <trkpt lat="48.888150975108147" lon="10.15062396414578">
        <ele>495.69999999999999</ele>
        <time>2018-09-16T10:52:04Z</time>
      </trkpt>
      <trkpt lat="48.88796498067677" lon="10.15206397511065">
        <ele>497.62</ele>
        <time>2018-09-16T10:52:10Z</time>
      </trkpt>
      <trkpt lat="48.887470029294491" lon="10.154649037867785">
        <ele>501.45999999999998</ele>
        <time>2018-09-16T10:52:18Z</time>
      </trkpt>
      <trkpt lat="48.88667399995029" lon="10.158444028347731">
        <ele>510.12</ele>
        <time>2018-09-16T10:52:30Z</time>
      </trkpt>
      <trkpt lat="48.885978972539306" lon="10.161486994475126">
        <ele>512.03999999999996</ele>
        <time>2018-09-16T10:52:41Z</time>
      </trkpt>
      <trkpt lat="48.885248992592096" lon="10.1640510186553">
        <ele>507.23000000000002</ele>
        <time>2018-09-16T10:52:51Z</time>
      </trkpt>
      <trkpt lat="48.884466961026192" lon="10.166719984263182">
        <ele>502.91000000000003</ele>
        <time>2018-09-16T10:53:01Z</time>
      </trkpt>
      <trkpt lat="48.883432969450951" lon="10.17019403167069">
        <ele>499.54000000000002</ele>
        <time>2018-09-16T10:53:15Z</time>
      </trkpt>
      <trkpt lat="48.882496040314436" lon="10.173403965309262">
        <ele>498.57999999999998</ele>
        <time>2018-09-16T10:53:29Z</time>
      </trkpt>
      <trkpt lat="48.881929004564881" lon="10.175320990383625">
        <ele>498.10000000000002</ele>
        <time>2018-09-16T10:53:36Z</time>
      </trkpt>
      <trkpt lat="48.880926026031375" lon="10.178743992000818">
        <ele>497.13999999999999</ele>
        <time>2018-09-16T10:53:46Z</time>
      </trkpt>
      <trkpt lat="48.880151035264134" lon="10.181374987587333">
        <ele>492.81</ele>
        <time>2018-09-16T10:53:54Z</time>
      </trkpt>
      <trkpt lat="48.879652982577682" lon="10.183090008795261">
        <ele>491.37</ele>
        <time>2018-09-16T10:54:02Z</time>
      </trkpt>
      <trkpt lat="48.879124000668526" lon="10.184940984472632">
        <ele>492.32999999999998</ele>
        <time>2018-09-16T10:54:14Z</time>
      </trkpt>
      <trkpt lat="48.87851002626121" lon="10.187101000919938">
        <ele>490.88999999999999</ele>
        <time>2018-09-16T10:54:27Z</time>
      </trkpt>
      <trkpt lat="48.878134014084935" lon="10.189162027090788">
        <ele>493.29000000000002</ele>
        <time>2018-09-16T10:54:36Z</time>
      </trkpt>
      <trkpt lat="48.878071988001466" lon="10.191579032689333">
        <ele>496.18000000000001</ele>
        <time>2018-09-16T10:54:44Z</time>
      </trkpt>
      <trkpt lat="48.877992024645209" lon="10.194403985515237">
        <ele>492.81</ele>
        <time>2018-09-16T10:54:53Z</time>
      </trkpt>
      <trkpt lat="48.877420965582132" lon="10.196904977783561">
        <ele>487.05000000000001</ele>
        <time>2018-09-16T10:55:00Z</time>
      </trkpt>
      <trkpt lat="48.876188993453979" lon="10.201310003176332">
        <ele>487.52999999999997</ele>
        <time>2018-09-16T10:55:12Z</time>
      </trkpt>
      <trkpt lat="48.875176040455699" lon="10.204931991174817">
        <ele>489.93000000000001</ele>
        <time>2018-09-16T10:55:22Z</time>
      </trkpt>
      <trkpt lat="48.874094020575285" lon="10.208798982203007">
        <ele>491.85000000000002</ele>
        <time>2018-09-16T10:55:33Z</time>
      </trkpt>
      <trkpt lat="48.87311995960772" lon="10.212936960160732">
        <ele>493.29000000000002</ele>
        <time>2018-09-16T10:55:45Z</time>
      </trkpt>
      <trkpt lat="48.872855007648468" lon="10.216414025053382">
        <ele>494.74000000000001</ele>
        <time>2018-09-16T10:55:55Z</time>
      </trkpt>
      <trkpt lat="48.872694997116923" lon="10.219312990084291">
        <ele>498.57999999999998</ele>
        <time>2018-09-16T10:56:04Z</time>
      </trkpt>
      <trkpt lat="48.872595001012087" lon="10.221199002116919">
        <ele>499.54000000000002</ele>
        <time>2018-09-16T10:56:12Z</time>
      </trkpt>
      <trkpt lat="48.872582009062171" lon="10.221349038183689">
        <ele>499.54000000000002</ele>
        <time>2018-09-16T10:56:13Z</time>
      </trkpt>
      <trkpt lat="48.872571028769016" lon="10.221465965732932">
        <ele>499.54000000000002</ele>
        <time>2018-09-16T10:56:14Z</time>
      </trkpt>
      <trkpt lat="48.872444964945316" lon="10.221663024276495">
        <ele>500.01999999999998</ele>
        <time>2018-09-16T10:56:15Z</time>
      </trkpt>
      <trkpt lat="48.872444964945316" lon="10.221663024276495">
        <ele>500.01999999999998</ele>
        <time>2018-09-16T10:56:16Z</time>
      </trkpt>
      <trkpt lat="48.872324014082551" lon="10.221540983766317">
        <ele>500.01999999999998</ele>
        <time>2018-09-16T10:56:17Z</time>
      </trkpt>
      <trkpt lat="48.872257964685559" lon="10.221476024016738">
        <ele>500.01999999999998</ele>
        <time>2018-09-16T10:56:18Z</time>
      </trkpt>
      <trkpt lat="48.87217397801578" lon="10.221391031518579">
        <ele>500.5</ele>
        <time>2018-09-16T10:56:19Z</time>
      </trkpt>
      <trkpt lat="48.872076999396086" lon="10.221293969079852">
        <ele>501.45999999999998</ele>
        <time>2018-09-16T10:56:20Z</time>
      </trkpt>
      <trkpt lat="48.871867032721639" lon="10.221084002405405">
        <ele>502.91000000000003</ele>
        <time>2018-09-16T10:56:22Z</time>
      </trkpt>
      <trkpt lat="48.871759995818138" lon="10.221004039049149">
        <ele>503.87</ele>
        <time>2018-09-16T10:56:23Z</time>
      </trkpt>
      <trkpt lat="48.871640972793102" lon="10.220961039885879">
        <ele>504.35000000000002</ele>
        <time>2018-09-16T10:56:24Z</time>
      </trkpt>
      <trkpt lat="48.870727010071278" lon="10.220519984140992">
        <ele>509.16000000000003</ele>
        <time>2018-09-16T10:56:30Z</time>
      </trkpt>
      <trkpt lat="48.869547005742788" lon="10.219905003905296">
        <ele>521.64999999999998</ele>
        <time>2018-09-16T10:56:37Z</time>
      </trkpt>
      <trkpt lat="48.86939998716116" lon="10.219771983101964">
        <ele>524.05999999999995</ele>
        <time>2018-09-16T10:56:38Z</time>
      </trkpt>
      <trkpt lat="48.869265960529447" lon="10.219632005318999">
        <ele>525.98000000000002</ele>
        <time>2018-09-16T10:56:39Z</time>
      </trkpt>
      <trkpt lat="48.868910986930132" lon="10.219239983707666">
        <ele>532.71000000000004</ele>
        <time>2018-09-16T10:56:42Z</time>
      </trkpt>
      <trkpt lat="48.868802022188902" lon="10.219118027016521">
        <ele>535.11000000000001</ele>
        <time>2018-09-16T10:56:43Z</time>
      </trkpt>
      <trkpt lat="48.868675958365202" lon="10.219039991497993">
        <ele>537.02999999999997</ele>
        <time>2018-09-16T10:56:44Z</time>
      </trkpt>
      <trkpt lat="48.868534974753857" lon="10.218992969021201">
        <ele>538.96000000000004</ele>
        <time>2018-09-16T10:56:45Z</time>
      </trkpt>
      <trkpt lat="48.868389967828989" lon="10.218985006213188">
        <ele>540.88</ele>
        <time>2018-09-16T10:56:46Z</time>
      </trkpt>
      <trkpt lat="48.868238003924489" lon="10.218991963192821">
        <ele>542.79999999999995</ele>
        <time>2018-09-16T10:56:47Z</time>
      </trkpt>
      <trkpt lat="48.868082016706467" lon="10.218999003991485">
        <ele>545.20000000000005</ele>
        <time>2018-09-16T10:56:48Z</time>
      </trkpt>
      <trkpt lat="48.867922006174922" lon="10.219035968184471">
        <ele>547.13</ele>
        <time>2018-09-16T10:56:49Z</time>
      </trkpt>
      <trkpt lat="48.867440968751907" lon="10.219229003414512">
        <ele>552.89999999999998</ele>
        <time>2018-09-16T10:56:52Z</time>
      </trkpt>
      <trkpt lat="48.867118014022708" lon="10.219393037259579">
        <ele>556.25999999999999</ele>
        <time>2018-09-16T10:56:54Z</time>
      </trkpt>
      <trkpt lat="48.866976024582982" lon="10.219528991729021">
        <ele>558.17999999999995</ele>
        <time>2018-09-16T10:56:55Z</time>
      </trkpt>
      <trkpt lat="48.866833029314876" lon="10.219664024189115">
        <ele>560.11000000000001</ele>
        <time>2018-09-16T10:56:56Z</time>
      </trkpt>
      <trkpt lat="48.865809012204409" lon="10.220506992191076">
        <ele>575.97000000000003</ele>
        <time>2018-09-16T10:57:03Z</time>
      </trkpt>
      <trkpt lat="48.865688983350992" lon="10.22066499106586">
        <ele>578.85000000000002</ele>
        <time>2018-09-16T10:57:04Z</time>
      </trkpt>
      <trkpt lat="48.865057993680239" lon="10.221647014841437">
        <ele>593.26999999999998</ele>
        <time>2018-09-16T10:57:11Z</time>
      </trkpt>
      <trkpt lat="48.86495104059577" lon="10.221879025921226">
        <ele>598.08000000000004</ele>
        <time>2018-09-16T10:57:14Z</time>
      </trkpt>
      <trkpt lat="48.864911980926991" lon="10.221978016197681">
        <ele>599.51999999999998</ele>
        <time>2018-09-16T10:57:15Z</time>
      </trkpt>
      <trkpt lat="48.864907035604119" lon="10.222111037001014">
        <ele>600.96000000000004</ele>
        <time>2018-09-16T10:57:16Z</time>
      </trkpt>
      <trkpt lat="48.86493100784719" lon="10.222240034490824">
        <ele>602.39999999999998</ele>
        <time>2018-09-16T10:57:17Z</time>
      </trkpt>
      <trkpt lat="48.864984987303615" lon="10.222372971475124">
        <ele>603.85000000000002</ele>
        <time>2018-09-16T10:57:18Z</time>
      </trkpt>
      <trkpt lat="48.865041984245181" lon="10.222499035298824">
        <ele>604.80999999999995</ele>
        <time>2018-09-16T10:57:19Z</time>
      </trkpt>
      <trkpt lat="48.86516603641212" lon="10.222573969513178">
        <ele>605.76999999999998</ele>
        <time>2018-09-16T10:57:20Z</time>
      </trkpt>
      <trkpt lat="48.865288998931646" lon="10.222647981718183">
        <ele>607.21000000000004</ele>
        <time>2018-09-16T10:57:21Z</time>
      </trkpt>
      <trkpt lat="48.865421013906598" lon="10.222698021680117">
        <ele>608.64999999999998</ele>
        <time>2018-09-16T10:57:22Z</time>
      </trkpt>
      <trkpt lat="48.865569038316607" lon="10.222712019458413">
        <ele>609.61000000000001</ele>
        <time>2018-09-16T10:57:23Z</time>
      </trkpt>
      <trkpt lat="48.865716978907585" lon="10.22272702306509">
        <ele>611.05999999999995</ele>
        <time>2018-09-16T10:57:24Z</time>
      </trkpt>
      <trkpt lat="48.865851005539298" lon="10.222740015015006">
        <ele>612.5</ele>
        <time>2018-09-16T10:57:25Z</time>
      </trkpt>
      <trkpt lat="48.866029037162662" lon="10.222757030278444">
        <ele>614.89999999999998</ele>
        <time>2018-09-16T10:57:27Z</time>
      </trkpt>
      <trkpt lat="48.866066001355648" lon="10.222830958664417">
        <ele>615.38</ele>
        <time>2018-09-16T10:57:28Z</time>
      </trkpt>
      <trkpt lat="48.86609198525548" lon="10.222883010283113">
        <ele>615.38</ele>
        <time>2018-09-16T10:57:29Z</time>
      </trkpt>
      <trkpt lat="48.866114029660821" lon="10.222926009446383">
        <ele>615.86000000000001</ele>
        <time>2018-09-16T10:57:30Z</time>
      </trkpt>
      <trkpt lat="48.866131966933608" lon="10.222962973639369">
        <ele>616.82000000000005</ele>
        <time>2018-09-16T10:57:31Z</time>
      </trkpt>
      <trkpt lat="48.86613498441875" lon="10.223094988614321">
        <ele>617.29999999999995</ele>
        <time>2018-09-16T10:57:32Z</time>
      </trkpt>
      <trkpt lat="48.866088967770338" lon="10.223133964464068">
        <ele>617.77999999999997</ele>
        <time>2018-09-16T10:57:33Z</time>
      </trkpt>
      <trkpt lat="48.8660270255059" lon="10.223187021911144">
        <ele>618.25999999999999</ele>
        <time>2018-09-16T10:57:34Z</time>
      </trkpt>
      <trkpt lat="48.865951001644135" lon="10.223250975832343">
        <ele>618.75</ele>
        <time>2018-09-16T10:57:35Z</time>
      </trkpt>
      <trkpt lat="48.865853017196059" lon="10.223317025229335">
        <ele>619.23000000000002</ele>
        <time>2018-09-16T10:57:36Z</time>
      </trkpt>
      <trkpt lat="48.865033015608788" lon="10.2237160038203">
        <ele>623.54999999999995</ele>
        <time>2018-09-16T10:57:42Z</time>
      </trkpt>
      <trkpt lat="48.863569032400846" lon="10.224049016833305">
        <ele>631.24000000000001</ele>
        <time>2018-09-16T10:57:51Z</time>
      </trkpt>
      <trkpt lat="48.862776020541787" lon="10.22412596270442">
        <ele>634.13</ele>
        <time>2018-09-16T10:57:58Z</time>
      </trkpt>
      <trkpt lat="48.861732976511121" lon="10.22433802485466">
        <ele>636.04999999999995</ele>
        <time>2018-09-16T10:58:07Z</time>
      </trkpt>
      <trkpt lat="48.861612025648355" lon="10.224364008754492">
        <ele>636.04999999999995</ele>
        <time>2018-09-16T10:58:08Z</time>
      </trkpt>
      <trkpt lat="48.861122019588947" lon="10.224387980997562">
        <ele>635.09000000000003</ele>
        <time>2018-09-16T10:58:12Z</time>
      </trkpt>
      <trkpt lat="48.860996039584279" lon="10.224369037896395">
        <ele>634.61000000000001</ele>
        <time>2018-09-16T10:58:13Z</time>
      </trkpt>
      <trkpt lat="48.860756987705827" lon="10.224275998771191">
        <ele>633.16999999999996</ele>
        <time>2018-09-16T10:58:15Z</time>
      </trkpt>
      <trkpt lat="48.860647017136216" lon="10.224196035414934">
        <ele>632.67999999999995</ele>
        <time>2018-09-16T10:58:16Z</time>
      </trkpt>
      <trkpt lat="48.860429003834724" lon="10.224038036540151">
        <ele>631.72000000000003</ele>
        <time>2018-09-16T10:58:18Z</time>
      </trkpt>
      <trkpt lat="48.859649989753962" lon="10.223141005262733">
        <ele>626.91999999999996</ele>
        <time>2018-09-16T10:58:26Z</time>
      </trkpt>
      <trkpt lat="48.859443962574005" lon="10.222982000559568">
        <ele>625.47000000000003</ele>
        <time>2018-09-16T10:58:28Z</time>
      </trkpt>
      <trkpt lat="48.859334997832775" lon="10.222902959212661">
        <ele>624.50999999999999</ele>
        <time>2018-09-16T10:58:29Z</time>
      </trkpt>
      <trkpt lat="48.859226033091545" lon="10.222822995856404">
        <ele>623.54999999999995</ele>
        <time>2018-09-16T10:58:30Z</time>
      </trkpt>
      <trkpt lat="48.858240991830826" lon="10.222236011177301">
        <ele>619.71000000000004</ele>
        <time>2018-09-16T10:58:39Z</time>
      </trkpt>
      <trkpt lat="48.857283024117351" lon="10.221513994038105">
        <ele>622.11000000000001</ele>
        <time>2018-09-16T10:58:48Z</time>
      </trkpt>
      <trkpt lat="48.856701990589499" lon="10.220587039366364">
        <ele>626.91999999999996</ele>
        <time>2018-09-16T10:58:55Z</time>
      </trkpt>
      <trkpt lat="48.85575600899756" lon="10.218505980446935">
        <ele>636.04999999999995</ele>
        <time>2018-09-16T10:59:09Z</time>
      </trkpt>
      <trkpt lat="48.855680990964174" lon="10.218372959643602">
        <ele>636.52999999999997</ele>
        <time>2018-09-16T10:59:10Z</time>
      </trkpt>
      <trkpt lat="48.855587029829621" lon="10.218268018215895">
        <ele>637.49000000000001</ele>
        <time>2018-09-16T10:59:11Z</time>
      </trkpt>
      <trkpt lat="48.855492984876037" lon="10.218163998797536">
        <ele>638.45000000000005</ele>
        <time>2018-09-16T10:59:12Z</time>
      </trkpt>
      <trkpt lat="48.855397012084723" lon="10.218057967722416">
        <ele>639.40999999999997</ele>
        <time>2018-09-16T10:59:13Z</time>
      </trkpt>
      <trkpt lat="48.855301039293408" lon="10.217950008809566">
        <ele>639.88999999999999</ele>
        <time>2018-09-16T10:59:14Z</time>
      </trkpt>
      <trkpt lat="48.85414500720799" lon="10.21714098751545">
        <ele>651.42999999999995</ele>
        <time>2018-09-16T10:59:25Z</time>
      </trkpt>
      <trkpt lat="48.852784959599376" lon="10.216361973434687">
        <ele>666.33000000000004</ele>
        <time>2018-09-16T10:59:37Z</time>
      </trkpt>
      <trkpt lat="48.852434009313583" lon="10.216191988438368">
        <ele>670.17999999999995</ele>
        <time>2018-09-16T10:59:40Z</time>
      </trkpt>
      <trkpt lat="48.851447962224483" lon="10.215901974588633">
        <ele>676.41999999999996</ele>
        <time>2018-09-16T10:59:46Z</time>
      </trkpt>
      <trkpt lat="48.849658006802201" lon="10.215439964085817">
        <ele>682.19000000000005</ele>
        <time>2018-09-16T10:59:54Z</time>
      </trkpt>
      <trkpt lat="48.847160032019019" lon="10.214193994179368">
        <ele>684.12</ele>
        <time>2018-09-16T11:00:05Z</time>
      </trkpt>
      <trkpt lat="48.844729028642178" lon="10.213006027042866">
        <ele>673.53999999999996</ele>
        <time>2018-09-16T11:00:15Z</time>
      </trkpt>
      <trkpt lat="48.84310101158917" lon="10.212309993803501">
        <ele>668.73000000000002</ele>
        <time>2018-09-16T11:00:22Z</time>
      </trkpt>
      <trkpt lat="48.84151398204267" lon="10.212490037083626">
        <ele>668.73000000000002</ele>
        <time>2018-09-16T11:00:29Z</time>
      </trkpt>
      <trkpt lat="48.839384978637099" lon="10.212917011231184">
        <ele>667.28999999999996</ele>
        <time>2018-09-16T11:00:38Z</time>
      </trkpt>
      <trkpt lat="48.837008960545063" lon="10.213131001219153">
        <ele>664.40999999999997</ele>
        <time>2018-09-16T11:00:48Z</time>
      </trkpt>
      <trkpt lat="48.83461601100862" lon="10.21299697458744">
        <ele>660.08000000000004</ele>
        <time>2018-09-16T11:00:58Z</time>
      </trkpt>
      <trkpt lat="48.831705981865525" lon="10.212148977443576">
        <ele>651.42999999999995</ele>
        <time>2018-09-16T11:01:10Z</time>
      </trkpt>
      <trkpt lat="48.829489974305034" lon="10.210935026407242">
        <ele>633.64999999999998</ele>
        <time>2018-09-16T11:01:19Z</time>
      </trkpt>
      <trkpt lat="48.827751986682415" lon="10.209222016856074">
        <ele>619.23000000000002</ele>
        <time>2018-09-16T11:01:27Z</time>
      </trkpt>
      <trkpt lat="48.826286997646093" lon="10.207305997610092">
        <ele>611.05999999999995</ele>
        <time>2018-09-16T11:01:36Z</time>
      </trkpt>
      <trkpt lat="48.826017016544938" lon="10.206998968496919">
        <ele>610.09000000000003</ele>
        <time>2018-09-16T11:01:38Z</time>
      </trkpt>
      <trkpt lat="48.825889024883509" lon="10.206870976835489">
        <ele>609.61000000000001</ele>
        <time>2018-09-16T11:01:39Z</time>
      </trkpt>
      <trkpt lat="48.825648967176676" lon="10.20674399100244">
        <ele>609.13</ele>
        <time>2018-09-16T11:01:41Z</time>
      </trkpt>
      <trkpt lat="48.825544025748968" lon="10.206687999889255">
        <ele>608.64999999999998</ele>
        <time>2018-09-16T11:01:42Z</time>
      </trkpt>
      <trkpt lat="48.825435983017087" lon="10.206670984625816">
        <ele>608.16999999999996</ele>
        <time>2018-09-16T11:01:43Z</time>
      </trkpt>
      <trkpt lat="48.825337998569012" lon="10.20665698684752">
        <ele>607.69000000000005</ele>
        <time>2018-09-16T11:01:44Z</time>
      </trkpt>
      <trkpt lat="48.825238002464175" lon="10.206641983240843">
        <ele>607.69000000000005</ele>
        <time>2018-09-16T11:01:45Z</time>
      </trkpt>
      <trkpt lat="48.825134988874197" lon="10.206664027646184">
        <ele>607.21000000000004</ele>
        <time>2018-09-16T11:01:46Z</time>
      </trkpt>
      <trkpt lat="48.824229994788766" lon="10.206857984885573">
        <ele>610.57000000000005</ele>
        <time>2018-09-16T11:01:54Z</time>
      </trkpt>
      <trkpt lat="48.824111977592111" lon="10.206882962957025">
        <ele>611.05999999999995</ele>
        <time>2018-09-16T11:01:55Z</time>
      </trkpt>
      <trkpt lat="48.823995972052217" lon="10.206887992098927">
        <ele>611.05999999999995</ele>
        <time>2018-09-16T11:01:56Z</time>
      </trkpt>
      <trkpt lat="48.823878960683942" lon="10.206852033734322">
        <ele>611.05999999999995</ele>
        <time>2018-09-16T11:01:57Z</time>
      </trkpt>
      <trkpt lat="48.823773013427854" lon="10.206779027357697">
        <ele>611.05999999999995</ele>
        <time>2018-09-16T11:01:58Z</time>
      </trkpt>
      <trkpt lat="48.823662037029862" lon="10.206701997667551">
        <ele>611.05999999999995</ele>
        <time>2018-09-16T11:01:59Z</time>
      </trkpt>
      <trkpt lat="48.822439033538103" lon="10.205929018557072">
        <ele>608.64999999999998</ele>
        <time>2018-09-16T11:02:10Z</time>
      </trkpt>
      <trkpt lat="48.821243019774556" lon="10.205762973055243">
        <ele>607.69000000000005</ele>
        <time>2018-09-16T11:02:20Z</time>
      </trkpt>
      <trkpt lat="48.820052035152912" lon="10.205893982201815">
        <ele>608.64999999999998</ele>
        <time>2018-09-16T11:02:27Z</time>
      </trkpt>
      <trkpt lat="48.818106008693576" lon="10.206130016595125">
        <ele>611.05999999999995</ele>
        <time>2018-09-16T11:02:36Z</time>
      </trkpt>
      <trkpt lat="48.816270036622882" lon="10.205835979431868">
        <ele>612.98000000000002</ele>
        <time>2018-09-16T11:02:46Z</time>
      </trkpt>
      <trkpt lat="48.81461201235652" lon="10.205016983672976">
        <ele>608.64999999999998</ele>
        <time>2018-09-16T11:02:53Z</time>
      </trkpt>
      <trkpt lat="48.812716025859118" lon="10.203674035146832">
        <ele>598.55999999999995</ele>
        <time>2018-09-16T11:03:01Z</time>
      </trkpt>
      <trkpt lat="48.812305983155966" lon="10.20309098996222">
        <ele>597.12</ele>
        <time>2018-09-16T11:03:03Z</time>
      </trkpt>
      <trkpt lat="48.812114037573338" lon="10.202757976949215">
        <ele>596.63999999999999</ele>
        <time>2018-09-16T11:03:04Z</time>
      </trkpt>
      <trkpt lat="48.811931982636452" lon="10.202408032491803">
        <ele>597.12</ele>
        <time>2018-09-16T11:03:05Z</time>
      </trkpt>
      <trkpt lat="48.811771972104907" lon="10.202020034193993">
        <ele>598.08000000000004</ele>
        <time>2018-09-16T11:03:06Z</time>
      </trkpt>
      <trkpt lat="48.811612967401743" lon="10.201620971783996">
        <ele>599.03999999999996</ele>
        <time>2018-09-16T11:03:07Z</time>
      </trkpt>
      <trkpt lat="48.811497967690229" lon="10.201192991808057">
        <ele>600</ele>
        <time>2018-09-16T11:03:08Z</time>
      </trkpt>
      <trkpt lat="48.810372026637197" lon="10.197005979716778">
        <ele>616.82000000000005</ele>
        <time>2018-09-16T11:03:18Z</time>
      </trkpt>
      <trkpt lat="48.809600975364447" lon="10.195393972098827">
        <ele>623.07000000000005</ele>
        <time>2018-09-16T11:03:24Z</time>
      </trkpt>
      <trkpt lat="48.808676032349467" lon="10.194493001326919">
        <ele>623.54999999999995</ele>
        <time>2018-09-16T11:03:30Z</time>
      </trkpt>
      <trkpt lat="48.808097010478377" lon="10.194159988313913">
        <ele>623.07000000000005</ele>
        <time>2018-09-16T11:03:36Z</time>
      </trkpt>
      <trkpt lat="48.808050993829966" lon="10.194135010242462">
        <ele>623.07000000000005</ele>
        <time>2018-09-16T11:03:37Z</time>
      </trkpt>
      <trkpt lat="48.807990979403257" lon="10.194210028275847">
        <ele>623.07000000000005</ele>
        <time>2018-09-16T11:03:38Z</time>
      </trkpt>
      <trkpt lat="48.807977987453341" lon="10.194286974146962">
        <ele>623.07000000000005</ele>
        <time>2018-09-16T11:03:39Z</time>
      </trkpt>
      <trkpt lat="48.807960972189903" lon="10.194387976080179">
        <ele>623.07000000000005</ele>
        <time>2018-09-16T11:03:40Z</time>
      </trkpt>
      <trkpt lat="48.807938005775213" lon="10.194523008540273">
        <ele>623.07000000000005</ele>
        <time>2018-09-16T11:03:41Z</time>
      </trkpt>
      <trkpt lat="48.80790900439024" lon="10.194696011021733">
        <ele>623.07000000000005</ele>
        <time>2018-09-16T11:03:42Z</time>
      </trkpt>
      <trkpt lat="48.80769400857389" lon="10.195973999798298">
        <ele>619.71000000000004</ele>
        <time>2018-09-16T11:03:47Z</time>
      </trkpt>
      <trkpt lat="48.807167038321495" lon="10.199053008109331">
        <ele>611.53999999999996</ele>
        <time>2018-09-16T11:03:56Z</time>
      </trkpt>
      <trkpt lat="48.806689018383622" lon="10.202475003898144">
        <ele>603.36000000000001</ele>
        <time>2018-09-16T11:04:05Z</time>
      </trkpt>
      <trkpt lat="48.806526996195316" lon="10.205567004159093">
        <ele>596.63999999999999</ele>
        <time>2018-09-16T11:04:13Z</time>
      </trkpt>
      <trkpt lat="48.806461030617356" lon="10.208335965871811">
        <ele>591.35000000000002</ele>
        <time>2018-09-16T11:04:22Z</time>
      </trkpt>
      <trkpt lat="48.806291967630386" lon="10.211759973317385">
        <ele>585.10000000000002</ele>
        <time>2018-09-16T11:04:34Z</time>
      </trkpt>
      <trkpt lat="48.805888965725899" lon="10.214471016079187">
        <ele>583.65999999999997</ele>
        <time>2018-09-16T11:04:42Z</time>
      </trkpt>
      <trkpt lat="48.805237021297216" lon="10.217568967491388">
        <ele>586.05999999999995</ele>
        <time>2018-09-16T11:04:50Z</time>
      </trkpt>
      <trkpt lat="48.804145026952028" lon="10.221129013225436">
        <ele>581.25</ele>
        <time>2018-09-16T11:05:01Z</time>
      </trkpt>
      <trkpt lat="48.803243972361088" lon="10.223561022430658">
        <ele>575.97000000000003</ele>
        <time>2018-09-16T11:05:09Z</time>
      </trkpt>
      <trkpt lat="48.802318023517728" lon="10.226007029414177">
        <ele>570.67999999999995</ele>
        <time>2018-09-16T11:05:15Z</time>
      </trkpt>
      <trkpt lat="48.801397019997239" lon="10.228419005870819">
        <ele>569.24000000000001</ele>
        <time>2018-09-16T11:05:22Z</time>
      </trkpt>
      <trkpt lat="48.80049797706306" lon="10.231155026704073">
        <ele>575.00999999999999</ele>
        <time>2018-09-16T11:05:30Z</time>
      </trkpt>
      <trkpt lat="48.800133028998971" lon="10.233136005699635">
        <ele>578.85000000000002</ele>
        <time>2018-09-16T11:05:35Z</time>
      </trkpt>
      <trkpt lat="48.800107967108488" lon="10.23643302731216">
        <ele>589.42999999999995</ele>
        <time>2018-09-16T11:05:42Z</time>
      </trkpt>
      <trkpt lat="48.800069997087121" lon="10.240687010809779">
        <ele>597.12</ele>
        <time>2018-09-16T11:05:51Z</time>
      </trkpt>
      <trkpt lat="48.799597006291151" lon="10.244316961616278">
        <ele>604.33000000000004</ele>
        <time>2018-09-16T11:05:59Z</time>
      </trkpt>
      <trkpt lat="48.798879012465477" lon="10.249440986663103">
        <ele>604.33000000000004</ele>
        <time>2018-09-16T11:06:11Z</time>
      </trkpt>
      <trkpt lat="48.798600984737277" lon="10.251575019210577">
        <ele>603.36000000000001</ele>
        <time>2018-09-16T11:06:18Z</time>
      </trkpt>
      <trkpt lat="48.798227990046144" lon="10.253572007641196">
        <ele>602.39999999999998</ele>
        <time>2018-09-16T11:06:24Z</time>
      </trkpt>
      <trkpt lat="48.797374041751027" lon="10.256452029570937">
        <ele>602.88</ele>
        <time>2018-09-16T11:06:32Z</time>
      </trkpt>
      <trkpt lat="48.796966010704637" lon="10.258051967248321">
        <ele>604.33000000000004</ele>
        <time>2018-09-16T11:06:38Z</time>
      </trkpt>
      <trkpt lat="48.79669401794672" lon="10.25949097238481">
        <ele>606.73000000000002</ele>
        <time>2018-09-16T11:06:46Z</time>
      </trkpt>
      <trkpt lat="48.796668034046888" lon="10.259642014279962">
        <ele>606.73000000000002</ele>
        <time>2018-09-16T11:06:47Z</time>
      </trkpt>
      <trkpt lat="48.796609025448561" lon="10.25976900011301">
        <ele>606.73000000000002</ele>
        <time>2018-09-16T11:06:48Z</time>
      </trkpt>
      <trkpt lat="48.796535013243556" lon="10.259864972904325">
        <ele>606.73000000000002</ele>
        <time>2018-09-16T11:06:49Z</time>
      </trkpt>
      <trkpt lat="48.79645898938179" lon="10.25996396318078">
        <ele>606.73000000000002</ele>
        <time>2018-09-16T11:06:50Z</time>
      </trkpt>
      <trkpt lat="48.79637299105525" lon="10.260024983435869">
        <ele>606.73000000000002</ele>
        <time>2018-09-16T11:06:51Z</time>
      </trkpt>
      <trkpt lat="48.796281041577458" lon="10.260078040882945">
        <ele>607.21000000000004</ele>
        <time>2018-09-16T11:06:52Z</time>
      </trkpt>
      <trkpt lat="48.796189008280635" lon="10.260130008682609">
        <ele>606.73000000000002</ele>
        <time>2018-09-16T11:06:53Z</time>
      </trkpt>
      <trkpt lat="48.796095969155431" lon="10.260163033381104">
        <ele>606.73000000000002</ele>
        <time>2018-09-16T11:06:54Z</time>
      </trkpt>
      <trkpt lat="48.796002008020878" lon="10.260174013674259">
        <ele>606.25</ele>
        <time>2018-09-16T11:06:55Z</time>
      </trkpt>
      <trkpt lat="48.795086033642292" lon="10.26021902449429">
        <ele>604.33000000000004</ele>
        <time>2018-09-16T11:07:05Z</time>
      </trkpt>
      <trkpt lat="48.794898027554154" lon="10.260278033092618">
        <ele>605.76999999999998</ele>
        <time>2018-09-16T11:07:07Z</time>
      </trkpt>
      <trkpt lat="48.794731982052326" lon="10.260411975905299">
        <ele>606.73000000000002</ele>
        <time>2018-09-16T11:07:09Z</time>
      </trkpt>
      <trkpt lat="48.794568032026291" lon="10.260569974780083">
        <ele>607.21000000000004</ele>
        <time>2018-09-16T11:07:11Z</time>
      </trkpt>
      <trkpt lat="48.794500976800919" lon="10.260678017511964">
        <ele>607.21000000000004</ele>
        <time>2018-09-16T11:07:12Z</time>
      </trkpt>
      <trkpt lat="48.794436017051339" lon="10.260784970596433">
        <ele>607.69000000000005</ele>
        <time>2018-09-16T11:07:13Z</time>
      </trkpt>
      <trkpt lat="48.794371979311109" lon="10.260889995843172">
        <ele>608.16999999999996</ele>
        <time>2018-09-16T11:07:14Z</time>
      </trkpt>
      <trkpt lat="48.794334009289742" lon="10.261011030524969">
        <ele>608.16999999999996</ele>
        <time>2018-09-16T11:07:15Z</time>
      </trkpt>
      <trkpt lat="48.794298972934484" lon="10.26114497333765">
        <ele>608.64999999999998</ele>
        <time>2018-09-16T11:07:16Z</time>
      </trkpt>
      <trkpt lat="48.794263014569879" lon="10.261281011626124">
        <ele>608.64999999999998</ele>
        <time>2018-09-16T11:07:17Z</time>
      </trkpt>
      <trkpt lat="48.794146003201604" lon="10.261853998526931">
        <ele>608.64999999999998</ele>
        <time>2018-09-16T11:07:21Z</time>
      </trkpt>
      <trkpt lat="48.794146003201604" lon="10.262007974088192">
        <ele>608.64999999999998</ele>
        <time>2018-09-16T11:07:22Z</time>
      </trkpt>
      <trkpt lat="48.794146003201604" lon="10.262159015983343">
        <ele>608.16999999999996</ele>
        <time>2018-09-16T11:07:23Z</time>
      </trkpt>
      <trkpt lat="48.794146003201604" lon="10.2623460162431">
        <ele>608.16999999999996</ele>
        <time>2018-09-16T11:07:24Z</time>
      </trkpt>
      <trkpt lat="48.7941600009799" lon="10.262457998469472">
        <ele>608.16999999999996</ele>
        <time>2018-09-16T11:07:25Z</time>
      </trkpt>
      <trkpt lat="48.794229989871383" lon="10.263038026168942">
        <ele>608.16999999999996</ele>
        <time>2018-09-16T11:07:29Z</time>
      </trkpt>
      <trkpt lat="48.794220015406609" lon="10.263166017830372">
        <ele>608.16999999999996</ele>
        <time>2018-09-16T11:07:30Z</time>
      </trkpt>
      <trkpt lat="48.794207023456693" lon="10.26329099200666">
        <ele>608.16999999999996</ele>
        <time>2018-09-16T11:07:31Z</time>
      </trkpt>
      <trkpt lat="48.794195037335157" lon="10.263409009203315">
        <ele>608.64999999999998</ele>
        <time>2018-09-16T11:07:32Z</time>
      </trkpt>
      <trkpt lat="48.79415899515152" lon="10.263497019186616">
        <ele>608.16999999999996</ele>
        <time>2018-09-16T11:07:33Z</time>
      </trkpt>
      <trkpt lat="48.794095041230321" lon="10.263572037220001">
        <ele>607.69000000000005</ele>
        <time>2018-09-16T11:07:34Z</time>
      </trkpt>
      <trkpt lat="48.794023962691426" lon="10.263626016676426">
        <ele>608.16999999999996</ele>
        <time>2018-09-16T11:07:35Z</time>
      </trkpt>
      <trkpt lat="48.793934024870396" lon="10.263659041374922">
        <ele>608.64999999999998</ele>
        <time>2018-09-16T11:07:36Z</time>
      </trkpt>
      <trkpt lat="48.793834028765559" lon="10.263697011396289">
        <ele>609.13</ele>
        <time>2018-09-16T11:07:37Z</time>
      </trkpt>
      <trkpt lat="48.793049985542893" lon="10.264154998585582">
        <ele>609.61000000000001</ele>
        <time>2018-09-16T11:07:45Z</time>
      </trkpt>
      <trkpt lat="48.792969016358256" lon="10.264251977205276">
        <ele>609.61000000000001</ele>
        <time>2018-09-16T11:07:46Z</time>
      </trkpt>
      <trkpt lat="48.792887963354588" lon="10.264349961653352">
        <ele>609.61000000000001</ele>
        <time>2018-09-16T11:07:47Z</time>
      </trkpt>
      <trkpt lat="48.792648995295167" lon="10.264653973281384">
        <ele>608.64999999999998</ele>
        <time>2018-09-16T11:07:50Z</time>
      </trkpt>
      <trkpt lat="48.79257095977664" lon="10.264754975214601">
        <ele>609.13</ele>
        <time>2018-09-16T11:07:51Z</time>
      </trkpt>
      <trkpt lat="48.792478004470468" lon="10.264811972156167">
        <ele>609.13</ele>
        <time>2018-09-16T11:07:52Z</time>
      </trkpt>
      <trkpt lat="48.792383037507534" lon="10.264870980754495">
        <ele>609.13</ele>
        <time>2018-09-16T11:07:53Z</time>
      </trkpt>
      <trkpt lat="48.792285975068808" lon="10.264927977696061">
        <ele>608.64999999999998</ele>
        <time>2018-09-16T11:07:54Z</time>
      </trkpt>
      <trkpt lat="48.791245026513934" lon="10.265411026775837">
        <ele>606.73000000000002</ele>
        <time>2018-09-16T11:08:04Z</time>
      </trkpt>
      <trkpt lat="48.789808033034205" lon="10.266009997576475">
        <ele>600</ele>
        <time>2018-09-16T11:08:16Z</time>
      </trkpt>
      <trkpt lat="48.788297027349472" lon="10.266774008050561">
        <ele>594.23000000000002</ele>
        <time>2018-09-16T11:08:26Z</time>
      </trkpt>
      <trkpt lat="48.786722989752889" lon="10.267702974379063">
        <ele>592.30999999999995</ele>
        <time>2018-09-16T11:08:36Z</time>
      </trkpt>
      <trkpt lat="48.785778013989329" lon="10.268270010128617">
        <ele>595.19000000000005</ele>
        <time>2018-09-16T11:08:41Z</time>
      </trkpt>
      <trkpt lat="48.785600988194346" lon="10.268429014831781">
        <ele>595.66999999999996</ele>
        <time>2018-09-16T11:08:42Z</time>
      </trkpt>
      <trkpt lat="48.785445000976324" lon="10.268631018698215">
        <ele>596.63999999999999</ele>
        <time>2018-09-16T11:08:43Z</time>
      </trkpt>
      <trkpt lat="48.785295970737934" lon="10.268860012292862">
        <ele>597.12</ele>
        <time>2018-09-16T11:08:44Z</time>
      </trkpt>
      <trkpt lat="48.785164039582014" lon="10.269118007272482">
        <ele>598.08000000000004</ele>
        <time>2018-09-16T11:08:45Z</time>
      </trkpt>
      <trkpt lat="48.785049961879849" lon="10.269408021122217">
        <ele>598.08000000000004</ele>
        <time>2018-09-16T11:08:46Z</time>
      </trkpt>
      <trkpt lat="48.784934962168336" lon="10.269711026921868">
        <ele>598.55999999999995</ele>
        <time>2018-09-16T11:08:47Z</time>
      </trkpt>
      <trkpt lat="48.784854998812079" lon="10.270044961944222">
        <ele>599.03999999999996</ele>
        <time>2018-09-16T11:08:48Z</time>
      </trkpt>
      <trkpt lat="48.784774029627442" lon="10.270390966907144">
        <ele>599.03999999999996</ele>
        <time>2018-09-16T11:08:49Z</time>
      </trkpt>
      <trkpt lat="48.784118983894587" lon="10.272461967542768">
        <ele>600.48000000000002</ele>
        <time>2018-09-16T11:08:55Z</time>
      </trkpt>
      <trkpt lat="48.783948998898268" lon="10.272754998877645">
        <ele>600.96000000000004</ele>
        <time>2018-09-16T11:08:56Z</time>
      </trkpt>
      <trkpt lat="48.783767027780414" lon="10.273030009120703">
        <ele>601.44000000000005</ele>
        <time>2018-09-16T11:08:57Z</time>
      </trkpt>
      <trkpt lat="48.783572986721992" lon="10.273284986615181">
        <ele>601.44000000000005</ele>
        <time>2018-09-16T11:08:58Z</time>
      </trkpt>
      <trkpt lat="48.78337299451232" lon="10.273521021008492">
        <ele>601.91999999999996</ele>
        <time>2018-09-16T11:08:59Z</time>
      </trkpt>
      <trkpt lat="48.783153975382447" lon="10.273720007389784">
        <ele>601.91999999999996</ele>
        <time>2018-09-16T11:09:00Z</time>
      </trkpt>
      <trkpt lat="48.782935040071607" lon="10.273910025134683">
        <ele>601.91999999999996</ele>
        <time>2018-09-16T11:09:01Z</time>
      </trkpt>
      <trkpt lat="48.780809976160526" lon="10.275328997522593">
        <ele>597.60000000000002</ele>
        <time>2018-09-16T11:09:10Z</time>
      </trkpt>
      <trkpt lat="48.778611989691854" lon="10.277542993426323">
        <ele>582.22000000000003</ele>
        <time>2018-09-16T11:09:20Z</time>
      </trkpt>
      <trkpt lat="48.776366980746388" lon="10.280576990917325">
        <ele>567.32000000000005</ele>
        <time>2018-09-16T11:09:31Z</time>
      </trkpt>
      <trkpt lat="48.774055000394583" lon="10.284358989447355">
        <ele>562.50999999999999</ele>
        <time>2018-09-16T11:09:43Z</time>
      </trkpt>
      <trkpt lat="48.771122004836798" lon="10.289404978975654">
        <ele>553.86000000000001</ele>
        <time>2018-09-16T11:09:59Z</time>
      </trkpt>
      <trkpt lat="48.768653031438589" lon="10.292660007253289">
        <ele>542.79999999999995</ele>
        <time>2018-09-16T11:10:11Z</time>
      </trkpt>
      <trkpt lat="48.765877028927207" lon="10.295718982815742">
        <ele>538.48000000000002</ele>
        <time>2018-09-16T11:10:24Z</time>
      </trkpt>
      <trkpt lat="48.764811018481851" lon="10.296887001022696">
        <ele>537.50999999999999</ele>
        <time>2018-09-16T11:10:31Z</time>
      </trkpt>
      <trkpt lat="48.763191970065236" lon="10.29878499917686">
        <ele>535.11000000000001</ele>
        <time>2018-09-16T11:10:42Z</time>
      </trkpt>
      <trkpt lat="48.761878022924066" lon="10.30095499008894">
        <ele>531.75</ele>
        <time>2018-09-16T11:10:51Z</time>
      </trkpt>
      <trkpt lat="48.760676980018616" lon="10.303687993437052">
        <ele>526.46000000000004</ele>
        <time>2018-09-16T11:11:00Z</time>
      </trkpt>
      <trkpt lat="48.758956007659435" lon="10.30774399638176">
        <ele>523.09000000000003</ele>
        <time>2018-09-16T11:11:13Z</time>
      </trkpt>
      <trkpt lat="48.757800981402397" lon="10.310273990035057">
        <ele>520.69000000000005</ele>
        <time>2018-09-16T11:11:23Z</time>
      </trkpt>
      <trkpt lat="48.75656196847558" lon="10.312752015888691">
        <ele>517.33000000000004</ele>
        <time>2018-09-16T11:11:33Z</time>
      </trkpt>
      <trkpt lat="48.756119990721345" lon="10.314459996297956">
        <ele>511.56</ele>
        <time>2018-09-16T11:11:40Z</time>
      </trkpt>
      <trkpt lat="48.75583098269999" lon="10.315875029191375">
        <ele>505.79000000000002</ele>
        <time>2018-09-16T11:11:47Z</time>
      </trkpt>
      <trkpt lat="48.755780020728707" lon="10.316033028066158">
        <ele>504.82999999999998</ele>
        <time>2018-09-16T11:11:48Z</time>
      </trkpt>
      <trkpt lat="48.755705002695322" lon="10.316151967272162">
        <ele>504.35000000000002</ele>
        <time>2018-09-16T11:11:49Z</time>
      </trkpt>
      <trkpt lat="48.755645994096994" lon="10.316248023882508">
        <ele>503.87</ele>
        <time>2018-09-16T11:11:50Z</time>
      </trkpt>
      <trkpt lat="48.755598971620202" lon="10.316322958096862">
        <ele>503.38999999999999</ele>
        <time>2018-09-16T11:11:51Z</time>
      </trkpt>
      <trkpt lat="48.755541974678636" lon="10.31638003885746">
        <ele>502.91000000000003</ele>
        <time>2018-09-16T11:11:52Z</time>
      </trkpt>
      <trkpt lat="48.755484977737069" lon="10.316388001665473">
        <ele>502.43000000000001</ele>
        <time>2018-09-16T11:11:53Z</time>
      </trkpt>
      <trkpt lat="48.755435021594167" lon="10.316394958645105">
        <ele>501.45999999999998</ele>
        <time>2018-09-16T11:11:54Z</time>
      </trkpt>
      <trkpt lat="48.755392022430897" lon="10.316400993615389">
        <ele>500.98000000000002</ele>
        <time>2018-09-16T11:11:55Z</time>
      </trkpt>
      <trkpt lat="48.755277022719383" lon="10.316264033317566">
        <ele>500.5</ele>
        <time>2018-09-16T11:11:56Z</time>
      </trkpt>
      <trkpt lat="48.755281968042254" lon="10.316193960607052">
        <ele>500.01999999999998</ele>
        <time>2018-09-16T11:11:57Z</time>
      </trkpt>
      <trkpt lat="48.75529202632606" lon="10.316091030836105">
        <ele>500.01999999999998</ele>
        <time>2018-09-16T11:11:58Z</time>
      </trkpt>
      <trkpt lat="48.755307029932737" lon="10.315966978669167">
        <ele>499.54000000000002</ele>
        <time>2018-09-16T11:11:59Z</time>
      </trkpt>
      <trkpt lat="48.755409037694335" lon="10.314732994884253">
        <ele>499.06</ele>
        <time>2018-09-16T11:12:05Z</time>
      </trkpt>
      <trkpt lat="48.755561001598835" lon="10.312748998403549">
        <ele>498.10000000000002</ele>
        <time>2018-09-16T11:12:11Z</time>
      </trkpt>
      <trkpt lat="48.755826959386468" lon="10.308692995458841">
        <ele>498.57999999999998</ele>
        <time>2018-09-16T11:12:21Z</time>
      </trkpt>
      <trkpt lat="48.755994010716677" lon="10.301872976124287">
        <ele>501.94999999999999</ele>
        <time>2018-09-16T11:12:37Z</time>
      </trkpt>
      <trkpt lat="48.755960986018181" lon="10.29582099057734">
        <ele>503.38999999999999</ele>
        <time>2018-09-16T11:12:51Z</time>
      </trkpt>
      <trkpt lat="48.755473997443914" lon="10.292922025546432">
        <ele>504.82999999999998</ele>
        <time>2018-09-16T11:12:58Z</time>
      </trkpt>
      <trkpt lat="48.754651984199882" lon="10.289200963452458">
        <ele>505.31</ele>
        <time>2018-09-16T11:13:08Z</time>
      </trkpt>
      <trkpt lat="48.753891997039318" lon="10.285590961575508">
        <ele>506.26999999999998</ele>
        <time>2018-09-16T11:13:18Z</time>
      </trkpt>
      <trkpt lat="48.752816012129188" lon="10.280870022252202">
        <ele>505.31</ele>
        <time>2018-09-16T11:13:30Z</time>
      </trkpt>
      <trkpt lat="48.751524025574327" lon="10.275843981653452">
        <ele>506.26999999999998</ele>
        <time>2018-09-16T11:13:43Z</time>
      </trkpt>
      <trkpt lat="48.750213012099266" lon="10.270506972447038">
        <ele>508.67000000000002</ele>
        <time>2018-09-16T11:13:57Z</time>
      </trkpt>
      <trkpt lat="48.749775979667902" lon="10.267642959952354">
        <ele>509.16000000000003</ele>
        <time>2018-09-16T11:14:05Z</time>
      </trkpt>
      <trkpt lat="48.7497069966048" lon="10.267345989122987">
        <ele>509.16000000000003</ele>
        <time>2018-09-16T11:14:06Z</time>
      </trkpt>
      <trkpt lat="48.749617980793118" lon="10.267078019678593">
        <ele>509.16000000000003</ele>
        <time>2018-09-16T11:14:07Z</time>
      </trkpt>
      <trkpt lat="48.749498035758734" lon="10.266819018870592">
        <ele>509.16000000000003</ele>
        <time>2018-09-16T11:14:08Z</time>
      </trkpt>
      <trkpt lat="48.749364009127021" lon="10.266551971435547">
        <ele>509.16000000000003</ele>
        <time>2018-09-16T11:14:09Z</time>
      </trkpt>
      <trkpt lat="48.74921003356576" lon="10.26632197201252">
        <ele>509.16000000000003</ele>
        <time>2018-09-16T11:14:10Z</time>
      </trkpt>
      <trkpt lat="48.74904197640717" lon="10.266080992296338">
        <ele>509.16000000000003</ele>
        <time>2018-09-16T11:14:11Z</time>
      </trkpt>
      <trkpt lat="48.748694965615869" lon="10.265540024265647">
        <ele>509.63999999999999</ele>
        <time>2018-09-16T11:14:13Z</time>
      </trkpt>
      <trkpt lat="48.748527998104692" lon="10.265216985717416">
        <ele>509.63999999999999</ele>
        <time>2018-09-16T11:14:14Z</time>
      </trkpt>
      <trkpt lat="48.747286973521113" lon="10.262526981532574">
        <ele>514.44000000000005</ele>
        <time>2018-09-16T11:14:22Z</time>
      </trkpt>
      <trkpt lat="48.747110031545162" lon="10.262280972674489">
        <ele>514.91999999999996</ele>
        <time>2018-09-16T11:14:23Z</time>
      </trkpt>
      <trkpt lat="48.746923031285405" lon="10.262021971866488">
        <ele>515.39999999999998</ele>
        <time>2018-09-16T11:14:24Z</time>
      </trkpt>
      <trkpt lat="48.746729996055365" lon="10.261757019907236">
        <ele>515.88</ele>
        <time>2018-09-16T11:14:25Z</time>
      </trkpt>
      <trkpt lat="48.746501002460718" lon="10.26155199855566">
        <ele>516.37</ele>
        <time>2018-09-16T11:14:26Z</time>
      </trkpt>
      <trkpt lat="48.746255999431014" lon="10.261385031044483">
        <ele>516.85000000000002</ele>
        <time>2018-09-16T11:14:27Z</time>
      </trkpt>
      <trkpt lat="48.745998004451394" lon="10.261263996362686">
        <ele>517.33000000000004</ele>
        <time>2018-09-16T11:14:28Z</time>
      </trkpt>
      <trkpt lat="48.745729029178619" lon="10.261196019127965">
        <ele>517.80999999999995</ele>
        <time>2018-09-16T11:14:29Z</time>
      </trkpt>
      <trkpt lat="48.745463993400335" lon="10.261129969730973">
        <ele>518.28999999999996</ele>
        <time>2018-09-16T11:14:30Z</time>
      </trkpt>
      <trkpt lat="48.74519401229918" lon="10.261156037449837">
        <ele>519.25</ele>
        <time>2018-09-16T11:14:31Z</time>
      </trkpt>
      <trkpt lat="48.744923025369644" lon="10.261191995814443">
        <ele>520.21000000000004</ele>
        <time>2018-09-16T11:14:32Z</time>
      </trkpt>
      <trkpt lat="48.744652038440108" lon="10.26127397082746">
        <ele>520.69000000000005</ele>
        <time>2018-09-16T11:14:33Z</time>
      </trkpt>
      <trkpt lat="48.744391025975347" lon="10.261395005509257">
        <ele>521.64999999999998</ele>
        <time>2018-09-16T11:14:34Z</time>
      </trkpt>
      <trkpt lat="48.744134958833456" lon="10.261540012434125">
        <ele>522.13</ele>
        <time>2018-09-16T11:14:35Z</time>
      </trkpt>
      <trkpt lat="48.743890961632133" lon="10.261719971895218">
        <ele>522.61000000000001</ele>
        <time>2018-09-16T11:14:36Z</time>
      </trkpt>
      <trkpt lat="48.743660962209105" lon="10.261933961883187">
        <ele>523.58000000000004</ele>
        <time>2018-09-16T11:14:37Z</time>
      </trkpt>
      <trkpt lat="48.743436997756362" lon="10.262158010154963">
        <ele>524.05999999999995</ele>
        <time>2018-09-16T11:14:38Z</time>
      </trkpt>
      <trkpt lat="48.74321898445487" lon="10.262401001527905">
        <ele>524.53999999999996</ele>
        <time>2018-09-16T11:14:39Z</time>
      </trkpt>
      <trkpt lat="48.741877041757107" lon="10.264415005221963">
        <ele>528.86000000000001</ele>
        <time>2018-09-16T11:14:46Z</time>
      </trkpt>
      <trkpt lat="48.74089702963829" lon="10.265579000115395">
        <ele>531.26999999999998</ele>
        <time>2018-09-16T11:14:51Z</time>
      </trkpt>
      <trkpt lat="48.740671975538135" lon="10.265707997605205">
        <ele>532.23000000000002</ele>
        <time>2018-09-16T11:14:52Z</time>
      </trkpt>
      <trkpt lat="48.740442981943488" lon="10.265801036730409">
        <ele>532.71000000000004</ele>
        <time>2018-09-16T11:14:53Z</time>
      </trkpt>
      <trkpt lat="48.740207031369209" lon="10.26584898121655">
        <ele>533.19000000000005</ele>
        <time>2018-09-16T11:14:54Z</time>
      </trkpt>
      <trkpt lat="48.73997300863266" lon="10.265898015350103">
        <ele>534.14999999999998</ele>
        <time>2018-09-16T11:14:55Z</time>
      </trkpt>
      <trkpt lat="48.739734962582588" lon="10.265890974551439">
        <ele>534.63</ele>
        <time>2018-09-16T11:14:56Z</time>
      </trkpt>
      <trkpt lat="48.739498006179929" lon="10.26587001979351">
        <ele>535.11000000000001</ele>
        <time>2018-09-16T11:14:57Z</time>
      </trkpt>
      <trkpt lat="48.73926498927176" lon="10.265795001760125">
        <ele>536.07000000000005</ele>
        <time>2018-09-16T11:14:58Z</time>
      </trkpt>
      <trkpt lat="48.739029038697481" lon="10.265705985948443">
        <ele>536.54999999999995</ele>
        <time>2018-09-16T11:14:59Z</time>
      </trkpt>
      <trkpt lat="48.738127984106541" lon="10.265287980437279">
        <ele>540.39999999999998</ele>
        <time>2018-09-16T11:15:04Z</time>
      </trkpt>
      <trkpt lat="48.737216033041477" lon="10.264938035979867">
        <ele>543.75999999999999</ele>
        <time>2018-09-16T11:15:12Z</time>
      </trkpt>
      <trkpt lat="48.736048014834523" lon="10.26471097022295">
        <ele>548.09000000000003</ele>
        <time>2018-09-16T11:15:23Z</time>
      </trkpt>
      <trkpt lat="48.735039001330733" lon="10.264521958306432">
        <ele>550.00999999999999</ele>
        <time>2018-09-16T11:15:33Z</time>
      </trkpt>
      <trkpt lat="48.734536003321409" lon="10.264234961941838">
        <ele>551.45000000000005</ele>
        <time>2018-09-16T11:15:38Z</time>
      </trkpt>
      <trkpt lat="48.734454028308392" lon="10.264127003028989">
        <ele>551.92999999999995</ele>
        <time>2018-09-16T11:15:39Z</time>
      </trkpt>
      <trkpt lat="48.734371969476342" lon="10.264018960297108">
        <ele>551.92999999999995</ele>
        <time>2018-09-16T11:15:40Z</time>
      </trkpt>
      <trkpt lat="48.733604019507766" lon="10.262917997315526">
        <ele>555.77999999999997</ele>
        <time>2018-09-16T11:15:50Z</time>
      </trkpt>
      <trkpt lat="48.733523972332478" lon="10.262828981503844">
        <ele>555.77999999999997</ele>
        <time>2018-09-16T11:15:51Z</time>
      </trkpt>
      <trkpt lat="48.732583019882441" lon="10.26236898265779">
        <ele>558.65999999999997</ele>
        <time>2018-09-16T11:16:00Z</time>
      </trkpt>
      <trkpt lat="48.731490019708872" lon="10.262310979887843">
        <ele>561.54999999999995</ele>
        <time>2018-09-16T11:16:06Z</time>
      </trkpt>
      <trkpt lat="48.729849010705948" lon="10.262062037363648">
        <ele>564.42999999999995</ele>
        <time>2018-09-16T11:16:13Z</time>
      </trkpt>
      <trkpt lat="48.728455016389489" lon="10.261328034102917">
        <ele>571.15999999999997</ele>
        <time>2018-09-16T11:16:19Z</time>
      </trkpt>
      <trkpt lat="48.727542981505394" lon="10.260730991140008">
        <ele>575.00999999999999</ele>
        <time>2018-09-16T11:16:23Z</time>
      </trkpt>
      <trkpt lat="48.727292027324438" lon="10.260690003633499">
        <ele>575.49000000000001</ele>
        <time>2018-09-16T11:16:24Z</time>
      </trkpt>
      <trkpt lat="48.725515985861421" lon="10.260259006172419">
        <ele>580.28999999999996</ele>
        <time>2018-09-16T11:16:31Z</time>
      </trkpt>
      <trkpt lat="48.725279029458761" lon="10.260143000632524">
        <ele>581.25</ele>
        <time>2018-09-16T11:16:32Z</time>
      </trkpt>
      <trkpt lat="48.725040983408689" lon="10.259996987879276">
        <ele>582.22000000000003</ele>
        <time>2018-09-16T11:16:33Z</time>
      </trkpt>
      <trkpt lat="48.724822970107198" lon="10.25978903286159">
        <ele>583.17999999999995</ele>
        <time>2018-09-16T11:16:34Z</time>
      </trkpt>
      <trkpt lat="48.724604034796357" lon="10.259580994024873">
        <ele>584.13999999999999</ele>
        <time>2018-09-16T11:16:35Z</time>
      </trkpt>
      <trkpt lat="48.724404964596033" lon="10.259335990995169">
        <ele>585.10000000000002</ele>
        <time>2018-09-16T11:16:36Z</time>
      </trkpt>
      <trkpt lat="48.72420497238636" lon="10.259090987965465">
        <ele>585.58000000000004</ele>
        <time>2018-09-16T11:16:37Z</time>
      </trkpt>
      <trkpt lat="48.724017972126603" lon="10.258812960237265">
        <ele>586.05999999999995</ele>
        <time>2018-09-16T11:16:38Z</time>
      </trkpt>
      <trkpt lat="48.723839018493891" lon="10.258514983579516">
        <ele>586.53999999999996</ele>
        <time>2018-09-16T11:16:39Z</time>
      </trkpt>
      <trkpt lat="48.723682025447488" lon="10.25817702524364">
        <ele>587.01999999999998</ele>
        <time>2018-09-16T11:16:40Z</time>
      </trkpt>
      <trkpt lat="48.723526038229465" lon="10.257823979482055">
        <ele>587.98000000000002</ele>
        <time>2018-09-16T11:16:41Z</time>
      </trkpt>
      <trkpt lat="48.722628001123667" lon="10.255190972238779">
        <ele>592.78999999999996</ele>
        <time>2018-09-16T11:16:48Z</time>
      </trkpt>
      <trkpt lat="48.721655029803514" lon="10.253505958244205">
        <ele>597.60000000000002</ele>
        <time>2018-09-16T11:16:54Z</time>
      </trkpt>
      <trkpt lat="48.71977798640728" lon="10.251386007294059">
        <ele>599.03999999999996</ele>
        <time>2018-09-16T11:17:03Z</time>
      </trkpt>
      <trkpt lat="48.717067027464509" lon="10.248826006427407">
        <ele>587.5</ele>
        <time>2018-09-16T11:17:15Z</time>
      </trkpt>
      <trkpt lat="48.714656978845596" lon="10.24717602878809">
        <ele>573.08000000000004</ele>
        <time>2018-09-16T11:17:25Z</time>
      </trkpt>
      <trkpt lat="48.713027033954859" lon="10.246972013264894">
        <ele>565.38999999999999</ele>
        <time>2018-09-16T11:17:31Z</time>
      </trkpt>
      <trkpt lat="48.710069982334971" lon="10.246477983891964">
        <ele>555.77999999999997</ele>
        <time>2018-09-16T11:17:42Z</time>
      </trkpt>
      <trkpt lat="48.70781198143959" lon="10.245628980919719">
        <ele>552.89999999999998</ele>
        <time>2018-09-16T11:17:51Z</time>
      </trkpt>
      <trkpt lat="48.706553019583225" lon="10.245027998462319">
        <ele>552.89999999999998</ele>
        <time>2018-09-16T11:17:58Z</time>
      </trkpt>
      <trkpt lat="48.705939967185259" lon="10.244700014591217">
        <ele>552.89999999999998</ele>
        <time>2018-09-16T11:18:03Z</time>
      </trkpt>
      <trkpt lat="48.705848017707467" lon="10.244472026824951">
        <ele>553.38</ele>
        <time>2018-09-16T11:18:04Z</time>
      </trkpt>
      <trkpt lat="48.705705022439361" lon="10.244400026276708">
        <ele>553.86000000000001</ele>
        <time>2018-09-16T11:18:07Z</time>
      </trkpt>
      <trkpt lat="48.705676021054387" lon="10.244407989084721">
        <ele>553.86000000000001</ele>
        <time>2018-09-16T11:18:08Z</time>
      </trkpt>
      <trkpt lat="48.705502012744546" lon="10.24451301433146">
        <ele>553.86000000000001</ele>
        <time>2018-09-16T11:18:09Z</time>
      </trkpt>
      <trkpt lat="48.705386007204652" lon="10.244487030431628">
        <ele>553.86000000000001</ele>
        <time>2018-09-16T11:18:10Z</time>
      </trkpt>
      <trkpt lat="48.705259021371603" lon="10.244460040703416">
        <ele>553.86000000000001</ele>
        <time>2018-09-16T11:18:11Z</time>
      </trkpt>
      <trkpt lat="48.704206002876163" lon="10.244075981900096">
        <ele>553.38</ele>
        <time>2018-09-16T11:18:20Z</time>
      </trkpt>
      <trkpt lat="48.703054999932647" lon="10.243534008041024">
        <ele>554.82000000000005</ele>
        <time>2018-09-16T11:18:30Z</time>
      </trkpt>
      <trkpt lat="48.701646002009511" lon="10.243134023621678">
        <ele>556.74000000000001</ele>
        <time>2018-09-16T11:18:43Z</time>
      </trkpt>
      <trkpt lat="48.700960027053952" lon="10.242894971743226">
        <ele>559.13999999999999</ele>
        <time>2018-09-16T11:18:53Z</time>
      </trkpt>
      <trkpt lat="48.700885009020567" lon="10.242863036692142">
        <ele>559.62</ele>
        <time>2018-09-16T11:18:54Z</time>
      </trkpt>
      <trkpt lat="48.700652997940779" lon="10.242748036980629">
        <ele>560.59000000000003</ele>
        <time>2018-09-16T11:18:57Z</time>
      </trkpt>
      <trkpt lat="48.700498016551137" lon="10.242648962885141">
        <ele>560.59000000000003</ele>
        <time>2018-09-16T11:18:59Z</time>
      </trkpt>
      <trkpt lat="48.700027959421277" lon="10.242326008155942">
        <ele>559.13999999999999</ele>
        <time>2018-09-16T11:19:05Z</time>
      </trkpt>
      <trkpt lat="48.699951013550162" lon="10.242272028699517">
        <ele>559.13999999999999</ele>
        <time>2018-09-16T11:19:06Z</time>
      </trkpt>
      <trkpt lat="48.699822016060352" lon="10.242186030372977">
        <ele>559.13999999999999</ele>
        <time>2018-09-16T11:19:08Z</time>
      </trkpt>
      <trkpt lat="48.699557986110449" lon="10.242004981264472">
        <ele>558.65999999999997</ele>
        <time>2018-09-16T11:19:13Z</time>
      </trkpt>
      <trkpt lat="48.699511969462037" lon="10.241972962394357">
        <ele>558.65999999999997</ele>
        <time>2018-09-16T11:19:14Z</time>
      </trkpt>
      <trkpt lat="48.699433011934161" lon="10.241887969896197">
        <ele>558.65999999999997</ele>
        <time>2018-09-16T11:19:15Z</time>
      </trkpt>
      <trkpt lat="48.699436029419303" lon="10.241790991276503">
        <ele>558.65999999999997</ele>
        <time>2018-09-16T11:19:16Z</time>
      </trkpt>
      <trkpt lat="48.699439968913794" lon="10.24167699739337">
        <ele>558.65999999999997</ele>
        <time>2018-09-16T11:19:17Z</time>
      </trkpt>
      <trkpt lat="48.699443992227316" lon="10.241557974368334">
        <ele>558.65999999999997</ele>
        <time>2018-09-16T11:19:18Z</time>
      </trkpt>
      <trkpt lat="48.699448015540838" lon="10.241451021283865">
        <ele>558.17999999999995</ele>
        <time>2018-09-16T11:19:19Z</time>
      </trkpt>
      <trkpt lat="48.699423037469387" lon="10.241282964125276">
        <ele>558.17999999999995</ele>
        <time>2018-09-16T11:19:20Z</time>
      </trkpt>
      <trkpt lat="48.699357993900776" lon="10.241253962740302">
        <ele>557.70000000000005</ele>
        <time>2018-09-16T11:19:21Z</time>
      </trkpt>
      <trkpt lat="48.69928197003901" lon="10.241220016032457">
        <ele>557.70000000000005</ele>
        <time>2018-09-16T11:19:22Z</time>
      </trkpt>
      <trkpt lat="48.699209969490767" lon="10.241166036576033">
        <ele>558.17999999999995</ele>
        <time>2018-09-16T11:19:23Z</time>
      </trkpt>
      <trkpt lat="48.699136963114142" lon="10.241100993007421">
        <ele>558.65999999999997</ele>
        <time>2018-09-16T11:19:24Z</time>
      </trkpt>
      <trkpt lat="48.698508990928531" lon="10.240230029448867">
        <ele>563.95000000000005</ele>
        <time>2018-09-16T11:19:34Z</time>
      </trkpt>
      <trkpt lat="48.698452999815345" lon="10.240148976445198">
        <ele>563.95000000000005</ele>
        <time>2018-09-16T11:19:35Z</time>
      </trkpt>
      <trkpt lat="48.698405977338552" lon="10.240055015310645">
        <ele>563.95000000000005</ele>
        <time>2018-09-16T11:19:36Z</time>
      </trkpt>
      <trkpt lat="48.698359960690141" lon="10.23995703086257">
        <ele>563.95000000000005</ele>
        <time>2018-09-16T11:19:37Z</time>
      </trkpt>
      <trkpt lat="48.698317967355251" lon="10.239870026707649">
        <ele>563.95000000000005</ele>
        <time>2018-09-16T11:19:38Z</time>
      </trkpt>
      <trkpt lat="48.698199028149247" lon="10.239617982879281">
        <ele>564.42999999999995</ele>
        <time>2018-09-16T11:19:41Z</time>
      </trkpt>
      <trkpt lat="48.698158040642738" lon="10.23952997289598">
        <ele>564.42999999999995</ele>
        <time>2018-09-16T11:19:42Z</time>
      </trkpt>
      <trkpt lat="48.698115963488817" lon="10.23944104090333">
        <ele>564.90999999999997</ele>
        <time>2018-09-16T11:19:43Z</time>
      </trkpt>
      <trkpt lat="48.698078999295831" lon="10.239356970414519">
        <ele>564.90999999999997</ele>
        <time>2018-09-16T11:19:44Z</time>
      </trkpt>
      <trkpt lat="48.698068019002676" lon="10.23924901150167">
        <ele>564.90999999999997</ele>
        <time>2018-09-16T11:19:45Z</time>
      </trkpt>
      <trkpt lat="48.697951007634401" lon="10.238120974972844">
        <ele>568.27999999999997</ele>
        <time>2018-09-16T11:19:56Z</time>
      </trkpt>
      <trkpt lat="48.697854029014707" lon="10.237883012741804">
        <ele>568.75999999999999</ele>
        <time>2018-09-16T11:19:58Z</time>
      </trkpt>
      <trkpt lat="48.697812035679817" lon="10.237782010808587">
        <ele>569.24000000000001</ele>
        <time>2018-09-16T11:19:59Z</time>
      </trkpt>
      <trkpt lat="48.697782028466463" lon="10.237740017473698">
        <ele>570.20000000000005</ele>
        <time>2018-09-16T11:20:00Z</time>
      </trkpt>
      <trkpt lat="48.69771396741271" lon="10.237683020532131">
        <ele>570.67999999999995</ele>
        <time>2018-09-16T11:20:01Z</time>
      </trkpt>
      <trkpt lat="48.69764699600637" lon="10.237627029418945">
        <ele>571.63999999999999</ele>
        <time>2018-09-16T11:20:02Z</time>
      </trkpt>
      <trkpt lat="48.697543982416391" lon="10.237541031092405">
        <ele>572.12</ele>
        <time>2018-09-16T11:20:03Z</time>
      </trkpt>
      <trkpt lat="48.696590038016438" lon="10.237339027225971">
        <ele>581.73000000000002</ele>
        <time>2018-09-16T11:20:15Z</time>
      </trkpt>
      <trkpt lat="48.696417035534978" lon="10.237263003364205">
        <ele>583.65999999999997</ele>
        <time>2018-09-16T11:20:17Z</time>
      </trkpt>
      <trkpt lat="48.696320978924632" lon="10.237218998372555">
        <ele>584.62</ele>
        <time>2018-09-16T11:20:18Z</time>
      </trkpt>
      <trkpt lat="48.696256019175053" lon="10.237130988389254">
        <ele>585.10000000000002</ele>
        <time>2018-09-16T11:20:19Z</time>
      </trkpt>
      <trkpt lat="48.696116963401437" lon="10.236940970644355">
        <ele>586.53999999999996</ele>
        <time>2018-09-16T11:20:21Z</time>
      </trkpt>
      <trkpt lat="48.696047980338335" lon="10.236847009509802">
        <ele>587.01999999999998</ele>
        <time>2018-09-16T11:20:22Z</time>
      </trkpt>
      <trkpt lat="48.695976985618472" lon="10.236749025061727">
        <ele>587.5</ele>
        <time>2018-09-16T11:20:23Z</time>
      </trkpt>
      <trkpt lat="48.695913031697273" lon="10.236662020906806">
        <ele>587.5</ele>
        <time>2018-09-16T11:20:24Z</time>
      </trkpt>
      <trkpt lat="48.695824015885592" lon="10.236598988994956">
        <ele>587.5</ele>
        <time>2018-09-16T11:20:25Z</time>
      </trkpt>
      <trkpt lat="48.695729970932007" lon="10.236532017588615">
        <ele>587.5</ele>
        <time>2018-09-16T11:20:26Z</time>
      </trkpt>
      <trkpt lat="48.69562704116106" lon="10.236459011211991">
        <ele>587.01999999999998</ele>
        <time>2018-09-16T11:20:27Z</time>
      </trkpt>
      <trkpt lat="48.694635964930058" lon="10.235835984349251">
        <ele>581.25</ele>
        <time>2018-09-16T11:20:34Z</time>
      </trkpt>
      <trkpt lat="48.693403992801905" lon="10.235400041565299">
        <ele>572.60000000000002</ele>
        <time>2018-09-16T11:20:41Z</time>
      </trkpt>
      <trkpt lat="48.692929996177554" lon="10.235251011326909">
        <ele>567.79999999999995</ele>
        <time>2018-09-16T11:20:45Z</time>
      </trkpt>
      <trkpt lat="48.692822959274054" lon="10.235030986368656">
        <ele>566.83000000000004</ele>
        <time>2018-09-16T11:20:46Z</time>
      </trkpt>
      <trkpt lat="48.692769985646009" lon="10.234978012740612">
        <ele>565.87</ele>
        <time>2018-09-16T11:20:48Z</time>
      </trkpt>
      <trkpt lat="48.692673007026315" lon="10.234921015799046">
        <ele>565.38999999999999</ele>
        <time>2018-09-16T11:20:49Z</time>
      </trkpt>
      <trkpt lat="48.692608969286084" lon="10.23497499525547">
        <ele>564.90999999999997</ele>
        <time>2018-09-16T11:20:50Z</time>
      </trkpt>
      <trkpt lat="48.692544009536505" lon="10.235030986368656">
        <ele>564.42999999999995</ele>
        <time>2018-09-16T11:20:51Z</time>
      </trkpt>
      <trkpt lat="48.692496987059712" lon="10.235229972749949">
        <ele>563.95000000000005</ele>
        <time>2018-09-16T11:20:52Z</time>
      </trkpt>
      <trkpt lat="48.69240403175354" lon="10.23525302298367">
        <ele>563.47000000000003</ele>
        <time>2018-09-16T11:20:53Z</time>
      </trkpt>
      <trkpt lat="48.692281991243362" lon="10.235284036025405">
        <ele>562.99000000000001</ele>
        <time>2018-09-16T11:20:54Z</time>
      </trkpt>
      <trkpt lat="48.692140001803637" lon="10.23531898856163">
        <ele>562.99000000000001</ele>
        <time>2018-09-16T11:20:55Z</time>
      </trkpt>
      <trkpt lat="48.690855978056788" lon="10.23572601377964">
        <ele>567.79999999999995</ele>
        <time>2018-09-16T11:21:02Z</time>
      </trkpt>
      <trkpt lat="48.68971997871995" lon="10.236836029216647">
        <ele>572.60000000000002</ele>
        <time>2018-09-16T11:21:08Z</time>
      </trkpt>
      <trkpt lat="48.687888029962778" lon="10.239055976271629">
        <ele>577.40999999999997</ele>
        <time>2018-09-16T11:21:17Z</time>
      </trkpt>
      <trkpt lat="48.686047028750181" lon="10.240505039691925">
        <ele>584.13999999999999</ele>
        <time>2018-09-16T11:21:25Z</time>
      </trkpt>
      <trkpt lat="48.684427980333567" lon="10.241335015743971">
        <ele>591.35000000000002</ele>
        <time>2018-09-16T11:21:32Z</time>
      </trkpt>
      <trkpt lat="48.682804992422462" lon="10.241705998778343">
        <ele>599.51999999999998</ele>
        <time>2018-09-16T11:21:39Z</time>
      </trkpt>
      <trkpt lat="48.681262973695993" lon="10.241512041538954">
        <ele>605.28999999999996</ele>
        <time>2018-09-16T11:21:46Z</time>
      </trkpt>
      <trkpt lat="48.679443011060357" lon="10.24139896966517">
        <ele>604.33000000000004</ele>
        <time>2018-09-16T11:21:55Z</time>
      </trkpt>
      <trkpt lat="48.677662024274468" lon="10.241601979359984">
        <ele>599.51999999999998</ele>
        <time>2018-09-16T11:22:04Z</time>
      </trkpt>
      <trkpt lat="48.676626021042466" lon="10.24131297133863">
        <ele>596.63999999999999</ele>
        <time>2018-09-16T11:22:11Z</time>
      </trkpt>
      <trkpt lat="48.676471961662173" lon="10.241124965250492">
        <ele>596.14999999999998</ele>
        <time>2018-09-16T11:22:12Z</time>
      </trkpt>
      <trkpt lat="48.676414964720607" lon="10.241066962480545">
        <ele>595.66999999999996</ele>
        <time>2018-09-16T11:22:14Z</time>
      </trkpt>
      <trkpt lat="48.676356039941311" lon="10.241047013550997">
        <ele>595.66999999999996</ele>
        <time>2018-09-16T11:22:15Z</time>
      </trkpt>
      <trkpt lat="48.676294013857841" lon="10.241080960258842">
        <ele>595.66999999999996</ele>
        <time>2018-09-16T11:22:16Z</time>
      </trkpt>
      <trkpt lat="48.676265012472868" lon="10.241166958585382">
        <ele>595.19000000000005</ele>
        <time>2018-09-16T11:22:17Z</time>
      </trkpt>
      <trkpt lat="48.676278004422784" lon="10.241254968568683">
        <ele>595.19000000000005</ele>
        <time>2018-09-16T11:22:18Z</time>
      </trkpt>
      <trkpt lat="48.676310023292899" lon="10.241364017128944">
        <ele>594.71000000000004</ele>
        <time>2018-09-16T11:22:19Z</time>
      </trkpt>
      <trkpt lat="48.676298037171364" lon="10.241543976590037">
        <ele>594.71000000000004</ele>
        <time>2018-09-16T11:22:20Z</time>
      </trkpt>
      <trkpt lat="48.676270041614771" lon="10.241705998778343">
        <ele>594.23000000000002</ele>
        <time>2018-09-16T11:22:21Z</time>
      </trkpt>
      <trkpt lat="48.676236011087894" lon="10.241900961846113">
        <ele>593.75</ele>
        <time>2018-09-16T11:22:22Z</time>
      </trkpt>
      <trkpt lat="48.676197035238147" lon="10.242124004289508">
        <ele>593.26999999999998</ele>
        <time>2018-09-16T11:22:23Z</time>
      </trkpt>
      <trkpt lat="48.675814988091588" lon="10.243830978870392">
        <ele>587.01999999999998</ele>
        <time>2018-09-16T11:22:29Z</time>
      </trkpt>
      <trkpt lat="48.674989035353065" lon="10.246107000857592">
        <ele>579.33000000000004</ele>
        <time>2018-09-16T11:22:36Z</time>
      </trkpt>
      <trkpt lat="48.673969963565469" lon="10.247965017333627">
        <ele>574.52999999999997</ele>
        <time>2018-09-16T11:22:42Z</time>
      </trkpt>
      <trkpt lat="48.672478990629315" lon="10.249838037416339">
        <ele>570.67999999999995</ele>
        <time>2018-09-16T11:22:49Z</time>
      </trkpt>
      <trkpt lat="48.670622985810041" lon="10.251607038080692">
        <ele>563.47000000000003</ele>
        <time>2018-09-16T11:22:57Z</time>
      </trkpt>
      <trkpt lat="48.668876029551029" lon="10.253403028473258">
        <ele>554.34000000000003</ele>
        <time>2018-09-16T11:23:04Z</time>
      </trkpt>
      <trkpt lat="48.668044963851571" lon="10.254561994224787">
        <ele>554.34000000000003</ele>
        <time>2018-09-16T11:23:08Z</time>
      </trkpt>
      <trkpt lat="48.667834997177124" lon="10.254815965890884">
        <ele>555.29999999999995</ele>
        <time>2018-09-16T11:23:09Z</time>
      </trkpt>
      <trkpt lat="48.667597034946084" lon="10.255024004727602">
        <ele>555.77999999999997</ele>
        <time>2018-09-16T11:23:10Z</time>
      </trkpt>
      <trkpt lat="48.667357983067632" lon="10.255233971402049">
        <ele>556.74000000000001</ele>
        <time>2018-09-16T11:23:11Z</time>
      </trkpt>
      <trkpt lat="48.667118009179831" lon="10.255444021895528">
        <ele>557.22000000000003</ele>
        <time>2018-09-16T11:23:12Z</time>
      </trkpt>
      <trkpt lat="48.665642039850354" lon="10.256634000688791">
        <ele>560.59000000000003</ele>
        <time>2018-09-16T11:23:18Z</time>
      </trkpt>
      <trkpt lat="48.664666973054409" lon="10.258191023021936">
        <ele>559.13999999999999</ele>
        <time>2018-09-16T11:23:23Z</time>
      </trkpt>
      <trkpt lat="48.663390995934606" lon="10.261656017974019">
        <ele>553.38</ele>
        <time>2018-09-16T11:23:32Z</time>
      </trkpt>
      <trkpt lat="48.661932963877916" lon="10.265779998153448">
        <ele>541.84000000000003</ele>
        <time>2018-09-16T11:23:43Z</time>
      </trkpt>
      <trkpt lat="48.660551039502025" lon="10.268302028998733">
        <ele>530.29999999999995</ele>
        <time>2018-09-16T11:23:51Z</time>
      </trkpt>
      <trkpt lat="48.659128965809941" lon="10.269742961972952">
        <ele>523.58000000000004</ele>
        <time>2018-09-16T11:23:57Z</time>
      </trkpt>
      <trkpt lat="48.656972972676158" lon="10.271064033731818">
        <ele>516.85000000000002</ele>
        <time>2018-09-16T11:24:05Z</time>
      </trkpt>
      <trkpt lat="48.655240014195442" lon="10.272437995299697">
        <ele>514.91999999999996</ele>
        <time>2018-09-16T11:24:12Z</time>
      </trkpt>
      <trkpt lat="48.653776030987501" lon="10.274405982345343">
        <ele>515.39999999999998</ele>
        <time>2018-09-16T11:24:19Z</time>
      </trkpt>
      <trkpt lat="48.652806999161839" lon="10.276596006006002">
        <ele>512.03999999999996</ele>
        <time>2018-09-16T11:24:25Z</time>
      </trkpt>
      <trkpt lat="48.652080036699772" lon="10.279460018500686">
        <ele>506.75</ele>
        <time>2018-09-16T11:24:32Z</time>
      </trkpt>
      <trkpt lat="48.651907034218311" lon="10.282573979347944">
        <ele>503.38999999999999</ele>
        <time>2018-09-16T11:24:39Z</time>
      </trkpt>
      <trkpt lat="48.651908962056041" lon="10.287580993026495">
        <ele>500.01999999999998</ele>
        <time>2018-09-16T11:24:50Z</time>
      </trkpt>
      <trkpt lat="48.651427002623677" lon="10.290217017754912">
        <ele>500.01999999999998</ele>
        <time>2018-09-16T11:24:56Z</time>
      </trkpt>
      <trkpt lat="48.650627033784986" lon="10.292341997846961">
        <ele>499.54000000000002</ele>
        <time>2018-09-16T11:25:02Z</time>
      </trkpt>
      <trkpt lat="48.649440994486213" lon="10.294274026528001">
        <ele>498.10000000000002</ele>
        <time>2018-09-16T11:25:09Z</time>
      </trkpt>
      <trkpt lat="48.647881038486958" lon="10.295760976150632">
        <ele>496.66000000000003</ele>
        <time>2018-09-16T11:25:16Z</time>
      </trkpt>
      <trkpt lat="48.646069960668683" lon="10.296639986336231">
        <ele>495.22000000000003</ele>
        <time>2018-09-16T11:25:23Z</time>
      </trkpt>
      <trkpt lat="48.644208004698157" lon="10.296779964119196">
        <ele>491.85000000000002</ele>
        <time>2018-09-16T11:25:30Z</time>
      </trkpt>
      <trkpt lat="48.642233982682228" lon="10.296222986653447">
        <ele>489.44999999999999</ele>
        <time>2018-09-16T11:25:37Z</time>
      </trkpt>
      <trkpt lat="48.640115959569812" lon="10.29541396535933">
        <ele>489.44999999999999</ele>
        <time>2018-09-16T11:25:45Z</time>
      </trkpt>
      <trkpt lat="48.638573018833995" lon="10.29541396535933">
        <ele>491.37</ele>
        <time>2018-09-16T11:25:51Z</time>
      </trkpt>
      <trkpt lat="48.636448038741946" lon="10.295541035011411">
        <ele>493.29000000000002</ele>
        <time>2018-09-16T11:26:00Z</time>
      </trkpt>
      <trkpt lat="48.633938999846578" lon="10.295072989538312">
        <ele>494.25999999999999</ele>
        <time>2018-09-16T11:26:10Z</time>
      </trkpt>
      <trkpt lat="48.631486035883427" lon="10.294465972110629">
        <ele>497.62</ele>
        <time>2018-09-16T11:26:20Z</time>
      </trkpt>
      <trkpt lat="48.631152017042041" lon="10.294425990432501">
        <ele>498.57999999999998</ele>
        <time>2018-09-16T11:26:22Z</time>
      </trkpt>
      <trkpt lat="48.631025031208992" lon="10.294425990432501">
        <ele>498.57999999999998</ele>
        <time>2018-09-16T11:26:23Z</time>
      </trkpt>
      <trkpt lat="48.630911959335208" lon="10.294465972110629">
        <ele>499.06</ele>
        <time>2018-09-16T11:26:24Z</time>
      </trkpt>
      <trkpt lat="48.630822021514177" lon="10.294497990980744">
        <ele>499.06</ele>
        <time>2018-09-16T11:26:25Z</time>
      </trkpt>
      <trkpt lat="48.63074298016727" lon="10.294525986537337">
        <ele>499.06</ele>
        <time>2018-09-16T11:26:26Z</time>
      </trkpt>
      <trkpt lat="48.630617000162601" lon="10.294425990432501">
        <ele>499.06</ele>
        <time>2018-09-16T11:26:27Z</time>
      </trkpt>
      <trkpt lat="48.630587998777628" lon="10.294425990432501">
        <ele>499.06</ele>
        <time>2018-09-16T11:26:28Z</time>
      </trkpt>
      <trkpt lat="48.630500994622707" lon="10.294465972110629">
        <ele>499.06</ele>
        <time>2018-09-16T11:26:29Z</time>
      </trkpt>
      <trkpt lat="48.630466964095831" lon="10.29451098293066">
        <ele>499.06</ele>
        <time>2018-09-16T11:26:30Z</time>
      </trkpt>
      <trkpt lat="48.630466964095831" lon="10.294674010947347">
        <ele>499.06</ele>
        <time>2018-09-16T11:26:31Z</time>
      </trkpt>
      <trkpt lat="48.630477022379637" lon="10.294764032587409">
        <ele>499.06</ele>
        <time>2018-09-16T11:26:32Z</time>
      </trkpt>
      <trkpt lat="48.630525972694159" lon="10.294846007600427">
        <ele>498.57999999999998</ele>
        <time>2018-09-16T11:26:33Z</time>
      </trkpt>
      <trkpt lat="48.630531001836061" lon="10.29485497623682">
        <ele>498.57999999999998</ele>
        <time>2018-09-16T11:26:34Z</time>
      </trkpt>
      <trkpt lat="48.630727976560593" lon="10.294989002868533">
        <ele>498.57999999999998</ele>
        <time>2018-09-16T11:26:35Z</time>
      </trkpt>
      <trkpt lat="48.630777010694146" lon="10.295153958722949">
        <ele>498.10000000000002</ele>
        <time>2018-09-16T11:26:36Z</time>
      </trkpt>
      <trkpt lat="48.630837025120854" lon="10.295354034751654">
        <ele>497.62</ele>
        <time>2018-09-16T11:26:37Z</time>
      </trkpt>
      <trkpt lat="48.630902990698814" lon="10.295576993376017">
        <ele>497.13999999999999</ele>
        <time>2018-09-16T11:26:38Z</time>
      </trkpt>
      <trkpt lat="48.631261987611651" lon="10.297311963513494">
        <ele>495.69999999999999</ele>
        <time>2018-09-16T11:26:44Z</time>
      </trkpt>
      <trkpt lat="48.631447982043028" lon="10.300746029242873">
        <ele>494.25999999999999</ele>
        <time>2018-09-16T11:26:55Z</time>
      </trkpt>
      <trkpt lat="48.631179006770253" lon="10.303003024309874">
        <ele>490.88999999999999</ele>
        <time>2018-09-16T11:27:02Z</time>
      </trkpt>
      <trkpt lat="48.63046201877296" lon="10.304957013577223">
        <ele>486.07999999999998</ele>
        <time>2018-09-16T11:27:08Z</time>
      </trkpt>
      <trkpt lat="48.629292994737625" lon="10.306576984003186">
        <ele>485.12</ele>
        <time>2018-09-16T11:27:14Z</time>
      </trkpt>
      <trkpt lat="48.627487029880285" lon="10.30892601236701">
        <ele>488.97000000000003</ele>
        <time>2018-09-16T11:27:23Z</time>
      </trkpt>
      <trkpt lat="48.626749003306031" lon="10.310470964759588">
        <ele>490.88999999999999</ele>
        <time>2018-09-16T11:27:29Z</time>
      </trkpt>
      <trkpt lat="48.626168975606561" lon="10.312627963721752">
        <ele>489.44999999999999</ele>
        <time>2018-09-16T11:27:38Z</time>
      </trkpt>
      <trkpt lat="48.625910980626941" lon="10.314938016235828">
        <ele>486.07999999999998</ele>
        <time>2018-09-16T11:27:46Z</time>
      </trkpt>
      <trkpt lat="48.625795980915427" lon="10.318034961819649">
        <ele>481.27999999999997</ele>
        <time>2018-09-16T11:27:54Z</time>
      </trkpt>
      <trkpt lat="48.625645022839308" lon="10.324255004525185">
        <ele>478.38999999999999</ele>
        <time>2018-09-16T11:28:09Z</time>
      </trkpt>
      <trkpt lat="48.625169014558196" lon="10.328109003603458">
        <ele>475.50999999999999</ele>
        <time>2018-09-16T11:28:19Z</time>
      </trkpt>
      <trkpt lat="48.624908002093434" lon="10.331282978877425">
        <ele>468.77999999999997</ele>
        <time>2018-09-16T11:28:27Z</time>
      </trkpt>
      <trkpt lat="48.625200027599931" lon="10.334073984995484">
        <ele>463.97000000000003</ele>
        <time>2018-09-16T11:28:34Z</time>
      </trkpt>
      <trkpt lat="48.625869993120432" lon="10.336316982284188">
        <ele>466.38</ele>
        <time>2018-09-16T11:28:40Z</time>
      </trkpt>
      <trkpt lat="48.627027031034231" lon="10.339130032807589">
        <ele>479.83999999999997</ele>
        <time>2018-09-16T11:28:48Z</time>
      </trkpt>
      <trkpt lat="48.627636982128024" lon="10.341867981478572">
        <ele>488.00999999999999</ele>
        <time>2018-09-16T11:28:55Z</time>
      </trkpt>
      <trkpt lat="48.62794803455472" lon="10.34465697593987">
        <ele>490.88999999999999</ele>
        <time>2018-09-16T11:29:02Z</time>
      </trkpt>
      <trkpt lat="48.628484979271889" lon="10.348582975566387">
        <ele>486.56</ele>
        <time>2018-09-16T11:29:13Z</time>
      </trkpt>
      <trkpt lat="48.629201967269182" lon="10.351562993600965">
        <ele>482.24000000000001</ele>
        <time>2018-09-16T11:29:21Z</time>
      </trkpt>
      <trkpt lat="48.630486996844411" lon="10.355550013482571">
        <ele>474.55000000000001</ele>
        <time>2018-09-16T11:29:31Z</time>
      </trkpt>
      <trkpt lat="48.630921011790633" lon="10.35771899856627">
        <ele>476.94999999999999</ele>
        <time>2018-09-16T11:29:37Z</time>
      </trkpt>
      <trkpt lat="48.631507996469736" lon="10.36100797355175">
        <ele>481.27999999999997</ele>
        <time>2018-09-16T11:29:47Z</time>
      </trkpt>
      <trkpt lat="48.631851989775896" lon="10.363265974447131">
        <ele>483.19999999999999</ele>
        <time>2018-09-16T11:29:54Z</time>
      </trkpt>
      <trkpt lat="48.63185903057456" lon="10.36358498968184">
        <ele>483.68000000000001</ele>
        <time>2018-09-16T11:29:55Z</time>
      </trkpt>
      <trkpt lat="48.631843021139503" lon="10.363899981603026">
        <ele>484.16000000000003</ele>
        <time>2018-09-16T11:29:56Z</time>
      </trkpt>
      <trkpt lat="48.631728021427989" lon="10.366425029933453">
        <ele>486.56</ele>
        <time>2018-09-16T11:30:04Z</time>
      </trkpt>
      <trkpt lat="48.631544960662723" lon="10.368635002523661">
        <ele>487.52999999999997</ele>
        <time>2018-09-16T11:30:11Z</time>
      </trkpt>
      <trkpt lat="48.63093601539731" lon="10.370492013171315">
        <ele>486.56</ele>
        <time>2018-09-16T11:30:18Z</time>
      </trkpt>
      <trkpt lat="48.630345007404685" lon="10.372493024915457">
        <ele>482.72000000000003</ele>
        <time>2018-09-16T11:30:27Z</time>
      </trkpt>
      <trkpt lat="48.630219027400017" lon="10.373003985732794">
        <ele>481.75999999999999</ele>
        <time>2018-09-16T11:30:30Z</time>
      </trkpt>
      <trkpt lat="48.630182985216379" lon="10.373147986829281">
        <ele>481.27999999999997</ele>
        <time>2018-09-16T11:30:31Z</time>
      </trkpt>
      <trkpt lat="48.629828011617064" lon="10.37437099032104">
        <ele>478.87</ele>
        <time>2018-09-16T11:30:41Z</time>
      </trkpt>
      <trkpt lat="48.629504973068833" lon="10.37548603489995">
        <ele>479.35000000000002</ele>
        <time>2018-09-16T11:30:50Z</time>
      </trkpt>
      <trkpt lat="48.629471026360989" lon="10.375610003247857">
        <ele>479.35000000000002</ele>
        <time>2018-09-16T11:30:51Z</time>
      </trkpt>
      <trkpt lat="48.629271034151316" lon="10.376369990408421">
        <ele>479.83999999999997</ele>
        <time>2018-09-16T11:30:58Z</time>
      </trkpt>
      <trkpt lat="48.62923800945282" lon="10.376521032303572">
        <ele>479.35000000000002</ele>
        <time>2018-09-16T11:30:59Z</time>
      </trkpt>
      <trkpt lat="48.62919601611793" lon="10.3767129778862">
        <ele>478.87</ele>
        <time>2018-09-16T11:31:00Z</time>
      </trkpt>
      <trkpt lat="48.628884041681886" lon="10.378128010779619">
        <ele>476.94999999999999</ele>
        <time>2018-09-16T11:31:05Z</time>
      </trkpt>
      <trkpt lat="48.62850802950561" lon="10.379530973732471">
        <ele>475.99000000000001</ele>
        <time>2018-09-16T11:31:09Z</time>
      </trkpt>
      <trkpt lat="48.627253007143736" lon="10.382686005905271">
        <ele>473.11000000000001</ele>
        <time>2018-09-16T11:31:18Z</time>
      </trkpt>
      <trkpt lat="48.626206023618579" lon="10.38614496588707">
        <ele>470.69999999999999</ele>
        <time>2018-09-16T11:31:27Z</time>
      </trkpt>
      <trkpt lat="48.624420007690787" lon="10.390638001263142">
        <ele>468.30000000000001</ele>
        <time>2018-09-16T11:31:39Z</time>
      </trkpt>
      <trkpt lat="48.623822964727879" lon="10.393017958849669">
        <ele>467.81999999999999</ele>
        <time>2018-09-16T11:31:45Z</time>
      </trkpt>
      <trkpt lat="48.623017966747284" lon="10.398737015202641">
        <ele>467.33999999999997</ele>
        <time>2018-09-16T11:31:58Z</time>
      </trkpt>
      <trkpt lat="48.622282035648823" lon="10.402037976309657">
        <ele>468.30000000000001</ele>
        <time>2018-09-16T11:32:06Z</time>
      </trkpt>
      <trkpt lat="48.621223988011479" lon="10.404110988602042">
        <ele>470.22000000000003</ele>
        <time>2018-09-16T11:32:12Z</time>
      </trkpt>
      <trkpt lat="48.619779031723738" lon="10.405612019822001">
        <ele>473.58999999999997</ele>
        <time>2018-09-16T11:32:18Z</time>
      </trkpt>
      <trkpt lat="48.618100974708796" lon="10.406299000605941">
        <ele>478.38999999999999</ele>
        <time>2018-09-16T11:32:24Z</time>
      </trkpt>
      <trkpt lat="48.616073979064822" lon="10.406444007530808">
        <ele>479.83999999999997</ele>
        <time>2018-09-16T11:32:31Z</time>
      </trkpt>
      <trkpt lat="48.614076990634203" lon="10.406556995585561">
        <ele>478.38999999999999</ele>
        <time>2018-09-16T11:32:37Z</time>
      </trkpt>
      <trkpt lat="48.611297970637679" lon="10.406709965318441">
        <ele>475.02999999999997</ele>
        <time>2018-09-16T11:32:45Z</time>
      </trkpt>
      <trkpt lat="48.607845967635512" lon="10.406881039962173">
        <ele>468.77999999999997</ele>
        <time>2018-09-16T11:32:56Z</time>
      </trkpt>
      <trkpt lat="48.6032859608531" lon="10.407094024121761">
        <ele>447.63</ele>
        <time>2018-09-16T11:33:11Z</time>
      </trkpt>
      <trkpt lat="48.600037973374128" lon="10.407247999683022">
        <ele>444.26999999999998</ele>
        <time>2018-09-16T11:33:22Z</time>
      </trkpt>
      <trkpt lat="48.598645990714431" lon="10.407312037423253">
        <ele>444.75</ele>
        <time>2018-09-16T11:33:29Z</time>
      </trkpt>
      <trkpt lat="48.597335983067751" lon="10.407370962202549">
        <ele>444.26999999999998</ele>
        <time>2018-09-16T11:33:38Z</time>
      </trkpt>
      <trkpt lat="48.595985993742943" lon="10.407437011599541">
        <ele>444.26999999999998</ele>
        <time>2018-09-16T11:33:46Z</time>
      </trkpt>
      <trkpt lat="48.594024963676929" lon="10.407610014081001">
        <ele>443.31</ele>
        <time>2018-09-16T11:33:54Z</time>
      </trkpt>
      <trkpt lat="48.590605985373259" lon="10.407847976312041">
        <ele>440.42000000000002</ele>
        <time>2018-09-16T11:34:06Z</time>
      </trkpt>
      <trkpt lat="48.587518008425832" lon="10.407954007387161">
        <ele>437.06</ele>
        <time>2018-09-16T11:34:17Z</time>
      </trkpt>
      <trkpt lat="48.584351995959878" lon="10.408062972128391">
        <ele>438.98000000000002</ele>
        <time>2018-09-16T11:34:29Z</time>
      </trkpt>
      <trkpt lat="48.58242298476398" lon="10.408130027353764">
        <ele>439.45999999999998</ele>
        <time>2018-09-16T11:34:38Z</time>
      </trkpt>
      <trkpt lat="48.58089798130095" lon="10.408417023718357">
        <ele>439.94</ele>
        <time>2018-09-16T11:34:47Z</time>
      </trkpt>
      <trkpt lat="48.579475991427898" lon="10.409306008368731">
        <ele>439.94</ele>
        <time>2018-09-16T11:34:56Z</time>
      </trkpt>
      <trkpt lat="48.578475024551153" lon="10.410533035174012">
        <ele>438.98000000000002</ele>
        <time>2018-09-16T11:35:04Z</time>
      </trkpt>
      <trkpt lat="48.577839005738497" lon="10.411394024267793">
        <ele>438.5</ele>
        <time>2018-09-16T11:35:12Z</time>
      </trkpt>
      <trkpt lat="48.577758958563209" lon="10.411457978188992">
        <ele>438.5</ele>
        <time>2018-09-16T11:35:13Z</time>
      </trkpt>
      <trkpt lat="48.577595008537173" lon="10.41141296736896">
        <ele>438.01999999999998</ele>
        <time>2018-09-16T11:35:14Z</time>
      </trkpt>
      <trkpt lat="48.577515967190266" lon="10.411425959318876">
        <ele>438.5</ele>
        <time>2018-09-16T11:35:16Z</time>
      </trkpt>
      <trkpt lat="48.577448995783925" lon="10.4114989656955">
        <ele>438.5</ele>
        <time>2018-09-16T11:35:17Z</time>
      </trkpt>
      <trkpt lat="48.577423011884093" lon="10.411593010649085">
        <ele>438.5</ele>
        <time>2018-09-16T11:35:18Z</time>
      </trkpt>
      <trkpt lat="48.577401973307133" lon="10.411670040339231">
        <ele>438.98000000000002</ele>
        <time>2018-09-16T11:35:19Z</time>
      </trkpt>
      <trkpt lat="48.577453019097447" lon="10.411759978160262">
        <ele>438.98000000000002</ele>
        <time>2018-09-16T11:35:20Z</time>
      </trkpt>
      <trkpt lat="48.577436003834009" lon="10.411941027268767">
        <ele>438.98000000000002</ele>
        <time>2018-09-16T11:35:21Z</time>
      </trkpt>
      <trkpt lat="48.577388981357217" lon="10.412048986181617">
        <ele>438.98000000000002</ele>
        <time>2018-09-16T11:35:22Z</time>
      </trkpt>
      <trkpt lat="48.577332990244031" lon="10.412177983671427">
        <ele>438.98000000000002</ele>
        <time>2018-09-16T11:35:23Z</time>
      </trkpt>
      <trkpt lat="48.577268030494452" lon="10.412321984767914">
        <ele>439.45999999999998</ele>
        <time>2018-09-16T11:35:24Z</time>
      </trkpt>
      <trkpt lat="48.57717901468277" lon="10.412458023056388">
        <ele>439.45999999999998</ele>
        <time>2018-09-16T11:35:25Z</time>
      </trkpt>
      <trkpt lat="48.576453980058432" lon="10.413522021844983">
        <ele>439.45999999999998</ele>
        <time>2018-09-16T11:35:33Z</time>
      </trkpt>
      <trkpt lat="48.576393965631723" lon="10.413608020171523">
        <ele>438.98000000000002</ele>
        <time>2018-09-16T11:35:34Z</time>
      </trkpt>
      <trkpt lat="48.576178969815373" lon="10.413654036819935">
        <ele>438.5</ele>
        <time>2018-09-16T11:35:35Z</time>
      </trkpt>
      <trkpt lat="48.57612800784409" lon="10.413568960502744">
        <ele>437.54000000000002</ele>
        <time>2018-09-16T11:35:36Z</time>
      </trkpt>
      <trkpt lat="48.576066987589002" lon="10.413468964397907">
        <ele>436.57999999999998</ele>
        <time>2018-09-16T11:35:37Z</time>
      </trkpt>
      <trkpt lat="48.576000016182661" lon="10.413358993828297">
        <ele>436.10000000000002</ele>
        <time>2018-09-16T11:35:38Z</time>
      </trkpt>
      <trkpt lat="48.575945030897856" lon="10.413218010216951">
        <ele>435.61000000000001</ele>
        <time>2018-09-16T11:35:39Z</time>
      </trkpt>
      <trkpt lat="48.575908988714218" lon="10.41306302882731">
        <ele>435.61000000000001</ele>
        <time>2018-09-16T11:35:40Z</time>
      </trkpt>
      <trkpt lat="48.575906977057457" lon="10.412886003032327">
        <ele>434.64999999999998</ele>
        <time>2018-09-16T11:35:41Z</time>
      </trkpt>
      <trkpt lat="48.575915023684502" lon="10.412710988894105">
        <ele>434.17000000000002</ele>
        <time>2018-09-16T11:35:42Z</time>
      </trkpt>
      <trkpt lat="48.575942013412714" lon="10.412529017776251">
        <ele>433.69</ele>
        <time>2018-09-16T11:35:43Z</time>
      </trkpt>
      <trkpt lat="48.576006973162293" lon="10.412388034164906">
        <ele>432.73000000000002</ele>
        <time>2018-09-16T11:35:44Z</time>
      </trkpt>
      <trkpt lat="48.57608400285244" lon="10.412242021411657">
        <ele>431.76999999999998</ele>
        <time>2018-09-16T11:35:45Z</time>
      </trkpt>
      <trkpt lat="48.576186010614038" lon="10.412173038348556">
        <ele>431.29000000000002</ele>
        <time>2018-09-16T11:35:46Z</time>
      </trkpt>
      <trkpt lat="48.576293969526887" lon="10.412125010043383">
        <ele>430.32999999999998</ele>
        <time>2018-09-16T11:35:47Z</time>
      </trkpt>
      <trkpt lat="48.576393965631723" lon="10.412139007821679">
        <ele>430.32999999999998</ele>
        <time>2018-09-16T11:35:48Z</time>
      </trkpt>
      <trkpt lat="48.576496979221702" lon="10.412207990884781">
        <ele>429.85000000000002</ele>
        <time>2018-09-16T11:35:49Z</time>
      </trkpt>
      <trkpt lat="48.576589012518525" lon="10.412325002253056">
        <ele>429.85000000000002</ele>
        <time>2018-09-16T11:35:50Z</time>
      </trkpt>
      <trkpt lat="48.576681967824697" lon="10.412460034713149">
        <ele>429.37</ele>
        <time>2018-09-16T11:35:51Z</time>
      </trkpt>
      <trkpt lat="48.576782969757915" lon="10.412644017487764">
        <ele>429.37</ele>
        <time>2018-09-16T11:35:52Z</time>
      </trkpt>
      <trkpt lat="48.576853964477777" lon="10.412877034395933">
        <ele>429.37</ele>
        <time>2018-09-16T11:35:53Z</time>
      </trkpt>
      <trkpt lat="48.577432986348867" lon="10.414853990077972">
        <ele>431.76999999999998</ele>
        <time>2018-09-16T11:36:00Z</time>
      </trkpt>
      <trkpt lat="48.578132037073374" lon="10.41817900724709">
        <ele>433.69</ele>
        <time>2018-09-16T11:36:09Z</time>
      </trkpt>
      <trkpt lat="48.578784987330437" lon="10.422968007624149">
        <ele>432.73000000000002</ele>
        <time>2018-09-16T11:36:21Z</time>
      </trkpt>
      <trkpt lat="48.579262001439929" lon="10.42574099265039">
        <ele>431.29000000000002</ele>
        <time>2018-09-16T11:36:27Z</time>
      </trkpt>
      <trkpt lat="48.580062976107001" lon="10.428665019571781">
        <ele>428.88999999999999</ele>
        <time>2018-09-16T11:36:34Z</time>
      </trkpt>
      <trkpt lat="48.581424029543996" lon="10.431472035124898">
        <ele>428.39999999999998</ele>
        <time>2018-09-16T11:36:42Z</time>
      </trkpt>
      <trkpt lat="48.582941992208362" lon="10.434049973264337">
        <ele>427.44</ele>
        <time>2018-09-16T11:36:50Z</time>
      </trkpt>
      <trkpt lat="48.584259962663054" lon="10.437256973236799">
        <ele>430.32999999999998</ele>
        <time>2018-09-16T11:36:59Z</time>
      </trkpt>
      <trkpt lat="48.585008969530463" lon="10.440245037898421">
        <ele>431.29000000000002</ele>
        <time>2018-09-16T11:37:07Z</time>
      </trkpt>
      <trkpt lat="48.585361009463668" lon="10.443354975432158">
        <ele>430.81</ele>
        <time>2018-09-16T11:37:16Z</time>
      </trkpt>
      <trkpt lat="48.58555999584496" lon="10.44593702070415">
        <ele>434.64999999999998</ele>
        <time>2018-09-16T11:37:24Z</time>
      </trkpt>
      <trkpt lat="48.585620010271668" lon="10.446645962074399">
        <ele>435.13</ele>
        <time>2018-09-16T11:37:27Z</time>
      </trkpt>
      <trkpt lat="48.585555972531438" lon="10.446848971769214">
        <ele>435.61000000000001</ele>
        <time>2018-09-16T11:37:28Z</time>
      </trkpt>
      <trkpt lat="48.585504004731774" lon="10.447013005614281">
        <ele>435.61000000000001</ele>
        <time>2018-09-16T11:37:29Z</time>
      </trkpt>
      <trkpt lat="48.585456982254982" lon="10.447133034467697">
        <ele>435.61000000000001</ele>
        <time>2018-09-16T11:37:30Z</time>
      </trkpt>
      <trkpt lat="48.58536402694881" lon="10.447234036400914">
        <ele>435.61000000000001</ele>
        <time>2018-09-16T11:37:31Z</time>
      </trkpt>
      <trkpt lat="48.585234023630619" lon="10.44737602584064">
        <ele>435.61000000000001</ele>
        <time>2018-09-16T11:37:32Z</time>
      </trkpt>
      <trkpt lat="48.585136961191893" lon="10.44735498726368">
        <ele>436.10000000000002</ele>
        <time>2018-09-16T11:37:33Z</time>
      </trkpt>
      <trkpt lat="48.585006035864353" lon="10.447325985878706">
        <ele>436.10000000000002</ele>
        <time>2018-09-16T11:37:34Z</time>
      </trkpt>
      <trkpt lat="48.584868991747499" lon="10.447296984493732">
        <ele>436.10000000000002</ele>
        <time>2018-09-16T11:37:35Z</time>
      </trkpt>
      <trkpt lat="48.584718033671379" lon="10.44724996201694">
        <ele>436.10000000000002</ele>
        <time>2018-09-16T11:37:36Z</time>
      </trkpt>
      <trkpt lat="48.584586018696427" lon="10.44713999144733">
        <ele>436.57999999999998</ele>
        <time>2018-09-16T11:37:37Z</time>
      </trkpt>
      <trkpt lat="48.584444029256701" lon="10.447021974250674">
        <ele>436.57999999999998</ele>
        <time>2018-09-16T11:37:38Z</time>
      </trkpt>
      <trkpt lat="48.583826031535864" lon="10.446492992341518">
        <ele>435.13</ele>
        <time>2018-09-16T11:37:43Z</time>
      </trkpt>
      <trkpt lat="48.583740033209324" lon="10.446414034813643">
        <ele>434.64999999999998</ele>
        <time>2018-09-16T11:37:44Z</time>
      </trkpt>
      <trkpt lat="48.583674989640713" lon="10.446079010143876">
        <ele>435.13</ele>
        <time>2018-09-16T11:37:46Z</time>
      </trkpt>
      <trkpt lat="48.583610029891133" lon="10.446036010980606">
        <ele>435.13</ele>
        <time>2018-09-16T11:37:47Z</time>
      </trkpt>
      <trkpt lat="48.583494024351239" lon="10.446036010980606">
        <ele>435.13</ele>
        <time>2018-09-16T11:37:48Z</time>
      </trkpt>
      <trkpt lat="48.58341003768146" lon="10.446167020127177">
        <ele>435.13</ele>
        <time>2018-09-16T11:37:49Z</time>
      </trkpt>
      <trkpt lat="48.5833889991045" lon="10.44625997543335">
        <ele>435.13</ele>
        <time>2018-09-16T11:37:50Z</time>
      </trkpt>
      <trkpt lat="48.583398973569274" lon="10.446478994563222">
        <ele>435.13</ele>
        <time>2018-09-16T11:37:51Z</time>
      </trkpt>
      <trkpt lat="48.583319010213017" lon="10.446592988446355">
        <ele>434.64999999999998</ele>
        <time>2018-09-16T11:37:52Z</time>
      </trkpt>
      <trkpt lat="48.583225971087813" lon="10.446726009249687">
        <ele>434.64999999999998</ele>
        <time>2018-09-16T11:37:53Z</time>
      </trkpt>
      <trkpt lat="48.582410998642445" lon="10.447771986946464">
        <ele>433.20999999999998</ele>
        <time>2018-09-16T11:37:59Z</time>
      </trkpt>
      <trkpt lat="48.580822963267565" lon="10.449000019580126">
        <ele>433.20999999999998</ele>
        <time>2018-09-16T11:38:07Z</time>
      </trkpt>
      <trkpt lat="48.578743999823928" lon="10.450561987236142">
        <ele>440.89999999999998</ele>
        <time>2018-09-16T11:38:17Z</time>
      </trkpt>
      <trkpt lat="48.577475985512137" lon="10.452472977340221">
        <ele>444.26999999999998</ele>
        <time>2018-09-16T11:38:24Z</time>
      </trkpt>
      <trkpt lat="48.576246025040746" lon="10.454675992950797">
        <ele>440.89999999999998</ele>
        <time>2018-09-16T11:38:32Z</time>
      </trkpt>
      <trkpt lat="48.575657028704882" lon="10.45534897595644">
        <ele>438.5</ele>
        <time>2018-09-16T11:38:37Z</time>
      </trkpt>
      <trkpt lat="48.575579999014735" lon="10.455419970676303">
        <ele>438.5</ele>
        <time>2018-09-16T11:38:38Z</time>
      </trkpt>
      <trkpt lat="48.575516967102885" lon="10.455484008416533">
        <ele>438.5</ele>
        <time>2018-09-16T11:38:39Z</time>
      </trkpt>
      <trkpt lat="48.575363997370005" lon="10.455422988161445">
        <ele>438.5</ele>
        <time>2018-09-16T11:38:40Z</time>
      </trkpt>
      <trkpt lat="48.575257966294885" lon="10.455446038395166">
        <ele>438.01999999999998</ele>
        <time>2018-09-16T11:38:42Z</time>
      </trkpt>
      <trkpt lat="48.575189989060163" lon="10.455527007579803">
        <ele>438.5</ele>
        <time>2018-09-16T11:38:43Z</time>
      </trkpt>
      <trkpt lat="48.575170962139964" lon="10.455550979822874">
        <ele>438.5</ele>
        <time>2018-09-16T11:38:44Z</time>
      </trkpt>
      <trkpt lat="48.575063003227115" lon="10.45582196675241">
        <ele>438.01999999999998</ele>
        <time>2018-09-16T11:38:45Z</time>
      </trkpt>
      <trkpt lat="48.574943980202079" lon="10.45590796507895">
        <ele>437.54000000000002</ele>
        <time>2018-09-16T11:38:46Z</time>
      </trkpt>
      <trkpt lat="48.574808025732636" lon="10.456006033346057">
        <ele>437.54000000000002</ele>
        <time>2018-09-16T11:38:47Z</time>
      </trkpt>
      <trkpt lat="48.574658995494246" lon="10.456113992258906">
        <ele>437.54000000000002</ele>
        <time>2018-09-16T11:38:48Z</time>
      </trkpt>
      <trkpt lat="48.573530958965421" lon="10.456640040501952">
        <ele>435.61000000000001</ele>
        <time>2018-09-16T11:38:54Z</time>
      </trkpt>
      <trkpt lat="48.572165966033936" lon="10.456700976938009">
        <ele>431.29000000000002</ele>
        <time>2018-09-16T11:39:00Z</time>
      </trkpt>
      <trkpt lat="48.57170102186501" lon="10.456587988883257">
        <ele>428.88999999999999</ele>
        <time>2018-09-16T11:39:02Z</time>
      </trkpt>
      <trkpt lat="48.571461969986558" lon="10.456501990556717">
        <ele>427.44</ele>
        <time>2018-09-16T11:39:03Z</time>
      </trkpt>
      <trkpt lat="48.571256026625633" lon="10.45642496086657">
        <ele>425.51999999999998</ele>
        <time>2018-09-16T11:39:04Z</time>
      </trkpt>
      <trkpt lat="48.571069026365876" lon="10.456339968368411">
        <ele>424.07999999999998</ele>
        <time>2018-09-16T11:39:05Z</time>
      </trkpt>
      <trkpt lat="48.570876996964216" lon="10.456235026940703">
        <ele>423.12</ele>
        <time>2018-09-16T11:39:06Z</time>
      </trkpt>
      <trkpt lat="48.56957302428782" lon="10.455170022323728">
        <ele>420.23000000000002</ele>
        <time>2018-09-16T11:39:13Z</time>
      </trkpt>
      <trkpt lat="48.568536015227437" lon="10.453653987497091">
        <ele>422.16000000000003</ele>
        <time>2018-09-16T11:39:20Z</time>
      </trkpt>
      <trkpt lat="48.567780973389745" lon="10.451776022091508">
        <ele>425.04000000000002</ele>
        <time>2018-09-16T11:39:28Z</time>
      </trkpt>
      <trkpt lat="48.567361040040851" lon="10.449394974857569">
        <ele>426</ele>
        <time>2018-09-16T11:39:37Z</time>
      </trkpt>
      <trkpt lat="48.566830968484282" lon="10.44718399643898">
        <ele>424.07999999999998</ele>
        <time>2018-09-16T11:39:44Z</time>
      </trkpt>
      <trkpt lat="48.565889010205865" lon="10.445629991590977">
        <ele>423.60000000000002</ele>
        <time>2018-09-16T11:39:50Z</time>
      </trkpt>
      <trkpt lat="48.564582020044327" lon="10.444588959217072">
        <ele>424.56</ele>
        <time>2018-09-16T11:39:57Z</time>
      </trkpt>
      <trkpt lat="48.563835024833679" lon="10.443914970383048">
        <ele>424.56</ele>
        <time>2018-09-16T11:40:02Z</time>
      </trkpt>
      <trkpt lat="48.563747014850378" lon="10.443826960399747">
        <ele>424.56</ele>
        <time>2018-09-16T11:40:03Z</time>
      </trkpt>
      <trkpt lat="48.563691023737192" lon="10.443598972633481">
        <ele>424.56</ele>
        <time>2018-09-16T11:40:04Z</time>
      </trkpt>
      <trkpt lat="48.563679037615657" lon="10.443570977076888">
        <ele>424.56</ele>
        <time>2018-09-16T11:40:05Z</time>
      </trkpt>
      <trkpt lat="48.563636960461736" lon="10.443475004285574">
        <ele>424.07999999999998</ele>
        <time>2018-09-16T11:40:06Z</time>
      </trkpt>
      <trkpt lat="48.56355800293386" lon="10.44342203065753">
        <ele>424.07999999999998</ele>
        <time>2018-09-16T11:40:07Z</time>
      </trkpt>
      <trkpt lat="48.563519027084112" lon="10.443406021222472">
        <ele>424.07999999999998</ele>
        <time>2018-09-16T11:40:08Z</time>
      </trkpt>
      <trkpt lat="48.563350969925523" lon="10.44333703815937">
        <ele>424.07999999999998</ele>
        <time>2018-09-16T11:40:09Z</time>
      </trkpt>
      <trkpt lat="48.563264971598983" lon="10.443197982385755">
        <ele>424.56</ele>
        <time>2018-09-16T11:40:10Z</time>
      </trkpt>
      <trkpt lat="48.563162041828036" lon="10.443031014874578">
        <ele>424.07999999999998</ele>
        <time>2018-09-16T11:40:11Z</time>
      </trkpt>
      <trkpt lat="48.563047964125872" lon="10.442846026271582">
        <ele>424.56</ele>
        <time>2018-09-16T11:40:12Z</time>
      </trkpt>
      <trkpt lat="48.562927013263106" lon="10.442649973556399">
        <ele>424.56</ele>
        <time>2018-09-16T11:40:13Z</time>
      </trkpt>
      <trkpt lat="48.562801033258438" lon="10.442439001053572">
        <ele>424.56</ele>
        <time>2018-09-16T11:40:14Z</time>
      </trkpt>
      <trkpt lat="48.561875000596046" lon="10.440190974622965">
        <ele>425.04000000000002</ele>
        <time>2018-09-16T11:40:22Z</time>
      </trkpt>
      <trkpt lat="48.560667000710964" lon="10.437594009563327">
        <ele>425.51999999999998</ele>
        <time>2018-09-16T11:40:31Z</time>
      </trkpt>
      <trkpt lat="48.559763012453914" lon="10.436546020209789">
        <ele>426.48000000000002</ele>
        <time>2018-09-16T11:40:37Z</time>
      </trkpt>
      <trkpt lat="48.558563981205225" lon="10.436009997501969">
        <ele>426.48000000000002</ele>
        <time>2018-09-16T11:40:44Z</time>
      </trkpt>
      <trkpt lat="48.557128999382257" lon="10.436136983335018">
        <ele>426.48000000000002</ele>
        <time>2018-09-16T11:40:51Z</time>
      </trkpt>
      <trkpt lat="48.555228989571333" lon="10.436476031318307">
        <ele>426.95999999999998</ele>
        <time>2018-09-16T11:40:59Z</time>
      </trkpt>
      <trkpt lat="48.55384798720479" lon="10.435998011380434">
        <ele>427.44</ele>
        <time>2018-09-16T11:41:05Z</time>
      </trkpt>
      <trkpt lat="48.552506966516376" lon="10.435834983363748">
        <ele>427.92000000000002</ele>
        <time>2018-09-16T11:41:11Z</time>
      </trkpt>
      <trkpt lat="48.55116200633347" lon="10.436429008841515">
        <ele>427.92000000000002</ele>
        <time>2018-09-16T11:41:17Z</time>
      </trkpt>
      <trkpt lat="48.550707036629319" lon="10.436605028808117">
        <ele>427.92000000000002</ele>
        <time>2018-09-16T11:41:19Z</time>
      </trkpt>
      <trkpt lat="48.550477037206292" lon="10.436680968850851">
        <ele>428.39999999999998</ele>
        <time>2018-09-16T11:41:20Z</time>
      </trkpt>
      <trkpt lat="48.55023798532784" lon="10.436707036569715">
        <ele>428.39999999999998</ele>
        <time>2018-09-16T11:41:21Z</time>
      </trkpt>
      <trkpt lat="48.5500000230968" lon="10.436725979670882">
        <ele>428.39999999999998</ele>
        <time>2018-09-16T11:41:22Z</time>
      </trkpt>
      <trkpt lat="48.549758959561586" lon="10.436693960800767">
        <ele>428.39999999999998</ele>
        <time>2018-09-16T11:41:23Z</time>
      </trkpt>
      <trkpt lat="48.549519991502166" lon="10.43663403019309">
        <ele>428.39999999999998</ele>
        <time>2018-09-16T11:41:24Z</time>
      </trkpt>
      <trkpt lat="48.549284040927887" lon="10.436564963310957">
        <ele>427.92000000000002</ele>
        <time>2018-09-16T11:41:25Z</time>
      </trkpt>
      <trkpt lat="48.54905697517097" lon="10.436432026326656">
        <ele>427.92000000000002</ele>
        <time>2018-09-16T11:41:26Z</time>
      </trkpt>
      <trkpt lat="48.548824964091182" lon="10.436295988038182">
        <ele>427.92000000000002</ele>
        <time>2018-09-16T11:41:27Z</time>
      </trkpt>
      <trkpt lat="48.54860401712358" lon="10.436126003041863">
        <ele>427.92000000000002</ele>
        <time>2018-09-16T11:41:28Z</time>
      </trkpt>
      <trkpt lat="48.548395978286862" lon="10.435911007225513">
        <ele>427.92000000000002</ele>
        <time>2018-09-16T11:41:29Z</time>
      </trkpt>
      <trkpt lat="48.548187017440796" lon="10.435693999752402">
        <ele>427.44</ele>
        <time>2018-09-16T11:41:30Z</time>
      </trkpt>
      <trkpt lat="48.548005968332291" lon="10.435432987287641">
        <ele>427.44</ele>
        <time>2018-09-16T11:41:31Z</time>
      </trkpt>
      <trkpt lat="48.54783296585083" lon="10.435154959559441">
        <ele>427.44</ele>
        <time>2018-09-16T11:41:32Z</time>
      </trkpt>
      <trkpt lat="48.546528993174434" lon="10.433326028287411">
        <ele>426.95999999999998</ele>
        <time>2018-09-16T11:41:39Z</time>
      </trkpt>
      <trkpt lat="48.545109014958143" lon="10.432436959818006">
        <ele>426.95999999999998</ele>
        <time>2018-09-16T11:41:45Z</time>
      </trkpt>
      <trkpt lat="48.543603038415313" lon="10.432323971763253">
        <ele>426.95999999999998</ele>
        <time>2018-09-16T11:41:51Z</time>
      </trkpt>
      <trkpt lat="48.542144000530243" lon="10.432908022776246">
        <ele>426.95999999999998</ele>
        <time>2018-09-16T11:41:57Z</time>
      </trkpt>
      <trkpt lat="48.540404001250863" lon="10.433457037433982">
        <ele>426.95999999999998</ele>
        <time>2018-09-16T11:42:04Z</time>
      </trkpt>
      <trkpt lat="48.538151029497385" lon="10.433308007195592">
        <ele>427.44</ele>
        <time>2018-09-16T11:42:13Z</time>
      </trkpt>
      <trkpt lat="48.534994991496205" lon="10.432159015908837">
        <ele>426.95999999999998</ele>
        <time>2018-09-16T11:42:26Z</time>
      </trkpt>
      <trkpt lat="48.532628025859594" lon="10.430608028545976">
        <ele>426.95999999999998</ele>
        <time>2018-09-16T11:42:36Z</time>
      </trkpt>
      <trkpt lat="48.530110018327832" lon="10.428131008520722">
        <ele>427.44</ele>
        <time>2018-09-16T11:42:47Z</time>
      </trkpt>
      <trkpt lat="48.52767800912261" lon="10.425285017117858">
        <ele>427.92000000000002</ele>
        <time>2018-09-16T11:42:58Z</time>
      </trkpt>
      <trkpt lat="48.526314022019506" lon="10.423664040863514">
        <ele>428.88999999999999</ele>
        <time>2018-09-16T11:43:05Z</time>
      </trkpt>
      <trkpt lat="48.524084016680717" lon="10.421300008893013">
        <ele>429.85000000000002</ele>
        <time>2018-09-16T11:43:15Z</time>
      </trkpt>
      <trkpt lat="48.522567981854081" lon="10.420619985088706">
        <ele>430.32999999999998</ele>
        <time>2018-09-16T11:43:21Z</time>
      </trkpt>
      <trkpt lat="48.520689010620117" lon="10.420632977038622">
        <ele>428.39999999999998</ele>
        <time>2018-09-16T11:43:28Z</time>
      </trkpt>
      <trkpt lat="48.519118996337056" lon="10.420293007045984">
        <ele>426.95999999999998</ele>
        <time>2018-09-16T11:43:34Z</time>
      </trkpt>
      <trkpt lat="48.517384026199579" lon="10.419162036851048">
        <ele>427.44</ele>
        <time>2018-09-16T11:43:41Z</time>
      </trkpt>
      <trkpt lat="48.512816978618503" lon="10.415407028049231">
        <ele>428.39999999999998</ele>
        <time>2018-09-16T11:44:00Z</time>
      </trkpt>
      <trkpt lat="48.510344987735152" lon="10.41345102712512">
        <ele>427.92000000000002</ele>
        <time>2018-09-16T11:44:11Z</time>
      </trkpt>
      <trkpt lat="48.509414009749889" lon="10.412878040224314">
        <ele>428.88999999999999</ele>
        <time>2018-09-16T11:44:17Z</time>
      </trkpt>
      <trkpt lat="48.509361958131194" lon="10.412780977785587">
        <ele>428.88999999999999</ele>
        <time>2018-09-16T11:44:18Z</time>
      </trkpt>
      <trkpt lat="48.509319964796305" lon="10.412703026086092">
        <ele>428.88999999999999</ele>
        <time>2018-09-16T11:44:19Z</time>
      </trkpt>
      <trkpt lat="48.509295992553234" lon="10.412609986960888">
        <ele>429.37</ele>
        <time>2018-09-16T11:44:20Z</time>
      </trkpt>
      <trkpt lat="48.509283000603318" lon="10.412489036098123">
        <ele>429.37</ele>
        <time>2018-09-16T11:44:21Z</time>
      </trkpt>
      <trkpt lat="48.509234972298145" lon="10.41242097504437">
        <ele>429.85000000000002</ele>
        <time>2018-09-16T11:44:22Z</time>
      </trkpt>
      <trkpt lat="48.509189039468765" lon="10.41235500946641">
        <ele>429.85000000000002</ele>
        <time>2018-09-16T11:44:23Z</time>
      </trkpt>
      <trkpt lat="48.509142016991973" lon="10.412229029461741">
        <ele>430.32999999999998</ele>
        <time>2018-09-16T11:44:26Z</time>
      </trkpt>
      <trkpt lat="48.509140005335212" lon="10.412193993106484">
        <ele>430.32999999999998</ele>
        <time>2018-09-16T11:44:27Z</time>
      </trkpt>
      <trkpt lat="48.509137993678451" lon="10.412157028913498">
        <ele>430.32999999999998</ele>
        <time>2018-09-16T11:44:28Z</time>
      </trkpt>
      <trkpt lat="48.509134976193309" lon="10.412104977294803">
        <ele>430.32999999999998</ele>
        <time>2018-09-16T11:44:29Z</time>
      </trkpt>
      <trkpt lat="48.509131036698818" lon="10.412030965089798">
        <ele>430.81</ele>
        <time>2018-09-16T11:44:30Z</time>
      </trkpt>
      <trkpt lat="48.509123995900154" lon="10.41190599091351">
        <ele>430.81</ele>
        <time>2018-09-16T11:44:31Z</time>
      </trkpt>
      <trkpt lat="48.509155008941889" lon="10.411809012293816">
        <ele>431.29000000000002</ele>
        <time>2018-09-16T11:44:32Z</time>
      </trkpt>
      <trkpt lat="48.509199013933539" lon="10.411670040339231">
        <ele>431.29000000000002</ele>
        <time>2018-09-16T11:44:33Z</time>
      </trkpt>
      <trkpt lat="48.509645015001297" lon="10.410053003579378">
        <ele>430.81</ele>
        <time>2018-09-16T11:44:41Z</time>
      </trkpt>
      <trkpt lat="48.50975900888443" lon="10.408213008195162">
        <ele>429.37</ele>
        <time>2018-09-16T11:44:48Z</time>
      </trkpt>
      <trkpt lat="48.509405041113496" lon="10.406483989208937">
        <ele>429.85000000000002</ele>
        <time>2018-09-16T11:44:55Z</time>
      </trkpt>
      <trkpt lat="48.508593002334237" lon="10.404996033757925">
        <ele>430.32999999999998</ele>
        <time>2018-09-16T11:45:01Z</time>
      </trkpt>
      <trkpt lat="48.508407007902861" lon="10.404795035719872">
        <ele>430.32999999999998</ele>
        <time>2018-09-16T11:45:02Z</time>
      </trkpt>
      <trkpt lat="48.506936989724636" lon="10.403215968981385">
        <ele>430.32999999999998</ele>
        <time>2018-09-16T11:45:10Z</time>
      </trkpt>
      <trkpt lat="48.505416009575129" lon="10.401385026052594">
        <ele>429.85000000000002</ele>
        <time>2018-09-16T11:45:19Z</time>
      </trkpt>
      <trkpt lat="48.50346403196454" lon="10.399376973509789">
        <ele>432.25</ele>
        <time>2018-09-16T11:45:30Z</time>
      </trkpt>
      <trkpt lat="48.501797961071134" lon="10.39729599840939">
        <ele>431.29000000000002</ele>
        <time>2018-09-16T11:45:39Z</time>
      </trkpt>
      <trkpt lat="48.500169022008777" lon="10.396076012402773">
        <ele>431.29000000000002</ele>
        <time>2018-09-16T11:45:46Z</time>
      </trkpt>
      <trkpt lat="48.498904025182128" lon="10.394739015027881">
        <ele>432.25</ele>
        <time>2018-09-16T11:45:52Z</time>
      </trkpt>
      <trkpt lat="48.497169977054" lon="10.392995998263359">
        <ele>430.32999999999998</ele>
        <time>2018-09-16T11:46:00Z</time>
      </trkpt>
      <trkpt lat="48.495702976360917" lon="10.391737036406994">
        <ele>430.81</ele>
        <time>2018-09-16T11:46:08Z</time>
      </trkpt>
      <trkpt lat="48.494405960664153" lon="10.391207970678806">
        <ele>431.76999999999998</ele>
        <time>2018-09-16T11:46:15Z</time>
      </trkpt>
      <trkpt lat="48.492964021861553" lon="10.390517972409725">
        <ele>433.69</ele>
        <time>2018-09-16T11:46:23Z</time>
      </trkpt>
      <trkpt lat="48.491728026419878" lon="10.389143005013466">
        <ele>437.06</ele>
        <time>2018-09-16T11:46:31Z</time>
      </trkpt>
      <trkpt lat="48.490133034065366" lon="10.387826962396502">
        <ele>438.5</ele>
        <time>2018-09-16T11:46:40Z</time>
      </trkpt>
      <trkpt lat="48.4882109798491" lon="10.386804034933448">
        <ele>439.94</ele>
        <time>2018-09-16T11:46:50Z</time>
      </trkpt>
      <trkpt lat="48.486184990033507" lon="10.385773982852697">
        <ele>439.94</ele>
        <time>2018-09-16T11:46:59Z</time>
      </trkpt>
      <trkpt lat="48.484270982444286" lon="10.385096976533532">
        <ele>438.5</ele>
        <time>2018-09-16T11:47:07Z</time>
      </trkpt>
      <trkpt lat="48.482852010056376" lon="10.385481035336852">
        <ele>437.06</ele>
        <time>2018-09-16T11:47:13Z</time>
      </trkpt>
      <trkpt lat="48.481867974624038" lon="10.386284021660686">
        <ele>436.57999999999998</ele>
        <time>2018-09-16T11:47:19Z</time>
      </trkpt>
      <trkpt lat="48.480820991098881" lon="10.387337962165475">
        <ele>437.06</ele>
        <time>2018-09-16T11:47:28Z</time>
      </trkpt>
      <trkpt lat="48.479410987347364" lon="10.388783002272248">
        <ele>438.5</ele>
        <time>2018-09-16T11:47:41Z</time>
      </trkpt>
      <trkpt lat="48.479302022606134" lon="10.388841005042195">
        <ele>438.5</ele>
        <time>2018-09-16T11:47:42Z</time>
      </trkpt>
      <trkpt lat="48.479195991531014" lon="10.388896996155381">
        <ele>438.5</ele>
        <time>2018-09-16T11:47:43Z</time>
      </trkpt>
      <trkpt lat="48.479091972112656" lon="10.388951981440187">
        <ele>438.98000000000002</ele>
        <time>2018-09-16T11:47:44Z</time>
      </trkpt>
      <trkpt lat="48.478991976007819" lon="10.388962039723992">
        <ele>438.5</ele>
        <time>2018-09-16T11:47:45Z</time>
      </trkpt>
      <trkpt lat="48.478899020701647" lon="10.388954998925328">
        <ele>438.98000000000002</ele>
        <time>2018-09-16T11:47:46Z</time>
      </trkpt>
      <trkpt lat="48.478803969919682" lon="10.388947036117315">
        <ele>438.98000000000002</ele>
        <time>2018-09-16T11:47:47Z</time>
      </trkpt>
      <trkpt lat="48.478744039312005" lon="10.388869000598788">
        <ele>438.98000000000002</ele>
        <time>2018-09-16T11:47:48Z</time>
      </trkpt>
      <trkpt lat="48.478685030713677" lon="10.388793982565403">
        <ele>438.98000000000002</ele>
        <time>2018-09-16T11:47:49Z</time>
      </trkpt>
      <trkpt lat="48.47858302295208" lon="10.388779984787107">
        <ele>438.98000000000002</ele>
        <time>2018-09-16T11:47:50Z</time>
      </trkpt>
      <trkpt lat="48.478505993261933" lon="10.38880898617208">
        <ele>438.98000000000002</ele>
        <time>2018-09-16T11:47:51Z</time>
      </trkpt>
      <trkpt lat="48.47845695912838" lon="10.388925997540355">
        <ele>438.5</ele>
        <time>2018-09-16T11:47:52Z</time>
      </trkpt>
      <trkpt lat="48.478430975228548" lon="10.389040997251868">
        <ele>438.5</ele>
        <time>2018-09-16T11:47:53Z</time>
      </trkpt>
      <trkpt lat="48.478438016027212" lon="10.389150967821479">
        <ele>438.98000000000002</ele>
        <time>2018-09-16T11:47:54Z</time>
      </trkpt>
      <trkpt lat="48.47847699187696" lon="10.389258004724979">
        <ele>438.98000000000002</ele>
        <time>2018-09-16T11:47:55Z</time>
      </trkpt>
      <trkpt lat="48.478440027683973" lon="10.38947400636971">
        <ele>438.5</ele>
        <time>2018-09-16T11:47:56Z</time>
      </trkpt>
      <trkpt lat="48.478381019085646" lon="10.389605015516281">
        <ele>438.5</ele>
        <time>2018-09-16T11:47:57Z</time>
      </trkpt>
      <trkpt lat="48.478321004658937" lon="10.389738958328962">
        <ele>438.01999999999998</ele>
        <time>2018-09-16T11:47:58Z</time>
      </trkpt>
      <trkpt lat="48.478266019374132" lon="10.38986099883914">
        <ele>437.54000000000002</ele>
        <time>2018-09-16T11:47:59Z</time>
      </trkpt>
      <trkpt lat="48.478217991068959" lon="10.38996702991426">
        <ele>437.06</ele>
        <time>2018-09-16T11:48:00Z</time>
      </trkpt>
      <trkpt lat="48.478180021047592" lon="10.390052022412419">
        <ele>437.06</ele>
        <time>2018-09-16T11:48:01Z</time>
      </trkpt>
      <trkpt lat="48.478149008005857" lon="10.390122011303902">
        <ele>437.06</ele>
        <time>2018-09-16T11:48:02Z</time>
      </trkpt>
      <trkpt lat="48.478123024106026" lon="10.390180014073849">
        <ele>437.06</ele>
        <time>2018-09-16T11:48:03Z</time>
      </trkpt>
      <trkpt lat="48.478093016892672" lon="10.390218989923596">
        <ele>436.57999999999998</ele>
        <time>2018-09-16T11:48:04Z</time>
      </trkpt>
      <trkpt lat="48.477998971939087" lon="10.390326026827097">
        <ele>436.57999999999998</ele>
        <time>2018-09-16T11:48:07Z</time>
      </trkpt>
      <trkpt lat="48.477951027452946" lon="10.390381012111902">
        <ele>436.57999999999998</ele>
        <time>2018-09-16T11:48:08Z</time>
      </trkpt>
      <trkpt lat="48.477427996695042" lon="10.39097897708416">
        <ele>438.5</ele>
        <time>2018-09-16T11:48:14Z</time>
      </trkpt>
      <trkpt lat="48.476351005956531" lon="10.392126962542534">
        <ele>441.38</ele>
        <time>2018-09-16T11:48:21Z</time>
      </trkpt>
      <trkpt lat="48.474583011120558" lon="10.393795967102051">
        <ele>443.79000000000002</ele>
        <time>2018-09-16T11:48:30Z</time>
      </trkpt>
      <trkpt lat="48.473361013457179" lon="10.394110959023237">
        <ele>443.31</ele>
        <time>2018-09-16T11:48:35Z</time>
      </trkpt>
      <trkpt lat="48.471342986449599" lon="10.393960000947118">
        <ele>443.31</ele>
        <time>2018-09-16T11:48:43Z</time>
      </trkpt>
      <trkpt lat="48.469874979928136" lon="10.394427962601185">
        <ele>441.86000000000001</ele>
        <time>2018-09-16T11:48:49Z</time>
      </trkpt>
      <trkpt lat="48.467306010425091" lon="10.396297965198755">
        <ele>440.42000000000002</ele>
        <time>2018-09-16T11:49:00Z</time>
      </trkpt>
      <trkpt lat="48.465852001681924" lon="10.398030001670122">
        <ele>440.89999999999998</ele>
        <time>2018-09-16T11:49:07Z</time>
      </trkpt>
      <trkpt lat="48.46477098762989" lon="10.39957101456821">
        <ele>440.89999999999998</ele>
        <time>2018-09-16T11:49:14Z</time>
      </trkpt>
      <trkpt lat="48.46408300101757" lon="10.401350995525718">
        <ele>442.33999999999997</ele>
        <time>2018-09-16T11:49:21Z</time>
      </trkpt>
      <trkpt lat="48.463725009933114" lon="10.403688037768006">
        <ele>443.79000000000002</ele>
        <time>2018-09-16T11:49:29Z</time>
      </trkpt>
      <trkpt lat="48.463011039420962" lon="10.406133960932493">
        <ele>445.70999999999998</ele>
        <time>2018-09-16T11:49:37Z</time>
      </trkpt>
      <trkpt lat="48.462304025888443" lon="10.407620994374156">
        <ele>446.19</ele>
        <time>2018-09-16T11:49:44Z</time>
      </trkpt>
      <trkpt lat="48.461247989907861" lon="10.409081960096955">
        <ele>447.63</ele>
        <time>2018-09-16T11:49:54Z</time>
      </trkpt>
      <trkpt lat="48.460432011634111" lon="10.40990699082613">
        <ele>449.55000000000001</ele>
        <time>2018-09-16T11:50:04Z</time>
      </trkpt>
      <trkpt lat="48.459503967314959" lon="10.410754987969995">
        <ele>451</ele>
        <time>2018-09-16T11:50:13Z</time>
      </trkpt>
      <trkpt lat="48.458915976807475" lon="10.411373991519213">
        <ele>449.06999999999999</ele>
        <time>2018-09-16T11:50:19Z</time>
      </trkpt>
      <trkpt lat="48.458826960995793" lon="10.4114989656955">
        <ele>449.06999999999999</ele>
        <time>2018-09-16T11:50:20Z</time>
      </trkpt>
      <trkpt lat="48.458762001246214" lon="10.411638021469116">
        <ele>448.58999999999997</ele>
        <time>2018-09-16T11:50:21Z</time>
      </trkpt>
      <trkpt lat="48.458167975768447" lon="10.413368968293071">
        <ele>447.63</ele>
        <time>2018-09-16T11:50:30Z</time>
      </trkpt>
      <trkpt lat="48.457322996109724" lon="10.415382971987128">
        <ele>447.63</ele>
        <time>2018-09-16T11:50:37Z</time>
      </trkpt>
      <trkpt lat="48.456127988174558" lon="10.418313033878803">
        <ele>450.02999999999997</ele>
        <time>2018-09-16T11:50:46Z</time>
      </trkpt>
      <trkpt lat="48.455836968496442" lon="10.419335039332509">
        <ele>451</ele>
        <time>2018-09-16T11:50:49Z</time>
      </trkpt>
      <trkpt lat="48.455709982663393" lon="10.419635027647018">
        <ele>451.48000000000002</ele>
        <time>2018-09-16T11:50:50Z</time>
      </trkpt>
      <trkpt lat="48.455576039850712" lon="10.419925041496754">
        <ele>451</ele>
        <time>2018-09-16T11:50:51Z</time>
      </trkpt>
      <trkpt lat="48.455409994348884" lon="10.420174989849329">
        <ele>451</ele>
        <time>2018-09-16T11:50:52Z</time>
      </trkpt>
      <trkpt lat="48.455216959118843" lon="10.420373976230621">
        <ele>451.48000000000002</ele>
        <time>2018-09-16T11:50:53Z</time>
      </trkpt>
      <trkpt lat="48.455020990222692" lon="10.420575980097055">
        <ele>451</ele>
        <time>2018-09-16T11:50:54Z</time>
      </trkpt>
      <trkpt lat="48.454824015498161" lon="10.42077898979187">
        <ele>450.02999999999997</ele>
        <time>2018-09-16T11:50:55Z</time>
      </trkpt>
      <trkpt lat="48.454598039388657" lon="10.420909998938441">
        <ele>449.55000000000001</ele>
        <time>2018-09-16T11:50:56Z</time>
      </trkpt>
      <trkpt lat="48.454362004995346" lon="10.421016030013561">
        <ele>449.06999999999999</ele>
        <time>2018-09-16T11:50:57Z</time>
      </trkpt>
      <trkpt lat="48.454123036935925" lon="10.421123988926411">
        <ele>448.58999999999997</ele>
        <time>2018-09-16T11:50:58Z</time>
      </trkpt>
      <trkpt lat="48.45235001295805" lon="10.422264011576772">
        <ele>447.63</ele>
        <time>2018-09-16T11:51:06Z</time>
      </trkpt>
      <trkpt lat="48.45217902213335" lon="10.422487976029515">
        <ele>447.63</ele>
        <time>2018-09-16T11:51:07Z</time>
      </trkpt>
      <trkpt lat="48.452013982459903" lon="10.422702971845865">
        <ele>447.63</ele>
        <time>2018-09-16T11:51:08Z</time>
      </trkpt>
      <trkpt lat="48.451852966099977" lon="10.422915033996105">
        <ele>447.63</ele>
        <time>2018-09-16T11:51:09Z</time>
      </trkpt>
      <trkpt lat="48.451732015237212" lon="10.423170011490583">
        <ele>448.11000000000001</ele>
        <time>2018-09-16T11:51:10Z</time>
      </trkpt>
      <trkpt lat="48.451613998040557" lon="10.423417026177049">
        <ele>448.11000000000001</ele>
        <time>2018-09-16T11:51:11Z</time>
      </trkpt>
      <trkpt lat="48.450735993683338" lon="10.425047976896167">
        <ele>449.06999999999999</ele>
        <time>2018-09-16T11:51:19Z</time>
      </trkpt>
      <trkpt lat="48.450226960703731" lon="10.425576958805323">
        <ele>449.55000000000001</ele>
        <time>2018-09-16T11:51:23Z</time>
      </trkpt>
      <trkpt lat="48.450082037597895" lon="10.425691958516836">
        <ele>449.06999999999999</ele>
        <time>2018-09-16T11:51:24Z</time>
      </trkpt>
      <trkpt lat="48.449932001531124" lon="10.425789020955563">
        <ele>449.06999999999999</ele>
        <time>2018-09-16T11:51:25Z</time>
      </trkpt>
      <trkpt lat="48.449774002656341" lon="10.425850041210651">
        <ele>449.06999999999999</ele>
        <time>2018-09-16T11:51:26Z</time>
      </trkpt>
      <trkpt lat="48.449612986296415" lon="10.425911983475089">
        <ele>449.06999999999999</ele>
        <time>2018-09-16T11:51:27Z</time>
      </trkpt>
      <trkpt lat="48.447853038087487" lon="10.426367036998272">
        <ele>451</ele>
        <time>2018-09-16T11:51:38Z</time>
      </trkpt>
      <trkpt lat="48.445769967511296" lon="10.427062986418605">
        <ele>449.55000000000001</ele>
        <time>2018-09-16T11:51:51Z</time>
      </trkpt>
      <trkpt lat="48.44433800317347" lon="10.427258033305407">
        <ele>450.02999999999997</ele>
        <time>2018-09-16T11:52:00Z</time>
      </trkpt>
      <trkpt lat="48.444206994026899" lon="10.427236994728446">
        <ele>449.55000000000001</ele>
        <time>2018-09-16T11:52:01Z</time>
      </trkpt>
      <trkpt lat="48.44407900236547" lon="10.427187038585544">
        <ele>449.55000000000001</ele>
        <time>2018-09-16T11:52:02Z</time>
      </trkpt>
      <trkpt lat="48.443956961855292" lon="10.42711797170341">
        <ele>449.55000000000001</ele>
        <time>2018-09-16T11:52:03Z</time>
      </trkpt>
      <trkpt lat="48.443846991285682" lon="10.427056029438972">
        <ele>449.55000000000001</ele>
        <time>2018-09-16T11:52:04Z</time>
      </trkpt>
      <trkpt lat="48.443753030151129" lon="10.427002971991897">
        <ele>449.06999999999999</ele>
        <time>2018-09-16T11:52:05Z</time>
      </trkpt>
      <trkpt lat="48.443676000460982" lon="10.426958967000246">
        <ele>449.06999999999999</ele>
        <time>2018-09-16T11:52:06Z</time>
      </trkpt>
      <trkpt lat="48.443656973540783" lon="10.426733996719122">
        <ele>449.55000000000001</ele>
        <time>2018-09-16T11:52:07Z</time>
      </trkpt>
      <trkpt lat="48.443609029054642" lon="10.426673982292414">
        <ele>449.55000000000001</ele>
        <time>2018-09-16T11:52:08Z</time>
      </trkpt>
      <trkpt lat="48.443524036556482" lon="10.42664397507906">
        <ele>449.06999999999999</ele>
        <time>2018-09-16T11:52:09Z</time>
      </trkpt>
      <trkpt lat="48.443455975502729" lon="10.426669036969543">
        <ele>448.58999999999997</ele>
        <time>2018-09-16T11:52:10Z</time>
      </trkpt>
      <trkpt lat="48.443398978561163" lon="10.426690997555852">
        <ele>448.58999999999997</ele>
        <time>2018-09-16T11:52:11Z</time>
      </trkpt>
      <trkpt lat="48.443375006318092" lon="10.426928959786892">
        <ele>448.58999999999997</ele>
        <time>2018-09-16T11:52:12Z</time>
      </trkpt>
      <trkpt lat="48.443290013819933" lon="10.427006995305419">
        <ele>448.11000000000001</ele>
        <time>2018-09-16T11:52:13Z</time>
      </trkpt>
      <trkpt lat="48.443189011886716" lon="10.427101040259004">
        <ele>448.11000000000001</ele>
        <time>2018-09-16T11:52:14Z</time>
      </trkpt>
      <trkpt lat="48.443078035488725" lon="10.42720296420157">
        <ele>447.63</ele>
        <time>2018-09-16T11:52:15Z</time>
      </trkpt>
      <trkpt lat="48.442147979512811" lon="10.428459998220205">
        <ele>449.06999999999999</ele>
        <time>2018-09-16T11:52:23Z</time>
      </trkpt>
      <trkpt lat="48.440992031246424" lon="10.430332012474537">
        <ele>449.55000000000001</ele>
        <time>2018-09-16T11:52:31Z</time>
      </trkpt>
      <trkpt lat="48.439411958679557" lon="10.432786988094449">
        <ele>448.58999999999997</ele>
        <time>2018-09-16T11:52:40Z</time>
      </trkpt>
      <trkpt lat="48.439192017540336" lon="10.433007013052702">
        <ele>448.11000000000001</ele>
        <time>2018-09-16T11:52:41Z</time>
      </trkpt>
      <trkpt lat="48.437096038833261" lon="10.434692027047276">
        <ele>449.55000000000001</ele>
        <time>2018-09-16T11:52:50Z</time>
      </trkpt>
      <trkpt lat="48.43574495986104" lon="10.435701962560415">
        <ele>450.51999999999998</ele>
        <time>2018-09-16T11:52:57Z</time>
      </trkpt>
      <trkpt lat="48.434804007411003" lon="10.436110999435186">
        <ele>449.55000000000001</ele>
        <time>2018-09-16T11:53:03Z</time>
      </trkpt>
      <trkpt lat="48.434643996879458" lon="10.435960041359067">
        <ele>449.55000000000001</ele>
        <time>2018-09-16T11:53:04Z</time>
      </trkpt>
      <trkpt lat="48.434536959975958" lon="10.435960041359067">
        <ele>449.06999999999999</ele>
        <time>2018-09-16T11:53:06Z</time>
      </trkpt>
      <trkpt lat="48.434430006891489" lon="10.436046039685607">
        <ele>449.06999999999999</ele>
        <time>2018-09-16T11:53:07Z</time>
      </trkpt>
      <trkpt lat="48.434430006891489" lon="10.436046039685607">
        <ele>449.06999999999999</ele>
        <time>2018-09-16T11:53:08Z</time>
      </trkpt>
      <trkpt lat="48.434240994974971" lon="10.436282996088266">
        <ele>449.06999999999999</ele>
        <time>2018-09-16T11:53:09Z</time>
      </trkpt>
      <trkpt lat="48.43411099165678" lon="10.436304034665227">
        <ele>449.06999999999999</ele>
        <time>2018-09-16T11:53:10Z</time>
      </trkpt>
      <trkpt lat="48.433961039409041" lon="10.436327001079917">
        <ele>449.06999999999999</ele>
        <time>2018-09-16T11:53:11Z</time>
      </trkpt>
      <trkpt lat="48.433792982250452" lon="10.436353990808129">
        <ele>448.58999999999997</ele>
        <time>2018-09-16T11:53:12Z</time>
      </trkpt>
      <trkpt lat="48.433608999475837" lon="10.436363965272903">
        <ele>449.06999999999999</ele>
        <time>2018-09-16T11:53:13Z</time>
      </trkpt>
      <trkpt lat="48.432278037071228" lon="10.436191968619823">
        <ele>450.02999999999997</ele>
        <time>2018-09-16T11:53:19Z</time>
      </trkpt>
      <trkpt lat="48.430314995348454" lon="10.435367021709681">
        <ele>450.02999999999997</ele>
        <time>2018-09-16T11:53:27Z</time>
      </trkpt>
      <trkpt lat="48.428895017132163" lon="10.435071978718042">
        <ele>450.02999999999997</ele>
        <time>2018-09-16T11:53:34Z</time>
      </trkpt>
      <trkpt lat="48.427677964791656" lon="10.435218997299671">
        <ele>450.02999999999997</ele>
        <time>2018-09-16T11:53:42Z</time>
      </trkpt>
      <trkpt lat="48.427542010322213" lon="10.435038032010198">
        <ele>450.02999999999997</ele>
        <time>2018-09-16T11:53:43Z</time>
      </trkpt>
      <trkpt lat="48.427398009225726" lon="10.434957984834909">
        <ele>450.02999999999997</ele>
        <time>2018-09-16T11:53:45Z</time>
      </trkpt>
      <trkpt lat="48.427292983978987" lon="10.434996960684657">
        <ele>450.02999999999997</ele>
        <time>2018-09-16T11:53:46Z</time>
      </trkpt>
      <trkpt lat="48.427241016179323" lon="10.435058986768126">
        <ele>449.55000000000001</ele>
        <time>2018-09-16T11:53:47Z</time>
      </trkpt>
      <trkpt lat="48.427132973447442" lon="10.435231989249587">
        <ele>449.55000000000001</ele>
        <time>2018-09-16T11:53:48Z</time>
      </trkpt>
      <trkpt lat="48.427021997049451" lon="10.435234000906348">
        <ele>449.06999999999999</ele>
        <time>2018-09-16T11:53:49Z</time>
      </trkpt>
      <trkpt lat="48.426899034529924" lon="10.435236012563109">
        <ele>449.06999999999999</ele>
        <time>2018-09-16T11:53:50Z</time>
      </trkpt>
      <trkpt lat="48.426773976534605" lon="10.435238024219871">
        <ele>449.06999999999999</ele>
        <time>2018-09-16T11:53:51Z</time>
      </trkpt>
      <trkpt lat="48.426647996529937" lon="10.435241041705012">
        <ele>449.06999999999999</ele>
        <time>2018-09-16T11:53:52Z</time>
      </trkpt>
      <trkpt lat="48.42527998611331" lon="10.435281023383141">
        <ele>453.39999999999998</ele>
        <time>2018-09-16T11:54:01Z</time>
      </trkpt>
      <trkpt lat="48.423164980486035" lon="10.435422006994486">
        <ele>450.51999999999998</ele>
        <time>2018-09-16T11:54:11Z</time>
      </trkpt>
      <trkpt lat="48.421768974512815" lon="10.435824003070593">
        <ele>448.11000000000001</ele>
        <time>2018-09-16T11:54:16Z</time>
      </trkpt>
      <trkpt lat="48.419320033863187" lon="10.436691027134657">
        <ele>449.55000000000001</ele>
        <time>2018-09-16T11:54:24Z</time>
      </trkpt>
      <trkpt lat="48.417584979906678" lon="10.437420001253486">
        <ele>451.48000000000002</ele>
        <time>2018-09-16T11:54:31Z</time>
      </trkpt>
      <trkpt lat="48.416418973356485" lon="10.438427003100514">
        <ele>452.92000000000002</ele>
        <time>2018-09-16T11:54:37Z</time>
      </trkpt>
      <trkpt lat="48.416229961439967" lon="10.438510989770293">
        <ele>453.39999999999998</ele>
        <time>2018-09-16T11:54:38Z</time>
      </trkpt>
      <trkpt lat="48.416052013635635" lon="10.438590031117201">
        <ele>453.39999999999998</ele>
        <time>2018-09-16T11:54:39Z</time>
      </trkpt>
      <trkpt lat="48.415884962305427" lon="10.438663959503174">
        <ele>453.39999999999998</ele>
        <time>2018-09-16T11:54:40Z</time>
      </trkpt>
      <trkpt lat="48.415726963430643" lon="10.438733026385307">
        <ele>453.39999999999998</ele>
        <time>2018-09-16T11:54:41Z</time>
      </trkpt>
      <trkpt lat="48.415573993697762" lon="10.438770996406674">
        <ele>453.39999999999998</ele>
        <time>2018-09-16T11:54:42Z</time>
      </trkpt>
      <trkpt lat="48.415458993986249" lon="10.438628001138568">
        <ele>452.92000000000002</ele>
        <time>2018-09-16T11:54:43Z</time>
      </trkpt>
      <trkpt lat="48.41537400148809" lon="10.438548037782311">
        <ele>452.92000000000002</ele>
        <time>2018-09-16T11:54:44Z</time>
      </trkpt>
      <trkpt lat="48.415290014818311" lon="10.438468996435404">
        <ele>452.44</ele>
        <time>2018-09-16T11:54:45Z</time>
      </trkpt>
      <trkpt lat="48.4152249712497" lon="10.438375035300851">
        <ele>452.44</ele>
        <time>2018-09-16T11:54:46Z</time>
      </trkpt>
      <trkpt lat="48.41518297791481" lon="10.438273027539253">
        <ele>452.44</ele>
        <time>2018-09-16T11:54:47Z</time>
      </trkpt>
      <trkpt lat="48.415154982358217" lon="10.438203038647771">
        <ele>452.44</ele>
        <time>2018-09-16T11:54:48Z</time>
      </trkpt>
      <trkpt lat="48.415127992630005" lon="10.43813900090754">
        <ele>452.44</ele>
        <time>2018-09-16T11:54:49Z</time>
      </trkpt>
      <trkpt lat="48.415099997073412" lon="10.438069012016058">
        <ele>452.44</ele>
        <time>2018-09-16T11:54:50Z</time>
      </trkpt>
      <trkpt lat="48.41505297459662" lon="10.437956023961306">
        <ele>452.92000000000002</ele>
        <time>2018-09-16T11:54:51Z</time>
      </trkpt>
      <trkpt lat="48.415032019838691" lon="10.437848987057805">
        <ele>452.92000000000002</ele>
        <time>2018-09-16T11:54:52Z</time>
      </trkpt>
      <trkpt lat="48.415005030110478" lon="10.437711020931602">
        <ele>453.39999999999998</ele>
        <time>2018-09-16T11:54:53Z</time>
      </trkpt>
      <trkpt lat="48.41496798209846" lon="10.437527038156986">
        <ele>453.39999999999998</ele>
        <time>2018-09-16T11:54:54Z</time>
      </trkpt>
      <trkpt lat="48.414921965450048" lon="10.437412038445473">
        <ele>453.39999999999998</ele>
        <time>2018-09-16T11:54:55Z</time>
      </trkpt>
      <trkpt lat="48.41485901735723" lon="10.437254039570689">
        <ele>453.39999999999998</ele>
        <time>2018-09-16T11:54:56Z</time>
      </trkpt>
      <trkpt lat="48.414791962131858" lon="10.437092017382383">
        <ele>453.88</ele>
        <time>2018-09-16T11:54:57Z</time>
      </trkpt>
      <trkpt lat="48.414695989340544" lon="10.436958996579051">
        <ele>454.36000000000001</ele>
        <time>2018-09-16T11:54:58Z</time>
      </trkpt>
      <trkpt lat="48.414602028205991" lon="10.436829999089241">
        <ele>454.36000000000001</ele>
        <time>2018-09-16T11:54:59Z</time>
      </trkpt>
      <trkpt lat="48.414517035707831" lon="10.436710976064205">
        <ele>454.36000000000001</ele>
        <time>2018-09-16T11:55:00Z</time>
      </trkpt>
      <trkpt lat="48.414423996582627" lon="10.436662025749683">
        <ele>454.83999999999997</ele>
        <time>2018-09-16T11:55:01Z</time>
      </trkpt>
      <trkpt lat="48.414341015741229" lon="10.436619026586413">
        <ele>455.31999999999999</ele>
        <time>2018-09-16T11:55:02Z</time>
      </trkpt>
      <trkpt lat="48.414271026849747" lon="10.436580972746015">
        <ele>455.80000000000001</ele>
        <time>2018-09-16T11:55:03Z</time>
      </trkpt>
      <trkpt lat="48.414211012423038" lon="10.43654995970428">
        <ele>456.27999999999997</ele>
        <time>2018-09-16T11:55:04Z</time>
      </trkpt>
      <trkpt lat="48.414047984406352" lon="10.436518024653196">
        <ele>458.20999999999998</ele>
        <time>2018-09-16T11:55:12Z</time>
      </trkpt>
      <trkpt lat="48.413779009133577" lon="10.436518024653196">
        <ele>459.17000000000002</ele>
        <time>2018-09-16T11:55:25Z</time>
      </trkpt>
      <trkpt lat="48.412919025868177" lon="10.436611985787749">
        <ele>460.13</ele>
        <time>2018-09-16T11:55:32Z</time>
      </trkpt>
      <trkpt lat="48.412167001515627" lon="10.436696978285909">
        <ele>459.64999999999998</ele>
        <time>2018-09-16T11:55:40Z</time>
      </trkpt>
      <trkpt lat="48.412103969603777" lon="10.436704019084573">
        <ele>459.64999999999998</ele>
        <time>2018-09-16T11:55:41Z</time>
      </trkpt>
      <trkpt lat="48.412015959620476" lon="10.436652973294258">
        <ele>459.64999999999998</ele>
        <time>2018-09-16T11:55:42Z</time>
      </trkpt>
      <trkpt lat="48.411947982385755" lon="10.436561023816466">
        <ele>459.64999999999998</ele>
        <time>2018-09-16T11:55:43Z</time>
      </trkpt>
      <trkpt lat="48.411870030686259" lon="10.436561023816466">
        <ele>459.64999999999998</ele>
        <time>2018-09-16T11:55:44Z</time>
      </trkpt>
      <trkpt lat="48.411802975460887" lon="10.436601005494595">
        <ele>459.17000000000002</ele>
        <time>2018-09-16T11:55:45Z</time>
      </trkpt>
      <trkpt lat="48.411770034581423" lon="10.436625983566046">
        <ele>458.69</ele>
        <time>2018-09-16T11:55:46Z</time>
      </trkpt>
      <trkpt lat="48.411695016548038" lon="10.436808038502932">
        <ele>458.69</ele>
        <time>2018-09-16T11:55:47Z</time>
      </trkpt>
      <trkpt lat="48.411629972979426" lon="10.436821030452847">
        <ele>458.20999999999998</ele>
        <time>2018-09-16T11:55:48Z</time>
      </trkpt>
      <trkpt lat="48.411555960774422" lon="10.436836034059525">
        <ele>458.20999999999998</ele>
        <time>2018-09-16T11:55:49Z</time>
      </trkpt>
      <trkpt lat="48.411470968276262" lon="10.436852965503931">
        <ele>457.72000000000003</ele>
        <time>2018-09-16T11:55:50Z</time>
      </trkpt>
      <trkpt lat="48.410571003332734" lon="10.437241969630122">
        <ele>454.83999999999997</ele>
        <time>2018-09-16T11:55:58Z</time>
      </trkpt>
      <trkpt lat="48.410482993349433" lon="10.437291003763676">
        <ele>454.36000000000001</ele>
        <time>2018-09-16T11:55:59Z</time>
      </trkpt>
      <trkpt lat="48.410396995022893" lon="10.437355041503906">
        <ele>454.83999999999997</ele>
        <time>2018-09-16T11:56:00Z</time>
      </trkpt>
      <trkpt lat="48.410224998369813" lon="10.437334002926946">
        <ele>454.83999999999997</ele>
        <time>2018-09-16T11:56:01Z</time>
      </trkpt>
      <trkpt lat="48.410224998369813" lon="10.437334002926946">
        <ele>454.83999999999997</ele>
        <time>2018-09-16T11:56:02Z</time>
      </trkpt>
      <trkpt lat="48.410087032243609" lon="10.4371930193156">
        <ele>454.83999999999997</ele>
        <time>2018-09-16T11:56:03Z</time>
      </trkpt>
      <trkpt lat="48.410048978403211" lon="10.437067961320281">
        <ele>454.83999999999997</ele>
        <time>2018-09-16T11:56:04Z</time>
      </trkpt>
      <trkpt lat="48.410010002553463" lon="10.436932006850839">
        <ele>454.83999999999997</ele>
        <time>2018-09-16T11:56:05Z</time>
      </trkpt>
      <trkpt lat="48.409967003390193" lon="10.43678498826921">
        <ele>454.83999999999997</ele>
        <time>2018-09-16T11:56:06Z</time>
      </trkpt>
      <trkpt lat="48.409924004226923" lon="10.436632018536329">
        <ele>454.83999999999997</ele>
        <time>2018-09-16T11:56:07Z</time>
      </trkpt>
      <trkpt lat="48.409876981750131" lon="10.436466978862882">
        <ele>454.36000000000001</ele>
        <time>2018-09-16T11:56:08Z</time>
      </trkpt>
      <trkpt lat="48.409774973988533" lon="10.436110999435186">
        <ele>453.88</ele>
        <time>2018-09-16T11:56:10Z</time>
      </trkpt>
      <trkpt lat="48.409729963168502" lon="10.435937996953726">
        <ele>454.36000000000001</ele>
        <time>2018-09-16T11:56:11Z</time>
      </trkpt>
      <trkpt lat="48.409168962389231" lon="10.43386297300458">
        <ele>455.80000000000001</ele>
        <time>2018-09-16T11:56:24Z</time>
      </trkpt>
      <trkpt lat="48.408587006852031" lon="10.432102018967271">
        <ele>455.80000000000001</ele>
        <time>2018-09-16T11:56:34Z</time>
      </trkpt>
      <trkpt lat="48.407730041071773" lon="10.430678017437458">
        <ele>455.31999999999999</ele>
        <time>2018-09-16T11:56:41Z</time>
      </trkpt>
      <trkpt lat="48.406383991241455" lon="10.429330039769411">
        <ele>456.27999999999997</ele>
        <time>2018-09-16T11:56:48Z</time>
      </trkpt>
      <trkpt lat="48.405112959444523" lon="10.427647959440947">
        <ele>456.75999999999999</ele>
        <time>2018-09-16T11:56:55Z</time>
      </trkpt>
      <trkpt lat="48.404448023065925" lon="10.425640996545553">
        <ele>459.17000000000002</ele>
        <time>2018-09-16T11:57:01Z</time>
      </trkpt>
      <trkpt lat="48.404005961492658" lon="10.422598030418158">
        <ele>458.20999999999998</ele>
        <time>2018-09-16T11:57:09Z</time>
      </trkpt>
      <trkpt lat="48.403187971562147" lon="10.420529963448644">
        <ele>457.24000000000001</ele>
        <time>2018-09-16T11:57:15Z</time>
      </trkpt>
      <trkpt lat="48.40188198722899" lon="10.419051982462406">
        <ele>456.75999999999999</ele>
        <time>2018-09-16T11:57:21Z</time>
      </trkpt>
      <trkpt lat="48.400554964318871" lon="10.418556025251746">
        <ele>456.75999999999999</ele>
        <time>2018-09-16T11:57:26Z</time>
      </trkpt>
      <trkpt lat="48.398914961144328" lon="10.418751994147897">
        <ele>457.24000000000001</ele>
        <time>2018-09-16T11:57:32Z</time>
      </trkpt>
      <trkpt lat="48.393905013799667" lon="10.420180018991232">
        <ele>458.69</ele>
        <time>2018-09-16T11:57:50Z</time>
      </trkpt>
      <trkpt lat="48.391118030995131" lon="10.421000020578504">
        <ele>457.72000000000003</ele>
        <time>2018-09-16T11:58:01Z</time>
      </trkpt>
      <trkpt lat="48.389957975596189" lon="10.421291040256619">
        <ele>458.69</ele>
        <time>2018-09-16T11:58:08Z</time>
      </trkpt>
      <trkpt lat="48.389718001708388" lon="10.421381983906031">
        <ele>458.69</ele>
        <time>2018-09-16T11:58:10Z</time>
      </trkpt>
      <trkpt lat="48.389539970085025" lon="10.421282993629575">
        <ele>459.17000000000002</ele>
        <time>2018-09-16T11:58:11Z</time>
      </trkpt>
      <trkpt lat="48.389520021155477" lon="10.421266984194517">
        <ele>459.64999999999998</ele>
        <time>2018-09-16T11:58:12Z</time>
      </trkpt>
      <trkpt lat="48.389407033100724" lon="10.421209987252951">
        <ele>459.64999999999998</ele>
        <time>2018-09-16T11:58:13Z</time>
      </trkpt>
      <trkpt lat="48.3893340267241" lon="10.421247035264969">
        <ele>459.64999999999998</ele>
        <time>2018-09-16T11:58:14Z</time>
      </trkpt>
      <trkpt lat="48.389261020347476" lon="10.421282993629575">
        <ele>459.64999999999998</ele>
        <time>2018-09-16T11:58:15Z</time>
      </trkpt>
      <trkpt lat="48.38920402340591" lon="10.421544006094337">
        <ele>459.64999999999998</ele>
        <time>2018-09-16T11:58:16Z</time>
      </trkpt>
      <trkpt lat="48.389100003987551" lon="10.421567978337407">
        <ele>459.64999999999998</ele>
        <time>2018-09-16T11:58:17Z</time>
      </trkpt>
      <trkpt lat="48.388973018154502" lon="10.421596979722381">
        <ele>459.64999999999998</ele>
        <time>2018-09-16T11:58:18Z</time>
      </trkpt>
      <trkpt lat="48.388828011229634" lon="10.421641990542412">
        <ele>460.13</ele>
        <time>2018-09-16T11:58:19Z</time>
      </trkpt>
      <trkpt lat="48.387366961687803" lon="10.422172984108329">
        <ele>460.13</ele>
        <time>2018-09-16T11:58:27Z</time>
      </trkpt>
      <trkpt lat="48.385718995705247" lon="10.423366986215115">
        <ele>459.64999999999998</ele>
        <time>2018-09-16T11:58:35Z</time>
      </trkpt>
      <trkpt lat="48.383607007563114" lon="10.425052000209689">
        <ele>463.00999999999999</ele>
        <time>2018-09-16T11:58:45Z</time>
      </trkpt>
      <trkpt lat="48.382132966071367" lon="10.425281999632716">
        <ele>462.52999999999997</ele>
        <time>2018-09-16T11:58:51Z</time>
      </trkpt>
      <trkpt lat="48.379627028480172" lon="10.424773972481489">
        <ele>462.52999999999997</ele>
        <time>2018-09-16T11:59:00Z</time>
      </trkpt>
      <trkpt lat="48.377964980900288" lon="10.424986034631729">
        <ele>463.00999999999999</ele>
        <time>2018-09-16T11:59:06Z</time>
      </trkpt>
      <trkpt lat="48.377489978447556" lon="10.425270013511181">
        <ele>463.00999999999999</ele>
        <time>2018-09-16T11:59:08Z</time>
      </trkpt>
      <trkpt lat="48.377266013994813" lon="10.425424994900823">
        <ele>463.00999999999999</ele>
        <time>2018-09-16T11:59:09Z</time>
      </trkpt>
      <trkpt lat="48.377057975158095" lon="10.42563303373754">
        <ele>463.00999999999999</ele>
        <time>2018-09-16T11:59:10Z</time>
      </trkpt>
      <trkpt lat="48.376852031797171" lon="10.425838977098465">
        <ele>463.00999999999999</ele>
        <time>2018-09-16T11:59:11Z</time>
      </trkpt>
      <trkpt lat="48.376666037365794" lon="10.426075011491776">
        <ele>462.52999999999997</ele>
        <time>2018-09-16T11:59:12Z</time>
      </trkpt>
      <trkpt lat="48.376492029055953" lon="10.426311967894435">
        <ele>463.00999999999999</ele>
        <time>2018-09-16T11:59:13Z</time>
      </trkpt>
      <trkpt lat="48.376349033787847" lon="10.426554959267378">
        <ele>463.00999999999999</ele>
        <time>2018-09-16T11:59:14Z</time>
      </trkpt>
      <trkpt lat="48.376215007156134" lon="10.426798034459352">
        <ele>463.49000000000001</ele>
        <time>2018-09-16T11:59:15Z</time>
      </trkpt>
      <trkpt lat="48.37607896886766" lon="10.427039014175534">
        <ele>463.97000000000003</ele>
        <time>2018-09-16T11:59:16Z</time>
      </trkpt>
      <trkpt lat="48.375967992469668" lon="10.427315030246973">
        <ele>463.97000000000003</ele>
        <time>2018-09-16T11:59:17Z</time>
      </trkpt>
      <trkpt lat="48.375872019678354" lon="10.427612001076341">
        <ele>464.44999999999999</ele>
        <time>2018-09-16T11:59:18Z</time>
      </trkpt>
      <trkpt lat="48.37577504105866" lon="10.427921963855624">
        <ele>464.93000000000001</ele>
        <time>2018-09-16T11:59:19Z</time>
      </trkpt>
      <trkpt lat="48.375427024438977" lon="10.430162027478218">
        <ele>464.93000000000001</ele>
        <time>2018-09-16T11:59:25Z</time>
      </trkpt>
      <trkpt lat="48.374908016994596" lon="10.434218030422926">
        <ele>463.00999999999999</ele>
        <time>2018-09-16T11:59:35Z</time>
      </trkpt>
      <trkpt lat="48.374111987650394" lon="10.436434037983418">
        <ele>463.00999999999999</ele>
        <time>2018-09-16T11:59:41Z</time>
      </trkpt>
      <trkpt lat="48.373144967481494" lon="10.4396210052073">
        <ele>466.38</ele>
        <time>2018-09-16T11:59:49Z</time>
      </trkpt>
      <trkpt lat="48.372939024120569" lon="10.442158961668611">
        <ele>477.43000000000001</ele>
        <time>2018-09-16T11:59:55Z</time>
      </trkpt>
      <trkpt lat="48.372875992208719" lon="10.442532040178776">
        <ele>479.35000000000002</ele>
        <time>2018-09-16T11:59:56Z</time>
      </trkpt>
      <trkpt lat="48.372796028852463" lon="10.442890031263232">
        <ele>481.27999999999997</ele>
        <time>2018-09-16T11:59:57Z</time>
      </trkpt>
      <trkpt lat="48.372664013877511" lon="10.443220026791096">
        <ele>483.19999999999999</ele>
        <time>2018-09-16T11:59:58Z</time>
      </trkpt>
      <trkpt lat="48.372524036094546" lon="10.443536024540663">
        <ele>485.12</ele>
        <time>2018-09-16T11:59:59Z</time>
      </trkpt>
      <trkpt lat="48.372366037219763" lon="10.443837018683553">
        <ele>487.05000000000001</ele>
        <time>2018-09-16T12:00:00Z</time>
      </trkpt>
      <trkpt lat="48.372185993939638" lon="10.444101970642805">
        <ele>489.44999999999999</ele>
        <time>2018-09-16T12:00:01Z</time>
      </trkpt>
      <trkpt lat="48.372002011165023" lon="10.444354014471173">
        <ele>491.37</ele>
        <time>2018-09-16T12:00:02Z</time>
      </trkpt>
      <trkpt lat="48.371814005076885" lon="10.444577978923917">
        <ele>492.81</ele>
        <time>2018-09-16T12:00:03Z</time>
      </trkpt>
      <trkpt lat="48.371606972068548" lon="10.444752993062139">
        <ele>494.74000000000001</ele>
        <time>2018-09-16T12:00:04Z</time>
      </trkpt>
      <trkpt lat="48.371389964595437" lon="10.444916021078825">
        <ele>495.69999999999999</ele>
        <time>2018-09-16T12:00:05Z</time>
      </trkpt>
      <trkpt lat="48.3711570315063" lon="10.44505700469017">
        <ele>496.66000000000003</ele>
        <time>2018-09-16T12:00:06Z</time>
      </trkpt>
      <trkpt lat="48.368639023974538" lon="10.446499027311802">
        <ele>499.54000000000002</ele>
        <time>2018-09-16T12:00:16Z</time>
      </trkpt>
      <trkpt lat="48.366731973364949" lon="10.446850983425975">
        <ele>499.06</ele>
        <time>2018-09-16T12:00:23Z</time>
      </trkpt>
      <trkpt lat="48.365131029859185" lon="10.447341995313764">
        <ele>498.57999999999998</ele>
        <time>2018-09-16T12:00:29Z</time>
      </trkpt>
      <trkpt lat="48.362574968487024" lon="10.448455028235912">
        <ele>501.45999999999998</ele>
        <time>2018-09-16T12:00:39Z</time>
      </trkpt>
      <trkpt lat="48.360704965889454" lon="10.448577990755439">
        <ele>501.45999999999998</ele>
        <time>2018-09-16T12:00:46Z</time>
      </trkpt>
      <trkpt lat="48.358252001926303" lon="10.448894994333386">
        <ele>502.43000000000001</ele>
        <time>2018-09-16T12:00:55Z</time>
      </trkpt>
      <trkpt lat="48.356450982391834" lon="10.449478039517999">
        <ele>504.82999999999998</ele>
        <time>2018-09-16T12:01:02Z</time>
      </trkpt>
      <trkpt lat="48.355164024978876" lon="10.450656032189727">
        <ele>507.23000000000002</ele>
        <time>2018-09-16T12:01:08Z</time>
      </trkpt>
      <trkpt lat="48.353904979303479" lon="10.45281495898962">
        <ele>508.19</ele>
        <time>2018-09-16T12:01:15Z</time>
      </trkpt>
      <trkpt lat="48.352328008040786" lon="10.456264028325677">
        <ele>506.26999999999998</ele>
        <time>2018-09-16T12:01:25Z</time>
      </trkpt>
      <trkpt lat="48.350708037614822" lon="10.458688996732235">
        <ele>506.26999999999998</ele>
        <time>2018-09-16T12:01:33Z</time>
      </trkpt>
      <trkpt lat="48.34883401170373" lon="10.460516000166535">
        <ele>504.35000000000002</ele>
        <time>2018-09-16T12:01:41Z</time>
      </trkpt>
      <trkpt lat="48.345747962594032" lon="10.462464960291982">
        <ele>502.43000000000001</ele>
        <time>2018-09-16T12:01:53Z</time>
      </trkpt>
      <trkpt lat="48.342397967353463" lon="10.463972026482224">
        <ele>500.98000000000002</ele>
        <time>2018-09-16T12:02:05Z</time>
      </trkpt>
      <trkpt lat="48.340621003881097" lon="10.464287018403411">
        <ele>500.5</ele>
        <time>2018-09-16T12:02:11Z</time>
      </trkpt>
      <trkpt lat="48.338523013517261" lon="10.463846968486905">
        <ele>497.62</ele>
        <time>2018-09-16T12:02:18Z</time>
      </trkpt>
      <trkpt lat="48.335953038185835" lon="10.463112965226173">
        <ele>490.41000000000003</ele>
        <time>2018-09-16T12:02:27Z</time>
      </trkpt>
      <trkpt lat="48.333614990115166" lon="10.462620025500655">
        <ele>496.18000000000001</ele>
        <time>2018-09-16T12:02:35Z</time>
      </trkpt>
      <trkpt lat="48.332042964175344" lon="10.461312029510736">
        <ele>502.91000000000003</ele>
        <time>2018-09-16T12:02:41Z</time>
      </trkpt>
      <trkpt lat="48.33102498203516" lon="10.459618968889117">
        <ele>506.26999999999998</ele>
        <time>2018-09-16T12:02:46Z</time>
      </trkpt>
      <trkpt lat="48.330420982092619" lon="10.457511004060507">
        <ele>508.19</ele>
        <time>2018-09-16T12:02:51Z</time>
      </trkpt>
      <trkpt lat="48.330028960481286" lon="10.454672975465655">
        <ele>507.23000000000002</ele>
        <time>2018-09-16T12:02:58Z</time>
      </trkpt>
      <trkpt lat="48.329408029094338" lon="10.45251103118062">
        <ele>501.45999999999998</ele>
        <time>2018-09-16T12:03:04Z</time>
      </trkpt>
      <trkpt lat="48.329065041616559" lon="10.451978025957942">
        <ele>499.06</ele>
        <time>2018-09-16T12:03:06Z</time>
      </trkpt>
      <trkpt lat="48.328881980851293" lon="10.451724976301193">
        <ele>498.10000000000002</ele>
        <time>2018-09-16T12:03:07Z</time>
      </trkpt>
      <trkpt lat="48.328699003905058" lon="10.451471004635096">
        <ele>496.66000000000003</ele>
        <time>2018-09-16T12:03:08Z</time>
      </trkpt>
      <trkpt lat="48.328491970896721" lon="10.451277969405055">
        <ele>495.22000000000003</ele>
        <time>2018-09-16T12:03:09Z</time>
      </trkpt>
      <trkpt lat="48.32827496342361" lon="10.451092980802059">
        <ele>493.76999999999998</ele>
        <time>2018-09-16T12:03:10Z</time>
      </trkpt>
      <trkpt lat="48.328054016456008" lon="10.450930958613753">
        <ele>491.85000000000002</ele>
        <time>2018-09-16T12:03:11Z</time>
      </trkpt>
      <trkpt lat="48.326198011636734" lon="10.449753971770406">
        <ele>484.63999999999999</ele>
        <time>2018-09-16T12:03:19Z</time>
      </trkpt>
      <trkpt lat="48.324717013165355" lon="10.448831962421536">
        <ele>482.24000000000001</ele>
        <time>2018-09-16T12:03:26Z</time>
      </trkpt>
      <trkpt lat="48.323145993053913" lon="10.448504984378815">
        <ele>481.27999999999997</ele>
        <time>2018-09-16T12:03:34Z</time>
      </trkpt>
      <trkpt lat="48.321469025686383" lon="10.448453016579151">
        <ele>480.80000000000001</ele>
        <time>2018-09-16T12:03:44Z</time>
      </trkpt>
      <trkpt lat="48.319511013105512" lon="10.448562987148762">
        <ele>479.35000000000002</ele>
        <time>2018-09-16T12:03:56Z</time>
      </trkpt>
      <trkpt lat="48.318528989329934" lon="10.448821987956762">
        <ele>479.83999999999997</ele>
        <time>2018-09-16T12:04:04Z</time>
      </trkpt>
      <trkpt lat="48.317373963072896" lon="10.449173022061586">
        <ele>481.75999999999999</ele>
        <time>2018-09-16T12:04:15Z</time>
      </trkpt>
      <trkpt lat="48.316662004217505" lon="10.449392963200808">
        <ele>481.75999999999999</ele>
        <time>2018-09-16T12:04:21Z</time>
      </trkpt>
      <trkpt lat="48.316541975364089" lon="10.449392963200808">
        <ele>481.75999999999999</ele>
        <time>2018-09-16T12:04:22Z</time>
      </trkpt>
      <trkpt lat="48.315949961543083" lon="10.449415007606149">
        <ele>480.80000000000001</ele>
        <time>2018-09-16T12:04:27Z</time>
      </trkpt>
      <trkpt lat="48.315834039822221" lon="10.44946102425456">
        <ele>480.31999999999999</ele>
        <time>2018-09-16T12:04:28Z</time>
      </trkpt>
      <trkpt lat="48.315719040110707" lon="10.449507040902972">
        <ele>480.31999999999999</ele>
        <time>2018-09-16T12:04:29Z</time>
      </trkpt>
      <trkpt lat="48.315616026520729" lon="10.449580969288945">
        <ele>480.31999999999999</ele>
        <time>2018-09-16T12:04:30Z</time>
      </trkpt>
      <trkpt lat="48.31551200710237" lon="10.449671996757388">
        <ele>479.83999999999997</ele>
        <time>2018-09-16T12:04:31Z</time>
      </trkpt>
      <trkpt lat="48.315408993512392" lon="10.449763024225831">
        <ele>479.83999999999997</ele>
        <time>2018-09-16T12:04:32Z</time>
      </trkpt>
      <trkpt lat="48.315303968265653" lon="10.449855979532003">
        <ele>479.83999999999997</ele>
        <time>2018-09-16T12:04:33Z</time>
      </trkpt>
      <trkpt lat="48.314271988347173" lon="10.450768014416099">
        <ele>481.27999999999997</ele>
        <time>2018-09-16T12:04:43Z</time>
      </trkpt>
      <trkpt lat="48.313967976719141" lon="10.45105098746717">
        <ele>482.72000000000003</ele>
        <time>2018-09-16T12:04:46Z</time>
      </trkpt>
      <trkpt lat="48.313876027241349" lon="10.451155006885529">
        <ele>483.68000000000001</ele>
        <time>2018-09-16T12:04:47Z</time>
      </trkpt>
      <trkpt lat="48.313006991520524" lon="10.452132001519203">
        <ele>486.56</ele>
        <time>2018-09-16T12:04:56Z</time>
      </trkpt>
      <trkpt lat="48.312905989587307" lon="10.452219005674124">
        <ele>486.56</ele>
        <time>2018-09-16T12:04:57Z</time>
      </trkpt>
      <trkpt lat="48.312797024846077" lon="10.452287988737226">
        <ele>487.05000000000001</ele>
        <time>2018-09-16T12:04:58Z</time>
      </trkpt>
      <trkpt lat="48.311649039387703" lon="10.452890982851386">
        <ele>485.60000000000002</ele>
        <time>2018-09-16T12:05:08Z</time>
      </trkpt>
      <trkpt lat="48.311028024181724" lon="10.453418036922812">
        <ele>484.63999999999999</ele>
        <time>2018-09-16T12:05:14Z</time>
      </trkpt>
      <trkpt lat="48.310926016420126" lon="10.453505041077733">
        <ele>484.63999999999999</ele>
        <time>2018-09-16T12:05:15Z</time>
      </trkpt>
      <trkpt lat="48.309767972677946" lon="10.454404000192881">
        <ele>482.24000000000001</ele>
        <time>2018-09-16T12:05:26Z</time>
      </trkpt>
      <trkpt lat="48.309665964916348" lon="10.454497961327434">
        <ele>482.24000000000001</ele>
        <time>2018-09-16T12:05:27Z</time>
      </trkpt>
      <trkpt lat="48.308517979457974" lon="10.455421982333064">
        <ele>483.68000000000001</ele>
        <time>2018-09-16T12:05:38Z</time>
      </trkpt>
      <trkpt lat="48.307823035866022" lon="10.455788020044565">
        <ele>483.68000000000001</ele>
        <time>2018-09-16T12:05:44Z</time>
      </trkpt>
      <trkpt lat="48.307598987594247" lon="10.455915005877614">
        <ele>484.16000000000003</ele>
        <time>2018-09-16T12:05:46Z</time>
      </trkpt>
      <trkpt lat="48.307482982054353" lon="10.455981977283955">
        <ele>484.16000000000003</ele>
        <time>2018-09-16T12:05:47Z</time>
      </trkpt>
      <trkpt lat="48.306474974378943" lon="10.456569967791438">
        <ele>487.05000000000001</ele>
        <time>2018-09-16T12:05:56Z</time>
      </trkpt>
      <trkpt lat="48.305468978360295" lon="10.45717497356236">
        <ele>486.56</ele>
        <time>2018-09-16T12:06:05Z</time>
      </trkpt>
      <trkpt lat="48.304896997287869" lon="10.457332972437143">
        <ele>484.16000000000003</ele>
        <time>2018-09-16T12:06:10Z</time>
      </trkpt>
      <trkpt lat="48.304783003404737" lon="10.457353005185723">
        <ele>484.16000000000003</ele>
        <time>2018-09-16T12:06:11Z</time>
      </trkpt>
      <trkpt lat="48.304654005914927" lon="10.457374965772033">
        <ele>483.68000000000001</ele>
        <time>2018-09-16T12:06:12Z</time>
      </trkpt>
      <trkpt lat="48.303577015176415" lon="10.457372032105923">
        <ele>485.12</ele>
        <time>2018-09-16T12:06:21Z</time>
      </trkpt>
      <trkpt lat="48.303340980783105" lon="10.457360967993736">
        <ele>485.60000000000002</ele>
        <time>2018-09-16T12:06:23Z</time>
      </trkpt>
      <trkpt lat="48.303224975243211" lon="10.457356022670865">
        <ele>485.60000000000002</ele>
        <time>2018-09-16T12:06:24Z</time>
      </trkpt>
      <trkpt lat="48.303110981360078" lon="10.457383012399077">
        <ele>485.60000000000002</ele>
        <time>2018-09-16T12:06:25Z</time>
      </trkpt>
      <trkpt lat="48.303000004962087" lon="10.457436991855502">
        <ele>485.60000000000002</ele>
        <time>2018-09-16T12:06:26Z</time>
      </trkpt>
      <trkpt lat="48.302888022735715" lon="10.457490971311927">
        <ele>485.60000000000002</ele>
        <time>2018-09-16T12:06:27Z</time>
      </trkpt>
      <trkpt lat="48.301485981792212" lon="10.458002015948296">
        <ele>487.05000000000001</ele>
        <time>2018-09-16T12:06:39Z</time>
      </trkpt>
      <trkpt lat="48.300018981099129" lon="10.458552036434412">
        <ele>488.49000000000001</ele>
        <time>2018-09-16T12:06:51Z</time>
      </trkpt>
      <trkpt lat="48.298450978472829" lon="10.459412019699812">
        <ele>488.49000000000001</ele>
        <time>2018-09-16T12:07:00Z</time>
      </trkpt>
      <trkpt lat="48.296822961419821" lon="10.460114004090428">
        <ele>489.44999999999999</ele>
        <time>2018-09-16T12:07:09Z</time>
      </trkpt>
      <trkpt lat="48.295317990705371" lon="10.460818000137806">
        <ele>492.81</ele>
        <time>2018-09-16T12:07:18Z</time>
      </trkpt>
      <trkpt lat="48.294776016846299" lon="10.461246985942125">
        <ele>493.29000000000002</ele>
        <time>2018-09-16T12:07:24Z</time>
      </trkpt>
      <trkpt lat="48.294594967737794" lon="10.461455024778843">
        <ele>492.81</ele>
        <time>2018-09-16T12:07:32Z</time>
      </trkpt>
      <trkpt lat="48.294566972181201" lon="10.461486037820578">
        <ele>492.81</ele>
        <time>2018-09-16T12:07:33Z</time>
      </trkpt>
      <trkpt lat="48.294121976941824" lon="10.462007978931069">
        <ele>494.25999999999999</ele>
        <time>2018-09-16T12:07:43Z</time>
      </trkpt>
      <trkpt lat="48.294045031070709" lon="10.462098000571132">
        <ele>493.76999999999998</ele>
        <time>2018-09-16T12:07:45Z</time>
      </trkpt>
      <trkpt lat="48.2936189789325" lon="10.462563028559089">
        <ele>492.81</ele>
        <time>2018-09-16T12:07:52Z</time>
      </trkpt>
      <trkpt lat="48.293276997283101" lon="10.462878020480275">
        <ele>493.76999999999998</ele>
        <time>2018-09-16T12:07:59Z</time>
      </trkpt>
      <trkpt lat="48.293233998119831" lon="10.462907021865249">
        <ele>493.76999999999998</ele>
        <time>2018-09-16T12:08:00Z</time>
      </trkpt>
      <trkpt lat="48.292881958186626" lon="10.463139032945037">
        <ele>494.74000000000001</ele>
        <time>2018-09-16T12:08:09Z</time>
      </trkpt>
      <trkpt lat="48.292823033407331" lon="10.463175997138023">
        <ele>494.74000000000001</ele>
        <time>2018-09-16T12:08:10Z</time>
      </trkpt>
      <trkpt lat="48.292723037302494" lon="10.46310399658978">
        <ele>494.74000000000001</ele>
        <time>2018-09-16T12:08:11Z</time>
      </trkpt>
      <trkpt lat="48.29265296459198" lon="10.4630839638412">
        <ele>494.25999999999999</ele>
        <time>2018-09-16T12:08:12Z</time>
      </trkpt>
      <trkpt lat="48.292550034821033" lon="10.46308496966958">
        <ele>493.76999999999998</ele>
        <time>2018-09-16T12:08:13Z</time>
      </trkpt>
      <trkpt lat="48.292495971545577" lon="10.463186977431178">
        <ele>493.29000000000002</ele>
        <time>2018-09-16T12:08:14Z</time>
      </trkpt>
      <trkpt lat="48.29247803427279" lon="10.463278004899621">
        <ele>492.81</ele>
        <time>2018-09-16T12:08:15Z</time>
      </trkpt>
      <trkpt lat="48.292482979595661" lon="10.463384035974741">
        <ele>492.81</ele>
        <time>2018-09-16T12:08:16Z</time>
      </trkpt>
      <trkpt lat="48.292508963495493" lon="10.46344798989594">
        <ele>492.81</ele>
        <time>2018-09-16T12:08:17Z</time>
      </trkpt>
      <trkpt lat="48.292508963495493" lon="10.46344798989594">
        <ele>492.81</ele>
        <time>2018-09-16T12:08:18Z</time>
      </trkpt>
      <trkpt lat="48.292699987068772" lon="10.463610012084246">
        <ele>492.81</ele>
        <time>2018-09-16T12:08:19Z</time>
      </trkpt>
      <trkpt lat="48.292727982625365" lon="10.463750995695591">
        <ele>492.81</ele>
        <time>2018-09-16T12:08:20Z</time>
      </trkpt>
      <trkpt lat="48.292761007323861" lon="10.463917963206768">
        <ele>492.81</ele>
        <time>2018-09-16T12:08:21Z</time>
      </trkpt>
      <trkpt lat="48.292797971516848" lon="10.464103035628796">
        <ele>492.81</ele>
        <time>2018-09-16T12:08:22Z</time>
      </trkpt>
      <trkpt lat="48.293143976479769" lon="10.465850997716188">
        <ele>494.74000000000001</ele>
        <time>2018-09-16T12:08:29Z</time>
      </trkpt>
      <trkpt lat="48.293711012229323" lon="10.469238040968776">
        <ele>499.54000000000002</ele>
        <time>2018-09-16T12:08:40Z</time>
      </trkpt>
      <trkpt lat="48.293851995840669" lon="10.472477981820703">
        <ele>503.87</ele>
        <time>2018-09-16T12:08:49Z</time>
      </trkpt>
      <trkpt lat="48.293557958677411" lon="10.476393001154065">
        <ele>509.16000000000003</ele>
        <time>2018-09-16T12:08:59Z</time>
      </trkpt>
      <trkpt lat="48.292827978730202" lon="10.48108602873981">
        <ele>517.33000000000004</ele>
        <time>2018-09-16T12:09:11Z</time>
      </trkpt>
      <trkpt lat="48.291859030723572" lon="10.483516026288271">
        <ele>525.98000000000002</ele>
        <time>2018-09-16T12:09:18Z</time>
      </trkpt>
      <trkpt lat="48.289764979854226" lon="10.487489970400929">
        <ele>543.27999999999997</ele>
        <time>2018-09-16T12:09:30Z</time>
      </trkpt>
      <trkpt lat="48.288943972438574" lon="10.489346981048584">
        <ele>549.04999999999995</ele>
        <time>2018-09-16T12:09:36Z</time>
      </trkpt>
      <trkpt lat="48.288657981902361" lon="10.491460980847478">
        <ele>551.92999999999995</ele>
        <time>2018-09-16T12:09:42Z</time>
      </trkpt>
      <trkpt lat="48.28886803239584" lon="10.493323020637035">
        <ele>551.92999999999995</ele>
        <time>2018-09-16T12:09:48Z</time>
      </trkpt>
      <trkpt lat="48.289133990183473" lon="10.494175963103771">
        <ele>550.00999999999999</ele>
        <time>2018-09-16T12:09:53Z</time>
      </trkpt>
      <trkpt lat="48.289195010438561" lon="10.494427001103759">
        <ele>547.61000000000001</ele>
        <time>2018-09-16T12:09:59Z</time>
      </trkpt>
      <trkpt lat="48.289232980459929" lon="10.494549041613936">
        <ele>547.13</ele>
        <time>2018-09-16T12:10:03Z</time>
      </trkpt>
      <trkpt lat="48.289241027086973" lon="10.494571002200246">
        <ele>547.13</ele>
        <time>2018-09-16T12:10:04Z</time>
      </trkpt>
      <trkpt lat="48.289244966581464" lon="10.494584999978542">
        <ele>547.13</ele>
        <time>2018-09-16T12:10:05Z</time>
      </trkpt>
      <trkpt lat="48.289242032915354" lon="10.494603021070361">
        <ele>547.61000000000001</ele>
        <time>2018-09-16T12:10:17Z</time>
      </trkpt>
      <trkpt lat="48.289238009601831" lon="10.494597991928458">
        <ele>548.09000000000003</ele>
        <time>2018-09-16T12:11:00Z</time>
      </trkpt>
      <trkpt lat="48.28923499211669" lon="10.494602015241981">
        <ele>548.57000000000005</ele>
        <time>2018-09-16T12:11:58Z</time>
      </trkpt>
      <trkpt lat="48.289243038743734" lon="10.494597991928458">
        <ele>549.04999999999995</ele>
        <time>2018-09-16T12:12:52Z</time>
      </trkpt>
      <trkpt lat="48.289240021258593" lon="10.494593968614936">
        <ele>549.52999999999997</ele>
        <time>2018-09-16T12:13:52Z</time>
      </trkpt>
      <trkpt lat="48.289245972409844" lon="10.494593968614936">
        <ele>549.52999999999997</ele>
        <time>2018-09-16T12:14:41Z</time>
      </trkpt>
      <trkpt lat="48.289253013208508" lon="10.494608972221613">
        <ele>549.52999999999997</ele>
        <time>2018-09-16T12:14:42Z</time>
      </trkpt>
      <trkpt lat="48.289264999330044" lon="10.494648031890392">
        <ele>549.52999999999997</ele>
        <time>2018-09-16T12:14:43Z</time>
      </trkpt>
      <trkpt lat="48.289286959916353" lon="10.494716009125113">
        <ele>549.52999999999997</ele>
        <time>2018-09-16T12:14:44Z</time>
      </trkpt>
      <trkpt lat="48.289574962109327" lon="10.495617985725403">
        <ele>549.52999999999997</ele>
        <time>2018-09-16T12:14:50Z</time>
      </trkpt>
      <trkpt lat="48.290028003975749" lon="10.497540961951017">
        <ele>546.16999999999996</ele>
        <time>2018-09-16T12:14:57Z</time>
      </trkpt>
      <trkpt lat="48.290433017536998" lon="10.500436993315816">
        <ele>539.44000000000005</ele>
        <time>2018-09-16T12:15:05Z</time>
      </trkpt>
      <trkpt lat="48.290344001725316" lon="10.502834971994162">
        <ele>529.82000000000005</ele>
        <time>2018-09-16T12:15:11Z</time>
      </trkpt>
      <trkpt lat="48.290007971227169" lon="10.50630901940167">
        <ele>518.76999999999998</ele>
        <time>2018-09-16T12:15:20Z</time>
      </trkpt>
      <trkpt lat="48.289873022586107" lon="10.508984019979835">
        <ele>511.56</ele>
        <time>2018-09-16T12:15:27Z</time>
      </trkpt>
      <trkpt lat="48.289319984614849" lon="10.511489035561681">
        <ele>503.87</ele>
        <time>2018-09-16T12:15:34Z</time>
      </trkpt>
      <trkpt lat="48.28844198025763" lon="10.513391979038715">
        <ele>499.54000000000002</ele>
        <time>2018-09-16T12:15:40Z</time>
      </trkpt>
      <trkpt lat="48.287235992029309" lon="10.515386033803225">
        <ele>497.13999999999999</ele>
        <time>2018-09-16T12:15:48Z</time>
      </trkpt>
      <trkpt lat="48.285944005474448" lon="10.517930025234818">
        <ele>490.88999999999999</ele>
        <time>2018-09-16T12:15:57Z</time>
      </trkpt>
      <trkpt lat="48.285158034414053" lon="10.520732011646032">
        <ele>480.80000000000001</ele>
        <time>2018-09-16T12:16:05Z</time>
      </trkpt>
      <trkpt lat="48.284793002530932" lon="10.523311039432883">
        <ele>473.58999999999997</ele>
        <time>2018-09-16T12:16:12Z</time>
      </trkpt>
      <trkpt lat="48.284451020881534" lon="10.526058040559292">
        <ele>473.11000000000001</ele>
        <time>2018-09-16T12:16:21Z</time>
      </trkpt>
      <trkpt lat="48.284430988132954" lon="10.526235988363624">
        <ele>473.11000000000001</ele>
        <time>2018-09-16T12:16:22Z</time>
      </trkpt>
      <trkpt lat="48.284413972869515" lon="10.526376971974969">
        <ele>473.58999999999997</ele>
        <time>2018-09-16T12:16:23Z</time>
      </trkpt>
      <trkpt lat="48.284399975091219" lon="10.526476968079805">
        <ele>473.58999999999997</ele>
        <time>2018-09-16T12:16:24Z</time>
      </trkpt>
      <trkpt lat="48.284238036721945" lon="10.526585010811687">
        <ele>473.58999999999997</ele>
        <time>2018-09-16T12:16:25Z</time>
      </trkpt>
      <trkpt lat="48.28416402451694" lon="10.526556009426713">
        <ele>473.58999999999997</ele>
        <time>2018-09-16T12:16:26Z</time>
      </trkpt>
      <trkpt lat="48.284068973734975" lon="10.526513010263443">
        <ele>474.06999999999999</ele>
        <time>2018-09-16T12:16:27Z</time>
      </trkpt>
      <trkpt lat="48.283953974023461" lon="10.526462970301509">
        <ele>474.06999999999999</ele>
        <time>2018-09-16T12:16:28Z</time>
      </trkpt>
      <trkpt lat="48.283824976533651" lon="10.526407985016704">
        <ele>474.55000000000001</ele>
        <time>2018-09-16T12:16:29Z</time>
      </trkpt>
      <trkpt lat="48.283471008762717" lon="10.526258032768965">
        <ele>476.47000000000003</ele>
        <time>2018-09-16T12:16:32Z</time>
      </trkpt>
      <trkpt lat="48.283361038193107" lon="10.526250991970301">
        <ele>476.94999999999999</ele>
        <time>2018-09-16T12:16:33Z</time>
      </trkpt>
      <trkpt lat="48.283260958269238" lon="10.526287034153938">
        <ele>477.43000000000001</ele>
        <time>2018-09-16T12:16:34Z</time>
      </trkpt>
      <trkpt lat="48.283174959942698" lon="10.526318969205022">
        <ele>478.38999999999999</ele>
        <time>2018-09-16T12:16:35Z</time>
      </trkpt>
      <trkpt lat="48.283121986314654" lon="10.526401028037071">
        <ele>478.87</ele>
        <time>2018-09-16T12:16:36Z</time>
      </trkpt>
      <trkpt lat="48.283060966059566" lon="10.526497000828385">
        <ele>479.35000000000002</ele>
        <time>2018-09-16T12:16:38Z</time>
      </trkpt>
      <trkpt lat="48.282930962741375" lon="10.526472022756934">
        <ele>479.83999999999997</ele>
        <time>2018-09-16T12:16:39Z</time>
      </trkpt>
      <trkpt lat="48.282871032133698" lon="10.526418965309858">
        <ele>480.31999999999999</ele>
        <time>2018-09-16T12:16:40Z</time>
      </trkpt>
      <trkpt lat="48.282792996615171" lon="10.526350988075137">
        <ele>480.31999999999999</ele>
        <time>2018-09-16T12:16:41Z</time>
      </trkpt>
      <trkpt lat="48.282702974975109" lon="10.526271024718881">
        <ele>480.31999999999999</ele>
        <time>2018-09-16T12:16:42Z</time>
      </trkpt>
      <trkpt lat="48.281868975609541" lon="10.52568999119103">
        <ele>479.83999999999997</ele>
        <time>2018-09-16T12:16:49Z</time>
      </trkpt>
      <trkpt lat="48.281126003712416" lon="10.525152962654829">
        <ele>480.31999999999999</ele>
        <time>2018-09-16T12:16:57Z</time>
      </trkpt>
      <trkpt lat="48.280660975724459" lon="10.524792037904263">
        <ele>479.35000000000002</ele>
        <time>2018-09-16T12:17:02Z</time>
      </trkpt>
      <trkpt lat="48.280582018196583" lon="10.524694975465536">
        <ele>479.35000000000002</ele>
        <time>2018-09-16T12:17:03Z</time>
      </trkpt>
      <trkpt lat="48.280501971021295" lon="10.524591039866209">
        <ele>478.87</ele>
        <time>2018-09-16T12:17:04Z</time>
      </trkpt>
      <trkpt lat="48.280175998806953" lon="10.52418602630496">
        <ele>478.38999999999999</ele>
        <time>2018-09-16T12:17:08Z</time>
      </trkpt>
      <trkpt lat="48.280082959681749" lon="10.524115031585097">
        <ele>478.87</ele>
        <time>2018-09-16T12:17:09Z</time>
      </trkpt>
      <trkpt lat="48.279984975233674" lon="10.524053005501628">
        <ele>478.87</ele>
        <time>2018-09-16T12:17:10Z</time>
      </trkpt>
      <trkpt lat="48.279881039634347" lon="10.524015035480261">
        <ele>478.87</ele>
        <time>2018-09-16T12:17:11Z</time>
      </trkpt>
      <trkpt lat="48.279776014387608" lon="10.523976981639862">
        <ele>479.35000000000002</ele>
        <time>2018-09-16T12:17:12Z</time>
      </trkpt>
      <trkpt lat="48.279673000797629" lon="10.523940017446876">
        <ele>480.31999999999999</ele>
        <time>2018-09-16T12:17:13Z</time>
      </trkpt>
      <trkpt lat="48.279573004692793" lon="10.523902969434857">
        <ele>480.80000000000001</ele>
        <time>2018-09-16T12:17:14Z</time>
      </trkpt>
      <trkpt lat="48.279479965567589" lon="10.523835998028517">
        <ele>481.27999999999997</ele>
        <time>2018-09-16T12:17:15Z</time>
      </trkpt>
      <trkpt lat="48.279389021918178" lon="10.52375796250999">
        <ele>481.27999999999997</ele>
        <time>2018-09-16T12:17:16Z</time>
      </trkpt>
      <trkpt lat="48.279294976964593" lon="10.523679004982114">
        <ele>481.75999999999999</ele>
        <time>2018-09-16T12:17:17Z</time>
      </trkpt>
      <trkpt lat="48.279197998344898" lon="10.523595018312335">
        <ele>482.24000000000001</ele>
        <time>2018-09-16T12:17:18Z</time>
      </trkpt>
      <trkpt lat="48.278636997565627" lon="10.523033011704683">
        <ele>482.72000000000003</ele>
        <time>2018-09-16T12:17:24Z</time>
      </trkpt>
      <trkpt lat="48.278567008674145" lon="10.522920023649931">
        <ele>482.72000000000003</ele>
        <time>2018-09-16T12:17:25Z</time>
      </trkpt>
      <trkpt lat="48.278500037267804" lon="10.522795971482992">
        <ele>483.19999999999999</ele>
        <time>2018-09-16T12:17:26Z</time>
      </trkpt>
      <trkpt lat="48.278442034497857" lon="10.522650964558125">
        <ele>483.68000000000001</ele>
        <time>2018-09-16T12:17:27Z</time>
      </trkpt>
      <trkpt lat="48.278380008414388" lon="10.522497994825244">
        <ele>484.16000000000003</ele>
        <time>2018-09-16T12:17:28Z</time>
      </trkpt>
      <trkpt lat="48.278161995112896" lon="10.522021986544132">
        <ele>484.63999999999999</ele>
        <time>2018-09-16T12:17:31Z</time>
      </trkpt>
      <trkpt lat="48.278056969866157" lon="10.521877985447645">
        <ele>484.63999999999999</ele>
        <time>2018-09-16T12:17:32Z</time>
      </trkpt>
      <trkpt lat="48.27675299718976" lon="10.520282993093133">
        <ele>485.60000000000002</ele>
        <time>2018-09-16T12:17:43Z</time>
      </trkpt>
      <trkpt lat="48.275440977886319" lon="10.518555985763669">
        <ele>487.05000000000001</ele>
        <time>2018-09-16T12:17:53Z</time>
      </trkpt>
      <trkpt lat="48.274231972172856" lon="10.517470026388764">
        <ele>487.52999999999997</ele>
        <time>2018-09-16T12:18:00Z</time>
      </trkpt>
      <trkpt lat="48.271837010979652" lon="10.516167981550097">
        <ele>487.52999999999997</ele>
        <time>2018-09-16T12:18:12Z</time>
      </trkpt>
      <trkpt lat="48.270222991704941" lon="10.515966983512044">
        <ele>485.12</ele>
        <time>2018-09-16T12:18:20Z</time>
      </trkpt>
      <trkpt lat="48.26869597658515" lon="10.515673030167818">
        <ele>485.12</ele>
        <time>2018-09-16T12:18:28Z</time>
      </trkpt>
      <trkpt lat="48.266950026154518" lon="10.514960987493396">
        <ele>488.00999999999999</ele>
        <time>2018-09-16T12:18:38Z</time>
      </trkpt>
      <trkpt lat="48.266133964061737" lon="10.514967022463679">
        <ele>488.97000000000003</ele>
        <time>2018-09-16T12:18:42Z</time>
      </trkpt>
      <trkpt lat="48.264453979209065" lon="10.51481899805367">
        <ele>491.37</ele>
        <time>2018-09-16T12:18:48Z</time>
      </trkpt>
      <trkpt lat="48.262942973524332" lon="10.514668039977551">
        <ele>490.88999999999999</ele>
        <time>2018-09-16T12:18:54Z</time>
      </trkpt>
      <trkpt lat="48.259799005463719" lon="10.514498976990581">
        <ele>488.97000000000003</ele>
        <time>2018-09-16T12:19:06Z</time>
      </trkpt>
      <trkpt lat="48.257420975714922" lon="10.514513980597258">
        <ele>491.85000000000002</ele>
        <time>2018-09-16T12:19:16Z</time>
      </trkpt>
      <trkpt lat="48.256157990545034" lon="10.514567960053682">
        <ele>493.29000000000002</ele>
        <time>2018-09-16T12:19:23Z</time>
      </trkpt>
      <trkpt lat="48.255957998335361" lon="10.514576006680727">
        <ele>493.76999999999998</ele>
        <time>2018-09-16T12:19:25Z</time>
      </trkpt>
      <trkpt lat="48.25589002110064" lon="10.514579024165869">
        <ele>493.76999999999998</ele>
        <time>2018-09-16T12:19:26Z</time>
      </trkpt>
      <trkpt lat="48.255807040259242" lon="10.514430999755859">
        <ele>493.76999999999998</ele>
        <time>2018-09-16T12:19:27Z</time>
      </trkpt>
      <trkpt lat="48.255784995853901" lon="10.514318011701107">
        <ele>493.76999999999998</ele>
        <time>2018-09-16T12:19:28Z</time>
      </trkpt>
      <trkpt lat="48.255755994468927" lon="10.51417401060462">
        <ele>493.76999999999998</ele>
        <time>2018-09-16T12:19:29Z</time>
      </trkpt>
      <trkpt lat="48.25572095811367" lon="10.514003019779921">
        <ele>493.76999999999998</ele>
        <time>2018-09-16T12:19:30Z</time>
      </trkpt>
      <trkpt lat="48.25541996397078" lon="10.512502994388342">
        <ele>495.69999999999999</ele>
        <time>2018-09-16T12:19:36Z</time>
      </trkpt>
      <trkpt lat="48.254810012876987" lon="10.509753981605172">
        <ele>500.5</ele>
        <time>2018-09-16T12:19:44Z</time>
      </trkpt>
      <trkpt lat="48.253674013540149" lon="10.506459977477789">
        <ele>506.26999999999998</ele>
        <time>2018-09-16T12:19:53Z</time>
      </trkpt>
      <trkpt lat="48.252078015357256" lon="10.50341198220849">
        <ele>516.37</ele>
        <time>2018-09-16T12:20:02Z</time>
      </trkpt>
      <trkpt lat="48.249560007825494" lon="10.499346004799008">
        <ele>525.5</ele>
        <time>2018-09-16T12:20:15Z</time>
      </trkpt>
      <trkpt lat="48.248458039015532" lon="10.497065959498286">
        <ele>517.33000000000004</ele>
        <time>2018-09-16T12:20:23Z</time>
      </trkpt>
      <trkpt lat="48.248046990483999" lon="10.495285978540778">
        <ele>509.63999999999999</ele>
        <time>2018-09-16T12:20:30Z</time>
      </trkpt>
      <trkpt lat="48.247950011864305" lon="10.494490033015609">
        <ele>506.26999999999998</ele>
        <time>2018-09-16T12:20:36Z</time>
      </trkpt>
      <trkpt lat="48.247932996600866" lon="10.494345026090741">
        <ele>505.79000000000002</ele>
        <time>2018-09-16T12:20:43Z</time>
      </trkpt>
      <trkpt lat="48.247930984944105" lon="10.494334967806935">
        <ele>505.79000000000002</ele>
        <time>2018-09-16T12:20:47Z</time>
      </trkpt>
      <trkpt lat="48.247906006872654" lon="10.494241006672382">
        <ele>505.79000000000002</ele>
        <time>2018-09-16T12:20:48Z</time>
      </trkpt>
      <trkpt lat="48.247885974124074" lon="10.494243018329144">
        <ele>505.79000000000002</ele>
        <time>2018-09-16T12:20:49Z</time>
      </trkpt>
      <trkpt lat="48.247931990772486" lon="10.494338991120458">
        <ele>505.31</ele>
        <time>2018-09-16T12:20:50Z</time>
      </trkpt>
      <trkpt lat="48.247938025742769" lon="10.494391964748502">
        <ele>505.31</ele>
        <time>2018-09-16T12:20:51Z</time>
      </trkpt>
      <trkpt lat="48.247949006035924" lon="10.494478968903422">
        <ele>505.31</ele>
        <time>2018-09-16T12:20:52Z</time>
      </trkpt>
      <trkpt lat="48.24796300381422" lon="10.494594974443316">
        <ele>505.31</ele>
        <time>2018-09-16T12:20:53Z</time>
      </trkpt>
      <trkpt lat="48.248118991032243" lon="10.495777996256948">
        <ele>508.19</ele>
        <time>2018-09-16T12:20:59Z</time>
      </trkpt>
      <trkpt lat="48.24875702150166" lon="10.497833993285894">
        <ele>514.44000000000005</ele>
        <time>2018-09-16T12:21:07Z</time>
      </trkpt>
      <trkpt lat="48.249783972278237" lon="10.499708019196987">
        <ele>522.13</ele>
        <time>2018-09-16T12:21:14Z</time>
      </trkpt>
      <trkpt lat="48.251926973462105" lon="10.503167985007167">
        <ele>518.76999999999998</ele>
        <time>2018-09-16T12:21:27Z</time>
      </trkpt>
      <trkpt lat="48.253727992996573" lon="10.506576988846064">
        <ele>506.75</ele>
        <time>2018-09-16T12:21:38Z</time>
      </trkpt>
      <trkpt lat="48.254833985120058" lon="10.509846014901996">
        <ele>499.54000000000002</ele>
        <time>2018-09-16T12:21:47Z</time>
      </trkpt>
      <trkpt lat="48.255537981167436" lon="10.513092996552587">
        <ele>495.22000000000003</ele>
        <time>2018-09-16T12:21:56Z</time>
      </trkpt>
      <trkpt lat="48.255752976983786" lon="10.514162024483085">
        <ele>493.76999999999998</ele>
        <time>2018-09-16T12:22:01Z</time>
      </trkpt>
      <trkpt lat="48.255776027217507" lon="10.514276018366218">
        <ele>493.76999999999998</ele>
        <time>2018-09-16T12:22:02Z</time>
      </trkpt>
      <trkpt lat="48.255793964490294" lon="10.514364028349519">
        <ele>493.29000000000002</ele>
        <time>2018-09-16T12:22:03Z</time>
      </trkpt>
      <trkpt lat="48.255807962268591" lon="10.514436028897762">
        <ele>492.81</ele>
        <time>2018-09-16T12:22:04Z</time>
      </trkpt>
      <trkpt lat="48.255737973377109" lon="10.514610959216952">
        <ele>492.81</ele>
        <time>2018-09-16T12:22:05Z</time>
      </trkpt>
      <trkpt lat="48.2556779589504" lon="10.514627974480391">
        <ele>492.32999999999998</ele>
        <time>2018-09-16T12:22:06Z</time>
      </trkpt>
      <trkpt lat="48.25559196062386" lon="10.514653036370873">
        <ele>492.32999999999998</ele>
        <time>2018-09-16T12:22:07Z</time>
      </trkpt>
      <trkpt lat="48.255479978397489" lon="10.514685977250338">
        <ele>492.32999999999998</ele>
        <time>2018-09-16T12:22:08Z</time>
      </trkpt>
      <trkpt lat="48.255351986736059" lon="10.51475403830409">
        <ele>492.32999999999998</ele>
        <time>2018-09-16T12:22:09Z</time>
      </trkpt>
      <trkpt lat="48.254308020696044" lon="10.515366001054645">
        <ele>493.29000000000002</ele>
        <time>2018-09-16T12:22:15Z</time>
      </trkpt>
      <trkpt lat="48.253515008836985" lon="10.516068991273642">
        <ele>494.25999999999999</ele>
        <time>2018-09-16T12:22:19Z</time>
      </trkpt>
      <trkpt lat="48.253342006355524" lon="10.516311982646585">
        <ele>494.25999999999999</ele>
        <time>2018-09-16T12:22:20Z</time>
      </trkpt>
      <trkpt lat="48.253171015530825" lon="10.516569977626204">
        <ele>494.74000000000001</ele>
        <time>2018-09-16T12:22:21Z</time>
      </trkpt>
      <trkpt lat="48.253030031919479" lon="10.516868038102984">
        <ele>495.22000000000003</ele>
        <time>2018-09-16T12:22:22Z</time>
      </trkpt>
      <trkpt lat="48.252887958660722" lon="10.517170038074255">
        <ele>495.22000000000003</ele>
        <time>2018-09-16T12:22:23Z</time>
      </trkpt>
      <trkpt lat="48.251391034573317" lon="10.520849023014307">
        <ele>495.22000000000003</ele>
        <time>2018-09-16T12:22:35Z</time>
      </trkpt>
      <trkpt lat="48.250642027705908" lon="10.521990973502398">
        <ele>494.25999999999999</ele>
        <time>2018-09-16T12:22:41Z</time>
      </trkpt>
      <trkpt lat="48.249657992273569" lon="10.522865960374475">
        <ele>495.22000000000003</ele>
        <time>2018-09-16T12:22:49Z</time>
      </trkpt>
      <trkpt lat="48.249197993427515" lon="10.523344986140728">
        <ele>495.69999999999999</ele>
        <time>2018-09-16T12:22:54Z</time>
      </trkpt>
      <trkpt lat="48.249128004536033" lon="10.523470966145396">
        <ele>495.69999999999999</ele>
        <time>2018-09-16T12:22:55Z</time>
      </trkpt>
      <trkpt lat="48.249061033129692" lon="10.523595018312335">
        <ele>495.69999999999999</ele>
        <time>2018-09-16T12:22:56Z</time>
      </trkpt>
      <trkpt lat="48.249005964025855" lon="10.523722004145384">
        <ele>495.69999999999999</ele>
        <time>2018-09-16T12:22:57Z</time>
      </trkpt>
      <trkpt lat="48.248974028974771" lon="10.523876985535026">
        <ele>495.22000000000003</ele>
        <time>2018-09-16T12:22:58Z</time>
      </trkpt>
      <trkpt lat="48.248944021761417" lon="10.524030961096287">
        <ele>495.22000000000003</ele>
        <time>2018-09-16T12:22:59Z</time>
      </trkpt>
      <trkpt lat="48.248785017058253" lon="10.524451984092593">
        <ele>494.25999999999999</ele>
        <time>2018-09-16T12:23:02Z</time>
      </trkpt>
      <trkpt lat="48.248730031773448" lon="10.524583999067545">
        <ele>494.25999999999999</ele>
        <time>2018-09-16T12:23:03Z</time>
      </trkpt>
      <trkpt lat="48.248653002083302" lon="10.524683995172381">
        <ele>494.25999999999999</ele>
        <time>2018-09-16T12:23:04Z</time>
      </trkpt>
      <trkpt lat="48.248569015413523" lon="10.52476798184216">
        <ele>494.25999999999999</ele>
        <time>2018-09-16T12:23:05Z</time>
      </trkpt>
      <trkpt lat="48.248485028743744" lon="10.524851968511939">
        <ele>493.76999999999998</ele>
        <time>2018-09-16T12:23:06Z</time>
      </trkpt>
      <trkpt lat="48.248404981568456" lon="10.524930004030466">
        <ele>493.76999999999998</ele>
        <time>2018-09-16T12:23:07Z</time>
      </trkpt>
      <trkpt lat="48.248317977413535" lon="10.525009967386723">
        <ele>494.25999999999999</ele>
        <time>2018-09-16T12:23:08Z</time>
      </trkpt>
      <trkpt lat="48.248230973258615" lon="10.525090014562011">
        <ele>494.25999999999999</ele>
        <time>2018-09-16T12:23:09Z</time>
      </trkpt>
      <trkpt lat="48.248144974932075" lon="10.525169977918267">
        <ele>494.74000000000001</ele>
        <time>2018-09-16T12:23:10Z</time>
      </trkpt>
      <trkpt lat="48.247729986906052" lon="10.525553030893207">
        <ele>495.69999999999999</ele>
        <time>2018-09-16T12:23:15Z</time>
      </trkpt>
      <trkpt lat="48.247649017721415" lon="10.52562796510756">
        <ele>495.69999999999999</ele>
        <time>2018-09-16T12:23:16Z</time>
      </trkpt>
      <trkpt lat="48.247566036880016" lon="10.525708012282848">
        <ele>495.69999999999999</ele>
        <time>2018-09-16T12:23:17Z</time>
      </trkpt>
      <trkpt lat="48.247484983876348" lon="10.525791998952627">
        <ele>495.69999999999999</ele>
        <time>2018-09-16T12:23:18Z</time>
      </trkpt>
      <trkpt lat="48.24740300886333" lon="10.525876991450787">
        <ele>496.18000000000001</ele>
        <time>2018-09-16T12:23:19Z</time>
      </trkpt>
      <trkpt lat="48.247077958658338" lon="10.526215033605695">
        <ele>498.57999999999998</ele>
        <time>2018-09-16T12:23:23Z</time>
      </trkpt>
      <trkpt lat="48.2470160163939" lon="10.526312012225389">
        <ele>499.06</ele>
        <time>2018-09-16T12:23:24Z</time>
      </trkpt>
      <trkpt lat="48.246961031109095" lon="10.526444027200341">
        <ele>499.54000000000002</ele>
        <time>2018-09-16T12:23:25Z</time>
      </trkpt>
      <trkpt lat="48.246905962005258" lon="10.526575036346912">
        <ele>500.01999999999998</ele>
        <time>2018-09-16T12:23:26Z</time>
      </trkpt>
      <trkpt lat="48.246851982548833" lon="10.526705039665103">
        <ele>500.01999999999998</ele>
        <time>2018-09-16T12:23:27Z</time>
      </trkpt>
      <trkpt lat="48.246817030012608" lon="10.52682900801301">
        <ele>500.01999999999998</ele>
        <time>2018-09-16T12:23:28Z</time>
      </trkpt>
      <trkpt lat="48.246795991435647" lon="10.526982983574271">
        <ele>500.5</ele>
        <time>2018-09-16T12:23:29Z</time>
      </trkpt>
      <trkpt lat="48.246775958687067" lon="10.527135031297803">
        <ele>500.01999999999998</ele>
        <time>2018-09-16T12:23:30Z</time>
      </trkpt>
      <trkpt lat="48.246760033071041" lon="10.527284983545542">
        <ele>500.01999999999998</ele>
        <time>2018-09-16T12:23:31Z</time>
      </trkpt>
      <trkpt lat="48.246707981452346" lon="10.529009979218245">
        <ele>495.69999999999999</ele>
        <time>2018-09-16T12:23:42Z</time>
      </trkpt>
      <trkpt lat="48.246701024472713" lon="10.529155991971493">
        <ele>495.69999999999999</ele>
        <time>2018-09-16T12:23:43Z</time>
      </trkpt>
      <trkpt lat="48.246673028916121" lon="10.529308039695024">
        <ele>495.22000000000003</ele>
        <time>2018-09-16T12:23:44Z</time>
      </trkpt>
      <trkpt lat="48.246615026146173" lon="10.529434019699693">
        <ele>494.74000000000001</ele>
        <time>2018-09-16T12:23:45Z</time>
      </trkpt>
      <trkpt lat="48.246555011719465" lon="10.529564023017883">
        <ele>494.74000000000001</ele>
        <time>2018-09-16T12:23:46Z</time>
      </trkpt>
      <trkpt lat="48.246491979807615" lon="10.529697965830564">
        <ele>494.74000000000001</ele>
        <time>2018-09-16T12:23:47Z</time>
      </trkpt>
      <trkpt lat="48.246356025338173" lon="10.529973981902003">
        <ele>495.22000000000003</ele>
        <time>2018-09-16T12:23:49Z</time>
      </trkpt>
      <trkpt lat="48.246208000928164" lon="10.530231976881623">
        <ele>494.74000000000001</ele>
        <time>2018-09-16T12:23:51Z</time>
      </trkpt>
      <trkpt lat="48.246118985116482" lon="10.53037203848362">
        <ele>494.74000000000001</ele>
        <time>2018-09-16T12:23:52Z</time>
      </trkpt>
      <trkpt lat="48.245408032089472" lon="10.53147098980844">
        <ele>497.62</ele>
        <time>2018-09-16T12:23:58Z</time>
      </trkpt>
      <trkpt lat="48.244449980556965" lon="10.532761970534921">
        <ele>499.54000000000002</ele>
        <time>2018-09-16T12:24:04Z</time>
      </trkpt>
      <trkpt lat="48.244302961975336" lon="10.53301895968616">
        <ele>499.06</ele>
        <time>2018-09-16T12:24:05Z</time>
      </trkpt>
      <trkpt lat="48.244014037773013" lon="10.533527992665768">
        <ele>498.10000000000002</ele>
        <time>2018-09-16T12:24:07Z</time>
      </trkpt>
      <trkpt lat="48.243818990886211" lon="10.533753968775272">
        <ele>497.62</ele>
        <time>2018-09-16T12:24:08Z</time>
      </trkpt>
      <trkpt lat="48.243629978969693" lon="10.533959995955229">
        <ele>497.62</ele>
        <time>2018-09-16T12:24:09Z</time>
      </trkpt>
      <trkpt lat="48.241691999137402" lon="10.536079024896026">
        <ele>499.06</ele>
        <time>2018-09-16T12:24:19Z</time>
      </trkpt>
      <trkpt lat="48.241488989442587" lon="10.536270970478654">
        <ele>499.54000000000002</ele>
        <time>2018-09-16T12:24:20Z</time>
      </trkpt>
      <trkpt lat="48.241265024989843" lon="10.536408014595509">
        <ele>499.54000000000002</ele>
        <time>2018-09-16T12:24:21Z</time>
      </trkpt>
      <trkpt lat="48.241037037223577" lon="10.536525025963783">
        <ele>499.54000000000002</ele>
        <time>2018-09-16T12:24:22Z</time>
      </trkpt>
      <trkpt lat="48.240807959809899" lon="10.536642959341407">
        <ele>500.01999999999998</ele>
        <time>2018-09-16T12:24:23Z</time>
      </trkpt>
      <trkpt lat="48.239973038434982" lon="10.537072028964758">
        <ele>501.45999999999998</ele>
        <time>2018-09-16T12:24:27Z</time>
      </trkpt>
      <trkpt lat="48.239772962406278" lon="10.537082003429532">
        <ele>501.45999999999998</ele>
        <time>2018-09-16T12:24:28Z</time>
      </trkpt>
      <trkpt lat="48.239579005166888" lon="10.537072028964758">
        <ele>501.45999999999998</ele>
        <time>2018-09-16T12:24:29Z</time>
      </trkpt>
      <trkpt lat="48.239383036270738" lon="10.536987958475947">
        <ele>501.45999999999998</ele>
        <time>2018-09-16T12:24:30Z</time>
      </trkpt>
      <trkpt lat="48.239190001040697" lon="10.536881005391479">
        <ele>501.45999999999998</ele>
        <time>2018-09-16T12:24:31Z</time>
      </trkpt>
      <trkpt lat="48.23900300078094" lon="10.5367779918015">
        <ele>501.45999999999998</ele>
        <time>2018-09-16T12:24:32Z</time>
      </trkpt>
      <trkpt lat="48.238821029663086" lon="10.536676989868283">
        <ele>501.45999999999998</ele>
        <time>2018-09-16T12:24:33Z</time>
      </trkpt>
      <trkpt lat="48.238636963069439" lon="10.536622004583478">
        <ele>501.94999999999999</ele>
        <time>2018-09-16T12:24:34Z</time>
      </trkpt>
      <trkpt lat="48.238439988344908" lon="10.536630973219872">
        <ele>501.94999999999999</ele>
        <time>2018-09-16T12:24:35Z</time>
      </trkpt>
      <trkpt lat="48.238237984478474" lon="10.53664899431169">
        <ele>502.43000000000001</ele>
        <time>2018-09-16T12:24:36Z</time>
      </trkpt>
      <trkpt lat="48.238030029460788" lon="10.536723006516695">
        <ele>501.94999999999999</ele>
        <time>2018-09-16T12:24:37Z</time>
      </trkpt>
      <trkpt lat="48.237815033644438" lon="10.536800036206841">
        <ele>501.94999999999999</ele>
        <time>2018-09-16T12:24:38Z</time>
      </trkpt>
      <trkpt lat="48.237596014514565" lon="10.536887040361762">
        <ele>501.45999999999998</ele>
        <time>2018-09-16T12:24:39Z</time>
      </trkpt>
      <trkpt lat="48.235734980553389" lon="10.5376570019871">
        <ele>505.79000000000002</ele>
        <time>2018-09-16T12:24:48Z</time>
      </trkpt>
      <trkpt lat="48.234840966761112" lon="10.538109038025141">
        <ele>507.23000000000002</ele>
        <time>2018-09-16T12:24:55Z</time>
      </trkpt>
      <trkpt lat="48.234205031767488" lon="10.538444984704256">
        <ele>508.67000000000002</ele>
        <time>2018-09-16T12:25:01Z</time>
      </trkpt>
      <trkpt lat="48.234087014570832" lon="10.538481026887894">
        <ele>509.16000000000003</ele>
        <time>2018-09-16T12:25:02Z</time>
      </trkpt>
      <trkpt lat="48.233967991545796" lon="10.538468034937978">
        <ele>509.16000000000003</ele>
        <time>2018-09-16T12:25:03Z</time>
      </trkpt>
      <trkpt lat="48.233848968520761" lon="10.538445990532637">
        <ele>509.63999999999999</ele>
        <time>2018-09-16T12:25:04Z</time>
      </trkpt>
      <trkpt lat="48.233729023486376" lon="10.538419000804424">
        <ele>510.12</ele>
        <time>2018-09-16T12:25:05Z</time>
      </trkpt>
      <trkpt lat="48.233254021033645" lon="10.538314981386065">
        <ele>511.07999999999998</ele>
        <time>2018-09-16T12:25:09Z</time>
      </trkpt>
      <trkpt lat="48.233133992180228" lon="10.538328979164362">
        <ele>511.07999999999998</ele>
        <time>2018-09-16T12:25:10Z</time>
      </trkpt>
      <trkpt lat="48.23193596675992" lon="10.538613041862845">
        <ele>509.63999999999999</ele>
        <time>2018-09-16T12:25:20Z</time>
      </trkpt>
      <trkpt lat="48.230753028765321" lon="10.538970027118921">
        <ele>505.31</ele>
        <time>2018-09-16T12:25:30Z</time>
      </trkpt>
      <trkpt lat="48.23064599186182" lon="10.539000034332275">
        <ele>504.82999999999998</ele>
        <time>2018-09-16T12:25:31Z</time>
      </trkpt>
      <trkpt lat="48.230519006028771" lon="10.538945971056819">
        <ele>504.35000000000002</ele>
        <time>2018-09-16T12:25:32Z</time>
      </trkpt>
      <trkpt lat="48.230403000488877" lon="10.538896014913917">
        <ele>504.35000000000002</ele>
        <time>2018-09-16T12:25:33Z</time>
      </trkpt>
      <trkpt lat="48.230297975242138" lon="10.538823008537292">
        <ele>504.35000000000002</ele>
        <time>2018-09-16T12:25:34Z</time>
      </trkpt>
      <trkpt lat="48.230207031592727" lon="10.538725024089217">
        <ele>503.87</ele>
        <time>2018-09-16T12:25:35Z</time>
      </trkpt>
      <trkpt lat="48.23013000190258" lon="10.538594014942646">
        <ele>503.87</ele>
        <time>2018-09-16T12:25:36Z</time>
      </trkpt>
      <trkpt lat="48.230051966384053" lon="10.538461999967694">
        <ele>503.87</ele>
        <time>2018-09-16T12:25:37Z</time>
      </trkpt>
      <trkpt lat="48.229973008856177" lon="10.538326967507601">
        <ele>503.87</ele>
        <time>2018-09-16T12:25:38Z</time>
      </trkpt>
      <trkpt lat="48.22980796918273" lon="10.538068972527981">
        <ele>503.87</ele>
        <time>2018-09-16T12:25:40Z</time>
      </trkpt>
      <trkpt lat="48.229713002219796" lon="10.537960007786751">
        <ele>503.87</ele>
        <time>2018-09-16T12:25:41Z</time>
      </trkpt>
      <trkpt lat="48.229619041085243" lon="10.537850959226489">
        <ele>503.87</ele>
        <time>2018-09-16T12:25:42Z</time>
      </trkpt>
      <trkpt lat="48.229517033323646" lon="10.53776697255671">
        <ele>504.35000000000002</ele>
        <time>2018-09-16T12:25:43Z</time>
      </trkpt>
      <trkpt lat="48.229406978935003" lon="10.537706036120653">
        <ele>504.82999999999998</ele>
        <time>2018-09-16T12:25:44Z</time>
      </trkpt>
      <trkpt lat="48.22929298505187" lon="10.537711987271905">
        <ele>505.31</ele>
        <time>2018-09-16T12:25:45Z</time>
      </trkpt>
      <trkpt lat="48.229177985340357" lon="10.537738977000117">
        <ele>505.31</ele>
        <time>2018-09-16T12:25:46Z</time>
      </trkpt>
      <trkpt lat="48.229061979800463" lon="10.53776596672833">
        <ele>505.79000000000002</ele>
        <time>2018-09-16T12:25:47Z</time>
      </trkpt>
      <trkpt lat="48.228954020887613" lon="10.537817012518644">
        <ele>505.79000000000002</ele>
        <time>2018-09-16T12:25:48Z</time>
      </trkpt>
      <trkpt lat="48.228843966498971" lon="10.537887001410127">
        <ele>505.79000000000002</ele>
        <time>2018-09-16T12:25:49Z</time>
      </trkpt>
      <trkpt lat="48.22873299010098" lon="10.53795799612999">
        <ele>505.79000000000002</ele>
        <time>2018-09-16T12:25:50Z</time>
      </trkpt>
      <trkpt lat="48.228520005941391" lon="10.538133010268211">
        <ele>506.26999999999998</ele>
        <time>2018-09-16T12:25:52Z</time>
      </trkpt>
      <trkpt lat="48.228424033150077" lon="10.538232000544667">
        <ele>506.26999999999998</ele>
        <time>2018-09-16T12:25:53Z</time>
      </trkpt>
      <trkpt lat="48.228338034823537" lon="10.538353035226464">
        <ele>506.26999999999998</ele>
        <time>2018-09-16T12:25:54Z</time>
      </trkpt>
      <trkpt lat="48.227966967970133" lon="10.538809010758996">
        <ele>505.79000000000002</ele>
        <time>2018-09-16T12:25:58Z</time>
      </trkpt>
      <trkpt lat="48.227864960208535" lon="10.538897020742297">
        <ele>505.79000000000002</ele>
        <time>2018-09-16T12:25:59Z</time>
      </trkpt>
      <trkpt lat="48.227759012952447" lon="10.538983019068837">
        <ele>505.79000000000002</ele>
        <time>2018-09-16T12:26:00Z</time>
      </trkpt>
      <trkpt lat="48.226616978645325" lon="10.539489034563303">
        <ele>506.75</ele>
        <time>2018-09-16T12:26:10Z</time>
      </trkpt>
      <trkpt lat="48.22520898655057" lon="10.539959007874131">
        <ele>507.23000000000002</ele>
        <time>2018-09-16T12:26:22Z</time>
      </trkpt>
      <trkpt lat="48.223615000024438" lon="10.540702985599637">
        <ele>507.23000000000002</ele>
        <time>2018-09-16T12:26:36Z</time>
      </trkpt>
      <trkpt lat="48.222625013440847" lon="10.541426008567214">
        <ele>507.70999999999998</ele>
        <time>2018-09-16T12:26:45Z</time>
      </trkpt>
      <trkpt lat="48.221466969698668" lon="10.542440973222256">
        <ele>510.60000000000002</ele>
        <time>2018-09-16T12:26:53Z</time>
      </trkpt>
      <trkpt lat="48.221292039379478" lon="10.542576005682349">
        <ele>511.07999999999998</ele>
        <time>2018-09-16T12:26:54Z</time>
      </trkpt>
      <trkpt lat="48.220304986461997" lon="10.543785011395812">
        <ele>514.44000000000005</ele>
        <time>2018-09-16T12:27:00Z</time>
      </trkpt>
      <trkpt lat="48.218908980488777" lon="10.545980986207724">
        <ele>514.44000000000005</ele>
        <time>2018-09-16T12:27:09Z</time>
      </trkpt>
      <trkpt lat="48.217944977805018" lon="10.547215975821018">
        <ele>513</ele>
        <time>2018-09-16T12:27:16Z</time>
      </trkpt>
      <trkpt lat="48.21719597093761" lon="10.548048969358206">
        <ele>513</ele>
        <time>2018-09-16T12:27:24Z</time>
      </trkpt>
      <trkpt lat="48.216242026537657" lon="10.548785990104079">
        <ele>512.51999999999998</ele>
        <time>2018-09-16T12:27:33Z</time>
      </trkpt>
      <trkpt lat="48.215932985767722" lon="10.549041973426938">
        <ele>513</ele>
        <time>2018-09-16T12:27:36Z</time>
      </trkpt>
      <trkpt lat="48.214736972004175" lon="10.550222983583808">
        <ele>511.56</ele>
        <time>2018-09-16T12:27:48Z</time>
      </trkpt>
      <trkpt lat="48.213830972090364" lon="10.551124038174748">
        <ele>512.03999999999996</ele>
        <time>2018-09-16T12:27:57Z</time>
      </trkpt>
      <trkpt lat="48.212739983573556" lon="10.552219972014427">
        <ele>513.96000000000004</ele>
        <time>2018-09-16T12:28:08Z</time>
      </trkpt>
      <trkpt lat="48.21216699667275" lon="10.552865965291858">
        <ele>515.88</ele>
        <time>2018-09-16T12:28:14Z</time>
      </trkpt>
      <trkpt lat="48.21206197142601" lon="10.55293302051723">
        <ele>516.85000000000002</ele>
        <time>2018-09-16T12:28:15Z</time>
      </trkpt>
      <trkpt lat="48.211945965886116" lon="10.552982976660132">
        <ele>517.33000000000004</ele>
        <time>2018-09-16T12:28:16Z</time>
      </trkpt>
      <trkpt lat="48.211827026680112" lon="10.553034022450447">
        <ele>518.28999999999996</ele>
        <time>2018-09-16T12:28:17Z</time>
      </trkpt>
      <trkpt lat="48.211677996441722" lon="10.553097976371646">
        <ele>518.76999999999998</ele>
        <time>2018-09-16T12:28:18Z</time>
      </trkpt>
      <trkpt lat="48.211541036143899" lon="10.553114991635084">
        <ele>519.73000000000002</ele>
        <time>2018-09-16T12:28:19Z</time>
      </trkpt>
      <trkpt lat="48.21083796210587" lon="10.553255975246429">
        <ele>523.09000000000003</ele>
        <time>2018-09-16T12:28:23Z</time>
      </trkpt>
      <trkpt lat="48.210656996816397" lon="10.553319007158279">
        <ele>524.05999999999995</ele>
        <time>2018-09-16T12:28:24Z</time>
      </trkpt>
      <trkpt lat="48.21049296297133" lon="10.553454039618373">
        <ele>524.53999999999996</ele>
        <time>2018-09-16T12:28:25Z</time>
      </trkpt>
      <trkpt lat="48.210328007116914" lon="10.553589994087815">
        <ele>525.5</ele>
        <time>2018-09-16T12:28:26Z</time>
      </trkpt>
      <trkpt lat="48.210187023505569" lon="10.553778000175953">
        <ele>526.46000000000004</ele>
        <time>2018-09-16T12:28:27Z</time>
      </trkpt>
      <trkpt lat="48.210044028237462" lon="10.553971035405993">
        <ele>527.41999999999996</ele>
        <time>2018-09-16T12:28:28Z</time>
      </trkpt>
      <trkpt lat="48.208914985880256" lon="10.555094964802265">
        <ele>529.34000000000003</ele>
        <time>2018-09-16T12:28:35Z</time>
      </trkpt>
      <trkpt lat="48.208413999527693" lon="10.555519005283713">
        <ele>529.82000000000005</ele>
        <time>2018-09-16T12:28:38Z</time>
      </trkpt>
      <trkpt lat="48.208263041451573" lon="10.555695025250316">
        <ele>529.82000000000005</ele>
        <time>2018-09-16T12:28:39Z</time>
      </trkpt>
      <trkpt lat="48.208142006769776" lon="10.555923013016582">
        <ele>529.82000000000005</ele>
        <time>2018-09-16T12:28:40Z</time>
      </trkpt>
      <trkpt lat="48.208059025928378" lon="10.556192994117737">
        <ele>529.34000000000003</ele>
        <time>2018-09-16T12:28:41Z</time>
      </trkpt>
      <trkpt lat="48.207985013723373" lon="10.55647999048233">
        <ele>529.34000000000003</ele>
        <time>2018-09-16T12:28:42Z</time>
      </trkpt>
      <trkpt lat="48.207911001518369" lon="10.556767992675304">
        <ele>528.86000000000001</ele>
        <time>2018-09-16T12:28:43Z</time>
      </trkpt>
      <trkpt lat="48.207770017907023" lon="10.557313989847898">
        <ele>528.38</ele>
        <time>2018-09-16T12:28:45Z</time>
      </trkpt>
      <trkpt lat="48.207669015973806" lon="10.557568967342377">
        <ele>527.89999999999998</ele>
        <time>2018-09-16T12:28:46Z</time>
      </trkpt>
      <trkpt lat="48.207523003220558" lon="10.557770971208811">
        <ele>527.89999999999998</ele>
        <time>2018-09-16T12:28:47Z</time>
      </trkpt>
      <trkpt lat="48.207369027659297" lon="10.557955037802458">
        <ele>527.41999999999996</ele>
        <time>2018-09-16T12:28:48Z</time>
      </trkpt>
      <trkpt lat="48.207195019349456" lon="10.558102978393435">
        <ele>527.41999999999996</ele>
        <time>2018-09-16T12:28:49Z</time>
      </trkpt>
      <trkpt lat="48.207002989947796" lon="10.558243039995432">
        <ele>526.94000000000005</ele>
        <time>2018-09-16T12:28:50Z</time>
      </trkpt>
      <trkpt lat="48.206392033025622" lon="10.558687029406428">
        <ele>526.46000000000004</ele>
        <time>2018-09-16T12:28:53Z</time>
      </trkpt>
      <trkpt lat="48.206212995573878" lon="10.558930020779371">
        <ele>525.98000000000002</ele>
        <time>2018-09-16T12:28:54Z</time>
      </trkpt>
      <trkpt lat="48.206034963950515" lon="10.559180974960327">
        <ele>525.98000000000002</ele>
        <time>2018-09-16T12:28:55Z</time>
      </trkpt>
      <trkpt lat="48.204124979674816" lon="10.561834014952183">
        <ele>524.05999999999995</ele>
        <time>2018-09-16T12:29:05Z</time>
      </trkpt>
      <trkpt lat="48.202352039515972" lon="10.56406301446259">
        <ele>524.05999999999995</ele>
        <time>2018-09-16T12:29:14Z</time>
      </trkpt>
      <trkpt lat="48.201061980798841" lon="10.564860971644521">
        <ele>522.61000000000001</ele>
        <time>2018-09-16T12:29:20Z</time>
      </trkpt>
      <trkpt lat="48.200184982270002" lon="10.56528702378273">
        <ele>523.58000000000004</ele>
        <time>2018-09-16T12:29:24Z</time>
      </trkpt>
      <trkpt lat="48.199980966746807" lon="10.565417027100921">
        <ele>524.05999999999995</ele>
        <time>2018-09-16T12:29:25Z</time>
      </trkpt>
      <trkpt lat="48.19979103282094" lon="10.565577959641814">
        <ele>524.05999999999995</ele>
        <time>2018-09-16T12:29:26Z</time>
      </trkpt>
      <trkpt lat="48.199068009853363" lon="10.566058997064829">
        <ele>524.53999999999996</ele>
        <time>2018-09-16T12:29:30Z</time>
      </trkpt>
      <trkpt lat="48.198892995715141" lon="10.566121023148298">
        <ele>525.01999999999998</ele>
        <time>2018-09-16T12:29:31Z</time>
      </trkpt>
      <trkpt lat="48.198724016547203" lon="10.566106019541621">
        <ele>525.01999999999998</ele>
        <time>2018-09-16T12:29:32Z</time>
      </trkpt>
      <trkpt lat="48.198565011844039" lon="10.566033013164997">
        <ele>525.5</ele>
        <time>2018-09-16T12:29:33Z</time>
      </trkpt>
      <trkpt lat="48.198398966342211" lon="10.565928993746638">
        <ele>525.5</ele>
        <time>2018-09-16T12:29:34Z</time>
      </trkpt>
      <trkpt lat="48.19822596386075" lon="10.565821034833789">
        <ele>525.98000000000002</ele>
        <time>2018-09-16T12:29:35Z</time>
      </trkpt>
      <trkpt lat="48.198040975257754" lon="10.565705029293895">
        <ele>525.98000000000002</ele>
        <time>2018-09-16T12:29:36Z</time>
      </trkpt>
      <trkpt lat="48.197277970612049" lon="10.565237989649177">
        <ele>526.94000000000005</ele>
        <time>2018-09-16T12:29:40Z</time>
      </trkpt>
      <trkpt lat="48.196933977305889" lon="10.56516095995903">
        <ele>527.89999999999998</ele>
        <time>2018-09-16T12:29:42Z</time>
      </trkpt>
      <trkpt lat="48.19676298648119" lon="10.565174035727978">
        <ele>528.38</ele>
        <time>2018-09-16T12:29:43Z</time>
      </trkpt>
      <trkpt lat="48.196596018970013" lon="10.565249975770712">
        <ele>528.86000000000001</ele>
        <time>2018-09-16T12:29:44Z</time>
      </trkpt>
      <trkpt lat="48.196422010660172" lon="10.565349971875548">
        <ele>528.86000000000001</ele>
        <time>2018-09-16T12:29:45Z</time>
      </trkpt>
      <trkpt lat="48.196259988471866" lon="10.565511994063854">
        <ele>528.38</ele>
        <time>2018-09-16T12:29:46Z</time>
      </trkpt>
      <trkpt lat="48.196108024567366" lon="10.565715003758669">
        <ele>528.38</ele>
        <time>2018-09-16T12:29:47Z</time>
      </trkpt>
      <trkpt lat="48.195950025692582" lon="10.565928993746638">
        <ele>527.89999999999998</ele>
        <time>2018-09-16T12:29:48Z</time>
      </trkpt>
      <trkpt lat="48.194801034405828" lon="10.567403035238385">
        <ele>526.46000000000004</ele>
        <time>2018-09-16T12:29:55Z</time>
      </trkpt>
      <trkpt lat="48.194633983075619" lon="10.567552987486124">
        <ele>526.46000000000004</ele>
        <time>2018-09-16T12:29:56Z</time>
      </trkpt>
      <trkpt lat="48.194446982815862" lon="10.567662036046386">
        <ele>526.94000000000005</ele>
        <time>2018-09-16T12:29:57Z</time>
      </trkpt>
      <trkpt lat="48.194245984777808" lon="10.567733030766249">
        <ele>526.94000000000005</ele>
        <time>2018-09-16T12:29:58Z</time>
      </trkpt>
      <trkpt lat="48.194038029760122" lon="10.567806959152222">
        <ele>526.94000000000005</ele>
        <time>2018-09-16T12:29:59Z</time>
      </trkpt>
      <trkpt lat="48.191965017467737" lon="10.568348011001945">
        <ele>527.89999999999998</ele>
        <time>2018-09-16T12:30:08Z</time>
      </trkpt>
      <trkpt lat="48.190142037346959" lon="10.568522019311786">
        <ele>529.34000000000003</ele>
        <time>2018-09-16T12:30:17Z</time>
      </trkpt>
      <trkpt lat="48.189073009416461" lon="10.568291014060378">
        <ele>531.75</ele>
        <time>2018-09-16T12:30:24Z</time>
      </trkpt>
      <trkpt lat="48.188886009156704" lon="10.568181965500116">
        <ele>531.75</ele>
        <time>2018-09-16T12:30:26Z</time>
      </trkpt>
      <trkpt lat="48.188828006386757" lon="10.568149024620652">
        <ele>532.23000000000002</ele>
        <time>2018-09-16T12:30:27Z</time>
      </trkpt>
      <trkpt lat="48.18879003636539" lon="10.56812597438693">
        <ele>532.23000000000002</ele>
        <time>2018-09-16T12:30:28Z</time>
      </trkpt>
      <trkpt lat="48.188760029152036" lon="10.568025978282094">
        <ele>532.23000000000002</ele>
        <time>2018-09-16T12:30:29Z</time>
      </trkpt>
      <trkpt lat="48.188778972253203" lon="10.567959006875753">
        <ele>532.71000000000004</ele>
        <time>2018-09-16T12:30:30Z</time>
      </trkpt>
      <trkpt lat="48.188805039972067" lon="10.567869991064072">
        <ele>532.71000000000004</ele>
        <time>2018-09-16T12:30:31Z</time>
      </trkpt>
      <trkpt lat="48.188834963366389" lon="10.567767983302474">
        <ele>532.71000000000004</ele>
        <time>2018-09-16T12:30:32Z</time>
      </trkpt>
      <trkpt lat="48.188868993893266" lon="10.567649966105819">
        <ele>533.19000000000005</ele>
        <time>2018-09-16T12:30:33Z</time>
      </trkpt>
      <trkpt lat="48.189165964722633" lon="10.566680012270808">
        <ele>533.66999999999996</ele>
        <time>2018-09-16T12:30:38Z</time>
      </trkpt>
      <trkpt lat="48.189319018274546" lon="10.566143989562988">
        <ele>534.63</ele>
        <time>2018-09-16T12:30:40Z</time>
      </trkpt>
      <trkpt lat="48.189333016052842" lon="10.565852969884872">
        <ele>535.59000000000003</ele>
        <time>2018-09-16T12:30:41Z</time>
      </trkpt>
      <trkpt lat="48.1893490254879" lon="10.565542001277208">
        <ele>536.54999999999995</ele>
        <time>2018-09-16T12:30:42Z</time>
      </trkpt>
      <trkpt lat="48.189358999952674" lon="10.565224997699261">
        <ele>537.99000000000001</ele>
        <time>2018-09-16T12:30:43Z</time>
      </trkpt>
      <trkpt lat="48.189343996345997" lon="10.564896007999778">
        <ele>538.96000000000004</ele>
        <time>2018-09-16T12:30:44Z</time>
      </trkpt>
      <trkpt lat="48.189253974705935" lon="10.56290396489203">
        <ele>548.09000000000003</ele>
        <time>2018-09-16T12:30:50Z</time>
      </trkpt>
      <trkpt lat="48.189153978601098" lon="10.562596013769507">
        <ele>549.04999999999995</ele>
        <time>2018-09-16T12:30:51Z</time>
      </trkpt>
      <trkpt lat="48.18855601362884" lon="10.560665996745229">
        <ele>554.34000000000003</ele>
        <time>2018-09-16T12:30:57Z</time>
      </trkpt>
      <trkpt lat="48.187914965674281" lon="10.557808019220829">
        <ele>558.65999999999997</ele>
        <time>2018-09-16T12:31:05Z</time>
      </trkpt>
      <trkpt lat="48.187133017927408" lon="10.554927997291088">
        <ele>559.62</ele>
        <time>2018-09-16T12:31:13Z</time>
      </trkpt>
      <trkpt lat="48.186648963019252" lon="10.553570967167616">
        <ele>559.13999999999999</ele>
        <time>2018-09-16T12:31:17Z</time>
      </trkpt>
      <trkpt lat="48.18651401437819" lon="10.553242983296514">
        <ele>558.65999999999997</ele>
        <time>2018-09-16T12:31:18Z</time>
      </trkpt>
      <trkpt lat="48.186348974704742" lon="10.552945006638765">
        <ele>558.17999999999995</ele>
        <time>2018-09-16T12:31:19Z</time>
      </trkpt>
      <trkpt lat="48.185756960883737" lon="10.551847983151674">
        <ele>556.74000000000001</ele>
        <time>2018-09-16T12:31:23Z</time>
      </trkpt>
      <trkpt lat="48.185665011405945" lon="10.551552018150687">
        <ele>556.25999999999999</ele>
        <time>2018-09-16T12:31:24Z</time>
      </trkpt>
      <trkpt lat="48.185665011405945" lon="10.551552018150687">
        <ele>555.77999999999997</ele>
        <time>2018-09-16T12:31:25Z</time>
      </trkpt>
      <trkpt lat="48.185475999489427" lon="10.550947012379766">
        <ele>555.29999999999995</ele>
        <time>2018-09-16T12:31:26Z</time>
      </trkpt>
      <trkpt lat="48.185382960364223" lon="10.550644006580114">
        <ele>555.29999999999995</ele>
        <time>2018-09-16T12:31:27Z</time>
      </trkpt>
      <trkpt lat="48.185294028371572" lon="10.550359021872282">
        <ele>554.82000000000005</ele>
        <time>2018-09-16T12:31:28Z</time>
      </trkpt>
      <trkpt lat="48.185177017003298" lon="10.550093986093998">
        <ele>554.82000000000005</ele>
        <time>2018-09-16T12:31:29Z</time>
      </trkpt>
      <trkpt lat="48.18505103699863" lon="10.549827022477984">
        <ele>554.34000000000003</ele>
        <time>2018-09-16T12:31:30Z</time>
      </trkpt>
      <trkpt lat="48.184894965961576" lon="10.5495810136199">
        <ele>554.34000000000003</ele>
        <time>2018-09-16T12:31:31Z</time>
      </trkpt>
      <trkpt lat="48.184735039249063" lon="10.549327963963151">
        <ele>554.34000000000003</ele>
        <time>2018-09-16T12:31:32Z</time>
      </trkpt>
      <trkpt lat="48.184463968500495" lon="10.548742990940809">
        <ele>554.34000000000003</ele>
        <time>2018-09-16T12:31:34Z</time>
      </trkpt>
      <trkpt lat="48.184333965182304" lon="10.548435961827636">
        <ele>554.82000000000005</ele>
        <time>2018-09-16T12:31:35Z</time>
      </trkpt>
      <trkpt lat="48.184204967692494" lon="10.548130022361875">
        <ele>554.82000000000005</ele>
        <time>2018-09-16T12:31:36Z</time>
      </trkpt>
      <trkpt lat="48.184076976031065" lon="10.547828022390604">
        <ele>554.82000000000005</ele>
        <time>2018-09-16T12:31:37Z</time>
      </trkpt>
      <trkpt lat="48.18376500159502" lon="10.547257969155908">
        <ele>554.34000000000003</ele>
        <time>2018-09-16T12:31:39Z</time>
      </trkpt>
      <trkpt lat="48.18359199911356" lon="10.547002991661429">
        <ele>554.34000000000003</ele>
        <time>2018-09-16T12:31:40Z</time>
      </trkpt>
      <trkpt lat="48.183426037430763" lon="10.546758994460106">
        <ele>554.34000000000003</ele>
        <time>2018-09-16T12:31:41Z</time>
      </trkpt>
      <trkpt lat="48.183240965008736" lon="10.546569982543588">
        <ele>553.86000000000001</ele>
        <time>2018-09-16T12:31:42Z</time>
      </trkpt>
      <trkpt lat="48.183054970577359" lon="10.546383988112211">
        <ele>553.86000000000001</ele>
        <time>2018-09-16T12:31:43Z</time>
      </trkpt>
      <trkpt lat="48.182852966710925" lon="10.546236969530582">
        <ele>554.34000000000003</ele>
        <time>2018-09-16T12:31:44Z</time>
      </trkpt>
      <trkpt lat="48.182636965066195" lon="10.546096991747618">
        <ele>554.82000000000005</ele>
        <time>2018-09-16T12:31:45Z</time>
      </trkpt>
      <trkpt lat="48.18221602588892" lon="10.545823993161321">
        <ele>555.77999999999997</ele>
        <time>2018-09-16T12:31:47Z</time>
      </trkpt>
      <trkpt lat="48.18202399648726" lon="10.545591982081532">
        <ele>556.25999999999999</ele>
        <time>2018-09-16T12:31:48Z</time>
      </trkpt>
      <trkpt lat="48.181842025369406" lon="10.545372040942311">
        <ele>556.74000000000001</ele>
        <time>2018-09-16T12:31:49Z</time>
      </trkpt>
      <trkpt lat="48.180836029350758" lon="10.543778976425529">
        <ele>561.07000000000005</ele>
        <time>2018-09-16T12:31:55Z</time>
      </trkpt>
      <trkpt lat="48.180232029408216" lon="10.542606012895703">
        <ele>563.95000000000005</ele>
        <time>2018-09-16T12:31:59Z</time>
      </trkpt>
      <trkpt lat="48.179959030821919" lon="10.542060015723109">
        <ele>565.38999999999999</ele>
        <time>2018-09-16T12:32:01Z</time>
      </trkpt>
      <trkpt lat="48.179633980616927" lon="10.541596999391913">
        <ele>567.32000000000005</ele>
        <time>2018-09-16T12:32:03Z</time>
      </trkpt>
      <trkpt lat="48.179437005892396" lon="10.541411004960537">
        <ele>568.75999999999999</ele>
        <time>2018-09-16T12:32:04Z</time>
      </trkpt>
      <trkpt lat="48.179223015904427" lon="10.541249988600612">
        <ele>569.72000000000003</ele>
        <time>2018-09-16T12:32:05Z</time>
      </trkpt>
      <trkpt lat="48.177717961370945" lon="10.540122035890818">
        <ele>578.85000000000002</ele>
        <time>2018-09-16T12:32:12Z</time>
      </trkpt>
      <trkpt lat="48.17753397859633" lon="10.539936041459441">
        <ele>579.80999999999995</ele>
        <time>2018-09-16T12:32:13Z</time>
      </trkpt>
      <trkpt lat="48.177201971411705" lon="10.539429020136595">
        <ele>582.22000000000003</ele>
        <time>2018-09-16T12:32:15Z</time>
      </trkpt>
      <trkpt lat="48.17635296843946" lon="10.538122029975057">
        <ele>584.62</ele>
        <time>2018-09-16T12:32:20Z</time>
      </trkpt>
      <trkpt lat="48.17615800537169" lon="10.537865962833166">
        <ele>583.65999999999997</ele>
        <time>2018-09-16T12:32:21Z</time>
      </trkpt>
      <trkpt lat="48.17594401538372" lon="10.537626994773746">
        <ele>582.70000000000005</ele>
        <time>2018-09-16T12:32:22Z</time>
      </trkpt>
      <trkpt lat="48.175333980470896" lon="10.536968009546399">
        <ele>577.88999999999999</ele>
        <time>2018-09-16T12:32:25Z</time>
      </trkpt>
      <trkpt lat="48.175187967717648" lon="10.53671495988965">
        <ele>576.45000000000005</ele>
        <time>2018-09-16T12:32:26Z</time>
      </trkpt>
      <trkpt lat="48.175098029896617" lon="10.536426035687327">
        <ele>574.52999999999997</ele>
        <time>2018-09-16T12:32:27Z</time>
      </trkpt>
      <trkpt lat="48.175022006034851" lon="10.536124035716057">
        <ele>573.55999999999995</ele>
        <time>2018-09-16T12:32:28Z</time>
      </trkpt>
      <trkpt lat="48.174970960244536" lon="10.535790016874671">
        <ele>572.12</ele>
        <time>2018-09-16T12:32:29Z</time>
      </trkpt>
      <trkpt lat="48.174941958859563" lon="10.535425990819931">
        <ele>571.15999999999997</ele>
        <time>2018-09-16T12:32:30Z</time>
      </trkpt>
      <trkpt lat="48.174571981653571" lon="10.532826008275151">
        <ele>569.24000000000001</ele>
        <time>2018-09-16T12:32:37Z</time>
      </trkpt>
      <trkpt lat="48.173549976199865" lon="10.530101973563433">
        <ele>568.75999999999999</ele>
        <time>2018-09-16T12:32:45Z</time>
      </trkpt>
      <trkpt lat="48.173304973170161" lon="10.529484981670976">
        <ele>568.75999999999999</ele>
        <time>2018-09-16T12:32:47Z</time>
      </trkpt>
      <trkpt lat="48.173230960965157" lon="10.529164960607886">
        <ele>568.27999999999997</ele>
        <time>2018-09-16T12:32:48Z</time>
      </trkpt>
      <trkpt lat="48.173191985115409" lon="10.528822978958488">
        <ele>567.79999999999995</ele>
        <time>2018-09-16T12:32:49Z</time>
      </trkpt>
      <trkpt lat="48.173186033964157" lon="10.528458030894399">
        <ele>567.32000000000005</ele>
        <time>2018-09-16T12:32:50Z</time>
      </trkpt>
      <trkpt lat="48.173189973458648" lon="10.528085036203265">
        <ele>566.83000000000004</ele>
        <time>2018-09-16T12:32:51Z</time>
      </trkpt>
      <trkpt lat="48.173202965408564" lon="10.5269780382514">
        <ele>563.47000000000003</ele>
        <time>2018-09-16T12:32:55Z</time>
      </trkpt>
      <trkpt lat="48.173153009265661" lon="10.52644201554358">
        <ele>561.54999999999995</ele>
        <time>2018-09-16T12:32:57Z</time>
      </trkpt>
      <trkpt lat="48.173102969303727" lon="10.526181003078818">
        <ele>560.59000000000003</ele>
        <time>2018-09-16T12:32:58Z</time>
      </trkpt>
      <trkpt lat="48.173035997897387" lon="10.52592602558434">
        <ele>559.62</ele>
        <time>2018-09-16T12:32:59Z</time>
      </trkpt>
      <trkpt lat="48.172914041206241" lon="10.525726033374667">
        <ele>558.65999999999997</ele>
        <time>2018-09-16T12:33:00Z</time>
      </trkpt>
      <trkpt lat="48.172775991261005" lon="10.525548001751304">
        <ele>558.17999999999995</ele>
        <time>2018-09-16T12:33:01Z</time>
      </trkpt>
      <trkpt lat="48.172622015699744" lon="10.525393020361662">
        <ele>557.22000000000003</ele>
        <time>2018-09-16T12:33:02Z</time>
      </trkpt>
      <trkpt lat="48.172450019046664" lon="10.525301992893219">
        <ele>556.74000000000001</ele>
        <time>2018-09-16T12:33:03Z</time>
      </trkpt>
      <trkpt lat="48.172260001301765" lon="10.525227980688214">
        <ele>556.74000000000001</ele>
        <time>2018-09-16T12:33:04Z</time>
      </trkpt>
      <trkpt lat="48.172062020748854" lon="10.5251510348171">
        <ele>556.25999999999999</ele>
        <time>2018-09-16T12:33:05Z</time>
      </trkpt>
      <trkpt lat="48.171084020286798" lon="10.52472498267889">
        <ele>552.40999999999997</ele>
        <time>2018-09-16T12:33:10Z</time>
      </trkpt>
      <trkpt lat="48.170939013361931" lon="10.524628004059196">
        <ele>551.45000000000005</ele>
        <time>2018-09-16T12:33:11Z</time>
      </trkpt>
      <trkpt lat="48.170833988115191" lon="10.524506969377398">
        <ele>551.45000000000005</ele>
        <time>2018-09-16T12:33:12Z</time>
      </trkpt>
      <trkpt lat="48.170748995617032" lon="10.524408984929323">
        <ele>550.97000000000003</ele>
        <time>2018-09-16T12:33:13Z</time>
      </trkpt>
      <trkpt lat="48.17068001255393" lon="10.524317035451531">
        <ele>550.49000000000001</ele>
        <time>2018-09-16T12:33:14Z</time>
      </trkpt>
      <trkpt lat="48.170628966763616" lon="10.524215027689934">
        <ele>550.00999999999999</ele>
        <time>2018-09-16T12:33:15Z</time>
      </trkpt>
      <trkpt lat="48.170585967600346" lon="10.524130035191774">
        <ele>550.00999999999999</ele>
        <time>2018-09-16T12:33:16Z</time>
      </trkpt>
      <trkpt lat="48.170549003407359" lon="10.523961978033185">
        <ele>550.00999999999999</ele>
        <time>2018-09-16T12:33:17Z</time>
      </trkpt>
      <trkpt lat="48.170512039214373" lon="10.523795010522008">
        <ele>550.00999999999999</ele>
        <time>2018-09-16T12:33:18Z</time>
      </trkpt>
      <trkpt lat="48.170469040051103" lon="10.523603986948729">
        <ele>550.00999999999999</ele>
        <time>2018-09-16T12:33:19Z</time>
      </trkpt>
      <trkpt lat="48.170453030616045" lon="10.52339200861752">
        <ele>550.49000000000001</ele>
        <time>2018-09-16T12:33:20Z</time>
      </trkpt>
      <trkpt lat="48.170445989817381" lon="10.523157985880971">
        <ele>550.49000000000001</ele>
        <time>2018-09-16T12:33:21Z</time>
      </trkpt>
      <trkpt lat="48.170439032837749" lon="10.522914994508028">
        <ele>550.49000000000001</ele>
        <time>2018-09-16T12:33:22Z</time>
      </trkpt>
      <trkpt lat="48.170302994549274" lon="10.521008027717471">
        <ele>550.49000000000001</ele>
        <time>2018-09-16T12:33:31Z</time>
      </trkpt>
      <trkpt lat="48.170191012322903" lon="10.520539982244372">
        <ele>549.52999999999997</ele>
        <time>2018-09-16T12:33:34Z</time>
      </trkpt>
      <trkpt lat="48.170157987624407" lon="10.520389024168253">
        <ele>549.52999999999997</ele>
        <time>2018-09-16T12:33:35Z</time>
      </trkpt>
      <trkpt lat="48.170125968754292" lon="10.520246028900146">
        <ele>549.04999999999995</ele>
        <time>2018-09-16T12:33:36Z</time>
      </trkpt>
      <trkpt lat="48.169919019564986" lon="10.519595006480813">
        <ele>547.61000000000001</ele>
        <time>2018-09-16T12:33:41Z</time>
      </trkpt>
      <trkpt lat="48.169818017631769" lon="10.51937498152256">
        <ele>546.64999999999998</ele>
        <time>2018-09-16T12:33:43Z</time>
      </trkpt>
      <trkpt lat="48.169662030413747" lon="10.519062001258135">
        <ele>545.20000000000005</ele>
        <time>2018-09-16T12:33:46Z</time>
      </trkpt>
      <trkpt lat="48.169594975188375" lon="10.518976002931595">
        <ele>545.20000000000005</ele>
        <time>2018-09-16T12:33:47Z</time>
      </trkpt>
      <trkpt lat="48.169522974640131" lon="10.518904002383351">
        <ele>545.20000000000005</ele>
        <time>2018-09-16T12:33:48Z</time>
      </trkpt>
      <trkpt lat="48.169445022940636" lon="10.518872989341617">
        <ele>545.20000000000005</ele>
        <time>2018-09-16T12:33:49Z</time>
      </trkpt>
      <trkpt lat="48.169364975765347" lon="10.518872989341617">
        <ele>544.72000000000003</ele>
        <time>2018-09-16T12:33:50Z</time>
      </trkpt>
      <trkpt lat="48.169292975217104" lon="10.518892016261816">
        <ele>544.72000000000003</ele>
        <time>2018-09-16T12:33:51Z</time>
      </trkpt>
      <trkpt lat="48.169226003810763" lon="10.518925040960312">
        <ele>544.72000000000003</ele>
        <time>2018-09-16T12:33:52Z</time>
      </trkpt>
      <trkpt lat="48.169163977727294" lon="10.518993018195033">
        <ele>544.24000000000001</ele>
        <time>2018-09-16T12:33:53Z</time>
      </trkpt>
      <trkpt lat="48.169103041291237" lon="10.519060995429754">
        <ele>544.24000000000001</ele>
        <time>2018-09-16T12:33:54Z</time>
      </trkpt>
      <trkpt lat="48.169040009379387" lon="10.519129978492856">
        <ele>543.75999999999999</ele>
        <time>2018-09-16T12:33:55Z</time>
      </trkpt>
      <trkpt lat="48.168976977467537" lon="10.519198961555958">
        <ele>543.75999999999999</ele>
        <time>2018-09-16T12:33:56Z</time>
      </trkpt>
      <trkpt lat="48.168804980814457" lon="10.519387973472476">
        <ele>543.75999999999999</ele>
        <time>2018-09-16T12:33:59Z</time>
      </trkpt>
      <trkpt lat="48.168728034943342" lon="10.519391996785998">
        <ele>544.24000000000001</ele>
        <time>2018-09-16T12:34:00Z</time>
      </trkpt>
      <trkpt lat="48.168665003031492" lon="10.51939501427114">
        <ele>544.24000000000001</ele>
        <time>2018-09-16T12:34:01Z</time>
      </trkpt>
      <trkpt lat="48.168608006089926" lon="10.519398031756282">
        <ele>544.24000000000001</ele>
        <time>2018-09-16T12:34:02Z</time>
      </trkpt>
      <trkpt lat="48.168558971956372" lon="10.519399959594011">
        <ele>544.24000000000001</ele>
        <time>2018-09-16T12:34:03Z</time>
      </trkpt>
      <trkpt lat="48.168515972793102" lon="10.519401971250772">
        <ele>544.72000000000003</ele>
        <time>2018-09-16T12:34:04Z</time>
      </trkpt>
      <trkpt lat="48.168478002771735" lon="10.519403982907534">
        <ele>544.72000000000003</ele>
        <time>2018-09-16T12:34:05Z</time>
      </trkpt>
      <trkpt lat="48.16844598390162" lon="10.519405994564295">
        <ele>544.72000000000003</ele>
        <time>2018-09-16T12:34:06Z</time>
      </trkpt>
      <trkpt lat="48.168420000001788" lon="10.519529962912202">
        <ele>545.20000000000005</ele>
        <time>2018-09-16T12:34:07Z</time>
      </trkpt>
      <trkpt lat="48.168461993336678" lon="10.519644962623715">
        <ele>545.69000000000005</ele>
        <time>2018-09-16T12:34:08Z</time>
      </trkpt>
      <trkpt lat="48.168464004993439" lon="10.519676981493831">
        <ele>546.16999999999996</ele>
        <time>2018-09-16T12:34:09Z</time>
      </trkpt>
      <trkpt lat="48.168471967801452" lon="10.519775971770287">
        <ele>546.64999999999998</ele>
        <time>2018-09-16T12:34:10Z</time>
      </trkpt>
      <trkpt lat="48.16848998889327" lon="10.519993985071778">
        <ele>547.13</ele>
        <time>2018-09-16T12:34:12Z</time>
      </trkpt>
      <trkpt lat="48.168499041348696" lon="10.520104039460421">
        <ele>547.61000000000001</ele>
        <time>2018-09-16T12:34:13Z</time>
      </trkpt>
      <trkpt lat="48.168517984449863" lon="10.520332027226686">
        <ele>549.04999999999995</ele>
        <time>2018-09-16T12:34:16Z</time>
      </trkpt>
      <trkpt lat="48.168521001935005" lon="10.520377038046718">
        <ele>549.52999999999997</ele>
        <time>2018-09-16T12:34:17Z</time>
      </trkpt>
      <trkpt lat="48.168485965579748" lon="10.520434034988284">
        <ele>549.52999999999997</ele>
        <time>2018-09-16T12:34:18Z</time>
      </trkpt>
      <trkpt lat="48.168442966416478" lon="10.520429005846381">
        <ele>550.00999999999999</ele>
        <time>2018-09-16T12:34:19Z</time>
      </trkpt>
      <trkpt lat="48.16838102415204" lon="10.520420959219337">
        <ele>550.49000000000001</ele>
        <time>2018-09-16T12:34:20Z</time>
      </trkpt>
      <trkpt lat="48.168302988633513" lon="10.520410984754562">
        <ele>550.97000000000003</ele>
        <time>2018-09-16T12:34:21Z</time>
      </trkpt>
      <trkpt lat="48.168126968666911" lon="10.520409978926182">
        <ele>551.45000000000005</ele>
        <time>2018-09-16T12:34:23Z</time>
      </trkpt>
      <trkpt lat="48.168049016967416" lon="10.520430011674762">
        <ele>551.92999999999995</ele>
        <time>2018-09-16T12:34:24Z</time>
      </trkpt>
      <trkpt lat="48.167823040857911" lon="10.520461024716496">
        <ele>553.86000000000001</ele>
        <time>2018-09-16T12:34:30Z</time>
      </trkpt>
      <trkpt lat="48.167790016159415" lon="10.520420959219337">
        <ele>554.34000000000003</ele>
        <time>2018-09-16T12:34:31Z</time>
      </trkpt>
      <trkpt lat="48.167433030903339" lon="10.519978981465101">
        <ele>557.70000000000005</ele>
        <time>2018-09-16T12:34:38Z</time>
      </trkpt>
      <trkpt lat="48.167386008426547" lon="10.519892983138561">
        <ele>558.17999999999995</ele>
        <time>2018-09-16T12:34:39Z</time>
      </trkpt>
      <trkpt lat="48.167369998991489" lon="10.51971796900034">
        <ele>558.65999999999997</ele>
        <time>2018-09-16T12:34:41Z</time>
      </trkpt>
      <trkpt lat="48.167367987334728" lon="10.519687961786985">
        <ele>558.65999999999997</ele>
        <time>2018-09-16T12:34:42Z</time>
      </trkpt>
      <trkpt lat="48.167379973456264" lon="10.519578997045755">
        <ele>559.13999999999999</ele>
        <time>2018-09-16T12:34:43Z</time>
      </trkpt>
      <trkpt lat="48.167389025911689" lon="10.519506996497512">
        <ele>559.13999999999999</ele>
        <time>2018-09-16T12:34:44Z</time>
      </trkpt>
      <trkpt lat="48.167395982891321" lon="10.519443964585662">
        <ele>559.13999999999999</ele>
        <time>2018-09-16T12:34:45Z</time>
      </trkpt>
      <trkpt lat="48.167403023689985" lon="10.519385961815715">
        <ele>559.13999999999999</ele>
        <time>2018-09-16T12:34:46Z</time>
      </trkpt>
      <trkpt lat="48.167407969012856" lon="10.519345980137587">
        <ele>559.13999999999999</ele>
        <time>2018-09-16T12:34:47Z</time>
      </trkpt>
      <trkpt lat="48.167406963184476" lon="10.519356038421392">
        <ele>559.62</ele>
        <time>2018-09-16T12:34:49Z</time>
      </trkpt>
      <trkpt lat="48.167402017861605" lon="10.519397025927901">
        <ele>559.62</ele>
        <time>2018-09-16T12:34:50Z</time>
      </trkpt>
      <trkpt lat="48.167395982891321" lon="10.519443964585662">
        <ele>559.62</ele>
        <time>2018-09-16T12:34:51Z</time>
      </trkpt>
      <trkpt lat="48.167389025911689" lon="10.519506996497512">
        <ele>559.62</ele>
        <time>2018-09-16T12:34:52Z</time>
      </trkpt>
      <trkpt lat="48.167367987334728" lon="10.519687961786985">
        <ele>559.62</ele>
        <time>2018-09-16T12:34:53Z</time>
      </trkpt>
      <trkpt lat="48.167389025911689" lon="10.519923996180296">
        <ele>559.13999999999999</ele>
        <time>2018-09-16T12:34:58Z</time>
      </trkpt>
      <trkpt lat="48.167389025911689" lon="10.519923996180296">
        <ele>558.65999999999997</ele>
        <time>2018-09-16T12:35:09Z</time>
      </trkpt>
      <trkpt lat="48.167468989267945" lon="10.520022986456752">
        <ele>558.65999999999997</ele>
        <time>2018-09-16T12:35:27Z</time>
      </trkpt>
      <trkpt lat="48.16750000230968" lon="10.520061962306499">
        <ele>558.17999999999995</ele>
        <time>2018-09-16T12:35:28Z</time>
      </trkpt>
      <trkpt lat="48.16754300147295" lon="10.520114013925195">
        <ele>558.17999999999995</ele>
        <time>2018-09-16T12:35:29Z</time>
      </trkpt>
      <trkpt lat="48.167598992586136" lon="10.520184002816677">
        <ele>557.70000000000005</ele>
        <time>2018-09-16T12:35:30Z</time>
      </trkpt>
      <trkpt lat="48.167661018669605" lon="10.520261032506824">
        <ele>557.22000000000003</ele>
        <time>2018-09-16T12:35:31Z</time>
      </trkpt>
      <trkpt lat="48.167839972302318" lon="10.520481979474425">
        <ele>556.25999999999999</ele>
        <time>2018-09-16T12:35:35Z</time>
      </trkpt>
      <trkpt lat="48.167899986729026" lon="10.520466975867748">
        <ele>556.25999999999999</ele>
        <time>2018-09-16T12:35:36Z</time>
      </trkpt>
      <trkpt lat="48.167954972013831" lon="10.520452978089452">
        <ele>556.25999999999999</ele>
        <time>2018-09-16T12:35:37Z</time>
      </trkpt>
      <trkpt lat="48.168330984190106" lon="10.520415008068085">
        <ele>554.82000000000005</ele>
        <time>2018-09-16T12:35:42Z</time>
      </trkpt>
      <trkpt lat="48.16840399056673" lon="10.520423976704478">
        <ele>554.34000000000003</ele>
        <time>2018-09-16T12:35:43Z</time>
      </trkpt>
      <trkpt lat="48.168460987508297" lon="10.520431017503142">
        <ele>553.38</ele>
        <time>2018-09-16T12:35:44Z</time>
      </trkpt>
      <trkpt lat="48.168497029691935" lon="10.520435040816665">
        <ele>552.89999999999998</ele>
        <time>2018-09-16T12:35:45Z</time>
      </trkpt>
      <trkpt lat="48.168518990278244" lon="10.520354993641376">
        <ele>551.92999999999995</ele>
        <time>2018-09-16T12:35:46Z</time>
      </trkpt>
      <trkpt lat="48.168513961136341" lon="10.520286010578275">
        <ele>551.45000000000005</ele>
        <time>2018-09-16T12:35:47Z</time>
      </trkpt>
      <trkpt lat="48.168505998328328" lon="10.52018903195858">
        <ele>550.97000000000003</ele>
        <time>2018-09-16T12:35:48Z</time>
      </trkpt>
      <trkpt lat="48.168470039963722" lon="10.519743030890822">
        <ele>548.09000000000003</ele>
        <time>2018-09-16T12:35:52Z</time>
      </trkpt>
      <trkpt lat="48.168400973081589" lon="10.519479000940919">
        <ele>545.20000000000005</ele>
        <time>2018-09-16T12:35:57Z</time>
      </trkpt>
      <trkpt lat="48.168375995010138" lon="10.519409012049437">
        <ele>544.72000000000003</ele>
        <time>2018-09-16T12:35:58Z</time>
      </trkpt>
      <trkpt lat="48.168357973918319" lon="10.519396020099521">
        <ele>544.24000000000001</ele>
        <time>2018-09-16T12:35:59Z</time>
      </trkpt>
      <trkpt lat="48.168287985026836" lon="10.519344974309206">
        <ele>543.75999999999999</ele>
        <time>2018-09-16T12:36:00Z</time>
      </trkpt>
      <trkpt lat="48.16820802167058" lon="10.519285965710878">
        <ele>543.75999999999999</ele>
        <time>2018-09-16T12:36:01Z</time>
      </trkpt>
      <trkpt lat="48.168053962290287" lon="10.519172977656126">
        <ele>543.75999999999999</ele>
        <time>2018-09-16T12:36:03Z</time>
      </trkpt>
      <trkpt lat="48.167970981448889" lon="10.519040962681174">
        <ele>543.75999999999999</ele>
        <time>2018-09-16T12:36:04Z</time>
      </trkpt>
      <trkpt lat="48.167895041406155" lon="10.51892101764679">
        <ele>543.75999999999999</ele>
        <time>2018-09-16T12:36:05Z</time>
      </trkpt>
      <trkpt lat="48.167689014226198" lon="10.518594039604068">
        <ele>541.84000000000003</ele>
        <time>2018-09-16T12:36:08Z</time>
      </trkpt>
      <trkpt lat="48.167645009234548" lon="10.518481973558664">
        <ele>541.36000000000001</ele>
        <time>2018-09-16T12:36:09Z</time>
      </trkpt>
      <trkpt lat="48.167529003694654" lon="10.51840896718204">
        <ele>540.88</ele>
        <time>2018-09-16T12:36:10Z</time>
      </trkpt>
      <trkpt lat="48.167455997318029" lon="10.518437968567014">
        <ele>540.39999999999998</ele>
        <time>2018-09-16T12:36:11Z</time>
      </trkpt>
      <trkpt lat="48.167378967627883" lon="10.518468981608748">
        <ele>539.91999999999996</ele>
        <time>2018-09-16T12:36:12Z</time>
      </trkpt>
      <trkpt lat="48.16730503924191" lon="10.518498988822103">
        <ele>539.44000000000005</ele>
        <time>2018-09-16T12:36:13Z</time>
      </trkpt>
      <trkpt lat="48.167231027036905" lon="10.518527990207076">
        <ele>539.44000000000005</ele>
        <time>2018-09-16T12:36:14Z</time>
      </trkpt>
      <trkpt lat="48.167153997346759" lon="10.518560009077191">
        <ele>539.44000000000005</ele>
        <time>2018-09-16T12:36:15Z</time>
      </trkpt>
      <trkpt lat="48.166745966300368" lon="10.518669979646802">
        <ele>537.99000000000001</ele>
        <time>2018-09-16T12:36:21Z</time>
      </trkpt>
      <trkpt lat="48.166709002107382" lon="10.518656987696886">
        <ele>537.50999999999999</ele>
        <time>2018-09-16T12:36:22Z</time>
      </trkpt>
      <trkpt lat="48.166629038751125" lon="10.518627986311913">
        <ele>537.02999999999997</ele>
        <time>2018-09-16T12:36:25Z</time>
      </trkpt>
      <trkpt lat="48.166581010445952" lon="10.518703004345298">
        <ele>537.02999999999997</ele>
        <time>2018-09-16T12:36:26Z</time>
      </trkpt>
      <trkpt lat="48.166569024324417" lon="10.518776010721922">
        <ele>537.02999999999997</ele>
        <time>2018-09-16T12:36:27Z</time>
      </trkpt>
      <trkpt lat="48.166553014889359" lon="10.518876006826758">
        <ele>537.02999999999997</ele>
        <time>2018-09-16T12:36:28Z</time>
      </trkpt>
      <trkpt lat="48.16653398796916" lon="10.518992012366652">
        <ele>537.02999999999997</ele>
        <time>2018-09-16T12:36:29Z</time>
      </trkpt>
      <trkpt lat="48.166513033211231" lon="10.519122015684843">
        <ele>537.02999999999997</ele>
        <time>2018-09-16T12:36:30Z</time>
      </trkpt>
      <trkpt lat="48.166489982977509" lon="10.519269034266472">
        <ele>537.02999999999997</ele>
        <time>2018-09-16T12:36:31Z</time>
      </trkpt>
      <trkpt lat="48.166444972157478" lon="10.519977975636721">
        <ele>536.54999999999995</ele>
        <time>2018-09-16T12:36:35Z</time>
      </trkpt>
      <trkpt lat="48.166499035432935" lon="10.521416980773211">
        <ele>537.02999999999997</ele>
        <time>2018-09-16T12:36:42Z</time>
      </trkpt>
      <trkpt lat="48.166485959663987" lon="10.523397959768772">
        <ele>542.79999999999995</ele>
        <time>2018-09-16T12:36:49Z</time>
      </trkpt>
      <trkpt lat="48.16612696275115" lon="10.526648964732885">
        <ele>550.00999999999999</ele>
        <time>2018-09-16T12:36:59Z</time>
      </trkpt>
      <trkpt lat="48.16608002409339" lon="10.527069987729192">
        <ele>550.49000000000001</ele>
        <time>2018-09-16T12:37:01Z</time>
      </trkpt>
      <trkpt lat="48.16597399301827" lon="10.527227986603975">
        <ele>550.49000000000001</ele>
        <time>2018-09-16T12:37:02Z</time>
      </trkpt>
      <trkpt lat="48.165882965549827" lon="10.527366036549211">
        <ele>550.97000000000003</ele>
        <time>2018-09-16T12:37:03Z</time>
      </trkpt>
      <trkpt lat="48.165778024122119" lon="10.527485981583595">
        <ele>551.45000000000005</ele>
        <time>2018-09-16T12:37:04Z</time>
      </trkpt>
      <trkpt lat="48.165647014975548" lon="10.527552030980587">
        <ele>551.92999999999995</ele>
        <time>2018-09-16T12:37:05Z</time>
      </trkpt>
      <trkpt lat="48.165495973080397" lon="10.527584971860051">
        <ele>552.40999999999997</ele>
        <time>2018-09-16T12:37:06Z</time>
      </trkpt>
      <trkpt lat="48.165334034711123" lon="10.527621014043689">
        <ele>552.89999999999998</ele>
        <time>2018-09-16T12:37:07Z</time>
      </trkpt>
      <trkpt lat="48.165162038058043" lon="10.527657978236675">
        <ele>553.38</ele>
        <time>2018-09-16T12:37:08Z</time>
      </trkpt>
      <trkpt lat="48.164978977292776" lon="10.527708018198609">
        <ele>554.34000000000003</ele>
        <time>2018-09-16T12:37:09Z</time>
      </trkpt>
      <trkpt lat="48.164800023660064" lon="10.527812959626317">
        <ele>554.82000000000005</ele>
        <time>2018-09-16T12:37:10Z</time>
      </trkpt>
      <trkpt lat="48.164625009521842" lon="10.527936005964875">
        <ele>555.29999999999995</ele>
        <time>2018-09-16T12:37:11Z</time>
      </trkpt>
      <trkpt lat="48.164456030353904" lon="10.528088975697756">
        <ele>555.77999999999997</ele>
        <time>2018-09-16T12:37:12Z</time>
      </trkpt>
      <trkpt lat="48.164315968751907" lon="10.528292991220951">
        <ele>556.74000000000001</ele>
        <time>2018-09-16T12:37:13Z</time>
      </trkpt>
      <trkpt lat="48.164173979312181" lon="10.528502035886049">
        <ele>557.22000000000003</ele>
        <time>2018-09-16T12:37:14Z</time>
      </trkpt>
      <trkpt lat="48.164071971550584" lon="10.528775034472346">
        <ele>557.70000000000005</ele>
        <time>2018-09-16T12:37:15Z</time>
      </trkpt>
      <trkpt lat="48.163969963788986" lon="10.529051972553134">
        <ele>558.65999999999997</ele>
        <time>2018-09-16T12:37:16Z</time>
      </trkpt>
      <trkpt lat="48.16386996768415" lon="10.52932295948267">
        <ele>559.13999999999999</ele>
        <time>2018-09-16T12:37:17Z</time>
      </trkpt>
      <trkpt lat="48.163321036845446" lon="10.53106295876205">
        <ele>562.99000000000001</ele>
        <time>2018-09-16T12:37:24Z</time>
      </trkpt>
      <trkpt lat="48.163275020197034" lon="10.531207965686917">
        <ele>563.47000000000003</ele>
        <time>2018-09-16T12:37:25Z</time>
      </trkpt>
      <trkpt lat="48.163178041577339" lon="10.531516000628471">
        <ele>563.95000000000005</ele>
        <time>2018-09-16T12:37:27Z</time>
      </trkpt>
      <trkpt lat="48.162783002480865" lon="10.53262903355062">
        <ele>565.87</ele>
        <time>2018-09-16T12:37:32Z</time>
      </trkpt>
      <trkpt lat="48.162651993334293" lon="10.532833971083164">
        <ele>566.83000000000004</ele>
        <time>2018-09-16T12:37:33Z</time>
      </trkpt>
      <trkpt lat="48.162521990016103" lon="10.533029017969966">
        <ele>567.79999999999995</ele>
        <time>2018-09-16T12:37:34Z</time>
      </trkpt>
      <trkpt lat="48.16236600279808" lon="10.533179976046085">
        <ele>569.24000000000001</ele>
        <time>2018-09-16T12:37:35Z</time>
      </trkpt>
      <trkpt lat="48.162205992266536" lon="10.533298999071121">
        <ele>570.20000000000005</ele>
        <time>2018-09-16T12:37:36Z</time>
      </trkpt>
      <trkpt lat="48.162047993391752" lon="10.533416010439396">
        <ele>571.63999999999999</ele>
        <time>2018-09-16T12:37:37Z</time>
      </trkpt>
      <trkpt lat="48.161882031708956" lon="10.533531010150909">
        <ele>573.08000000000004</ele>
        <time>2018-09-16T12:37:38Z</time>
      </trkpt>
      <trkpt lat="48.161707017570734" lon="10.533568980172276">
        <ele>575.00999999999999</ele>
        <time>2018-09-16T12:37:39Z</time>
      </trkpt>
      <trkpt lat="48.161524962633848" lon="10.533576020970941">
        <ele>576.45000000000005</ele>
        <time>2018-09-16T12:37:40Z</time>
      </trkpt>
      <trkpt lat="48.161347014829516" lon="10.533535033464432">
        <ele>577.88999999999999</ele>
        <time>2018-09-16T12:37:41Z</time>
      </trkpt>
      <trkpt lat="48.161164037883282" lon="10.533492034301162">
        <ele>579.33000000000004</ele>
        <time>2018-09-16T12:37:42Z</time>
      </trkpt>
      <trkpt lat="48.160975025966763" lon="10.533448029309511">
        <ele>580.28999999999996</ele>
        <time>2018-09-16T12:37:43Z</time>
      </trkpt>
      <trkpt lat="48.159923013299704" lon="10.533099006861448">
        <ele>587.98000000000002</ele>
        <time>2018-09-16T12:37:49Z</time>
      </trkpt>
      <trkpt lat="48.159784041345119" lon="10.533099006861448">
        <ele>588.95000000000005</ele>
        <time>2018-09-16T12:37:50Z</time>
      </trkpt>
      <trkpt lat="48.159653032198548" lon="10.533099006861448">
        <ele>589.90999999999997</ele>
        <time>2018-09-16T12:37:51Z</time>
      </trkpt>
      <trkpt lat="48.159522023051977" lon="10.533159021288157">
        <ele>590.38999999999999</ele>
        <time>2018-09-16T12:37:52Z</time>
      </trkpt>
      <trkpt lat="48.159382967278361" lon="10.533242002129555">
        <ele>590.87</ele>
        <time>2018-09-16T12:37:53Z</time>
      </trkpt>
      <trkpt lat="48.159237960353494" lon="10.533365970477462">
        <ele>591.35000000000002</ele>
        <time>2018-09-16T12:37:54Z</time>
      </trkpt>
      <trkpt lat="48.15911902114749" lon="10.533539978787303">
        <ele>591.83000000000004</ele>
        <time>2018-09-16T12:37:55Z</time>
      </trkpt>
      <trkpt lat="48.159002009779215" lon="10.533728990703821">
        <ele>592.30999999999995</ele>
        <time>2018-09-16T12:37:56Z</time>
      </trkpt>
      <trkpt lat="48.158896984532475" lon="10.53391900844872">
        <ele>592.30999999999995</ele>
        <time>2018-09-16T12:37:57Z</time>
      </trkpt>
      <trkpt lat="48.158816015347838" lon="10.534146996214986">
        <ele>592.78999999999996</ele>
        <time>2018-09-16T12:37:58Z</time>
      </trkpt>
      <trkpt lat="48.15873596817255" lon="10.53437196649611">
        <ele>592.78999999999996</ele>
        <time>2018-09-16T12:37:59Z</time>
      </trkpt>
      <trkpt lat="48.158673020079732" lon="10.534600038081408">
        <ele>592.78999999999996</ele>
        <time>2018-09-16T12:38:00Z</time>
      </trkpt>
      <trkpt lat="48.158657010644674" lon="10.53486499004066">
        <ele>593.26999999999998</ele>
        <time>2018-09-16T12:38:01Z</time>
      </trkpt>
      <trkpt lat="48.158641001209617" lon="10.535137988626957">
        <ele>593.26999999999998</ele>
        <time>2018-09-16T12:38:02Z</time>
      </trkpt>
      <trkpt lat="48.158650975674391" lon="10.53542498499155">
        <ele>593.75</ele>
        <time>2018-09-16T12:38:03Z</time>
      </trkpt>
      <trkpt lat="48.158678971230984" lon="10.535727990791202">
        <ele>593.75</ele>
        <time>2018-09-16T12:38:04Z</time>
      </trkpt>
      <trkpt lat="48.158706966787577" lon="10.536032002419233">
        <ele>594.23000000000002</ele>
        <time>2018-09-16T12:38:05Z</time>
      </trkpt>
      <trkpt lat="48.158936966210604" lon="10.537926983088255">
        <ele>599.51999999999998</ele>
        <time>2018-09-16T12:38:12Z</time>
      </trkpt>
      <trkpt lat="48.158993041142821" lon="10.538156982511282">
        <ele>600.96000000000004</ele>
        <time>2018-09-16T12:38:13Z</time>
      </trkpt>
      <trkpt lat="48.159067975357175" lon="10.538381030783057">
        <ele>601.91999999999996</ele>
        <time>2018-09-16T12:38:14Z</time>
      </trkpt>
      <trkpt lat="48.159160008653998" lon="10.538595020771027">
        <ele>602.88</ele>
        <time>2018-09-16T12:38:15Z</time>
      </trkpt>
      <trkpt lat="48.159251036122441" lon="10.538808004930615">
        <ele>604.33000000000004</ele>
        <time>2018-09-16T12:38:16Z</time>
      </trkpt>
      <trkpt lat="48.159321025013924" lon="10.539015959948301">
        <ele>605.28999999999996</ele>
        <time>2018-09-16T12:38:17Z</time>
      </trkpt>
      <trkpt lat="48.159380033612251" lon="10.539212012663484">
        <ele>606.25</ele>
        <time>2018-09-16T12:38:18Z</time>
      </trkpt>
      <trkpt lat="48.159435018897057" lon="10.539393983781338">
        <ele>607.69000000000005</ele>
        <time>2018-09-16T12:38:19Z</time>
      </trkpt>
      <trkpt lat="48.159482963383198" lon="10.539572015404701">
        <ele>609.13</ele>
        <time>2018-09-16T12:38:20Z</time>
      </trkpt>
      <trkpt lat="48.159520011395216" lon="10.539761027321219">
        <ele>610.57000000000005</ele>
        <time>2018-09-16T12:38:21Z</time>
      </trkpt>
      <trkpt lat="48.159556975588202" lon="10.539967976510525">
        <ele>612.5</ele>
        <time>2018-09-16T12:38:22Z</time>
      </trkpt>
      <trkpt lat="48.159556975588202" lon="10.540178027004004">
        <ele>613.94000000000005</ele>
        <time>2018-09-16T12:38:23Z</time>
      </trkpt>
      <trkpt lat="48.159544989466667" lon="10.540410038083792">
        <ele>614.89999999999998</ele>
        <time>2018-09-16T12:38:24Z</time>
      </trkpt>
      <trkpt lat="48.159473994746804" lon="10.540862996131182">
        <ele>617.29999999999995</ele>
        <time>2018-09-16T12:38:26Z</time>
      </trkpt>
      <trkpt lat="48.15940098837018" lon="10.541329029947519">
        <ele>619.23000000000002</ele>
        <time>2018-09-16T12:38:28Z</time>
      </trkpt>
      <trkpt lat="48.159366035833955" lon="10.541550982743502">
        <ele>619.71000000000004</ele>
        <time>2018-09-16T12:38:29Z</time>
      </trkpt>
      <trkpt lat="48.159325970336795" lon="10.541776036843657">
        <ele>620.19000000000005</ele>
        <time>2018-09-16T12:38:30Z</time>
      </trkpt>
      <trkpt lat="48.159103011712432" lon="10.542452959343791">
        <ele>619.71000000000004</ele>
        <time>2018-09-16T12:38:34Z</time>
      </trkpt>
      <trkpt lat="48.159040985628963" lon="10.542598972097039">
        <ele>619.71000000000004</ele>
        <time>2018-09-16T12:38:35Z</time>
      </trkpt>
      <trkpt lat="48.158980971202254" lon="10.542740039527416">
        <ele>619.23000000000002</ele>
        <time>2018-09-16T12:38:36Z</time>
      </trkpt>
      <trkpt lat="48.158901007845998" lon="10.542868031188846">
        <ele>619.23000000000002</ele>
        <time>2018-09-16T12:38:37Z</time>
      </trkpt>
      <trkpt lat="48.158807968720794" lon="10.54298697039485">
        <ele>618.75</ele>
        <time>2018-09-16T12:38:38Z</time>
      </trkpt>
      <trkpt lat="48.158499011769891" lon="10.543377986177802">
        <ele>617.29999999999995</ele>
        <time>2018-09-16T12:38:41Z</time>
      </trkpt>
      <trkpt lat="48.158398009836674" lon="10.543505977839231">
        <ele>616.82000000000005</ele>
        <time>2018-09-16T12:38:42Z</time>
      </trkpt>
      <trkpt lat="48.158318968489766" lon="10.543723991140723">
        <ele>615.86000000000001</ele>
        <time>2018-09-16T12:38:43Z</time>
      </trkpt>
      <trkpt lat="48.158246967941523" lon="10.543919038027525">
        <ele>614.89999999999998</ele>
        <time>2018-09-16T12:38:44Z</time>
      </trkpt>
      <trkpt lat="48.158177984878421" lon="10.544108971953392">
        <ele>613.94000000000005</ele>
        <time>2018-09-16T12:38:45Z</time>
      </trkpt>
      <trkpt lat="48.158106990158558" lon="10.544302007183433">
        <ele>613.46000000000004</ele>
        <time>2018-09-16T12:38:46Z</time>
      </trkpt>
      <trkpt lat="48.158035995438695" lon="10.544498981907964">
        <ele>612.5</ele>
        <time>2018-09-16T12:38:47Z</time>
      </trkpt>
      <trkpt lat="48.157655959948897" lon="10.546348029747605">
        <ele>600.96000000000004</ele>
        <time>2018-09-16T12:38:54Z</time>
      </trkpt>
      <trkpt lat="48.157410034909844" lon="10.548890009522438">
        <ele>594.23000000000002</ele>
        <time>2018-09-16T12:39:02Z</time>
      </trkpt>
      <trkpt lat="48.15718699246645" lon="10.55098095908761">
        <ele>589.90999999999997</ele>
        <time>2018-09-16T12:39:09Z</time>
      </trkpt>
      <trkpt lat="48.156981971114874" lon="10.553443981334567">
        <ele>581.25</ele>
        <time>2018-09-16T12:39:17Z</time>
      </trkpt>
      <trkpt lat="48.157137036323547" lon="10.555582959204912">
        <ele>575.00999999999999</ele>
        <time>2018-09-16T12:39:23Z</time>
      </trkpt>
      <trkpt lat="48.157739024609327" lon="10.558599019423127">
        <ele>578.85000000000002</ele>
        <time>2018-09-16T12:39:32Z</time>
      </trkpt>
      <trkpt lat="48.15802501514554" lon="10.56023801676929">
        <ele>577.88999999999999</ele>
        <time>2018-09-16T12:39:37Z</time>
      </trkpt>
      <trkpt lat="48.15851803869009" lon="10.561812976375222">
        <ele>573.55999999999995</ele>
        <time>2018-09-16T12:39:43Z</time>
      </trkpt>
      <trkpt lat="48.158820038661361" lon="10.563176963478327">
        <ele>566.83000000000004</ele>
        <time>2018-09-16T12:39:50Z</time>
      </trkpt>
      <trkpt lat="48.158847028389573" lon="10.563362035900354">
        <ele>565.87</ele>
        <time>2018-09-16T12:39:51Z</time>
      </trkpt>
      <trkpt lat="48.158872006461024" lon="10.563538977876306">
        <ele>564.90999999999997</ele>
        <time>2018-09-16T12:39:52Z</time>
      </trkpt>
      <trkpt lat="48.158955993130803" lon="10.564629966393113">
        <ele>558.65999999999997</ele>
        <time>2018-09-16T12:39:59Z</time>
      </trkpt>
      <trkpt lat="48.158955993130803" lon="10.564700039103627">
        <ele>558.17999999999995</ele>
        <time>2018-09-16T12:40:00Z</time>
      </trkpt>
      <trkpt lat="48.158955993130803" lon="10.564746977761388">
        <ele>557.70000000000005</ele>
        <time>2018-09-16T12:40:01Z</time>
      </trkpt>
      <trkpt lat="48.158955993130803" lon="10.564783019945025">
        <ele>557.22000000000003</ele>
        <time>2018-09-16T12:40:02Z</time>
      </trkpt>
      <trkpt lat="48.158889021724463" lon="10.564862983301282">
        <ele>556.25999999999999</ele>
        <time>2018-09-16T12:40:07Z</time>
      </trkpt>
      <trkpt lat="48.158849040046334" lon="10.564867006614804">
        <ele>555.77999999999997</ele>
        <time>2018-09-16T12:40:08Z</time>
      </trkpt>
      <trkpt lat="48.158785002306104" lon="10.564873041585088">
        <ele>555.77999999999997</ele>
        <time>2018-09-16T12:40:09Z</time>
      </trkpt>
      <trkpt lat="48.158372025936842" lon="10.564976977184415">
        <ele>556.25999999999999</ele>
        <time>2018-09-16T12:40:13Z</time>
      </trkpt>
      <trkpt lat="48.15824001096189" lon="10.565053001046181">
        <ele>557.22000000000003</ele>
        <time>2018-09-16T12:40:14Z</time>
      </trkpt>
      <trkpt lat="48.158098021522164" lon="10.565135981887579">
        <ele>558.17999999999995</ele>
        <time>2018-09-16T12:40:15Z</time>
      </trkpt>
      <trkpt lat="48.156662033870816" lon="10.566211966797709">
        <ele>565.87</ele>
        <time>2018-09-16T12:40:24Z</time>
      </trkpt>
      <trkpt lat="48.15475900657475" lon="10.567789021879435">
        <ele>572.12</ele>
        <time>2018-09-16T12:40:35Z</time>
      </trkpt>
      <trkpt lat="48.153178011998534" lon="10.569484010338783">
        <ele>572.60000000000002</ele>
        <time>2018-09-16T12:40:45Z</time>
      </trkpt>
      <trkpt lat="48.152018962427974" lon="10.57111001573503">
        <ele>570.67999999999995</ele>
        <time>2018-09-16T12:40:54Z</time>
      </trkpt>
      <trkpt lat="48.150883968919516" lon="10.57214098982513">
        <ele>570.20000000000005</ele>
        <time>2018-09-16T12:41:01Z</time>
      </trkpt>
      <trkpt lat="48.149013966321945" lon="10.573260979726911">
        <ele>575.00999999999999</ele>
        <time>2018-09-16T12:41:10Z</time>
      </trkpt>
      <trkpt lat="48.147271033376455" lon="10.573863973841071">
        <ele>580.28999999999996</ele>
        <time>2018-09-16T12:41:18Z</time>
      </trkpt>
      <trkpt lat="48.146180966868997" lon="10.57418298907578">
        <ele>583.17999999999995</ele>
        <time>2018-09-16T12:41:25Z</time>
      </trkpt>
      <trkpt lat="48.145548971369863" lon="10.574594037607312">
        <ele>583.17999999999995</ele>
        <time>2018-09-16T12:41:30Z</time>
      </trkpt>
      <trkpt lat="48.145459033548832" lon="10.574743989855051">
        <ele>582.70000000000005</ele>
        <time>2018-09-16T12:41:31Z</time>
      </trkpt>
      <trkpt lat="48.145373035222292" lon="10.574888996779919">
        <ele>582.70000000000005</ele>
        <time>2018-09-16T12:41:32Z</time>
      </trkpt>
      <trkpt lat="48.145290976390243" lon="10.575026962906122">
        <ele>582.22000000000003</ele>
        <time>2018-09-16T12:41:33Z</time>
      </trkpt>
      <trkpt lat="48.145201960578561" lon="10.575178004801273">
        <ele>582.22000000000003</ele>
        <time>2018-09-16T12:41:34Z</time>
      </trkpt>
      <trkpt lat="48.145172037184238" lon="10.575328040868044">
        <ele>581.73000000000002</ele>
        <time>2018-09-16T12:41:35Z</time>
      </trkpt>
      <trkpt lat="48.145137000828981" lon="10.575501965358853">
        <ele>581.25</ele>
        <time>2018-09-16T12:41:36Z</time>
      </trkpt>
      <trkpt lat="48.145120991393924" lon="10.57568502612412">
        <ele>580.76999999999998</ele>
        <time>2018-09-16T12:41:37Z</time>
      </trkpt>
      <trkpt lat="48.145132977515459" lon="10.575874960049987">
        <ele>580.76999999999998</ele>
        <time>2018-09-16T12:41:38Z</time>
      </trkpt>
      <trkpt lat="48.145162984728813" lon="10.576060032472014">
        <ele>580.76999999999998</ele>
        <time>2018-09-16T12:41:39Z</time>
      </trkpt>
      <trkpt lat="48.145204978063703" lon="10.576237980276346">
        <ele>581.25</ele>
        <time>2018-09-16T12:41:40Z</time>
      </trkpt>
      <trkpt lat="48.145247977226973" lon="10.576419029384851">
        <ele>581.73000000000002</ele>
        <time>2018-09-16T12:41:41Z</time>
      </trkpt>
      <trkpt lat="48.145575039088726" lon="10.577678997069597">
        <ele>587.98000000000002</ele>
        <time>2018-09-16T12:41:48Z</time>
      </trkpt>
      <trkpt lat="48.145592976361513" lon="10.577869014814496">
        <ele>588.95000000000005</ele>
        <time>2018-09-16T12:41:49Z</time>
      </trkpt>
      <trkpt lat="48.145609991624951" lon="10.578058026731014">
        <ele>590.38999999999999</ele>
        <time>2018-09-16T12:41:50Z</time>
      </trkpt>
      <trkpt lat="48.14562700688839" lon="10.578247038647532">
        <ele>591.35000000000002</ele>
        <time>2018-09-16T12:41:51Z</time>
      </trkpt>
      <trkpt lat="48.145603034645319" lon="10.57843797840178">
        <ele>592.30999999999995</ele>
        <time>2018-09-16T12:41:52Z</time>
      </trkpt>
      <trkpt lat="48.145569004118443" lon="10.578621039167047">
        <ele>593.75</ele>
        <time>2018-09-16T12:41:53Z</time>
      </trkpt>
      <trkpt lat="48.145535979419947" lon="10.578804016113281">
        <ele>594.71000000000004</ele>
        <time>2018-09-16T12:41:54Z</time>
      </trkpt>
      <trkpt lat="48.145472025498748" lon="10.578964026644826">
        <ele>596.14999999999998</ele>
        <time>2018-09-16T12:41:55Z</time>
      </trkpt>
      <trkpt lat="48.145397007465363" lon="10.579104004427791">
        <ele>597.12</ele>
        <time>2018-09-16T12:41:56Z</time>
      </trkpt>
      <trkpt lat="48.145303968340158" lon="10.579227972775698">
        <ele>598.08000000000004</ele>
        <time>2018-09-16T12:41:57Z</time>
      </trkpt>
      <trkpt lat="48.14519701525569" lon="10.579326041042805">
        <ele>599.03999999999996</ele>
        <time>2018-09-16T12:41:58Z</time>
      </trkpt>
      <trkpt lat="48.145075980573893" lon="10.579398963600397">
        <ele>600</ele>
        <time>2018-09-16T12:41:59Z</time>
      </trkpt>
      <trkpt lat="48.14494295977056" lon="10.579426037147641">
        <ele>600.96000000000004</ele>
        <time>2018-09-16T12:42:00Z</time>
      </trkpt>
      <trkpt lat="48.144798036664724" lon="10.579426037147641">
        <ele>601.91999999999996</ele>
        <time>2018-09-16T12:42:01Z</time>
      </trkpt>
      <trkpt lat="48.144645988941193" lon="10.579426037147641">
        <ele>602.88</ele>
        <time>2018-09-16T12:42:02Z</time>
      </trkpt>
      <trkpt lat="48.144484972581267" lon="10.579388989135623">
        <ele>603.85000000000002</ele>
        <time>2018-09-16T12:42:03Z</time>
      </trkpt>
      <trkpt lat="48.144314987584949" lon="10.57934096083045">
        <ele>604.33000000000004</ele>
        <time>2018-09-16T12:42:04Z</time>
      </trkpt>
      <trkpt lat="48.142690993845463" lon="10.578939970582724">
        <ele>609.61000000000001</ele>
        <time>2018-09-16T12:42:12Z</time>
      </trkpt>
      <trkpt lat="48.142486978322268" lon="10.578950028866529">
        <ele>610.09000000000003</ele>
        <time>2018-09-16T12:42:13Z</time>
      </trkpt>
      <trkpt lat="48.142290003597736" lon="10.578995039686561">
        <ele>610.57000000000005</ele>
        <time>2018-09-16T12:42:14Z</time>
      </trkpt>
      <trkpt lat="48.142098980024457" lon="10.579095035791397">
        <ele>611.05999999999995</ele>
        <time>2018-09-16T12:42:15Z</time>
      </trkpt>
      <trkpt lat="48.141914997249842" lon="10.579224033281207">
        <ele>611.53999999999996</ele>
        <time>2018-09-16T12:42:16Z</time>
      </trkpt>
      <trkpt lat="48.141747023910284" lon="10.57938102632761">
        <ele>612.01999999999998</ele>
        <time>2018-09-16T12:42:17Z</time>
      </trkpt>
      <trkpt lat="48.141592964529991" lon="10.579584036022425">
        <ele>612.5</ele>
        <time>2018-09-16T12:42:18Z</time>
      </trkpt>
      <trkpt lat="48.141434965655208" lon="10.579789979383349">
        <ele>613.46000000000004</ele>
        <time>2018-09-16T12:42:19Z</time>
      </trkpt>
      <trkpt lat="48.140974966809154" lon="10.580391967669129">
        <ele>615.86000000000001</ele>
        <time>2018-09-16T12:42:22Z</time>
      </trkpt>
      <trkpt lat="48.140813028439879" lon="10.580505961552262">
        <ele>617.29999999999995</ele>
        <time>2018-09-16T12:42:23Z</time>
      </trkpt>
      <trkpt lat="48.140661986544728" lon="10.580612998455763">
        <ele>618.25999999999999</ele>
        <time>2018-09-16T12:42:24Z</time>
      </trkpt>
      <trkpt lat="48.140512034296989" lon="10.580666977912188">
        <ele>619.71000000000004</ele>
        <time>2018-09-16T12:42:25Z</time>
      </trkpt>
      <trkpt lat="48.140356969088316" lon="10.580694973468781">
        <ele>620.66999999999996</ele>
        <time>2018-09-16T12:42:26Z</time>
      </trkpt>
      <trkpt lat="48.140211962163448" lon="10.580721963196993">
        <ele>622.11000000000001</ele>
        <time>2018-09-16T12:42:27Z</time>
      </trkpt>
      <trkpt lat="48.140083970502019" lon="10.580725986510515">
        <ele>623.07000000000005</ele>
        <time>2018-09-16T12:42:28Z</time>
      </trkpt>
      <trkpt lat="48.139511989429593" lon="10.58062800206244">
        <ele>628.36000000000001</ele>
        <time>2018-09-16T12:42:34Z</time>
      </trkpt>
      <trkpt lat="48.138136016204953" lon="10.580721963196993">
        <ele>633.64999999999998</ele>
        <time>2018-09-16T12:42:49Z</time>
      </trkpt>
      <trkpt lat="48.138042977079749" lon="10.580735960975289">
        <ele>633.64999999999998</ele>
        <time>2018-09-16T12:42:50Z</time>
      </trkpt>
      <trkpt lat="48.137427996844053" lon="10.581019017845392">
        <ele>634.13</ele>
        <time>2018-09-16T12:42:59Z</time>
      </trkpt>
      <trkpt lat="48.1373789627105" lon="10.581046007573605">
        <ele>634.61000000000001</ele>
        <time>2018-09-16T12:43:00Z</time>
      </trkpt>
      <trkpt lat="48.137281984090805" lon="10.581098981201649">
        <ele>634.13</ele>
        <time>2018-09-16T12:43:08Z</time>
      </trkpt>
      <trkpt lat="48.137281984090805" lon="10.581098981201649">
        <ele>634.13</ele>
        <time>2018-09-16T12:44:01Z</time>
      </trkpt>
      <trkpt lat="48.137274021282792" lon="10.581104010343552">
        <ele>634.13</ele>
        <time>2018-09-16T12:44:15Z</time>
      </trkpt>
      <trkpt lat="48.137214006856084" lon="10.581070985645056">
        <ele>633.64999999999998</ele>
        <time>2018-09-16T12:44:16Z</time>
      </trkpt>
      <trkpt lat="48.137180982157588" lon="10.581008037552238">
        <ele>633.64999999999998</ele>
        <time>2018-09-16T12:44:17Z</time>
      </trkpt>
      <trkpt lat="48.137137982994318" lon="10.580924972891808">
        <ele>633.64999999999998</ele>
        <time>2018-09-16T12:44:18Z</time>
      </trkpt>
      <trkpt lat="48.137086015194654" lon="10.580827994272113">
        <ele>633.64999999999998</ele>
        <time>2018-09-16T12:44:19Z</time>
      </trkpt>
      <trkpt lat="48.136530965566635" lon="10.579696018248796">
        <ele>634.61000000000001</ele>
        <time>2018-09-16T12:44:27Z</time>
      </trkpt>
      <trkpt lat="48.135866029188037" lon="10.578248966485262">
        <ele>635.09000000000003</ele>
        <time>2018-09-16T12:44:36Z</time>
      </trkpt>
      <trkpt lat="48.135796962305903" lon="10.578148970380425">
        <ele>635.57000000000005</ele>
        <time>2018-09-16T12:44:37Z</time>
      </trkpt>
      <trkpt lat="48.135715993121266" lon="10.578094990924001">
        <ele>635.57000000000005</ele>
        <time>2018-09-16T12:44:38Z</time>
      </trkpt>
      <trkpt lat="48.135621026158333" lon="10.578090967610478">
        <ele>636.04999999999995</ele>
        <time>2018-09-16T12:44:39Z</time>
      </trkpt>
      <trkpt lat="48.135523041710258" lon="10.578088033944368">
        <ele>636.04999999999995</ele>
        <time>2018-09-16T12:44:40Z</time>
      </trkpt>
      <trkpt lat="48.13542203977704" lon="10.578085016459227">
        <ele>636.52999999999997</ele>
        <time>2018-09-16T12:44:41Z</time>
      </trkpt>
      <trkpt lat="48.135316008701921" lon="10.578080993145704">
        <ele>636.52999999999997</ele>
        <time>2018-09-16T12:44:42Z</time>
      </trkpt>
      <trkpt lat="48.13520603813231" lon="10.578077975660563">
        <ele>636.52999999999997</ele>
        <time>2018-09-16T12:44:43Z</time>
      </trkpt>
      <trkpt lat="48.135095983743668" lon="10.578063977882266">
        <ele>636.52999999999997</ele>
        <time>2018-09-16T12:44:44Z</time>
      </trkpt>
      <trkpt lat="48.134986013174057" lon="10.578008992597461">
        <ele>636.52999999999997</ele>
        <time>2018-09-16T12:44:45Z</time>
      </trkpt>
      <trkpt lat="48.134875958785415" lon="10.577918970957398">
        <ele>636.04999999999995</ele>
        <time>2018-09-16T12:44:46Z</time>
      </trkpt>
      <trkpt lat="48.134759031236172" lon="10.577822998166084">
        <ele>636.04999999999995</ele>
        <time>2018-09-16T12:44:47Z</time>
      </trkpt>
      <trkpt lat="48.133591013029218" lon="10.576985981315374">
        <ele>635.09000000000003</ele>
        <time>2018-09-16T12:44:55Z</time>
      </trkpt>
      <trkpt lat="48.13342597335577" lon="10.576876010745764">
        <ele>634.61000000000001</ele>
        <time>2018-09-16T12:44:56Z</time>
      </trkpt>
      <trkpt lat="48.133262023329735" lon="10.576745001599193">
        <ele>634.61000000000001</ele>
        <time>2018-09-16T12:44:57Z</time>
      </trkpt>
      <trkpt lat="48.133120033890009" lon="10.576549032703042">
        <ele>634.61000000000001</ele>
        <time>2018-09-16T12:44:58Z</time>
      </trkpt>
      <trkpt lat="48.132657017558813" lon="10.575992977246642">
        <ele>634.61000000000001</ele>
        <time>2018-09-16T12:45:01Z</time>
      </trkpt>
      <trkpt lat="48.132489966228604" lon="10.575883006677032">
        <ele>634.61000000000001</ele>
        <time>2018-09-16T12:45:02Z</time>
      </trkpt>
      <trkpt lat="48.132311012595892" lon="10.575874038040638">
        <ele>635.09000000000003</ele>
        <time>2018-09-16T12:45:03Z</time>
      </trkpt>
      <trkpt lat="48.132128035649657" lon="10.575863979756832">
        <ele>635.09000000000003</ele>
        <time>2018-09-16T12:45:04Z</time>
      </trkpt>
      <trkpt lat="48.131937012076378" lon="10.575854005292058">
        <ele>635.09000000000003</ele>
        <time>2018-09-16T12:45:05Z</time>
      </trkpt>
      <trkpt lat="48.13054502941668" lon="10.575719978660345">
        <ele>635.57000000000005</ele>
        <time>2018-09-16T12:45:12Z</time>
      </trkpt>
      <trkpt lat="48.130361968651414" lon="10.575641021132469">
        <ele>635.57000000000005</ele>
        <time>2018-09-16T12:45:13Z</time>
      </trkpt>
      <trkpt lat="48.129784036427736" lon="10.575390988960862">
        <ele>635.57000000000005</ele>
        <time>2018-09-16T12:45:16Z</time>
      </trkpt>
      <trkpt lat="48.129591001197696" lon="10.575334997847676">
        <ele>635.09000000000003</ele>
        <time>2018-09-16T12:45:17Z</time>
      </trkpt>
      <trkpt lat="48.128015035763383" lon="10.574983041733503">
        <ele>634.61000000000001</ele>
        <time>2018-09-16T12:45:25Z</time>
      </trkpt>
      <trkpt lat="48.126960005611181" lon="10.574436960741878">
        <ele>636.04999999999995</ele>
        <time>2018-09-16T12:45:32Z</time>
      </trkpt>
      <trkpt lat="48.125644968822598" lon="10.574153987690806">
        <ele>639.88999999999999</ele>
        <time>2018-09-16T12:45:38Z</time>
      </trkpt>
      <trkpt lat="48.123814025893807" lon="10.574353979900479">
        <ele>645.17999999999995</ele>
        <time>2018-09-16T12:45:45Z</time>
      </trkpt>
      <trkpt lat="48.122848011553288" lon="10.574492029845715">
        <ele>647.10000000000002</ele>
        <time>2018-09-16T12:45:49Z</time>
      </trkpt>
      <trkpt lat="48.121485030278563" lon="10.574392033740878">
        <ele>645.17999999999995</ele>
        <time>2018-09-16T12:45:55Z</time>
      </trkpt>
      <trkpt lat="48.119720974937081" lon="10.573723996058106">
        <ele>636.52999999999997</ele>
        <time>2018-09-16T12:46:02Z</time>
      </trkpt>
      <trkpt lat="48.117555007338524" lon="10.572238974273205">
        <ele>629.79999999999995</ele>
        <time>2018-09-16T12:46:11Z</time>
      </trkpt>
      <trkpt lat="48.116603996604681" lon="10.571716027334332">
        <ele>628.36000000000001</ele>
        <time>2018-09-16T12:46:15Z</time>
      </trkpt>
      <trkpt lat="48.116370979696512" lon="10.571612007915974">
        <ele>627.88</ele>
        <time>2018-09-16T12:46:16Z</time>
      </trkpt>
      <trkpt lat="48.115732027217746" lon="10.57141100987792">
        <ele>625.47000000000003</ele>
        <time>2018-09-16T12:46:19Z</time>
      </trkpt>
      <trkpt lat="48.115524994209409" lon="10.571326017379761">
        <ele>624.99000000000001</ele>
        <time>2018-09-16T12:46:20Z</time>
      </trkpt>
      <trkpt lat="48.115309998393059" lon="10.571206994354725">
        <ele>623.54999999999995</ele>
        <time>2018-09-16T12:46:21Z</time>
      </trkpt>
      <trkpt lat="48.115103971213102" lon="10.571000967174768">
        <ele>622.59000000000003</ele>
        <time>2018-09-16T12:46:22Z</time>
      </trkpt>
      <trkpt lat="48.114892998710275" lon="10.570771973580122">
        <ele>621.14999999999998</ele>
        <time>2018-09-16T12:46:23Z</time>
      </trkpt>
      <trkpt lat="48.114694012328982" lon="10.570505009964108">
        <ele>619.71000000000004</ele>
        <time>2018-09-16T12:46:24Z</time>
      </trkpt>
      <trkpt lat="48.114117002114654" lon="10.569737982004881">
        <ele>617.29999999999995</ele>
        <time>2018-09-16T12:46:27Z</time>
      </trkpt>
      <trkpt lat="48.113902006298304" lon="10.569567997008562">
        <ele>617.29999999999995</ele>
        <time>2018-09-16T12:46:28Z</time>
      </trkpt>
      <trkpt lat="48.113681981340051" lon="10.56939298287034">
        <ele>617.29999999999995</ele>
        <time>2018-09-16T12:46:29Z</time>
      </trkpt>
      <trkpt lat="48.113437984138727" lon="10.569267002865672">
        <ele>618.25999999999999</ele>
        <time>2018-09-16T12:46:30Z</time>
      </trkpt>
      <trkpt lat="48.113189963623881" lon="10.569163989275694">
        <ele>618.75</ele>
        <time>2018-09-16T12:46:31Z</time>
      </trkpt>
      <trkpt lat="48.111136984080076" lon="10.56853199377656">
        <ele>627.39999999999998</ele>
        <time>2018-09-16T12:46:39Z</time>
      </trkpt>
      <trkpt lat="48.109968965873122" lon="10.56821197271347">
        <ele>630.75999999999999</ele>
        <time>2018-09-16T12:46:45Z</time>
      </trkpt>
      <trkpt lat="48.109238985925913" lon="10.568053973838687">
        <ele>634.61000000000001</ele>
        <time>2018-09-16T12:46:51Z</time>
      </trkpt>
      <trkpt lat="48.108453014865518" lon="10.567407980561256">
        <ele>637.49000000000001</ele>
        <time>2018-09-16T12:46:57Z</time>
      </trkpt>
      <trkpt lat="48.108040960505605" lon="10.566970026120543">
        <ele>637.49000000000001</ele>
        <time>2018-09-16T12:47:02Z</time>
      </trkpt>
      <trkpt lat="48.107651034370065" lon="10.566166033968329">
        <ele>632.20000000000005</ele>
        <time>2018-09-16T12:47:08Z</time>
      </trkpt>
      <trkpt lat="48.107615998014808" lon="10.565979033708572">
        <ele>630.75999999999999</ele>
        <time>2018-09-16T12:47:09Z</time>
      </trkpt>
      <trkpt lat="48.107575010508299" lon="10.565759008750319">
        <ele>628.84000000000003</ele>
        <time>2018-09-16T12:47:10Z</time>
      </trkpt>
      <trkpt lat="48.107182988896966" lon="10.564055973663926">
        <ele>615.38</ele>
        <time>2018-09-16T12:47:17Z</time>
      </trkpt>
      <trkpt lat="48.106536995619535" lon="10.562008023262024">
        <ele>600</ele>
        <time>2018-09-16T12:47:26Z</time>
      </trkpt>
      <trkpt lat="48.106279000639915" lon="10.561006972566247">
        <ele>592.30999999999995</ele>
        <time>2018-09-16T12:47:30Z</time>
      </trkpt>
      <trkpt lat="48.106195013970137" lon="10.560778984799981">
        <ele>590.38999999999999</ele>
        <time>2018-09-16T12:47:31Z</time>
      </trkpt>
      <trkpt lat="48.1060950178653" lon="10.560559965670109">
        <ele>588.46000000000004</ele>
        <time>2018-09-16T12:47:32Z</time>
      </trkpt>
      <trkpt lat="48.105995021760464" lon="10.56034698151052">
        <ele>586.53999999999996</ele>
        <time>2018-09-16T12:47:33Z</time>
      </trkpt>
      <trkpt lat="48.10585898347199" lon="10.560186970978975">
        <ele>584.62</ele>
        <time>2018-09-16T12:47:34Z</time>
      </trkpt>
      <trkpt lat="48.105723029002547" lon="10.560026960447431">
        <ele>582.70000000000005</ele>
        <time>2018-09-16T12:47:35Z</time>
      </trkpt>
      <trkpt lat="48.105590008199215" lon="10.559884971007705">
        <ele>581.25</ele>
        <time>2018-09-16T12:47:36Z</time>
      </trkpt>
      <trkpt lat="48.10545003041625" lon="10.559766031801701">
        <ele>579.80999999999995</ele>
        <time>2018-09-16T12:47:37Z</time>
      </trkpt>
      <trkpt lat="48.105313992127776" lon="10.559652037918568">
        <ele>578.37</ele>
        <time>2018-09-16T12:47:38Z</time>
      </trkpt>
      <trkpt lat="48.105176026001573" lon="10.559561010450125">
        <ele>577.40999999999997</ele>
        <time>2018-09-16T12:47:39Z</time>
      </trkpt>
      <trkpt lat="48.105033030733466" lon="10.559511976316571">
        <ele>576.45000000000005</ele>
        <time>2018-09-16T12:47:40Z</time>
      </trkpt>
      <trkpt lat="48.104891963303089" lon="10.55946403183043">
        <ele>575.49000000000001</ele>
        <time>2018-09-16T12:47:41Z</time>
      </trkpt>
      <trkpt lat="48.10375495813787" lon="10.559093970805407">
        <ele>572.12</ele>
        <time>2018-09-16T12:47:50Z</time>
      </trkpt>
      <trkpt lat="48.103506015613675" lon="10.559018030762672">
        <ele>571.63999999999999</ele>
        <time>2018-09-16T12:47:53Z</time>
      </trkpt>
      <trkpt lat="48.103458993136883" lon="10.559004032984376">
        <ele>570.67999999999995</ele>
        <time>2018-09-16T12:47:54Z</time>
      </trkpt>
      <trkpt lat="48.103428985923529" lon="10.558994980528951">
        <ele>570.20000000000005</ele>
        <time>2018-09-16T12:47:55Z</time>
      </trkpt>
      <trkpt lat="48.103409959003329" lon="10.558989029377699">
        <ele>569.24000000000001</ele>
        <time>2018-09-16T12:47:57Z</time>
      </trkpt>
      <trkpt lat="48.103384980931878" lon="10.558980982750654">
        <ele>569.24000000000001</ele>
        <time>2018-09-16T12:47:58Z</time>
      </trkpt>
      <trkpt lat="48.103361008688807" lon="10.558974025771022">
        <ele>568.75999999999999</ele>
        <time>2018-09-16T12:47:59Z</time>
      </trkpt>
      <trkpt lat="48.103328989818692" lon="10.558963967487216">
        <ele>568.27999999999997</ele>
        <time>2018-09-16T12:48:00Z</time>
      </trkpt>
      <trkpt lat="48.103305017575622" lon="10.558957010507584">
        <ele>567.79999999999995</ele>
        <time>2018-09-16T12:48:01Z</time>
      </trkpt>
      <trkpt lat="48.103290013968945" lon="10.558952987194061">
        <ele>567.79999999999995</ele>
        <time>2018-09-16T12:48:10Z</time>
      </trkpt>
      <trkpt lat="48.103231005370617" lon="10.558933960273862">
        <ele>567.32000000000005</ele>
        <time>2018-09-16T12:48:11Z</time>
      </trkpt>
      <trkpt lat="48.103206027299166" lon="10.558967990800738">
        <ele>566.83000000000004</ele>
        <time>2018-09-16T12:48:12Z</time>
      </trkpt>
      <trkpt lat="48.103150958195329" lon="10.559045020490885">
        <ele>566.83000000000004</ele>
        <time>2018-09-16T12:48:13Z</time>
      </trkpt>
      <trkpt lat="48.10308801010251" lon="10.559131018817425">
        <ele>566.35000000000002</ele>
        <time>2018-09-16T12:48:14Z</time>
      </trkpt>
      <trkpt lat="48.102951971814036" lon="10.559321036562324">
        <ele>565.38999999999999</ele>
        <time>2018-09-16T12:48:16Z</time>
      </trkpt>
      <trkpt lat="48.102893969044089" lon="10.559451961889863">
        <ele>564.90999999999997</ele>
        <time>2018-09-16T12:48:17Z</time>
      </trkpt>
      <trkpt lat="48.102837977930903" lon="10.559581965208054">
        <ele>564.42999999999995</ele>
        <time>2018-09-16T12:48:18Z</time>
      </trkpt>
      <trkpt lat="48.102782992646098" lon="10.559708029031754">
        <ele>564.42999999999995</ele>
        <time>2018-09-16T12:48:19Z</time>
      </trkpt>
      <trkpt lat="48.102731024846435" lon="10.559837026521564">
        <ele>563.95000000000005</ele>
        <time>2018-09-16T12:48:20Z</time>
      </trkpt>
      <trkpt lat="48.102532960474491" lon="10.560558037832379">
        <ele>563.47000000000003</ele>
        <time>2018-09-16T12:48:25Z</time>
      </trkpt>
      <trkpt lat="48.102400023490191" lon="10.561665035784245">
        <ele>564.42999999999995</ele>
        <time>2018-09-16T12:48:32Z</time>
      </trkpt>
      <trkpt lat="48.102362975478172" lon="10.562005005776882">
        <ele>564.90999999999997</ele>
        <time>2018-09-16T12:48:34Z</time>
      </trkpt>
      <trkpt lat="48.102334979921579" lon="10.562183037400246">
        <ele>564.90999999999997</ele>
        <time>2018-09-16T12:48:35Z</time>
      </trkpt>
      <trkpt lat="48.102300027385354" lon="10.5623459815979">
        <ele>564.42999999999995</ele>
        <time>2018-09-16T12:48:36Z</time>
      </trkpt>
      <trkpt lat="48.102244958281517" lon="10.562500040978193">
        <ele>563.95000000000005</ele>
        <time>2018-09-16T12:48:37Z</time>
      </trkpt>
      <trkpt lat="48.102178992703557" lon="10.562642030417919">
        <ele>563.95000000000005</ele>
        <time>2018-09-16T12:48:38Z</time>
      </trkpt>
      <trkpt lat="48.102115038782358" lon="10.562779996544123">
        <ele>563.47000000000003</ele>
        <time>2018-09-16T12:48:39Z</time>
      </trkpt>
      <trkpt lat="48.102052006870508" lon="10.562915029004216">
        <ele>562.99000000000001</ele>
        <time>2018-09-16T12:48:40Z</time>
      </trkpt>
      <trkpt lat="48.101796023547649" lon="10.563464965671301">
        <ele>562.99000000000001</ele>
        <time>2018-09-16T12:48:44Z</time>
      </trkpt>
      <trkpt lat="48.101729974150658" lon="10.563607038930058">
        <ele>562.99000000000001</ele>
        <time>2018-09-16T12:48:45Z</time>
      </trkpt>
      <trkpt lat="48.101557977497578" lon="10.564059996977448">
        <ele>564.42999999999995</ele>
        <time>2018-09-16T12:48:48Z</time>
      </trkpt>
      <trkpt lat="48.101525036618114" lon="10.564222019165754">
        <ele>564.90999999999997</ele>
        <time>2018-09-16T12:48:49Z</time>
      </trkpt>
      <trkpt lat="48.10123804025352" lon="10.565998982638121">
        <ele>566.35000000000002</ele>
        <time>2018-09-16T12:48:59Z</time>
      </trkpt>
      <trkpt lat="48.100907038897276" lon="10.567378979176283">
        <ele>567.32000000000005</ele>
        <time>2018-09-16T12:49:07Z</time>
      </trkpt>
      <trkpt lat="48.100246964022517" lon="10.569887012243271">
        <ele>570.67999999999995</ele>
        <time>2018-09-16T12:49:21Z</time>
      </trkpt>
      <trkpt lat="48.100191978737712" lon="10.570084992796183">
        <ele>570.67999999999995</ele>
        <time>2018-09-16T12:49:22Z</time>
      </trkpt>
      <trkpt lat="48.100127018988132" lon="10.57025003246963">
        <ele>570.20000000000005</ele>
        <time>2018-09-16T12:49:23Z</time>
      </trkpt>
      <trkpt lat="48.100034985691309" lon="10.57040199637413">
        <ele>570.20000000000005</ele>
        <time>2018-09-16T12:49:24Z</time>
      </trkpt>
      <trkpt lat="48.099639024585485" lon="10.5707230232656">
        <ele>570.20000000000005</ele>
        <time>2018-09-16T12:49:27Z</time>
      </trkpt>
      <trkpt lat="48.099525030702353" lon="10.570927038788795">
        <ele>570.20000000000005</ele>
        <time>2018-09-16T12:49:28Z</time>
      </trkpt>
      <trkpt lat="48.09881198219955" lon="10.572375012561679">
        <ele>571.15999999999997</ele>
        <time>2018-09-16T12:49:34Z</time>
      </trkpt>
      <trkpt lat="48.098668986931443" lon="10.572590008378029">
        <ele>571.15999999999997</ele>
        <time>2018-09-16T12:49:35Z</time>
      </trkpt>
      <trkpt lat="48.098517023026943" lon="10.572813972830772">
        <ele>571.15999999999997</ele>
        <time>2018-09-16T12:49:36Z</time>
      </trkpt>
      <trkpt lat="48.09818702749908" lon="10.57325997389853">
        <ele>570.67999999999995</ele>
        <time>2018-09-16T12:49:38Z</time>
      </trkpt>
      <trkpt lat="48.098044032230973" lon="10.573526015505195">
        <ele>570.67999999999995</ele>
        <time>2018-09-16T12:49:39Z</time>
      </trkpt>
      <trkpt lat="48.09790899977088" lon="10.573814017698169">
        <ele>570.67999999999995</ele>
        <time>2018-09-16T12:49:40Z</time>
      </trkpt>
      <trkpt lat="48.096953965723515" lon="10.576536040753126">
        <ele>570.67999999999995</ele>
        <time>2018-09-16T12:49:48Z</time>
      </trkpt>
      <trkpt lat="48.096323981881142" lon="10.579035021364689">
        <ele>572.60000000000002</ele>
        <time>2018-09-16T12:49:55Z</time>
      </trkpt>
      <trkpt lat="48.096020976081491" lon="10.580137996003032">
        <ele>573.55999999999995</ele>
        <time>2018-09-16T12:49:59Z</time>
      </trkpt>
      <trkpt lat="48.095909999683499" lon="10.580379981547594">
        <ele>573.55999999999995</ele>
        <time>2018-09-16T12:50:00Z</time>
      </trkpt>
      <trkpt lat="48.095770021900535" lon="10.580601012334228">
        <ele>573.55999999999995</ele>
        <time>2018-09-16T12:50:01Z</time>
      </trkpt>
      <trkpt lat="48.095624009147286" lon="10.580834029242396">
        <ele>573.55999999999995</ele>
        <time>2018-09-16T12:50:02Z</time>
      </trkpt>
      <trkpt lat="48.095440026372671" lon="10.581019017845392">
        <ele>573.55999999999995</ele>
        <time>2018-09-16T12:50:03Z</time>
      </trkpt>
      <trkpt lat="48.095239028334618" lon="10.581195959821343">
        <ele>573.55999999999995</ele>
        <time>2018-09-16T12:50:04Z</time>
      </trkpt>
      <trkpt lat="48.094120966270566" lon="10.582246966660023">
        <ele>574.52999999999997</ele>
        <time>2018-09-16T12:50:10Z</time>
      </trkpt>
      <trkpt lat="48.094012001529336" lon="10.582448970526457">
        <ele>575.49000000000001</ele>
        <time>2018-09-16T12:50:11Z</time>
      </trkpt>
      <trkpt lat="48.093899013474584" lon="10.582665977999568">
        <ele>575.97000000000003</ele>
        <time>2018-09-16T12:50:12Z</time>
      </trkpt>
      <trkpt lat="48.093797005712986" lon="10.582911986857653">
        <ele>576.45000000000005</ele>
        <time>2018-09-16T12:50:13Z</time>
      </trkpt>
      <trkpt lat="48.092974992468953" lon="10.585764013230801">
        <ele>577.88999999999999</ele>
        <time>2018-09-16T12:50:22Z</time>
      </trkpt>
      <trkpt lat="48.092209976166487" lon="10.588789964094758">
        <ele>579.80999999999995</ele>
        <time>2018-09-16T12:50:31Z</time>
      </trkpt>
      <trkpt lat="48.091324009001255" lon="10.592919979244471">
        <ele>579.80999999999995</ele>
        <time>2018-09-16T12:50:42Z</time>
      </trkpt>
      <trkpt lat="48.091024020686746" lon="10.595094999298453">
        <ele>579.80999999999995</ele>
        <time>2018-09-16T12:50:48Z</time>
      </trkpt>
      <trkpt lat="48.090608026832342" lon="10.598606010898948">
        <ele>580.76999999999998</ele>
        <time>2018-09-16T12:50:58Z</time>
      </trkpt>
      <trkpt lat="48.090528985485435" lon="10.598818995058537">
        <ele>580.76999999999998</ele>
        <time>2018-09-16T12:50:59Z</time>
      </trkpt>
      <trkpt lat="48.090438041836023" lon="10.599028039723635">
        <ele>581.25</ele>
        <time>2018-09-16T12:51:00Z</time>
      </trkpt>
      <trkpt lat="48.090294040739536" lon="10.599213028326631">
        <ele>581.25</ele>
        <time>2018-09-16T12:51:01Z</time>
      </trkpt>
      <trkpt lat="48.090139981359243" lon="10.599410003051162">
        <ele>581.25</ele>
        <time>2018-09-16T12:51:02Z</time>
      </trkpt>
      <trkpt lat="48.088845983147621" lon="10.600843979045749">
        <ele>582.70000000000005</ele>
        <time>2018-09-16T12:51:09Z</time>
      </trkpt>
      <trkpt lat="48.088454967364669" lon="10.601217979565263">
        <ele>583.17999999999995</ele>
        <time>2018-09-16T12:51:11Z</time>
      </trkpt>
      <trkpt lat="48.087042029947042" lon="10.603272970765829">
        <ele>581.73000000000002</ele>
        <time>2018-09-16T12:51:19Z</time>
      </trkpt>
      <trkpt lat="48.085568994283676" lon="10.606028018519282">
        <ele>581.73000000000002</ele>
        <time>2018-09-16T12:51:28Z</time>
      </trkpt>
      <trkpt lat="48.084494015201926" lon="10.608232961967587">
        <ele>581.73000000000002</ele>
        <time>2018-09-16T12:51:36Z</time>
      </trkpt>
      <trkpt lat="48.084379015490413" lon="10.608403030782938">
        <ele>582.22000000000003</ele>
        <time>2018-09-16T12:51:37Z</time>
      </trkpt>
      <trkpt lat="48.084251023828983" lon="10.608514007180929">
        <ele>582.22000000000003</ele>
        <time>2018-09-16T12:51:38Z</time>
      </trkpt>
      <trkpt lat="48.084082966670394" lon="10.608591036871076">
        <ele>582.22000000000003</ele>
        <time>2018-09-16T12:51:39Z</time>
      </trkpt>
      <trkpt lat="48.08390200138092" lon="10.608675023540854">
        <ele>582.22000000000003</ele>
        <time>2018-09-16T12:51:40Z</time>
      </trkpt>
      <trkpt lat="48.08370603248477" lon="10.608764039352536">
        <ele>582.70000000000005</ele>
        <time>2018-09-16T12:51:41Z</time>
      </trkpt>
      <trkpt lat="48.081894032657146" lon="10.609643971547484">
        <ele>583.65999999999997</ele>
        <time>2018-09-16T12:51:49Z</time>
      </trkpt>
      <trkpt lat="48.07917301543057" lon="10.611164029687643">
        <ele>584.62</ele>
        <time>2018-09-16T12:52:00Z</time>
      </trkpt>
      <trkpt lat="48.078711004927754" lon="10.611346000805497">
        <ele>585.10000000000002</ele>
        <time>2018-09-16T12:52:02Z</time>
      </trkpt>
      <trkpt lat="48.078491985797882" lon="10.611381959170103">
        <ele>585.10000000000002</ele>
        <time>2018-09-16T12:52:03Z</time>
      </trkpt>
      <trkpt lat="48.078268021345139" lon="10.61139302328229">
        <ele>585.10000000000002</ele>
        <time>2018-09-16T12:52:04Z</time>
      </trkpt>
      <trkpt lat="48.077829983085394" lon="10.611413978040218">
        <ele>585.58000000000004</ele>
        <time>2018-09-16T12:52:06Z</time>
      </trkpt>
      <trkpt lat="48.077622028067708" lon="10.611464018002152">
        <ele>585.58000000000004</ele>
        <time>2018-09-16T12:52:07Z</time>
      </trkpt>
      <trkpt lat="48.077411977574229" lon="10.611562002450228">
        <ele>585.58000000000004</ele>
        <time>2018-09-16T12:52:08Z</time>
      </trkpt>
      <trkpt lat="48.077223971486092" lon="10.611729975789785">
        <ele>586.05999999999995</ele>
        <time>2018-09-16T12:52:09Z</time>
      </trkpt>
      <trkpt lat="48.077040994539857" lon="10.611917981877923">
        <ele>586.05999999999995</ele>
        <time>2018-09-16T12:52:10Z</time>
      </trkpt>
      <trkpt lat="48.07687503285706" lon="10.612163990736008">
        <ele>586.05999999999995</ele>
        <time>2018-09-16T12:52:11Z</time>
      </trkpt>
      <trkpt lat="48.0767020303756" lon="10.612419974058867">
        <ele>586.53999999999996</ele>
        <time>2018-09-16T12:52:12Z</time>
      </trkpt>
      <trkpt lat="48.076529027894139" lon="10.612693978473544">
        <ele>586.53999999999996</ele>
        <time>2018-09-16T12:52:13Z</time>
      </trkpt>
      <trkpt lat="48.074881983920932" lon="10.615678019821644">
        <ele>587.98000000000002</ele>
        <time>2018-09-16T12:52:23Z</time>
      </trkpt>
      <trkpt lat="48.074788022786379" lon="10.616001980379224">
        <ele>588.46000000000004</ele>
        <time>2018-09-16T12:52:24Z</time>
      </trkpt>
      <trkpt lat="48.074690960347652" lon="10.616333987563848">
        <ele>588.46000000000004</ele>
        <time>2018-09-16T12:52:25Z</time>
      </trkpt>
      <trkpt lat="48.073923010379076" lon="10.618744036182761">
        <ele>588.46000000000004</ele>
        <time>2018-09-16T12:52:32Z</time>
      </trkpt>
      <trkpt lat="48.073774985969067" lon="10.619047963991761">
        <ele>587.98000000000002</ele>
        <time>2018-09-16T12:52:33Z</time>
      </trkpt>
      <trkpt lat="48.073593014851213" lon="10.619309982284904">
        <ele>587.98000000000002</ele>
        <time>2018-09-16T12:52:34Z</time>
      </trkpt>
      <trkpt lat="48.07171898894012" lon="10.622213976457715">
        <ele>589.90999999999997</ele>
        <time>2018-09-16T12:52:44Z</time>
      </trkpt>
      <trkpt lat="48.070207983255386" lon="10.625588027760386">
        <ele>589.90999999999997</ele>
        <time>2018-09-16T12:52:54Z</time>
      </trkpt>
      <trkpt lat="48.069344982504845" lon="10.627885004505515">
        <ele>590.38999999999999</ele>
        <time>2018-09-16T12:53:01Z</time>
      </trkpt>
      <trkpt lat="48.069036025553942" lon="10.628612972795963">
        <ele>590.87</ele>
        <time>2018-09-16T12:53:04Z</time>
      </trkpt>
      <trkpt lat="48.068963019177318" lon="10.628832997754216">
        <ele>590.87</ele>
        <time>2018-09-16T12:53:05Z</time>
      </trkpt>
      <trkpt lat="48.068915996700525" lon="10.629050005227327">
        <ele>591.35000000000002</ele>
        <time>2018-09-16T12:53:06Z</time>
      </trkpt>
      <trkpt lat="48.068872997537255" lon="10.629247985780239">
        <ele>591.83000000000004</ele>
        <time>2018-09-16T12:53:07Z</time>
      </trkpt>
      <trkpt lat="48.068835027515888" lon="10.629427023231983">
        <ele>591.83000000000004</ele>
        <time>2018-09-16T12:53:08Z</time>
      </trkpt>
      <trkpt lat="48.068793034180999" lon="10.629574963822961">
        <ele>592.30999999999995</ele>
        <time>2018-09-16T12:53:09Z</time>
      </trkpt>
      <trkpt lat="48.068739976733923" lon="10.629693986847997">
        <ele>592.30999999999995</ele>
        <time>2018-09-16T12:53:10Z</time>
      </trkpt>
      <trkpt lat="48.068696977570653" lon="10.629792977124453">
        <ele>592.30999999999995</ele>
        <time>2018-09-16T12:53:11Z</time>
      </trkpt>
      <trkpt lat="48.068663030862808" lon="10.629870006814599">
        <ele>592.30999999999995</ele>
        <time>2018-09-16T12:53:12Z</time>
      </trkpt>
      <trkpt lat="48.068605028092861" lon="10.63000101596117">
        <ele>592.30999999999995</ele>
        <time>2018-09-16T12:53:15Z</time>
      </trkpt>
      <trkpt lat="48.068586001172662" lon="10.630077039822936">
        <ele>592.78999999999996</ele>
        <time>2018-09-16T12:53:16Z</time>
      </trkpt>
      <trkpt lat="48.068631011992693" lon="10.6301290076226">
        <ele>592.78999999999996</ele>
        <time>2018-09-16T12:53:17Z</time>
      </trkpt>
      <trkpt lat="48.068696977570653" lon="10.630204025655985">
        <ele>592.78999999999996</ele>
        <time>2018-09-16T12:53:18Z</time>
      </trkpt>
      <trkpt lat="48.068779036402702" lon="10.630304021760821">
        <ele>592.78999999999996</ele>
        <time>2018-09-16T12:53:19Z</time>
      </trkpt>
      <trkpt lat="48.06944296695292" lon="10.631227036938071">
        <ele>592.78999999999996</ele>
        <time>2018-09-16T12:53:25Z</time>
      </trkpt>
      <trkpt lat="48.069817973300815" lon="10.631894990801811">
        <ele>593.26999999999998</ele>
        <time>2018-09-16T12:53:31Z</time>
      </trkpt>
      <trkpt lat="48.069845968857408" lon="10.631945030763745">
        <ele>593.26999999999998</ele>
        <time>2018-09-16T12:53:40Z</time>
      </trkpt>
      <trkpt lat="48.069838006049395" lon="10.632043015211821">
        <ele>593.75</ele>
        <time>2018-09-16T12:53:58Z</time>
      </trkpt>
      <trkpt lat="48.06982803158462" lon="10.632070004940033">
        <ele>593.75</ele>
        <time>2018-09-16T12:53:59Z</time>
      </trkpt>
      <trkpt lat="48.069815961644053" lon="10.632101017981768">
        <ele>593.26999999999998</ele>
        <time>2018-09-16T12:54:00Z</time>
      </trkpt>
      <trkpt lat="48.06978696025908" lon="10.632176036015153">
        <ele>592.30999999999995</ele>
        <time>2018-09-16T12:54:03Z</time>
      </trkpt>
      <trkpt lat="48.06978696025908" lon="10.632176036015153">
        <ele>591.83000000000004</ele>
        <time>2018-09-16T12:54:04Z</time>
      </trkpt>
      <trkpt lat="48.06978696025908" lon="10.632176036015153">
        <ele>590.38999999999999</ele>
        <time>2018-09-16T12:54:13Z</time>
      </trkpt>
      <trkpt lat="48.069863989949226" lon="10.631975959986448">
        <ele>589.42999999999995</ele>
        <time>2018-09-16T12:54:14Z</time>
      </trkpt>
      <trkpt lat="48.069863989949226" lon="10.631975959986448">
        <ele>588.95000000000005</ele>
        <time>2018-09-16T12:54:15Z</time>
      </trkpt>
      <trkpt lat="48.069863989949226" lon="10.631975959986448">
        <ele>588.46000000000004</ele>
        <time>2018-09-16T12:54:16Z</time>
      </trkpt>
      <trkpt lat="48.069863989949226" lon="10.631975959986448">
        <ele>587.98000000000002</ele>
        <time>2018-09-16T12:54:17Z</time>
      </trkpt>
      <trkpt lat="48.06982995942235" lon="10.631917035207152">
        <ele>587.98000000000002</ele>
        <time>2018-09-16T12:54:18Z</time>
      </trkpt>
      <trkpt lat="48.069788971915841" lon="10.631842017173767">
        <ele>587.5</ele>
        <time>2018-09-16T12:54:19Z</time>
      </trkpt>
      <trkpt lat="48.069729041308165" lon="10.631736991927028">
        <ele>587.5</ele>
        <time>2018-09-16T12:54:20Z</time>
      </trkpt>
      <trkpt lat="48.06965502910316" lon="10.631603971123695">
        <ele>587.5</ele>
        <time>2018-09-16T12:54:21Z</time>
      </trkpt>
      <trkpt lat="48.069069972261786" lon="10.630673998966813">
        <ele>588.46000000000004</ele>
        <time>2018-09-16T12:54:26Z</time>
      </trkpt>
      <trkpt lat="48.068299004808068" lon="10.629717959091067">
        <ele>589.90999999999997</ele>
        <time>2018-09-16T12:54:32Z</time>
      </trkpt>
      <trkpt lat="48.068032041192055" lon="10.629409002140164">
        <ele>590.38999999999999</ele>
        <time>2018-09-16T12:54:35Z</time>
      </trkpt>
      <trkpt lat="48.067973032593727" lon="10.629338007420301">
        <ele>590.38999999999999</ele>
        <time>2018-09-16T12:54:36Z</time>
      </trkpt>
      <trkpt lat="48.067902037873864" lon="10.629407996311784">
        <ele>590.87</ele>
        <time>2018-09-16T12:54:37Z</time>
      </trkpt>
      <trkpt lat="48.067867001518607" lon="10.629470022395253">
        <ele>590.87</ele>
        <time>2018-09-16T12:54:38Z</time>
      </trkpt>
      <trkpt lat="48.067819979041815" lon="10.629554009065032">
        <ele>591.35000000000002</ele>
        <time>2018-09-16T12:54:39Z</time>
      </trkpt>
      <trkpt lat="48.067758036777377" lon="10.629663979634643">
        <ele>591.35000000000002</ele>
        <time>2018-09-16T12:54:40Z</time>
      </trkpt>
      <trkpt lat="48.067370038479567" lon="10.630319025367498">
        <ele>590.38999999999999</ele>
        <time>2018-09-16T12:54:44Z</time>
      </trkpt>
      <trkpt lat="48.067238023504615" lon="10.630498984828591">
        <ele>590.38999999999999</ele>
        <time>2018-09-16T12:54:45Z</time>
      </trkpt>
      <trkpt lat="48.067069966346025" lon="10.630629993975163">
        <ele>590.38999999999999</ele>
        <time>2018-09-16T12:54:46Z</time>
      </trkpt>
      <trkpt lat="48.066886989399791" lon="10.630765026435256">
        <ele>590.87</ele>
        <time>2018-09-16T12:54:47Z</time>
      </trkpt>
      <trkpt lat="48.066696971654892" lon="10.63090399838984">
        <ele>590.87</ele>
        <time>2018-09-16T12:54:48Z</time>
      </trkpt>
      <trkpt lat="48.065258972346783" lon="10.6322340387851">
        <ele>591.83000000000004</ele>
        <time>2018-09-16T12:54:56Z</time>
      </trkpt>
      <trkpt lat="48.064531004056334" lon="10.633362997323275">
        <ele>592.78999999999996</ele>
        <time>2018-09-16T12:55:03Z</time>
      </trkpt>
      <trkpt lat="48.064461015164852" lon="10.63350398093462">
        <ele>592.78999999999996</ele>
        <time>2018-09-16T12:55:04Z</time>
      </trkpt>
      <trkpt lat="48.06439395993948" lon="10.633658962324262">
        <ele>592.78999999999996</ele>
        <time>2018-09-16T12:55:05Z</time>
      </trkpt>
      <trkpt lat="48.064325982704759" lon="10.633817967027426">
        <ele>592.78999999999996</ele>
        <time>2018-09-16T12:55:06Z</time>
      </trkpt>
      <trkpt lat="48.064280971884727" lon="10.63399801030755">
        <ele>592.78999999999996</ele>
        <time>2018-09-16T12:55:07Z</time>
      </trkpt>
      <trkpt lat="48.064245013520122" lon="10.634185010567307">
        <ele>592.78999999999996</ele>
        <time>2018-09-16T12:55:08Z</time>
      </trkpt>
      <trkpt lat="48.06400696747005" lon="10.635370966047049">
        <ele>594.23000000000002</ele>
        <time>2018-09-16T12:55:16Z</time>
      </trkpt>
      <trkpt lat="48.063666997477412" lon="10.636255005374551">
        <ele>595.19000000000005</ele>
        <time>2018-09-16T12:55:25Z</time>
      </trkpt>
      <trkpt lat="48.063605977222323" lon="10.636476958170533">
        <ele>594.71000000000004</ele>
        <time>2018-09-16T12:55:27Z</time>
      </trkpt>
      <trkpt lat="48.063560966402292" lon="10.636684997007251">
        <ele>592.78999999999996</ele>
        <time>2018-09-16T12:55:29Z</time>
      </trkpt>
      <trkpt lat="48.063539005815983" lon="10.63678901642561">
        <ele>591.83000000000004</ele>
        <time>2018-09-16T12:55:30Z</time>
      </trkpt>
      <trkpt lat="48.06340497918427" lon="10.637790989130735">
        <ele>589.42999999999995</ele>
        <time>2018-09-16T12:55:40Z</time>
      </trkpt>
      <trkpt lat="48.063285034149885" lon="10.638660024851561">
        <ele>588.95000000000005</ele>
        <time>2018-09-16T12:55:46Z</time>
      </trkpt>
      <trkpt lat="48.063266007229686" lon="10.638800002634525">
        <ele>588.95000000000005</ele>
        <time>2018-09-16T12:55:47Z</time>
      </trkpt>
      <trkpt lat="48.063246980309486" lon="10.638940986245871">
        <ele>588.95000000000005</ele>
        <time>2018-09-16T12:55:48Z</time>
      </trkpt>
      <trkpt lat="48.063123011961579" lon="10.639839023351669">
        <ele>588.46000000000004</ele>
        <time>2018-09-16T12:55:55Z</time>
      </trkpt>
      <trkpt lat="48.063093004748225" lon="10.640051001682878">
        <ele>589.90999999999997</ele>
        <time>2018-09-16T12:56:01Z</time>
      </trkpt>
      <trkpt lat="48.063079006969929" lon="10.640155021101236">
        <ele>591.83000000000004</ele>
        <time>2018-09-16T12:56:10Z</time>
      </trkpt>
      <trkpt lat="48.063072971999645" lon="10.640200031921268">
        <ele>592.30999999999995</ele>
        <time>2018-09-16T12:56:23Z</time>
      </trkpt>
      <trkpt lat="48.06310398504138" lon="10.640301033854485">
        <ele>592.30999999999995</ele>
        <time>2018-09-16T12:56:24Z</time>
      </trkpt>
      <trkpt lat="48.063155030831695" lon="10.640325006097555">
        <ele>592.30999999999995</ele>
        <time>2018-09-16T12:56:25Z</time>
      </trkpt>
      <trkpt lat="48.063915017992258" lon="10.640688026323915">
        <ele>592.78999999999996</ele>
        <time>2018-09-16T12:56:33Z</time>
      </trkpt>
      <trkpt lat="48.065092004835606" lon="10.641353968530893">
        <ele>590.38999999999999</ele>
        <time>2018-09-16T12:56:44Z</time>
      </trkpt>
      <trkpt lat="48.065384030342102" lon="10.641481960192323">
        <ele>588.95000000000005</ele>
        <time>2018-09-16T12:56:47Z</time>
      </trkpt>
      <trkpt lat="48.065484026446939" lon="10.641499981284142">
        <ele>588.95000000000005</ele>
        <time>2018-09-16T12:56:48Z</time>
      </trkpt>
      <trkpt lat="48.06561503559351" lon="10.641524959355593">
        <ele>589.42999999999995</ele>
        <time>2018-09-16T12:56:49Z</time>
      </trkpt>
      <trkpt lat="48.06580999866128" lon="10.641508027911186">
        <ele>589.42999999999995</ele>
        <time>2018-09-16T12:56:51Z</time>
      </trkpt>
      <trkpt lat="48.065918041393161" lon="10.641498975455761">
        <ele>589.90999999999997</ele>
        <time>2018-09-16T12:56:52Z</time>
      </trkpt>
      <trkpt lat="48.066028011962771" lon="10.641489000990987">
        <ele>589.90999999999997</ele>
        <time>2018-09-16T12:56:53Z</time>
      </trkpt>
      <trkpt lat="48.066138988360763" lon="10.641499981284142">
        <ele>589.90999999999997</ele>
        <time>2018-09-16T12:56:54Z</time>
      </trkpt>
      <trkpt lat="48.066238984465599" lon="10.641558989882469">
        <ele>589.90999999999997</ele>
        <time>2018-09-16T12:56:55Z</time>
      </trkpt>
      <trkpt lat="48.066340992227197" lon="10.641619004309177">
        <ele>590.38999999999999</ele>
        <time>2018-09-16T12:56:56Z</time>
      </trkpt>
      <trkpt lat="48.066446017473936" lon="10.641681030392647">
        <ele>590.87</ele>
        <time>2018-09-16T12:56:57Z</time>
      </trkpt>
      <trkpt lat="48.066661013290286" lon="10.641797035932541">
        <ele>591.35000000000002</ele>
        <time>2018-09-16T12:56:59Z</time>
      </trkpt>
      <trkpt lat="48.067453019320965" lon="10.642127031460404">
        <ele>591.35000000000002</ele>
        <time>2018-09-16T12:57:06Z</time>
      </trkpt>
      <trkpt lat="48.067571958526969" lon="10.642172964289784">
        <ele>591.35000000000002</ele>
        <time>2018-09-16T12:57:07Z</time>
      </trkpt>
      <trkpt lat="48.068062970414758" lon="10.642358958721161">
        <ele>591.83000000000004</ele>
        <time>2018-09-16T12:57:11Z</time>
      </trkpt>
      <trkpt lat="48.068177970126271" lon="10.64244001172483">
        <ele>591.83000000000004</ele>
        <time>2018-09-16T12:57:12Z</time>
      </trkpt>
      <trkpt lat="48.068276038393378" lon="10.642546964809299">
        <ele>591.35000000000002</ele>
        <time>2018-09-16T12:57:13Z</time>
      </trkpt>
      <trkpt lat="48.068372011184692" lon="10.642674034461379">
        <ele>591.35000000000002</ele>
        <time>2018-09-16T12:57:14Z</time>
      </trkpt>
      <trkpt lat="48.068418027833104" lon="10.64282801002264">
        <ele>591.35000000000002</ele>
        <time>2018-09-16T12:57:15Z</time>
      </trkpt>
      <trkpt lat="48.068436970934272" lon="10.642993971705437">
        <ele>590.87</ele>
        <time>2018-09-16T12:57:16Z</time>
      </trkpt>
      <trkpt lat="48.068449040874839" lon="10.643154988065362">
        <ele>590.87</ele>
        <time>2018-09-16T12:57:17Z</time>
      </trkpt>
      <trkpt lat="48.068491034209728" lon="10.643713977187872">
        <ele>590.87</ele>
        <time>2018-09-16T12:57:20Z</time>
      </trkpt>
      <trkpt lat="48.068535961210728" lon="10.64381699077785">
        <ele>590.87</ele>
        <time>2018-09-16T12:57:21Z</time>
      </trkpt>
      <trkpt lat="48.068592036142945" lon="10.64394598826766">
        <ele>590.87</ele>
        <time>2018-09-16T12:57:22Z</time>
      </trkpt>
      <trkpt lat="48.068640986457467" lon="10.644056964665651">
        <ele>591.35000000000002</ele>
        <time>2018-09-16T12:57:23Z</time>
      </trkpt>
      <trkpt lat="48.068699995055795" lon="10.644142962992191">
        <ele>590.87</ele>
        <time>2018-09-16T12:57:24Z</time>
      </trkpt>
      <trkpt lat="48.068789010867476" lon="10.644272966310382">
        <ele>590.87</ele>
        <time>2018-09-16T12:57:26Z</time>
      </trkpt>
      <trkpt lat="48.068821029737592" lon="10.644317977130413">
        <ele>590.87</ele>
        <time>2018-09-16T12:57:27Z</time>
      </trkpt>
      <trkpt lat="48.068807031959295" lon="10.644516041502357">
        <ele>590.38999999999999</ele>
        <time>2018-09-16T12:57:28Z</time>
      </trkpt>
      <trkpt lat="48.068783981725574" lon="10.644555017352104">
        <ele>589.90999999999997</ele>
        <time>2018-09-16T12:57:29Z</time>
      </trkpt>
      <trkpt lat="48.068748023360968" lon="10.644615031778812">
        <ele>589.90999999999997</ele>
        <time>2018-09-16T12:57:30Z</time>
      </trkpt>
      <trkpt lat="48.068663030862808" lon="10.644771018996835">
        <ele>590.38999999999999</ele>
        <time>2018-09-16T12:57:38Z</time>
      </trkpt>
      <trkpt lat="48.068660013377666" lon="10.644775964319706">
        <ele>590.38999999999999</ele>
        <time>2018-09-16T12:57:39Z</time>
      </trkpt>
      <trkpt lat="48.068655990064144" lon="10.64478300511837">
        <ele>590.38999999999999</ele>
        <time>2018-09-16T12:57:40Z</time>
      </trkpt>
      <trkpt lat="48.068642998114228" lon="10.644807983189821">
        <ele>589.90999999999997</ele>
        <time>2018-09-16T12:57:49Z</time>
      </trkpt>
      <trkpt lat="48.068642998114228" lon="10.644807983189821">
        <ele>589.90999999999997</ele>
        <time>2018-09-16T12:58:16Z</time>
      </trkpt>
      <trkpt lat="48.068712987005711" lon="10.642990032210946">
        <ele>550.00999999999999</ele>
        <time>2018-09-16T13:03:48Z</time>
      </trkpt>
      <trkpt lat="48.068581977859139" lon="10.645077964290977">
        <ele>614.41999999999996</ele>
        <time>2018-09-16T13:04:21Z</time>
      </trkpt>
      <trkpt lat="48.068516012281179" lon="10.645094979554415">
        <ele>607.21000000000004</ele>
        <time>2018-09-16T13:04:57Z</time>
      </trkpt>
      <trkpt lat="48.068623971194029" lon="10.645092967897654">
        <ele>586.53999999999996</ele>
        <time>2018-09-16T13:05:45Z</time>
      </trkpt>
      <trkpt lat="48.068623971194029" lon="10.645070001482964">
        <ele>585.10000000000002</ele>
        <time>2018-09-16T13:06:34Z</time>
      </trkpt>
      <trkpt lat="48.068626988679171" lon="10.645120963454247">
        <ele>585.58000000000004</ele>
        <time>2018-09-16T13:06:46Z</time>
      </trkpt>
      <trkpt lat="48.068748023360968" lon="10.644615031778812">
        <ele>594.23000000000002</ele>
        <time>2018-09-16T13:06:53Z</time>
      </trkpt>
      <trkpt lat="48.068748023360968" lon="10.644615031778812">
        <ele>593.75</ele>
        <time>2018-09-16T13:06:54Z</time>
      </trkpt>
      <trkpt lat="48.068748023360968" lon="10.644615031778812">
        <ele>593.26999999999998</ele>
        <time>2018-09-16T13:06:55Z</time>
      </trkpt>
      <trkpt lat="48.068839972838759" lon="10.644346978515387">
        <ele>589.90999999999997</ele>
        <time>2018-09-16T13:07:04Z</time>
      </trkpt>
      <trkpt lat="48.068808037787676" lon="10.644300961866975">
        <ele>589.42999999999995</ele>
        <time>2018-09-16T13:07:05Z</time>
      </trkpt>
      <trkpt lat="48.068762021139264" lon="10.644232984632254">
        <ele>589.42999999999995</ele>
        <time>2018-09-16T13:07:06Z</time>
      </trkpt>
      <trkpt lat="48.068708041682839" lon="10.644154027104378">
        <ele>589.42999999999995</ele>
        <time>2018-09-16T13:07:07Z</time>
      </trkpt>
      <trkpt lat="48.068640986457467" lon="10.644056964665651">
        <ele>589.42999999999995</ele>
        <time>2018-09-16T13:07:08Z</time>
      </trkpt>
      <trkpt lat="48.068478964269161" lon="10.64355798996985">
        <ele>589.42999999999995</ele>
        <time>2018-09-16T13:07:12Z</time>
      </trkpt>
      <trkpt lat="48.068467983976007" lon="10.643411977216601">
        <ele>588.95000000000005</ele>
        <time>2018-09-16T13:07:13Z</time>
      </trkpt>
      <trkpt lat="48.068457003682852" lon="10.643263030797243">
        <ele>588.95000000000005</ele>
        <time>2018-09-16T13:07:14Z</time>
      </trkpt>
      <trkpt lat="48.068412998691201" lon="10.642812000587583">
        <ele>587.5</ele>
        <time>2018-09-16T13:07:17Z</time>
      </trkpt>
      <trkpt lat="48.068377962335944" lon="10.642695995047688">
        <ele>586.53999999999996</ele>
        <time>2018-09-16T13:07:18Z</time>
      </trkpt>
      <trkpt lat="48.068332029506564" lon="10.642607985064387">
        <ele>585.58000000000004</ele>
        <time>2018-09-16T13:07:19Z</time>
      </trkpt>
      <trkpt lat="48.068267991766334" lon="10.642539002001286">
        <ele>584.62</ele>
        <time>2018-09-16T13:07:20Z</time>
      </trkpt>
      <trkpt lat="48.068206971511245" lon="10.642472030594945">
        <ele>584.13999999999999</ele>
        <time>2018-09-16T13:07:21Z</time>
      </trkpt>
      <trkpt lat="48.068126002326608" lon="10.642383014783263">
        <ele>583.65999999999997</ele>
        <time>2018-09-16T13:07:22Z</time>
      </trkpt>
      <trkpt lat="48.068077974021435" lon="10.642364993691444">
        <ele>582.70000000000005</ele>
        <time>2018-09-16T13:07:23Z</time>
      </trkpt>
      <trkpt lat="48.067902037873864" lon="10.642298022285104">
        <ele>582.22000000000003</ele>
        <time>2018-09-16T13:07:25Z</time>
      </trkpt>
      <trkpt lat="48.066930994391441" lon="10.641919998452067">
        <ele>586.05999999999995</ele>
        <time>2018-09-16T13:07:34Z</time>
      </trkpt>
      <trkpt lat="48.066709041595459" lon="10.64181899651885">
        <ele>586.53999999999996</ele>
        <time>2018-09-16T13:07:36Z</time>
      </trkpt>
      <trkpt lat="48.066580966114998" lon="10.641760993748903">
        <ele>587.01999999999998</ele>
        <time>2018-09-16T13:07:37Z</time>
      </trkpt>
      <trkpt lat="48.066492034122348" lon="10.641708020120859">
        <ele>587.5</ele>
        <time>2018-09-16T13:07:38Z</time>
      </trkpt>
      <trkpt lat="48.066208977252245" lon="10.64154096879065">
        <ele>588.95000000000005</ele>
        <time>2018-09-16T13:07:42Z</time>
      </trkpt>
      <trkpt lat="48.066171007230878" lon="10.641519008204341">
        <ele>589.42999999999995</ele>
        <time>2018-09-16T13:07:43Z</time>
      </trkpt>
      <trkpt lat="48.066100012511015" lon="10.641414988785982">
        <ele>589.90999999999997</ele>
        <time>2018-09-16T13:07:44Z</time>
      </trkpt>
      <trkpt lat="48.066094983369112" lon="10.641371989622712">
        <ele>589.90999999999997</ele>
        <time>2018-09-16T13:07:45Z</time>
      </trkpt>
      <trkpt lat="48.06609096005559" lon="10.641335025429726">
        <ele>589.42999999999995</ele>
        <time>2018-09-16T13:07:46Z</time>
      </trkpt>
      <trkpt lat="48.066187016665936" lon="10.641289008781314">
        <ele>589.42999999999995</ele>
        <time>2018-09-16T13:07:47Z</time>
      </trkpt>
      <trkpt lat="48.066224986687303" lon="10.641280962154269">
        <ele>589.90999999999997</ele>
        <time>2018-09-16T13:07:48Z</time>
      </trkpt>
      <trkpt lat="48.066272009164095" lon="10.641270987689495">
        <ele>589.42999999999995</ele>
        <time>2018-09-16T13:07:49Z</time>
      </trkpt>
      <trkpt lat="48.066334035247564" lon="10.641256989911199">
        <ele>589.42999999999995</ele>
        <time>2018-09-16T13:07:50Z</time>
      </trkpt>
      <trkpt lat="48.066407963633537" lon="10.641248021274805">
        <ele>589.42999999999995</ele>
        <time>2018-09-16T13:07:51Z</time>
      </trkpt>
      <trkpt lat="48.067268030717969" lon="10.641343994066119">
        <ele>588.95000000000005</ele>
        <time>2018-09-16T13:08:00Z</time>
      </trkpt>
      <trkpt lat="48.067440027371049" lon="10.641363020986319">
        <ele>588.95000000000005</ele>
        <time>2018-09-16T13:08:02Z</time>
      </trkpt>
      <trkpt lat="48.067526025697589" lon="10.641371989622712">
        <ele>588.95000000000005</ele>
        <time>2018-09-16T13:08:03Z</time>
      </trkpt>
      <trkpt lat="48.067666003480554" lon="10.64138799905777">
        <ele>588.46000000000004</ele>
        <time>2018-09-16T13:08:05Z</time>
      </trkpt>
      <trkpt lat="48.067740015685558" lon="10.641395961865783">
        <ele>588.95000000000005</ele>
        <time>2018-09-16T13:08:06Z</time>
      </trkpt>
      <trkpt lat="48.067768011242151" lon="10.64138900488615">
        <ele>589.42999999999995</ele>
        <time>2018-09-16T13:08:07Z</time>
      </trkpt>
      <trkpt lat="48.067801035940647" lon="10.641380958259106">
        <ele>589.42999999999995</ele>
        <time>2018-09-16T13:08:08Z</time>
      </trkpt>
      <trkpt lat="48.06783095933497" lon="10.641372995451093">
        <ele>589.90999999999997</ele>
        <time>2018-09-16T13:08:09Z</time>
      </trkpt>
      <trkpt lat="48.067911006510258" lon="10.641352962702513">
        <ele>589.90999999999997</ele>
        <time>2018-09-16T13:08:10Z</time>
      </trkpt>
      <trkpt lat="48.067973032593727" lon="10.641191024333239">
        <ele>590.38999999999999</ele>
        <time>2018-09-16T13:08:11Z</time>
      </trkpt>
      <trkpt lat="48.067950988188386" lon="10.641142996028066">
        <ele>590.38999999999999</ele>
        <time>2018-09-16T13:08:12Z</time>
      </trkpt>
      <trkpt lat="48.067920980975032" lon="10.641076024621725">
        <ele>590.87</ele>
        <time>2018-09-16T13:08:13Z</time>
      </trkpt>
      <trkpt lat="48.067885022610426" lon="10.640998994931579">
        <ele>590.87</ele>
        <time>2018-09-16T13:08:14Z</time>
      </trkpt>
      <trkpt lat="48.067339025437832" lon="10.639813961461186">
        <ele>591.35000000000002</ele>
        <time>2018-09-16T13:08:26Z</time>
      </trkpt>
      <trkpt lat="48.067204998806119" lon="10.639524031430483">
        <ele>590.38999999999999</ele>
        <time>2018-09-16T13:08:29Z</time>
      </trkpt>
      <trkpt lat="48.067168034613132" lon="10.639442978426814">
        <ele>590.38999999999999</ele>
        <time>2018-09-16T13:08:30Z</time>
      </trkpt>
      <trkpt lat="48.067146996036172" lon="10.639356980100274">
        <ele>589.90999999999997</ele>
        <time>2018-09-16T13:08:31Z</time>
      </trkpt>
      <trkpt lat="48.067178009077907" lon="10.639272993430495">
        <ele>589.42999999999995</ele>
        <time>2018-09-16T13:08:32Z</time>
      </trkpt>
      <trkpt lat="48.067213967442513" lon="10.639180038124323">
        <ele>589.42999999999995</ele>
        <time>2018-09-16T13:08:33Z</time>
      </trkpt>
      <trkpt lat="48.067634990438819" lon="10.638056024909019">
        <ele>591.35000000000002</ele>
        <time>2018-09-16T13:08:41Z</time>
      </trkpt>
      <trkpt lat="48.068566974252462" lon="10.635569030418992">
        <ele>592.78999999999996</ele>
        <time>2018-09-16T13:08:55Z</time>
      </trkpt>
      <trkpt lat="48.069620998576283" lon="10.632761009037495">
        <ele>593.75</ele>
        <time>2018-09-16T13:09:10Z</time>
      </trkpt>
      <trkpt lat="48.069845968857408" lon="10.63202197663486">
        <ele>595.19000000000005</ele>
        <time>2018-09-16T13:09:16Z</time>
      </trkpt>
      <trkpt lat="48.069826019927859" lon="10.631907982751727">
        <ele>595.66999999999996</ele>
        <time>2018-09-16T13:09:19Z</time>
      </trkpt>
      <trkpt lat="48.06978696025908" lon="10.631840005517006">
        <ele>595.19000000000005</ele>
        <time>2018-09-16T13:09:20Z</time>
      </trkpt>
      <trkpt lat="48.069734992459416" lon="10.631745960563421">
        <ele>595.66999999999996</ele>
        <time>2018-09-16T13:09:21Z</time>
      </trkpt>
      <trkpt lat="48.069671960547566" lon="10.631635989993811">
        <ele>595.66999999999996</ele>
        <time>2018-09-16T13:09:22Z</time>
      </trkpt>
      <trkpt lat="48.069599959999323" lon="10.631506992504001">
        <ele>595.66999999999996</ele>
        <time>2018-09-16T13:09:23Z</time>
      </trkpt>
      <trkpt lat="48.06894700974226" lon="10.63051700592041">
        <ele>597.12</ele>
        <time>2018-09-16T13:09:29Z</time>
      </trkpt>
      <trkpt lat="48.067586040124297" lon="10.628888988867402">
        <ele>598.55999999999995</ele>
        <time>2018-09-16T13:09:37Z</time>
      </trkpt>
      <trkpt lat="48.065501041710377" lon="10.626743976026773">
        <ele>598.08000000000004</ele>
        <time>2018-09-16T13:09:47Z</time>
      </trkpt>
      <trkpt lat="48.06413403712213" lon="10.626020031049848">
        <ele>598.08000000000004</ele>
        <time>2018-09-16T13:09:53Z</time>
      </trkpt>
      <trkpt lat="48.063464993610978" lon="10.625802017748356">
        <ele>599.03999999999996</ele>
        <time>2018-09-16T13:09:58Z</time>
      </trkpt>
      <trkpt lat="48.063384024426341" lon="10.625624991953373">
        <ele>599.03999999999996</ele>
        <time>2018-09-16T13:09:59Z</time>
      </trkpt>
      <trkpt lat="48.063335996121168" lon="10.625589033588767">
        <ele>599.03999999999996</ele>
        <time>2018-09-16T13:10:00Z</time>
      </trkpt>
      <trkpt lat="48.063248991966248" lon="10.625590039417148">
        <ele>599.51999999999998</ele>
        <time>2018-09-16T13:10:01Z</time>
      </trkpt>
      <trkpt lat="48.063190989196301" lon="10.625624991953373">
        <ele>599.51999999999998</ele>
        <time>2018-09-16T13:10:02Z</time>
      </trkpt>
      <trkpt lat="48.063076995313168" lon="10.625774022191763">
        <ele>599.51999999999998</ele>
        <time>2018-09-16T13:10:03Z</time>
      </trkpt>
      <trkpt lat="48.062960989773273" lon="10.625773016363382">
        <ele>599.51999999999998</ele>
        <time>2018-09-16T13:10:04Z</time>
      </trkpt>
      <trkpt lat="48.062822017818689" lon="10.625771004706621">
        <ele>599.51999999999998</ele>
        <time>2018-09-16T13:10:05Z</time>
      </trkpt>
      <trkpt lat="48.062666030600667" lon="10.62576899304986">
        <ele>599.03999999999996</ele>
        <time>2018-09-16T13:10:06Z</time>
      </trkpt>
      <trkpt lat="48.061450989916921" lon="10.625772010535002">
        <ele>598.08000000000004</ele>
        <time>2018-09-16T13:10:12Z</time>
      </trkpt>
      <trkpt lat="48.058884032070637" lon="10.626130001619458">
        <ele>597.60000000000002</ele>
        <time>2018-09-16T13:10:22Z</time>
      </trkpt>
      <trkpt lat="48.056420003995299" lon="10.626632999628782">
        <ele>595.19000000000005</ele>
        <time>2018-09-16T13:10:31Z</time>
      </trkpt>
      <trkpt lat="48.053723964840174" lon="10.626989984884858">
        <ele>597.60000000000002</ele>
        <time>2018-09-16T13:10:41Z</time>
      </trkpt>
      <trkpt lat="48.052405994385481" lon="10.626883031800389">
        <ele>599.03999999999996</ele>
        <time>2018-09-16T13:10:48Z</time>
      </trkpt>
      <trkpt lat="48.052170965820551" lon="10.626860987395048">
        <ele>599.51999999999998</ele>
        <time>2018-09-16T13:10:50Z</time>
      </trkpt>
      <trkpt lat="48.052011039108038" lon="10.626718997955322">
        <ele>599.51999999999998</ele>
        <time>2018-09-16T13:10:51Z</time>
      </trkpt>
      <trkpt lat="48.051999974995852" lon="10.626708017662168">
        <ele>599.51999999999998</ele>
        <time>2018-09-16T13:10:52Z</time>
      </trkpt>
      <trkpt lat="48.05193199776113" lon="10.626640040427446">
        <ele>599.51999999999998</ele>
        <time>2018-09-16T13:10:53Z</time>
      </trkpt>
      <trkpt lat="48.051839964464307" lon="10.626625958830118">
        <ele>599.51999999999998</ele>
        <time>2018-09-16T13:10:54Z</time>
      </trkpt>
      <trkpt lat="48.051767963916063" lon="10.626685973256826">
        <ele>599.03999999999996</ele>
        <time>2018-09-16T13:10:55Z</time>
      </trkpt>
      <trkpt lat="48.051666039973497" lon="10.6268220115453">
        <ele>599.03999999999996</ele>
        <time>2018-09-16T13:10:56Z</time>
      </trkpt>
      <trkpt lat="48.051554979756474" lon="10.626812037080526">
        <ele>599.03999999999996</ele>
        <time>2018-09-16T13:10:57Z</time>
      </trkpt>
      <trkpt lat="48.051421036943793" lon="10.626799967139959">
        <ele>599.03999999999996</ele>
        <time>2018-09-16T13:10:58Z</time>
      </trkpt>
      <trkpt lat="48.051271000877023" lon="10.626785969361663">
        <ele>599.03999999999996</ele>
        <time>2018-09-16T13:10:59Z</time>
      </trkpt>
      <trkpt lat="48.051108978688717" lon="10.626740036532283">
        <ele>599.51999999999998</ele>
        <time>2018-09-16T13:11:00Z</time>
      </trkpt>
      <trkpt lat="48.050944022834301" lon="10.626674992963672">
        <ele>599.51999999999998</ele>
        <time>2018-09-16T13:11:01Z</time>
      </trkpt>
      <trkpt lat="48.050774959847331" lon="10.626569967716932">
        <ele>600</ele>
        <time>2018-09-16T13:11:02Z</time>
      </trkpt>
      <trkpt lat="48.050596006214619" lon="10.626458991318941">
        <ele>600.48000000000002</ele>
        <time>2018-09-16T13:11:03Z</time>
      </trkpt>
      <trkpt lat="48.050417974591255" lon="10.626320019364357">
        <ele>600.96000000000004</ele>
        <time>2018-09-16T13:11:04Z</time>
      </trkpt>
      <trkpt lat="48.050241032615304" lon="10.626165037974715">
        <ele>600.96000000000004</ele>
        <time>2018-09-16T13:11:05Z</time>
      </trkpt>
      <trkpt lat="48.050078004598618" lon="10.625960016623139">
        <ele>600.96000000000004</ele>
        <time>2018-09-16T13:11:06Z</time>
      </trkpt>
      <trkpt lat="48.049922017380595" lon="10.625734040513635">
        <ele>600.96000000000004</ele>
        <time>2018-09-16T13:11:07Z</time>
      </trkpt>
      <trkpt lat="48.049762006849051" lon="10.625504041090608">
        <ele>600.96000000000004</ele>
        <time>2018-09-16T13:11:08Z</time>
      </trkpt>
      <trkpt lat="48.048943011090159" lon="10.624444987624884">
        <ele>602.39999999999998</ele>
        <time>2018-09-16T13:11:13Z</time>
      </trkpt>
      <trkpt lat="48.047880018129945" lon="10.623665973544121">
        <ele>603.36000000000001</ele>
        <time>2018-09-16T13:11:20Z</time>
      </trkpt>
      <trkpt lat="48.045812034979463" lon="10.622738013044">
        <ele>603.85000000000002</ele>
        <time>2018-09-16T13:11:33Z</time>
      </trkpt>
      <trkpt lat="48.045213986188173" lon="10.622498039156199">
        <ele>603.36000000000001</ele>
        <time>2018-09-16T13:11:38Z</time>
      </trkpt>
      <trkpt lat="48.045145003125072" lon="10.622470965608954">
        <ele>602.39999999999998</ele>
        <time>2018-09-16T13:11:44Z</time>
      </trkpt>
      <trkpt lat="48.045131005346775" lon="10.622526034712791">
        <ele>602.39999999999998</ele>
        <time>2018-09-16T13:11:45Z</time>
      </trkpt>
      <trkpt lat="48.045118013396859" lon="10.622576996684074">
        <ele>602.39999999999998</ele>
        <time>2018-09-16T13:11:46Z</time>
      </trkpt>
      <trkpt lat="48.045078031718731" lon="10.622690990567207">
        <ele>602.39999999999998</ele>
        <time>2018-09-16T13:11:47Z</time>
      </trkpt>
      <trkpt lat="48.0450330208987" lon="10.622779000550508">
        <ele>602.39999999999998</ele>
        <time>2018-09-16T13:11:48Z</time>
      </trkpt>
      <trkpt lat="48.044979963451624" lon="10.622885031625628">
        <ele>602.39999999999998</ele>
        <time>2018-09-16T13:11:49Z</time>
      </trkpt>
      <trkpt lat="48.044921038672328" lon="10.623002965003252">
        <ele>602.39999999999998</ele>
        <time>2018-09-16T13:11:50Z</time>
      </trkpt>
      <trkpt lat="48.044836968183517" lon="10.623118970543146">
        <ele>602.39999999999998</ele>
        <time>2018-09-16T13:11:51Z</time>
      </trkpt>
      <trkpt lat="48.044737977907062" lon="10.623215027153492">
        <ele>602.88</ele>
        <time>2018-09-16T13:11:52Z</time>
      </trkpt>
      <trkpt lat="48.044630018994212" lon="10.62331703491509">
        <ele>603.36000000000001</ele>
        <time>2018-09-16T13:11:53Z</time>
      </trkpt>
      <trkpt lat="48.04452097043395" lon="10.623421976342797">
        <ele>603.85000000000002</ele>
        <time>2018-09-16T13:11:54Z</time>
      </trkpt>
      <trkpt lat="48.044413011521101" lon="10.623524989932775">
        <ele>604.33000000000004</ele>
        <time>2018-09-16T13:11:55Z</time>
      </trkpt>
      <trkpt lat="48.044331036508083" lon="10.62366496771574">
        <ele>604.33000000000004</ele>
        <time>2018-09-16T13:11:56Z</time>
      </trkpt>
      <trkpt lat="48.04426297545433" lon="10.623832019045949">
        <ele>604.80999999999995</ele>
        <time>2018-09-16T13:11:57Z</time>
      </trkpt>
      <trkpt lat="48.044188963249326" lon="10.624013990163803">
        <ele>604.80999999999995</ele>
        <time>2018-09-16T13:11:58Z</time>
      </trkpt>
      <trkpt lat="48.04413297213614" lon="10.624228985980153">
        <ele>604.80999999999995</ele>
        <time>2018-09-16T13:11:59Z</time>
      </trkpt>
      <trkpt lat="48.044075975194573" lon="10.624465020373464">
        <ele>605.28999999999996</ele>
        <time>2018-09-16T13:12:00Z</time>
      </trkpt>
      <trkpt lat="48.043584963306785" lon="10.626504002138972">
        <ele>605.76999999999998</ele>
        <time>2018-09-16T13:12:07Z</time>
      </trkpt>
      <trkpt lat="48.043478010222316" lon="10.62714203260839">
        <ele>605.76999999999998</ele>
        <time>2018-09-16T13:12:09Z</time>
      </trkpt>
      <trkpt lat="48.043458983302116" lon="10.627470016479492">
        <ele>606.25</ele>
        <time>2018-09-16T13:12:10Z</time>
      </trkpt>
      <trkpt lat="48.043413972482085" lon="10.630757985636592">
        <ele>607.69000000000005</ele>
        <time>2018-09-16T13:12:19Z</time>
      </trkpt>
      <trkpt lat="48.043172992765903" lon="10.63520198687911">
        <ele>608.16999999999996</ele>
        <time>2018-09-16T13:12:31Z</time>
      </trkpt>
      <trkpt lat="48.042803015559912" lon="10.637358985841274">
        <ele>607.69000000000005</ele>
        <time>2018-09-16T13:12:39Z</time>
      </trkpt>
      <trkpt lat="48.042219970375299" lon="10.639659985899925">
        <ele>607.69000000000005</ele>
        <time>2018-09-16T13:12:49Z</time>
      </trkpt>
      <trkpt lat="48.041757959872484" lon="10.642148992046714">
        <ele>608.64999999999998</ele>
        <time>2018-09-16T13:13:00Z</time>
      </trkpt>
      <trkpt lat="48.041536007076502" lon="10.644522998481989">
        <ele>607.69000000000005</ele>
        <time>2018-09-16T13:13:11Z</time>
      </trkpt>
      <trkpt lat="48.041422013193369" lon="10.646367017179728">
        <ele>607.21000000000004</ele>
        <time>2018-09-16T13:13:18Z</time>
      </trkpt>
      <trkpt lat="48.04125202819705" lon="10.649274028837681">
        <ele>606.25</ele>
        <time>2018-09-16T13:13:26Z</time>
      </trkpt>
      <trkpt lat="48.041053041815758" lon="10.652719996869564">
        <ele>607.21000000000004</ele>
        <time>2018-09-16T13:13:35Z</time>
      </trkpt>
      <trkpt lat="48.040922032669187" lon="10.655001970008016">
        <ele>606.73000000000002</ele>
        <time>2018-09-16T13:13:41Z</time>
      </trkpt>
      <trkpt lat="48.040765961632133" lon="10.657643023878336">
        <ele>607.69000000000005</ele>
        <time>2018-09-16T13:13:48Z</time>
      </trkpt>
      <trkpt lat="48.04060896858573" lon="10.660205036401749">
        <ele>607.21000000000004</ele>
        <time>2018-09-16T13:13:57Z</time>
      </trkpt>
      <trkpt lat="48.040459016337991" lon="10.662617012858391">
        <ele>607.69000000000005</ele>
        <time>2018-09-16T13:14:05Z</time>
      </trkpt>
      <trkpt lat="48.04024301469326" lon="10.666067004203796">
        <ele>608.16999999999996</ele>
        <time>2018-09-16T13:14:16Z</time>
      </trkpt>
      <trkpt lat="48.040106976404786" lon="10.668281000107527">
        <ele>607.69000000000005</ele>
        <time>2018-09-16T13:14:25Z</time>
      </trkpt>
      <trkpt lat="48.040089039131999" lon="10.668624993413687">
        <ele>606.73000000000002</ele>
        <time>2018-09-16T13:14:27Z</time>
      </trkpt>
      <trkpt lat="48.039914024993777" lon="10.670243036001921">
        <ele>605.76999999999998</ele>
        <time>2018-09-16T13:14:37Z</time>
      </trkpt>
      <trkpt lat="48.039841018617153" lon="10.670515028759837">
        <ele>606.73000000000002</ele>
        <time>2018-09-16T13:14:39Z</time>
      </trkpt>
      <trkpt lat="48.039781004190445" lon="10.670618964359164">
        <ele>606.73000000000002</ele>
        <time>2018-09-16T13:14:40Z</time>
      </trkpt>
      <trkpt lat="48.03972601890564" lon="10.670716026797891">
        <ele>607.21000000000004</ele>
        <time>2018-09-16T13:14:41Z</time>
      </trkpt>
      <trkpt lat="48.039668016135693" lon="10.670793978497386">
        <ele>607.69000000000005</ele>
        <time>2018-09-16T13:14:42Z</time>
      </trkpt>
      <trkpt lat="48.039591992273927" lon="10.670857010409236">
        <ele>608.16999999999996</ele>
        <time>2018-09-16T13:14:43Z</time>
      </trkpt>
      <trkpt lat="48.039515968412161" lon="10.670920964330435">
        <ele>608.64999999999998</ele>
        <time>2018-09-16T13:14:44Z</time>
      </trkpt>
      <trkpt lat="48.03942603059113" lon="10.670989025384188">
        <ele>609.13</ele>
        <time>2018-09-16T13:14:45Z</time>
      </trkpt>
      <trkpt lat="48.039036020636559" lon="10.671144006773829">
        <ele>610.57000000000005</ele>
        <time>2018-09-16T13:14:49Z</time>
      </trkpt>
      <trkpt lat="48.03886704146862" lon="10.671289013698697">
        <ele>611.05999999999995</ele>
        <time>2018-09-16T13:14:51Z</time>
      </trkpt>
      <trkpt lat="48.038784982636571" lon="10.671361014246941">
        <ele>611.05999999999995</ele>
        <time>2018-09-16T13:14:52Z</time>
      </trkpt>
      <trkpt lat="48.038731003180146" lon="10.671479031443596">
        <ele>611.53999999999996</ele>
        <time>2018-09-16T13:14:53Z</time>
      </trkpt>
      <trkpt lat="48.038680041208863" lon="10.671611968427896">
        <ele>611.53999999999996</ele>
        <time>2018-09-16T13:14:54Z</time>
      </trkpt>
      <trkpt lat="48.038652967661619" lon="10.671763010323048">
        <ele>611.53999999999996</ele>
        <time>2018-09-16T13:14:55Z</time>
      </trkpt>
      <trkpt lat="48.038636036217213" lon="10.671921009197831">
        <ele>611.53999999999996</ele>
        <time>2018-09-16T13:14:56Z</time>
      </trkpt>
      <trkpt lat="48.038622038438916" lon="10.672071967273951">
        <ele>612.01999999999998</ele>
        <time>2018-09-16T13:14:57Z</time>
      </trkpt>
      <trkpt lat="48.03863100707531" lon="10.672227032482624">
        <ele>612.5</ele>
        <time>2018-09-16T13:14:58Z</time>
      </trkpt>
      <trkpt lat="48.038639975711703" lon="10.672385031357408">
        <ele>612.98000000000002</ele>
        <time>2018-09-16T13:14:59Z</time>
      </trkpt>
      <trkpt lat="48.038671994581819" lon="10.672533977776766">
        <ele>612.98000000000002</ele>
        <time>2018-09-16T13:15:00Z</time>
      </trkpt>
      <trkpt lat="48.038721028715372" lon="10.672678984701633">
        <ele>612.98000000000002</ele>
        <time>2018-09-16T13:15:01Z</time>
      </trkpt>
      <trkpt lat="48.038767967373133" lon="10.672820974141359">
        <ele>613.46000000000004</ele>
        <time>2018-09-16T13:15:02Z</time>
      </trkpt>
      <trkpt lat="48.038811972364783" lon="10.672952989116311">
        <ele>613.46000000000004</ele>
        <time>2018-09-16T13:15:03Z</time>
      </trkpt>
      <trkpt lat="48.038836028426886" lon="10.673024989664555">
        <ele>612.98000000000002</ele>
        <time>2018-09-16T13:15:04Z</time>
      </trkpt>
      <trkpt lat="48.038959996774793" lon="10.67305700853467">
        <ele>612.98000000000002</ele>
        <time>2018-09-16T13:15:05Z</time>
      </trkpt>
      <trkpt lat="48.039050018414855" lon="10.67308098077774">
        <ele>612.98000000000002</ele>
        <time>2018-09-16T13:15:06Z</time>
      </trkpt>
      <trkpt lat="48.039145991206169" lon="10.673105958849192">
        <ele>612.98000000000002</ele>
        <time>2018-09-16T13:15:07Z</time>
      </trkpt>
      <trkpt lat="48.039243975654244" lon="10.673132026568055">
        <ele>612.98000000000002</ele>
        <time>2018-09-16T13:15:08Z</time>
      </trkpt>
      <trkpt lat="48.039346989244223" lon="10.67314401268959">
        <ele>612.98000000000002</ele>
        <time>2018-09-16T13:15:09Z</time>
      </trkpt>
      <trkpt lat="48.039532983675599" lon="10.67316697910428">
        <ele>612.98000000000002</ele>
        <time>2018-09-16T13:15:11Z</time>
      </trkpt>
      <trkpt lat="48.03961998783052" lon="10.673177037388086">
        <ele>612.5</ele>
        <time>2018-09-16T13:15:12Z</time>
      </trkpt>
      <trkpt lat="48.039702968671918" lon="10.67318701185286">
        <ele>612.5</ele>
        <time>2018-09-16T13:15:13Z</time>
      </trkpt>
      <trkpt lat="48.03979299031198" lon="10.673235962167382">
        <ele>612.5</ele>
        <time>2018-09-16T13:15:14Z</time>
      </trkpt>
      <trkpt lat="48.039830038323998" lon="10.673351967707276">
        <ele>612.5</ele>
        <time>2018-09-16T13:15:15Z</time>
      </trkpt>
      <trkpt lat="48.039873037487268" lon="10.673484988510609">
        <ele>612.5</ele>
        <time>2018-09-16T13:15:16Z</time>
      </trkpt>
      <trkpt lat="48.039918970316648" lon="10.673629995435476">
        <ele>612.5</ele>
        <time>2018-09-16T13:15:17Z</time>
      </trkpt>
      <trkpt lat="48.039962975308299" lon="10.673793023452163">
        <ele>612.5</ele>
        <time>2018-09-16T13:15:18Z</time>
      </trkpt>
      <trkpt lat="48.040165985003114" lon="10.67520503886044">
        <ele>610.09000000000003</ele>
        <time>2018-09-16T13:15:26Z</time>
      </trkpt>
      <trkpt lat="48.040146036073565" lon="10.675361026078463">
        <ele>609.61000000000001</ele>
        <time>2018-09-16T13:15:27Z</time>
      </trkpt>
      <trkpt lat="48.040086021646857" lon="10.675480971112847">
        <ele>609.13</ele>
        <time>2018-09-16T13:15:28Z</time>
      </trkpt>
      <trkpt lat="48.039994994178414" lon="10.675664031878114">
        <ele>608.64999999999998</ele>
        <time>2018-09-16T13:15:29Z</time>
      </trkpt>
      <trkpt lat="48.039940008893609" lon="10.675727985799313">
        <ele>607.21000000000004</ele>
        <time>2018-09-16T13:15:30Z</time>
      </trkpt>
      <trkpt lat="48.039851998910308" lon="10.675833011046052">
        <ele>606.25</ele>
        <time>2018-09-16T13:15:31Z</time>
      </trkpt>
      <trkpt lat="48.039587968960404" lon="10.67619401961565">
        <ele>604.80999999999995</ele>
        <time>2018-09-16T13:15:34Z</time>
      </trkpt>
      <trkpt lat="48.038807027041912" lon="10.677564041689038">
        <ele>602.88</ele>
        <time>2018-09-16T13:15:43Z</time>
      </trkpt>
      <trkpt lat="48.038085009902716" lon="10.678953006863594">
        <ele>605.76999999999998</ele>
        <time>2018-09-16T13:15:53Z</time>
      </trkpt>
      <trkpt lat="48.037299960851669" lon="10.680696023628116">
        <ele>607.69000000000005</ele>
        <time>2018-09-16T13:16:04Z</time>
      </trkpt>
      <trkpt lat="48.036358002573252" lon="10.682515986263752">
        <ele>608.64999999999998</ele>
        <time>2018-09-16T13:16:12Z</time>
      </trkpt>
      <trkpt lat="48.034842973574996" lon="10.684663010761142">
        <ele>608.64999999999998</ele>
        <time>2018-09-16T13:16:21Z</time>
      </trkpt>
      <trkpt lat="48.033945020288229" lon="10.68603303283453">
        <ele>608.64999999999998</ele>
        <time>2018-09-16T13:16:28Z</time>
      </trkpt>
      <trkpt lat="48.03306601010263" lon="10.687944022938609">
        <ele>610.09000000000003</ele>
        <time>2018-09-16T13:16:37Z</time>
      </trkpt>
      <trkpt lat="48.032079041004181" lon="10.690880035981536">
        <ele>609.61000000000001</ele>
        <time>2018-09-16T13:16:50Z</time>
      </trkpt>
      <trkpt lat="48.031622981652617" lon="10.693267034366727">
        <ele>610.09000000000003</ele>
        <time>2018-09-16T13:16:59Z</time>
      </trkpt>
      <trkpt lat="48.031586017459631" lon="10.695455968379974">
        <ele>611.53999999999996</ele>
        <time>2018-09-16T13:17:06Z</time>
      </trkpt>
      <trkpt lat="48.031854992732406" lon="10.699120033532381">
        <ele>613.94000000000005</ele>
        <time>2018-09-16T13:17:16Z</time>
      </trkpt>
      <trkpt lat="48.032162021845579" lon="10.703551964834332">
        <ele>613.94000000000005</ele>
        <time>2018-09-16T13:17:28Z</time>
      </trkpt>
      <trkpt lat="48.032290013507009" lon="10.705475024878979">
        <ele>617.29999999999995</ele>
        <time>2018-09-16T13:17:34Z</time>
      </trkpt>
      <trkpt lat="48.032351033762097" lon="10.706450007855892">
        <ele>617.29999999999995</ele>
        <time>2018-09-16T13:17:39Z</time>
      </trkpt>
      <trkpt lat="48.032343992963433" lon="10.706573976203799">
        <ele>617.29999999999995</ele>
        <time>2018-09-16T13:17:40Z</time>
      </trkpt>
      <trkpt lat="48.032308034598827" lon="10.706669026985765">
        <ele>617.29999999999995</ele>
        <time>2018-09-16T13:17:41Z</time>
      </trkpt>
      <trkpt lat="48.032217007130384" lon="10.706732980906963">
        <ele>617.77999999999997</ele>
        <time>2018-09-16T13:17:42Z</time>
      </trkpt>
      <trkpt lat="48.03212002851069" lon="10.706758964806795">
        <ele>617.77999999999997</ele>
        <time>2018-09-16T13:17:43Z</time>
      </trkpt>
      <trkpt lat="48.032001005485654" lon="10.70679098367691">
        <ele>618.25999999999999</ele>
        <time>2018-09-16T13:17:44Z</time>
      </trkpt>
      <trkpt lat="48.031861027702689" lon="10.706828031688929">
        <ele>618.25999999999999</ele>
        <time>2018-09-16T13:17:45Z</time>
      </trkpt>
      <trkpt lat="48.030730979517102" lon="10.707246037200093">
        <ele>617.29999999999995</ele>
        <time>2018-09-16T13:17:52Z</time>
      </trkpt>
      <trkpt lat="48.029248975217342" lon="10.707682985812426">
        <ele>617.77999999999997</ele>
        <time>2018-09-16T13:18:02Z</time>
      </trkpt>
      <trkpt lat="48.027844000607729" lon="10.707893036305904">
        <ele>621.63</ele>
        <time>2018-09-16T13:18:11Z</time>
      </trkpt>
      <trkpt lat="48.026869017630816" lon="10.708536012098193">
        <ele>626.44000000000005</ele>
        <time>2018-09-16T13:18:18Z</time>
      </trkpt>
      <trkpt lat="48.025875007733703" lon="10.709125008434057">
        <ele>626.91999999999996</ele>
        <time>2018-09-16T13:18:26Z</time>
      </trkpt>
      <trkpt lat="48.025704016909003" lon="10.708987964317203">
        <ele>626.44000000000005</ele>
        <time>2018-09-16T13:18:27Z</time>
      </trkpt>
      <trkpt lat="48.025704016909003" lon="10.708987964317203">
        <ele>626.44000000000005</ele>
        <time>2018-09-16T13:18:28Z</time>
      </trkpt>
      <trkpt lat="48.025639979168773" lon="10.708949994295835">
        <ele>626.44000000000005</ele>
        <time>2018-09-16T13:18:29Z</time>
      </trkpt>
      <trkpt lat="48.025552975013852" lon="10.708968015387654">
        <ele>625.96000000000004</ele>
        <time>2018-09-16T13:18:30Z</time>
      </trkpt>
      <trkpt lat="48.02550301887095" lon="10.709042027592659">
        <ele>625.47000000000003</ele>
        <time>2018-09-16T13:18:31Z</time>
      </trkpt>
      <trkpt lat="48.025479968637228" lon="10.70913297124207">
        <ele>625.47000000000003</ele>
        <time>2018-09-16T13:18:32Z</time>
      </trkpt>
      <trkpt lat="48.025488015264273" lon="10.709228022024035">
        <ele>625.47000000000003</ele>
        <time>2018-09-16T13:18:33Z</time>
      </trkpt>
      <trkpt lat="48.025529002770782" lon="10.70932399481535">
        <ele>625.47000000000003</ele>
        <time>2018-09-16T13:18:34Z</time>
      </trkpt>
      <trkpt lat="48.025532020255923" lon="10.709331035614014">
        <ele>625.47000000000003</ele>
        <time>2018-09-16T13:18:35Z</time>
      </trkpt>
      <trkpt lat="48.025645008310676" lon="10.709597999230027">
        <ele>624.99000000000001</ele>
        <time>2018-09-16T13:18:36Z</time>
      </trkpt>
      <trkpt lat="48.025650037452579" lon="10.70977502502501">
        <ele>624.99000000000001</ele>
        <time>2018-09-16T13:18:37Z</time>
      </trkpt>
      <trkpt lat="48.025707034394145" lon="10.7112140301615">
        <ele>627.88</ele>
        <time>2018-09-16T13:18:43Z</time>
      </trkpt>
      <trkpt lat="48.026004005223513" lon="10.71282897144556">
        <ele>630.27999999999997</ele>
        <time>2018-09-16T13:18:49Z</time>
      </trkpt>
      <trkpt lat="48.026919979602098" lon="10.715289982035756">
        <ele>632.20000000000005</ele>
        <time>2018-09-16T13:19:00Z</time>
      </trkpt>
      <trkpt lat="48.027175040915608" lon="10.716139990836382">
        <ele>631.72000000000003</ele>
        <time>2018-09-16T13:19:06Z</time>
      </trkpt>
      <trkpt lat="48.027119971811771" lon="10.716368984431028">
        <ele>631.24000000000001</ele>
        <time>2018-09-16T13:19:07Z</time>
      </trkpt>
      <trkpt lat="48.027119971811771" lon="10.716368984431028">
        <ele>631.24000000000001</ele>
        <time>2018-09-16T13:19:08Z</time>
      </trkpt>
      <trkpt lat="48.027119971811771" lon="10.716368984431028">
        <ele>630.75999999999999</ele>
        <time>2018-09-16T13:19:09Z</time>
      </trkpt>
      <trkpt lat="48.026954010128975" lon="10.716497981920838">
        <ele>630.75999999999999</ele>
        <time>2018-09-16T13:19:10Z</time>
      </trkpt>
      <trkpt lat="48.026842027902603" lon="10.716497981920838">
        <ele>631.24000000000001</ele>
        <time>2018-09-16T13:19:11Z</time>
      </trkpt>
      <trkpt lat="48.026712024584413" lon="10.716497981920838">
        <ele>631.72000000000003</ele>
        <time>2018-09-16T13:19:12Z</time>
      </trkpt>
      <trkpt lat="48.025641990825534" lon="10.716487001627684">
        <ele>634.61000000000001</ele>
        <time>2018-09-16T13:19:18Z</time>
      </trkpt>
      <trkpt lat="48.024254031479359" lon="10.716300001367927">
        <ele>636.52999999999997</ele>
        <time>2018-09-16T13:19:25Z</time>
      </trkpt>
      <trkpt lat="48.023080984130502" lon="10.716110989451408">
        <ele>637.97000000000003</ele>
        <time>2018-09-16T13:19:33Z</time>
      </trkpt>
      <trkpt lat="48.021342996507883" lon="10.715599022805691">
        <ele>638.92999999999995</ele>
        <time>2018-09-16T13:19:47Z</time>
      </trkpt>
      <trkpt lat="48.019440975040197" lon="10.714960992336273">
        <ele>637.49000000000001</ele>
        <time>2018-09-16T13:20:03Z</time>
      </trkpt>
      <trkpt lat="48.017988977953792" lon="10.714592020958662">
        <ele>633.16999999999996</ele>
        <time>2018-09-16T13:20:15Z</time>
      </trkpt>
      <trkpt lat="48.017508024349809" lon="10.714586991816759">
        <ele>630.75999999999999</ele>
        <time>2018-09-16T13:20:19Z</time>
      </trkpt>
      <trkpt lat="48.016197010874748" lon="10.71488899178803">
        <ele>625.96000000000004</ele>
        <time>2018-09-16T13:20:30Z</time>
      </trkpt>
      <trkpt lat="48.01555797457695" lon="10.715055959299207">
        <ele>625.47000000000003</ele>
        <time>2018-09-16T13:20:36Z</time>
      </trkpt>
      <trkpt lat="48.014766974374652" lon="10.714719006791711">
        <ele>625.47000000000003</ele>
        <time>2018-09-16T13:20:44Z</time>
      </trkpt>
      <trkpt lat="48.013615971431136" lon="10.71394301019609">
        <ele>625.47000000000003</ele>
        <time>2018-09-16T13:20:54Z</time>
      </trkpt>
      <trkpt lat="48.012199010699987" lon="10.712972972542048">
        <ele>627.88</ele>
        <time>2018-09-16T13:21:06Z</time>
      </trkpt>
      <trkpt lat="48.01102202385664" lon="10.712241986766458">
        <ele>629.79999999999995</ele>
        <time>2018-09-16T13:21:14Z</time>
      </trkpt>
      <trkpt lat="48.010865030810237" lon="10.712232012301683">
        <ele>630.27999999999997</ele>
        <time>2018-09-16T13:21:15Z</time>
      </trkpt>
      <trkpt lat="48.010720023885369" lon="10.712277023121715">
        <ele>630.75999999999999</ele>
        <time>2018-09-16T13:21:16Z</time>
      </trkpt>
      <trkpt lat="48.010570993646979" lon="10.712380036711693">
        <ele>631.24000000000001</ele>
        <time>2018-09-16T13:21:17Z</time>
      </trkpt>
      <trkpt lat="48.010424980893731" lon="10.712508028373122">
        <ele>631.24000000000001</ele>
        <time>2018-09-16T13:21:18Z</time>
      </trkpt>
      <trkpt lat="48.010264970362186" lon="10.712668038904667">
        <ele>631.24000000000001</ele>
        <time>2018-09-16T13:21:19Z</time>
      </trkpt>
      <trkpt lat="48.008969966322184" lon="10.71400897577405">
        <ele>631.24000000000001</ele>
        <time>2018-09-16T13:21:26Z</time>
      </trkpt>
      <trkpt lat="48.007601033896208" lon="10.71574897505343">
        <ele>632.20000000000005</ele>
        <time>2018-09-16T13:21:34Z</time>
      </trkpt>
      <trkpt lat="48.006236962974072" lon="10.717323012650013">
        <ele>632.67999999999995</ele>
        <time>2018-09-16T13:21:43Z</time>
      </trkpt>
      <trkpt lat="48.004976995289326" lon="10.718847010284662">
        <ele>631.72000000000003</ele>
        <time>2018-09-16T13:21:52Z</time>
      </trkpt>
      <trkpt lat="48.004494030028582" lon="10.719544971361756">
        <ele>630.27999999999997</ele>
        <time>2018-09-16T13:21:57Z</time>
      </trkpt>
      <trkpt lat="48.004414988681674" lon="10.719654019922018">
        <ele>629.79999999999995</ele>
        <time>2018-09-16T13:21:58Z</time>
      </trkpt>
      <trkpt lat="48.004315998405218" lon="10.719696013256907">
        <ele>629.79999999999995</ele>
        <time>2018-09-16T13:21:59Z</time>
      </trkpt>
      <trkpt lat="48.004208961501718" lon="10.719742029905319">
        <ele>629.32000000000005</ele>
        <time>2018-09-16T13:22:00Z</time>
      </trkpt>
      <trkpt lat="48.004098990932107" lon="10.719790980219841">
        <ele>629.32000000000005</ele>
        <time>2018-09-16T13:22:01Z</time>
      </trkpt>
      <trkpt lat="48.003556011244655" lon="10.720070013776422">
        <ele>631.72000000000003</ele>
        <time>2018-09-16T13:22:06Z</time>
      </trkpt>
      <trkpt lat="48.003432964906096" lon="10.720123993232846">
        <ele>632.20000000000005</ele>
        <time>2018-09-16T13:22:07Z</time>
      </trkpt>
      <trkpt lat="48.003297010436654" lon="10.720123993232846">
        <ele>633.16999999999996</ele>
        <time>2018-09-16T13:22:08Z</time>
      </trkpt>
      <trkpt lat="48.003147980198264" lon="10.72009096853435">
        <ele>633.64999999999998</ele>
        <time>2018-09-16T13:22:09Z</time>
      </trkpt>
      <trkpt lat="48.002994004637003" lon="10.720034977421165">
        <ele>634.13</ele>
        <time>2018-09-16T13:22:10Z</time>
      </trkpt>
      <trkpt lat="48.002818990498781" lon="10.719965994358063">
        <ele>634.61000000000001</ele>
        <time>2018-09-16T13:22:11Z</time>
      </trkpt>
      <trkpt lat="48.002646993845701" lon="10.719844959676266">
        <ele>634.61000000000001</ele>
        <time>2018-09-16T13:22:12Z</time>
      </trkpt>
      <trkpt lat="48.001323994249105" lon="10.718894032761455">
        <ele>635.09000000000003</ele>
        <time>2018-09-16T13:22:18Z</time>
      </trkpt>
      <trkpt lat="47.999178981408477" lon="10.717026963829994">
        <ele>635.09000000000003</ele>
        <time>2018-09-16T13:22:26Z</time>
      </trkpt>
      <trkpt lat="47.996524013578892" lon="10.714207962155342">
        <ele>636.04999999999995</ele>
        <time>2018-09-16T13:22:36Z</time>
      </trkpt>
      <trkpt lat="47.994016986340284" lon="10.71085000410676">
        <ele>637.00999999999999</ele>
        <time>2018-09-16T13:22:47Z</time>
      </trkpt>
      <trkpt lat="47.991204019635916" lon="10.706689981743693">
        <ele>635.57000000000005</ele>
        <time>2018-09-16T13:23:00Z</time>
      </trkpt>
      <trkpt lat="47.98850697465241" lon="10.702737998217344">
        <ele>632.20000000000005</ele>
        <time>2018-09-16T13:23:12Z</time>
      </trkpt>
      <trkpt lat="47.985741030424833" lon="10.699034035205841">
        <ele>634.13</ele>
        <time>2018-09-16T13:23:24Z</time>
      </trkpt>
      <trkpt lat="47.982646012678742" lon="10.695522017776966">
        <ele>636.04999999999995</ele>
        <time>2018-09-16T13:23:37Z</time>
      </trkpt>
      <trkpt lat="47.980099003762007" lon="10.69310300052166">
        <ele>637.49000000000001</ele>
        <time>2018-09-16T13:23:47Z</time>
      </trkpt>
      <trkpt lat="47.976596038788557" lon="10.690392963588238">
        <ele>639.88999999999999</ele>
        <time>2018-09-16T13:24:00Z</time>
      </trkpt>
      <trkpt lat="47.974242987111211" lon="10.688906013965607">
        <ele>640.86000000000001</ele>
        <time>2018-09-16T13:24:09Z</time>
      </trkpt>
      <trkpt lat="47.970671039074659" lon="10.687146987766027">
        <ele>643.25999999999999</ele>
        <time>2018-09-16T13:24:22Z</time>
      </trkpt>
      <trkpt lat="47.966756019741297" lon="10.685589965432882">
        <ele>645.17999999999995</ele>
        <time>2018-09-16T13:24:36Z</time>
      </trkpt>
      <trkpt lat="47.962541012093425" lon="10.684023974463344">
        <ele>649.02999999999997</ele>
        <time>2018-09-16T13:24:51Z</time>
      </trkpt>
      <trkpt lat="47.95866304077208" lon="10.682268971577287">
        <ele>650.95000000000005</ele>
        <time>2018-09-16T13:25:05Z</time>
      </trkpt>
      <trkpt lat="47.955772038549185" lon="10.680344989523292">
        <ele>651.90999999999997</ele>
        <time>2018-09-16T13:25:16Z</time>
      </trkpt>
      <trkpt lat="47.952813981100917" lon="10.67771902307868">
        <ele>653.35000000000002</ele>
        <time>2018-09-16T13:25:28Z</time>
      </trkpt>
      <trkpt lat="47.949774032458663" lon="10.674431975930929">
        <ele>653.83000000000004</ele>
        <time>2018-09-16T13:25:41Z</time>
      </trkpt>
      <trkpt lat="47.947005992755294" lon="10.671314997598529">
        <ele>654.79999999999995</ele>
        <time>2018-09-16T13:25:53Z</time>
      </trkpt>
      <trkpt lat="47.944136029109359" lon="10.668412009254098">
        <ele>657.67999999999995</ele>
        <time>2018-09-16T13:26:05Z</time>
      </trkpt>
      <trkpt lat="47.940888041630387" lon="10.665737008675933">
        <ele>659.60000000000002</ele>
        <time>2018-09-16T13:26:18Z</time>
      </trkpt>
      <trkpt lat="47.937615998089314" lon="10.663568023592234">
        <ele>661.03999999999996</ele>
        <time>2018-09-16T13:26:31Z</time>
      </trkpt>
      <trkpt lat="47.933734003454447" lon="10.661643035709858">
        <ele>663.45000000000005</ele>
        <time>2018-09-16T13:26:46Z</time>
      </trkpt>
      <trkpt lat="47.929740026593208" lon="10.660275025293231">
        <ele>665.37</ele>
        <time>2018-09-16T13:27:01Z</time>
      </trkpt>
      <trkpt lat="47.926762020215392" lon="10.659593995660543">
        <ele>667.76999999999998</ele>
        <time>2018-09-16T13:27:12Z</time>
      </trkpt>
      <trkpt lat="47.922402005642653" lon="10.658987984061241">
        <ele>672.10000000000002</ele>
        <time>2018-09-16T13:27:28Z</time>
      </trkpt>
      <trkpt lat="47.919762963429093" lon="10.658785980194807">
        <ele>675.46000000000004</ele>
        <time>2018-09-16T13:27:37Z</time>
      </trkpt>
      <trkpt lat="47.915927991271019" lon="10.658527985215187">
        <ele>677.38999999999999</ele>
        <time>2018-09-16T13:27:48Z</time>
      </trkpt>
      <trkpt lat="47.913027014583349" lon="10.658077960833907">
        <ele>680.26999999999998</ele>
        <time>2018-09-16T13:27:57Z</time>
      </trkpt>
      <trkpt lat="47.910796003416181" lon="10.657273968681693">
        <ele>682.19000000000005</ele>
        <time>2018-09-16T13:28:06Z</time>
      </trkpt>
      <trkpt lat="47.908004997298121" lon="10.655662966892123">
        <ele>684.12</ele>
        <time>2018-09-16T13:28:18Z</time>
      </trkpt>
      <trkpt lat="47.906297016888857" lon="10.654274001717567">
        <ele>686.51999999999998</ele>
        <time>2018-09-16T13:28:26Z</time>
      </trkpt>
      <trkpt lat="47.903586979955435" lon="10.65189597196877">
        <ele>692.76999999999998</ele>
        <time>2018-09-16T13:28:39Z</time>
      </trkpt>
      <trkpt lat="47.90131900459528" lon="10.650226967409253">
        <ele>695.16999999999996</ele>
        <time>2018-09-16T13:28:49Z</time>
      </trkpt>
      <trkpt lat="47.898952038958669" lon="10.64897102303803">
        <ele>698.04999999999995</ele>
        <time>2018-09-16T13:28:59Z</time>
      </trkpt>
      <trkpt lat="47.895981995388865" lon="10.647955974563956">
        <ele>700.94000000000005</ele>
        <time>2018-09-16T13:29:11Z</time>
      </trkpt>
      <trkpt lat="47.893511010333896" lon="10.647548027336597">
        <ele>703.82000000000005</ele>
        <time>2018-09-16T13:29:21Z</time>
      </trkpt>
      <trkpt lat="47.891517961397767" lon="10.647371001541615">
        <ele>704.77999999999997</ele>
        <time>2018-09-16T13:29:28Z</time>
      </trkpt>
      <trkpt lat="47.889219978824258" lon="10.647170003503561">
        <ele>706.71000000000004</ele>
        <time>2018-09-16T13:29:35Z</time>
      </trkpt>
      <trkpt lat="47.886588983237743" lon="10.646685026586056">
        <ele>709.11000000000001</ele>
        <time>2018-09-16T13:29:45Z</time>
      </trkpt>
      <trkpt lat="47.884043985977769" lon="10.645743990316987">
        <ele>711.99000000000001</ele>
        <time>2018-09-16T13:29:55Z</time>
      </trkpt>
      <trkpt lat="47.881077965721488" lon="10.644733970984817">
        <ele>714.88</ele>
        <time>2018-09-16T13:30:07Z</time>
      </trkpt>
      <trkpt lat="47.878908980637789" lon="10.644692983478308">
        <ele>714.39999999999998</ele>
        <time>2018-09-16T13:30:16Z</time>
      </trkpt>
      <trkpt lat="47.876788023859262" lon="10.645292960107327">
        <ele>714.88</ele>
        <time>2018-09-16T13:30:25Z</time>
      </trkpt>
      <trkpt lat="47.874781982973218" lon="10.646544964984059">
        <ele>716.79999999999995</ele>
        <time>2018-09-16T13:30:34Z</time>
      </trkpt>
      <trkpt lat="47.872905023396015" lon="10.648464001715183">
        <ele>718.72000000000003</ele>
        <time>2018-09-16T13:30:43Z</time>
      </trkpt>
      <trkpt lat="47.871118001639843" lon="10.650928029790521">
        <ele>719.20000000000005</ele>
        <time>2018-09-16T13:30:52Z</time>
      </trkpt>
      <trkpt lat="47.869379008188844" lon="10.652876989915967">
        <ele>721.13</ele>
        <time>2018-09-16T13:31:00Z</time>
      </trkpt>
      <trkpt lat="47.86718001589179" lon="10.65445002168417">
        <ele>724.00999999999999</ele>
        <time>2018-09-16T13:31:09Z</time>
      </trkpt>
      <trkpt lat="47.864277027547359" lon="10.65558903850615">
        <ele>729.77999999999997</ele>
        <time>2018-09-16T13:31:20Z</time>
      </trkpt>
      <trkpt lat="47.861678972840309" lon="10.656839031726122">
        <ele>733.62</ele>
        <time>2018-09-16T13:31:30Z</time>
      </trkpt>
      <trkpt lat="47.858739020302892" lon="10.658981027081609">
        <ele>737.47000000000003</ele>
        <time>2018-09-16T13:31:42Z</time>
      </trkpt>
      <trkpt lat="47.855714997276664" lon="10.66175602376461">
        <ele>739.38999999999999</ele>
        <time>2018-09-16T13:31:55Z</time>
      </trkpt>
      <trkpt lat="47.85272098146379" lon="10.664629004895687">
        <ele>742.75999999999999</ele>
        <time>2018-09-16T13:32:08Z</time>
      </trkpt>
      <trkpt lat="47.848351998254657" lon="10.668842000886798">
        <ele>749</ele>
        <time>2018-09-16T13:32:27Z</time>
      </trkpt>
      <trkpt lat="47.845585970208049" lon="10.671508032828569">
        <ele>752.85000000000002</ele>
        <time>2018-09-16T13:32:39Z</time>
      </trkpt>
      <trkpt lat="47.84199801273644" lon="10.674521997570992">
        <ele>744.20000000000005</ele>
        <time>2018-09-16T13:32:54Z</time>
      </trkpt>
      <trkpt lat="47.839681003242731" lon="10.675719017162919">
        <ele>735.54999999999995</ele>
        <time>2018-09-16T13:33:03Z</time>
      </trkpt>
      <trkpt lat="47.837216975167394" lon="10.67610802128911">
        <ele>729.77999999999997</ele>
        <time>2018-09-16T13:33:12Z</time>
      </trkpt>
      <trkpt lat="47.834489000961185" lon="10.675904005765915">
        <ele>725.92999999999995</ele>
        <time>2018-09-16T13:33:22Z</time>
      </trkpt>
      <trkpt lat="47.830991987138987" lon="10.675008986145258">
        <ele>727.86000000000001</ele>
        <time>2018-09-16T13:33:35Z</time>
      </trkpt>
      <trkpt lat="47.827326999977231" lon="10.673436038196087">
        <ele>730.74000000000001</ele>
        <time>2018-09-16T13:33:49Z</time>
      </trkpt>
      <trkpt lat="47.824067026376724" lon="10.671397978439927">
        <ele>736.99000000000001</ele>
        <time>2018-09-16T13:34:02Z</time>
      </trkpt>
      <trkpt lat="47.822274975478649" lon="10.669954027980566">
        <ele>744.67999999999995</ele>
        <time>2018-09-16T13:34:10Z</time>
      </trkpt>
      <trkpt lat="47.82062198035419" lon="10.668455008417368">
        <ele>747.55999999999995</ele>
        <time>2018-09-16T13:34:17Z</time>
      </trkpt>
      <trkpt lat="47.819146011024714" lon="10.666938973590732">
        <ele>747.08000000000004</ele>
        <time>2018-09-16T13:34:23Z</time>
      </trkpt>
      <trkpt lat="47.816970990970731" lon="10.66429004073143">
        <ele>737.47000000000003</ele>
        <time>2018-09-16T13:34:33Z</time>
      </trkpt>
      <trkpt lat="47.814804017543793" lon="10.66113400273025">
        <ele>725.92999999999995</ele>
        <time>2018-09-16T13:34:44Z</time>
      </trkpt>
      <trkpt lat="47.812900990247726" lon="10.657699014991522">
        <ele>714.39999999999998</ele>
        <time>2018-09-16T13:34:55Z</time>
      </trkpt>
      <trkpt lat="47.810934009030461" lon="10.653373030945659">
        <ele>709.59000000000003</ele>
        <time>2018-09-16T13:35:08Z</time>
      </trkpt>
      <trkpt lat="47.809146987274289" lon="10.648341039195657">
        <ele>711.02999999999997</ele>
        <time>2018-09-16T13:35:22Z</time>
      </trkpt>
      <trkpt lat="47.808469980955124" lon="10.646228967234492">
        <ele>711.02999999999997</ele>
        <time>2018-09-16T13:35:28Z</time>
      </trkpt>
      <trkpt lat="47.808376019820571" lon="10.645915986970067">
        <ele>710.54999999999995</ele>
        <time>2018-09-16T13:35:29Z</time>
      </trkpt>
      <trkpt lat="47.807544032111764" lon="10.643160017207265">
        <ele>711.02999999999997</ele>
        <time>2018-09-16T13:35:39Z</time>
      </trkpt>
      <trkpt lat="47.806602995842695" lon="10.64001303166151">
        <ele>712.95000000000005</ele>
        <time>2018-09-16T13:35:50Z</time>
      </trkpt>
      <trkpt lat="47.805536985397339" lon="10.636437982320786">
        <ele>713.91999999999996</ele>
        <time>2018-09-16T13:36:02Z</time>
      </trkpt>
      <trkpt lat="47.804282968863845" lon="10.632275026291609">
        <ele>715.84000000000003</ele>
        <time>2018-09-16T13:36:15Z</time>
      </trkpt>
      <trkpt lat="47.802727036178112" lon="10.627018986269832">
        <ele>717.75999999999999</ele>
        <time>2018-09-16T13:36:30Z</time>
      </trkpt>
      <trkpt lat="47.801624983549118" lon="10.622713034972548">
        <ele>720.15999999999997</ele>
        <time>2018-09-16T13:36:42Z</time>
      </trkpt>
      <trkpt lat="47.800849992781878" lon="10.618894994258881">
        <ele>721.61000000000001</ele>
        <time>2018-09-16T13:36:53Z</time>
      </trkpt>
      <trkpt lat="47.800345988944173" lon="10.615394040942192">
        <ele>723.04999999999995</ele>
        <time>2018-09-16T13:37:05Z</time>
      </trkpt>
      <trkpt lat="47.800052035599947" lon="10.613012993708253">
        <ele>724.00999999999999</ele>
        <time>2018-09-16T13:37:12Z</time>
      </trkpt>
      <trkpt lat="47.799782976508141" lon="10.610120985656977">
        <ele>724.97000000000003</ele>
        <time>2018-09-16T13:37:18Z</time>
      </trkpt>
      <trkpt lat="47.799386009573936" lon="10.606035981327295">
        <ele>726.40999999999997</ele>
        <time>2018-09-16T13:37:27Z</time>
      </trkpt>
      <trkpt lat="47.798845041543245" lon="10.601205993443727">
        <ele>728.34000000000003</ele>
        <time>2018-09-16T13:37:39Z</time>
      </trkpt>
      <trkpt lat="47.798020010814071" lon="10.596852013841271">
        <ele>730.74000000000001</ele>
        <time>2018-09-16T13:37:50Z</time>
      </trkpt>
      <trkpt lat="47.797020971775055" lon="10.592950992286205">
        <ele>732.17999999999995</ele>
        <time>2018-09-16T13:38:00Z</time>
      </trkpt>
      <trkpt lat="47.795566041022539" lon="10.588799016550183">
        <ele>733.62</ele>
        <time>2018-09-16T13:38:11Z</time>
      </trkpt>
      <trkpt lat="47.793777007609606" lon="10.584917021915317">
        <ele>736.02999999999997</ele>
        <time>2018-09-16T13:38:22Z</time>
      </trkpt>
      <trkpt lat="47.791693015024066" lon="10.581405004486442">
        <ele>736.50999999999999</ele>
        <time>2018-09-16T13:38:33Z</time>
      </trkpt>
      <trkpt lat="47.789444988593459" lon="10.578348962590098">
        <ele>739.87</ele>
        <time>2018-09-16T13:38:44Z</time>
      </trkpt>
      <trkpt lat="47.787452023476362" lon="10.576136978343129">
        <ele>738.42999999999995</ele>
        <time>2018-09-16T13:38:54Z</time>
      </trkpt>
      <trkpt lat="47.784263966605067" lon="10.573047995567322">
        <ele>741.78999999999996</ele>
        <time>2018-09-16T13:39:09Z</time>
      </trkpt>
      <trkpt lat="47.782367980107665" lon="10.571200959384441">
        <ele>743.24000000000001</ele>
        <time>2018-09-16T13:39:18Z</time>
      </trkpt>
      <trkpt lat="47.781484024599195" lon="10.570039981976151">
        <ele>744.20000000000005</ele>
        <time>2018-09-16T13:39:24Z</time>
      </trkpt>
      <trkpt lat="47.781396014615893" lon="10.569873014464974">
        <ele>744.20000000000005</ele>
        <time>2018-09-16T13:39:25Z</time>
      </trkpt>
      <trkpt lat="47.781382016837597" lon="10.569702023640275">
        <ele>743.72000000000003</ele>
        <time>2018-09-16T13:39:26Z</time>
      </trkpt>
      <trkpt lat="47.781375981867313" lon="10.569519968703389">
        <ele>743.72000000000003</ele>
        <time>2018-09-16T13:39:27Z</time>
      </trkpt>
      <trkpt lat="47.781370030716062" lon="10.569343026727438">
        <ele>743.72000000000003</ele>
        <time>2018-09-16T13:39:28Z</time>
      </trkpt>
      <trkpt lat="47.781370030716062" lon="10.569178992882371">
        <ele>743.72000000000003</ele>
        <time>2018-09-16T13:39:29Z</time>
      </trkpt>
      <trkpt lat="47.781426021829247" lon="10.56902501732111">
        <ele>743.72000000000003</ele>
        <time>2018-09-16T13:39:30Z</time>
      </trkpt>
      <trkpt lat="47.78147698380053" lon="10.568884033709764">
        <ele>743.72000000000003</ele>
        <time>2018-09-16T13:39:31Z</time>
      </trkpt>
      <trkpt lat="47.781611010432243" lon="10.568497963249683">
        <ele>743.72000000000003</ele>
        <time>2018-09-16T13:39:37Z</time>
      </trkpt>
      <trkpt lat="47.781628025695682" lon="10.568384975194931">
        <ele>743.72000000000003</ele>
        <time>2018-09-16T13:39:44Z</time>
      </trkpt>
      <trkpt lat="47.781579997390509" lon="10.568348011001945">
        <ele>743.24000000000001</ele>
        <time>2018-09-16T13:39:45Z</time>
      </trkpt>
      <trkpt lat="47.781509002670646" lon="10.568293025717139">
        <ele>743.24000000000001</ele>
        <time>2018-09-16T13:39:46Z</time>
      </trkpt>
      <trkpt lat="47.781420992687345" lon="10.568225970491767">
        <ele>743.24000000000001</ele>
        <time>2018-09-16T13:39:47Z</time>
      </trkpt>
      <trkpt lat="47.781315967440605" lon="10.568152964115143">
        <ele>743.72000000000003</ele>
        <time>2018-09-16T13:39:48Z</time>
      </trkpt>
      <trkpt lat="47.780336039140821" lon="10.567624988034368">
        <ele>746.12</ele>
        <time>2018-09-16T13:39:54Z</time>
      </trkpt>
      <trkpt lat="47.778996024280787" lon="10.567610990256071">
        <ele>749</ele>
        <time>2018-09-16T13:40:00Z</time>
      </trkpt>
      <trkpt lat="47.777774026617408" lon="10.568222030997276">
        <ele>747.55999999999995</ele>
        <time>2018-09-16T13:40:07Z</time>
      </trkpt>
      <trkpt lat="47.77612597681582" lon="10.569205982610583">
        <ele>744.67999999999995</ele>
        <time>2018-09-16T13:40:18Z</time>
      </trkpt>
      <trkpt lat="47.775819031521678" lon="10.569383008405566">
        <ele>745.15999999999997</ele>
        <time>2018-09-16T13:40:23Z</time>
      </trkpt>
      <trkpt lat="47.775726998224854" lon="10.569433970376849">
        <ele>745.63999999999999</ele>
        <time>2018-09-16T13:40:31Z</time>
      </trkpt>
      <trkpt lat="47.775726998224854" lon="10.569433970376849">
        <ele>745.63999999999999</ele>
        <time>2018-09-16T13:41:20Z</time>
      </trkpt>
      <trkpt lat="47.775659020990133" lon="10.569462971761823">
        <ele>746.12</ele>
        <time>2018-09-16T13:41:32Z</time>
      </trkpt>
      <trkpt lat="47.775586014613509" lon="10.569492978975177">
        <ele>746.12</ele>
        <time>2018-09-16T13:41:33Z</time>
      </trkpt>
      <trkpt lat="47.77550102211535" lon="10.569528015330434">
        <ele>745.63999999999999</ele>
        <time>2018-09-16T13:41:34Z</time>
      </trkpt>
      <trkpt lat="47.77468697167933" lon="10.569869996979833">
        <ele>745.63999999999999</ele>
        <time>2018-09-16T13:41:40Z</time>
      </trkpt>
      <trkpt lat="47.772961976006627" lon="10.570418005809188">
        <ele>746.60000000000002</ele>
        <time>2018-09-16T13:41:49Z</time>
      </trkpt>
      <trkpt lat="47.771127009764314" lon="10.571178998798132">
        <ele>746.12</ele>
        <time>2018-09-16T13:41:59Z</time>
      </trkpt>
      <trkpt lat="47.769903000444174" lon="10.572590008378029">
        <ele>745.63999999999999</ele>
        <time>2018-09-16T13:42:06Z</time>
      </trkpt>
      <trkpt lat="47.769202021881938" lon="10.574313998222351">
        <ele>746.12</ele>
        <time>2018-09-16T13:42:12Z</time>
      </trkpt>
      <trkpt lat="47.768908990547061" lon="10.576624972745776">
        <ele>746.60000000000002</ele>
        <time>2018-09-16T13:42:19Z</time>
      </trkpt>
      <trkpt lat="47.769203027710319" lon="10.579126970842481">
        <ele>744.20000000000005</ele>
        <time>2018-09-16T13:42:26Z</time>
      </trkpt>
      <trkpt lat="47.769595971331" lon="10.581676997244358">
        <ele>741.30999999999995</ele>
        <time>2018-09-16T13:42:34Z</time>
      </trkpt>
      <trkpt lat="47.770107015967369" lon="10.584311010316014">
        <ele>738.90999999999997</ele>
        <time>2018-09-16T13:42:44Z</time>
      </trkpt>
      <trkpt lat="47.770878989249468" lon="10.586026031523943">
        <ele>736.99000000000001</ele>
        <time>2018-09-16T13:42:52Z</time>
      </trkpt>
      <trkpt lat="47.772714961320162" lon="10.588697008788586">
        <ele>733.62</ele>
        <time>2018-09-16T13:43:06Z</time>
      </trkpt>
      <trkpt lat="47.773664966225624" lon="10.590681005269289">
        <ele>733.13999999999999</ele>
        <time>2018-09-16T13:43:15Z</time>
      </trkpt>
      <trkpt lat="47.774061011150479" lon="10.592554025352001">
        <ele>728.34000000000003</ele>
        <time>2018-09-16T13:43:22Z</time>
      </trkpt>
      <trkpt lat="47.774075008928776" lon="10.594757040962577">
        <ele>724.49000000000001</ele>
        <time>2018-09-16T13:43:30Z</time>
      </trkpt>
      <trkpt lat="47.773660020902753" lon="10.596604999154806">
        <ele>724.49000000000001</ele>
        <time>2018-09-16T13:43:38Z</time>
      </trkpt>
      <trkpt lat="47.773106982931495" lon="10.597750972956419">
        <ele>727.37</ele>
        <time>2018-09-16T13:43:45Z</time>
      </trkpt>
      <trkpt lat="47.772759972140193" lon="10.598541973158717">
        <ele>728.82000000000005</ele>
        <time>2018-09-16T13:43:53Z</time>
      </trkpt>
      <trkpt lat="47.772642038762569" lon="10.598814971745014">
        <ele>729.77999999999997</ele>
        <time>2018-09-16T13:44:02Z</time>
      </trkpt>
      <trkpt lat="47.772597027942538" lon="10.598919996991754">
        <ele>729.77999999999997</ele>
        <time>2018-09-16T13:44:19Z</time>
      </trkpt>
      <trkpt lat="47.772453026846051" lon="10.598937012255192">
        <ele>730.25999999999999</ele>
        <time>2018-09-16T13:44:20Z</time>
      </trkpt>
      <trkpt lat="47.772406004369259" lon="10.598885966464877">
        <ele>730.25999999999999</ele>
        <time>2018-09-16T13:44:21Z</time>
      </trkpt>
      <trkpt lat="47.772346995770931" lon="10.598821006715298">
        <ele>730.25999999999999</ele>
        <time>2018-09-16T13:44:22Z</time>
      </trkpt>
      <trkpt lat="47.772273989394307" lon="10.598748000338674">
        <ele>730.25999999999999</ele>
        <time>2018-09-16T13:44:23Z</time>
      </trkpt>
      <trkpt lat="47.772184973582625" lon="10.598668036982417">
        <ele>730.25999999999999</ele>
        <time>2018-09-16T13:44:24Z</time>
      </trkpt>
      <trkpt lat="47.771239997819066" lon="10.59796697460115">
        <ele>731.70000000000005</ele>
        <time>2018-09-16T13:44:33Z</time>
      </trkpt>
      <trkpt lat="47.771135978400707" lon="10.597919030115008">
        <ele>732.65999999999997</ele>
        <time>2018-09-16T13:44:34Z</time>
      </trkpt>
      <trkpt lat="47.771019972860813" lon="10.597889022901654">
        <ele>733.13999999999999</ele>
        <time>2018-09-16T13:44:35Z</time>
      </trkpt>
      <trkpt lat="47.769785989075899" lon="10.597695987671614">
        <ele>735.07000000000005</ele>
        <time>2018-09-16T13:44:46Z</time>
      </trkpt>
      <trkpt lat="47.769680041819811" lon="10.597658017650247">
        <ele>735.07000000000005</ele>
        <time>2018-09-16T13:44:47Z</time>
      </trkpt>
      <trkpt lat="47.76957199908793" lon="10.597619963809848">
        <ele>735.54999999999995</ele>
        <time>2018-09-16T13:44:48Z</time>
      </trkpt>
      <trkpt lat="47.7694630343467" lon="10.597565984353423">
        <ele>735.54999999999995</ele>
        <time>2018-09-16T13:44:49Z</time>
      </trkpt>
      <trkpt lat="47.769360020756721" lon="10.597495995461941">
        <ele>736.02999999999997</ele>
        <time>2018-09-16T13:44:50Z</time>
      </trkpt>
      <trkpt lat="47.769262036308646" lon="10.597420977428555">
        <ele>736.50999999999999</ele>
        <time>2018-09-16T13:44:51Z</time>
      </trkpt>
      <trkpt lat="47.768966993317008" lon="10.597196007147431">
        <ele>737.47000000000003</ele>
        <time>2018-09-16T13:44:54Z</time>
      </trkpt>
      <trkpt lat="47.768861968070269" lon="10.597116965800524">
        <ele>737.47000000000003</ele>
        <time>2018-09-16T13:44:55Z</time>
      </trkpt>
      <trkpt lat="47.768103992566466" lon="10.596481030806899">
        <ele>739.38999999999999</ele>
        <time>2018-09-16T13:45:01Z</time>
      </trkpt>
      <trkpt lat="47.767964014783502" lon="10.596354966983199">
        <ele>739.87</ele>
        <time>2018-09-16T13:45:02Z</time>
      </trkpt>
      <trkpt lat="47.767824037000537" lon="10.596223035827279">
        <ele>740.35000000000002</ele>
        <time>2018-09-16T13:45:03Z</time>
      </trkpt>
      <trkpt lat="47.767684981226921" lon="10.596062019467354">
        <ele>740.83000000000004</ele>
        <time>2018-09-16T13:45:04Z</time>
      </trkpt>
      <trkpt lat="47.767545003443956" lon="10.595893040299416">
        <ele>741.30999999999995</ele>
        <time>2018-09-16T13:45:05Z</time>
      </trkpt>
      <trkpt lat="47.766461977735162" lon="10.594111969694495">
        <ele>743.72000000000003</ele>
        <time>2018-09-16T13:45:13Z</time>
      </trkpt>
      <trkpt lat="47.765129003673792" lon="10.592312961816788">
        <ele>745.63999999999999</ele>
        <time>2018-09-16T13:45:21Z</time>
      </trkpt>
      <trkpt lat="47.763774991035461" lon="10.591573007404804">
        <ele>746.60000000000002</ele>
        <time>2018-09-16T13:45:27Z</time>
      </trkpt>
      <trkpt lat="47.762832026928663" lon="10.591176962479949">
        <ele>746.12</ele>
        <time>2018-09-16T13:45:31Z</time>
      </trkpt>
      <trkpt lat="47.761268969625235" lon="10.589605020359159">
        <ele>744.67999999999995</ele>
        <time>2018-09-16T13:45:39Z</time>
      </trkpt>
      <trkpt lat="47.759716976433992" lon="10.587120959535241">
        <ele>746.60000000000002</ele>
        <time>2018-09-16T13:45:48Z</time>
      </trkpt>
      <trkpt lat="47.758515011519194" lon="10.584693979471922">
        <ele>747.55999999999995</ele>
        <time>2018-09-16T13:45:56Z</time>
      </trkpt>
      <trkpt lat="47.757513038814068" lon="10.581948990002275">
        <ele>749.97000000000003</ele>
        <time>2018-09-16T13:46:04Z</time>
      </trkpt>
      <trkpt lat="47.756599998101592" lon="10.578785995021462">
        <ele>749.49000000000001</ele>
        <time>2018-09-16T13:46:13Z</time>
      </trkpt>
      <trkpt lat="47.756496984511614" lon="10.578512996435165">
        <ele>749.49000000000001</ele>
        <time>2018-09-16T13:46:14Z</time>
      </trkpt>
      <trkpt lat="47.756352983415127" lon="10.578277967870235">
        <ele>749</ele>
        <time>2018-09-16T13:46:15Z</time>
      </trkpt>
      <trkpt lat="47.756198002025485" lon="10.578062972053885">
        <ele>748.51999999999998</ele>
        <time>2018-09-16T13:46:16Z</time>
      </trkpt>
      <trkpt lat="47.756023993715644" lon="10.577859962359071">
        <ele>747.55999999999995</ele>
        <time>2018-09-16T13:46:17Z</time>
      </trkpt>
      <trkpt lat="47.755847973749042" lon="10.577677991241217">
        <ele>746.12</ele>
        <time>2018-09-16T13:46:18Z</time>
      </trkpt>
      <trkpt lat="47.755642030388117" lon="10.577541030943394">
        <ele>744.67999999999995</ele>
        <time>2018-09-16T13:46:19Z</time>
      </trkpt>
      <trkpt lat="47.755422005429864" lon="10.577454026788473">
        <ele>743.72000000000003</ele>
        <time>2018-09-16T13:46:20Z</time>
      </trkpt>
      <trkpt lat="47.755186976864934" lon="10.577389989048243">
        <ele>742.27999999999997</ele>
        <time>2018-09-16T13:46:21Z</time>
      </trkpt>
      <trkpt lat="47.754949014633894" lon="10.577352019026875">
        <ele>740.83000000000004</ele>
        <time>2018-09-16T13:46:22Z</time>
      </trkpt>
      <trkpt lat="47.754701999947429" lon="10.577328968793154">
        <ele>739.87</ele>
        <time>2018-09-16T13:46:23Z</time>
      </trkpt>
      <trkpt lat="47.754455991089344" lon="10.577346989884973">
        <ele>738.90999999999997</ele>
        <time>2018-09-16T13:46:24Z</time>
      </trkpt>
      <trkpt lat="47.752525974065065" lon="10.577518986538053">
        <ele>740.83000000000004</ele>
        <time>2018-09-16T13:46:32Z</time>
      </trkpt>
      <trkpt lat="47.752312989905477" lon="10.57747095823288">
        <ele>742.27999999999997</ele>
        <time>2018-09-16T13:46:33Z</time>
      </trkpt>
      <trkpt lat="47.75210302323103" lon="10.577397029846907">
        <ele>743.72000000000003</ele>
        <time>2018-09-16T13:46:34Z</time>
      </trkpt>
      <trkpt lat="47.751902025192976" lon="10.577283035963774">
        <ele>745.63999999999999</ele>
        <time>2018-09-16T13:46:35Z</time>
      </trkpt>
      <trkpt lat="47.75171703658998" lon="10.577115984633565">
        <ele>747.08000000000004</ele>
        <time>2018-09-16T13:46:36Z</time>
      </trkpt>
      <trkpt lat="47.751535987481475" lon="10.576934013515711">
        <ele>749</ele>
        <time>2018-09-16T13:46:37Z</time>
      </trkpt>
      <trkpt lat="47.751367008313537" lon="10.57671801187098">
        <ele>750.45000000000005</ele>
        <time>2018-09-16T13:46:38Z</time>
      </trkpt>
      <trkpt lat="47.751201968640089" lon="10.576480971649289">
        <ele>751.40999999999997</ele>
        <time>2018-09-16T13:46:39Z</time>
      </trkpt>
      <trkpt lat="47.750111985951662" lon="10.574904000386596">
        <ele>756.69000000000005</ele>
        <time>2018-09-16T13:46:46Z</time>
      </trkpt>
      <trkpt lat="47.749473033472896" lon="10.574124986305833">
        <ele>758.62</ele>
        <time>2018-09-16T13:46:52Z</time>
      </trkpt>
      <trkpt lat="47.749149994924664" lon="10.573708992451429">
        <ele>758.62</ele>
        <time>2018-09-16T13:46:56Z</time>
      </trkpt>
      <trkpt lat="47.749071037396789" lon="10.573600027710199">
        <ele>758.13999999999999</ele>
        <time>2018-09-16T13:46:57Z</time>
      </trkpt>
      <trkpt lat="47.748827040195465" lon="10.573261985555291">
        <ele>756.69000000000005</ele>
        <time>2018-09-16T13:47:00Z</time>
      </trkpt>
      <trkpt lat="47.74853803217411" lon="10.572987981140614">
        <ele>756.69000000000005</ele>
        <time>2018-09-16T13:47:03Z</time>
      </trkpt>
      <trkpt lat="47.748435018584132" lon="10.572922015562654">
        <ele>757.17999999999995</ele>
        <time>2018-09-16T13:47:04Z</time>
      </trkpt>
      <trkpt lat="47.748320018872619" lon="10.572945987805724">
        <ele>757.17999999999995</ele>
        <time>2018-09-16T13:47:05Z</time>
      </trkpt>
      <trkpt lat="47.748235026374459" lon="10.572988986968994">
        <ele>756.69000000000005</ele>
        <time>2018-09-16T13:47:06Z</time>
      </trkpt>
      <trkpt lat="47.748137963935733" lon="10.573099963366985">
        <ele>756.69000000000005</ele>
        <time>2018-09-16T13:47:07Z</time>
      </trkpt>
      <trkpt lat="47.748058000579476" lon="10.573201971128583">
        <ele>756.21000000000004</ele>
        <time>2018-09-16T13:47:08Z</time>
      </trkpt>
      <trkpt lat="47.747982982546091" lon="10.573319988325238">
        <ele>755.73000000000002</ele>
        <time>2018-09-16T13:47:09Z</time>
      </trkpt>
      <trkpt lat="47.747905030846596" lon="10.573441023007035">
        <ele>755.73000000000002</ele>
        <time>2018-09-16T13:47:10Z</time>
      </trkpt>
      <trkpt lat="47.747586015611887" lon="10.573908984661102">
        <ele>754.76999999999998</ele>
        <time>2018-09-16T13:47:14Z</time>
      </trkpt>
      <trkpt lat="47.747426005080342" lon="10.574129009619355">
        <ele>753.80999999999995</ele>
        <time>2018-09-16T13:47:16Z</time>
      </trkpt>
      <trkpt lat="47.747333971783519" lon="10.574254989624023">
        <ele>752.85000000000002</ele>
        <time>2018-09-16T13:47:17Z</time>
      </trkpt>
      <trkpt lat="47.747250990942121" lon="10.574305029585958">
        <ele>752.37</ele>
        <time>2018-09-16T13:47:18Z</time>
      </trkpt>
      <trkpt lat="47.747158035635948" lon="10.574380969628692">
        <ele>752.37</ele>
        <time>2018-09-16T13:47:19Z</time>
      </trkpt>
      <trkpt lat="47.747064996510744" lon="10.574464034289122">
        <ele>752.37</ele>
        <time>2018-09-16T13:47:20Z</time>
      </trkpt>
      <trkpt lat="47.746972041204572" lon="10.5745480209589">
        <ele>752.85000000000002</ele>
        <time>2018-09-16T13:47:21Z</time>
      </trkpt>
      <trkpt lat="47.746783029288054" lon="10.57472001761198">
        <ele>752.85000000000002</ele>
        <time>2018-09-16T13:47:23Z</time>
      </trkpt>
      <trkpt lat="47.746594017371535" lon="10.574896037578583">
        <ele>753.33000000000004</ele>
        <time>2018-09-16T13:47:25Z</time>
      </trkpt>
      <trkpt lat="47.745274035260081" lon="10.575704975053668">
        <ele>756.21000000000004</ele>
        <time>2018-09-16T13:47:37Z</time>
      </trkpt>
      <trkpt lat="47.744072992354631" lon="10.576453981921077">
        <ele>760.05999999999995</ele>
        <time>2018-09-16T13:47:47Z</time>
      </trkpt>
      <trkpt lat="47.743002958595753" lon="10.576702002435923">
        <ele>762.46000000000004</ele>
        <time>2018-09-16T13:47:56Z</time>
      </trkpt>
      <trkpt lat="47.742898017168045" lon="10.576657997444272">
        <ele>762.46000000000004</ele>
        <time>2018-09-16T13:47:57Z</time>
      </trkpt>
      <trkpt lat="47.742576990276575" lon="10.576479965820909">
        <ele>762.94000000000005</ele>
        <time>2018-09-16T13:48:00Z</time>
      </trkpt>
      <trkpt lat="47.74185698479414" lon="10.576031031087041">
        <ele>763.41999999999996</ele>
        <time>2018-09-16T13:48:07Z</time>
      </trkpt>
      <trkpt lat="47.741760006174445" lon="10.575951989740133">
        <ele>763.41999999999996</ele>
        <time>2018-09-16T13:48:08Z</time>
      </trkpt>
      <trkpt lat="47.741665039211512" lon="10.575874038040638">
        <ele>763.89999999999998</ele>
        <time>2018-09-16T13:48:09Z</time>
      </trkpt>
      <trkpt lat="47.740926006808877" lon="10.574816996231675">
        <ele>766.30999999999995</ele>
        <time>2018-09-16T13:48:18Z</time>
      </trkpt>
      <trkpt lat="47.740206001326442" lon="10.57351796887815">
        <ele>765.35000000000002</ele>
        <time>2018-09-16T13:48:28Z</time>
      </trkpt>
      <trkpt lat="47.739417012780905" lon="10.572173008695245">
        <ele>769.19000000000005</ele>
        <time>2018-09-16T13:48:36Z</time>
      </trkpt>
      <trkpt lat="47.738471031188965" lon="10.571068022400141">
        <ele>775.44000000000005</ele>
        <time>2018-09-16T13:48:43Z</time>
      </trkpt>
      <trkpt lat="47.73807498626411" lon="10.570231005549431">
        <ele>779.28999999999996</ele>
        <time>2018-09-16T13:48:47Z</time>
      </trkpt>
      <trkpt lat="47.73798999376595" lon="10.56997200474143">
        <ele>780.25</ele>
        <time>2018-09-16T13:48:48Z</time>
      </trkpt>
      <trkpt lat="47.737199999392033" lon="10.568021032959223">
        <ele>783.61000000000001</ele>
        <time>2018-09-16T13:48:55Z</time>
      </trkpt>
      <trkpt lat="47.736007003113627" lon="10.566689986735582">
        <ele>786.5</ele>
        <time>2018-09-16T13:49:01Z</time>
      </trkpt>
      <trkpt lat="47.734227022156119" lon="10.56516095995903">
        <ele>793.22000000000003</ele>
        <time>2018-09-16T13:49:09Z</time>
      </trkpt>
      <trkpt lat="47.732485011219978" lon="10.563607960939407">
        <ele>804.75999999999999</ele>
        <time>2018-09-16T13:49:17Z</time>
      </trkpt>
      <trkpt lat="47.731090011075139" lon="10.562006011605263">
        <ele>809.57000000000005</ele>
        <time>2018-09-16T13:49:24Z</time>
      </trkpt>
      <trkpt lat="47.72997697815299" lon="10.561168994754553">
        <ele>804.27999999999997</ele>
        <time>2018-09-16T13:49:29Z</time>
      </trkpt>
      <trkpt lat="47.728333035483956" lon="10.560461981222034">
        <ele>793.71000000000004</ele>
        <time>2018-09-16T13:49:36Z</time>
      </trkpt>
      <trkpt lat="47.727021016180515" lon="10.559118026867509">
        <ele>795.14999999999998</ele>
        <time>2018-09-16T13:49:43Z</time>
      </trkpt>
      <trkpt lat="47.726073022931814" lon="10.558539004996419">
        <ele>798.99000000000001</ele>
        <time>2018-09-16T13:49:49Z</time>
      </trkpt>
      <trkpt lat="47.725703967735171" lon="10.558416964486241">
        <ele>799.47000000000003</ele>
        <time>2018-09-16T13:49:52Z</time>
      </trkpt>
      <trkpt lat="47.72531202994287" lon="10.558300958946347">
        <ele>800.91999999999996</ele>
        <time>2018-09-16T13:49:56Z</time>
      </trkpt>
      <trkpt lat="47.724521029740572" lon="10.558185037225485">
        <ele>801.88</ele>
        <time>2018-09-16T13:50:03Z</time>
      </trkpt>
      <trkpt lat="47.72441198118031" lon="10.558210015296936">
        <ele>801.88</ele>
        <time>2018-09-16T13:50:04Z</time>
      </trkpt>
      <trkpt lat="47.723651994019747" lon="10.558300036936998">
        <ele>802.36000000000001</ele>
        <time>2018-09-16T13:50:11Z</time>
      </trkpt>
      <trkpt lat="47.723317975178361" lon="10.558247985318303">
        <ele>802.84000000000003</ele>
        <time>2018-09-16T13:50:14Z</time>
      </trkpt>
      <trkpt lat="47.723219990730286" lon="10.558188976719975">
        <ele>802.84000000000003</ele>
        <time>2018-09-16T13:50:15Z</time>
      </trkpt>
      <trkpt lat="47.723054029047489" lon="10.558086968958378">
        <ele>802.84000000000003</ele>
        <time>2018-09-16T13:50:17Z</time>
      </trkpt>
      <trkpt lat="47.723000971600413" lon="10.558055033907294">
        <ele>802.84000000000003</ele>
        <time>2018-09-16T13:50:18Z</time>
      </trkpt>
      <trkpt lat="47.722932994365692" lon="10.557975992560387">
        <ele>803.32000000000005</ele>
        <time>2018-09-16T13:50:19Z</time>
      </trkpt>
      <trkpt lat="47.722871974110603" lon="10.557903992012143">
        <ele>804.27999999999997</ele>
        <time>2018-09-16T13:50:20Z</time>
      </trkpt>
      <trkpt lat="47.722827969118953" lon="10.557830985635519">
        <ele>804.27999999999997</ele>
        <time>2018-09-16T13:50:21Z</time>
      </trkpt>
      <trkpt lat="47.722699977457523" lon="10.55765999481082">
        <ele>804.75999999999999</ele>
        <time>2018-09-16T13:50:23Z</time>
      </trkpt>
      <trkpt lat="47.722384985536337" lon="10.557305021211505">
        <ele>804.75999999999999</ele>
        <time>2018-09-16T13:50:27Z</time>
      </trkpt>
      <trkpt lat="47.722294041886926" lon="10.557227991521358">
        <ele>804.27999999999997</ele>
        <time>2018-09-16T13:50:28Z</time>
      </trkpt>
      <trkpt lat="47.722201002761722" lon="10.557149033993483">
        <ele>804.27999999999997</ele>
        <time>2018-09-16T13:50:29Z</time>
      </trkpt>
      <trkpt lat="47.722102012485266" lon="10.557079967111349">
        <ele>804.27999999999997</ele>
        <time>2018-09-16T13:50:30Z</time>
      </trkpt>
      <trkpt lat="47.721991958096623" lon="10.557003021240234">
        <ele>804.27999999999997</ele>
        <time>2018-09-16T13:50:31Z</time>
      </trkpt>
      <trkpt lat="47.721908977255225" lon="10.556933032348752">
        <ele>804.75999999999999</ele>
        <time>2018-09-16T13:50:32Z</time>
      </trkpt>
      <trkpt lat="47.721821973100305" lon="10.556858014315367">
        <ele>805.24000000000001</ele>
        <time>2018-09-16T13:50:33Z</time>
      </trkpt>
      <trkpt lat="47.721733041107655" lon="10.556782996281981">
        <ele>805.72000000000003</ele>
        <time>2018-09-16T13:50:34Z</time>
      </trkpt>
      <trkpt lat="47.721559032797813" lon="10.556632038205862">
        <ele>805.72000000000003</ele>
        <time>2018-09-16T13:50:36Z</time>
      </trkpt>
      <trkpt lat="47.721256026998162" lon="10.55633096024394">
        <ele>808.13</ele>
        <time>2018-09-16T13:50:40Z</time>
      </trkpt>
      <trkpt lat="47.721172962337732" lon="10.556268012151122">
        <ele>808.61000000000001</ele>
        <time>2018-09-16T13:50:41Z</time>
      </trkpt>
      <trkpt lat="47.721086964011192" lon="10.556202968582511">
        <ele>809.09000000000003</ele>
        <time>2018-09-16T13:50:42Z</time>
      </trkpt>
      <trkpt lat="47.720999037846923" lon="10.55613599717617">
        <ele>809.57000000000005</ele>
        <time>2018-09-16T13:50:43Z</time>
      </trkpt>
      <trkpt lat="47.720898035913706" lon="10.556058967486024">
        <ele>810.04999999999995</ele>
        <time>2018-09-16T13:50:44Z</time>
      </trkpt>
      <trkpt lat="47.720809020102024" lon="10.55602703243494">
        <ele>810.04999999999995</ele>
        <time>2018-09-16T13:50:45Z</time>
      </trkpt>
      <trkpt lat="47.720703994855285" lon="10.555988978594542">
        <ele>810.04999999999995</ele>
        <time>2018-09-16T13:50:46Z</time>
      </trkpt>
      <trkpt lat="47.720493022352457" lon="10.555913038551807">
        <ele>810.52999999999997</ele>
        <time>2018-09-16T13:50:48Z</time>
      </trkpt>
      <trkpt lat="47.720050038769841" lon="10.555753028020263">
        <ele>811.00999999999999</ele>
        <time>2018-09-16T13:50:52Z</time>
      </trkpt>
      <trkpt lat="47.719734963029623" lon="10.55564003996551">
        <ele>811.49000000000001</ele>
        <time>2018-09-16T13:50:55Z</time>
      </trkpt>
      <trkpt lat="47.71964100189507" lon="10.555606009438634">
        <ele>811.97000000000003</ele>
        <time>2018-09-16T13:50:56Z</time>
      </trkpt>
      <trkpt lat="47.719566989690065" lon="10.555394031107426">
        <ele>812.92999999999995</ele>
        <time>2018-09-16T13:50:57Z</time>
      </trkpt>
      <trkpt lat="47.719516027718782" lon="10.555286994203925">
        <ele>813.40999999999997</ele>
        <time>2018-09-16T13:50:58Z</time>
      </trkpt>
      <trkpt lat="47.71944897249341" lon="10.55514701642096">
        <ele>814.37</ele>
        <time>2018-09-16T13:50:59Z</time>
      </trkpt>
      <trkpt lat="47.719378983601928" lon="10.555001003667712">
        <ele>814.85000000000002</ele>
        <time>2018-09-16T13:51:00Z</time>
      </trkpt>
      <trkpt lat="47.719307988882065" lon="10.554853985086083">
        <ele>815.82000000000005</ele>
        <time>2018-09-16T13:51:01Z</time>
      </trkpt>
      <trkpt lat="47.718684040009975" lon="10.553658977150917">
        <ele>823.02999999999997</ele>
        <time>2018-09-16T13:51:09Z</time>
      </trkpt>
      <trkpt lat="47.717823972925544" lon="10.5519899725914">
        <ele>832.15999999999997</ele>
        <time>2018-09-16T13:51:17Z</time>
      </trkpt>
      <trkpt lat="47.717394987121224" lon="10.551115991547704">
        <ele>836</ele>
        <time>2018-09-16T13:51:21Z</time>
      </trkpt>
      <trkpt lat="47.71725500933826" lon="10.550963021814823">
        <ele>836.96000000000004</ele>
        <time>2018-09-16T13:51:22Z</time>
      </trkpt>
      <trkpt lat="47.717107990756631" lon="10.550802005454898">
        <ele>837.45000000000005</ele>
        <time>2018-09-16T13:51:23Z</time>
      </trkpt>
      <trkpt lat="47.716478006914258" lon="10.550279980525374">
        <ele>840.33000000000004</ele>
        <time>2018-09-16T13:51:27Z</time>
      </trkpt>
      <trkpt lat="47.715315017849207" lon="10.54953902028501">
        <ele>835.51999999999998</ele>
        <time>2018-09-16T13:51:34Z</time>
      </trkpt>
      <trkpt lat="47.715178979560733" lon="10.54938999004662">
        <ele>834.55999999999995</ele>
        <time>2018-09-16T13:51:35Z</time>
      </trkpt>
      <trkpt lat="47.715082000941038" lon="10.549210030585527">
        <ele>833.12</ele>
        <time>2018-09-16T13:51:36Z</time>
      </trkpt>
      <trkpt lat="47.715011006221175" lon="10.549034010618925">
        <ele>831.67999999999995</ele>
        <time>2018-09-16T13:51:37Z</time>
      </trkpt>
      <trkpt lat="47.714963983744383" lon="10.548848016187549">
        <ele>830.24000000000001</ele>
        <time>2018-09-16T13:51:38Z</time>
      </trkpt>
      <trkpt lat="47.714933976531029" lon="10.548628997057676">
        <ele>829.26999999999998</ele>
        <time>2018-09-16T13:51:39Z</time>
      </trkpt>
      <trkpt lat="47.714902963489294" lon="10.548403020948172">
        <ele>828.30999999999995</ele>
        <time>2018-09-16T13:51:40Z</time>
      </trkpt>
      <trkpt lat="47.71487102843821" lon="10.548167992383242">
        <ele>827.83000000000004</ele>
        <time>2018-09-16T13:51:41Z</time>
      </trkpt>
      <trkpt lat="47.714816965162754" lon="10.547943022102118">
        <ele>827.35000000000002</ele>
        <time>2018-09-16T13:51:42Z</time>
      </trkpt>
      <trkpt lat="47.714708000421524" lon="10.547769013792276">
        <ele>827.35000000000002</ele>
        <time>2018-09-16T13:51:43Z</time>
      </trkpt>
      <trkpt lat="47.714368030428886" lon="10.547186974436045">
        <ele>828.78999999999996</ele>
        <time>2018-09-16T13:51:46Z</time>
      </trkpt>
      <trkpt lat="47.714252024888992" lon="10.546974996104836">
        <ele>829.75999999999999</ele>
        <time>2018-09-16T13:51:47Z</time>
      </trkpt>
      <trkpt lat="47.713366979733109" lon="10.545181017369032">
        <ele>837.92999999999995</ele>
        <time>2018-09-16T13:51:55Z</time>
      </trkpt>
      <trkpt lat="47.713308976963162" lon="10.54492000490427">
        <ele>838.88999999999999</ele>
        <time>2018-09-16T13:51:56Z</time>
      </trkpt>
      <trkpt lat="47.712914021685719" lon="10.542744984850287">
        <ele>842.25</ele>
        <time>2018-09-16T13:52:04Z</time>
      </trkpt>
      <trkpt lat="47.712842021137476" lon="10.542480032891035">
        <ele>842.25</ele>
        <time>2018-09-16T13:52:05Z</time>
      </trkpt>
      <trkpt lat="47.712720986455679" lon="10.542259002104402">
        <ele>841.76999999999998</ele>
        <time>2018-09-16T13:52:06Z</time>
      </trkpt>
      <trkpt lat="47.712591988965869" lon="10.542052974924445">
        <ele>842.25</ele>
        <time>2018-09-16T13:52:07Z</time>
      </trkpt>
      <trkpt lat="47.712466008961201" lon="10.541851976886392">
        <ele>842.25</ele>
        <time>2018-09-16T13:52:08Z</time>
      </trkpt>
      <trkpt lat="47.712254030629992" lon="10.541477976366878">
        <ele>843.69000000000005</ele>
        <time>2018-09-16T13:52:10Z</time>
      </trkpt>
      <trkpt lat="47.712177000939846" lon="10.541291981935501">
        <ele>844.17999999999995</ele>
        <time>2018-09-16T13:52:11Z</time>
      </trkpt>
      <trkpt lat="47.712106006219983" lon="10.54111797362566">
        <ele>845.13999999999999</ele>
        <time>2018-09-16T13:52:12Z</time>
      </trkpt>
      <trkpt lat="47.71207700483501" lon="10.540932985022664">
        <ele>846.10000000000002</ele>
        <time>2018-09-16T13:52:13Z</time>
      </trkpt>
      <trkpt lat="47.712052026763558" lon="10.540752019733191">
        <ele>847.05999999999995</ele>
        <time>2018-09-16T13:52:14Z</time>
      </trkpt>
      <trkpt lat="47.712036017328501" lon="10.540575999766588">
        <ele>848.01999999999998</ele>
        <time>2018-09-16T13:52:15Z</time>
      </trkpt>
      <trkpt lat="47.712036017328501" lon="10.54040702059865">
        <ele>848.98000000000002</ele>
        <time>2018-09-16T13:52:16Z</time>
      </trkpt>
      <trkpt lat="47.712036017328501" lon="10.540252961218357">
        <ele>850.41999999999996</ele>
        <time>2018-09-16T13:52:17Z</time>
      </trkpt>
      <trkpt lat="47.712015984579921" lon="10.540113989263773">
        <ele>851.87</ele>
        <time>2018-09-16T13:52:18Z</time>
      </trkpt>
      <trkpt lat="47.71197197958827" lon="10.540014998987317">
        <ele>852.83000000000004</ele>
        <time>2018-09-16T13:52:19Z</time>
      </trkpt>
      <trkpt lat="47.711916994303465" lon="10.539938975125551">
        <ele>853.78999999999996</ele>
        <time>2018-09-16T13:52:20Z</time>
      </trkpt>
      <trkpt lat="47.711840970441699" lon="10.539878038689494">
        <ele>854.75</ele>
        <time>2018-09-16T13:52:21Z</time>
      </trkpt>
      <trkpt lat="47.711754972115159" lon="10.53980796597898">
        <ele>855.71000000000004</ele>
        <time>2018-09-16T13:52:22Z</time>
      </trkpt>
      <trkpt lat="47.710861964151263" lon="10.539138000458479">
        <ele>859.55999999999995</ele>
        <time>2018-09-16T13:52:29Z</time>
      </trkpt>
      <trkpt lat="47.710056966170669" lon="10.538589991629124">
        <ele>859.55999999999995</ele>
        <time>2018-09-16T13:52:34Z</time>
      </trkpt>
      <trkpt lat="47.709888992831111" lon="10.538574988022447">
        <ele>858.59000000000003</ele>
        <time>2018-09-16T13:52:35Z</time>
      </trkpt>
      <trkpt lat="47.709724958986044" lon="10.53855998441577">
        <ele>857.14999999999998</ele>
        <time>2018-09-16T13:52:36Z</time>
      </trkpt>
      <trkpt lat="47.709408039227128" lon="10.538530983030796">
        <ele>854.26999999999998</ele>
        <time>2018-09-16T13:52:38Z</time>
      </trkpt>
      <trkpt lat="47.709272000938654" lon="10.538455964997411">
        <ele>852.35000000000002</ele>
        <time>2018-09-16T13:52:39Z</time>
      </trkpt>
      <trkpt lat="47.709160018712282" lon="10.538378013297915">
        <ele>851.38</ele>
        <time>2018-09-16T13:52:40Z</time>
      </trkpt>
      <trkpt lat="47.709094975143671" lon="10.538199981674552">
        <ele>849.94000000000005</ele>
        <time>2018-09-16T13:52:41Z</time>
      </trkpt>
      <trkpt lat="47.709029009565711" lon="10.538020022213459">
        <ele>848.98000000000002</ele>
        <time>2018-09-16T13:52:42Z</time>
      </trkpt>
      <trkpt lat="47.708970000967383" lon="10.537816006690264">
        <ele>848.5</ele>
        <time>2018-09-16T13:52:43Z</time>
      </trkpt>
      <trkpt lat="47.708588037639856" lon="10.536371972411871">
        <ele>846.58000000000004</ele>
        <time>2018-09-16T13:52:49Z</time>
      </trkpt>
      <trkpt lat="47.708488963544369" lon="10.536162005737424">
        <ele>846.10000000000002</ele>
        <time>2018-09-16T13:52:50Z</time>
      </trkpt>
      <trkpt lat="47.707961993291974" lon="10.534969009459019">
        <ele>842.25</ele>
        <time>2018-09-16T13:52:56Z</time>
      </trkpt>
      <trkpt lat="47.707915976643562" lon="10.534796006977558">
        <ele>841.28999999999996</ele>
        <time>2018-09-16T13:52:57Z</time>
      </trkpt>
      <trkpt lat="47.707903990522027" lon="10.534608000889421">
        <ele>840.33000000000004</ele>
        <time>2018-09-16T13:52:58Z</time>
      </trkpt>
      <trkpt lat="47.707893010228872" lon="10.534407002851367">
        <ele>838.88999999999999</ele>
        <time>2018-09-16T13:52:59Z</time>
      </trkpt>
      <trkpt lat="47.707883035764098" lon="10.534185972064734">
        <ele>836.96000000000004</ele>
        <time>2018-09-16T13:53:00Z</time>
      </trkpt>
      <trkpt lat="47.707725036889315" lon="10.532847968861461">
        <ele>824.47000000000003</ele>
        <time>2018-09-16T13:53:05Z</time>
      </trkpt>
      <trkpt lat="47.707107039168477" lon="10.530806975439191">
        <ele>802.36000000000001</ele>
        <time>2018-09-16T13:53:12Z</time>
      </trkpt>
      <trkpt lat="47.706730021163821" lon="10.529068987816572">
        <ele>785.52999999999997</ele>
        <time>2018-09-16T13:53:18Z</time>
      </trkpt>
      <trkpt lat="47.706719040870667" lon="10.528809987008572">
        <ele>783.61000000000001</ele>
        <time>2018-09-16T13:53:19Z</time>
      </trkpt>
      <trkpt lat="47.706742007285357" lon="10.528589962050319">
        <ele>781.69000000000005</ele>
        <time>2018-09-16T13:53:20Z</time>
      </trkpt>
      <trkpt lat="47.706797998398542" lon="10.528364991769195">
        <ele>780.25</ele>
        <time>2018-09-16T13:53:21Z</time>
      </trkpt>
      <trkpt lat="47.706883996725082" lon="10.528167011216283">
        <ele>779.28999999999996</ele>
        <time>2018-09-16T13:53:22Z</time>
      </trkpt>
      <trkpt lat="47.706978963688016" lon="10.527951009571552">
        <ele>778.80999999999995</ele>
        <time>2018-09-16T13:53:23Z</time>
      </trkpt>
      <trkpt lat="47.707087006419897" lon="10.527756968513131">
        <ele>778.80999999999995</ele>
        <time>2018-09-16T13:53:24Z</time>
      </trkpt>
      <trkpt lat="47.707224972546101" lon="10.527584971860051">
        <ele>778.80999999999995</ele>
        <time>2018-09-16T13:53:25Z</time>
      </trkpt>
      <trkpt lat="47.707374002784491" lon="10.527443988248706">
        <ele>778.80999999999995</ele>
        <time>2018-09-16T13:53:26Z</time>
      </trkpt>
      <trkpt lat="47.707535019144416" lon="10.527335023507476">
        <ele>779.28999999999996</ele>
        <time>2018-09-16T13:53:27Z</time>
      </trkpt>
      <trkpt lat="47.707683965563774" lon="10.527235027402639">
        <ele>780.25</ele>
        <time>2018-09-16T13:53:28Z</time>
      </trkpt>
      <trkpt lat="47.707943972200155" lon="10.527059007436037">
        <ele>783.13</ele>
        <time>2018-09-16T13:53:30Z</time>
      </trkpt>
      <trkpt lat="47.708057966083288" lon="10.526932021602988">
        <ele>785.52999999999997</ele>
        <time>2018-09-16T13:53:31Z</time>
      </trkpt>
      <trkpt lat="47.708131978288293" lon="10.526772011071444">
        <ele>787.46000000000004</ele>
        <time>2018-09-16T13:53:32Z</time>
      </trkpt>
      <trkpt lat="47.708185035735369" lon="10.52657101303339">
        <ele>789.38</ele>
        <time>2018-09-16T13:53:33Z</time>
      </trkpt>
      <trkpt lat="47.708206996321678" lon="10.526360040530562">
        <ele>791.29999999999995</ele>
        <time>2018-09-16T13:53:34Z</time>
      </trkpt>
      <trkpt lat="47.708191992715001" lon="10.526121994480491">
        <ele>793.22000000000003</ele>
        <time>2018-09-16T13:53:35Z</time>
      </trkpt>
      <trkpt lat="47.708155028522015" lon="10.525893000885844">
        <ele>795.14999999999998</ele>
        <time>2018-09-16T13:53:36Z</time>
      </trkpt>
      <trkpt lat="47.7081039827317" lon="10.525657972320914">
        <ele>797.07000000000005</ele>
        <time>2018-09-16T13:53:37Z</time>
      </trkpt>
      <trkpt lat="47.708031982183456" lon="10.525438031181693">
        <ele>799.47000000000003</ele>
        <time>2018-09-16T13:53:38Z</time>
      </trkpt>
      <trkpt lat="47.707962999120355" lon="10.525224963203073">
        <ele>801.39999999999998</ele>
        <time>2018-09-16T13:53:39Z</time>
      </trkpt>
      <trkpt lat="47.707432005554438" lon="10.523366024717689">
        <ele>820.62</ele>
        <time>2018-09-16T13:53:48Z</time>
      </trkpt>
      <trkpt lat="47.707357993349433" lon="10.522713996469975">
        <ele>823.50999999999999</ele>
        <time>2018-09-16T13:53:51Z</time>
      </trkpt>
      <trkpt lat="47.707302002236247" lon="10.521083967760205">
        <ele>823.50999999999999</ele>
        <time>2018-09-16T13:53:57Z</time>
      </trkpt>
      <trkpt lat="47.707238970324397" lon="10.520780961960554">
        <ele>823.02999999999997</ele>
        <time>2018-09-16T13:53:58Z</time>
      </trkpt>
      <trkpt lat="47.707176022231579" lon="10.520470999181271">
        <ele>823.02999999999997</ele>
        <time>2018-09-16T13:53:59Z</time>
      </trkpt>
      <trkpt lat="47.706297012045979" lon="10.518089029937983">
        <ele>820.13999999999999</ele>
        <time>2018-09-16T13:54:07Z</time>
      </trkpt>
      <trkpt lat="47.70550400018692" lon="10.516570983454585">
        <ele>820.62</ele>
        <time>2018-09-16T13:54:14Z</time>
      </trkpt>
      <trkpt lat="47.704803021624684" lon="10.515803033486009">
        <ele>820.62</ele>
        <time>2018-09-16T13:54:21Z</time>
      </trkpt>
      <trkpt lat="47.704058038070798" lon="10.515115968883038">
        <ele>820.62</ele>
        <time>2018-09-16T13:54:29Z</time>
      </trkpt>
      <trkpt lat="47.703981008380651" lon="10.514994012191892">
        <ele>820.13999999999999</ele>
        <time>2018-09-16T13:54:30Z</time>
      </trkpt>
      <trkpt lat="47.70391596481204" lon="10.514864008873701">
        <ele>820.13999999999999</ele>
        <time>2018-09-16T13:54:31Z</time>
      </trkpt>
      <trkpt lat="47.703852010890841" lon="10.514723025262356">
        <ele>820.13999999999999</ele>
        <time>2018-09-16T13:54:32Z</time>
      </trkpt>
      <trkpt lat="47.70380700007081" lon="10.514566032215953">
        <ele>819.65999999999997</ele>
        <time>2018-09-16T13:54:33Z</time>
      </trkpt>
      <trkpt lat="47.703761989250779" lon="10.514408033341169">
        <ele>819.17999999999995</ele>
        <time>2018-09-16T13:54:34Z</time>
      </trkpt>
      <trkpt lat="47.703731982037425" lon="10.514231007546186">
        <ele>818.22000000000003</ele>
        <time>2018-09-16T13:54:35Z</time>
      </trkpt>
      <trkpt lat="47.703731982037425" lon="10.514069991186261">
        <ele>817.25999999999999</ele>
        <time>2018-09-16T13:54:36Z</time>
      </trkpt>
      <trkpt lat="47.703731982037425" lon="10.513473032042384">
        <ele>814.85000000000002</ele>
        <time>2018-09-16T13:54:41Z</time>
      </trkpt>
      <trkpt lat="47.703731982037425" lon="10.513361971825361">
        <ele>813.88999999999999</ele>
        <time>2018-09-16T13:54:43Z</time>
      </trkpt>
      <trkpt lat="47.70378596149385" lon="10.513319978490472">
        <ele>813.88999999999999</ele>
        <time>2018-09-16T13:54:44Z</time>
      </trkpt>
      <trkpt lat="47.703834995627403" lon="10.513284020125866">
        <ele>812.92999999999995</ele>
        <time>2018-09-16T13:54:45Z</time>
      </trkpt>
      <trkpt lat="47.703898027539253" lon="10.513239009305835">
        <ele>812.45000000000005</ele>
        <time>2018-09-16T13:54:46Z</time>
      </trkpt>
      <trkpt lat="47.703971033915877" lon="10.513184024021029">
        <ele>811.97000000000003</ele>
        <time>2018-09-16T13:54:47Z</time>
      </trkpt>
      <trkpt lat="47.704053008928895" lon="10.51312199793756">
        <ele>811.00999999999999</ele>
        <time>2018-09-16T13:54:48Z</time>
      </trkpt>
      <trkpt lat="47.70485800690949" lon="10.512788984924555">
        <ele>803.32000000000005</ele>
        <time>2018-09-16T13:54:56Z</time>
      </trkpt>
      <trkpt lat="47.704961020499468" lon="10.512731987982988">
        <ele>801.39999999999998</ele>
        <time>2018-09-16T13:54:57Z</time>
      </trkpt>
      <trkpt lat="47.705057999119163" lon="10.512643977999687">
        <ele>799.95000000000005</ele>
        <time>2018-09-16T13:54:58Z</time>
      </trkpt>
      <trkpt lat="47.705168975517154" lon="10.51254297606647">
        <ele>798.50999999999999</ele>
        <time>2018-09-16T13:54:59Z</time>
      </trkpt>
      <trkpt lat="47.705220021307468" lon="10.512441974133253">
        <ele>797.54999999999995</ele>
        <time>2018-09-16T13:55:00Z</time>
      </trkpt>
      <trkpt lat="47.705283975228667" lon="10.512313982471824">
        <ele>796.11000000000001</ele>
        <time>2018-09-16T13:55:01Z</time>
      </trkpt>
      <trkpt lat="47.705344995483756" lon="10.512191019952297">
        <ele>795.14999999999998</ele>
        <time>2018-09-16T13:55:02Z</time>
      </trkpt>
      <trkpt lat="47.705406015738845" lon="10.5120699852705">
        <ele>794.19000000000005</ele>
        <time>2018-09-16T13:55:03Z</time>
      </trkpt>
      <trkpt lat="47.705463012680411" lon="10.511954985558987">
        <ele>793.22000000000003</ele>
        <time>2018-09-16T13:55:04Z</time>
      </trkpt>
      <trkpt lat="47.705798037350178" lon="10.511485012248158">
        <ele>788.89999999999998</ele>
        <time>2018-09-16T13:55:09Z</time>
      </trkpt>
      <trkpt lat="47.70601898431778" lon="10.511227017268538">
        <ele>786.5</ele>
        <time>2018-09-16T13:55:12Z</time>
      </trkpt>
      <trkpt lat="47.706089979037642" lon="10.511129032820463">
        <ele>786.5</ele>
        <time>2018-09-16T13:55:13Z</time>
      </trkpt>
      <trkpt lat="47.706158040091395" lon="10.511028030887246">
        <ele>786.98000000000002</ele>
        <time>2018-09-16T13:55:14Z</time>
      </trkpt>
      <trkpt lat="47.706225011497736" lon="10.510926023125648">
        <ele>786.98000000000002</ele>
        <time>2018-09-16T13:55:15Z</time>
      </trkpt>
      <trkpt lat="47.706306986510754" lon="10.510804988443851">
        <ele>787.46000000000004</ele>
        <time>2018-09-16T13:55:16Z</time>
      </trkpt>
      <trkpt lat="47.706337999552488" lon="10.510689988732338">
        <ele>787.94000000000005</ele>
        <time>2018-09-16T13:55:17Z</time>
      </trkpt>
      <trkpt lat="47.706375969573855" lon="10.510554034262896">
        <ele>788.41999999999996</ele>
        <time>2018-09-16T13:55:18Z</time>
      </trkpt>
      <trkpt lat="47.706419974565506" lon="10.510422019287944">
        <ele>788.89999999999998</ele>
        <time>2018-09-16T13:55:19Z</time>
      </trkpt>
      <trkpt lat="47.706462973728776" lon="10.510291010141373">
        <ele>789.38</ele>
        <time>2018-09-16T13:55:20Z</time>
      </trkpt>
      <trkpt lat="47.706714011728764" lon="10.509315021336079">
        <ele>795.63</ele>
        <time>2018-09-16T13:55:28Z</time>
      </trkpt>
      <trkpt lat="47.706708982586861" lon="10.509204966947436">
        <ele>796.11000000000001</ele>
        <time>2018-09-16T13:55:29Z</time>
      </trkpt>
      <trkpt lat="47.706661960110068" lon="10.5091049708426">
        <ele>796.11000000000001</ele>
        <time>2018-09-16T13:55:30Z</time>
      </trkpt>
      <trkpt lat="47.706615021452308" lon="10.509001035243273">
        <ele>795.63</ele>
        <time>2018-09-16T13:55:31Z</time>
      </trkpt>
      <trkpt lat="47.706575039774179" lon="10.508882012218237">
        <ele>794.66999999999996</ele>
        <time>2018-09-16T13:55:32Z</time>
      </trkpt>
      <trkpt lat="47.706549977883697" lon="10.508751003071666">
        <ele>794.19000000000005</ele>
        <time>2018-09-16T13:55:33Z</time>
      </trkpt>
      <trkpt lat="47.706523993983865" lon="10.508614964783192">
        <ele>793.71000000000004</ele>
        <time>2018-09-16T13:55:34Z</time>
      </trkpt>
      <trkpt lat="47.706500021740794" lon="10.508486973121762">
        <ele>793.71000000000004</ele>
        <time>2018-09-16T13:55:35Z</time>
      </trkpt>
      <trkpt lat="47.706500021740794" lon="10.508335009217262">
        <ele>794.19000000000005</ele>
        <time>2018-09-16T13:55:36Z</time>
      </trkpt>
      <trkpt lat="47.706500021740794" lon="10.508187990635633">
        <ele>794.66999999999996</ele>
        <time>2018-09-16T13:55:37Z</time>
      </trkpt>
      <trkpt lat="47.706500021740794" lon="10.508038038387895">
        <ele>795.14999999999998</ele>
        <time>2018-09-16T13:55:38Z</time>
      </trkpt>
      <trkpt lat="47.706518964841962" lon="10.507907029241323">
        <ele>795.63</ele>
        <time>2018-09-16T13:55:39Z</time>
      </trkpt>
      <trkpt lat="47.706550983712077" lon="10.507762022316456">
        <ele>796.59000000000003</ele>
        <time>2018-09-16T13:55:40Z</time>
      </trkpt>
      <trkpt lat="47.706747958436608" lon="10.506834983825684">
        <ele>801.88</ele>
        <time>2018-09-16T13:55:46Z</time>
      </trkpt>
      <trkpt lat="47.706752987578511" lon="10.506662987172604">
        <ele>802.84000000000003</ele>
        <time>2018-09-16T13:55:47Z</time>
      </trkpt>
      <trkpt lat="47.706747036427259" lon="10.506491996347904">
        <ele>803.79999999999995</ele>
        <time>2018-09-16T13:55:48Z</time>
      </trkpt>
      <trkpt lat="47.706739995628595" lon="10.506318993866444">
        <ele>804.75999999999999</ele>
        <time>2018-09-16T13:55:49Z</time>
      </trkpt>
      <trkpt lat="47.706719040870667" lon="10.506130987778306">
        <ele>805.24000000000001</ele>
        <time>2018-09-16T13:55:50Z</time>
      </trkpt>
      <trkpt lat="47.706670006737113" lon="10.505959996953607">
        <ele>805.72000000000003</ele>
        <time>2018-09-16T13:55:51Z</time>
      </trkpt>
      <trkpt lat="47.706618960946798" lon="10.505781965330243">
        <ele>805.72000000000003</ele>
        <time>2018-09-16T13:55:52Z</time>
      </trkpt>
      <trkpt lat="47.706566993147135" lon="10.50560100004077">
        <ele>806.20000000000005</ele>
        <time>2018-09-16T13:55:53Z</time>
      </trkpt>
      <trkpt lat="47.706476971507072" lon="10.505217025056481">
        <ele>806.67999999999995</ele>
        <time>2018-09-16T13:55:55Z</time>
      </trkpt>
      <trkpt lat="47.706260969862342" lon="10.503408964723349">
        <ele>808.13</ele>
        <time>2018-09-16T13:56:04Z</time>
      </trkpt>
      <trkpt lat="47.706152005121112" lon="10.501496968790889">
        <ele>809.57000000000005</ele>
        <time>2018-09-16T13:56:11Z</time>
      </trkpt>
      <trkpt lat="47.706072041764855" lon="10.501211984083056">
        <ele>810.04999999999995</ele>
        <time>2018-09-16T13:56:12Z</time>
      </trkpt>
      <trkpt lat="47.705981014296412" lon="10.500925993546844">
        <ele>810.52999999999997</ele>
        <time>2018-09-16T13:56:13Z</time>
      </trkpt>
      <trkpt lat="47.705856040120125" lon="10.500662969425321">
        <ele>810.52999999999997</ele>
        <time>2018-09-16T13:56:14Z</time>
      </trkpt>
      <trkpt lat="47.705721007660031" lon="10.500410003587604">
        <ele>811.00999999999999</ele>
        <time>2018-09-16T13:56:15Z</time>
      </trkpt>
      <trkpt lat="47.705565020442009" lon="10.500175980851054">
        <ele>811.49000000000001</ele>
        <time>2018-09-16T13:56:16Z</time>
      </trkpt>
      <trkpt lat="47.704498004168272" lon="10.498975021764636">
        <ele>815.82000000000005</ele>
        <time>2018-09-16T13:56:22Z</time>
      </trkpt>
      <trkpt lat="47.704175971448421" lon="10.498615019023418">
        <ele>816.77999999999997</ele>
        <time>2018-09-16T13:56:24Z</time>
      </trkpt>
      <trkpt lat="47.704055020585656" lon="10.498401029035449">
        <ele>817.25999999999999</ele>
        <time>2018-09-16T13:56:25Z</time>
      </trkpt>
      <trkpt lat="47.703963993117213" lon="10.498162982985377">
        <ele>817.74000000000001</ele>
        <time>2018-09-16T13:56:26Z</time>
      </trkpt>
      <trkpt lat="47.703889980912209" lon="10.497896019369364">
        <ele>817.74000000000001</ele>
        <time>2018-09-16T13:56:27Z</time>
      </trkpt>
      <trkpt lat="47.703828038647771" lon="10.497606005519629">
        <ele>818.22000000000003</ele>
        <time>2018-09-16T13:56:28Z</time>
      </trkpt>
      <trkpt lat="47.703365022316575" lon="10.495809009298682">
        <ele>821.58000000000004</ele>
        <time>2018-09-16T13:56:34Z</time>
      </trkpt>
      <trkpt lat="47.703319005668163" lon="10.495523018762469">
        <ele>821.58000000000004</ele>
        <time>2018-09-16T13:56:35Z</time>
      </trkpt>
      <trkpt lat="47.703297967091203" lon="10.495221018791199">
        <ele>821.10000000000002</ele>
        <time>2018-09-16T13:56:36Z</time>
      </trkpt>
      <trkpt lat="47.703282041475177" lon="10.494596986100078">
        <ele>820.62</ele>
        <time>2018-09-16T13:56:38Z</time>
      </trkpt>
      <trkpt lat="47.703225966542959" lon="10.494276965036988">
        <ele>820.62</ele>
        <time>2018-09-16T13:56:39Z</time>
      </trkpt>
      <trkpt lat="47.702876022085547" lon="10.492101022973657">
        <ele>821.58000000000004</ele>
        <time>2018-09-16T13:56:46Z</time>
      </trkpt>
      <trkpt lat="47.702832017093897" lon="10.491085974499583">
        <ele>823.99000000000001</ele>
        <time>2018-09-16T13:56:50Z</time>
      </trkpt>
      <trkpt lat="47.702791029587388" lon="10.490866033360362">
        <ele>824.47000000000003</ele>
        <time>2018-09-16T13:56:51Z</time>
      </trkpt>
      <trkpt lat="47.702708970755339" lon="10.49067098647356">
        <ele>824.95000000000005</ele>
        <time>2018-09-16T13:56:52Z</time>
      </trkpt>
      <trkpt lat="47.702622972428799" lon="10.490477029234171">
        <ele>825.42999999999995</ele>
        <time>2018-09-16T13:56:53Z</time>
      </trkpt>
      <trkpt lat="47.702535968273878" lon="10.490279970690608">
        <ele>825.90999999999997</ele>
        <time>2018-09-16T13:56:54Z</time>
      </trkpt>
      <trkpt lat="47.702447036281228" lon="10.490079978480935">
        <ele>826.38999999999999</ele>
        <time>2018-09-16T13:56:55Z</time>
      </trkpt>
      <trkpt lat="47.702071024104953" lon="10.489293001592159">
        <ele>827.83000000000004</ele>
        <time>2018-09-16T13:56:59Z</time>
      </trkpt>
      <trkpt lat="47.701953006908298" lon="10.489132991060615">
        <ele>828.30999999999995</ele>
        <time>2018-09-16T13:57:00Z</time>
      </trkpt>
      <trkpt lat="47.70183096639812" lon="10.488967029377818">
        <ele>828.78999999999996</ele>
        <time>2018-09-16T13:57:01Z</time>
      </trkpt>
      <trkpt lat="47.701689982786775" lon="10.488825961947441">
        <ele>829.26999999999998</ele>
        <time>2018-09-16T13:57:02Z</time>
      </trkpt>
      <trkpt lat="47.701536007225513" lon="10.488701993599534">
        <ele>829.26999999999998</ele>
        <time>2018-09-16T13:57:03Z</time>
      </trkpt>
      <trkpt lat="47.70137800835073" lon="10.488576013594866">
        <ele>829.75999999999999</ele>
        <time>2018-09-16T13:57:04Z</time>
      </trkpt>
      <trkpt lat="47.700472008436918" lon="10.488105034455657">
        <ele>832.15999999999997</ele>
        <time>2018-09-16T13:57:10Z</time>
      </trkpt>
      <trkpt lat="47.699571037665009" lon="10.487738996744156">
        <ele>832.63999999999999</ele>
        <time>2018-09-16T13:57:15Z</time>
      </trkpt>
      <trkpt lat="47.69938001409173" lon="10.48759700730443">
        <ele>832.63999999999999</ele>
        <time>2018-09-16T13:57:16Z</time>
      </trkpt>
      <trkpt lat="47.699193013831973" lon="10.487419981509447">
        <ele>832.15999999999997</ele>
        <time>2018-09-16T13:57:17Z</time>
      </trkpt>
      <trkpt lat="47.699007019400597" lon="10.487218983471394">
        <ele>831.20000000000005</ele>
        <time>2018-09-16T13:57:18Z</time>
      </trkpt>
      <trkpt lat="47.698829993605614" lon="10.486984038725495">
        <ele>830.24000000000001</ele>
        <time>2018-09-16T13:57:19Z</time>
      </trkpt>
      <trkpt lat="47.698252983391285" lon="10.486298985779285">
        <ele>827.35000000000002</ele>
        <time>2018-09-16T13:57:22Z</time>
      </trkpt>
      <trkpt lat="47.698032958433032" lon="10.486120032146573">
        <ele>826.38999999999999</ele>
        <time>2018-09-16T13:57:23Z</time>
      </trkpt>
      <trkpt lat="47.697798013687134" lon="10.485967984423041">
        <ele>825.42999999999995</ele>
        <time>2018-09-16T13:57:24Z</time>
      </trkpt>
      <trkpt lat="47.696878015995026" lon="10.485345963388681">
        <ele>824.47000000000003</ele>
        <time>2018-09-16T13:57:28Z</time>
      </trkpt>
      <trkpt lat="47.69667299464345" lon="10.485134990885854">
        <ele>824.47000000000003</ele>
        <time>2018-09-16T13:57:29Z</time>
      </trkpt>
      <trkpt lat="47.695507993921638" lon="10.484146010130644">
        <ele>827.35000000000002</ele>
        <time>2018-09-16T13:57:35Z</time>
      </trkpt>
      <trkpt lat="47.693867990747094" lon="10.48336498439312">
        <ele>834.55999999999995</ele>
        <time>2018-09-16T13:57:43Z</time>
      </trkpt>
      <trkpt lat="47.692303005605936" lon="10.482495026662946">
        <ele>840.33000000000004</ele>
        <time>2018-09-16T13:57:49Z</time>
      </trkpt>
      <trkpt lat="47.690097978338599" lon="10.480852006003261">
        <ele>843.69000000000005</ele>
        <time>2018-09-16T13:57:58Z</time>
      </trkpt>
      <trkpt lat="47.68984098918736" lon="10.480727031826973">
        <ele>843.69000000000005</ele>
        <time>2018-09-16T13:57:59Z</time>
      </trkpt>
      <trkpt lat="47.689578970894217" lon="10.480622006580234">
        <ele>844.17999999999995</ele>
        <time>2018-09-16T13:58:00Z</time>
      </trkpt>
      <trkpt lat="47.688849996775389" lon="10.480303997173905">
        <ele>845.13999999999999</ele>
        <time>2018-09-16T13:58:03Z</time>
      </trkpt>
      <trkpt lat="47.68861697986722" lon="10.480164019390941">
        <ele>845.62</ele>
        <time>2018-09-16T13:58:04Z</time>
      </trkpt>
      <trkpt lat="47.688400978222489" lon="10.479978024959564">
        <ele>846.10000000000002</ele>
        <time>2018-09-16T13:58:05Z</time>
      </trkpt>
      <trkpt lat="47.688192017376423" lon="10.479789013043046">
        <ele>847.05999999999995</ele>
        <time>2018-09-16T13:58:06Z</time>
      </trkpt>
      <trkpt lat="47.687999987974763" lon="10.47956395894289">
        <ele>847.53999999999996</ele>
        <time>2018-09-16T13:58:07Z</time>
      </trkpt>
      <trkpt lat="47.687818016856909" lon="10.47932599671185">
        <ele>848.01999999999998</ele>
        <time>2018-09-16T13:58:08Z</time>
      </trkpt>
      <trkpt lat="47.687659012153745" lon="10.479074958711863">
        <ele>849.94000000000005</ele>
        <time>2018-09-16T13:58:10Z</time>
      </trkpt>
      <trkpt lat="47.686394015327096" lon="10.477297995239496">
        <ele>861</ele>
        <time>2018-09-16T13:58:18Z</time>
      </trkpt>
      <trkpt lat="47.685089036822319" lon="10.476644961163402">
        <ele>868.21000000000004</ele>
        <time>2018-09-16T13:58:25Z</time>
      </trkpt>
      <trkpt lat="47.68356797285378" lon="10.475809033960104">
        <ele>870.13</ele>
        <time>2018-09-16T13:58:33Z</time>
      </trkpt>
      <trkpt lat="47.682569017633796" lon="10.474509000778198">
        <ele>876.38</ele>
        <time>2018-09-16T13:58:40Z</time>
      </trkpt>
      <trkpt lat="47.681592023000121" lon="10.472521986812353">
        <ele>882.14999999999998</ele>
        <time>2018-09-16T13:58:48Z</time>
      </trkpt>
      <trkpt lat="47.681425977498293" lon="10.4723019618541">
        <ele>882.63</ele>
        <time>2018-09-16T13:58:49Z</time>
      </trkpt>
      <trkpt lat="47.681235037744045" lon="10.47212996520102">
        <ele>883.59000000000003</ele>
        <time>2018-09-16T13:58:50Z</time>
      </trkpt>
      <trkpt lat="47.681048959493637" lon="10.471962997689843">
        <ele>884.07000000000005</ele>
        <time>2018-09-16T13:58:51Z</time>
      </trkpt>
      <trkpt lat="47.680847039446235" lon="10.471865013241768">
        <ele>885.02999999999997</ele>
        <time>2018-09-16T13:58:52Z</time>
      </trkpt>
      <trkpt lat="47.680642018094659" lon="10.471774991601706">
        <ele>885.99000000000001</ele>
        <time>2018-09-16T13:58:53Z</time>
      </trkpt>
      <trkpt lat="47.680433979257941" lon="10.471684969961643">
        <ele>887.42999999999995</ele>
        <time>2018-09-16T13:58:54Z</time>
      </trkpt>
      <trkpt lat="47.68021403811872" lon="10.471646999940276">
        <ele>888.88</ele>
        <time>2018-09-16T13:58:55Z</time>
      </trkpt>
      <trkpt lat="47.679984038695693" lon="10.471650017425418">
        <ele>890.32000000000005</ele>
        <time>2018-09-16T13:58:56Z</time>
      </trkpt>
      <trkpt lat="47.679754039272666" lon="10.47165404073894">
        <ele>891.75999999999999</ele>
        <time>2018-09-16T13:58:57Z</time>
      </trkpt>
      <trkpt lat="47.67877696081996" lon="10.471542980521917">
        <ele>898.49000000000001</ele>
        <time>2018-09-16T13:59:02Z</time>
      </trkpt>
      <trkpt lat="47.678598007187247" lon="10.471468968316913">
        <ele>899.45000000000005</ele>
        <time>2018-09-16T13:59:03Z</time>
      </trkpt>
      <trkpt lat="47.677608020603657" lon="10.471034031361341">
        <ele>901.37</ele>
        <time>2018-09-16T13:59:08Z</time>
      </trkpt>
      <trkpt lat="47.677172999829054" lon="10.4710310138762">
        <ele>900.88999999999999</ele>
        <time>2018-09-16T13:59:10Z</time>
      </trkpt>
      <trkpt lat="47.676945012062788" lon="10.471072001382709">
        <ele>900.40999999999997</ele>
        <time>2018-09-16T13:59:11Z</time>
      </trkpt>
      <trkpt lat="47.676728004589677" lon="10.471150958910584">
        <ele>899.92999999999995</ele>
        <time>2018-09-16T13:59:12Z</time>
      </trkpt>
      <trkpt lat="47.676504962146282" lon="10.471254978328943">
        <ele>898.97000000000003</ele>
        <time>2018-09-16T13:59:13Z</time>
      </trkpt>
      <trkpt lat="47.676282003521919" lon="10.471358997747302">
        <ele>898.97000000000003</ele>
        <time>2018-09-16T13:59:14Z</time>
      </trkpt>
      <trkpt lat="47.676066001877189" lon="10.471459999680519">
        <ele>898.49000000000001</ele>
        <time>2018-09-16T13:59:15Z</time>
      </trkpt>
      <trkpt lat="47.675856035202742" lon="10.471542980521917">
        <ele>898.49000000000001</ele>
        <time>2018-09-16T13:59:16Z</time>
      </trkpt>
      <trkpt lat="47.675644978880882" lon="10.47157097607851">
        <ele>898.49000000000001</ele>
        <time>2018-09-16T13:59:17Z</time>
      </trkpt>
      <trkpt lat="47.675431994721293" lon="10.471599977463484">
        <ele>898.97000000000003</ele>
        <time>2018-09-16T13:59:18Z</time>
      </trkpt>
      <trkpt lat="47.675212975591421" lon="10.471608024090528">
        <ele>898.97000000000003</ele>
        <time>2018-09-16T13:59:19Z</time>
      </trkpt>
      <trkpt lat="47.674999991431832" lon="10.471534011885524">
        <ele>899.45000000000005</ele>
        <time>2018-09-16T13:59:20Z</time>
      </trkpt>
      <trkpt lat="47.674782983958721" lon="10.471457988023758">
        <ele>899.45000000000005</ele>
        <time>2018-09-16T13:59:21Z</time>
      </trkpt>
      <trkpt lat="47.674562036991119" lon="10.471322033554316">
        <ele>899.92999999999995</ele>
        <time>2018-09-16T13:59:22Z</time>
      </trkpt>
      <trkpt lat="47.672852966934443" lon="10.470251999795437">
        <ele>906.17999999999995</ele>
        <time>2018-09-16T13:59:30Z</time>
      </trkpt>
      <trkpt lat="47.671503983438015" lon="10.469942959025502">
        <ele>908.58000000000004</ele>
        <time>2018-09-16T13:59:36Z</time>
      </trkpt>
      <trkpt lat="47.669169958680868" lon="10.469685969874263">
        <ele>898.00999999999999</ele>
        <time>2018-09-16T13:59:46Z</time>
      </trkpt>
      <trkpt lat="47.667098036035895" lon="10.469265030696988">
        <ele>892.24000000000001</ele>
        <time>2018-09-16T13:59:55Z</time>
      </trkpt>
      <trkpt lat="47.665828010067344" lon="10.468366993591189">
        <ele>895.61000000000001</ele>
        <time>2018-09-16T14:00:02Z</time>
      </trkpt>
      <trkpt lat="47.664727969095111" lon="10.46673696488142">
        <ele>895.12</ele>
        <time>2018-09-16T14:00:09Z</time>
      </trkpt>
      <trkpt lat="47.664000000804663" lon="10.464636962860823">
        <ele>895.61000000000001</ele>
        <time>2018-09-16T14:00:16Z</time>
      </trkpt>
      <trkpt lat="47.663193996995687" lon="10.462945997714996">
        <ele>894.15999999999997</ele>
        <time>2018-09-16T14:00:23Z</time>
      </trkpt>
      <trkpt lat="47.662116000428796" lon="10.461921980604529">
        <ele>887.42999999999995</ele>
        <time>2018-09-16T14:00:29Z</time>
      </trkpt>
      <trkpt lat="47.661331035196781" lon="10.461129974573851">
        <ele>881.19000000000005</ele>
        <time>2018-09-16T14:00:33Z</time>
      </trkpt>
      <trkpt lat="47.661170018836856" lon="10.460839038714767">
        <ele>879.74000000000001</ele>
        <time>2018-09-16T14:00:34Z</time>
      </trkpt>
      <trkpt lat="47.661024006083608" lon="10.460575008764863">
        <ele>878.29999999999995</ele>
        <time>2018-09-16T14:00:35Z</time>
      </trkpt>
      <trkpt lat="47.660884028300643" lon="10.460320031270385">
        <ele>877.34000000000003</ele>
        <time>2018-09-16T14:00:36Z</time>
      </trkpt>
      <trkpt lat="47.660780008882284" lon="10.460049966350198">
        <ele>876.38</ele>
        <time>2018-09-16T14:00:37Z</time>
      </trkpt>
      <trkpt lat="47.660267958417535" lon="10.45874297618866">
        <ele>873.00999999999999</ele>
        <time>2018-09-16T14:00:42Z</time>
      </trkpt>
      <trkpt lat="47.660120017826557" lon="10.45852798037231">
        <ele>872.04999999999995</ele>
        <time>2018-09-16T14:00:43Z</time>
      </trkpt>
      <trkpt lat="47.659971993416548" lon="10.458311978727579">
        <ele>871.57000000000005</ele>
        <time>2018-09-16T14:00:44Z</time>
      </trkpt>
      <trkpt lat="47.659828998148441" lon="10.458105029538274">
        <ele>870.61000000000001</ele>
        <time>2018-09-16T14:00:45Z</time>
      </trkpt>
      <trkpt lat="47.65963101759553" lon="10.457950970157981">
        <ele>869.64999999999998</ele>
        <time>2018-09-16T14:00:46Z</time>
      </trkpt>
      <trkpt lat="47.65943999402225" lon="10.457804035395384">
        <ele>869.16999999999996</ele>
        <time>2018-09-16T14:00:47Z</time>
      </trkpt>
      <trkpt lat="47.659237990155816" lon="10.457690041512251">
        <ele>868.69000000000005</ele>
        <time>2018-09-16T14:00:48Z</time>
      </trkpt>
      <trkpt lat="47.659024000167847" lon="10.457600019872189">
        <ele>868.21000000000004</ele>
        <time>2018-09-16T14:00:49Z</time>
      </trkpt>
      <trkpt lat="47.658807998523116" lon="10.457565989345312">
        <ele>868.21000000000004</ele>
        <time>2018-09-16T14:00:50Z</time>
      </trkpt>
      <trkpt lat="47.658583028241992" lon="10.45756196603179">
        <ele>868.21000000000004</ele>
        <time>2018-09-16T14:00:51Z</time>
      </trkpt>
      <trkpt lat="47.658361997455359" lon="10.457558026537299">
        <ele>868.21000000000004</ele>
        <time>2018-09-16T14:00:52Z</time>
      </trkpt>
      <trkpt lat="47.657420039176941" lon="10.45747596770525">
        <ele>869.16999999999996</ele>
        <time>2018-09-16T14:00:57Z</time>
      </trkpt>
      <trkpt lat="47.657265979796648" lon="10.457413019612432">
        <ele>869.64999999999998</ele>
        <time>2018-09-16T14:00:58Z</time>
      </trkpt>
      <trkpt lat="47.656485037878156" lon="10.456858975812793">
        <ele>872.04999999999995</ele>
        <time>2018-09-16T14:01:05Z</time>
      </trkpt>
      <trkpt lat="47.65611195936799" lon="10.456672981381416">
        <ele>876.38</ele>
        <time>2018-09-16T14:01:12Z</time>
      </trkpt>
      <trkpt lat="47.656083041802049" lon="10.456611039116979">
        <ele>877.34000000000003</ele>
        <time>2018-09-16T14:01:16Z</time>
      </trkpt>
      <trkpt lat="47.655924959108233" lon="10.456346003338695">
        <ele>878.77999999999997</ele>
        <time>2018-09-16T14:01:20Z</time>
      </trkpt>
      <trkpt lat="47.65585002489388" lon="10.456310966983438">
        <ele>879.25999999999999</ele>
        <time>2018-09-16T14:01:21Z</time>
      </trkpt>
      <trkpt lat="47.655784981325269" lon="10.456329993903637">
        <ele>878.77999999999997</ele>
        <time>2018-09-16T14:01:22Z</time>
      </trkpt>
      <trkpt lat="47.655717004090548" lon="10.456363018602133">
        <ele>878.77999999999997</ele>
        <time>2018-09-16T14:01:23Z</time>
      </trkpt>
      <trkpt lat="47.655665958300233" lon="10.456430995836854">
        <ele>878.77999999999997</ele>
        <time>2018-09-16T14:01:24Z</time>
      </trkpt>
      <trkpt lat="47.655645003542304" lon="10.456533003598452">
        <ele>878.77999999999997</ele>
        <time>2018-09-16T14:01:25Z</time>
      </trkpt>
      <trkpt lat="47.655621031299233" lon="10.456643979996443">
        <ele>878.29999999999995</ele>
        <time>2018-09-16T14:01:26Z</time>
      </trkpt>
      <trkpt lat="47.655612984672189" lon="10.456770965829492">
        <ele>877.82000000000005</ele>
        <time>2018-09-16T14:01:27Z</time>
      </trkpt>
      <trkpt lat="47.655645003542304" lon="10.456882026046515">
        <ele>877.34000000000003</ele>
        <time>2018-09-16T14:01:28Z</time>
      </trkpt>
      <trkpt lat="47.655645003542304" lon="10.456882026046515">
        <ele>876.86000000000001</ele>
        <time>2018-09-16T14:01:29Z</time>
      </trkpt>
      <trkpt lat="47.655755979940295" lon="10.457180002704263">
        <ele>876.38</ele>
        <time>2018-09-16T14:01:30Z</time>
      </trkpt>
      <trkpt lat="47.655725972726941" lon="10.457316963002086">
        <ele>875.89999999999998</ele>
        <time>2018-09-16T14:01:31Z</time>
      </trkpt>
      <trkpt lat="47.655452974140644" lon="10.458692014217377">
        <ele>873.98000000000002</ele>
        <time>2018-09-16T14:01:38Z</time>
      </trkpt>
      <trkpt lat="47.655272008851171" lon="10.460711969062686">
        <ele>872.52999999999997</ele>
        <time>2018-09-16T14:01:46Z</time>
      </trkpt>
      <trkpt lat="47.65535700134933" lon="10.463159987702966">
        <ele>874.94000000000005</ele>
        <time>2018-09-16T14:01:56Z</time>
      </trkpt>
      <trkpt lat="47.655140999704599" lon="10.465055974200368">
        <ele>879.74000000000001</ele>
        <time>2018-09-16T14:02:05Z</time>
      </trkpt>
      <trkpt lat="47.654965985566378" lon="10.465797018259764">
        <ele>882.63</ele>
        <time>2018-09-16T14:02:11Z</time>
      </trkpt>
      <trkpt lat="47.654850985854864" lon="10.466022994369268">
        <ele>883.11000000000001</ele>
        <time>2018-09-16T14:02:15Z</time>
      </trkpt>
      <trkpt lat="47.654800023883581" lon="10.466043027117848">
        <ele>882.63</ele>
        <time>2018-09-16T14:02:16Z</time>
      </trkpt>
      <trkpt lat="47.654744032770395" lon="10.466065993532538">
        <ele>882.63</ele>
        <time>2018-09-16T14:02:17Z</time>
      </trkpt>
      <trkpt lat="47.654655016958714" lon="10.466016037389636">
        <ele>882.63</ele>
        <time>2018-09-16T14:02:18Z</time>
      </trkpt>
      <trkpt lat="47.654579998925328" lon="10.465973960235715">
        <ele>882.63</ele>
        <time>2018-09-16T14:02:19Z</time>
      </trkpt>
      <trkpt lat="47.654495006427169" lon="10.465914029628038">
        <ele>882.63</ele>
        <time>2018-09-16T14:02:20Z</time>
      </trkpt>
      <trkpt lat="47.654404984787107" lon="10.465842029079795">
        <ele>882.63</ele>
        <time>2018-09-16T14:02:21Z</time>
      </trkpt>
      <trkpt lat="47.653398988768458" lon="10.465136021375656">
        <ele>882.63</ele>
        <time>2018-09-16T14:02:29Z</time>
      </trkpt>
      <trkpt lat="47.651550024747849" lon="10.463910000398755">
        <ele>881.66999999999996</ele>
        <time>2018-09-16T14:02:41Z</time>
      </trkpt>
      <trkpt lat="47.649795021861792" lon="10.463443966582417">
        <ele>885.02999999999997</ele>
        <time>2018-09-16T14:02:51Z</time>
      </trkpt>
      <trkpt lat="47.648344030603766" lon="10.463817967101932">
        <ele>889.84000000000003</ele>
        <time>2018-09-16T14:02:59Z</time>
      </trkpt>
      <trkpt lat="47.646879041567445" lon="10.464918008074164">
        <ele>890.79999999999995</ele>
        <time>2018-09-16T14:03:07Z</time>
      </trkpt>
      <trkpt lat="47.64478700235486" lon="10.466763032600284">
        <ele>892.24000000000001</ele>
        <time>2018-09-16T14:03:18Z</time>
      </trkpt>
      <trkpt lat="47.642323980107903" lon="10.468714004382491">
        <ele>892.72000000000003</ele>
        <time>2018-09-16T14:03:31Z</time>
      </trkpt>
      <trkpt lat="47.640513991937041" lon="10.46935698017478">
        <ele>893.67999999999995</ele>
        <time>2018-09-16T14:03:39Z</time>
      </trkpt>
      <trkpt lat="47.639338010922074" lon="10.469359997659922">
        <ele>897.04999999999995</ele>
        <time>2018-09-16T14:03:45Z</time>
      </trkpt>
      <trkpt lat="47.638565031811595" lon="10.469194035977125">
        <ele>901.37</ele>
        <time>2018-09-16T14:03:51Z</time>
      </trkpt>
      <trkpt lat="47.637670012190938" lon="10.468826992437243">
        <ele>907.62</ele>
        <time>2018-09-16T14:04:01Z</time>
      </trkpt>
      <trkpt lat="47.636829977855086" lon="10.468284012749791">
        <ele>910.99000000000001</ele>
        <time>2018-09-16T14:04:13Z</time>
      </trkpt>
      <trkpt lat="47.636547004804015" lon="10.468052001670003">
        <ele>911.47000000000003</ele>
        <time>2018-09-16T14:04:22Z</time>
      </trkpt>
      <trkpt lat="47.636400992050767" lon="10.467930966988206">
        <ele>910.99000000000001</ele>
        <time>2018-09-16T14:04:27Z</time>
      </trkpt>
      <trkpt lat="47.636396968737245" lon="10.467653023079038">
        <ele>911.47000000000003</ele>
        <time>2018-09-16T14:04:28Z</time>
      </trkpt>
      <trkpt lat="47.636396968737245" lon="10.467653023079038">
        <ele>911.47000000000003</ele>
        <time>2018-09-16T14:04:29Z</time>
      </trkpt>
      <trkpt lat="47.636340977624059" lon="10.467514973133802">
        <ele>911.95000000000005</ele>
        <time>2018-09-16T14:04:30Z</time>
      </trkpt>
      <trkpt lat="47.636268977075815" lon="10.467459987848997">
        <ele>911.95000000000005</ele>
        <time>2018-09-16T14:04:31Z</time>
      </trkpt>
      <trkpt lat="47.636159006506205" lon="10.467459987848997">
        <ele>911.95000000000005</ele>
        <time>2018-09-16T14:04:32Z</time>
      </trkpt>
      <trkpt lat="47.636139979586005" lon="10.467459987848997">
        <ele>911.95000000000005</ele>
        <time>2018-09-16T14:04:33Z</time>
      </trkpt>
      <trkpt lat="47.635947028174996" lon="10.467488989233971">
        <ele>911.95000000000005</ele>
        <time>2018-09-16T14:04:34Z</time>
      </trkpt>
      <trkpt lat="47.635858012363315" lon="10.467383963987231">
        <ele>911.47000000000003</ele>
        <time>2018-09-16T14:04:35Z</time>
      </trkpt>
      <trkpt lat="47.635756004601717" lon="10.467265024781227">
        <ele>911.47000000000003</ele>
        <time>2018-09-16T14:04:36Z</time>
      </trkpt>
      <trkpt lat="47.635644022375345" lon="10.467133009806275">
        <ele>911.47000000000003</ele>
        <time>2018-09-16T14:04:37Z</time>
      </trkpt>
      <trkpt lat="47.635523993521929" lon="10.466984985396266">
        <ele>911.95000000000005</ele>
        <time>2018-09-16T14:04:38Z</time>
      </trkpt>
      <trkpt lat="47.634830977767706" lon="10.465637007728219">
        <ele>911.47000000000003</ele>
        <time>2018-09-16T14:04:44Z</time>
      </trkpt>
      <trkpt lat="47.634445996955037" lon="10.463820984587073">
        <ele>908.10000000000002</ele>
        <time>2018-09-16T14:04:50Z</time>
      </trkpt>
      <trkpt lat="47.634154977276921" lon="10.460996031761169">
        <ele>903.77999999999997</ele>
        <time>2018-09-16T14:04:59Z</time>
      </trkpt>
      <trkpt lat="47.634005025029182" lon="10.460404017940164">
        <ele>902.82000000000005</ele>
        <time>2018-09-16T14:05:01Z</time>
      </trkpt>
      <trkpt lat="47.633899999782443" lon="10.460129007697105">
        <ele>902.82000000000005</ele>
        <time>2018-09-16T14:05:02Z</time>
      </trkpt>
      <trkpt lat="47.633787011727691" lon="10.459861038252711">
        <ele>902.33000000000004</ele>
        <time>2018-09-16T14:05:03Z</time>
      </trkpt>
      <trkpt lat="47.632765006273985" lon="10.458259005099535">
        <ele>900.88999999999999</ele>
        <time>2018-09-16T14:05:10Z</time>
      </trkpt>
      <trkpt lat="47.630845969542861" lon="10.455987006425858">
        <ele>899.92999999999995</ele>
        <time>2018-09-16T14:05:21Z</time>
      </trkpt>
      <trkpt lat="47.628689976409078" lon="10.453229025006294">
        <ele>897.52999999999997</ele>
        <time>2018-09-16T14:05:33Z</time>
      </trkpt>
      <trkpt lat="47.627257006242871" lon="10.450451010838151">
        <ele>896.57000000000005</ele>
        <time>2018-09-16T14:05:42Z</time>
      </trkpt>
      <trkpt lat="47.625769972801208" lon="10.447307964786887">
        <ele>897.52999999999997</ele>
        <time>2018-09-16T14:05:52Z</time>
      </trkpt>
      <trkpt lat="47.62424698099494" lon="10.44481803663075">
        <ele>900.40999999999997</ele>
        <time>2018-09-16T14:06:03Z</time>
      </trkpt>
      <trkpt lat="47.623390015214682" lon="10.443570977076888">
        <ele>900.88999999999999</ele>
        <time>2018-09-16T14:06:10Z</time>
      </trkpt>
      <trkpt lat="47.622216967865825" lon="10.441928962245584">
        <ele>899.45000000000005</ele>
        <time>2018-09-16T14:06:20Z</time>
      </trkpt>
      <trkpt lat="47.620749967172742" lon="10.440141018480062">
        <ele>899.92999999999995</ele>
        <time>2018-09-16T14:06:30Z</time>
      </trkpt>
      <trkpt lat="47.619139971211553" lon="10.438388027250767">
        <ele>898.49000000000001</ele>
        <time>2018-09-16T14:06:40Z</time>
      </trkpt>
      <trkpt lat="47.617233004420996" lon="10.436474019661546">
        <ele>896.09000000000003</ele>
        <time>2018-09-16T14:06:52Z</time>
      </trkpt>
      <trkpt lat="47.616194989532232" lon="10.435553016141057">
        <ele>894.63999999999999</ele>
        <time>2018-09-16T14:06:57Z</time>
      </trkpt>
      <trkpt lat="47.614683983847499" lon="10.434364965185523">
        <ele>893.67999999999995</ele>
        <time>2018-09-16T14:07:05Z</time>
      </trkpt>
      <trkpt lat="47.612565960735083" lon="10.432759998366237">
        <ele>892.72000000000003</ele>
        <time>2018-09-16T14:07:17Z</time>
      </trkpt>
      <trkpt lat="47.610715990886092" lon="10.43120096437633">
        <ele>893.20000000000005</ele>
        <time>2018-09-16T14:07:27Z</time>
      </trkpt>
      <trkpt lat="47.609167015179992" lon="10.429720971733332">
        <ele>893.20000000000005</ele>
        <time>2018-09-16T14:07:37Z</time>
      </trkpt>
      <trkpt lat="47.607536986470222" lon="10.427869996055961">
        <ele>893.20000000000005</ele>
        <time>2018-09-16T14:07:49Z</time>
      </trkpt>
      <trkpt lat="47.605948029085994" lon="10.425850041210651">
        <ele>892.72000000000003</ele>
        <time>2018-09-16T14:08:00Z</time>
      </trkpt>
      <trkpt lat="47.60447901673615" lon="10.423948019742966">
        <ele>891.27999999999997</ele>
        <time>2018-09-16T14:08:11Z</time>
      </trkpt>
      <trkpt lat="47.603168003261089" lon="10.422248002141714">
        <ele>892.24000000000001</ele>
        <time>2018-09-16T14:08:22Z</time>
      </trkpt>
      <trkpt lat="47.602038960903883" lon="10.420855013653636">
        <ele>894.63999999999999</ele>
        <time>2018-09-16T14:08:34Z</time>
      </trkpt>
      <trkpt lat="47.60179303586483" lon="10.420596012845635">
        <ele>896.09000000000003</ele>
        <time>2018-09-16T14:08:39Z</time>
      </trkpt>
      <trkpt lat="47.601779038086534" lon="10.420580003410578">
        <ele>896.57000000000005</ele>
        <time>2018-09-16T14:08:50Z</time>
      </trkpt>
      <trkpt lat="47.601744001731277" lon="10.42054102756083">
        <ele>896.57000000000005</ele>
        <time>2018-09-16T14:08:54Z</time>
      </trkpt>
      <trkpt lat="47.601352985948324" lon="10.420123022049665">
        <ele>897.04999999999995</ele>
        <time>2018-09-16T14:08:59Z</time>
      </trkpt>
      <trkpt lat="47.600399041548371" lon="10.41921098716557">
        <ele>897.04999999999995</ele>
        <time>2018-09-16T14:09:06Z</time>
      </trkpt>
      <trkpt lat="47.598539013415575" lon="10.41790097951889">
        <ele>898.49000000000001</ele>
        <time>2018-09-16T14:09:18Z</time>
      </trkpt>
      <trkpt lat="47.597029013559222" lon="10.417310977354646">
        <ele>901.37</ele>
        <time>2018-09-16T14:09:28Z</time>
      </trkpt>
      <trkpt lat="47.596577983349562" lon="10.417138980701566">
        <ele>901.37</ele>
        <time>2018-09-16T14:09:32Z</time>
      </trkpt>
      <trkpt lat="47.596550993621349" lon="10.417120959609747">
        <ele>900.88999999999999</ele>
        <time>2018-09-16T14:09:33Z</time>
      </trkpt>
      <trkpt lat="47.596485028043389" lon="10.416950974613428">
        <ele>900.88999999999999</ele>
        <time>2018-09-16T14:09:34Z</time>
      </trkpt>
      <trkpt lat="47.596458960324526" lon="10.416880985721946">
        <ele>900.88999999999999</ele>
        <time>2018-09-16T14:09:35Z</time>
      </trkpt>
      <trkpt lat="47.596442028880119" lon="10.416827006265521">
        <ele>901.37</ele>
        <time>2018-09-16T14:09:36Z</time>
      </trkpt>
      <trkpt lat="47.596434988081455" lon="10.416770009323955">
        <ele>900.88999999999999</ele>
        <time>2018-09-16T14:09:37Z</time>
      </trkpt>
      <trkpt lat="47.596430964767933" lon="10.416727010160685">
        <ele>901.37</ele>
        <time>2018-09-16T14:09:38Z</time>
      </trkpt>
      <trkpt lat="47.596426019445062" lon="10.416686022654176">
        <ele>901.37</ele>
        <time>2018-09-16T14:09:39Z</time>
      </trkpt>
      <trkpt lat="47.596430964767933" lon="10.416621984913945">
        <ele>901.85000000000002</ele>
        <time>2018-09-16T14:09:40Z</time>
      </trkpt>
      <trkpt lat="47.596458038315177" lon="10.416545961052179">
        <ele>901.85000000000002</ele>
        <time>2018-09-16T14:09:41Z</time>
      </trkpt>
      <trkpt lat="47.596495002508163" lon="10.416440013796091">
        <ele>901.85000000000002</ele>
        <time>2018-09-16T14:09:42Z</time>
      </trkpt>
      <trkpt lat="47.596540013328195" lon="10.416313027963042">
        <ele>901.85000000000002</ele>
        <time>2018-09-16T14:09:43Z</time>
      </trkpt>
      <trkpt lat="47.596590975299478" lon="10.416158968582749">
        <ele>902.33000000000004</ele>
        <time>2018-09-16T14:09:44Z</time>
      </trkpt>
      <trkpt lat="47.597009986639023" lon="10.414864970371127">
        <ele>908.10000000000002</ele>
        <time>2018-09-16T14:09:50Z</time>
      </trkpt>
      <trkpt lat="47.597053991630673" lon="10.414589960128069">
        <ele>909.53999999999996</ele>
        <time>2018-09-16T14:09:51Z</time>
      </trkpt>
      <trkpt lat="47.597092967480421" lon="10.414301035925746">
        <ele>910.99000000000001</ele>
        <time>2018-09-16T14:09:52Z</time>
      </trkpt>
      <trkpt lat="47.597134038805962" lon="10.414000041782856">
        <ele>911.95000000000005</ele>
        <time>2018-09-16T14:09:53Z</time>
      </trkpt>
      <trkpt lat="47.597172008827329" lon="10.413697035983205">
        <ele>913.38999999999999</ele>
        <time>2018-09-16T14:09:54Z</time>
      </trkpt>
      <trkpt lat="47.597163962200284" lon="10.413378020748496">
        <ele>914.83000000000004</ele>
        <time>2018-09-16T14:09:55Z</time>
      </trkpt>
      <trkpt lat="47.59715499356389" lon="10.413048025220633">
        <ele>915.78999999999996</ele>
        <time>2018-09-16T14:09:56Z</time>
      </trkpt>
      <trkpt lat="47.597146024927497" lon="10.412711994722486">
        <ele>916.75</ele>
        <time>2018-09-16T14:09:57Z</time>
      </trkpt>
      <trkpt lat="47.597134038805962" lon="10.412027025595307">
        <ele>918.67999999999995</ele>
        <time>2018-09-16T14:09:59Z</time>
      </trkpt>
      <trkpt lat="47.597146024927497" lon="10.411672974005342">
        <ele>919.15999999999997</ele>
        <time>2018-09-16T14:10:00Z</time>
      </trkpt>
      <trkpt lat="47.597179971635342" lon="10.411320012062788">
        <ele>919.63999999999999</ele>
        <time>2018-09-16T14:10:01Z</time>
      </trkpt>
      <trkpt lat="47.597231017425656" lon="10.410962020978332">
        <ele>920.12</ele>
        <time>2018-09-16T14:10:02Z</time>
      </trkpt>
      <trkpt lat="47.5972839910537" lon="10.410597994923592">
        <ele>920.12</ele>
        <time>2018-09-16T14:10:03Z</time>
      </trkpt>
      <trkpt lat="47.597771985456347" lon="10.407093018293381">
        <ele>913.87</ele>
        <time>2018-09-16T14:10:12Z</time>
      </trkpt>
      <trkpt lat="47.59751801379025" lon="10.404809033498168">
        <ele>915.78999999999996</ele>
        <time>2018-09-16T14:10:18Z</time>
      </trkpt>
      <trkpt lat="47.596819968894124" lon="10.401728013530374">
        <ele>926.85000000000002</ele>
        <time>2018-09-16T14:10:27Z</time>
      </trkpt>
      <trkpt lat="47.596663981676102" lon="10.401040026918054">
        <ele>928.76999999999998</ele>
        <time>2018-09-16T14:10:31Z</time>
      </trkpt>
      <trkpt lat="47.59674402885139" lon="10.400791000574827">
        <ele>929.25</ele>
        <time>2018-09-16T14:10:32Z</time>
      </trkpt>
      <trkpt lat="47.596758026629686" lon="10.400678012520075">
        <ele>929.73000000000002</ele>
        <time>2018-09-16T14:10:34Z</time>
      </trkpt>
      <trkpt lat="47.596727013587952" lon="10.400535017251968">
        <ele>929.73000000000002</ele>
        <time>2018-09-16T14:10:35Z</time>
      </trkpt>
      <trkpt lat="47.596685020253062" lon="10.400439966470003">
        <ele>929.73000000000002</ele>
        <time>2018-09-16T14:10:36Z</time>
      </trkpt>
      <trkpt lat="47.596594998613" lon="10.400414988398552">
        <ele>929.73000000000002</ele>
        <time>2018-09-16T14:10:37Z</time>
      </trkpt>
      <trkpt lat="47.596503971144557" lon="10.400292025879025">
        <ele>929.73000000000002</ele>
        <time>2018-09-16T14:10:38Z</time>
      </trkpt>
      <trkpt lat="47.596471030265093" lon="10.400142995640635">
        <ele>929.73000000000002</ele>
        <time>2018-09-16T14:10:39Z</time>
      </trkpt>
      <trkpt lat="47.596431970596313" lon="10.399969993159175">
        <ele>929.25</ele>
        <time>2018-09-16T14:10:40Z</time>
      </trkpt>
      <trkpt lat="47.596388971433043" lon="10.399775030091405">
        <ele>929.73000000000002</ele>
        <time>2018-09-16T14:10:41Z</time>
      </trkpt>
      <trkpt lat="47.596067022532225" lon="10.398635007441044">
        <ele>931.64999999999998</ele>
        <time>2018-09-16T14:10:46Z</time>
      </trkpt>
      <trkpt lat="47.595975995063782" lon="10.398398973047733">
        <ele>932.13999999999999</ele>
        <time>2018-09-16T14:10:47Z</time>
      </trkpt>
      <trkpt lat="47.595857977867126" lon="10.398185988888144">
        <ele>932.62</ele>
        <time>2018-09-16T14:10:48Z</time>
      </trkpt>
      <trkpt lat="47.595736021175981" lon="10.397966969758272">
        <ele>933.10000000000002</ele>
        <time>2018-09-16T14:10:49Z</time>
      </trkpt>
      <trkpt lat="47.595593025907874" lon="10.39776798337698">
        <ele>933.58000000000004</ele>
        <time>2018-09-16T14:10:50Z</time>
      </trkpt>
      <trkpt lat="47.59543402120471" lon="10.3975959867239">
        <ele>934.05999999999995</ele>
        <time>2018-09-16T14:10:51Z</time>
      </trkpt>
      <trkpt lat="47.595274010673165" lon="10.39742399007082">
        <ele>934.53999999999996</ele>
        <time>2018-09-16T14:10:52Z</time>
      </trkpt>
      <trkpt lat="47.594202971085906" lon="10.395878031849861">
        <ele>937.41999999999996</ele>
        <time>2018-09-16T14:10:59Z</time>
      </trkpt>
      <trkpt lat="47.592475041747093" lon="10.39306104183197">
        <ele>944.63</ele>
        <time>2018-09-16T14:11:09Z</time>
      </trkpt>
      <trkpt lat="47.591092027723789" lon="10.390498023480177">
        <ele>951.84000000000003</ele>
        <time>2018-09-16T14:11:17Z</time>
      </trkpt>
      <trkpt lat="47.589253960177302" lon="10.386246973648667">
        <ele>962.89999999999998</ele>
        <time>2018-09-16T14:11:29Z</time>
      </trkpt>
      <trkpt lat="47.587704984471202" lon="10.38313795812428">
        <ele>971.07000000000005</ele>
        <time>2018-09-16T14:11:38Z</time>
      </trkpt>
      <trkpt lat="47.586858998984098" lon="10.381009038537741">
        <ele>979.72000000000003</ele>
        <time>2018-09-16T14:11:45Z</time>
      </trkpt>
      <trkpt lat="47.586430013179779" lon="10.378748020157218">
        <ele>989.80999999999995</ele>
        <time>2018-09-16T14:11:52Z</time>
      </trkpt>
      <trkpt lat="47.586187021806836" lon="10.377545971423388">
        <ele>994.62</ele>
        <time>2018-09-16T14:11:56Z</time>
      </trkpt>
      <trkpt lat="47.586123989894986" lon="10.377279007807374">
        <ele>996.05999999999995</ele>
        <time>2018-09-16T14:11:57Z</time>
      </trkpt>
      <trkpt lat="47.586046038195491" lon="10.376945994794369">
        <ele>998.95000000000005</ele>
        <time>2018-09-16T14:12:00Z</time>
      </trkpt>
      <trkpt lat="47.585965991020203" lon="10.376607030630112">
        <ele>1002.79</ele>
        <time>2018-09-16T14:12:08Z</time>
      </trkpt>
      <trkpt lat="47.585717970505357" lon="10.375549988821149">
        <ele>1005.6799999999999</ele>
        <time>2018-09-16T14:12:14Z</time>
      </trkpt>
      <trkpt lat="47.58555200882256" lon="10.374034037813544">
        <ele>1008.08</ele>
        <time>2018-09-16T14:12:19Z</time>
      </trkpt>
      <trkpt lat="47.585587967187166" lon="10.373336998745799">
        <ele>1009.52</ele>
        <time>2018-09-16T14:12:21Z</time>
      </trkpt>
      <trkpt lat="47.585904970765114" lon="10.370942959561944">
        <ele>1014.33</ele>
        <time>2018-09-16T14:12:28Z</time>
      </trkpt>
      <trkpt lat="47.586146034300327" lon="10.367318959906697">
        <ele>1015.77</ele>
        <time>2018-09-16T14:12:38Z</time>
      </trkpt>
      <trkpt lat="47.586139999330044" lon="10.364310024306178">
        <ele>1016.73</ele>
        <time>2018-09-16T14:12:46Z</time>
      </trkpt>
      <trkpt lat="47.586084008216858" lon="10.361722027882934">
        <ele>1021.54</ele>
        <time>2018-09-16T14:12:54Z</time>
      </trkpt>
      <trkpt lat="47.586083002388477" lon="10.361446011811495">
        <ele>1021.54</ele>
        <time>2018-09-16T14:12:55Z</time>
      </trkpt>
      <trkpt lat="47.586134970188141" lon="10.36117703653872">
        <ele>1022.02</ele>
        <time>2018-09-16T14:12:56Z</time>
      </trkpt>
      <trkpt lat="47.58621702902019" lon="10.360909989103675">
        <ele>1022.02</ele>
        <time>2018-09-16T14:12:57Z</time>
      </trkpt>
      <trkpt lat="47.587036024779081" lon="10.358659029006958">
        <ele>1023.9400000000001</ele>
        <time>2018-09-16T14:13:05Z</time>
      </trkpt>
      <trkpt lat="47.587761981412768" lon="10.356125012040138">
        <ele>1015.29</ele>
        <time>2018-09-16T14:13:13Z</time>
      </trkpt>
      <trkpt lat="47.587922997772694" lon="10.354329021647573">
        <ele>1015.29</ele>
        <time>2018-09-16T14:13:19Z</time>
      </trkpt>
      <trkpt lat="47.587603982537985" lon="10.352117959409952">
        <ele>1013.37</ele>
        <time>2018-09-16T14:13:26Z</time>
      </trkpt>
      <trkpt lat="47.587415976449847" lon="10.35121195949614">
        <ele>1011.9299999999999</ele>
        <time>2018-09-16T14:13:29Z</time>
      </trkpt>
      <trkpt lat="47.587389992550015" lon="10.350898979231715">
        <ele>1011.9299999999999</ele>
        <time>2018-09-16T14:13:30Z</time>
      </trkpt>
      <trkpt lat="47.587368031963706" lon="10.350590022280812">
        <ele>1011.9299999999999</ele>
        <time>2018-09-16T14:13:31Z</time>
      </trkpt>
      <trkpt lat="47.587332995608449" lon="10.348084000870585">
        <ele>1011.4400000000001</ele>
        <time>2018-09-16T14:13:40Z</time>
      </trkpt>
      <trkpt lat="47.58752603083849" lon="10.345481000840664">
        <ele>998.95000000000005</ele>
        <time>2018-09-16T14:13:49Z</time>
      </trkpt>
      <trkpt lat="47.58750700391829" lon="10.34519299864769">
        <ele>997.50999999999999</ele>
        <time>2018-09-16T14:13:50Z</time>
      </trkpt>
      <trkpt lat="47.587465010583401" lon="10.343258958309889">
        <ele>986.92999999999995</ele>
        <time>2018-09-16T14:13:56Z</time>
      </trkpt>
      <trkpt lat="47.58744003251195" lon="10.340962987393141">
        <ele>976.36000000000001</ele>
        <time>2018-09-16T14:14:03Z</time>
      </trkpt>
      <trkpt lat="47.58746400475502" lon="10.339419962838292">
        <ele>968.17999999999995</ele>
        <time>2018-09-16T14:14:08Z</time>
      </trkpt>
      <trkpt lat="47.587533993646502" lon="10.339158028364182">
        <ele>966.25999999999999</ele>
        <time>2018-09-16T14:14:09Z</time>
      </trkpt>
      <trkpt lat="47.587600965052843" lon="10.338907996192575">
        <ele>964.82000000000005</ele>
        <time>2018-09-16T14:14:10Z</time>
      </trkpt>
      <trkpt lat="47.587686041370034" lon="10.338687971234322">
        <ele>963.86000000000001</ele>
        <time>2018-09-16T14:14:11Z</time>
      </trkpt>
      <trkpt lat="47.587783019989729" lon="10.338508011773229">
        <ele>962.89999999999998</ele>
        <time>2018-09-16T14:14:12Z</time>
      </trkpt>
      <trkpt lat="47.587899025529623" lon="10.338371973484755">
        <ele>961.94000000000005</ele>
        <time>2018-09-16T14:14:13Z</time>
      </trkpt>
      <trkpt lat="47.588017964735627" lon="10.338234007358551">
        <ele>961.46000000000004</ele>
        <time>2018-09-16T14:14:14Z</time>
      </trkpt>
      <trkpt lat="47.588698994368315" lon="10.337358014658093">
        <ele>958.57000000000005</ele>
        <time>2018-09-16T14:14:20Z</time>
      </trkpt>
      <trkpt lat="47.588758002966642" lon="10.337208984419703">
        <ele>958.09000000000003</ele>
        <time>2018-09-16T14:14:21Z</time>
      </trkpt>
      <trkpt lat="47.588809970766306" lon="10.337079986929893">
        <ele>957.13</ele>
        <time>2018-09-16T14:14:22Z</time>
      </trkpt>
      <trkpt lat="47.588814999908209" lon="10.336958030238748">
        <ele>956.64999999999998</ele>
        <time>2018-09-16T14:14:23Z</time>
      </trkpt>
      <trkpt lat="47.588791027665138" lon="10.336786033585668">
        <ele>955.69000000000005</ele>
        <time>2018-09-16T14:14:24Z</time>
      </trkpt>
      <trkpt lat="47.588761020451784" lon="10.336568020284176">
        <ele>954.73000000000002</ele>
        <time>2018-09-16T14:14:25Z</time>
      </trkpt>
      <trkpt lat="47.588337985798717" lon="10.334985014051199">
        <ele>946.55999999999995</ele>
        <time>2018-09-16T14:14:33Z</time>
      </trkpt>
      <trkpt lat="47.588260034099221" lon="10.334631968289614">
        <ele>944.63</ele>
        <time>2018-09-16T14:14:35Z</time>
      </trkpt>
      <trkpt lat="47.588246036320925" lon="10.334486961364746">
        <ele>943.66999999999996</ele>
        <time>2018-09-16T14:14:36Z</time>
      </trkpt>
      <trkpt lat="47.588290963321924" lon="10.334324017167091">
        <ele>942.71000000000004</ele>
        <time>2018-09-16T14:14:37Z</time>
      </trkpt>
      <trkpt lat="47.588345026597381" lon="10.334225026890635">
        <ele>941.26999999999998</ele>
        <time>2018-09-16T14:14:38Z</time>
      </trkpt>
      <trkpt lat="47.588428007438779" lon="10.334163000807166">
        <ele>940.78999999999996</ele>
        <time>2018-09-16T14:14:39Z</time>
      </trkpt>
      <trkpt lat="47.58851601742208" lon="10.334144979715347">
        <ele>939.83000000000004</ele>
        <time>2018-09-16T14:14:40Z</time>
      </trkpt>
      <trkpt lat="47.58860201574862" lon="10.334201976656914">
        <ele>939.35000000000002</ele>
        <time>2018-09-16T14:14:41Z</time>
      </trkpt>
      <trkpt lat="47.588690025731921" lon="10.334281018003821">
        <ele>938.86000000000001</ele>
        <time>2018-09-16T14:14:42Z</time>
      </trkpt>
      <trkpt lat="47.588760014623404" lon="10.33442703075707">
        <ele>938.38</ele>
        <time>2018-09-16T14:14:43Z</time>
      </trkpt>
      <trkpt lat="47.58883997797966" lon="10.334596009925008">
        <ele>937.41999999999996</ele>
        <time>2018-09-16T14:14:44Z</time>
      </trkpt>
      <trkpt lat="47.589340964332223" lon="10.335646010935307">
        <ele>931.16999999999996</ele>
        <time>2018-09-16T14:14:50Z</time>
      </trkpt>
      <trkpt lat="47.589405002072453" lon="10.335694039240479">
        <ele>930.69000000000005</ele>
        <time>2018-09-16T14:14:51Z</time>
      </trkpt>
      <trkpt lat="47.589495023712516" lon="10.335686998441815">
        <ele>929.73000000000002</ele>
        <time>2018-09-16T14:14:52Z</time>
      </trkpt>
      <trkpt lat="47.589575992897153" lon="10.335625978186727">
        <ele>929.25</ele>
        <time>2018-09-16T14:14:53Z</time>
      </trkpt>
      <trkpt lat="47.589628966525197" lon="10.335521036759019">
        <ele>929.25</ele>
        <time>2018-09-16T14:14:54Z</time>
      </trkpt>
      <trkpt lat="47.589681018143892" lon="10.33541601151228">
        <ele>928.76999999999998</ele>
        <time>2018-09-16T14:14:55Z</time>
      </trkpt>
      <trkpt lat="47.589657967910171" lon="10.335272010415792">
        <ele>928.28999999999996</ele>
        <time>2018-09-16T14:14:56Z</time>
      </trkpt>
      <trkpt lat="47.589627960696816" lon="10.335111999884248">
        <ele>928.28999999999996</ele>
        <time>2018-09-16T14:14:57Z</time>
      </trkpt>
      <trkpt lat="47.589593008160591" lon="10.334930028766394">
        <ele>927.33000000000004</ele>
        <time>2018-09-16T14:14:58Z</time>
      </trkpt>
      <trkpt lat="47.589193023741245" lon="10.333521030843258">
        <ele>921.08000000000004</ele>
        <time>2018-09-16T14:15:04Z</time>
      </trkpt>
      <trkpt lat="47.588360030204058" lon="10.330942003056407">
        <ele>905.70000000000005</ele>
        <time>2018-09-16T14:15:14Z</time>
      </trkpt>
      <trkpt lat="47.587201986461878" lon="10.327673982828856">
        <ele>886.95000000000005</ele>
        <time>2018-09-16T14:15:26Z</time>
      </trkpt>
      <trkpt lat="47.586719021201134" lon="10.326864961534739">
        <ele>881.66999999999996</ele>
        <time>2018-09-16T14:15:31Z</time>
      </trkpt>
      <trkpt lat="47.585955010727048" lon="10.325843039900064">
        <ele>873.00999999999999</ele>
        <time>2018-09-16T14:15:43Z</time>
      </trkpt>
      <trkpt lat="47.585480008274317" lon="10.325368959456682">
        <ele>867.73000000000002</ele>
        <time>2018-09-16T14:15:51Z</time>
      </trkpt>
      <trkpt lat="47.585426028817892" lon="10.325325960293412">
        <ele>866.76999999999998</ele>
        <time>2018-09-16T14:15:52Z</time>
      </trkpt>
      <trkpt lat="47.585271969437599" lon="10.325205009430647">
        <ele>864.84000000000003</ele>
        <time>2018-09-16T14:15:55Z</time>
      </trkpt>
      <trkpt lat="47.585218995809555" lon="10.325164021924138">
        <ele>864.36000000000001</ele>
        <time>2018-09-16T14:15:56Z</time>
      </trkpt>
      <trkpt lat="47.585170967504382" lon="10.325111970305443">
        <ele>863.39999999999998</ele>
        <time>2018-09-16T14:15:57Z</time>
      </trkpt>
      <trkpt lat="47.585140960291028" lon="10.325028989464045">
        <ele>862.91999999999996</ele>
        <time>2018-09-16T14:15:58Z</time>
      </trkpt>
      <trkpt lat="47.585111958906054" lon="10.324950031936169">
        <ele>862.44000000000005</ele>
        <time>2018-09-16T14:15:59Z</time>
      </trkpt>
      <trkpt lat="47.585095027461648" lon="10.324861016124487">
        <ele>861.96000000000004</ele>
        <time>2018-09-16T14:16:00Z</time>
      </trkpt>
      <trkpt lat="47.585102990269661" lon="10.324770994484425">
        <ele>861.48000000000002</ele>
        <time>2018-09-16T14:16:01Z</time>
      </trkpt>
      <trkpt lat="47.585111036896706" lon="10.324686001986265">
        <ele>861</ele>
        <time>2018-09-16T14:16:02Z</time>
      </trkpt>
      <trkpt lat="47.585130985826254" lon="10.324630010873079">
        <ele>861</ele>
        <time>2018-09-16T14:16:03Z</time>
      </trkpt>
      <trkpt lat="47.58516401052475" lon="10.324575025588274">
        <ele>861</ele>
        <time>2018-09-16T14:16:04Z</time>
      </trkpt>
      <trkpt lat="47.585200974717736" lon="10.324514005333185">
        <ele>860.51999999999998</ele>
        <time>2018-09-16T14:16:05Z</time>
      </trkpt>
      <trkpt lat="47.585239028558135" lon="10.324450973421335">
        <ele>860.51999999999998</ele>
        <time>2018-09-16T14:16:06Z</time>
      </trkpt>
      <trkpt lat="47.585239028558135" lon="10.324320970103145">
        <ele>860.03999999999996</ele>
        <time>2018-09-16T14:16:07Z</time>
      </trkpt>
      <trkpt lat="47.585237016901374" lon="10.324219968169928">
        <ele>859.55999999999995</ele>
        <time>2018-09-16T14:16:08Z</time>
      </trkpt>
      <trkpt lat="47.585233999416232" lon="10.324111003428698">
        <ele>859.08000000000004</ele>
        <time>2018-09-16T14:16:09Z</time>
      </trkpt>
      <trkpt lat="47.58523098193109" lon="10.323996003717184">
        <ele>859.08000000000004</ele>
        <time>2018-09-16T14:16:10Z</time>
      </trkpt>
      <trkpt lat="47.585203992202878" lon="10.323485964909196">
        <ele>857.63</ele>
        <time>2018-09-16T14:16:14Z</time>
      </trkpt>
      <trkpt lat="47.584812976419926" lon="10.321820983663201">
        <ele>854.75</ele>
        <time>2018-09-16T14:16:27Z</time>
      </trkpt>
      <trkpt lat="47.584765031933784" lon="10.321720987558365">
        <ele>854.26999999999998</ele>
        <time>2018-09-16T14:16:28Z</time>
      </trkpt>
      <trkpt lat="47.584590017795563" lon="10.321453018113971">
        <ele>854.26999999999998</ele>
        <time>2018-09-16T14:16:31Z</time>
      </trkpt>
      <trkpt lat="47.584460014477372" lon="10.321267023682594">
        <ele>854.26999999999998</ele>
        <time>2018-09-16T14:16:33Z</time>
      </trkpt>
      <trkpt lat="47.584320958703756" lon="10.321060996502638">
        <ele>854.75</ele>
        <time>2018-09-16T14:16:35Z</time>
      </trkpt>
      <trkpt lat="47.583865988999605" lon="10.320111997425556">
        <ele>854.75</ele>
        <time>2018-09-16T14:16:41Z</time>
      </trkpt>
      <trkpt lat="47.583339018747211" lon="10.318211987614632">
        <ele>854.75</ele>
        <time>2018-09-16T14:16:50Z</time>
      </trkpt>
      <trkpt lat="47.582531003281474" lon="10.316032022237778">
        <ele>856.19000000000005</ele>
        <time>2018-09-16T14:17:00Z</time>
      </trkpt>
      <trkpt lat="47.581847039982677" lon="10.313912993296981">
        <ele>857.14999999999998</ele>
        <time>2018-09-16T14:17:09Z</time>
      </trkpt>
      <trkpt lat="47.581629026681185" lon="10.311772003769875">
        <ele>849.94000000000005</ele>
        <time>2018-09-16T14:17:17Z</time>
      </trkpt>
      <trkpt lat="47.581378994509578" lon="10.31019302085042">
        <ele>847.05999999999995</ele>
        <time>2018-09-16T14:17:23Z</time>
      </trkpt>
      <trkpt lat="47.580614984035492" lon="10.308600040152669">
        <ele>851.87</ele>
        <time>2018-09-16T14:17:31Z</time>
      </trkpt>
      <trkpt lat="47.57996303960681" lon="10.306658037006855">
        <ele>852.83000000000004</ele>
        <time>2018-09-16T14:17:40Z</time>
      </trkpt>
      <trkpt lat="47.579183019697666" lon="10.304269026964903">
        <ele>847.53999999999996</ele>
        <time>2018-09-16T14:17:50Z</time>
      </trkpt>
      <trkpt lat="47.578328987583518" lon="10.302946027368307">
        <ele>840.80999999999995</ele>
        <time>2018-09-16T14:17:56Z</time>
      </trkpt>
      <trkpt lat="47.577228024601936" lon="10.301596960052848">
        <ele>832.15999999999997</ele>
        <time>2018-09-16T14:18:04Z</time>
      </trkpt>
      <trkpt lat="47.576718991622329" lon="10.300487028434873">
        <ele>827.35000000000002</ele>
        <time>2018-09-16T14:18:10Z</time>
      </trkpt>
      <trkpt lat="47.575957998633385" lon="10.298916008323431">
        <ele>826.38999999999999</ele>
        <time>2018-09-16T14:18:19Z</time>
      </trkpt>
      <trkpt lat="47.575551979243755" lon="10.297833988443017">
        <ele>828.30999999999995</ele>
        <time>2018-09-16T14:18:25Z</time>
      </trkpt>
      <trkpt lat="47.575507974252105" lon="10.297632990404963">
        <ele>827.83000000000004</ele>
        <time>2018-09-16T14:18:26Z</time>
      </trkpt>
      <trkpt lat="47.575490036979318" lon="10.297437021508813">
        <ele>827.83000000000004</ele>
        <time>2018-09-16T14:18:27Z</time>
      </trkpt>
      <trkpt lat="47.575478972867131" lon="10.297249015420675">
        <ele>827.83000000000004</ele>
        <time>2018-09-16T14:18:28Z</time>
      </trkpt>
      <trkpt lat="47.575468998402357" lon="10.29706796631217">
        <ele>827.83000000000004</ele>
        <time>2018-09-16T14:18:29Z</time>
      </trkpt>
      <trkpt lat="47.575375959277153" lon="10.296382997184992">
        <ele>826.87</ele>
        <time>2018-09-16T14:18:33Z</time>
      </trkpt>
      <trkpt lat="47.575334971770644" lon="10.296230027452111">
        <ele>826.38999999999999</ele>
        <time>2018-09-16T14:18:34Z</time>
      </trkpt>
      <trkpt lat="47.574847983196378" lon="10.294771995395422">
        <ele>819.17999999999995</ele>
        <time>2018-09-16T14:18:45Z</time>
      </trkpt>
      <trkpt lat="47.574776988476515" lon="10.294237984344363">
        <ele>816.29999999999995</ele>
        <time>2018-09-16T14:18:49Z</time>
      </trkpt>
      <trkpt lat="47.574783023446798" lon="10.29410001821816">
        <ele>815.82000000000005</ele>
        <time>2018-09-16T14:18:50Z</time>
      </trkpt>
      <trkpt lat="47.574919983744621" lon="10.292736031115055">
        <ele>815.82000000000005</ele>
        <time>2018-09-16T14:19:01Z</time>
      </trkpt>
      <trkpt lat="47.574968012049794" lon="10.292643997818232">
        <ele>815.34000000000003</ele>
        <time>2018-09-16T14:19:02Z</time>
      </trkpt>
      <trkpt lat="47.575169010087848" lon="10.292245019227266">
        <ele>815.34000000000003</ele>
        <time>2018-09-16T14:19:06Z</time>
      </trkpt>
      <trkpt lat="47.575279986485839" lon="10.291903959587216">
        <ele>815.34000000000003</ele>
        <time>2018-09-16T14:19:09Z</time>
      </trkpt>
      <trkpt lat="47.575312005355954" lon="10.291794994845986">
        <ele>815.34000000000003</ele>
        <time>2018-09-16T14:19:10Z</time>
      </trkpt>
      <trkpt lat="47.575343018397689" lon="10.291701033711433">
        <ele>814.85000000000002</ele>
        <time>2018-09-16T14:19:11Z</time>
      </trkpt>
      <trkpt lat="47.575372019782662" lon="10.291615035384893">
        <ele>814.37</ele>
        <time>2018-09-16T14:19:12Z</time>
      </trkpt>
      <trkpt lat="47.57539096288383" lon="10.291518978774548">
        <ele>813.88999999999999</ele>
        <time>2018-09-16T14:19:13Z</time>
      </trkpt>
      <trkpt lat="47.575409989804029" lon="10.291424011811614">
        <ele>813.40999999999997</ele>
        <time>2018-09-16T14:19:14Z</time>
      </trkpt>
      <trkpt lat="47.575406972318888" lon="10.291338013485074">
        <ele>812.92999999999995</ele>
        <time>2018-09-16T14:19:15Z</time>
      </trkpt>
      <trkpt lat="47.575394986197352" lon="10.29124497435987">
        <ele>812.45000000000005</ele>
        <time>2018-09-16T14:19:16Z</time>
      </trkpt>
      <trkpt lat="47.575360033661127" lon="10.291168028488755">
        <ele>812.45000000000005</ele>
        <time>2018-09-16T14:19:17Z</time>
      </trkpt>
      <trkpt lat="47.575317034497857" lon="10.291090998798609">
        <ele>811.97000000000003</ele>
        <time>2018-09-16T14:19:18Z</time>
      </trkpt>
      <trkpt lat="47.575265988707542" lon="10.291015980765224">
        <ele>811.97000000000003</ele>
        <time>2018-09-16T14:19:19Z</time>
      </trkpt>
      <trkpt lat="47.575202034786344" lon="10.290951021015644">
        <ele>811.49000000000001</ele>
        <time>2018-09-16T14:19:20Z</time>
      </trkpt>
      <trkpt lat="47.574943033978343" lon="10.290692020207644">
        <ele>809.57000000000005</ele>
        <time>2018-09-16T14:19:24Z</time>
      </trkpt>
      <trkpt lat="47.57485100068152" lon="10.290624964982271">
        <ele>809.09000000000003</ele>
        <time>2018-09-16T14:19:25Z</time>
      </trkpt>
      <trkpt lat="47.574781011790037" lon="10.290574003010988">
        <ele>808.61000000000001</ele>
        <time>2018-09-16T14:19:26Z</time>
      </trkpt>
      <trkpt lat="47.574621001258492" lon="10.290455985814333">
        <ele>808.13</ele>
        <time>2018-09-16T14:19:28Z</time>
      </trkpt>
      <trkpt lat="47.574366023764014" lon="10.290390020236373">
        <ele>808.13</ele>
        <time>2018-09-16T14:19:32Z</time>
      </trkpt>
      <trkpt lat="47.574303997680545" lon="10.290373004972935">
        <ele>808.13</ele>
        <time>2018-09-16T14:19:33Z</time>
      </trkpt>
      <trkpt lat="47.574242977425456" lon="10.290356995537877">
        <ele>808.13</ele>
        <time>2018-09-16T14:19:34Z</time>
      </trkpt>
      <trkpt lat="47.574205007404089" lon="10.290347021073103">
        <ele>807.63999999999999</ele>
        <time>2018-09-16T14:19:35Z</time>
      </trkpt>
      <trkpt lat="47.574126971885562" lon="10.290326988324523">
        <ele>807.15999999999997</ele>
        <time>2018-09-16T14:19:36Z</time>
      </trkpt>
      <trkpt lat="47.574126971885562" lon="10.290326988324523">
        <ele>806.67999999999995</ele>
        <time>2018-09-16T14:19:49Z</time>
      </trkpt>
      <trkpt lat="47.574126971885562" lon="10.290326988324523">
        <ele>806.20000000000005</ele>
        <time>2018-09-16T14:20:08Z</time>
      </trkpt>
      <trkpt lat="47.574110962450504" lon="10.290283989161253">
        <ele>805.72000000000003</ele>
        <time>2018-09-16T14:20:16Z</time>
      </trkpt>
      <trkpt lat="47.574093025177717" lon="10.29023596085608">
        <ele>805.72000000000003</ele>
        <time>2018-09-16T14:20:17Z</time>
      </trkpt>
      <trkpt lat="47.573912981897593" lon="10.289760958403349">
        <ele>806.67999999999995</ele>
        <time>2018-09-16T14:20:24Z</time>
      </trkpt>
      <trkpt lat="47.573888003826141" lon="10.289698010310531">
        <ele>806.67999999999995</ele>
        <time>2018-09-16T14:20:25Z</time>
      </trkpt>
      <trkpt lat="47.573641994968057" lon="10.289188977330923">
        <ele>803.32000000000005</ele>
        <time>2018-09-16T14:20:33Z</time>
      </trkpt>
      <trkpt lat="47.573618022724986" lon="10.289139021188021">
        <ele>802.84000000000003</ele>
        <time>2018-09-16T14:20:34Z</time>
      </trkpt>
      <trkpt lat="47.573591032996774" lon="10.289083030074835">
        <ele>802.84000000000003</ele>
        <time>2018-09-16T14:20:35Z</time>
      </trkpt>
      <trkpt lat="47.57356395944953" lon="10.289069032296538">
        <ele>802.36000000000001</ele>
        <time>2018-09-16T14:20:36Z</time>
      </trkpt>
      <trkpt lat="47.573505034670234" lon="10.289040030911565">
        <ele>801.88</ele>
        <time>2018-09-16T14:20:37Z</time>
      </trkpt>
      <trkpt lat="47.573468992486596" lon="10.289045982062817">
        <ele>801.88</ele>
        <time>2018-09-16T14:20:38Z</time>
      </trkpt>
      <trkpt lat="47.57291603833437" lon="10.289142960682511">
        <ele>799.95000000000005</ele>
        <time>2018-09-16T14:20:47Z</time>
      </trkpt>
      <trkpt lat="47.572874967008829" lon="10.289147989824414">
        <ele>799.47000000000003</ele>
        <time>2018-09-16T14:20:48Z</time>
      </trkpt>
      <trkpt lat="47.572842026129365" lon="10.289152013137937">
        <ele>799.47000000000003</ele>
        <time>2018-09-16T14:20:49Z</time>
      </trkpt>
      <trkpt lat="47.572815958410501" lon="10.289155030623078">
        <ele>798.99000000000001</ele>
        <time>2018-09-16T14:20:50Z</time>
      </trkpt>
      <trkpt lat="47.572792991995811" lon="10.289157964289188">
        <ele>798.99000000000001</ele>
        <time>2018-09-16T14:20:51Z</time>
      </trkpt>
      <trkpt lat="47.572774970903993" lon="10.28915997594595">
        <ele>798.99000000000001</ele>
        <time>2018-09-16T14:20:52Z</time>
      </trkpt>
      <trkpt lat="47.572759967297316" lon="10.289161987602711">
        <ele>798.99000000000001</ele>
        <time>2018-09-16T14:20:53Z</time>
      </trkpt>
      <trkpt lat="47.57274798117578" lon="10.289163999259472">
        <ele>798.50999999999999</ele>
        <time>2018-09-16T14:20:54Z</time>
      </trkpt>
      <trkpt lat="47.572735995054245" lon="10.289165005087852">
        <ele>798.50999999999999</ele>
        <time>2018-09-16T14:20:55Z</time>
      </trkpt>
      <trkpt lat="47.572727026417851" lon="10.289166010916233">
        <ele>798.02999999999997</ele>
        <time>2018-09-16T14:20:56Z</time>
      </trkpt>
      <trkpt lat="47.572713028639555" lon="10.289168022572994">
        <ele>798.02999999999997</ele>
        <time>2018-09-16T14:20:57Z</time>
      </trkpt>
      <trkpt lat="47.572700036689639" lon="10.289170034229755">
        <ele>797.54999999999995</ele>
        <time>2018-09-16T14:20:58Z</time>
      </trkpt>
      <trkpt lat="47.572700036689639" lon="10.289170034229755">
        <ele>797.07000000000005</ele>
        <time>2018-09-16T14:20:59Z</time>
      </trkpt>
      <trkpt lat="47.572674974799156" lon="10.289172967895865">
        <ele>796.59000000000003</ele>
        <time>2018-09-16T14:21:00Z</time>
      </trkpt>
      <trkpt lat="47.572657959535718" lon="10.289174979552627">
        <ele>796.11000000000001</ele>
        <time>2018-09-16T14:21:01Z</time>
      </trkpt>
      <trkpt lat="47.572657959535718" lon="10.289174979552627">
        <ele>793.71000000000004</ele>
        <time>2018-09-16T14:21:15Z</time>
      </trkpt>
      <trkpt lat="47.572462996467948" lon="10.289055034518242">
        <ele>812.45000000000005</ele>
        <time>2018-09-16T14:24:24Z</time>
      </trkpt>
      <trkpt lat="47.572524016723037" lon="10.289021003991365">
        <ele>795.63</ele>
        <time>2018-09-16T14:24:56Z</time>
      </trkpt>
      <trkpt lat="47.572527034208179" lon="10.289011029526591">
        <ele>795.14999999999998</ele>
        <time>2018-09-16T14:25:08Z</time>
      </trkpt>
      <trkpt lat="47.572504989802837" lon="10.289189983159304">
        <ele>796.11000000000001</ele>
        <time>2018-09-16T14:25:10Z</time>
      </trkpt>
      <trkpt lat="47.572481017559767" lon="10.289189983159304">
        <ele>796.11000000000001</ele>
        <time>2018-09-16T14:25:11Z</time>
      </trkpt>
      <trkpt lat="47.572314972057939" lon="10.28907498344779">
        <ele>796.11000000000001</ele>
        <time>2018-09-16T14:25:17Z</time>
      </trkpt>
      <trkpt lat="47.572275996208191" lon="10.289041958749294">
        <ele>795.63</ele>
        <time>2018-09-16T14:25:18Z</time>
      </trkpt>
      <trkpt lat="47.57223098538816" lon="10.289004994556308">
        <ele>795.14999999999998</ele>
        <time>2018-09-16T14:25:19Z</time>
      </trkpt>
      <trkpt lat="47.572185974568129" lon="10.288943974301219">
        <ele>795.14999999999998</ele>
        <time>2018-09-16T14:25:20Z</time>
      </trkpt>
      <trkpt lat="47.572159990668297" lon="10.288857975974679">
        <ele>794.66999999999996</ele>
        <time>2018-09-16T14:25:21Z</time>
      </trkpt>
      <trkpt lat="47.572131995111704" lon="10.288767032325268">
        <ele>794.66999999999996</ele>
        <time>2018-09-16T14:25:22Z</time>
      </trkpt>
      <trkpt lat="47.572110034525394" lon="10.28866401873529">
        <ele>794.19000000000005</ele>
        <time>2018-09-16T14:25:23Z</time>
      </trkpt>
      <trkpt lat="47.572110034525394" lon="10.288551030680537">
        <ele>794.19000000000005</ele>
        <time>2018-09-16T14:25:24Z</time>
      </trkpt>
      <trkpt lat="47.572130989283323" lon="10.288436030969024">
        <ele>793.71000000000004</ele>
        <time>2018-09-16T14:25:25Z</time>
      </trkpt>
      <trkpt lat="47.572158984839916" lon="10.288312984630466">
        <ele>793.22000000000003</ele>
        <time>2018-09-16T14:25:26Z</time>
      </trkpt>
      <trkpt lat="47.57218798622489" lon="10.288188010454178">
        <ele>792.74000000000001</ele>
        <time>2018-09-16T14:25:27Z</time>
      </trkpt>
      <trkpt lat="47.572216987609863" lon="10.288063958287239">
        <ele>792.74000000000001</ele>
        <time>2018-09-16T14:25:28Z</time>
      </trkpt>
      <trkpt lat="47.57223098538816" lon="10.287821972742677">
        <ele>791.77999999999997</ele>
        <time>2018-09-16T14:25:30Z</time>
      </trkpt>
      <trkpt lat="47.572225034236908" lon="10.287705967202783">
        <ele>791.29999999999995</ele>
        <time>2018-09-16T14:25:31Z</time>
      </trkpt>
      <trkpt lat="47.572218999266624" lon="10.28759197331965">
        <ele>791.29999999999995</ele>
        <time>2018-09-16T14:25:32Z</time>
      </trkpt>
      <trkpt lat="47.572196032851934" lon="10.287472028285265">
        <ele>790.82000000000005</ele>
        <time>2018-09-16T14:25:33Z</time>
      </trkpt>
      <trkpt lat="47.572159990668297" lon="10.287328027188778">
        <ele>789.86000000000001</ele>
        <time>2018-09-16T14:25:34Z</time>
      </trkpt>
      <trkpt lat="47.572121014818549" lon="10.287172039970756">
        <ele>789.38</ele>
        <time>2018-09-16T14:25:35Z</time>
      </trkpt>
      <trkpt lat="47.57205999456346" lon="10.287019992247224">
        <ele>788.89999999999998</ele>
        <time>2018-09-16T14:25:36Z</time>
      </trkpt>
      <trkpt lat="47.571987994015217" lon="10.286866016685963">
        <ele>787.94000000000005</ele>
        <time>2018-09-16T14:25:37Z</time>
      </trkpt>
      <trkpt lat="47.571885986253619" lon="10.286740958690643">
        <ele>786.98000000000002</ele>
        <time>2018-09-16T14:25:38Z</time>
      </trkpt>
      <trkpt lat="47.571777021512389" lon="10.286615984514356">
        <ele>786.5</ele>
        <time>2018-09-16T14:25:39Z</time>
      </trkpt>
      <trkpt lat="47.571664033457637" lon="10.286484975367785">
        <ele>785.52999999999997</ele>
        <time>2018-09-16T14:25:40Z</time>
      </trkpt>
      <trkpt lat="47.571551967412233" lon="10.286357989534736">
        <ele>784.57000000000005</ele>
        <time>2018-09-16T14:25:41Z</time>
      </trkpt>
      <trkpt lat="47.571407966315746" lon="10.28625899925828">
        <ele>783.61000000000001</ele>
        <time>2018-09-16T14:25:42Z</time>
      </trkpt>
      <trkpt lat="47.57126497104764" lon="10.286161014810205">
        <ele>782.64999999999998</ele>
        <time>2018-09-16T14:25:43Z</time>
      </trkpt>
      <trkpt lat="47.571120969951153" lon="10.286074010655284">
        <ele>781.69000000000005</ele>
        <time>2018-09-16T14:25:44Z</time>
      </trkpt>
      <trkpt lat="47.570960959419608" lon="10.286041991785169">
        <ele>780.25</ele>
        <time>2018-09-16T14:25:45Z</time>
      </trkpt>
      <trkpt lat="47.570800026878715" lon="10.286011984571815">
        <ele>778.80999999999995</ele>
        <time>2018-09-16T14:25:46Z</time>
      </trkpt>
      <trkpt lat="47.570633981376886" lon="10.285996980965137">
        <ele>777.84000000000003</ele>
        <time>2018-09-16T14:25:47Z</time>
      </trkpt>
      <trkpt lat="47.570467013865709" lon="10.28598197735846">
        <ele>776.39999999999998</ele>
        <time>2018-09-16T14:25:48Z</time>
      </trkpt>
      <trkpt lat="47.568626012653112" lon="10.285934032872319">
        <ele>761.98000000000002</ele>
        <time>2018-09-16T14:25:58Z</time>
      </trkpt>
      <trkpt lat="47.568247988820076" lon="10.285843005403876">
        <ele>759.10000000000002</ele>
        <time>2018-09-16T14:26:00Z</time>
      </trkpt>
      <trkpt lat="47.568046990782022" lon="10.285719959065318">
        <ele>757.65999999999997</ele>
        <time>2018-09-16T14:26:01Z</time>
      </trkpt>
      <trkpt lat="47.567856973037124" lon="10.285604959353805">
        <ele>756.69000000000005</ele>
        <time>2018-09-16T14:26:02Z</time>
      </trkpt>
      <trkpt lat="47.567681958898902" lon="10.28546598739922">
        <ele>755.25</ele>
        <time>2018-09-16T14:26:03Z</time>
      </trkpt>
      <trkpt lat="47.567519014701247" lon="10.28529298491776">
        <ele>753.80999999999995</ele>
        <time>2018-09-16T14:26:04Z</time>
      </trkpt>
      <trkpt lat="47.567365039139986" lon="10.285115959122777">
        <ele>752.37</ele>
        <time>2018-09-16T14:26:05Z</time>
      </trkpt>
      <trkpt lat="47.567233024165034" lon="10.284899035468698">
        <ele>750.92999999999995</ele>
        <time>2018-09-16T14:26:06Z</time>
      </trkpt>
      <trkpt lat="47.567101009190083" lon="10.284681022167206">
        <ele>749.97000000000003</ele>
        <time>2018-09-16T14:26:07Z</time>
      </trkpt>
      <trkpt lat="47.566997995600104" lon="10.284442976117134">
        <ele>749</ele>
        <time>2018-09-16T14:26:08Z</time>
      </trkpt>
      <trkpt lat="47.566895987838507" lon="10.28419503942132">
        <ele>748.03999999999996</ele>
        <time>2018-09-16T14:26:09Z</time>
      </trkpt>
      <trkpt lat="47.566037010401487" lon="10.282300980761647">
        <ele>744.20000000000005</ele>
        <time>2018-09-16T14:26:17Z</time>
      </trkpt>
      <trkpt lat="47.564835967496037" lon="10.280727026984096">
        <ele>740.83000000000004</ele>
        <time>2018-09-16T14:26:25Z</time>
      </trkpt>
      <trkpt lat="47.562835961580276" lon="10.278807990252972">
        <ele>736.99000000000001</ele>
        <time>2018-09-16T14:26:36Z</time>
      </trkpt>
      <trkpt lat="47.561093028634787" lon="10.277240993455052">
        <ele>736.50999999999999</ele>
        <time>2018-09-16T14:26:46Z</time>
      </trkpt>
      <trkpt lat="47.560614002868533" lon="10.276818964630365">
        <ele>736.02999999999997</ele>
        <time>2018-09-16T14:26:50Z</time>
      </trkpt>
      <trkpt lat="47.560528004541993" lon="10.276744030416012">
        <ele>736.02999999999997</ele>
        <time>2018-09-16T14:26:51Z</time>
      </trkpt>
      <trkpt lat="47.560502020642161" lon="10.276573039591312">
        <ele>735.54999999999995</ele>
        <time>2018-09-16T14:26:52Z</time>
      </trkpt>
      <trkpt lat="47.560481987893581" lon="10.276503972709179">
        <ele>735.54999999999995</ele>
        <time>2018-09-16T14:26:53Z</time>
      </trkpt>
      <trkpt lat="47.56043597124517" lon="10.276400037109852">
        <ele>735.54999999999995</ele>
        <time>2018-09-16T14:26:54Z</time>
      </trkpt>
      <trkpt lat="47.560386015102267" lon="10.276349997147918">
        <ele>735.54999999999995</ele>
        <time>2018-09-16T14:26:55Z</time>
      </trkpt>
      <trkpt lat="47.560310997068882" lon="10.276327030733228">
        <ele>735.54999999999995</ele>
        <time>2018-09-16T14:26:56Z</time>
      </trkpt>
      <trkpt lat="47.56024201400578" lon="10.276345973834395">
        <ele>735.54999999999995</ele>
        <time>2018-09-16T14:26:57Z</time>
      </trkpt>
      <trkpt lat="47.56017797626555" lon="10.276398025453091">
        <ele>735.07000000000005</ele>
        <time>2018-09-16T14:26:58Z</time>
      </trkpt>
      <trkpt lat="47.560130031779408" lon="10.27648301795125">
        <ele>734.58000000000004</ele>
        <time>2018-09-16T14:26:59Z</time>
      </trkpt>
      <trkpt lat="47.560115028172731" lon="10.276507996022701">
        <ele>734.58000000000004</ele>
        <time>2018-09-16T14:27:00Z</time>
      </trkpt>
      <trkpt lat="47.560043027624488" lon="10.276742018759251">
        <ele>734.10000000000002</ele>
        <time>2018-09-16T14:27:01Z</time>
      </trkpt>
      <trkpt lat="47.559950994327664" lon="10.276803961023688">
        <ele>734.10000000000002</ele>
        <time>2018-09-16T14:27:02Z</time>
      </trkpt>
      <trkpt lat="47.559844963252544" lon="10.276874033734202">
        <ele>734.10000000000002</ele>
        <time>2018-09-16T14:27:03Z</time>
      </trkpt>
      <trkpt lat="47.558805020526052" lon="10.277567971497774">
        <ele>732.65999999999997</ele>
        <time>2018-09-16T14:27:10Z</time>
      </trkpt>
      <trkpt lat="47.557023027911782" lon="10.278572039678693">
        <ele>733.13999999999999</ele>
        <time>2018-09-16T14:27:19Z</time>
      </trkpt>
      <trkpt lat="47.556801997125149" lon="10.278586959466338">
        <ele>732.65999999999997</ele>
        <time>2018-09-16T14:27:20Z</time>
      </trkpt>
      <trkpt lat="47.555940002202988" lon="10.278689973056316">
        <ele>733.13999999999999</ele>
        <time>2018-09-16T14:27:24Z</time>
      </trkpt>
      <trkpt lat="47.555737998336554" lon="10.27874001301825">
        <ele>733.62</ele>
        <time>2018-09-16T14:27:25Z</time>
      </trkpt>
      <trkpt lat="47.555545968934894" lon="10.278841014951468">
        <ele>734.10000000000002</ele>
        <time>2018-09-16T14:27:26Z</time>
      </trkpt>
      <trkpt lat="47.554005039855838" lon="10.279817003756762">
        <ele>737.47000000000003</ele>
        <time>2018-09-16T14:27:34Z</time>
      </trkpt>
      <trkpt lat="47.553146984428167" lon="10.280174994841218">
        <ele>737.47000000000003</ele>
        <time>2018-09-16T14:27:39Z</time>
      </trkpt>
      <trkpt lat="47.552983034402132" lon="10.280167032033205">
        <ele>737.47000000000003</ele>
        <time>2018-09-16T14:27:40Z</time>
      </trkpt>
      <trkpt lat="47.552814977243543" lon="10.28015797957778">
        <ele>736.99000000000001</ele>
        <time>2018-09-16T14:27:41Z</time>
      </trkpt>
      <trkpt lat="47.552643986418843" lon="10.28011498041451">
        <ele>736.50999999999999</ele>
        <time>2018-09-16T14:27:42Z</time>
      </trkpt>
      <trkpt lat="47.552468972280622" lon="10.280062006786466">
        <ele>736.02999999999997</ele>
        <time>2018-09-16T14:27:43Z</time>
      </trkpt>
      <trkpt lat="47.551628015935421" lon="10.27985698543489">
        <ele>733.62</ele>
        <time>2018-09-16T14:27:49Z</time>
      </trkpt>
      <trkpt lat="47.551287040114403" lon="10.279697980731726">
        <ele>732.17999999999995</ele>
        <time>2018-09-16T14:27:53Z</time>
      </trkpt>
      <trkpt lat="47.551040025427938" lon="10.279549034312367">
        <ele>732.17999999999995</ele>
        <time>2018-09-16T14:27:56Z</time>
      </trkpt>
      <trkpt lat="47.550888983532786" lon="10.27944803237915">
        <ele>732.65999999999997</ele>
        <time>2018-09-16T14:27:58Z</time>
      </trkpt>
      <trkpt lat="47.550790999084711" lon="10.27944803237915">
        <ele>732.65999999999997</ele>
        <time>2018-09-16T14:27:59Z</time>
      </trkpt>
      <trkpt lat="47.55070298910141" lon="10.279458006843925">
        <ele>732.65999999999997</ele>
        <time>2018-09-16T14:28:00Z</time>
      </trkpt>
      <trkpt lat="47.550613973289728" lon="10.279483990743756">
        <ele>732.65999999999997</ele>
        <time>2018-09-16T14:28:01Z</time>
      </trkpt>
      <trkpt lat="47.550527974963188" lon="10.279531013220549">
        <ele>732.65999999999997</ele>
        <time>2018-09-16T14:28:02Z</time>
      </trkpt>
      <trkpt lat="47.550437031313777" lon="10.279601002112031">
        <ele>732.65999999999997</ele>
        <time>2018-09-16T14:28:03Z</time>
      </trkpt>
      <trkpt lat="47.550331000238657" lon="10.279683982953429">
        <ele>732.17999999999995</ele>
        <time>2018-09-16T14:28:04Z</time>
      </trkpt>
      <trkpt lat="47.54919801838696" lon="10.280600041151047">
        <ele>730.74000000000001</ele>
        <time>2018-09-16T14:28:13Z</time>
      </trkpt>
      <trkpt lat="47.549052005633712" lon="10.280715962871909">
        <ele>730.25999999999999</ele>
        <time>2018-09-16T14:28:14Z</time>
      </trkpt>
      <trkpt lat="47.54889702424407" lon="10.280809001997113">
        <ele>730.74000000000001</ele>
        <time>2018-09-16T14:28:15Z</time>
      </trkpt>
      <trkpt lat="47.548724021762609" lon="10.280818976461887">
        <ele>730.74000000000001</ele>
        <time>2018-09-16T14:28:16Z</time>
      </trkpt>
      <trkpt lat="47.548558982089162" lon="10.280815958976746">
        <ele>731.22000000000003</ele>
        <time>2018-09-16T14:28:17Z</time>
      </trkpt>
      <trkpt lat="47.548388997092843" lon="10.280813025310636">
        <ele>731.70000000000005</ele>
        <time>2018-09-16T14:28:18Z</time>
      </trkpt>
      <trkpt lat="47.547862026840448" lon="10.28080397285521">
        <ele>733.13999999999999</ele>
        <time>2018-09-16T14:28:21Z</time>
      </trkpt>
      <trkpt lat="47.547691036015749" lon="10.28080003336072">
        <ele>733.62</ele>
        <time>2018-09-16T14:28:22Z</time>
      </trkpt>
      <trkpt lat="47.547524990513921" lon="10.280905980616808">
        <ele>733.62</ele>
        <time>2018-09-16T14:28:23Z</time>
      </trkpt>
      <trkpt lat="47.54737202078104" lon="10.281017040833831">
        <ele>733.62</ele>
        <time>2018-09-16T14:28:24Z</time>
      </trkpt>
      <trkpt lat="47.547215027734637" lon="10.281132040545344">
        <ele>733.62</ele>
        <time>2018-09-16T14:28:25Z</time>
      </trkpt>
      <trkpt lat="47.546325959265232" lon="10.281781973317266">
        <ele>732.17999999999995</ele>
        <time>2018-09-16T14:28:31Z</time>
      </trkpt>
      <trkpt lat="47.546177012845874" lon="10.281847016885877">
        <ele>732.17999999999995</ele>
        <time>2018-09-16T14:28:32Z</time>
      </trkpt>
      <trkpt lat="47.546031000092626" lon="10.281909964978695">
        <ele>732.17999999999995</ele>
        <time>2018-09-16T14:28:33Z</time>
      </trkpt>
      <trkpt lat="47.545871995389462" lon="10.28189797885716">
        <ele>731.70000000000005</ele>
        <time>2018-09-16T14:28:34Z</time>
      </trkpt>
      <trkpt lat="47.545716008171439" lon="10.281880041584373">
        <ele>731.70000000000005</ele>
        <time>2018-09-16T14:28:35Z</time>
      </trkpt>
      <trkpt lat="47.545559015125036" lon="10.281861014664173">
        <ele>731.22000000000003</ele>
        <time>2018-09-16T14:28:36Z</time>
      </trkpt>
      <trkpt lat="47.545405961573124" lon="10.281818015500903">
        <ele>731.22000000000003</ele>
        <time>2018-09-16T14:28:37Z</time>
      </trkpt>
      <trkpt lat="47.545252991840243" lon="10.281749032437801">
        <ele>731.22000000000003</ele>
        <time>2018-09-16T14:28:38Z</time>
      </trkpt>
      <trkpt lat="47.544781006872654" lon="10.281535964459181">
        <ele>732.17999999999995</ele>
        <time>2018-09-16T14:28:41Z</time>
      </trkpt>
      <trkpt lat="47.544625019654632" lon="10.281465975567698">
        <ele>732.65999999999997</ele>
        <time>2018-09-16T14:28:42Z</time>
      </trkpt>
      <trkpt lat="47.5444729719311" lon="10.281397998332977">
        <ele>733.13999999999999</ele>
        <time>2018-09-16T14:28:43Z</time>
      </trkpt>
      <trkpt lat="47.544327965006232" lon="10.281332032755017">
        <ele>733.62</ele>
        <time>2018-09-16T14:28:44Z</time>
      </trkpt>
      <trkpt lat="47.543789008632302" lon="10.281630009412766">
        <ele>734.58000000000004</ele>
        <time>2018-09-16T14:28:46Z</time>
      </trkpt>
      <trkpt lat="47.543712984770536" lon="10.281871994957328">
        <ele>735.07000000000005</ele>
        <time>2018-09-16T14:28:47Z</time>
      </trkpt>
      <trkpt lat="47.543650036677718" lon="10.282078022137284">
        <ele>735.54999999999995</ele>
        <time>2018-09-16T14:28:48Z</time>
      </trkpt>
      <trkpt lat="47.543583987280726" lon="10.282287988811731">
        <ele>735.54999999999995</ele>
        <time>2018-09-16T14:28:49Z</time>
      </trkpt>
      <trkpt lat="47.543501006439328" lon="10.282545983791351">
        <ele>735.54999999999995</ele>
        <time>2018-09-16T14:28:50Z</time>
      </trkpt>
      <trkpt lat="47.542559970170259" lon="10.283711990341544">
        <ele>736.50999999999999</ele>
        <time>2018-09-16T14:28:58Z</time>
      </trkpt>
      <trkpt lat="47.542430972680449" lon="10.283811986446381">
        <ele>736.99000000000001</ele>
        <time>2018-09-16T14:28:59Z</time>
      </trkpt>
      <trkpt lat="47.542286971583962" lon="10.283879041671753">
        <ele>737.47000000000003</ele>
        <time>2018-09-16T14:29:00Z</time>
      </trkpt>
      <trkpt lat="47.541525978595018" lon="10.284272991120815">
        <ele>743.24000000000001</ele>
        <time>2018-09-16T14:29:07Z</time>
      </trkpt>
      <trkpt lat="47.541446015238762" lon="10.284345997497439">
        <ele>744.20000000000005</ele>
        <time>2018-09-16T14:29:08Z</time>
      </trkpt>
      <trkpt lat="47.541382983326912" lon="10.284405006095767">
        <ele>744.67999999999995</ele>
        <time>2018-09-16T14:29:09Z</time>
      </trkpt>
      <trkpt lat="47.541340989992023" lon="10.284548001363873">
        <ele>744.67999999999995</ele>
        <time>2018-09-16T14:29:10Z</time>
      </trkpt>
      <trkpt lat="47.541303019970655" lon="10.284680016338825">
        <ele>745.15999999999997</ele>
        <time>2018-09-16T14:29:11Z</time>
      </trkpt>
      <trkpt lat="47.541264966130257" lon="10.284809013828635">
        <ele>745.15999999999997</ele>
        <time>2018-09-16T14:29:12Z</time>
      </trkpt>
      <trkpt lat="47.541225990280509" lon="10.284943040460348">
        <ele>744.67999999999995</ele>
        <time>2018-09-16T14:29:13Z</time>
      </trkpt>
      <trkpt lat="47.541187014430761" lon="10.285074971616268">
        <ele>744.20000000000005</ele>
        <time>2018-09-16T14:29:14Z</time>
      </trkpt>
      <trkpt lat="47.541148038581014" lon="10.285208998247981">
        <ele>744.20000000000005</ele>
        <time>2018-09-16T14:29:15Z</time>
      </trkpt>
      <trkpt lat="47.54103203304112" lon="10.285586016252637">
        <ele>745.15999999999997</ele>
        <time>2018-09-16T14:29:18Z</time>
      </trkpt>
      <trkpt lat="47.54099196754396" lon="10.285705039277673">
        <ele>745.63999999999999</ele>
        <time>2018-09-16T14:29:19Z</time>
      </trkpt>
      <trkpt lat="47.540953997522593" lon="10.285820960998535">
        <ele>746.12</ele>
        <time>2018-09-16T14:29:20Z</time>
      </trkpt>
      <trkpt lat="47.540865987539291" lon="10.285891033709049">
        <ele>747.08000000000004</ele>
        <time>2018-09-16T14:29:21Z</time>
      </trkpt>
      <trkpt lat="47.540788035839796" lon="10.285953981801867">
        <ele>748.03999999999996</ele>
        <time>2018-09-16T14:29:22Z</time>
      </trkpt>
      <trkpt lat="47.540701031684875" lon="10.285993041470647">
        <ele>748.51999999999998</ele>
        <time>2018-09-16T14:29:23Z</time>
      </trkpt>
      <trkpt lat="47.540613021701574" lon="10.285993041470647">
        <ele>749</ele>
        <time>2018-09-16T14:29:24Z</time>
      </trkpt>
      <trkpt lat="47.540525011718273" lon="10.285964962095022">
        <ele>749</ele>
        <time>2018-09-16T14:29:25Z</time>
      </trkpt>
      <trkpt lat="47.540434990078211" lon="10.285923974588513">
        <ele>749.49000000000001</ele>
        <time>2018-09-16T14:29:26Z</time>
      </trkpt>
      <trkpt lat="47.540345974266529" lon="10.285884998738766">
        <ele>750.45000000000005</ele>
        <time>2018-09-16T14:29:27Z</time>
      </trkpt>
      <trkpt lat="47.540258970111609" lon="10.285846022889018">
        <ele>750.92999999999995</ele>
        <time>2018-09-16T14:29:28Z</time>
      </trkpt>
      <trkpt lat="47.540171965956688" lon="10.285805035382509">
        <ele>751.40999999999997</ele>
        <time>2018-09-16T14:29:29Z</time>
      </trkpt>
      <trkpt lat="47.540087979286909" lon="10.285760024562478">
        <ele>751.88999999999999</ele>
        <time>2018-09-16T14:29:30Z</time>
      </trkpt>
      <trkpt lat="47.540006004273891" lon="10.285716019570827">
        <ele>752.37</ele>
        <time>2018-09-16T14:29:31Z</time>
      </trkpt>
      <trkpt lat="47.539921011775732" lon="10.285671008750796">
        <ele>753.33000000000004</ele>
        <time>2018-09-16T14:29:32Z</time>
      </trkpt>
      <trkpt lat="47.539379959926009" lon="10.285590961575508">
        <ele>756.21000000000004</ele>
        <time>2018-09-16T14:29:38Z</time>
      </trkpt>
      <trkpt lat="47.539207963272929" lon="10.285613005980849">
        <ele>755.25</ele>
        <time>2018-09-16T14:29:40Z</time>
      </trkpt>
      <trkpt lat="47.538686022162437" lon="10.285661034286022">
        <ele>755.25</ele>
        <time>2018-09-16T14:29:46Z</time>
      </trkpt>
      <trkpt lat="47.538597006350756" lon="10.285651981830597">
        <ele>755.73000000000002</ele>
        <time>2018-09-16T14:29:47Z</time>
      </trkpt>
      <trkpt lat="47.538508996367455" lon="10.285621974617243">
        <ele>756.21000000000004</ele>
        <time>2018-09-16T14:29:48Z</time>
      </trkpt>
      <trkpt lat="47.538170032203197" lon="10.285411002114415">
        <ele>755.25</ele>
        <time>2018-09-16T14:29:52Z</time>
      </trkpt>
      <trkpt lat="47.538080010563135" lon="10.285384012386203">
        <ele>754.28999999999996</ele>
        <time>2018-09-16T14:29:53Z</time>
      </trkpt>
      <trkpt lat="47.537988983094692" lon="10.285373032093048">
        <ele>753.33000000000004</ele>
        <time>2018-09-16T14:29:54Z</time>
      </trkpt>
      <trkpt lat="47.537900973111391" lon="10.285361967980862">
        <ele>752.85000000000002</ele>
        <time>2018-09-16T14:29:55Z</time>
      </trkpt>
      <trkpt lat="47.53781296312809" lon="10.285350987687707">
        <ele>752.37</ele>
        <time>2018-09-16T14:29:56Z</time>
      </trkpt>
      <trkpt lat="47.537728976458311" lon="10.285359034314752">
        <ele>751.88999999999999</ele>
        <time>2018-09-16T14:29:57Z</time>
      </trkpt>
      <trkpt lat="47.537641972303391" lon="10.285371020436287">
        <ele>751.40999999999997</ele>
        <time>2018-09-16T14:29:58Z</time>
      </trkpt>
      <trkpt lat="47.537473998963833" lon="10.285403961315751">
        <ele>750.92999999999995</ele>
        <time>2018-09-16T14:30:00Z</time>
      </trkpt>
      <trkpt lat="47.537225978448987" lon="10.28552801348269">
        <ele>750.92999999999995</ele>
        <time>2018-09-16T14:30:03Z</time>
      </trkpt>
      <trkpt lat="47.536974018439651" lon="10.285662040114403">
        <ele>750.92999999999995</ele>
        <time>2018-09-16T14:30:06Z</time>
      </trkpt>
      <trkpt lat="47.536794980987906" lon="10.285684000700712">
        <ele>750.45000000000005</ele>
        <time>2018-09-16T14:30:08Z</time>
      </trkpt>
      <trkpt lat="47.536707976832986" lon="10.285677965730429">
        <ele>749.97000000000003</ele>
        <time>2018-09-16T14:30:09Z</time>
      </trkpt>
      <trkpt lat="47.536598006263375" lon="10.285671008750796">
        <ele>749</ele>
        <time>2018-09-16T14:30:10Z</time>
      </trkpt>
      <trkpt lat="47.536531034857035" lon="10.285632032901049">
        <ele>748.03999999999996</ele>
        <time>2018-09-16T14:30:11Z</time>
      </trkpt>
      <trkpt lat="47.536449981853366" lon="10.285584004595876">
        <ele>747.08000000000004</ele>
        <time>2018-09-16T14:30:12Z</time>
      </trkpt>
      <trkpt lat="47.535594021901488" lon="10.285128029063344">
        <ele>741.78999999999996</ele>
        <time>2018-09-16T14:30:22Z</time>
      </trkpt>
      <trkpt lat="47.53458702005446" lon="10.284589994698763">
        <ele>742.75999999999999</ele>
        <time>2018-09-16T14:30:33Z</time>
      </trkpt>
      <trkpt lat="47.533207023516297" lon="10.283609982579947">
        <ele>744.20000000000005</ele>
        <time>2018-09-16T14:30:46Z</time>
      </trkpt>
      <trkpt lat="47.531886035576463" lon="10.282866004854441">
        <ele>744.67999999999995</ele>
        <time>2018-09-16T14:30:54Z</time>
      </trkpt>
      <trkpt lat="47.529790978878736" lon="10.281678959727287">
        <ele>745.15999999999997</ele>
        <time>2018-09-16T14:31:04Z</time>
      </trkpt>
      <trkpt lat="47.527742022648454" lon="10.280680004507303">
        <ele>744.67999999999995</ele>
        <time>2018-09-16T14:31:13Z</time>
      </trkpt>
      <trkpt lat="47.526740971952677" lon="10.280670030042529">
        <ele>744.20000000000005</ele>
        <time>2018-09-16T14:31:18Z</time>
      </trkpt>
      <trkpt lat="47.525659035891294" lon="10.280997008085251">
        <ele>745.63999999999999</ele>
        <time>2018-09-16T14:31:26Z</time>
      </trkpt>
      <trkpt lat="47.524640969932079" lon="10.281563038006425">
        <ele>748.03999999999996</ele>
        <time>2018-09-16T14:31:35Z</time>
      </trkpt>
      <trkpt lat="47.524524964392185" lon="10.281571000814438">
        <ele>748.51999999999998</ele>
        <time>2018-09-16T14:31:36Z</time>
      </trkpt>
      <trkpt lat="47.524406025186181" lon="10.281559014692903">
        <ele>748.03999999999996</ele>
        <time>2018-09-16T14:31:37Z</time>
      </trkpt>
      <trkpt lat="47.52393102273345" lon="10.281550968065858">
        <ele>748.03999999999996</ele>
        <time>2018-09-16T14:31:41Z</time>
      </trkpt>
      <trkpt lat="47.523811999708414" lon="10.281550968065858">
        <ele>747.55999999999995</ele>
        <time>2018-09-16T14:31:42Z</time>
      </trkpt>
      <trkpt lat="47.523700017482042" lon="10.281588016077876">
        <ele>748.03999999999996</ele>
        <time>2018-09-16T14:31:43Z</time>
      </trkpt>
      <trkpt lat="47.523588035255671" lon="10.281650964170694">
        <ele>748.03999999999996</ele>
        <time>2018-09-16T14:31:44Z</time>
      </trkpt>
      <trkpt lat="47.523476975038648" lon="10.281713996082544">
        <ele>748.51999999999998</ele>
        <time>2018-09-16T14:31:45Z</time>
      </trkpt>
      <trkpt lat="47.523365998640656" lon="10.281776022166014">
        <ele>748.51999999999998</ele>
        <time>2018-09-16T14:31:46Z</time>
      </trkpt>
      <trkpt lat="47.523145973682404" lon="10.281899990513921">
        <ele>748.51999999999998</ele>
        <time>2018-09-16T14:31:48Z</time>
      </trkpt>
      <trkpt lat="47.522797035053372" lon="10.281953969970345">
        <ele>748.03999999999996</ele>
        <time>2018-09-16T14:31:51Z</time>
      </trkpt>
      <trkpt lat="47.521470012143254" lon="10.282023036852479">
        <ele>747.55999999999995</ele>
        <time>2018-09-16T14:32:02Z</time>
      </trkpt>
      <trkpt lat="47.520401990041137" lon="10.281952964141965">
        <ele>748.51999999999998</ele>
        <time>2018-09-16T14:32:11Z</time>
      </trkpt>
      <trkpt lat="47.520285984501243" lon="10.281935026869178">
        <ele>749</ele>
        <time>2018-09-16T14:32:12Z</time>
      </trkpt>
      <trkpt lat="47.520161010324955" lon="10.281915999948978">
        <ele>749.49000000000001</ele>
        <time>2018-09-16T14:32:13Z</time>
      </trkpt>
      <trkpt lat="47.520091021433473" lon="10.281895967200398">
        <ele>749.97000000000003</ele>
        <time>2018-09-16T14:32:14Z</time>
      </trkpt>
      <trkpt lat="47.519946014508605" lon="10.281864032149315">
        <ele>750.45000000000005</ele>
        <time>2018-09-16T14:32:16Z</time>
      </trkpt>
      <trkpt lat="47.51976203173399" lon="10.281711984425783">
        <ele>750.45000000000005</ele>
        <time>2018-09-16T14:32:19Z</time>
      </trkpt>
      <trkpt lat="47.519733030349016" lon="10.281633026897907">
        <ele>750.92999999999995</ele>
        <time>2018-09-16T14:32:20Z</time>
      </trkpt>
      <trkpt lat="47.519707968458533" lon="10.281549962237477">
        <ele>750.92999999999995</ele>
        <time>2018-09-16T14:32:21Z</time>
      </trkpt>
      <trkpt lat="47.519689025357366" lon="10.281457006931305">
        <ele>750.92999999999995</ele>
        <time>2018-09-16T14:32:22Z</time>
      </trkpt>
      <trkpt lat="47.519689025357366" lon="10.281293978914618">
        <ele>751.40999999999997</ele>
        <time>2018-09-16T14:32:23Z</time>
      </trkpt>
      <trkpt lat="47.519704028964043" lon="10.281218038871884">
        <ele>751.40999999999997</ele>
        <time>2018-09-16T14:32:24Z</time>
      </trkpt>
      <trkpt lat="47.519728001207113" lon="10.281092980876565">
        <ele>751.40999999999997</ele>
        <time>2018-09-16T14:32:25Z</time>
      </trkpt>
      <trkpt lat="47.520010974258184" lon="10.27974802069366">
        <ele>749</ele>
        <time>2018-09-16T14:32:33Z</time>
      </trkpt>
      <trkpt lat="47.52032496035099" lon="10.277805011719465">
        <ele>746.60000000000002</ele>
        <time>2018-09-16T14:32:43Z</time>
      </trkpt>
      <trkpt lat="47.52042998559773" lon="10.275882035493851">
        <ele>744.20000000000005</ele>
        <time>2018-09-16T14:32:53Z</time>
      </trkpt>
      <trkpt lat="47.520405007526278" lon="10.273567959666252">
        <ele>747.08000000000004</ele>
        <time>2018-09-16T14:33:05Z</time>
      </trkpt>
      <trkpt lat="47.520338036119938" lon="10.271177021786571">
        <ele>750.92999999999995</ele>
        <time>2018-09-16T14:33:17Z</time>
      </trkpt>
      <trkpt lat="47.520285984501243" lon="10.26909202337265">
        <ele>748.51999999999998</ele>
        <time>2018-09-16T14:33:29Z</time>
      </trkpt>
      <trkpt lat="47.520222030580044" lon="10.268118968233466">
        <ele>745.63999999999999</ele>
        <time>2018-09-16T14:33:37Z</time>
      </trkpt>
      <trkpt lat="47.52027902752161" lon="10.267854016274214">
        <ele>744.67999999999995</ele>
        <time>2018-09-16T14:33:42Z</time>
      </trkpt>
      <trkpt lat="47.520283972844481" lon="10.267737004905939">
        <ele>744.67999999999995</ele>
        <time>2018-09-16T14:33:43Z</time>
      </trkpt>
      <trkpt lat="47.520244996994734" lon="10.267614964395761">
        <ele>744.20000000000005</ele>
        <time>2018-09-16T14:33:44Z</time>
      </trkpt>
      <trkpt lat="47.520176013931632" lon="10.26754698716104">
        <ele>743.72000000000003</ele>
        <time>2018-09-16T14:33:45Z</time>
      </trkpt>
      <trkpt lat="47.520118011161685" lon="10.267517985776067">
        <ele>743.72000000000003</ele>
        <time>2018-09-16T14:33:46Z</time>
      </trkpt>
      <trkpt lat="47.520035030320287" lon="10.267580011859536">
        <ele>742.75999999999999</ele>
        <time>2018-09-16T14:33:47Z</time>
      </trkpt>
      <trkpt lat="47.519939979538321" lon="10.267644971609116">
        <ele>742.27999999999997</ele>
        <time>2018-09-16T14:33:48Z</time>
      </trkpt>
      <trkpt lat="47.519852975383401" lon="10.267628040164709">
        <ele>741.78999999999996</ele>
        <time>2018-09-16T14:33:49Z</time>
      </trkpt>
      <trkpt lat="47.519753985106945" lon="10.267608007416129">
        <ele>741.78999999999996</ele>
        <time>2018-09-16T14:33:50Z</time>
      </trkpt>
      <trkpt lat="47.519653989002109" lon="10.267639020457864">
        <ele>741.30999999999995</ele>
        <time>2018-09-16T14:33:51Z</time>
      </trkpt>
      <trkpt lat="47.519543012604117" lon="10.267688976600766">
        <ele>741.30999999999995</ele>
        <time>2018-09-16T14:33:52Z</time>
      </trkpt>
      <trkpt lat="47.519445028156042" lon="10.267771035432816">
        <ele>741.30999999999995</ele>
        <time>2018-09-16T14:33:53Z</time>
      </trkpt>
      <trkpt lat="47.519344026222825" lon="10.26788997463882">
        <ele>741.30999999999995</ele>
        <time>2018-09-16T14:33:54Z</time>
      </trkpt>
      <trkpt lat="47.519239000976086" lon="10.268013020977378">
        <ele>741.30999999999995</ele>
        <time>2018-09-16T14:33:55Z</time>
      </trkpt>
      <trkpt lat="47.519130958244205" lon="10.268141012638807">
        <ele>741.30999999999995</ele>
        <time>2018-09-16T14:33:56Z</time>
      </trkpt>
      <trkpt lat="47.518365019932389" lon="10.26911498978734">
        <ele>740.83000000000004</ele>
        <time>2018-09-16T14:34:03Z</time>
      </trkpt>
      <trkpt lat="47.518262006342411" lon="10.269214985892177">
        <ele>740.83000000000004</ele>
        <time>2018-09-16T14:34:04Z</time>
      </trkpt>
      <trkpt lat="47.516979994252324" lon="10.269894003868103">
        <ele>740.83000000000004</ele>
        <time>2018-09-16T14:34:13Z</time>
      </trkpt>
      <trkpt lat="47.515223985537887" lon="10.270722974091768">
        <ele>738.42999999999995</ele>
        <time>2018-09-16T14:34:24Z</time>
      </trkpt>
      <trkpt lat="47.513474011793733" lon="10.271183978766203">
        <ele>739.87</ele>
        <time>2018-09-16T14:34:35Z</time>
      </trkpt>
      <trkpt lat="47.512171966955066" lon="10.271427975967526">
        <ele>743.24000000000001</ele>
        <time>2018-09-16T14:34:45Z</time>
      </trkpt>
      <trkpt lat="47.510784007608891" lon="10.271623022854328">
        <ele>744.67999999999995</ele>
        <time>2018-09-16T14:34:54Z</time>
      </trkpt>
      <trkpt lat="47.509231008589268" lon="10.271718995645642">
        <ele>745.63999999999999</ele>
        <time>2018-09-16T14:35:04Z</time>
      </trkpt>
      <trkpt lat="47.507180962711573" lon="10.271295960992575">
        <ele>747.08000000000004</ele>
        <time>2018-09-16T14:35:17Z</time>
      </trkpt>
      <trkpt lat="47.50549703836441" lon="10.270346961915493">
        <ele>746.60000000000002</ele>
        <time>2018-09-16T14:35:28Z</time>
      </trkpt>
      <trkpt lat="47.503849994391203" lon="10.268850037828088">
        <ele>743.24000000000001</ele>
        <time>2018-09-16T14:35:39Z</time>
      </trkpt>
      <trkpt lat="47.502376958727837" lon="10.267558973282576">
        <ele>743.24000000000001</ele>
        <time>2018-09-16T14:35:48Z</time>
      </trkpt>
      <trkpt lat="47.500739973038435" lon="10.266588013619184">
        <ele>743.72000000000003</ele>
        <time>2018-09-16T14:35:58Z</time>
      </trkpt>
      <trkpt lat="47.498885979875922" lon="10.265970015898347">
        <ele>747.08000000000004</ele>
        <time>2018-09-16T14:36:09Z</time>
      </trkpt>
      <trkpt lat="47.496958980336785" lon="10.265579000115395">
        <ele>747.55999999999995</ele>
        <time>2018-09-16T14:36:20Z</time>
      </trkpt>
      <trkpt lat="47.496036970987916" lon="10.265473974868655">
        <ele>748.03999999999996</ele>
        <time>2018-09-16T14:36:25Z</time>
      </trkpt>
      <trkpt lat="47.4958720151335" lon="10.265502976253629">
        <ele>748.51999999999998</ele>
        <time>2018-09-16T14:36:26Z</time>
      </trkpt>
      <trkpt lat="47.495715022087097" lon="10.265545975416899">
        <ele>748.51999999999998</ele>
        <time>2018-09-16T14:36:27Z</time>
      </trkpt>
      <trkpt lat="47.4940450116992" lon="10.266373017802835">
        <ele>749.97000000000003</ele>
        <time>2018-09-16T14:36:37Z</time>
      </trkpt>
      <trkpt lat="47.493541007861495" lon="10.266604023054242">
        <ele>750.92999999999995</ele>
        <time>2018-09-16T14:36:40Z</time>
      </trkpt>
      <trkpt lat="47.492169979959726" lon="10.266727991402149">
        <ele>755.25</ele>
        <time>2018-09-16T14:36:48Z</time>
      </trkpt>
      <trkpt lat="47.49131703749299" lon="10.266704019159079">
        <ele>760.05999999999995</ele>
        <time>2018-09-16T14:36:53Z</time>
      </trkpt>
      <trkpt lat="47.490641959011555" lon="10.266675017774105">
        <ele>765.35000000000002</ele>
        <time>2018-09-16T14:36:57Z</time>
      </trkpt>
      <trkpt lat="47.489422978833318" lon="10.266915997490287">
        <ele>773.03999999999996</ele>
        <time>2018-09-16T14:37:05Z</time>
      </trkpt>
      <trkpt lat="47.488126968964934" lon="10.26700995862484">
        <ele>780.73000000000002</ele>
        <time>2018-09-16T14:37:15Z</time>
      </trkpt>
      <trkpt lat="47.487349966540933" lon="10.266926977783442">
        <ele>782.64999999999998</ele>
        <time>2018-09-16T14:37:21Z</time>
      </trkpt>
      <trkpt lat="47.487208982929587" lon="10.266950028017163">
        <ele>783.13</ele>
        <time>2018-09-16T14:37:22Z</time>
      </trkpt>
      <trkpt lat="47.486136015504599" lon="10.267147002741694">
        <ele>785.04999999999995</ele>
        <time>2018-09-16T14:37:29Z</time>
      </trkpt>
      <trkpt lat="47.485986985266209" lon="10.267139039933681">
        <ele>785.52999999999997</ele>
        <time>2018-09-16T14:37:30Z</time>
      </trkpt>
      <trkpt lat="47.485842984169722" lon="10.267083970829844">
        <ele>785.52999999999997</ele>
        <time>2018-09-16T14:37:31Z</time>
      </trkpt>
      <trkpt lat="47.485699988901615" lon="10.267027979716659">
        <ele>786.01999999999998</ele>
        <time>2018-09-16T14:37:32Z</time>
      </trkpt>
      <trkpt lat="47.48555900529027" lon="10.266947010532022">
        <ele>786.01999999999998</ele>
        <time>2018-09-16T14:37:33Z</time>
      </trkpt>
      <trkpt lat="47.485420033335686" lon="10.266843996942043">
        <ele>786.01999999999998</ele>
        <time>2018-09-16T14:37:34Z</time>
      </trkpt>
      <trkpt lat="47.485278965905309" lon="10.266739977523685">
        <ele>786.5</ele>
        <time>2018-09-16T14:37:35Z</time>
      </trkpt>
      <trkpt lat="47.484701033681631" lon="10.26640897616744">
        <ele>787.94000000000005</ele>
        <time>2018-09-16T14:37:39Z</time>
      </trkpt>
      <trkpt lat="47.484555020928383" lon="10.266366982832551">
        <ele>787.94000000000005</ele>
        <time>2018-09-16T14:37:40Z</time>
      </trkpt>
      <trkpt lat="47.483627982437611" lon="10.266264975070953">
        <ele>789.86000000000001</ele>
        <time>2018-09-16T14:37:48Z</time>
      </trkpt>
      <trkpt lat="47.483572997152805" lon="10.266261035576463">
        <ele>789.86000000000001</ele>
        <time>2018-09-16T14:37:49Z</time>
      </trkpt>
      <trkpt lat="47.483536032959819" lon="10.266259023919702">
        <ele>790.34000000000003</ele>
        <time>2018-09-16T14:37:50Z</time>
      </trkpt>
      <trkpt lat="47.483468977734447" lon="10.266061965376139">
        <ele>790.34000000000003</ele>
        <time>2018-09-16T14:37:51Z</time>
      </trkpt>
      <trkpt lat="47.483480963855982" lon="10.266013015061617">
        <ele>790.82000000000005</ele>
        <time>2018-09-16T14:37:52Z</time>
      </trkpt>
      <trkpt lat="47.483480963855982" lon="10.266255000606179">
        <ele>790.82000000000005</ele>
        <time>2018-09-16T14:37:53Z</time>
      </trkpt>
      <trkpt lat="47.483457997441292" lon="10.266253994777799">
        <ele>791.29999999999995</ele>
        <time>2018-09-16T14:37:54Z</time>
      </trkpt>
      <trkpt lat="47.483434025198221" lon="10.266251983121037">
        <ele>791.29999999999995</ele>
        <time>2018-09-16T14:37:55Z</time>
      </trkpt>
      <trkpt lat="47.483404017984867" lon="10.266248965635896">
        <ele>791.77999999999997</ele>
        <time>2018-09-16T14:37:56Z</time>
      </trkpt>
      <trkpt lat="47.483384991064668" lon="10.266246031969786">
        <ele>791.77999999999997</ele>
        <time>2018-09-16T14:37:57Z</time>
      </trkpt>
      <trkpt lat="47.483459003269672" lon="10.266105970367789">
        <ele>791.77999999999997</ele>
        <time>2018-09-16T14:37:59Z</time>
      </trkpt>
      <trkpt lat="47.483459003269672" lon="10.266105970367789">
        <ele>791.77999999999997</ele>
        <time>2018-09-16T14:38:12Z</time>
      </trkpt>
      <trkpt lat="47.483459003269672" lon="10.266105970367789">
        <ele>791.77999999999997</ele>
        <time>2018-09-16T14:38:51Z</time>
      </trkpt>
      <trkpt lat="47.483456991612911" lon="10.266115022823215">
        <ele>791.77999999999997</ele>
        <time>2018-09-16T14:39:12Z</time>
      </trkpt>
      <trkpt lat="47.483445005491376" lon="10.266166990622878">
        <ele>791.77999999999997</ele>
        <time>2018-09-16T14:39:13Z</time>
      </trkpt>
      <trkpt lat="47.483341991901398" lon="10.266241002827883">
        <ele>792.25999999999999</ele>
        <time>2018-09-16T14:39:14Z</time>
      </trkpt>
      <trkpt lat="47.483295975252986" lon="10.266233962029219">
        <ele>792.74000000000001</ele>
        <time>2018-09-16T14:39:15Z</time>
      </trkpt>
      <trkpt lat="47.483227998018265" lon="10.266224993392825">
        <ele>792.74000000000001</ele>
        <time>2018-09-16T14:39:16Z</time>
      </trkpt>
      <trkpt lat="47.483152979984879" lon="10.266215018928051">
        <ele>792.74000000000001</ele>
        <time>2018-09-16T14:39:17Z</time>
      </trkpt>
      <trkpt lat="47.483064970001578" lon="10.266204038634896">
        <ele>792.74000000000001</ele>
        <time>2018-09-16T14:39:18Z</time>
      </trkpt>
      <trkpt lat="47.482962962239981" lon="10.2661900408566">
        <ele>792.74000000000001</ele>
        <time>2018-09-16T14:39:19Z</time>
      </trkpt>
      <trkpt lat="47.482089987024665" lon="10.266040004789829">
        <ele>791.29999999999995</ele>
        <time>2018-09-16T14:39:25Z</time>
      </trkpt>
      <trkpt lat="47.481385990977287" lon="10.266032963991165">
        <ele>789.38</ele>
        <time>2018-09-16T14:39:29Z</time>
      </trkpt>
      <trkpt lat="47.481209971010685" lon="10.266070012003183">
        <ele>789.38</ele>
        <time>2018-09-16T14:39:30Z</time>
      </trkpt>
      <trkpt lat="47.481036968529224" lon="10.266114016994834">
        <ele>788.89999999999998</ele>
        <time>2018-09-16T14:39:31Z</time>
      </trkpt>
      <trkpt lat="47.479472989216447" lon="10.266681974753737">
        <ele>778.80999999999995</ele>
        <time>2018-09-16T14:39:40Z</time>
      </trkpt>
      <trkpt lat="47.477882020175457" lon="10.266690021380782">
        <ele>767.26999999999998</ele>
        <time>2018-09-16T14:39:49Z</time>
      </trkpt>
      <trkpt lat="47.476153001189232" lon="10.266871992498636">
        <ele>757.17999999999995</ele>
        <time>2018-09-16T14:39:58Z</time>
      </trkpt>
      <trkpt lat="47.473476994782686" lon="10.26771797798574">
        <ele>755.73000000000002</ele>
        <time>2018-09-16T14:40:12Z</time>
      </trkpt>
      <trkpt lat="47.471760967746377" lon="10.267977984622121">
        <ele>761.5</ele>
        <time>2018-09-16T14:40:21Z</time>
      </trkpt>
      <trkpt lat="47.46970203705132" lon="10.268007991835475">
        <ele>762.94000000000005</ele>
        <time>2018-09-16T14:40:32Z</time>
      </trkpt>
      <trkpt lat="47.467603962868452" lon="10.268120979890227">
        <ele>760.05999999999995</ele>
        <time>2018-09-16T14:40:43Z</time>
      </trkpt>
      <trkpt lat="47.464410038664937" lon="10.268353996798396">
        <ele>770.63</ele>
        <time>2018-09-16T14:41:00Z</time>
      </trkpt>
      <trkpt lat="47.463647034019232" lon="10.268373023718596">
        <ele>773.51999999999998</ele>
        <time>2018-09-16T14:41:06Z</time>
      </trkpt>
      <trkpt lat="47.463385015726089" lon="10.268328012898564">
        <ele>774.96000000000004</ele>
        <time>2018-09-16T14:41:12Z</time>
      </trkpt>
      <trkpt lat="47.463247971609235" lon="10.268289959058166">
        <ele>775.44000000000005</ele>
        <time>2018-09-16T14:41:16Z</time>
      </trkpt>
      <trkpt lat="47.462933985516429" lon="10.268203960731626">
        <ele>776.39999999999998</ele>
        <time>2018-09-16T14:41:27Z</time>
      </trkpt>
      <trkpt lat="47.462604995816946" lon="10.268088039010763">
        <ele>775.44000000000005</ele>
        <time>2018-09-16T14:41:39Z</time>
      </trkpt>
      <trkpt lat="47.461686003953218" lon="10.267642959952354">
        <ele>774</ele>
        <time>2018-09-16T14:41:52Z</time>
      </trkpt>
      <trkpt lat="47.460468029603362" lon="10.267174998298287">
        <ele>775.44000000000005</ele>
        <time>2018-09-16T14:42:05Z</time>
      </trkpt>
      <trkpt lat="47.460408015176654" lon="10.26715999469161">
        <ele>775.91999999999996</ele>
        <time>2018-09-16T14:42:06Z</time>
      </trkpt>
      <trkpt lat="47.4603589810431" lon="10.267148008570075">
        <ele>775.91999999999996</ele>
        <time>2018-09-16T14:42:07Z</time>
      </trkpt>
      <trkpt lat="47.460299972444773" lon="10.267057986930013">
        <ele>776.39999999999998</ele>
        <time>2018-09-16T14:42:08Z</time>
      </trkpt>
      <trkpt lat="47.460307013243437" lon="10.266978023573756">
        <ele>776.39999999999998</ele>
        <time>2018-09-16T14:42:09Z</time>
      </trkpt>
      <trkpt lat="47.46031497605145" lon="10.26688196696341">
        <ele>776.39999999999998</ele>
        <time>2018-09-16T14:42:10Z</time>
      </trkpt>
      <trkpt lat="47.460325034335256" lon="10.266765039414167">
        <ele>776.88</ele>
        <time>2018-09-16T14:42:11Z</time>
      </trkpt>
      <trkpt lat="47.46033500880003" lon="10.266636963933706">
        <ele>777.36000000000001</ele>
        <time>2018-09-16T14:42:12Z</time>
      </trkpt>
      <trkpt lat="47.460328973829746" lon="10.26649204082787">
        <ele>777.84000000000003</ele>
        <time>2018-09-16T14:42:13Z</time>
      </trkpt>
      <trkpt lat="47.460318999364972" lon="10.266340998932719">
        <ele>778.32000000000005</ele>
        <time>2018-09-16T14:42:14Z</time>
      </trkpt>
      <trkpt lat="47.460301984101534" lon="10.266188029199839">
        <ele>778.80999999999995</ele>
        <time>2018-09-16T14:42:15Z</time>
      </trkpt>
      <trkpt lat="47.460283041000366" lon="10.266046039760113">
        <ele>779.28999999999996</ele>
        <time>2018-09-16T14:42:16Z</time>
      </trkpt>
      <trkpt lat="47.460051029920578" lon="10.264935018494725">
        <ele>782.64999999999998</ele>
        <time>2018-09-16T14:42:25Z</time>
      </trkpt>
      <trkpt lat="47.45951903052628" lon="10.263078007847071">
        <ele>787.46000000000004</ele>
        <time>2018-09-16T14:42:40Z</time>
      </trkpt>
      <trkpt lat="47.459073029458523" lon="10.261306995525956">
        <ele>791.77999999999997</ele>
        <time>2018-09-16T14:42:54Z</time>
      </trkpt>
      <trkpt lat="47.45868201367557" lon="10.259389970451593">
        <ele>794.19000000000005</ele>
        <time>2018-09-16T14:43:09Z</time>
      </trkpt>
      <trkpt lat="47.458340032026172" lon="10.257893968373537">
        <ele>796.11000000000001</ele>
        <time>2018-09-16T14:43:20Z</time>
      </trkpt>
      <trkpt lat="47.457844996824861" lon="10.256111975759268">
        <ele>799.47000000000003</ele>
        <time>2018-09-16T14:43:29Z</time>
      </trkpt>
      <trkpt lat="47.457117028534412" lon="10.254038041457534">
        <ele>804.75999999999999</ele>
        <time>2018-09-16T14:43:38Z</time>
      </trkpt>
      <trkpt lat="47.456316975876689" lon="10.252116993069649">
        <ele>809.09000000000003</ele>
        <time>2018-09-16T14:43:46Z</time>
      </trkpt>
      <trkpt lat="47.45573895983398" lon="10.249772993847728">
        <ele>812.45000000000005</ele>
        <time>2018-09-16T14:43:54Z</time>
      </trkpt>
      <trkpt lat="47.454963969066739" lon="10.247550029307604">
        <ele>819.17999999999995</ele>
        <time>2018-09-16T14:44:02Z</time>
      </trkpt>
      <trkpt lat="47.454514028504491" lon="10.245575001463294">
        <ele>824.95000000000005</ele>
        <time>2018-09-16T14:44:09Z</time>
      </trkpt>
      <trkpt lat="47.454401962459087" lon="10.245365034788847">
        <ele>825.90999999999997</ele>
        <time>2018-09-16T14:44:10Z</time>
      </trkpt>
      <trkpt lat="47.454296015202999" lon="10.245166970416903">
        <ele>826.38999999999999</ele>
        <time>2018-09-16T14:44:11Z</time>
      </trkpt>
      <trkpt lat="47.454199958592653" lon="10.244987010955811">
        <ele>827.35000000000002</ele>
        <time>2018-09-16T14:44:12Z</time>
      </trkpt>
      <trkpt lat="47.454064004123211" lon="10.244872011244297">
        <ele>827.83000000000004</ele>
        <time>2018-09-16T14:44:13Z</time>
      </trkpt>
      <trkpt lat="47.453942969441414" lon="10.244767991825938">
        <ele>828.78999999999996</ele>
        <time>2018-09-16T14:44:14Z</time>
      </trkpt>
      <trkpt lat="47.4538279697299" lon="10.244670007377863">
        <ele>829.26999999999998</ele>
        <time>2018-09-16T14:44:15Z</time>
      </trkpt>
      <trkpt lat="47.453709030523896" lon="10.244597001001239">
        <ele>829.75999999999999</ele>
        <time>2018-09-16T14:44:16Z</time>
      </trkpt>
      <trkpt lat="47.453582966700196" lon="10.244546961039305">
        <ele>830.24000000000001</ele>
        <time>2018-09-16T14:44:17Z</time>
      </trkpt>
      <trkpt lat="47.452432969585061" lon="10.244158962741494">
        <ele>832.63999999999999</ele>
        <time>2018-09-16T14:44:27Z</time>
      </trkpt>
      <trkpt lat="47.452057041227818" lon="10.243928041309118">
        <ele>834.08000000000004</ele>
        <time>2018-09-16T14:44:33Z</time>
      </trkpt>
      <trkpt lat="47.451738025993109" lon="10.244112024083734">
        <ele>836</ele>
        <time>2018-09-16T14:44:36Z</time>
      </trkpt>
      <trkpt lat="47.451625037938356" lon="10.244143959134817">
        <ele>837.45000000000005</ele>
        <time>2018-09-16T14:44:37Z</time>
      </trkpt>
      <trkpt lat="47.450512005016208" lon="10.244489964097738">
        <ele>849.46000000000004</ele>
        <time>2018-09-16T14:44:47Z</time>
      </trkpt>
      <trkpt lat="47.450411003082991" lon="10.244548972696066">
        <ele>850.41999999999996</ele>
        <time>2018-09-16T14:44:48Z</time>
      </trkpt>
      <trkpt lat="47.450320981442928" lon="10.244623990729451">
        <ele>851.38</ele>
        <time>2018-09-16T14:44:49Z</time>
      </trkpt>
      <trkpt lat="47.450235988944769" lon="10.244723986834288">
        <ele>852.35000000000002</ele>
        <time>2018-09-16T14:44:50Z</time>
      </trkpt>
      <trkpt lat="47.450155019760132" lon="10.244833035394549">
        <ele>853.30999999999995</ele>
        <time>2018-09-16T14:44:51Z</time>
      </trkpt>
      <trkpt lat="47.449066964909434" lon="10.246325014159083">
        <ele>864.36000000000001</ele>
        <time>2018-09-16T14:45:03Z</time>
      </trkpt>
      <trkpt lat="47.448346959426999" lon="10.247592022642493">
        <ele>870.13</ele>
        <time>2018-09-16T14:45:12Z</time>
      </trkpt>
      <trkpt lat="47.447995003312826" lon="10.248314961791039">
        <ele>871.09000000000003</ele>
        <time>2018-09-16T14:45:18Z</time>
      </trkpt>
      <trkpt lat="47.447972036898136" lon="10.248416969552636">
        <ele>871.57000000000005</ele>
        <time>2018-09-16T14:45:19Z</time>
      </trkpt>
      <trkpt lat="47.447959966957569" lon="10.248524006456137">
        <ele>872.04999999999995</ele>
        <time>2018-09-16T14:45:20Z</time>
      </trkpt>
      <trkpt lat="47.447970025241375" lon="10.24863800033927">
        <ele>872.52999999999997</ele>
        <time>2018-09-16T14:45:21Z</time>
      </trkpt>
      <trkpt lat="47.44798100553453" lon="10.2487469650805">
        <ele>873.00999999999999</ele>
        <time>2018-09-16T14:45:22Z</time>
      </trkpt>
      <trkpt lat="47.447990979999304" lon="10.248860958963633">
        <ele>873.98000000000002</ele>
        <time>2018-09-16T14:45:23Z</time>
      </trkpt>
      <trkpt lat="47.448001960292459" lon="10.248973025009036">
        <ele>874.94000000000005</ele>
        <time>2018-09-16T14:45:24Z</time>
      </trkpt>
      <trkpt lat="47.448012018576264" lon="10.249076960608363">
        <ele>875.89999999999998</ele>
        <time>2018-09-16T14:45:25Z</time>
      </trkpt>
      <trkpt lat="47.448016963899136" lon="10.249180980026722">
        <ele>876.38</ele>
        <time>2018-09-16T14:45:26Z</time>
      </trkpt>
      <trkpt lat="47.447979999706149" lon="10.249275024980307">
        <ele>877.34000000000003</ele>
        <time>2018-09-16T14:45:27Z</time>
      </trkpt>
      <trkpt lat="47.447942029684782" lon="10.249374015256763">
        <ele>878.29999999999995</ele>
        <time>2018-09-16T14:45:28Z</time>
      </trkpt>
      <trkpt lat="47.447901964187622" lon="10.24947501718998">
        <ele>878.77999999999997</ele>
        <time>2018-09-16T14:45:29Z</time>
      </trkpt>
      <trkpt lat="47.447857037186623" lon="10.249578030779958">
        <ele>879.74000000000001</ele>
        <time>2018-09-16T14:45:30Z</time>
      </trkpt>
      <trkpt lat="47.447529975324869" lon="10.250129979103804">
        <ele>885.02999999999997</ele>
        <time>2018-09-16T14:45:37Z</time>
      </trkpt>
      <trkpt lat="47.447515977546573" lon="10.250213965773582">
        <ele>885.02999999999997</ele>
        <time>2018-09-16T14:45:38Z</time>
      </trkpt>
      <trkpt lat="47.447395026683807" lon="10.250712018460035">
        <ele>885.02999999999997</ele>
        <time>2018-09-16T14:45:46Z</time>
      </trkpt>
      <trkpt lat="47.44727399200201" lon="10.250645969063044">
        <ele>884.07000000000005</ele>
        <time>2018-09-16T14:45:50Z</time>
      </trkpt>
      <trkpt lat="47.447226969525218" lon="10.250619985163212">
        <ele>883.59000000000003</ele>
        <time>2018-09-16T14:45:51Z</time>
      </trkpt>
      <trkpt lat="47.447119010612369" lon="10.250560976564884">
        <ele>882.63</ele>
        <time>2018-09-16T14:45:53Z</time>
      </trkpt>
      <trkpt lat="47.447018008679152" lon="10.250504985451698">
        <ele>881.66999999999996</ele>
        <time>2018-09-16T14:45:55Z</time>
      </trkpt>
      <trkpt lat="47.446966040879488" lon="10.250504985451698">
        <ele>880.71000000000004</ele>
        <time>2018-09-16T14:45:56Z</time>
      </trkpt>
      <trkpt lat="47.446908038109541" lon="10.250510014593601">
        <ele>880.22000000000003</ele>
        <time>2018-09-16T14:45:57Z</time>
      </trkpt>
      <trkpt lat="47.44669103063643" lon="10.250526024028659">
        <ele>877.34000000000003</ele>
        <time>2018-09-16T14:46:01Z</time>
      </trkpt>
      <trkpt lat="47.446635039523244" lon="10.25053096935153">
        <ele>876.38</ele>
        <time>2018-09-16T14:46:02Z</time>
      </trkpt>
      <trkpt lat="47.446532025933266" lon="10.250539015978575">
        <ele>874.94000000000005</ele>
        <time>2018-09-16T14:46:04Z</time>
      </trkpt>
      <trkpt lat="47.446491960436106" lon="10.250542033463717">
        <ele>873.98000000000002</ele>
        <time>2018-09-16T14:46:05Z</time>
      </trkpt>
      <trkpt lat="47.446458013728261" lon="10.250543961301446">
        <ele>873.5</ele>
        <time>2018-09-16T14:46:06Z</time>
      </trkpt>
      <trkpt lat="47.446419959887862" lon="10.250504985451698">
        <ele>872.52999999999997</ele>
        <time>2018-09-16T14:46:07Z</time>
      </trkpt>
      <trkpt lat="47.446387019008398" lon="10.250466009601951">
        <ele>871.57000000000005</ele>
        <time>2018-09-16T14:46:08Z</time>
      </trkpt>
      <trkpt lat="47.446348965167999" lon="10.250423010438681">
        <ele>870.61000000000001</ele>
        <time>2018-09-16T14:46:09Z</time>
      </trkpt>
      <trkpt lat="47.446300014853477" lon="10.250365007668734">
        <ele>870.13</ele>
        <time>2018-09-16T14:46:10Z</time>
      </trkpt>
      <trkpt lat="47.446244023740292" lon="10.250298958271742">
        <ele>869.16999999999996</ele>
        <time>2018-09-16T14:46:11Z</time>
      </trkpt>
      <trkpt lat="47.445986028760672" lon="10.250045992434025">
        <ele>865.32000000000005</ele>
        <time>2018-09-16T14:46:15Z</time>
      </trkpt>
      <trkpt lat="47.445906987413764" lon="10.249999975785613">
        <ele>864.36000000000001</ele>
        <time>2018-09-16T14:46:16Z</time>
      </trkpt>
      <trkpt lat="47.445827024057508" lon="10.249953037127852">
        <ele>863.88</ele>
        <time>2018-09-16T14:46:17Z</time>
      </trkpt>
      <trkpt lat="47.445752006024122" lon="10.249908026307821">
        <ele>862.91999999999996</ele>
        <time>2018-09-16T14:46:18Z</time>
      </trkpt>
      <trkpt lat="47.445688974112272" lon="10.249887993559241">
        <ele>861.96000000000004</ele>
        <time>2018-09-16T14:46:19Z</time>
      </trkpt>
      <trkpt lat="47.445620996877551" lon="10.249925041571259">
        <ele>861.96000000000004</ele>
        <time>2018-09-16T14:46:20Z</time>
      </trkpt>
      <trkpt lat="47.445548996329308" lon="10.249965023249388">
        <ele>861.48000000000002</ele>
        <time>2018-09-16T14:46:21Z</time>
      </trkpt>
      <trkpt lat="47.445490993559361" lon="10.250023026019335">
        <ele>861</ele>
        <time>2018-09-16T14:46:22Z</time>
      </trkpt>
      <trkpt lat="47.445445982739329" lon="10.250109024345875">
        <ele>861</ele>
        <time>2018-09-16T14:46:23Z</time>
      </trkpt>
      <trkpt lat="47.445402983576059" lon="10.250190999358892">
        <ele>861</ele>
        <time>2018-09-16T14:46:24Z</time>
      </trkpt>
      <trkpt lat="47.445270968601108" lon="10.250471960753202">
        <ele>860.51999999999998</ele>
        <time>2018-09-16T14:46:28Z</time>
      </trkpt>
      <trkpt lat="47.445229981094599" lon="10.250600036233664">
        <ele>860.51999999999998</ele>
        <time>2018-09-16T14:46:30Z</time>
      </trkpt>
      <trkpt lat="47.445211037993431" lon="10.250658961012959">
        <ele>860.03999999999996</ele>
        <time>2018-09-16T14:46:31Z</time>
      </trkpt>
      <trkpt lat="47.445194022729993" lon="10.250712018460035">
        <ele>860.03999999999996</ele>
        <time>2018-09-16T14:46:32Z</time>
      </trkpt>
      <trkpt lat="47.445101989433169" lon="10.250878985971212">
        <ele>858.11000000000001</ele>
        <time>2018-09-16T14:46:36Z</time>
      </trkpt>
      <trkpt lat="47.445057984441519" lon="10.250892983749509">
        <ele>857.63</ele>
        <time>2018-09-16T14:46:37Z</time>
      </trkpt>
      <trkpt lat="47.445007022470236" lon="10.250907987356186">
        <ele>857.63</ele>
        <time>2018-09-16T14:46:38Z</time>
      </trkpt>
      <trkpt lat="47.44469303637743" lon="10.250946041196585">
        <ele>856.19000000000005</ele>
        <time>2018-09-16T14:46:43Z</time>
      </trkpt>
      <trkpt lat="47.444632016122341" lon="10.250942017883062">
        <ele>856.19000000000005</ele>
        <time>2018-09-16T14:46:44Z</time>
      </trkpt>
      <trkpt lat="47.444569990038872" lon="10.250939000397921">
        <ele>855.71000000000004</ele>
        <time>2018-09-16T14:46:45Z</time>
      </trkpt>
      <trkpt lat="47.444505030289292" lon="10.250934977084398">
        <ele>855.71000000000004</ele>
        <time>2018-09-16T14:46:46Z</time>
      </trkpt>
      <trkpt lat="47.444441998377442" lon="10.250931037589908">
        <ele>855.71000000000004</ele>
        <time>2018-09-16T14:46:47Z</time>
      </trkpt>
      <trkpt lat="47.444378966465592" lon="10.250877980142832">
        <ele>855.71000000000004</ele>
        <time>2018-09-16T14:46:48Z</time>
      </trkpt>
      <trkpt lat="47.444320963695645" lon="10.250824000686407">
        <ele>855.71000000000004</ele>
        <time>2018-09-16T14:46:49Z</time>
      </trkpt>
      <trkpt lat="47.444270001724362" lon="10.250777984037995">
        <ele>855.71000000000004</ele>
        <time>2018-09-16T14:46:50Z</time>
      </trkpt>
      <trkpt lat="47.444223985075951" lon="10.250735990703106">
        <ele>855.23000000000002</ele>
        <time>2018-09-16T14:46:51Z</time>
      </trkpt>
      <trkpt lat="47.444089958444238" lon="10.250541027635336">
        <ele>855.23000000000002</ele>
        <time>2018-09-16T14:46:56Z</time>
      </trkpt>
      <trkpt lat="47.443861970677972" lon="10.250152023509145">
        <ele>855.23000000000002</ele>
        <time>2018-09-16T14:47:02Z</time>
      </trkpt>
      <trkpt lat="47.443778989836574" lon="10.250054961070418">
        <ele>854.26999999999998</ele>
        <time>2018-09-16T14:47:04Z</time>
      </trkpt>
      <trkpt lat="47.443734984844923" lon="10.250033000484109">
        <ele>854.26999999999998</ele>
        <time>2018-09-16T14:47:05Z</time>
      </trkpt>
      <trkpt lat="47.443690979853272" lon="10.250011039897799">
        <ele>853.78999999999996</ele>
        <time>2018-09-16T14:47:06Z</time>
      </trkpt>
      <trkpt lat="47.443646974861622" lon="10.249988995492458">
        <ele>853.78999999999996</ele>
        <time>2018-09-16T14:47:07Z</time>
      </trkpt>
      <trkpt lat="47.443603975698352" lon="10.249967034906149">
        <ele>853.30999999999995</ele>
        <time>2018-09-16T14:47:08Z</time>
      </trkpt>
      <trkpt lat="47.443578997626901" lon="10.249902997165918">
        <ele>852.83000000000004</ele>
        <time>2018-09-16T14:47:09Z</time>
      </trkpt>
      <trkpt lat="47.443562988191843" lon="10.249853041023016">
        <ele>852.35000000000002</ele>
        <time>2018-09-16T14:47:10Z</time>
      </trkpt>
      <trkpt lat="47.443543961271644" lon="10.249795960262418">
        <ele>852.35000000000002</ele>
        <time>2018-09-16T14:47:11Z</time>
      </trkpt>
      <trkpt lat="47.443522000685334" lon="10.249732006341219">
        <ele>851.87</ele>
        <time>2018-09-16T14:47:12Z</time>
      </trkpt>
      <trkpt lat="47.443492999300361" lon="10.249642990529537">
        <ele>851.38</ele>
        <time>2018-09-16T14:47:13Z</time>
      </trkpt>
      <trkpt lat="47.443457962945104" lon="10.249533019959927">
        <ele>850.41999999999996</ele>
        <time>2018-09-16T14:47:15Z</time>
      </trkpt>
      <trkpt lat="47.443436002358794" lon="10.249459007754922">
        <ele>850.41999999999996</ele>
        <time>2018-09-16T14:47:16Z</time>
      </trkpt>
      <trkpt lat="47.443413035944104" lon="10.249387007206678">
        <ele>849.94000000000005</ele>
        <time>2018-09-16T14:47:17Z</time>
      </trkpt>
      <trkpt lat="47.443283032625914" lon="10.248966990038753">
        <ele>847.05999999999995</ele>
        <time>2018-09-16T14:47:22Z</time>
      </trkpt>
      <trkpt lat="47.443195022642612" lon="10.248685022816062">
        <ele>845.13999999999999</ele>
        <time>2018-09-16T14:47:25Z</time>
      </trkpt>
      <trkpt lat="47.443193010985851" lon="10.248592989519238">
        <ele>844.17999999999995</ele>
        <time>2018-09-16T14:47:26Z</time>
      </trkpt>
      <trkpt lat="47.443193010985851" lon="10.248502967879176">
        <ele>842.73000000000002</ele>
        <time>2018-09-16T14:47:27Z</time>
      </trkpt>
      <trkpt lat="47.443193010985851" lon="10.248356033116579">
        <ele>841.76999999999998</ele>
        <time>2018-09-16T14:47:28Z</time>
      </trkpt>
      <trkpt lat="47.443203991279006" lon="10.248328037559986">
        <ele>840.80999999999995</ele>
        <time>2018-09-16T14:47:29Z</time>
      </trkpt>
      <trkpt lat="47.443235004320741" lon="10.248248996213078">
        <ele>839.85000000000002</ele>
        <time>2018-09-16T14:47:30Z</time>
      </trkpt>
      <trkpt lat="47.443269034847617" lon="10.248162997886539">
        <ele>838.88999999999999</ele>
        <time>2018-09-16T14:47:31Z</time>
      </trkpt>
      <trkpt lat="47.443479001522064" lon="10.247630998492241">
        <ele>834.08000000000004</ele>
        <time>2018-09-16T14:47:37Z</time>
      </trkpt>
      <trkpt lat="47.443511020392179" lon="10.247548017650843">
        <ele>833.12</ele>
        <time>2018-09-16T14:47:38Z</time>
      </trkpt>
      <trkpt lat="47.443527029827237" lon="10.247365962713957">
        <ele>832.15999999999997</ele>
        <time>2018-09-16T14:47:40Z</time>
      </trkpt>
      <trkpt lat="47.44353398680687" lon="10.247281976044178">
        <ele>831.20000000000005</ele>
        <time>2018-09-16T14:47:41Z</time>
      </trkpt>
      <trkpt lat="47.443540021777153" lon="10.24719899520278">
        <ele>830.72000000000003</ele>
        <time>2018-09-16T14:47:42Z</time>
      </trkpt>
      <trkpt lat="47.443604981526732" lon="10.246644029393792">
        <ele>826.87</ele>
        <time>2018-09-16T14:47:52Z</time>
      </trkpt>
      <trkpt lat="47.443604981526732" lon="10.246644029393792">
        <ele>826.87</ele>
        <time>2018-09-16T14:48:03Z</time>
      </trkpt>
    </trkseg>
  </trk>

  <trk>
    <name>Track vom: 2018-09-16 16:48</name>
    <extensions>
      <gpxx:TrackExtension>
        <gpxx:DisplayColor>DarkGray</gpxx:DisplayColor>
      </gpxx:TrackExtension>
    </extensions>
    <trkseg>
      <trkpt lat="47.443604981526732" lon="10.246644029393792">
        <ele>826.87</ele>
        <time>2018-09-16T14:48:05Z</time>
      </trkpt>
      <trkpt lat="47.443604981526732" lon="10.246644029393792">
        <ele>827.35000000000002</ele>
        <time>2018-09-16T14:48:52Z</time>
      </trkpt>
      <trkpt lat="47.443604981526732" lon="10.246644029393792">
        <ele>827.35000000000002</ele>
        <time>2018-09-16T14:49:46Z</time>
      </trkpt>
      <trkpt lat="47.443604981526732" lon="10.246644029393792">
        <ele>827.83000000000004</ele>
        <time>2018-09-16T14:50:44Z</time>
      </trkpt>
      <trkpt lat="47.443678993731737" lon="10.246433978900313">
        <ele>828.78999999999996</ele>
        <time>2018-09-16T14:51:09Z</time>
      </trkpt>
      <trkpt lat="47.443714030086994" lon="10.246359966695309">
        <ele>829.26999999999998</ele>
        <time>2018-09-16T14:51:10Z</time>
      </trkpt>
      <trkpt lat="47.443946963176131" lon="10.245861997827888">
        <ele>829.75999999999999</ele>
        <time>2018-09-16T14:51:16Z</time>
      </trkpt>
      <trkpt lat="47.443974036723375" lon="10.245763007551432">
        <ele>830.24000000000001</ele>
        <time>2018-09-16T14:51:17Z</time>
      </trkpt>
      <trkpt lat="47.443988034501672" lon="10.245663011446595">
        <ele>830.24000000000001</ele>
        <time>2018-09-16T14:51:18Z</time>
      </trkpt>
      <trkpt lat="47.444000020623207" lon="10.245576007291675">
        <ele>830.72000000000003</ele>
        <time>2018-09-16T14:51:19Z</time>
      </trkpt>
      <trkpt lat="47.444001026451588" lon="10.245516998693347">
        <ele>830.72000000000003</ele>
        <time>2018-09-16T14:51:20Z</time>
      </trkpt>
      <trkpt lat="47.443956015631557" lon="10.245475005358458">
        <ele>831.20000000000005</ele>
        <time>2018-09-16T14:51:21Z</time>
      </trkpt>
      <trkpt lat="47.443902958184481" lon="10.245425971224904">
        <ele>831.20000000000005</ele>
        <time>2018-09-16T14:51:22Z</time>
      </trkpt>
      <trkpt lat="47.443844033405185" lon="10.245369980111718">
        <ele>831.20000000000005</ele>
        <time>2018-09-16T14:51:23Z</time>
      </trkpt>
      <trkpt lat="47.443703971803188" lon="10.245238970965147">
        <ele>831.67999999999995</ele>
        <time>2018-09-16T14:51:25Z</time>
      </trkpt>
      <trkpt lat="47.443640017881989" lon="10.245145009830594">
        <ele>831.67999999999995</ele>
        <time>2018-09-16T14:51:26Z</time>
      </trkpt>
      <trkpt lat="47.443603975698352" lon="10.245063034817576">
        <ele>832.15999999999997</ele>
        <time>2018-09-16T14:51:27Z</time>
      </trkpt>
      <trkpt lat="47.443575980141759" lon="10.244998997077346">
        <ele>832.15999999999997</ele>
        <time>2018-09-16T14:51:28Z</time>
      </trkpt>
      <trkpt lat="47.443557037040591" lon="10.244955997914076">
        <ele>832.15999999999997</ele>
        <time>2018-09-16T14:51:29Z</time>
      </trkpt>
      <trkpt lat="47.443543039262295" lon="10.24492297321558">
        <ele>832.63999999999999</ele>
        <time>2018-09-16T14:51:30Z</time>
      </trkpt>
      <trkpt lat="47.443484030663967" lon="10.244869999587536">
        <ele>833.12</ele>
        <time>2018-09-16T14:51:31Z</time>
      </trkpt>
      <trkpt lat="47.44342896156013" lon="10.244889026507735">
        <ele>833.12</ele>
        <time>2018-09-16T14:51:32Z</time>
      </trkpt>
      <trkpt lat="47.443355033174157" lon="10.244917022064328">
        <ele>833.12</ele>
        <time>2018-09-16T14:51:33Z</time>
      </trkpt>
      <trkpt lat="47.443264005705714" lon="10.244949962943792">
        <ele>833.60000000000002</ele>
        <time>2018-09-16T14:51:34Z</time>
      </trkpt>
      <trkpt lat="47.442927975207567" lon="10.245073009282351">
        <ele>834.55999999999995</ele>
        <time>2018-09-16T14:51:37Z</time>
      </trkpt>
      <trkpt lat="47.442800989374518" lon="10.245119025930762">
        <ele>834.55999999999995</ele>
        <time>2018-09-16T14:51:38Z</time>
      </trkpt>
      <trkpt lat="47.441549990326166" lon="10.24541599676013">
        <ele>836.48000000000002</ele>
        <time>2018-09-16T14:51:46Z</time>
      </trkpt>
      <trkpt lat="47.441372964531183" lon="10.24541599676013">
        <ele>836.48000000000002</ele>
        <time>2018-09-16T14:51:47Z</time>
      </trkpt>
      <trkpt lat="47.441194010898471" lon="10.24541599676013">
        <ele>836.48000000000002</ele>
        <time>2018-09-16T14:51:48Z</time>
      </trkpt>
      <trkpt lat="47.44102000258863" lon="10.245353970676661">
        <ele>836.48000000000002</ele>
        <time>2018-09-16T14:51:49Z</time>
      </trkpt>
      <trkpt lat="47.440839037299156" lon="10.245279958471656">
        <ele>836.48000000000002</ele>
        <time>2018-09-16T14:51:50Z</time>
      </trkpt>
      <trkpt lat="47.439459962770343" lon="10.244676964357495">
        <ele>839.37</ele>
        <time>2018-09-16T14:51:59Z</time>
      </trkpt>
      <trkpt lat="47.439124016091228" lon="10.244507985189557">
        <ele>839.37</ele>
        <time>2018-09-16T14:52:02Z</time>
      </trkpt>
      <trkpt lat="47.439015973359346" lon="10.24444998241961">
        <ele>839.37</ele>
        <time>2018-09-16T14:52:03Z</time>
      </trkpt>
      <trkpt lat="47.438540970906615" lon="10.244153011590242">
        <ele>838.40999999999997</ele>
        <time>2018-09-16T14:52:07Z</time>
      </trkpt>
      <trkpt lat="47.43839998729527" lon="10.244145970791578">
        <ele>838.40999999999997</ele>
        <time>2018-09-16T14:52:08Z</time>
      </trkpt>
      <trkpt lat="47.438256992027164" lon="10.244140019640326">
        <ele>838.88999999999999</ele>
        <time>2018-09-16T14:52:09Z</time>
      </trkpt>
      <trkpt lat="47.438107961788774" lon="10.244134990498424">
        <ele>839.37</ele>
        <time>2018-09-16T14:52:10Z</time>
      </trkpt>
      <trkpt lat="47.437934959307313" lon="10.244129039347172">
        <ele>839.37</ele>
        <time>2018-09-16T14:52:11Z</time>
      </trkpt>
      <trkpt lat="47.437810990959406" lon="10.244154017418623">
        <ele>839.85000000000002</ele>
        <time>2018-09-16T14:52:12Z</time>
      </trkpt>
      <trkpt lat="47.437505973502994" lon="10.244215037673712">
        <ele>841.28999999999996</ele>
        <time>2018-09-16T14:52:14Z</time>
      </trkpt>
      <trkpt lat="47.437383010983467" lon="10.244293995201588">
        <ele>842.73000000000002</ele>
        <time>2018-09-16T14:52:15Z</time>
      </trkpt>
      <trkpt lat="47.436329992488027" lon="10.244928002357483">
        <ele>850.89999999999998</ele>
        <time>2018-09-16T14:52:23Z</time>
      </trkpt>
      <trkpt lat="47.436232008039951" lon="10.244984999299049">
        <ele>851.38</ele>
        <time>2018-09-16T14:52:24Z</time>
      </trkpt>
      <trkpt lat="47.436128994449973" lon="10.245024980977178">
        <ele>851.87</ele>
        <time>2018-09-16T14:52:25Z</time>
      </trkpt>
      <trkpt lat="47.436023969203234" lon="10.245001008734107">
        <ele>852.35000000000002</ele>
        <time>2018-09-16T14:52:26Z</time>
      </trkpt>
      <trkpt lat="47.435925984755158" lon="10.244951974600554">
        <ele>852.83000000000004</ele>
        <time>2018-09-16T14:52:27Z</time>
      </trkpt>
      <trkpt lat="47.435836968943477" lon="10.244862958788872">
        <ele>853.78999999999996</ele>
        <time>2018-09-16T14:52:28Z</time>
      </trkpt>
      <trkpt lat="47.435763962566853" lon="10.244762962684035">
        <ele>854.75</ele>
        <time>2018-09-16T14:52:29Z</time>
      </trkpt>
      <trkpt lat="47.435700008645654" lon="10.244636982679367">
        <ele>855.71000000000004</ele>
        <time>2018-09-16T14:52:30Z</time>
      </trkpt>
      <trkpt lat="47.43564996868372" lon="10.244479989632964">
        <ele>856.19000000000005</ele>
        <time>2018-09-16T14:52:31Z</time>
      </trkpt>
      <trkpt lat="47.43562800809741" lon="10.244317967444658">
        <ele>857.14999999999998</ele>
        <time>2018-09-16T14:52:32Z</time>
      </trkpt>
      <trkpt lat="47.43560797534883" lon="10.244168015196919">
        <ele>858.11000000000001</ele>
        <time>2018-09-16T14:52:33Z</time>
      </trkpt>
      <trkpt lat="47.435571011155844" lon="10.244043041020632">
        <ele>858.59000000000003</ele>
        <time>2018-09-16T14:52:34Z</time>
      </trkpt>
      <trkpt lat="47.435508985072374" lon="10.243937009945512">
        <ele>859.08000000000004</ele>
        <time>2018-09-16T14:52:35Z</time>
      </trkpt>
      <trkpt lat="47.435443019494414" lon="10.243823016062379">
        <ele>860.03999999999996</ele>
        <time>2018-09-16T14:52:36Z</time>
      </trkpt>
      <trkpt lat="47.435374958440661" lon="10.243704998865724">
        <ele>860.51999999999998</ele>
        <time>2018-09-16T14:52:37Z</time>
      </trkpt>
      <trkpt lat="47.435304969549179" lon="10.243585975840688">
        <ele>861</ele>
        <time>2018-09-16T14:52:38Z</time>
      </trkpt>
      <trkpt lat="47.435235986486077" lon="10.243458990007639">
        <ele>861.48000000000002</ele>
        <time>2018-09-16T14:52:39Z</time>
      </trkpt>
      <trkpt lat="47.435163985937834" lon="10.243324963375926">
        <ele>862.44000000000005</ele>
        <time>2018-09-16T14:52:40Z</time>
      </trkpt>
      <trkpt lat="47.43509097956121" lon="10.243186997249722">
        <ele>862.91999999999996</ele>
        <time>2018-09-16T14:52:41Z</time>
      </trkpt>
      <trkpt lat="47.435018979012966" lon="10.243054982274771">
        <ele>863.39999999999998</ele>
        <time>2018-09-16T14:52:42Z</time>
      </trkpt>
      <trkpt lat="47.434955025091767" lon="10.24294400587678">
        <ele>864.84000000000003</ele>
        <time>2018-09-16T14:52:43Z</time>
      </trkpt>
      <trkpt lat="47.434877995401621" lon="10.24283898063004">
        <ele>865.79999999999995</ele>
        <time>2018-09-16T14:52:44Z</time>
      </trkpt>
      <trkpt lat="47.434796020388603" lon="10.242726998403668">
        <ele>866.76999999999998</ele>
        <time>2018-09-16T14:52:45Z</time>
      </trkpt>
      <trkpt lat="47.434702981263399" lon="10.242617027834058">
        <ele>867.25</ele>
        <time>2018-09-16T14:52:46Z</time>
      </trkpt>
      <trkpt lat="47.43459602817893" lon="10.242521977052093">
        <ele>868.21000000000004</ele>
        <time>2018-09-16T14:52:47Z</time>
      </trkpt>
      <trkpt lat="47.434388995170593" lon="10.242337994277477">
        <ele>869.16999999999996</ele>
        <time>2018-09-16T14:52:49Z</time>
      </trkpt>
      <trkpt lat="47.434115996584296" lon="10.242173038423061">
        <ele>870.61000000000001</ele>
        <time>2018-09-16T14:52:52Z</time>
      </trkpt>
      <trkpt lat="47.434049025177956" lon="10.242135990411043">
        <ele>871.09000000000003</ele>
        <time>2018-09-16T14:52:53Z</time>
      </trkpt>
      <trkpt lat="47.433926984667778" lon="10.242067007347941">
        <ele>872.04999999999995</ele>
        <time>2018-09-16T14:52:55Z</time>
      </trkpt>
      <trkpt lat="47.43386697024107" lon="10.242033982649446">
        <ele>872.52999999999997</ele>
        <time>2018-09-16T14:52:56Z</time>
      </trkpt>
      <trkpt lat="47.433702014386654" lon="10.241942033171654">
        <ele>874.46000000000004</ele>
        <time>2018-09-16T14:53:00Z</time>
      </trkpt>
      <trkpt lat="47.433621967211366" lon="10.241897022351623">
        <ele>874.94000000000005</ele>
        <time>2018-09-16T14:53:01Z</time>
      </trkpt>
      <trkpt lat="47.433621967211366" lon="10.241897022351623">
        <ele>874.94000000000005</ele>
        <time>2018-09-16T14:53:02Z</time>
      </trkpt>
      <trkpt lat="47.433621967211366" lon="10.241897022351623">
        <ele>875.41999999999996</ele>
        <time>2018-09-16T14:53:03Z</time>
      </trkpt>
      <trkpt lat="47.433621967211366" lon="10.241897022351623">
        <ele>875.41999999999996</ele>
        <time>2018-09-16T14:53:04Z</time>
      </trkpt>
      <trkpt lat="47.433621967211366" lon="10.241897022351623">
        <ele>875.41999999999996</ele>
        <time>2018-09-16T14:53:05Z</time>
      </trkpt>
      <trkpt lat="47.433748031035066" lon="10.24176299571991">
        <ele>876.38</ele>
        <time>2018-09-16T14:53:08Z</time>
      </trkpt>
      <trkpt lat="47.433913992717862" lon="10.241831978783011">
        <ele>878.77999999999997</ele>
        <time>2018-09-16T14:53:17Z</time>
      </trkpt>
      <trkpt lat="47.433924973011017" lon="10.241756038740277">
        <ele>878.77999999999997</ele>
        <time>2018-09-16T14:53:27Z</time>
      </trkpt>
      <trkpt lat="47.433924973011017" lon="10.241756038740277">
        <ele>878.77999999999997</ele>
        <time>2018-09-16T14:53:47Z</time>
      </trkpt>
      <trkpt lat="47.433924973011017" lon="10.24174296297133">
        <ele>878.77999999999997</ele>
        <time>2018-09-16T14:54:28Z</time>
      </trkpt>
      <trkpt lat="47.433920027688146" lon="10.241735000163317">
        <ele>878.77999999999997</ele>
        <time>2018-09-16T14:54:55Z</time>
      </trkpt>
      <trkpt lat="47.433779966086149" lon="10.241985032334924">
        <ele>879.25999999999999</ele>
        <time>2018-09-16T14:54:57Z</time>
      </trkpt>
      <trkpt lat="47.433740990236402" lon="10.241962987929583">
        <ele>879.74000000000001</ele>
        <time>2018-09-16T14:54:58Z</time>
      </trkpt>
      <trkpt lat="47.433712994679809" lon="10.241947984322906">
        <ele>879.74000000000001</ele>
        <time>2018-09-16T14:54:59Z</time>
      </trkpt>
      <trkpt lat="47.433686004951596" lon="10.241932980716228">
        <ele>879.74000000000001</ele>
        <time>2018-09-16T14:55:00Z</time>
      </trkpt>
      <trkpt lat="47.433667983859777" lon="10.241923006251454">
        <ele>879.25999999999999</ele>
        <time>2018-09-16T14:55:01Z</time>
      </trkpt>
      <trkpt lat="47.433657003566623" lon="10.241916971281171">
        <ele>878.77999999999997</ele>
        <time>2018-09-16T14:55:02Z</time>
      </trkpt>
      <trkpt lat="47.433632025495172" lon="10.241901967674494">
        <ele>878.29999999999995</ele>
        <time>2018-09-16T14:55:04Z</time>
      </trkpt>
      <trkpt lat="47.433621967211366" lon="10.241897022351623">
        <ele>877.82000000000005</ele>
        <time>2018-09-16T14:55:05Z</time>
      </trkpt>
      <trkpt lat="47.433571005240083" lon="10.241845976561308">
        <ele>877.34000000000003</ele>
        <time>2018-09-16T14:55:06Z</time>
      </trkpt>
      <trkpt lat="47.433514008298516" lon="10.241788979619741">
        <ele>877.34000000000003</ele>
        <time>2018-09-16T14:55:07Z</time>
      </trkpt>
      <trkpt lat="47.433456005528569" lon="10.241715973243117">
        <ele>877.34000000000003</ele>
        <time>2018-09-16T14:55:08Z</time>
      </trkpt>
      <trkpt lat="47.433390039950609" lon="10.241588987410069">
        <ele>877.34000000000003</ele>
        <time>2018-09-16T14:55:09Z</time>
      </trkpt>
      <trkpt lat="47.433313010260463" lon="10.24143903516233">
        <ele>877.34000000000003</ele>
        <time>2018-09-16T14:55:10Z</time>
      </trkpt>
      <trkpt lat="47.433227011933923" lon="10.241273995488882">
        <ele>877.34000000000003</ele>
        <time>2018-09-16T14:55:11Z</time>
      </trkpt>
      <trkpt lat="47.433123998343945" lon="10.24109898135066">
        <ele>877.34000000000003</ele>
        <time>2018-09-16T14:55:12Z</time>
      </trkpt>
      <trkpt lat="47.432991983368993" lon="10.240966966375709">
        <ele>877.34000000000003</ele>
        <time>2018-09-16T14:55:13Z</time>
      </trkpt>
      <trkpt lat="47.432850999757648" lon="10.240824976935983">
        <ele>877.34000000000003</ele>
        <time>2018-09-16T14:55:14Z</time>
      </trkpt>
      <trkpt lat="47.432680008932948" lon="10.240718023851514">
        <ele>876.86000000000001</ele>
        <time>2018-09-16T14:55:15Z</time>
      </trkpt>
      <trkpt lat="47.432503988966346" lon="10.240607969462872">
        <ele>876.86000000000001</ele>
        <time>2018-09-16T14:55:16Z</time>
      </trkpt>
      <trkpt lat="47.431809967383742" lon="10.240174038335681">
        <ele>875.41999999999996</ele>
        <time>2018-09-16T14:55:20Z</time>
      </trkpt>
      <trkpt lat="47.431648029014468" lon="10.240073036402464">
        <ele>874.94000000000005</ele>
        <time>2018-09-16T14:55:21Z</time>
      </trkpt>
      <trkpt lat="47.431472009047866" lon="10.240097008645535">
        <ele>874.94000000000005</ele>
        <time>2018-09-16T14:55:22Z</time>
      </trkpt>
      <trkpt lat="47.431308981031179" lon="10.240119975060225">
        <ele>874.46000000000004</ele>
        <time>2018-09-16T14:55:23Z</time>
      </trkpt>
      <trkpt lat="47.431147964671254" lon="10.240142019465566">
        <ele>873.98000000000002</ele>
        <time>2018-09-16T14:55:24Z</time>
      </trkpt>
      <trkpt lat="47.431026007980108" lon="10.240159034729004">
        <ele>873.00999999999999</ele>
        <time>2018-09-16T14:55:25Z</time>
      </trkpt>
      <trkpt lat="47.430853005498648" lon="10.24011000059545">
        <ele>872.52999999999997</ele>
        <time>2018-09-16T14:55:26Z</time>
      </trkpt>
      <trkpt lat="47.430715039372444" lon="10.240059960633516">
        <ele>872.04999999999995</ele>
        <time>2018-09-16T14:55:27Z</time>
      </trkpt>
      <trkpt lat="47.43060196749866" lon="10.23991797119379">
        <ele>871.57000000000005</ele>
        <time>2018-09-16T14:55:28Z</time>
      </trkpt>
      <trkpt lat="47.430484034121037" lon="10.239769024774432">
        <ele>871.09000000000003</ele>
        <time>2018-09-16T14:55:29Z</time>
      </trkpt>
      <trkpt lat="47.43036299943924" lon="10.23961597122252">
        <ele>870.61000000000001</ele>
        <time>2018-09-16T14:55:30Z</time>
      </trkpt>
      <trkpt lat="47.429669983685017" lon="10.238565970212221">
        <ele>867.73000000000002</ele>
        <time>2018-09-16T14:55:36Z</time>
      </trkpt>
      <trkpt lat="47.429544003680348" lon="10.238425992429256">
        <ele>866.76999999999998</ele>
        <time>2018-09-16T14:55:37Z</time>
      </trkpt>
      <trkpt lat="47.429403020069003" lon="10.238299006596208">
        <ele>866.76999999999998</ele>
        <time>2018-09-16T14:55:38Z</time>
      </trkpt>
      <trkpt lat="47.42864403873682" lon="10.237756026908755">
        <ele>865.32000000000005</ele>
        <time>2018-09-16T14:55:43Z</time>
      </trkpt>
      <trkpt lat="47.42849400267005" lon="10.237726019695401">
        <ele>865.32000000000005</ele>
        <time>2018-09-16T14:55:44Z</time>
      </trkpt>
      <trkpt lat="47.42834597826004" lon="10.237696012482047">
        <ele>865.32000000000005</ele>
        <time>2018-09-16T14:55:45Z</time>
      </trkpt>
      <trkpt lat="47.42819300852716" lon="10.237711016088724">
        <ele>865.32000000000005</ele>
        <time>2018-09-16T14:55:46Z</time>
      </trkpt>
      <trkpt lat="47.42804397828877" lon="10.237732976675034">
        <ele>865.32000000000005</ele>
        <time>2018-09-16T14:55:47Z</time>
      </trkpt>
      <trkpt lat="47.426262991502881" lon="10.238113012164831">
        <ele>865.32000000000005</ele>
        <time>2018-09-16T14:55:59Z</time>
      </trkpt>
      <trkpt lat="47.424772018566728" lon="10.238658003509045">
        <ele>860.03999999999996</ele>
        <time>2018-09-16T14:56:08Z</time>
      </trkpt>
      <trkpt lat="47.42464997805655" lon="10.238725980743766">
        <ele>859.55999999999995</ele>
        <time>2018-09-16T14:56:09Z</time>
      </trkpt>
      <trkpt lat="47.424532966688275" lon="10.238808039575815">
        <ele>859.08000000000004</ele>
        <time>2018-09-16T14:56:10Z</time>
      </trkpt>
      <trkpt lat="47.424416961148381" lon="10.238889008760452">
        <ele>857.63</ele>
        <time>2018-09-16T14:56:11Z</time>
      </trkpt>
      <trkpt lat="47.424299027770758" lon="10.23897098377347">
        <ele>857.14999999999998</ele>
        <time>2018-09-16T14:56:12Z</time>
      </trkpt>
      <trkpt lat="47.424159971997142" lon="10.238979030400515">
        <ele>855.71000000000004</ele>
        <time>2018-09-16T14:56:13Z</time>
      </trkpt>
      <trkpt lat="47.424015970900655" lon="10.238979030400515">
        <ele>854.75</ele>
        <time>2018-09-16T14:56:14Z</time>
      </trkpt>
      <trkpt lat="47.423864006996155" lon="10.238962015137076">
        <ele>854.26999999999998</ele>
        <time>2018-09-16T14:56:15Z</time>
      </trkpt>
      <trkpt lat="47.423103014007211" lon="10.238938964903355">
        <ele>851.38</ele>
        <time>2018-09-16T14:56:20Z</time>
      </trkpt>
      <trkpt lat="47.42297301068902" lon="10.238977018743753">
        <ele>851.38</ele>
        <time>2018-09-16T14:56:21Z</time>
      </trkpt>
      <trkpt lat="47.422857005149126" lon="10.239057987928391">
        <ele>850.89999999999998</ele>
        <time>2018-09-16T14:56:22Z</time>
      </trkpt>
      <trkpt lat="47.422751979902387" lon="10.239152032881975">
        <ele>850.41999999999996</ele>
        <time>2018-09-16T14:56:23Z</time>
      </trkpt>
      <trkpt lat="47.422662964090705" lon="10.239267032593489">
        <ele>850.41999999999996</ele>
        <time>2018-09-16T14:56:24Z</time>
      </trkpt>
      <trkpt lat="47.422605967149138" lon="10.239396030083299">
        <ele>850.41999999999996</ele>
        <time>2018-09-16T14:56:25Z</time>
      </trkpt>
      <trkpt lat="47.422566991299391" lon="10.239516980946064">
        <ele>850.41999999999996</ele>
        <time>2018-09-16T14:56:26Z</time>
      </trkpt>
      <trkpt lat="47.422535978257656" lon="10.239614965394139">
        <ele>850.89999999999998</ele>
        <time>2018-09-16T14:56:27Z</time>
      </trkpt>
      <trkpt lat="47.422513011842966" lon="10.239685960114002">
        <ele>850.89999999999998</ele>
        <time>2018-09-16T14:56:28Z</time>
      </trkpt>
      <trkpt lat="47.422417961061001" lon="10.239944960922003">
        <ele>852.83000000000004</ele>
        <time>2018-09-16T14:56:32Z</time>
      </trkpt>
      <trkpt lat="47.422279994934797" lon="10.240262970328331">
        <ele>854.26999999999998</ele>
        <time>2018-09-16T14:56:36Z</time>
      </trkpt>
      <trkpt lat="47.422239007428288" lon="10.240343017503619">
        <ele>855.23000000000002</ele>
        <time>2018-09-16T14:56:37Z</time>
      </trkpt>
      <trkpt lat="47.422016970813274" lon="10.240595983341336">
        <ele>857.63</ele>
        <time>2018-09-16T14:56:41Z</time>
      </trkpt>
      <trkpt lat="47.421951005235314" lon="10.240631019696593">
        <ele>858.11000000000001</ele>
        <time>2018-09-16T14:56:42Z</time>
      </trkpt>
      <trkpt lat="47.42187699303031" lon="10.240631019696593">
        <ele>858.59000000000003</ele>
        <time>2018-09-16T14:56:43Z</time>
      </trkpt>
      <trkpt lat="47.421799963340163" lon="10.240631019696593">
        <ele>858.59000000000003</ele>
        <time>2018-09-16T14:56:44Z</time>
      </trkpt>
      <trkpt lat="47.421712959185243" lon="10.240631019696593">
        <ele>859.08000000000004</ele>
        <time>2018-09-16T14:56:45Z</time>
      </trkpt>
      <trkpt lat="47.421650011092424" lon="10.240618027746677">
        <ele>859.08000000000004</ele>
        <time>2018-09-16T14:56:46Z</time>
      </trkpt>
      <trkpt lat="47.421337030827999" lon="10.240551978349686">
        <ele>857.63</ele>
        <time>2018-09-16T14:56:50Z</time>
      </trkpt>
      <trkpt lat="47.421256983652711" lon="10.240565976127982">
        <ele>857.14999999999998</ele>
        <time>2018-09-16T14:56:51Z</time>
      </trkpt>
      <trkpt lat="47.421180037781596" lon="10.240599000826478">
        <ele>856.19000000000005</ele>
        <time>2018-09-16T14:56:52Z</time>
      </trkpt>
      <trkpt lat="47.421106025576591" lon="10.240636970847845">
        <ele>855.23000000000002</ele>
        <time>2018-09-16T14:56:53Z</time>
      </trkpt>
      <trkpt lat="47.421034025028348" lon="10.240676030516624">
        <ele>854.75</ele>
        <time>2018-09-16T14:56:54Z</time>
      </trkpt>
      <trkpt lat="47.420965963974595" lon="10.240712994709611">
        <ele>853.78999999999996</ele>
        <time>2018-09-16T14:56:55Z</time>
      </trkpt>
      <trkpt lat="47.420899998396635" lon="10.240749036893249">
        <ele>853.30999999999995</ele>
        <time>2018-09-16T14:56:56Z</time>
      </trkpt>
      <trkpt lat="47.420682990923524" lon="10.240866970270872">
        <ele>851.38</ele>
        <time>2018-09-16T14:56:59Z</time>
      </trkpt>
      <trkpt lat="47.42046196013689" lon="10.24088398553431">
        <ele>849.94000000000005</ele>
        <time>2018-09-16T14:57:02Z</time>
      </trkpt>
      <trkpt lat="47.419828958809376" lon="10.241027986630797">
        <ele>847.05999999999995</ele>
        <time>2018-09-16T14:57:10Z</time>
      </trkpt>
      <trkpt lat="47.419762993231416" lon="10.241080038249493">
        <ele>847.05999999999995</ele>
        <time>2018-09-16T14:57:11Z</time>
      </trkpt>
      <trkpt lat="47.419697027653456" lon="10.241146003827453">
        <ele>847.05999999999995</ele>
        <time>2018-09-16T14:57:12Z</time>
      </trkpt>
      <trkpt lat="47.419630978256464" lon="10.241211969405413">
        <ele>846.58000000000004</ele>
        <time>2018-09-16T14:57:13Z</time>
      </trkpt>
      <trkpt lat="47.419565012678504" lon="10.241278018802404">
        <ele>846.58000000000004</ele>
        <time>2018-09-16T14:57:14Z</time>
      </trkpt>
      <trkpt lat="47.419270975515246" lon="10.241608014330268">
        <ele>845.13999999999999</ele>
        <time>2018-09-16T14:57:19Z</time>
      </trkpt>
      <trkpt lat="47.419128986075521" lon="10.24174002930522">
        <ele>843.69000000000005</ele>
        <time>2018-09-16T14:57:21Z</time>
      </trkpt>
      <trkpt lat="47.419055979698896" lon="10.241808006539941">
        <ele>842.73000000000002</ele>
        <time>2018-09-16T14:57:22Z</time>
      </trkpt>
      <trkpt lat="47.418952966108918" lon="10.24182896129787">
        <ele>841.76999999999998</ele>
        <time>2018-09-16T14:57:23Z</time>
      </trkpt>
      <trkpt lat="47.418861016631126" lon="10.241844970732927">
        <ele>840.80999999999995</ele>
        <time>2018-09-16T14:57:24Z</time>
      </trkpt>
      <trkpt lat="47.418769989162683" lon="10.241859974339604">
        <ele>840.33000000000004</ele>
        <time>2018-09-16T14:57:25Z</time>
      </trkpt>
      <trkpt lat="47.418683990836143" lon="10.241874977946281">
        <ele>838.88999999999999</ele>
        <time>2018-09-16T14:57:26Z</time>
      </trkpt>
      <trkpt lat="47.418604027479887" lon="10.241888975724578">
        <ele>836.96000000000004</ele>
        <time>2018-09-16T14:57:27Z</time>
      </trkpt>
      <trkpt lat="47.418524986132979" lon="10.241916971281171">
        <ele>835.51999999999998</ele>
        <time>2018-09-16T14:57:28Z</time>
      </trkpt>
      <trkpt lat="47.418443011119962" lon="10.241962987929583">
        <ele>833.60000000000002</ele>
        <time>2018-09-16T14:57:29Z</time>
      </trkpt>
      <trkpt lat="47.41837696172297" lon="10.242032976821065">
        <ele>832.63999999999999</ele>
        <time>2018-09-16T14:57:30Z</time>
      </trkpt>
      <trkpt lat="47.418308984488249" lon="10.242136996239424">
        <ele>831.20000000000005</ele>
        <time>2018-09-16T14:57:31Z</time>
      </trkpt>
      <trkpt lat="47.418234972283244" lon="10.242249984294176">
        <ele>830.24000000000001</ele>
        <time>2018-09-16T14:57:32Z</time>
      </trkpt>
      <trkpt lat="47.417441960424185" lon="10.242912992835045">
        <ele>824.47000000000003</ele>
        <time>2018-09-16T14:57:40Z</time>
      </trkpt>
      <trkpt lat="47.417369959875941" lon="10.242950962856412">
        <ele>823.99000000000001</ele>
        <time>2018-09-16T14:57:41Z</time>
      </trkpt>
      <trkpt lat="47.417273987084627" lon="10.242958003655076">
        <ele>823.50999999999999</ele>
        <time>2018-09-16T14:57:42Z</time>
      </trkpt>
      <trkpt lat="47.417174996808171" lon="10.242965966463089">
        <ele>822.54999999999995</ele>
        <time>2018-09-16T14:57:43Z</time>
      </trkpt>
      <trkpt lat="47.417083969339728" lon="10.242956997826695">
        <ele>822.05999999999995</ele>
        <time>2018-09-16T14:57:44Z</time>
      </trkpt>
      <trkpt lat="47.416976010426879" lon="10.242918021976948">
        <ele>822.05999999999995</ele>
        <time>2018-09-16T14:57:45Z</time>
      </trkpt>
      <trkpt lat="47.416863022372127" lon="10.24287804029882">
        <ele>821.58000000000004</ele>
        <time>2018-09-16T14:57:46Z</time>
      </trkpt>
      <trkpt lat="47.416767971590161" lon="10.242824982851744">
        <ele>821.10000000000002</ele>
        <time>2018-09-16T14:57:47Z</time>
      </trkpt>
      <trkpt lat="47.416681973263621" lon="10.242762034758925">
        <ele>820.13999999999999</ele>
        <time>2018-09-16T14:57:48Z</time>
      </trkpt>
      <trkpt lat="47.416584994643927" lon="10.242691040039062">
        <ele>819.65999999999997</ele>
        <time>2018-09-16T14:57:49Z</time>
      </trkpt>
      <trkpt lat="47.416552975773811" lon="10.24262398481369">
        <ele>819.17999999999995</ele>
        <time>2018-09-16T14:57:50Z</time>
      </trkpt>
      <trkpt lat="47.416497990489006" lon="10.242506973445415">
        <ele>818.70000000000005</ele>
        <time>2018-09-16T14:57:51Z</time>
      </trkpt>
      <trkpt lat="47.416443005204201" lon="10.242389040067792">
        <ele>818.22000000000003</ele>
        <time>2018-09-16T14:57:52Z</time>
      </trkpt>
      <trkpt lat="47.416276959702373" lon="10.242037000134587">
        <ele>816.77999999999997</ele>
        <time>2018-09-16T14:57:55Z</time>
      </trkpt>
      <trkpt lat="47.41620697081089" lon="10.241942033171654">
        <ele>816.29999999999995</ele>
        <time>2018-09-16T14:57:56Z</time>
      </trkpt>
      <trkpt lat="47.416091971099377" lon="10.241875983774662">
        <ele>815.82000000000005</ele>
        <time>2018-09-16T14:57:57Z</time>
      </trkpt>
      <trkpt lat="47.415993986651301" lon="10.241883024573326">
        <ele>815.34000000000003</ele>
        <time>2018-09-16T14:57:58Z</time>
      </trkpt>
      <trkpt lat="47.415875969454646" lon="10.24189199320972">
        <ele>814.85000000000002</ele>
        <time>2018-09-16T14:57:59Z</time>
      </trkpt>
      <trkpt lat="47.415750995278358" lon="10.241900961846113">
        <ele>814.37</ele>
        <time>2018-09-16T14:58:00Z</time>
      </trkpt>
      <trkpt lat="47.415626021102071" lon="10.241911020129919">
        <ele>813.40999999999997</ele>
        <time>2018-09-16T14:58:01Z</time>
      </trkpt>
      <trkpt lat="47.415508003905416" lon="10.241918982937932">
        <ele>812.92999999999995</ele>
        <time>2018-09-16T14:58:02Z</time>
      </trkpt>
      <trkpt lat="47.415396021679044" lon="10.241928035393357">
        <ele>812.45000000000005</ele>
        <time>2018-09-16T14:58:03Z</time>
      </trkpt>
      <trkpt lat="47.415085975080729" lon="10.241885958239436">
        <ele>811.49000000000001</ele>
        <time>2018-09-16T14:58:06Z</time>
      </trkpt>
      <trkpt lat="47.414694037288427" lon="10.24174002930522">
        <ele>811.00999999999999</ele>
        <time>2018-09-16T14:58:10Z</time>
      </trkpt>
      <trkpt lat="47.414527991786599" lon="10.241747992113233">
        <ele>811.49000000000001</ele>
        <time>2018-09-16T14:58:12Z</time>
      </trkpt>
      <trkpt lat="47.414450962096453" lon="10.241761989891529">
        <ele>811.97000000000003</ele>
        <time>2018-09-16T14:58:13Z</time>
      </trkpt>
      <trkpt lat="47.414404023438692" lon="10.241801971569657">
        <ele>811.97000000000003</ele>
        <time>2018-09-16T14:58:14Z</time>
      </trkpt>
      <trkpt lat="47.414361024275422" lon="10.241905990988016">
        <ele>811.49000000000001</ele>
        <time>2018-09-16T14:58:15Z</time>
      </trkpt>
      <trkpt lat="47.414310984313488" lon="10.242026019841433">
        <ele>811.49000000000001</ele>
        <time>2018-09-16T14:58:16Z</time>
      </trkpt>
      <trkpt lat="47.41429497487843" lon="10.242160968482494">
        <ele>811.97000000000003</ele>
        <time>2018-09-16T14:58:17Z</time>
      </trkpt>
      <trkpt lat="47.414117027074099" lon="10.243721008300781">
        <ele>811.97000000000003</ele>
        <time>2018-09-16T14:58:25Z</time>
      </trkpt>
      <trkpt lat="47.413757024332881" lon="10.245577013120055">
        <ele>811.97000000000003</ele>
        <time>2018-09-16T14:58:33Z</time>
      </trkpt>
      <trkpt lat="47.413732968270779" lon="10.24739203043282">
        <ele>810.52999999999997</ele>
        <time>2018-09-16T14:58:39Z</time>
      </trkpt>
      <trkpt lat="47.413788037374616" lon="10.247681038454175">
        <ele>810.52999999999997</ele>
        <time>2018-09-16T14:58:40Z</time>
      </trkpt>
      <trkpt lat="47.414353983476758" lon="10.249792020767927">
        <ele>808.61000000000001</ele>
        <time>2018-09-16T14:58:48Z</time>
      </trkpt>
      <trkpt lat="47.414855975657701" lon="10.252137025818229">
        <ele>807.15999999999997</ele>
        <time>2018-09-16T14:58:57Z</time>
      </trkpt>
      <trkpt lat="47.414988996461034" lon="10.252575986087322">
        <ele>806.67999999999995</ele>
        <time>2018-09-16T14:58:59Z</time>
      </trkpt>
      <trkpt lat="47.415091004222631" lon="10.252759968861938">
        <ele>806.67999999999995</ele>
        <time>2018-09-16T14:59:00Z</time>
      </trkpt>
      <trkpt lat="47.415212038904428" lon="10.252902964130044">
        <ele>806.20000000000005</ele>
        <time>2018-09-16T14:59:01Z</time>
      </trkpt>
      <trkpt lat="47.415355034172535" lon="10.252993991598487">
        <ele>806.20000000000005</ele>
        <time>2018-09-16T14:59:02Z</time>
      </trkpt>
      <trkpt lat="47.415501968935132" lon="10.253046965226531">
        <ele>806.20000000000005</ele>
        <time>2018-09-16T14:59:03Z</time>
      </trkpt>
      <trkpt lat="47.415661979466677" lon="10.253092981874943">
        <ele>806.20000000000005</ele>
        <time>2018-09-16T14:59:04Z</time>
      </trkpt>
      <trkpt lat="47.416151985526085" lon="10.253234971314669">
        <ele>806.67999999999995</ele>
        <time>2018-09-16T14:59:07Z</time>
      </trkpt>
      <trkpt lat="47.416309984400868" lon="10.253333039581776">
        <ele>806.67999999999995</ele>
        <time>2018-09-16T14:59:08Z</time>
      </trkpt>
      <trkpt lat="47.416921025142074" lon="10.25392203591764">
        <ele>806.20000000000005</ele>
        <time>2018-09-16T14:59:12Z</time>
      </trkpt>
      <trkpt lat="47.418378973379731" lon="10.255455002188683">
        <ele>803.32000000000005</ele>
        <time>2018-09-16T14:59:21Z</time>
      </trkpt>
      <trkpt lat="47.420432958751917" lon="10.256999032571912">
        <ele>799.47000000000003</ele>
        <time>2018-09-16T14:59:32Z</time>
      </trkpt>
      <trkpt lat="47.422679979354143" lon="10.258714975789189">
        <ele>797.07000000000005</ele>
        <time>2018-09-16T14:59:45Z</time>
      </trkpt>
      <trkpt lat="47.424097023904324" lon="10.259342025965452">
        <ele>795.63</ele>
        <time>2018-09-16T14:59:53Z</time>
      </trkpt>
      <trkpt lat="47.424247981980443" lon="10.259482003748417">
        <ele>796.11000000000001</ele>
        <time>2018-09-16T14:59:54Z</time>
      </trkpt>
      <trkpt lat="47.424389971420169" lon="10.259633967652917">
        <ele>795.63</ele>
        <time>2018-09-16T14:59:55Z</time>
      </trkpt>
      <trkpt lat="47.424513017758727" lon="10.259808981791139">
        <ele>795.63</ele>
        <time>2018-09-16T14:59:56Z</time>
      </trkpt>
      <trkpt lat="47.424628017470241" lon="10.260001011192799">
        <ele>795.63</ele>
        <time>2018-09-16T14:59:57Z</time>
      </trkpt>
      <trkpt lat="47.424733964726329" lon="10.26019899174571">
        <ele>795.63</ele>
        <time>2018-09-16T14:59:58Z</time>
      </trkpt>
      <trkpt lat="47.424829015508294" lon="10.26041298173368">
        <ele>795.14999999999998</ele>
        <time>2018-09-16T14:59:59Z</time>
      </trkpt>
      <trkpt lat="47.425244003534317" lon="10.261514028534293">
        <ele>795.63</ele>
        <time>2018-09-16T15:00:04Z</time>
      </trkpt>
      <trkpt lat="47.425306029617786" lon="10.261740004643798">
        <ele>796.11000000000001</ele>
        <time>2018-09-16T15:00:05Z</time>
      </trkpt>
      <trkpt lat="47.425365038216114" lon="10.261982996016741">
        <ele>796.59000000000003</ele>
        <time>2018-09-16T15:00:06Z</time>
      </trkpt>
      <trkpt lat="47.42552999407053" lon="10.263873031362891">
        <ele>797.54999999999995</ele>
        <time>2018-09-16T15:00:15Z</time>
      </trkpt>
      <trkpt lat="47.425812967121601" lon="10.265413960441947">
        <ele>796.59000000000003</ele>
        <time>2018-09-16T15:00:25Z</time>
      </trkpt>
      <trkpt lat="47.426219992339611" lon="10.266379974782467">
        <ele>793.71000000000004</ele>
        <time>2018-09-16T15:00:34Z</time>
      </trkpt>
      <trkpt lat="47.426245976239443" lon="10.266459016129375">
        <ele>793.71000000000004</ele>
        <time>2018-09-16T15:00:35Z</time>
      </trkpt>
      <trkpt lat="47.426284030079842" lon="10.266574015840888">
        <ele>794.19000000000005</ele>
        <time>2018-09-16T15:00:36Z</time>
      </trkpt>
      <trkpt lat="47.426291992887855" lon="10.266619026660919">
        <ele>793.71000000000004</ele>
        <time>2018-09-16T15:00:37Z</time>
      </trkpt>
      <trkpt lat="47.426300039514899" lon="10.26666303165257">
        <ele>793.71000000000004</ele>
        <time>2018-09-16T15:00:38Z</time>
      </trkpt>
      <trkpt lat="47.42630498483777" lon="10.266689015552402">
        <ele>793.71000000000004</ele>
        <time>2018-09-16T15:00:39Z</time>
      </trkpt>
      <trkpt lat="47.426187973469496" lon="10.266856988891959">
        <ele>793.71000000000004</ele>
        <time>2018-09-16T15:00:43Z</time>
      </trkpt>
      <trkpt lat="47.426138017326593" lon="10.266874004155397">
        <ele>793.71000000000004</ele>
        <time>2018-09-16T15:00:44Z</time>
      </trkpt>
      <trkpt lat="47.42606601677835" lon="10.266898982226849">
        <ele>793.71000000000004</ele>
        <time>2018-09-16T15:00:45Z</time>
      </trkpt>
      <trkpt lat="47.42531499825418" lon="10.267215985804796">
        <ele>792.74000000000001</ele>
        <time>2018-09-16T15:00:52Z</time>
      </trkpt>
      <trkpt lat="47.424601027742028" lon="10.267754020169377">
        <ele>792.25999999999999</ele>
        <time>2018-09-16T15:01:00Z</time>
      </trkpt>
      <trkpt lat="47.424490973353386" lon="10.267789978533983">
        <ele>792.25999999999999</ele>
        <time>2018-09-16T15:01:01Z</time>
      </trkpt>
      <trkpt lat="47.424396006390452" lon="10.267711021006107">
        <ele>792.25999999999999</ele>
        <time>2018-09-16T15:01:02Z</time>
      </trkpt>
      <trkpt lat="47.424379996955395" lon="10.267714038491249">
        <ele>792.25999999999999</ele>
        <time>2018-09-16T15:01:03Z</time>
      </trkpt>
      <trkpt lat="47.424309002235532" lon="10.267728036269546">
        <ele>792.74000000000001</ele>
        <time>2018-09-16T15:01:04Z</time>
      </trkpt>
      <trkpt lat="47.424248987808824" lon="10.267858961597085">
        <ele>792.74000000000001</ele>
        <time>2018-09-16T15:01:05Z</time>
      </trkpt>
      <trkpt lat="47.424213029444218" lon="10.26797597296536">
        <ele>792.74000000000001</ele>
        <time>2018-09-16T15:01:06Z</time>
      </trkpt>
      <trkpt lat="47.424202971160412" lon="10.268011009320617">
        <ele>792.74000000000001</ele>
        <time>2018-09-16T15:01:07Z</time>
      </trkpt>
      <trkpt lat="47.424145974218845" lon="10.268265986815095">
        <ele>791.77999999999997</ele>
        <time>2018-09-16T15:01:08Z</time>
      </trkpt>
      <trkpt lat="47.424062993377447" lon="10.268371012061834">
        <ele>791.29999999999995</ele>
        <time>2018-09-16T15:01:09Z</time>
      </trkpt>
      <trkpt lat="47.423098990693688" lon="10.269583035260439">
        <ele>789.86000000000001</ele>
        <time>2018-09-16T15:01:18Z</time>
      </trkpt>
      <trkpt lat="47.421364020556211" lon="10.271827038377523">
        <ele>789.38</ele>
        <time>2018-09-16T15:01:32Z</time>
      </trkpt>
      <trkpt lat="47.42020103149116" lon="10.272991033270955">
        <ele>789.38</ele>
        <time>2018-09-16T15:01:41Z</time>
      </trkpt>
      <trkpt lat="47.419057991355658" lon="10.273591009899974">
        <ele>790.34000000000003</ele>
        <time>2018-09-16T15:01:50Z</time>
      </trkpt>
      <trkpt lat="47.418756997212768" lon="10.273707015439868">
        <ele>791.29999999999995</ele>
        <time>2018-09-16T15:01:55Z</time>
      </trkpt>
      <trkpt lat="47.418756997212768" lon="10.273707015439868">
        <ele>792.25999999999999</ele>
        <time>2018-09-16T15:02:06Z</time>
      </trkpt>
      <trkpt lat="47.418729001656175" lon="10.273715984076262">
        <ele>792.74000000000001</ele>
        <time>2018-09-16T15:03:06Z</time>
      </trkpt>
      <trkpt lat="47.418410992249846" lon="10.273829977959394">
        <ele>792.74000000000001</ele>
        <time>2018-09-16T15:03:11Z</time>
      </trkpt>
      <trkpt lat="47.418114021420479" lon="10.273936009034514">
        <ele>793.22000000000003</ele>
        <time>2018-09-16T15:03:15Z</time>
      </trkpt>
      <trkpt lat="47.417936995625496" lon="10.273826038464904">
        <ele>793.71000000000004</ele>
        <time>2018-09-16T15:03:16Z</time>
      </trkpt>
      <trkpt lat="47.417936995625496" lon="10.273826038464904">
        <ele>793.71000000000004</ele>
        <time>2018-09-16T15:03:17Z</time>
      </trkpt>
      <trkpt lat="47.417918974533677" lon="10.273816986009479">
        <ele>793.71000000000004</ele>
        <time>2018-09-16T15:03:18Z</time>
      </trkpt>
      <trkpt lat="47.417861977592111" lon="10.273788990452886">
        <ele>794.19000000000005</ele>
        <time>2018-09-16T15:03:19Z</time>
      </trkpt>
      <trkpt lat="47.417794000357389" lon="10.27377599850297">
        <ele>794.19000000000005</ele>
        <time>2018-09-16T15:03:20Z</time>
      </trkpt>
      <trkpt lat="47.417739015072584" lon="10.273830983787775">
        <ele>794.66999999999996</ele>
        <time>2018-09-16T15:03:21Z</time>
      </trkpt>
      <trkpt lat="47.417681012302637" lon="10.273887980729342">
        <ele>795.14999999999998</ele>
        <time>2018-09-16T15:03:22Z</time>
      </trkpt>
      <trkpt lat="47.417679000645876" lon="10.273890998214483">
        <ele>795.14999999999998</ele>
        <time>2018-09-16T15:03:23Z</time>
      </trkpt>
      <trkpt lat="47.417572969570756" lon="10.274056037887931">
        <ele>795.63</ele>
        <time>2018-09-16T15:03:24Z</time>
      </trkpt>
      <trkpt lat="47.417488982900977" lon="10.274085039272904">
        <ele>796.11000000000001</ele>
        <time>2018-09-16T15:03:25Z</time>
      </trkpt>
      <trkpt lat="47.417396027594805" lon="10.274116974323988">
        <ele>796.59000000000003</ele>
        <time>2018-09-16T15:03:26Z</time>
      </trkpt>
      <trkpt lat="47.417297959327698" lon="10.274149999022484">
        <ele>797.07000000000005</ele>
        <time>2018-09-16T15:03:27Z</time>
      </trkpt>
      <trkpt lat="47.417192012071609" lon="10.27418696321547">
        <ele>797.54999999999995</ele>
        <time>2018-09-16T15:03:28Z</time>
      </trkpt>
      <trkpt lat="47.41631199605763" lon="10.274531962350011">
        <ele>798.50999999999999</ele>
        <time>2018-09-16T15:03:38Z</time>
      </trkpt>
      <trkpt lat="47.416103035211563" lon="10.27459398843348">
        <ele>798.99000000000001</ele>
        <time>2018-09-16T15:03:41Z</time>
      </trkpt>
      <trkpt lat="47.415759963914752" lon="10.274694990366697">
        <ele>800.44000000000005</ele>
        <time>2018-09-16T15:03:46Z</time>
      </trkpt>
      <trkpt lat="47.415691986680031" lon="10.274675963446498">
        <ele>800.44000000000005</ele>
        <time>2018-09-16T15:03:47Z</time>
      </trkpt>
      <trkpt lat="47.415639013051987" lon="10.274629024788737">
        <ele>800.91999999999996</ele>
        <time>2018-09-16T15:03:48Z</time>
      </trkpt>
      <trkpt lat="47.415493000298738" lon="10.274574039503932">
        <ele>801.39999999999998</ele>
        <time>2018-09-16T15:03:50Z</time>
      </trkpt>
      <trkpt lat="47.415428962558508" lon="10.27459398843348">
        <ele>801.39999999999998</ele>
        <time>2018-09-16T15:03:51Z</time>
      </trkpt>
      <trkpt lat="47.41536601446569" lon="10.274612009525299">
        <ele>801.88</ele>
        <time>2018-09-16T15:03:52Z</time>
      </trkpt>
      <trkpt lat="47.415255038067698" lon="10.274856006726623">
        <ele>801.88</ele>
        <time>2018-09-16T15:03:54Z</time>
      </trkpt>
      <trkpt lat="47.415204998105764" lon="10.274870004504919">
        <ele>801.88</ele>
        <time>2018-09-16T15:03:55Z</time>
      </trkpt>
      <trkpt lat="47.415068037807941" lon="10.274908980354667">
        <ele>802.36000000000001</ele>
        <time>2018-09-16T15:03:57Z</time>
      </trkpt>
      <trkpt lat="47.415000982582569" lon="10.274929013103247">
        <ele>802.36000000000001</ele>
        <time>2018-09-16T15:03:58Z</time>
      </trkpt>
      <trkpt lat="47.414523968473077" lon="10.275064967572689">
        <ele>802.36000000000001</ele>
        <time>2018-09-16T15:04:05Z</time>
      </trkpt>
      <trkpt lat="47.414454985409975" lon="10.275085000321269">
        <ele>802.36000000000001</ele>
        <time>2018-09-16T15:04:06Z</time>
      </trkpt>
      <trkpt lat="47.414193972945213" lon="10.275177033618093">
        <ele>801.88</ele>
        <time>2018-09-16T15:04:10Z</time>
      </trkpt>
      <trkpt lat="47.41332896053791" lon="10.275404015555978">
        <ele>803.32000000000005</ele>
        <time>2018-09-16T15:04:23Z</time>
      </trkpt>
      <trkpt lat="47.412373004481196" lon="10.275404015555978">
        <ele>806.67999999999995</ele>
        <time>2018-09-16T15:04:37Z</time>
      </trkpt>
      <trkpt lat="47.411469016224146" lon="10.275220032781363">
        <ele>808.13</ele>
        <time>2018-09-16T15:04:50Z</time>
      </trkpt>
      <trkpt lat="47.410521022975445" lon="10.274950973689556">
        <ele>808.61000000000001</ele>
        <time>2018-09-16T15:05:04Z</time>
      </trkpt>
      <trkpt lat="47.410466959699988" lon="10.274908980354667">
        <ele>809.09000000000003</ele>
        <time>2018-09-16T15:05:05Z</time>
      </trkpt>
      <trkpt lat="47.410412980243564" lon="10.274853995069861">
        <ele>809.09000000000003</ele>
        <time>2018-09-16T15:05:06Z</time>
      </trkpt>
      <trkpt lat="47.410379033535719" lon="10.274794986471534">
        <ele>809.57000000000005</ele>
        <time>2018-09-16T15:05:07Z</time>
      </trkpt>
      <trkpt lat="47.410345003008842" lon="10.274733966216445">
        <ele>809.57000000000005</ele>
        <time>2018-09-16T15:05:08Z</time>
      </trkpt>
      <trkpt lat="47.410335028544068" lon="10.274616032838821">
        <ele>810.04999999999995</ele>
        <time>2018-09-16T15:05:09Z</time>
      </trkpt>
      <trkpt lat="47.410331005230546" lon="10.274525005370378">
        <ele>810.04999999999995</ele>
        <time>2018-09-16T15:05:10Z</time>
      </trkpt>
      <trkpt lat="47.410325976088643" lon="10.274425009265542">
        <ele>810.04999999999995</ele>
        <time>2018-09-16T15:05:11Z</time>
      </trkpt>
      <trkpt lat="47.410319019109011" lon="10.274298023432493">
        <ele>810.04999999999995</ele>
        <time>2018-09-16T15:05:12Z</time>
      </trkpt>
      <trkpt lat="47.41033704020083" lon="10.273697962984443">
        <ele>808.61000000000001</ele>
        <time>2018-09-16T15:05:18Z</time>
      </trkpt>
      <trkpt lat="47.41038297303021" lon="10.273406021296978">
        <ele>806.67999999999995</ele>
        <time>2018-09-16T15:05:21Z</time>
      </trkpt>
      <trkpt lat="47.410423960536718" lon="10.273251961916685">
        <ele>805.24000000000001</ele>
        <time>2018-09-16T15:05:23Z</time>
      </trkpt>
      <trkpt lat="47.410440975800157" lon="10.273184990510345">
        <ele>804.75999999999999</ele>
        <time>2018-09-16T15:05:24Z</time>
      </trkpt>
      <trkpt lat="47.41046997718513" lon="10.273075019940734">
        <ele>804.27999999999997</ele>
        <time>2018-09-16T15:05:25Z</time>
      </trkpt>
      <trkpt lat="47.410483974963427" lon="10.27304601855576">
        <ele>803.79999999999995</ele>
        <time>2018-09-16T15:05:26Z</time>
      </trkpt>
      <trkpt lat="47.410513982176781" lon="10.272987009957433">
        <ele>803.79999999999995</ele>
        <time>2018-09-16T15:05:27Z</time>
      </trkpt>
      <trkpt lat="47.410543989390135" lon="10.272925989702344">
        <ele>803.32000000000005</ele>
        <time>2018-09-16T15:05:28Z</time>
      </trkpt>
      <trkpt lat="47.410577014088631" lon="10.272861029952765">
        <ele>803.32000000000005</ele>
        <time>2018-09-16T15:05:29Z</time>
      </trkpt>
      <trkpt lat="47.410589000210166" lon="10.272792968899012">
        <ele>803.32000000000005</ele>
        <time>2018-09-16T15:05:30Z</time>
      </trkpt>
      <trkpt lat="47.410604003816843" lon="10.272706970572472">
        <ele>802.84000000000003</ele>
        <time>2018-09-16T15:05:31Z</time>
      </trkpt>
      <trkpt lat="47.41061900742352" lon="10.27261896058917">
        <ele>802.84000000000003</ele>
        <time>2018-09-16T15:05:32Z</time>
      </trkpt>
      <trkpt lat="47.410648008808494" lon="10.272325007244945">
        <ele>802.84000000000003</ele>
        <time>2018-09-16T15:05:35Z</time>
      </trkpt>
      <trkpt lat="47.410652032122016" lon="10.272222999483347">
        <ele>802.84000000000003</ele>
        <time>2018-09-16T15:05:36Z</time>
      </trkpt>
      <trkpt lat="47.410737024620175" lon="10.271104015409946">
        <ele>801.39999999999998</ele>
        <time>2018-09-16T15:05:48Z</time>
      </trkpt>
      <trkpt lat="47.410773988813162" lon="10.270923972129822">
        <ele>801.39999999999998</ele>
        <time>2018-09-16T15:05:50Z</time>
      </trkpt>
      <trkpt lat="47.410793015733361" lon="10.27083202265203">
        <ele>801.39999999999998</ele>
        <time>2018-09-16T15:05:51Z</time>
      </trkpt>
      <trkpt lat="47.411033995449543" lon="10.269925016909838">
        <ele>798.99000000000001</ele>
        <time>2018-09-16T15:06:00Z</time>
      </trkpt>
      <trkpt lat="47.411064002662897" lon="10.269816974177957">
        <ele>797.54999999999995</ele>
        <time>2018-09-16T15:06:01Z</time>
      </trkpt>
      <trkpt lat="47.411141032353044" lon="10.269612036645412">
        <ele>795.63</ele>
        <time>2018-09-16T15:06:03Z</time>
      </trkpt>
      <trkpt lat="47.411335995420814" lon="10.269086994230747">
        <ele>793.22000000000003</ele>
        <time>2018-09-16T15:06:08Z</time>
      </trkpt>
      <trkpt lat="47.411381006240845" lon="10.268841991201043">
        <ele>793.22000000000003</ele>
        <time>2018-09-16T15:06:10Z</time>
      </trkpt>
      <trkpt lat="47.411584015935659" lon="10.267413966357708">
        <ele>789.86000000000001</ele>
        <time>2018-09-16T15:06:20Z</time>
      </trkpt>
      <trkpt lat="47.41184301674366" lon="10.265457965433598">
        <ele>789.86000000000001</ele>
        <time>2018-09-16T15:06:32Z</time>
      </trkpt>
      <trkpt lat="47.411820972338319" lon="10.264652967453003">
        <ele>793.22000000000003</ele>
        <time>2018-09-16T15:06:41Z</time>
      </trkpt>
      <trkpt lat="47.411820972338319" lon="10.264568980783224">
        <ele>794.19000000000005</ele>
        <time>2018-09-16T15:06:44Z</time>
      </trkpt>
      <trkpt lat="47.411820972338319" lon="10.264411987736821">
        <ele>794.66999999999996</ele>
        <time>2018-09-16T15:06:48Z</time>
      </trkpt>
      <trkpt lat="47.411820972338319" lon="10.264406036585569">
        <ele>795.14999999999998</ele>
        <time>2018-09-16T15:06:49Z</time>
      </trkpt>
      <trkpt lat="47.411735979840159" lon="10.264384998008609">
        <ele>795.14999999999998</ele>
        <time>2018-09-16T15:06:50Z</time>
      </trkpt>
      <trkpt lat="47.411735979840159" lon="10.264384998008609">
        <ele>795.14999999999998</ele>
        <time>2018-09-16T15:06:51Z</time>
      </trkpt>
      <trkpt lat="47.411656016483903" lon="10.264305034652352">
        <ele>795.14999999999998</ele>
        <time>2018-09-16T15:06:52Z</time>
      </trkpt>
      <trkpt lat="47.411606982350349" lon="10.264256000518799">
        <ele>795.14999999999998</ele>
        <time>2018-09-16T15:06:53Z</time>
      </trkpt>
      <trkpt lat="47.411571023985744" lon="10.264156004413962">
        <ele>795.14999999999998</ele>
        <time>2018-09-16T15:06:54Z</time>
      </trkpt>
      <trkpt lat="47.411541016772389" lon="10.264073023572564">
        <ele>794.66999999999996</ele>
        <time>2018-09-16T15:06:55Z</time>
      </trkpt>
      <trkpt lat="47.41141595877707" lon="10.263726012781262">
        <ele>793.71000000000004</ele>
        <time>2018-09-16T15:06:59Z</time>
      </trkpt>
      <trkpt lat="47.411367008462548" lon="10.263659041374922">
        <ele>793.71000000000004</ele>
        <time>2018-09-16T15:07:00Z</time>
      </trkpt>
      <trkpt lat="47.411314034834504" lon="10.263590980321169">
        <ele>793.71000000000004</ele>
        <time>2018-09-16T15:07:01Z</time>
      </trkpt>
      <trkpt lat="47.411261983215809" lon="10.263521997258067">
        <ele>793.71000000000004</ele>
        <time>2018-09-16T15:07:02Z</time>
      </trkpt>
      <trkpt lat="47.411199035122991" lon="10.26344102807343">
        <ele>794.19000000000005</ele>
        <time>2018-09-16T15:07:03Z</time>
      </trkpt>
      <trkpt lat="47.411146983504295" lon="10.263404985889792">
        <ele>794.19000000000005</ele>
        <time>2018-09-16T15:07:04Z</time>
      </trkpt>
      <trkpt lat="47.411078000441194" lon="10.263358969241381">
        <ele>794.19000000000005</ele>
        <time>2018-09-16T15:07:05Z</time>
      </trkpt>
      <trkpt lat="47.410264033824205" lon="10.262809032574296">
        <ele>796.11000000000001</ele>
        <time>2018-09-16T15:07:16Z</time>
      </trkpt>
      <trkpt lat="47.410111986100674" lon="10.262706018984318">
        <ele>796.59000000000003</ele>
        <time>2018-09-16T15:07:18Z</time>
      </trkpt>
      <trkpt lat="47.409555008634925" lon="10.262344004586339">
        <ele>798.99000000000001</ele>
        <time>2018-09-16T15:07:26Z</time>
      </trkpt>
      <trkpt lat="47.409339006990194" lon="10.262312991544604">
        <ele>798.99000000000001</ele>
        <time>2018-09-16T15:07:29Z</time>
      </trkpt>
      <trkpt lat="47.409258959814906" lon="10.262320032343268">
        <ele>798.50999999999999</ele>
        <time>2018-09-16T15:07:30Z</time>
      </trkpt>
      <trkpt lat="47.408611038699746" lon="10.262364959344268">
        <ele>794.19000000000005</ele>
        <time>2018-09-16T15:07:39Z</time>
      </trkpt>
      <trkpt lat="47.408544989302754" lon="10.262361019849777">
        <ele>793.71000000000004</ele>
        <time>2018-09-16T15:07:40Z</time>
      </trkpt>
      <trkpt lat="47.407651981338859" lon="10.262315003201365">
        <ele>792.25999999999999</ele>
        <time>2018-09-16T15:07:53Z</time>
      </trkpt>
      <trkpt lat="47.407514015212655" lon="10.262307040393353">
        <ele>792.25999999999999</ele>
        <time>2018-09-16T15:07:55Z</time>
      </trkpt>
      <trkpt lat="47.407447965815663" lon="10.262304022908211">
        <ele>792.25999999999999</ele>
        <time>2018-09-16T15:07:56Z</time>
      </trkpt>
      <trkpt lat="47.407384011894464" lon="10.262312991544604">
        <ele>792.74000000000001</ele>
        <time>2018-09-16T15:07:57Z</time>
      </trkpt>
      <trkpt lat="47.407318968325853" lon="10.262323971837759">
        <ele>792.74000000000001</ele>
        <time>2018-09-16T15:07:58Z</time>
      </trkpt>
      <trkpt lat="47.407250991091132" lon="10.262336041778326">
        <ele>793.22000000000003</ele>
        <time>2018-09-16T15:07:59Z</time>
      </trkpt>
      <trkpt lat="47.407179996371269" lon="10.262347022071481">
        <ele>793.22000000000003</ele>
        <time>2018-09-16T15:08:00Z</time>
      </trkpt>
      <trkpt lat="47.406522016972303" lon="10.26275496929884">
        <ele>795.63</ele>
        <time>2018-09-16T15:08:09Z</time>
      </trkpt>
      <trkpt lat="47.406014995649457" lon="10.263195019215345">
        <ele>796.11000000000001</ele>
        <time>2018-09-16T15:08:14Z</time>
      </trkpt>
      <trkpt lat="47.405792959034443" lon="10.263328040018678">
        <ele>795.63</ele>
        <time>2018-09-16T15:08:16Z</time>
      </trkpt>
      <trkpt lat="47.404379015788436" lon="10.263691982254386">
        <ele>797.07000000000005</ele>
        <time>2018-09-16T15:08:28Z</time>
      </trkpt>
      <trkpt lat="47.404137030243874" lon="10.263714026659727">
        <ele>797.07000000000005</ele>
        <time>2018-09-16T15:08:30Z</time>
      </trkpt>
      <trkpt lat="47.404011972248554" lon="10.263706985861063">
        <ele>797.07000000000005</ele>
        <time>2018-09-16T15:08:31Z</time>
      </trkpt>
      <trkpt lat="47.403886998072267" lon="10.263701034709811">
        <ele>797.07000000000005</ele>
        <time>2018-09-16T15:08:33Z</time>
      </trkpt>
      <trkpt lat="47.402423014864326" lon="10.26344102807343">
        <ele>797.07000000000005</ele>
        <time>2018-09-16T15:08:44Z</time>
      </trkpt>
      <trkpt lat="47.400949979200959" lon="10.264029018580914">
        <ele>797.54999999999995</ele>
        <time>2018-09-16T15:08:56Z</time>
      </trkpt>
      <trkpt lat="47.399707026779652" lon="10.264044022187591">
        <ele>799.47000000000003</ele>
        <time>2018-09-16T15:09:05Z</time>
      </trkpt>
      <trkpt lat="47.398386960849166" lon="10.263261990621686">
        <ele>800.44000000000005</ele>
        <time>2018-09-16T15:09:15Z</time>
      </trkpt>
      <trkpt lat="47.396820969879627" lon="10.26236797682941">
        <ele>804.27999999999997</ele>
        <time>2018-09-16T15:09:27Z</time>
      </trkpt>
      <trkpt lat="47.396400030702353" lon="10.26238800957799">
        <ele>804.27999999999997</ele>
        <time>2018-09-16T15:09:30Z</time>
      </trkpt>
      <trkpt lat="47.396263992413878" lon="10.262434026226401">
        <ele>804.27999999999997</ele>
        <time>2018-09-16T15:09:31Z</time>
      </trkpt>
      <trkpt lat="47.39504300057888" lon="10.263107009232044">
        <ele>806.20000000000005</ele>
        <time>2018-09-16T15:09:40Z</time>
      </trkpt>
      <trkpt lat="47.394029041752219" lon="10.264335963875055">
        <ele>809.09000000000003</ele>
        <time>2018-09-16T15:09:49Z</time>
      </trkpt>
      <trkpt lat="47.393577005714178" lon="10.264881961047649">
        <ele>809.57000000000005</ele>
        <time>2018-09-16T15:09:53Z</time>
      </trkpt>
      <trkpt lat="47.393437027931213" lon="10.264962008222938">
        <ele>809.57000000000005</ele>
        <time>2018-09-16T15:09:54Z</time>
      </trkpt>
      <trkpt lat="47.393299983814359" lon="10.265029985457659">
        <ele>809.57000000000005</ele>
        <time>2018-09-16T15:09:55Z</time>
      </trkpt>
      <trkpt lat="47.393175009638071" lon="10.265093017369509">
        <ele>809.57000000000005</ele>
        <time>2018-09-16T15:09:56Z</time>
      </trkpt>
      <trkpt lat="47.393016004934907" lon="10.26509603485465">
        <ele>809.57000000000005</ele>
        <time>2018-09-16T15:09:57Z</time>
      </trkpt>
      <trkpt lat="47.392869992181659" lon="10.265098968520761">
        <ele>809.57000000000005</ele>
        <time>2018-09-16T15:09:58Z</time>
      </trkpt>
      <trkpt lat="47.392726996913552" lon="10.265100980177522">
        <ele>809.57000000000005</ele>
        <time>2018-09-16T15:09:59Z</time>
      </trkpt>
      <trkpt lat="47.392582995817065" lon="10.265103997662663">
        <ele>810.04999999999995</ele>
        <time>2018-09-16T15:10:00Z</time>
      </trkpt>
      <trkpt lat="47.392013026401401" lon="10.265131993219256">
        <ele>811.00999999999999</ele>
        <time>2018-09-16T15:10:04Z</time>
      </trkpt>
      <trkpt lat="47.391886040568352" lon="10.265218997374177">
        <ele>811.49000000000001</ele>
        <time>2018-09-16T15:10:05Z</time>
      </trkpt>
      <trkpt lat="47.391759976744652" lon="10.265307007357478">
        <ele>811.97000000000003</ele>
        <time>2018-09-16T15:10:06Z</time>
      </trkpt>
      <trkpt lat="47.391654029488564" lon="10.265432987362146">
        <ele>812.92999999999995</ele>
        <time>2018-09-16T15:10:07Z</time>
      </trkpt>
      <trkpt lat="47.391547998413444" lon="10.265559973195195">
        <ele>813.88999999999999</ele>
        <time>2018-09-16T15:10:08Z</time>
      </trkpt>
      <trkpt lat="47.391414977610111" lon="10.265715038403869">
        <ele>814.37</ele>
        <time>2018-09-16T15:10:09Z</time>
      </trkpt>
      <trkpt lat="47.391365021467209" lon="10.265858033671975">
        <ele>815.34000000000003</ele>
        <time>2018-09-16T15:10:10Z</time>
      </trkpt>
      <trkpt lat="47.391302995383739" lon="10.266033969819546">
        <ele>815.82000000000005</ele>
        <time>2018-09-16T15:10:11Z</time>
      </trkpt>
      <trkpt lat="47.391274999827147" lon="10.26623697951436">
        <ele>816.29999999999995</ele>
        <time>2018-09-16T15:10:12Z</time>
      </trkpt>
      <trkpt lat="47.391259996220469" lon="10.266435965895653">
        <ele>816.77999999999997</ele>
        <time>2018-09-16T15:10:13Z</time>
      </trkpt>
      <trkpt lat="47.391245998442173" lon="10.266633024439216">
        <ele>817.25999999999999</ele>
        <time>2018-09-16T15:10:14Z</time>
      </trkpt>
      <trkpt lat="47.391263013705611" lon="10.266821030527353">
        <ele>817.25999999999999</ele>
        <time>2018-09-16T15:10:15Z</time>
      </trkpt>
      <trkpt lat="47.391285980120301" lon="10.267018005251884">
        <ele>817.25999999999999</ele>
        <time>2018-09-16T15:10:16Z</time>
      </trkpt>
      <trkpt lat="47.391337025910616" lon="10.267817974090576">
        <ele>816.77999999999997</ele>
        <time>2018-09-16T15:10:20Z</time>
      </trkpt>
      <trkpt lat="47.391325961798429" lon="10.268021989613771">
        <ele>816.29999999999995</ele>
        <time>2018-09-16T15:10:21Z</time>
      </trkpt>
      <trkpt lat="47.391314981505275" lon="10.268226005136967">
        <ele>816.29999999999995</ele>
        <time>2018-09-16T15:10:22Z</time>
      </trkpt>
      <trkpt lat="47.391276005655527" lon="10.268437983468175">
        <ele>815.82000000000005</ele>
        <time>2018-09-16T15:10:23Z</time>
      </trkpt>
      <trkpt lat="47.391207022592425" lon="10.26861903257668">
        <ele>815.82000000000005</ele>
        <time>2018-09-16T15:10:24Z</time>
      </trkpt>
      <trkpt lat="47.391138039529324" lon="10.268801003694534">
        <ele>815.34000000000003</ele>
        <time>2018-09-16T15:10:25Z</time>
      </trkpt>
      <trkpt lat="47.391053969040513" lon="10.268968977034092">
        <ele>814.85000000000002</ele>
        <time>2018-09-16T15:10:26Z</time>
      </trkpt>
      <trkpt lat="47.390970988199115" lon="10.269136028364301">
        <ele>814.37</ele>
        <time>2018-09-16T15:10:27Z</time>
      </trkpt>
      <trkpt lat="47.390106981620193" lon="10.270506972447038">
        <ele>815.34000000000003</ele>
        <time>2018-09-16T15:10:36Z</time>
      </trkpt>
      <trkpt lat="47.389787966385484" lon="10.270910980179906">
        <ele>817.25999999999999</ele>
        <time>2018-09-16T15:10:39Z</time>
      </trkpt>
      <trkpt lat="47.389351017773151" lon="10.271875988692045">
        <ele>820.13999999999999</ele>
        <time>2018-09-16T15:10:45Z</time>
      </trkpt>
      <trkpt lat="47.3893260397017" lon="10.27205997146666">
        <ele>820.13999999999999</ele>
        <time>2018-09-16T15:10:46Z</time>
      </trkpt>
      <trkpt lat="47.389274993911386" lon="10.272436989471316">
        <ele>821.10000000000002</ele>
        <time>2018-09-16T15:10:48Z</time>
      </trkpt>
      <trkpt lat="47.389226965606213" lon="10.274890959262848">
        <ele>825.90999999999997</ele>
        <time>2018-09-16T15:11:01Z</time>
      </trkpt>
      <trkpt lat="47.38924297504127" lon="10.275701992213726">
        <ele>826.38999999999999</ele>
        <time>2018-09-16T15:11:05Z</time>
      </trkpt>
      <trkpt lat="47.389291003346443" lon="10.276702959090471">
        <ele>828.30999999999995</ele>
        <time>2018-09-16T15:11:10Z</time>
      </trkpt>
      <trkpt lat="47.38900501281023" lon="10.278210025280714">
        <ele>828.78999999999996</ele>
        <time>2018-09-16T15:11:18Z</time>
      </trkpt>
      <trkpt lat="47.388915996998549" lon="10.27830901555717">
        <ele>828.78999999999996</ele>
        <time>2018-09-16T15:11:19Z</time>
      </trkpt>
      <trkpt lat="47.388486005365849" lon="10.279008988291025">
        <ele>828.78999999999996</ele>
        <time>2018-09-16T15:11:24Z</time>
      </trkpt>
      <trkpt lat="47.388286013156176" lon="10.279449038207531">
        <ele>829.26999999999998</ele>
        <time>2018-09-16T15:11:27Z</time>
      </trkpt>
      <trkpt lat="47.388229016214609" lon="10.279575018212199">
        <ele>829.75999999999999</ele>
        <time>2018-09-16T15:11:28Z</time>
      </trkpt>
      <trkpt lat="47.387818973511457" lon="10.28048001229763">
        <ele>834.08000000000004</ele>
        <time>2018-09-16T15:11:35Z</time>
      </trkpt>
      <trkpt lat="47.387758959084749" lon="10.280613033100963">
        <ele>833.60000000000002</ele>
        <time>2018-09-16T15:11:36Z</time>
      </trkpt>
      <trkpt lat="47.387702967971563" lon="10.280735995620489">
        <ele>834.08000000000004</ele>
        <time>2018-09-16T15:11:37Z</time>
      </trkpt>
      <trkpt lat="47.387623004615307" lon="10.280835991725326">
        <ele>833.60000000000002</ele>
        <time>2018-09-16T15:11:38Z</time>
      </trkpt>
      <trkpt lat="47.387530971318483" lon="10.28088603168726">
        <ele>834.08000000000004</ele>
        <time>2018-09-16T15:11:39Z</time>
      </trkpt>
      <trkpt lat="47.387430975213647" lon="10.280935987830162">
        <ele>834.08000000000004</ele>
        <time>2018-09-16T15:11:40Z</time>
      </trkpt>
      <trkpt lat="47.387339025735855" lon="10.2809720300138">
        <ele>834.08000000000004</ele>
        <time>2018-09-16T15:11:41Z</time>
      </trkpt>
      <trkpt lat="47.38724498078227" lon="10.2809720300138">
        <ele>834.55999999999995</ele>
        <time>2018-09-16T15:11:42Z</time>
      </trkpt>
      <trkpt lat="47.386952033266425" lon="10.2809720300138">
        <ele>835.03999999999996</ele>
        <time>2018-09-16T15:11:45Z</time>
      </trkpt>
      <trkpt lat="47.386849019676447" lon="10.2809720300138">
        <ele>835.03999999999996</ele>
        <time>2018-09-16T15:11:46Z</time>
      </trkpt>
      <trkpt lat="47.38672899082303" lon="10.280939005315304">
        <ele>835.51999999999998</ele>
        <time>2018-09-16T15:11:47Z</time>
      </trkpt>
      <trkpt lat="47.38662295974791" lon="10.280872033908963">
        <ele>835.51999999999998</ele>
        <time>2018-09-16T15:11:48Z</time>
      </trkpt>
      <trkpt lat="47.386516006663442" lon="10.28080397285521">
        <ele>836</ele>
        <time>2018-09-16T15:11:49Z</time>
      </trkpt>
      <trkpt lat="47.386170001700521" lon="10.280646979808807">
        <ele>836.96000000000004</ele>
        <time>2018-09-16T15:11:52Z</time>
      </trkpt>
      <trkpt lat="47.385986018925905" lon="10.28058503754437">
        <ele>837.45000000000005</ele>
        <time>2018-09-16T15:11:53Z</time>
      </trkpt>
      <trkpt lat="47.385918963700533" lon="10.280617978423834">
        <ele>837.45000000000005</ele>
        <time>2018-09-16T15:11:54Z</time>
      </trkpt>
      <trkpt lat="47.385674966499209" lon="10.28073700144887">
        <ele>837.45000000000005</ele>
        <time>2018-09-16T15:11:56Z</time>
      </trkpt>
      <trkpt lat="47.385176997631788" lon="10.280980998650193">
        <ele>837.45000000000005</ele>
        <time>2018-09-16T15:12:00Z</time>
      </trkpt>
      <trkpt lat="47.383842011913657" lon="10.281304037198424">
        <ele>838.88999999999999</ele>
        <time>2018-09-16T15:12:10Z</time>
      </trkpt>
      <trkpt lat="47.383711002767086" lon="10.281343013048172">
        <ele>838.88999999999999</ele>
        <time>2018-09-16T15:12:11Z</time>
      </trkpt>
      <trkpt lat="47.383580999448895" lon="10.2813829947263">
        <ele>839.37</ele>
        <time>2018-09-16T15:12:12Z</time>
      </trkpt>
      <trkpt lat="47.383184032514691" lon="10.281503023579717">
        <ele>838.88999999999999</ele>
        <time>2018-09-16T15:12:15Z</time>
      </trkpt>
      <trkpt lat="47.382912039756775" lon="10.281543005257845">
        <ele>838.88999999999999</ele>
        <time>2018-09-16T15:12:17Z</time>
      </trkpt>
      <trkpt lat="47.382778013125062" lon="10.281534036621451">
        <ele>839.37</ele>
        <time>2018-09-16T15:12:18Z</time>
      </trkpt>
      <trkpt lat="47.382382974028587" lon="10.281506041064858">
        <ele>839.37</ele>
        <time>2018-09-16T15:12:21Z</time>
      </trkpt>
      <trkpt lat="47.382252970710397" lon="10.281496988609433">
        <ele>839.37</ele>
        <time>2018-09-16T15:12:22Z</time>
      </trkpt>
      <trkpt lat="47.382092038169503" lon="10.281477961689234">
        <ele>838.88999999999999</ele>
        <time>2018-09-16T15:12:23Z</time>
      </trkpt>
      <trkpt lat="47.381974020972848" lon="10.281388023868203">
        <ele>838.88999999999999</ele>
        <time>2018-09-16T15:12:24Z</time>
      </trkpt>
      <trkpt lat="47.381854997947812" lon="10.28129599057138">
        <ele>838.40999999999997</ele>
        <time>2018-09-16T15:12:25Z</time>
      </trkpt>
      <trkpt lat="47.381733963266015" lon="10.281202029436827">
        <ele>837.92999999999995</ele>
        <time>2018-09-16T15:12:26Z</time>
      </trkpt>
      <trkpt lat="47.381608989089727" lon="10.281105972826481">
        <ele>836.96000000000004</ele>
        <time>2018-09-16T15:12:27Z</time>
      </trkpt>
      <trkpt lat="47.38148401491344" lon="10.281010000035167">
        <ele>836.48000000000002</ele>
        <time>2018-09-16T15:12:28Z</time>
      </trkpt>
      <trkpt lat="47.381024016067386" lon="10.280680004507303">
        <ele>834.55999999999995</ele>
        <time>2018-09-16T15:12:32Z</time>
      </trkpt>
      <trkpt lat="47.380899963900447" lon="10.280645973980427">
        <ele>833.60000000000002</ele>
        <time>2018-09-16T15:12:33Z</time>
      </trkpt>
      <trkpt lat="47.380783036351204" lon="10.280629964545369">
        <ele>833.12</ele>
        <time>2018-09-16T15:12:34Z</time>
      </trkpt>
      <trkpt lat="47.380531998351216" lon="10.280639017000794">
        <ele>832.15999999999997</ele>
        <time>2018-09-16T15:12:36Z</time>
      </trkpt>
      <trkpt lat="47.380410963669419" lon="10.280643040314317">
        <ele>831.67999999999995</ele>
        <time>2018-09-16T15:12:37Z</time>
      </trkpt>
      <trkpt lat="47.380280960351229" lon="10.280647985637188">
        <ele>831.67999999999995</ele>
        <time>2018-09-16T15:12:38Z</time>
      </trkpt>
      <trkpt lat="47.379543017596006" lon="10.280414968729019">
        <ele>831.67999999999995</ele>
        <time>2018-09-16T15:12:44Z</time>
      </trkpt>
      <trkpt lat="47.379419971257448" lon="10.280349003151059">
        <ele>832.15999999999997</ele>
        <time>2018-09-16T15:12:45Z</time>
      </trkpt>
      <trkpt lat="47.379335984587669" lon="10.280238026753068">
        <ele>832.15999999999997</ele>
        <time>2018-09-16T15:12:46Z</time>
      </trkpt>
      <trkpt lat="47.379244035109878" lon="10.280117997899652">
        <ele>832.15999999999997</ele>
        <time>2018-09-16T15:12:47Z</time>
      </trkpt>
      <trkpt lat="47.379154013469815" lon="10.279999980702996">
        <ele>832.63999999999999</ele>
        <time>2018-09-16T15:12:48Z</time>
      </trkpt>
      <trkpt lat="47.379062986001372" lon="10.279854973778129">
        <ele>833.60000000000002</ele>
        <time>2018-09-16T15:12:49Z</time>
      </trkpt>
      <trkpt lat="47.379014035686851" lon="10.279703009873629">
        <ele>834.08000000000004</ele>
        <time>2018-09-16T15:12:50Z</time>
      </trkpt>
      <trkpt lat="47.378925019875169" lon="10.279421964660287">
        <ele>834.55999999999995</ele>
        <time>2018-09-16T15:12:52Z</time>
      </trkpt>
      <trkpt lat="47.378858970478177" lon="10.279309982433915">
        <ele>834.55999999999995</ele>
        <time>2018-09-16T15:12:53Z</time>
      </trkpt>
      <trkpt lat="47.378680016845465" lon="10.279134968295693">
        <ele>834.55999999999995</ele>
        <time>2018-09-16T15:12:55Z</time>
      </trkpt>
      <trkpt lat="47.378574991598725" lon="10.279069002717733">
        <ele>834.08000000000004</ele>
        <time>2018-09-16T15:12:56Z</time>
      </trkpt>
      <trkpt lat="47.378239966928959" lon="10.278857024386525">
        <ele>834.08000000000004</ele>
        <time>2018-09-16T15:12:59Z</time>
      </trkpt>
      <trkpt lat="47.378009967505932" lon="10.278712017461658">
        <ele>833.60000000000002</ele>
        <time>2018-09-16T15:13:01Z</time>
      </trkpt>
      <trkpt lat="47.377895973622799" lon="10.278628030791879">
        <ele>833.12</ele>
        <time>2018-09-16T15:13:02Z</time>
      </trkpt>
      <trkpt lat="47.377794971689582" lon="10.278514036908746">
        <ele>832.63999999999999</ele>
        <time>2018-09-16T15:13:03Z</time>
      </trkpt>
      <trkpt lat="47.377714002504945" lon="10.278364000841975">
        <ele>832.63999999999999</ele>
        <time>2018-09-16T15:13:04Z</time>
      </trkpt>
      <trkpt lat="47.377661028876901" lon="10.278246989473701">
        <ele>832.15999999999997</ele>
        <time>2018-09-16T15:13:05Z</time>
      </trkpt>
      <trkpt lat="47.377626998350024" lon="10.27796502225101">
        <ele>832.15999999999997</ele>
        <time>2018-09-16T15:13:06Z</time>
      </trkpt>
      <trkpt lat="47.377290967851877" lon="10.277510974556208">
        <ele>832.15999999999997</ele>
        <time>2018-09-16T15:13:10Z</time>
      </trkpt>
      <trkpt lat="47.377199018374085" lon="10.277389017865062">
        <ele>832.15999999999997</ele>
        <time>2018-09-16T15:13:11Z</time>
      </trkpt>
      <trkpt lat="47.376743964850903" lon="10.276774959638715">
        <ele>833.12</ele>
        <time>2018-09-16T15:13:16Z</time>
      </trkpt>
      <trkpt lat="47.376640029251575" lon="10.276657026261091">
        <ele>833.60000000000002</ele>
        <time>2018-09-16T15:13:17Z</time>
      </trkpt>
      <trkpt lat="47.37574802711606" lon="10.275960993021727">
        <ele>833.60000000000002</ele>
        <time>2018-09-16T15:13:24Z</time>
      </trkpt>
      <trkpt lat="47.37549003213644" lon="10.275694029405713">
        <ele>834.08000000000004</ele>
        <time>2018-09-16T15:13:26Z</time>
      </trkpt>
      <trkpt lat="47.374943029135466" lon="10.274989027529955">
        <ele>834.55999999999995</ele>
        <time>2018-09-16T15:13:31Z</time>
      </trkpt>
      <trkpt lat="47.373703010380268" lon="10.274030975997448">
        <ele>840.80999999999995</ele>
        <time>2018-09-16T15:13:41Z</time>
      </trkpt>
      <trkpt lat="47.373345019295812" lon="10.27375403791666">
        <ele>842.25</ele>
        <time>2018-09-16T15:13:44Z</time>
      </trkpt>
      <trkpt lat="47.373040001839399" lon="10.273489002138376">
        <ele>843.69000000000005</ele>
        <time>2018-09-16T15:13:47Z</time>
      </trkpt>
      <trkpt lat="47.372944029048085" lon="10.273384982720017">
        <ele>843.69000000000005</ele>
        <time>2018-09-16T15:13:48Z</time>
      </trkpt>
      <trkpt lat="47.372337011620402" lon="10.272390972822905">
        <ele>848.5</ele>
        <time>2018-09-16T15:13:56Z</time>
      </trkpt>
      <trkpt lat="47.372113969177008" lon="10.2719940058887">
        <ele>850.89999999999998</ele>
        <time>2018-09-16T15:13:59Z</time>
      </trkpt>
      <trkpt lat="47.372040040791035" lon="10.271853022277355">
        <ele>851.38</ele>
        <time>2018-09-16T15:14:00Z</time>
      </trkpt>
      <trkpt lat="47.371964016929269" lon="10.271711032837629">
        <ele>851.87</ele>
        <time>2018-09-16T15:14:01Z</time>
      </trkpt>
      <trkpt lat="47.371885981410742" lon="10.271565020084381">
        <ele>852.83000000000004</ele>
        <time>2018-09-16T15:14:02Z</time>
      </trkpt>
      <trkpt lat="47.371804006397724" lon="10.271410960704088">
        <ele>853.78999999999996</ele>
        <time>2018-09-16T15:14:03Z</time>
      </trkpt>
      <trkpt lat="47.371719013899565" lon="10.271252961829305">
        <ele>854.75</ele>
        <time>2018-09-16T15:14:04Z</time>
      </trkpt>
      <trkpt lat="47.371635027229786" lon="10.271094040945172">
        <ele>855.23000000000002</ele>
        <time>2018-09-16T15:14:05Z</time>
      </trkpt>
      <trkpt lat="47.370583014562726" lon="10.269467029720545">
        <ele>865.32000000000005</ele>
        <time>2018-09-16T15:14:15Z</time>
      </trkpt>
      <trkpt lat="47.370108012109995" lon="10.268869986757636">
        <ele>869.64999999999998</ele>
        <time>2018-09-16T15:14:19Z</time>
      </trkpt>
      <trkpt lat="47.36958296969533" lon="10.268522975966334">
        <ele>873.5</ele>
        <time>2018-09-16T15:14:23Z</time>
      </trkpt>
      <trkpt lat="47.369447015225887" lon="10.268432032316923">
        <ele>874.46000000000004</ele>
        <time>2018-09-16T15:14:24Z</time>
      </trkpt>
      <trkpt lat="47.368756011128426" lon="10.267974967136979">
        <ele>878.29999999999995</ele>
        <time>2018-09-16T15:14:29Z</time>
      </trkpt>
      <trkpt lat="47.368613015860319" lon="10.267901960760355">
        <ele>878.77999999999997</ele>
        <time>2018-09-16T15:14:30Z</time>
      </trkpt>
      <trkpt lat="47.368469014763832" lon="10.267892992123961">
        <ele>879.74000000000001</ele>
        <time>2018-09-16T15:14:31Z</time>
      </trkpt>
      <trkpt lat="47.368041034787893" lon="10.26786700822413">
        <ele>882.14999999999998</ele>
        <time>2018-09-16T15:14:34Z</time>
      </trkpt>
      <trkpt lat="47.367893010377884" lon="10.267838006839156">
        <ele>882.63</ele>
        <time>2018-09-16T15:14:35Z</time>
      </trkpt>
      <trkpt lat="47.367754960432649" lon="10.267770029604435">
        <ele>883.11000000000001</ele>
        <time>2018-09-16T15:14:36Z</time>
      </trkpt>
      <trkpt lat="47.367613976821303" lon="10.267700962722301">
        <ele>884.07000000000005</ele>
        <time>2018-09-16T15:14:37Z</time>
      </trkpt>
      <trkpt lat="47.367471987381577" lon="10.2676319796592">
        <ele>884.54999999999995</ele>
        <time>2018-09-16T15:14:38Z</time>
      </trkpt>
      <trkpt lat="47.367179039865732" lon="10.267488984391093">
        <ele>885.50999999999999</ele>
        <time>2018-09-16T15:14:40Z</time>
      </trkpt>
      <trkpt lat="47.367032021284103" lon="10.267415978014469">
        <ele>885.99000000000001</ele>
        <time>2018-09-16T15:14:41Z</time>
      </trkpt>
      <trkpt lat="47.366885002702475" lon="10.267355963587761">
        <ele>885.99000000000001</ele>
        <time>2018-09-16T15:14:42Z</time>
      </trkpt>
      <trkpt lat="47.366729015484452" lon="10.267335008829832">
        <ele>885.99000000000001</ele>
        <time>2018-09-16T15:14:43Z</time>
      </trkpt>
      <trkpt lat="47.366585014387965" lon="10.267383037135005">
        <ele>885.50999999999999</ele>
        <time>2018-09-16T15:14:44Z</time>
      </trkpt>
      <trkpt lat="47.366448976099491" lon="10.267479009926319">
        <ele>885.02999999999997</ele>
        <time>2018-09-16T15:14:45Z</time>
      </trkpt>
      <trkpt lat="47.366326013579965" lon="10.267572971060872">
        <ele>884.07000000000005</ele>
        <time>2018-09-16T15:14:46Z</time>
      </trkpt>
      <trkpt lat="47.366088973358274" lon="10.267732981592417">
        <ele>883.11000000000001</ele>
        <time>2018-09-16T15:14:48Z</time>
      </trkpt>
      <trkpt lat="47.365980008617043" lon="10.267737004905939">
        <ele>883.11000000000001</ele>
        <time>2018-09-16T15:14:49Z</time>
      </trkpt>
      <trkpt lat="47.365537025034428" lon="10.267754020169377">
        <ele>881.19000000000005</ele>
        <time>2018-09-16T15:14:53Z</time>
      </trkpt>
      <trkpt lat="47.365410961210728" lon="10.267757959663868">
        <ele>880.71000000000004</ele>
        <time>2018-09-16T15:14:54Z</time>
      </trkpt>
      <trkpt lat="47.365275006741285" lon="10.267762988805771">
        <ele>880.22000000000003</ele>
        <time>2018-09-16T15:14:55Z</time>
      </trkpt>
      <trkpt lat="47.365114996209741" lon="10.267769023776054">
        <ele>879.74000000000001</ele>
        <time>2018-09-16T15:14:56Z</time>
      </trkpt>
      <trkpt lat="47.364958003163338" lon="10.267774974927306">
        <ele>879.25999999999999</ele>
        <time>2018-09-16T15:14:57Z</time>
      </trkpt>
      <trkpt lat="47.36481299623847" lon="10.267727030441165">
        <ele>878.29999999999995</ele>
        <time>2018-09-16T15:14:58Z</time>
      </trkpt>
      <trkpt lat="47.364674024283886" lon="10.267646983265877">
        <ele>877.82000000000005</ele>
        <time>2018-09-16T15:14:59Z</time>
      </trkpt>
      <trkpt lat="47.364292982965708" lon="10.267379013821483">
        <ele>876.38</ele>
        <time>2018-09-16T15:15:02Z</time>
      </trkpt>
      <trkpt lat="47.363871959969401" lon="10.267055975273252">
        <ele>874.94000000000005</ele>
        <time>2018-09-16T15:15:05Z</time>
      </trkpt>
      <trkpt lat="47.363369967788458" lon="10.266508972272277">
        <ele>873.5</ele>
        <time>2018-09-16T15:15:09Z</time>
      </trkpt>
      <trkpt lat="47.363242981955409" lon="10.266414005309343">
        <ele>873.5</ele>
        <time>2018-09-16T15:15:10Z</time>
      </trkpt>
      <trkpt lat="47.363109039142728" lon="10.266371006146073">
        <ele>873.98000000000002</ele>
        <time>2018-09-16T15:15:11Z</time>
      </trkpt>
      <trkpt lat="47.362971995025873" lon="10.266363965347409">
        <ele>874.46000000000004</ele>
        <time>2018-09-16T15:15:12Z</time>
      </trkpt>
      <trkpt lat="47.36283696256578" lon="10.26638600975275">
        <ele>875.41999999999996</ele>
        <time>2018-09-16T15:15:13Z</time>
      </trkpt>
      <trkpt lat="47.362697990611196" lon="10.26640797033906">
        <ele>876.86000000000001</ele>
        <time>2018-09-16T15:15:14Z</time>
      </trkpt>
      <trkpt lat="47.36255600117147" lon="10.266431020572782">
        <ele>877.82000000000005</ele>
        <time>2018-09-16T15:15:15Z</time>
      </trkpt>
      <trkpt lat="47.362424992024899" lon="10.266487011685967">
        <ele>878.77999999999997</ele>
        <time>2018-09-16T15:15:16Z</time>
      </trkpt>
      <trkpt lat="47.362308986485004" lon="10.266596982255578">
        <ele>879.25999999999999</ele>
        <time>2018-09-16T15:15:17Z</time>
      </trkpt>
      <trkpt lat="47.362198010087013" lon="10.266703013330698">
        <ele>880.22000000000003</ele>
        <time>2018-09-16T15:15:18Z</time>
      </trkpt>
      <trkpt lat="47.362087033689022" lon="10.266808960586786">
        <ele>880.22000000000003</ele>
        <time>2018-09-16T15:15:19Z</time>
      </trkpt>
      <trkpt lat="47.361961975693703" lon="10.266907028853893">
        <ele>880.71000000000004</ele>
        <time>2018-09-16T15:15:20Z</time>
      </trkpt>
      <trkpt lat="47.36182501539588" lon="10.266955979168415">
        <ele>881.19000000000005</ele>
        <time>2018-09-16T15:15:21Z</time>
      </trkpt>
      <trkpt lat="47.361689982935786" lon="10.267004007473588">
        <ele>881.66999999999996</ele>
        <time>2018-09-16T15:15:22Z</time>
      </trkpt>
      <trkpt lat="47.361540030688047" lon="10.267006019130349">
        <ele>881.66999999999996</ele>
        <time>2018-09-16T15:15:23Z</time>
      </trkpt>
      <trkpt lat="47.361388988792896" lon="10.26696402579546">
        <ele>881.66999999999996</ele>
        <time>2018-09-16T15:15:24Z</time>
      </trkpt>
      <trkpt lat="47.361251022666693" lon="10.266882972791791">
        <ele>881.66999999999996</ele>
        <time>2018-09-16T15:15:25Z</time>
      </trkpt>
      <trkpt lat="47.361111966893077" lon="10.266800997778773">
        <ele>882.14999999999998</ele>
        <time>2018-09-16T15:15:26Z</time>
      </trkpt>
      <trkpt lat="47.360826982185245" lon="10.266670994460583">
        <ele>883.11000000000001</ele>
        <time>2018-09-16T15:15:28Z</time>
      </trkpt>
      <trkpt lat="47.360679963603616" lon="10.266633024439216">
        <ele>883.11000000000001</ele>
        <time>2018-09-16T15:15:29Z</time>
      </trkpt>
      <trkpt lat="47.36053504049778" lon="10.266594970598817">
        <ele>883.59000000000003</ele>
        <time>2018-09-16T15:15:30Z</time>
      </trkpt>
      <trkpt lat="47.35868901014328" lon="10.266621960327029">
        <ele>887.90999999999997</ele>
        <time>2018-09-16T15:15:42Z</time>
      </trkpt>
      <trkpt lat="47.356940964236856" lon="10.266565969213843">
        <ele>892.24000000000001</ele>
        <time>2018-09-16T15:15:53Z</time>
      </trkpt>
      <trkpt lat="47.35677701421082" lon="10.266564963385463">
        <ele>893.20000000000005</ele>
        <time>2018-09-16T15:15:54Z</time>
      </trkpt>
      <trkpt lat="47.356628989800811" lon="10.266637969762087">
        <ele>893.67999999999995</ele>
        <time>2018-09-16T15:15:55Z</time>
      </trkpt>
      <trkpt lat="47.356478031724691" lon="10.266710976138711">
        <ele>894.15999999999997</ele>
        <time>2018-09-16T15:15:56Z</time>
      </trkpt>
      <trkpt lat="47.35503600910306" lon="10.267414972186089">
        <ele>899.45000000000005</ele>
        <time>2018-09-16T15:16:06Z</time>
      </trkpt>
      <trkpt lat="47.354889996349812" lon="10.267447996884584">
        <ele>899.92999999999995</ele>
        <time>2018-09-16T15:16:07Z</time>
      </trkpt>
      <trkpt lat="47.354741971939802" lon="10.26743701659143">
        <ele>900.40999999999997</ele>
        <time>2018-09-16T15:16:08Z</time>
      </trkpt>
      <trkpt lat="47.354440977796912" lon="10.267413966357708">
        <ele>900.40999999999997</ele>
        <time>2018-09-16T15:16:10Z</time>
      </trkpt>
      <trkpt lat="47.354295970872045" lon="10.267344983294606">
        <ele>900.40999999999997</ele>
        <time>2018-09-16T15:16:11Z</time>
      </trkpt>
      <trkpt lat="47.354164961725473" lon="10.267240041866899">
        <ele>900.40999999999997</ele>
        <time>2018-09-16T15:16:12Z</time>
      </trkpt>
      <trkpt lat="47.354049040004611" lon="10.267123030498624">
        <ele>900.88999999999999</ele>
        <time>2018-09-16T15:16:13Z</time>
      </trkpt>
      <trkpt lat="47.353938985615969" lon="10.267013981938362">
        <ele>900.88999999999999</ele>
        <time>2018-09-16T15:16:14Z</time>
      </trkpt>
      <trkpt lat="47.353837983682752" lon="10.266912980005145">
        <ele>901.37</ele>
        <time>2018-09-16T15:16:15Z</time>
      </trkpt>
      <trkpt lat="47.35372600145638" lon="10.26685900054872">
        <ele>901.37</ele>
        <time>2018-09-16T15:16:16Z</time>
      </trkpt>
      <trkpt lat="47.353626005351543" lon="10.26683896780014">
        <ele>901.85000000000002</ele>
        <time>2018-09-16T15:16:17Z</time>
      </trkpt>
      <trkpt lat="47.353528020903468" lon="10.266820024698973">
        <ele>902.33000000000004</ele>
        <time>2018-09-16T15:16:18Z</time>
      </trkpt>
      <trkpt lat="47.353429030627012" lon="10.266799991950393">
        <ele>902.82000000000005</ele>
        <time>2018-09-16T15:16:19Z</time>
      </trkpt>
      <trkpt lat="47.353324005380273" lon="10.266780965030193">
        <ele>902.82000000000005</ele>
        <time>2018-09-16T15:16:20Z</time>
      </trkpt>
      <trkpt lat="47.353215040639043" lon="10.266763027757406">
        <ele>903.29999999999995</ele>
        <time>2018-09-16T15:16:21Z</time>
      </trkpt>
      <trkpt lat="47.35282301902771" lon="10.266698990017176">
        <ele>904.25999999999999</ele>
        <time>2018-09-16T15:16:25Z</time>
      </trkpt>
      <trkpt lat="47.352757975459099" lon="10.266688009724021">
        <ele>904.25999999999999</ele>
        <time>2018-09-16T15:16:26Z</time>
      </trkpt>
      <trkpt lat="47.352705001831055" lon="10.266679963096976">
        <ele>904.25999999999999</ele>
        <time>2018-09-16T15:16:27Z</time>
      </trkpt>
      <trkpt lat="47.352656973525882" lon="10.266672000288963">
        <ele>904.25999999999999</ele>
        <time>2018-09-16T15:16:28Z</time>
      </trkpt>
      <trkpt lat="47.352613974362612" lon="10.266664959490299">
        <ele>904.25999999999999</ele>
        <time>2018-09-16T15:16:29Z</time>
      </trkpt>
      <trkpt lat="47.352580027654767" lon="10.266659008339047">
        <ele>903.77999999999997</ele>
        <time>2018-09-16T15:16:30Z</time>
      </trkpt>
      <trkpt lat="47.352549014613032" lon="10.266653979197145">
        <ele>904.25999999999999</ele>
        <time>2018-09-16T15:16:31Z</time>
      </trkpt>
      <trkpt lat="47.352509032934904" lon="10.266648028045893">
        <ele>904.74000000000001</ele>
        <time>2018-09-16T15:16:40Z</time>
      </trkpt>
      <trkpt lat="47.352434014901519" lon="10.266631012782454">
        <ele>906.17999999999995</ele>
        <time>2018-09-16T15:16:53Z</time>
      </trkpt>
      <trkpt lat="47.352434014901519" lon="10.266631012782454">
        <ele>906.17999999999995</ele>
        <time>2018-09-16T15:17:09Z</time>
      </trkpt>
      <trkpt lat="47.352434014901519" lon="10.266631012782454">
        <ele>906.17999999999995</ele>
        <time>2018-09-16T15:17:37Z</time>
      </trkpt>
      <trkpt lat="47.352434014901519" lon="10.266631012782454">
        <ele>907.13999999999999</ele>
        <time>2018-09-16T15:18:07Z</time>
      </trkpt>
      <trkpt lat="47.352448012679815" lon="10.266637969762087">
        <ele>907.13999999999999</ele>
        <time>2018-09-16T15:18:09Z</time>
      </trkpt>
      <trkpt lat="47.352448012679815" lon="10.266637969762087">
        <ele>907.13999999999999</ele>
        <time>2018-09-16T15:18:10Z</time>
      </trkpt>
      <trkpt lat="47.352448012679815" lon="10.266637969762087">
        <ele>907.62</ele>
        <time>2018-09-16T15:18:21Z</time>
      </trkpt>
      <trkpt lat="47.352448012679815" lon="10.266637969762087">
        <ele>907.13999999999999</ele>
        <time>2018-09-16T15:19:01Z</time>
      </trkpt>
      <trkpt lat="47.352448012679815" lon="10.266637969762087">
        <ele>906.17999999999995</ele>
        <time>2018-09-16T15:19:55Z</time>
      </trkpt>
      <trkpt lat="47.352448012679815" lon="10.266637969762087">
        <ele>905.70000000000005</ele>
        <time>2018-09-16T15:20:46Z</time>
      </trkpt>
    </trkseg>
  </trk>

  <trk>
    <name>Track vom: 2018-09-16 17:21</name>
    <extensions>
      <gpxx:TrackExtension>
        <gpxx:DisplayColor>DarkGray</gpxx:DisplayColor>
      </gpxx:TrackExtension>
    </extensions>
    <trkseg>
      <trkpt lat="47.352448012679815" lon="10.266637969762087">
        <ele>905.22000000000003</ele>
        <time>2018-09-16T15:21:17Z</time>
      </trkpt>
      <trkpt lat="47.352448012679815" lon="10.266637969762087">
        <ele>903.29999999999995</ele>
        <time>2018-09-16T15:21:33Z</time>
      </trkpt>
      <trkpt lat="47.352810027077794" lon="10.266696978360415">
        <ele>904.25999999999999</ele>
        <time>2018-09-16T15:21:41Z</time>
      </trkpt>
      <trkpt lat="47.352884039282799" lon="10.26670896448195">
        <ele>904.25999999999999</ele>
        <time>2018-09-16T15:21:42Z</time>
      </trkpt>
      <trkpt lat="47.353460965678096" lon="10.266806026920676">
        <ele>904.74000000000001</ele>
        <time>2018-09-16T15:21:51Z</time>
      </trkpt>
      <trkpt lat="47.353751985356212" lon="10.266864029690623">
        <ele>906.17999999999995</ele>
        <time>2018-09-16T15:21:55Z</time>
      </trkpt>
      <trkpt lat="47.353847036138177" lon="10.26692102663219">
        <ele>906.17999999999995</ele>
        <time>2018-09-16T15:21:56Z</time>
      </trkpt>
      <trkpt lat="47.353924987837672" lon="10.266998978331685">
        <ele>906.65999999999997</ele>
        <time>2018-09-16T15:21:57Z</time>
      </trkpt>
      <trkpt lat="47.354006040841341" lon="10.267080031335354">
        <ele>906.65999999999997</ele>
        <time>2018-09-16T15:21:58Z</time>
      </trkpt>
      <trkpt lat="47.354086004197598" lon="10.26715999469161">
        <ele>907.13999999999999</ele>
        <time>2018-09-16T15:21:59Z</time>
      </trkpt>
      <trkpt lat="47.354337964206934" lon="10.267370967194438">
        <ele>907.13999999999999</ele>
        <time>2018-09-16T15:22:02Z</time>
      </trkpt>
      <trkpt lat="47.354425974190235" lon="10.267412038519979">
        <ele>907.13999999999999</ele>
        <time>2018-09-16T15:22:03Z</time>
      </trkpt>
      <trkpt lat="47.354534016922116" lon="10.267421007156372">
        <ele>906.65999999999997</ele>
        <time>2018-09-16T15:22:04Z</time>
      </trkpt>
      <trkpt lat="47.354647004976869" lon="10.267428969964385">
        <ele>906.65999999999997</ele>
        <time>2018-09-16T15:22:05Z</time>
      </trkpt>
      <trkpt lat="47.354765022173524" lon="10.26743802241981">
        <ele>906.65999999999997</ele>
        <time>2018-09-16T15:22:06Z</time>
      </trkpt>
      <trkpt lat="47.354883961379528" lon="10.267446991056204">
        <ele>906.17999999999995</ele>
        <time>2018-09-16T15:22:07Z</time>
      </trkpt>
      <trkpt lat="47.355003990232944" lon="10.267430981621146">
        <ele>906.17999999999995</ele>
        <time>2018-09-16T15:22:08Z</time>
      </trkpt>
      <trkpt lat="47.355127958580852" lon="10.267370967194438">
        <ele>905.22000000000003</ele>
        <time>2018-09-16T15:22:09Z</time>
      </trkpt>
      <trkpt lat="47.35525201074779" lon="10.267310030758381">
        <ele>905.22000000000003</ele>
        <time>2018-09-16T15:22:10Z</time>
      </trkpt>
      <trkpt lat="47.355378996580839" lon="10.267248004674911">
        <ele>904.74000000000001</ele>
        <time>2018-09-16T15:22:11Z</time>
      </trkpt>
      <trkpt lat="47.356674000620842" lon="10.266615003347397">
        <ele>901.85000000000002</ele>
        <time>2018-09-16T15:22:20Z</time>
      </trkpt>
      <trkpt lat="47.356828982010484" lon="10.266553983092308">
        <ele>901.37</ele>
        <time>2018-09-16T15:22:21Z</time>
      </trkpt>
      <trkpt lat="47.356986980885267" lon="10.266569992527366">
        <ele>900.88999999999999</ele>
        <time>2018-09-16T15:22:22Z</time>
      </trkpt>
      <trkpt lat="47.358578033745289" lon="10.26662397198379">
        <ele>895.12</ele>
        <time>2018-09-16T15:22:32Z</time>
      </trkpt>
      <trkpt lat="47.360190963372588" lon="10.26659999974072">
        <ele>890.32000000000005</ele>
        <time>2018-09-16T15:22:43Z</time>
      </trkpt>
      <trkpt lat="47.360613998025656" lon="10.266615003347397">
        <ele>889.84000000000003</ele>
        <time>2018-09-16T15:22:46Z</time>
      </trkpt>
      <trkpt lat="47.36075003631413" lon="10.266650961712003">
        <ele>889.36000000000001</ele>
        <time>2018-09-16T15:22:47Z</time>
      </trkpt>
      <trkpt lat="47.361410027369857" lon="10.266977017745376">
        <ele>888.88</ele>
        <time>2018-09-16T15:22:52Z</time>
      </trkpt>
      <trkpt lat="47.361550005152822" lon="10.26700803078711">
        <ele>888.88</ele>
        <time>2018-09-16T15:22:53Z</time>
      </trkpt>
      <trkpt lat="47.361685959622264" lon="10.267005013301969">
        <ele>888.39999999999998</ele>
        <time>2018-09-16T15:22:54Z</time>
      </trkpt>
      <trkpt lat="47.361819986253977" lon="10.266957990825176">
        <ele>888.39999999999998</ele>
        <time>2018-09-16T15:22:55Z</time>
      </trkpt>
      <trkpt lat="47.36195401288569" lon="10.266909962520003">
        <ele>887.90999999999997</ele>
        <time>2018-09-16T15:22:56Z</time>
      </trkpt>
      <trkpt lat="47.362075969576836" lon="10.266820024698973">
        <ele>887.90999999999997</ele>
        <time>2018-09-16T15:22:57Z</time>
      </trkpt>
      <trkpt lat="47.362194992601871" lon="10.26670603081584">
        <ele>887.42999999999995</ele>
        <time>2018-09-16T15:22:58Z</time>
      </trkpt>
      <trkpt lat="47.362436978146434" lon="10.266476031392813">
        <ele>886.95000000000005</ele>
        <time>2018-09-16T15:23:00Z</time>
      </trkpt>
      <trkpt lat="47.362586008384824" lon="10.266425991430879">
        <ele>886.47000000000003</ele>
        <time>2018-09-16T15:23:01Z</time>
      </trkpt>
      <trkpt lat="47.362732021138072" lon="10.266403025016189">
        <ele>886.47000000000003</ele>
        <time>2018-09-16T15:23:02Z</time>
      </trkpt>
      <trkpt lat="47.36287702806294" lon="10.266379974782467">
        <ele>885.99000000000001</ele>
        <time>2018-09-16T15:23:03Z</time>
      </trkpt>
      <trkpt lat="47.363023040816188" lon="10.266361031681299">
        <ele>885.99000000000001</ele>
        <time>2018-09-16T15:23:04Z</time>
      </trkpt>
      <trkpt lat="47.363166036084294" lon="10.266377041116357">
        <ele>885.50999999999999</ele>
        <time>2018-09-16T15:23:05Z</time>
      </trkpt>
      <trkpt lat="47.363300984725356" lon="10.266457004472613">
        <ele>885.50999999999999</ele>
        <time>2018-09-16T15:23:06Z</time>
      </trkpt>
      <trkpt lat="47.363414978608489" lon="10.266561023890972">
        <ele>885.02999999999997</ele>
        <time>2018-09-16T15:23:07Z</time>
      </trkpt>
      <trkpt lat="47.363524027168751" lon="10.26668700389564">
        <ele>884.54999999999995</ele>
        <time>2018-09-16T15:23:08Z</time>
      </trkpt>
      <trkpt lat="47.363637015223503" lon="10.266819018870592">
        <ele>884.07000000000005</ele>
        <time>2018-09-16T15:23:09Z</time>
      </trkpt>
      <trkpt lat="47.363753020763397" lon="10.266952961683273">
        <ele>883.59000000000003</ele>
        <time>2018-09-16T15:23:10Z</time>
      </trkpt>
      <trkpt lat="47.363882018253207" lon="10.267063016071916">
        <ele>882.63</ele>
        <time>2018-09-16T15:23:11Z</time>
      </trkpt>
      <trkpt lat="47.36401797272265" lon="10.267170974984765">
        <ele>882.14999999999998</ele>
        <time>2018-09-16T15:23:12Z</time>
      </trkpt>
      <trkpt lat="47.364154011011124" lon="10.267278011888266">
        <ele>881.66999999999996</ele>
        <time>2018-09-16T15:23:13Z</time>
      </trkpt>
      <trkpt lat="47.364315027371049" lon="10.26739401742816">
        <ele>880.71000000000004</ele>
        <time>2018-09-16T15:23:14Z</time>
      </trkpt>
      <trkpt lat="47.364509990438819" lon="10.267531983554363">
        <ele>879.25999999999999</ele>
        <time>2018-09-16T15:23:15Z</time>
      </trkpt>
      <trkpt lat="47.364703025668859" lon="10.267667016014457">
        <ele>878.29999999999995</ele>
        <time>2018-09-16T15:23:16Z</time>
      </trkpt>
      <trkpt lat="47.364951968193054" lon="10.267772963270545">
        <ele>874.46000000000004</ele>
        <time>2018-09-16T15:23:18Z</time>
      </trkpt>
      <trkpt lat="47.365039978176355" lon="10.267772041261196">
        <ele>872.04999999999995</ele>
        <time>2018-09-16T15:23:19Z</time>
      </trkpt>
      <trkpt lat="47.36515698954463" lon="10.267768017947674">
        <ele>870.13</ele>
        <time>2018-09-16T15:23:20Z</time>
      </trkpt>
      <trkpt lat="47.365295039489865" lon="10.267762988805771">
        <ele>868.69000000000005</ele>
        <time>2018-09-16T15:23:21Z</time>
      </trkpt>
      <trkpt lat="47.365436023101211" lon="10.267757037654519">
        <ele>867.25</ele>
        <time>2018-09-16T15:23:22Z</time>
      </trkpt>
      <trkpt lat="47.365572983399034" lon="10.267752008512616">
        <ele>866.28999999999996</ele>
        <time>2018-09-16T15:23:23Z</time>
      </trkpt>
      <trkpt lat="47.365716984495521" lon="10.267746979370713">
        <ele>864.84000000000003</ele>
        <time>2018-09-16T15:23:24Z</time>
      </trkpt>
      <trkpt lat="47.366269016638398" lon="10.267615970224142">
        <ele>861.96000000000004</ele>
        <time>2018-09-16T15:23:28Z</time>
      </trkpt>
      <trkpt lat="47.366377981379628" lon="10.267532989382744">
        <ele>862.44000000000005</ele>
        <time>2018-09-16T15:23:29Z</time>
      </trkpt>
      <trkpt lat="47.366736978292465" lon="10.26733199134469">
        <ele>863.39999999999998</ele>
        <time>2018-09-16T15:23:32Z</time>
      </trkpt>
      <trkpt lat="47.366864969953895" lon="10.26735101826489">
        <ele>863.39999999999998</ele>
        <time>2018-09-16T15:23:33Z</time>
      </trkpt>
      <trkpt lat="47.366932025179267" lon="10.267367027699947">
        <ele>863.88</ele>
        <time>2018-09-16T15:23:34Z</time>
      </trkpt>
      <trkpt lat="47.367101004347205" lon="10.267450008541346">
        <ele>864.36000000000001</ele>
        <time>2018-09-16T15:23:35Z</time>
      </trkpt>
      <trkpt lat="47.367223966866732" lon="10.267510022968054">
        <ele>864.84000000000003</ele>
        <time>2018-09-16T15:23:36Z</time>
      </trkpt>
      <trkpt lat="47.367351958528161" lon="10.267572971060872">
        <ele>865.79999999999995</ele>
        <time>2018-09-16T15:23:37Z</time>
      </trkpt>
      <trkpt lat="47.367481039837003" lon="10.267636002972722">
        <ele>867.25</ele>
        <time>2018-09-16T15:23:38Z</time>
      </trkpt>
      <trkpt lat="47.367611965164542" lon="10.267700040712953">
        <ele>868.69000000000005</ele>
        <time>2018-09-16T15:23:39Z</time>
      </trkpt>
      <trkpt lat="47.367750015109777" lon="10.267768017947674">
        <ele>869.64999999999998</ele>
        <time>2018-09-16T15:23:40Z</time>
      </trkpt>
      <trkpt lat="47.367890998721123" lon="10.267837001010776">
        <ele>870.61000000000001</ele>
        <time>2018-09-16T15:23:41Z</time>
      </trkpt>
      <trkpt lat="47.368052015081048" lon="10.26786801405251">
        <ele>871.09000000000003</ele>
        <time>2018-09-16T15:23:42Z</time>
      </trkpt>
      <trkpt lat="47.368210013955832" lon="10.267876982688904">
        <ele>871.09000000000003</ele>
        <time>2018-09-16T15:23:43Z</time>
      </trkpt>
      <trkpt lat="47.368369018658996" lon="10.26788704097271">
        <ele>871.09000000000003</ele>
        <time>2018-09-16T15:23:44Z</time>
      </trkpt>
      <trkpt lat="47.368677975609899" lon="10.267922999337316">
        <ele>870.61000000000001</ele>
        <time>2018-09-16T15:23:46Z</time>
      </trkpt>
      <trkpt lat="47.369111990556121" lon="10.26821100153029">
        <ele>871.57000000000005</ele>
        <time>2018-09-16T15:23:49Z</time>
      </trkpt>
      <trkpt lat="47.370256958529353" lon="10.269038965925574">
        <ele>871.57000000000005</ele>
        <time>2018-09-16T15:23:57Z</time>
      </trkpt>
      <trkpt lat="47.371247028931975" lon="10.27046799659729">
        <ele>868.21000000000004</ele>
        <time>2018-09-16T15:24:05Z</time>
      </trkpt>
      <trkpt lat="47.372193010523915" lon="10.27214203029871">
        <ele>862.91999999999996</ele>
        <time>2018-09-16T15:24:14Z</time>
      </trkpt>
      <trkpt lat="47.372763985767961" lon="10.273120030760765">
        <ele>857.14999999999998</ele>
        <time>2018-09-16T15:24:20Z</time>
      </trkpt>
      <trkpt lat="47.372863981872797" lon="10.273291021585464">
        <ele>856.66999999999996</ele>
        <time>2018-09-16T15:24:21Z</time>
      </trkpt>
      <trkpt lat="47.372986022382975" lon="10.273429993540049">
        <ele>855.71000000000004</ele>
        <time>2018-09-16T15:24:22Z</time>
      </trkpt>
      <trkpt lat="47.373244017362595" lon="10.273676002398133">
        <ele>855.23000000000002</ele>
        <time>2018-09-16T15:24:24Z</time>
      </trkpt>
      <trkpt lat="47.374649997800589" lon="10.274761961773038">
        <ele>854.75</ele>
        <time>2018-09-16T15:24:34Z</time>
      </trkpt>
      <trkpt lat="47.374934982508421" lon="10.274981986731291">
        <ele>854.75</ele>
        <time>2018-09-16T15:24:36Z</time>
      </trkpt>
      <trkpt lat="47.37529800273478" lon="10.27542999945581">
        <ele>854.26999999999998</ele>
        <time>2018-09-16T15:24:39Z</time>
      </trkpt>
      <trkpt lat="47.375414008274674" lon="10.275589004158974">
        <ele>854.26999999999998</ele>
        <time>2018-09-16T15:24:40Z</time>
      </trkpt>
      <trkpt lat="47.375660017132759" lon="10.275874994695187">
        <ele>854.26999999999998</ele>
        <time>2018-09-16T15:24:42Z</time>
      </trkpt>
      <trkpt lat="47.375914994627237" lon="10.276119997724891">
        <ele>854.75</ele>
        <time>2018-09-16T15:24:44Z</time>
      </trkpt>
      <trkpt lat="47.376052038744092" lon="10.276251006871462">
        <ele>855.23000000000002</ele>
        <time>2018-09-16T15:24:45Z</time>
      </trkpt>
      <trkpt lat="47.376566017046571" lon="10.276605980470777">
        <ele>855.23000000000002</ele>
        <time>2018-09-16T15:24:49Z</time>
      </trkpt>
      <trkpt lat="47.376690991222858" lon="10.276703964918852">
        <ele>855.23000000000002</ele>
        <time>2018-09-16T15:24:50Z</time>
      </trkpt>
      <trkpt lat="47.37679903395474" lon="10.276848971843719">
        <ele>854.75</ele>
        <time>2018-09-16T15:24:51Z</time>
      </trkpt>
      <trkpt lat="47.377214021980762" lon="10.277407960966229">
        <ele>853.78999999999996</ele>
        <time>2018-09-16T15:24:55Z</time>
      </trkpt>
      <trkpt lat="47.377719031646848" lon="10.27837498113513">
        <ele>851.38</ele>
        <time>2018-09-16T15:25:01Z</time>
      </trkpt>
      <trkpt lat="47.37781198695302" lon="10.278532980009913">
        <ele>851.38</ele>
        <time>2018-09-16T15:25:02Z</time>
      </trkpt>
      <trkpt lat="47.377932015806437" lon="10.278661977499723">
        <ele>850.89999999999998</ele>
        <time>2018-09-16T15:25:03Z</time>
      </trkpt>
      <trkpt lat="47.378190010786057" lon="10.27882601134479">
        <ele>849.46000000000004</ele>
        <time>2018-09-16T15:25:05Z</time>
      </trkpt>
      <trkpt lat="47.378580020740628" lon="10.279072020202875">
        <ele>847.53999999999996</ele>
        <time>2018-09-16T15:25:08Z</time>
      </trkpt>
      <trkpt lat="47.378733996301889" lon="10.27916899882257">
        <ele>847.53999999999996</ele>
        <time>2018-09-16T15:25:09Z</time>
      </trkpt>
      <trkpt lat="47.378828963264823" lon="10.27927603572607">
        <ele>847.05999999999995</ele>
        <time>2018-09-16T15:25:10Z</time>
      </trkpt>
      <trkpt lat="47.37892996519804" lon="10.279440991580486">
        <ele>847.05999999999995</ele>
        <time>2018-09-16T15:25:11Z</time>
      </trkpt>
      <trkpt lat="47.378989979624748" lon="10.279625980183482">
        <ele>847.05999999999995</ele>
        <time>2018-09-16T15:25:12Z</time>
      </trkpt>
      <trkpt lat="47.379050999879837" lon="10.279818009585142">
        <ele>847.53999999999996</ele>
        <time>2018-09-16T15:25:13Z</time>
      </trkpt>
      <trkpt lat="47.379135992377996" lon="10.279976008459926">
        <ele>847.05999999999995</ele>
        <time>2018-09-16T15:25:14Z</time>
      </trkpt>
      <trkpt lat="47.379238000139594" lon="10.280110035091639">
        <ele>846.58000000000004</ele>
        <time>2018-09-16T15:25:15Z</time>
      </trkpt>
      <trkpt lat="47.379340007901192" lon="10.28024397790432">
        <ele>846.58000000000004</ele>
        <time>2018-09-16T15:25:16Z</time>
      </trkpt>
      <trkpt lat="47.379448972642422" lon="10.280364006757736">
        <ele>846.58000000000004</ele>
        <time>2018-09-16T15:25:17Z</time>
      </trkpt>
      <trkpt lat="47.379581993445754" lon="10.280435001477599">
        <ele>846.58000000000004</ele>
        <time>2018-09-16T15:25:18Z</time>
      </trkpt>
      <trkpt lat="47.379742003977299" lon="10.280520999804139">
        <ele>846.10000000000002</ele>
        <time>2018-09-16T15:25:19Z</time>
      </trkpt>
      <trkpt lat="47.380786975845695" lon="10.280629964545369">
        <ele>845.62</ele>
        <time>2018-09-16T15:25:26Z</time>
      </trkpt>
      <trkpt lat="47.380932988598943" lon="10.280655026435852">
        <ele>845.62</ele>
        <time>2018-09-16T15:25:27Z</time>
      </trkpt>
      <trkpt lat="47.381081013008952" lon="10.280699031427503">
        <ele>845.62</ele>
        <time>2018-09-16T15:25:28Z</time>
      </trkpt>
      <trkpt lat="47.381345964968204" lon="10.280902963131666">
        <ele>845.13999999999999</ele>
        <time>2018-09-16T15:25:30Z</time>
      </trkpt>
      <trkpt lat="47.381983995437622" lon="10.281394980847836">
        <ele>844.65999999999997</ele>
        <time>2018-09-16T15:25:35Z</time>
      </trkpt>
      <trkpt lat="47.382121961563826" lon="10.28148801997304">
        <ele>844.65999999999997</ele>
        <time>2018-09-16T15:25:36Z</time>
      </trkpt>
      <trkpt lat="47.382266968488693" lon="10.281497994437814">
        <ele>844.65999999999997</ele>
        <time>2018-09-16T15:25:37Z</time>
      </trkpt>
      <trkpt lat="47.383662974461913" lon="10.281358016654849">
        <ele>842.73000000000002</ele>
        <time>2018-09-16T15:25:46Z</time>
      </trkpt>
      <trkpt lat="47.385021010413766" lon="10.281057022511959">
        <ele>836.96000000000004</ele>
        <time>2018-09-16T15:25:55Z</time>
      </trkpt>
      <trkpt lat="47.385286968201399" lon="10.280927019193769">
        <ele>835.51999999999998</ele>
        <time>2018-09-16T15:25:57Z</time>
      </trkpt>
      <trkpt lat="47.385414037853479" lon="10.280864993110299">
        <ele>835.03999999999996</ele>
        <time>2018-09-16T15:25:58Z</time>
      </trkpt>
      <trkpt lat="47.385919969528913" lon="10.280617978423834">
        <ele>834.55999999999995</ele>
        <time>2018-09-16T15:26:02Z</time>
      </trkpt>
      <trkpt lat="47.385986018925905" lon="10.28058503754437">
        <ele>834.55999999999995</ele>
        <time>2018-09-16T15:26:03Z</time>
      </trkpt>
      <trkpt lat="47.386156003922224" lon="10.280642034485936">
        <ele>834.08000000000004</ele>
        <time>2018-09-16T15:26:04Z</time>
      </trkpt>
      <trkpt lat="47.386277038604021" lon="10.280682016164064">
        <ele>834.08000000000004</ele>
        <time>2018-09-16T15:26:05Z</time>
      </trkpt>
      <trkpt lat="47.386391032487154" lon="10.280726021155715">
        <ele>834.08000000000004</ele>
        <time>2018-09-16T15:26:06Z</time>
      </trkpt>
      <trkpt lat="47.38685798831284" lon="10.2809720300138">
        <ele>832.63999999999999</ele>
        <time>2018-09-16T15:26:10Z</time>
      </trkpt>
      <trkpt lat="47.386968964710832" lon="10.2809720300138">
        <ele>832.63999999999999</ele>
        <time>2018-09-16T15:26:11Z</time>
      </trkpt>
      <trkpt lat="47.387074995785952" lon="10.2809720300138">
        <ele>832.15999999999997</ele>
        <time>2018-09-16T15:26:12Z</time>
      </trkpt>
      <trkpt lat="47.387357968837023" lon="10.2809720300138">
        <ele>831.67999999999995</ele>
        <time>2018-09-16T15:26:15Z</time>
      </trkpt>
      <trkpt lat="47.387430975213647" lon="10.280935987830162">
        <ele>831.67999999999995</ele>
        <time>2018-09-16T15:26:16Z</time>
      </trkpt>
      <trkpt lat="47.387499958276749" lon="10.280902041122317">
        <ele>831.20000000000005</ele>
        <time>2018-09-16T15:26:17Z</time>
      </trkpt>
      <trkpt lat="47.387616969645023" lon="10.28084303252399">
        <ele>831.20000000000005</ele>
        <time>2018-09-16T15:26:23Z</time>
      </trkpt>
      <trkpt lat="47.387796007096767" lon="10.280885025858879">
        <ele>830.24000000000001</ele>
        <time>2018-09-16T15:26:30Z</time>
      </trkpt>
      <trkpt lat="47.387810004875064" lon="10.280906986445189">
        <ele>829.75999999999999</ele>
        <time>2018-09-16T15:26:31Z</time>
      </trkpt>
      <trkpt lat="47.387810004875064" lon="10.280906986445189">
        <ele>829.75999999999999</ele>
        <time>2018-09-16T15:26:32Z</time>
      </trkpt>
      <trkpt lat="47.387833977118134" lon="10.281064985319972">
        <ele>829.26999999999998</ele>
        <time>2018-09-16T15:26:33Z</time>
      </trkpt>
      <trkpt lat="47.387820985168219" lon="10.281089041382074">
        <ele>829.26999999999998</ele>
        <time>2018-09-16T15:26:34Z</time>
      </trkpt>
      <trkpt lat="47.387831965461373" lon="10.281068002805114">
        <ele>827.83000000000004</ele>
        <time>2018-09-16T15:26:42Z</time>
      </trkpt>
      <trkpt lat="47.38784696906805" lon="10.281041013076901">
        <ele>827.83000000000004</ele>
        <time>2018-09-16T15:26:43Z</time>
      </trkpt>
      <trkpt lat="47.387810004875064" lon="10.280906986445189">
        <ele>827.83000000000004</ele>
        <time>2018-09-16T15:26:44Z</time>
      </trkpt>
      <trkpt lat="47.387810004875064" lon="10.280906986445189">
        <ele>827.83000000000004</ele>
        <time>2018-09-16T15:26:45Z</time>
      </trkpt>
      <trkpt lat="47.387810004875064" lon="10.280906986445189">
        <ele>827.35000000000002</ele>
        <time>2018-09-16T15:26:46Z</time>
      </trkpt>
      <trkpt lat="47.387793995440006" lon="10.280881002545357">
        <ele>827.35000000000002</ele>
        <time>2018-09-16T15:26:47Z</time>
      </trkpt>
      <trkpt lat="47.387773962691426" lon="10.280848983675241">
        <ele>827.35000000000002</ele>
        <time>2018-09-16T15:26:48Z</time>
      </trkpt>
      <trkpt lat="47.387750996276736" lon="10.280813025310636">
        <ele>826.87</ele>
        <time>2018-09-16T15:26:49Z</time>
      </trkpt>
      <trkpt lat="47.387731969356537" lon="10.28067204169929">
        <ele>826.87</ele>
        <time>2018-09-16T15:26:50Z</time>
      </trkpt>
      <trkpt lat="47.387748984619975" lon="10.280634993687272">
        <ele>826.87</ele>
        <time>2018-09-16T15:26:51Z</time>
      </trkpt>
      <trkpt lat="47.387764994055033" lon="10.280599035322666">
        <ele>826.87</ele>
        <time>2018-09-16T15:26:52Z</time>
      </trkpt>
      <trkpt lat="47.387786032631993" lon="10.280552012845874">
        <ele>826.87</ele>
        <time>2018-09-16T15:26:53Z</time>
      </trkpt>
      <trkpt lat="47.387819979339838" lon="10.280476994812489">
        <ele>826.87</ele>
        <time>2018-09-16T15:26:54Z</time>
      </trkpt>
      <trkpt lat="47.387864990159869" lon="10.280378004536033">
        <ele>826.87</ele>
        <time>2018-09-16T15:26:55Z</time>
      </trkpt>
      <trkpt lat="47.38827402703464" lon="10.279477033764124">
        <ele>825.42999999999995</ele>
        <time>2018-09-16T15:27:01Z</time>
      </trkpt>
      <trkpt lat="47.389212967827916" lon="10.277942977845669">
        <ele>823.99000000000001</ele>
        <time>2018-09-16T15:27:11Z</time>
      </trkpt>
      <trkpt lat="47.389257978647947" lon="10.2760090213269">
        <ele>822.54999999999995</ele>
        <time>2018-09-16T15:27:19Z</time>
      </trkpt>
      <trkpt lat="47.389226965606213" lon="10.273371990770102">
        <ele>816.77999999999997</ele>
        <time>2018-09-16T15:27:30Z</time>
      </trkpt>
      <trkpt lat="47.389345988631248" lon="10.271914964541793">
        <ele>813.88999999999999</ele>
        <time>2018-09-16T15:27:36Z</time>
      </trkpt>
      <trkpt lat="47.389377001672983" lon="10.271684965118766">
        <ele>813.40999999999997</ele>
        <time>2018-09-16T15:27:37Z</time>
      </trkpt>
      <trkpt lat="47.389443973079324" lon="10.271438034251332">
        <ele>812.92999999999995</ele>
        <time>2018-09-16T15:27:38Z</time>
      </trkpt>
      <trkpt lat="47.389533994719386" lon="10.271258996799588">
        <ele>812.45000000000005</ele>
        <time>2018-09-16T15:27:39Z</time>
      </trkpt>
      <trkpt lat="47.389613036066294" lon="10.271100997924805">
        <ele>811.97000000000003</ele>
        <time>2018-09-16T15:27:40Z</time>
      </trkpt>
      <trkpt lat="47.389753013849258" lon="10.270949034020305">
        <ele>811.49000000000001</ele>
        <time>2018-09-16T15:27:41Z</time>
      </trkpt>
      <trkpt lat="47.389878993853927" lon="10.270810984075069">
        <ele>811.00999999999999</ele>
        <time>2018-09-16T15:27:42Z</time>
      </trkpt>
      <trkpt lat="47.389994999393821" lon="10.270656002685428">
        <ele>810.52999999999997</ele>
        <time>2018-09-16T15:27:43Z</time>
      </trkpt>
      <trkpt lat="47.390682986006141" lon="10.269631985574961">
        <ele>807.63999999999999</ele>
        <time>2018-09-16T15:27:50Z</time>
      </trkpt>
      <trkpt lat="47.390773007646203" lon="10.269484966993332">
        <ele>807.15999999999997</ele>
        <time>2018-09-16T15:27:51Z</time>
      </trkpt>
      <trkpt lat="47.390860011801124" lon="10.269341971725225">
        <ele>806.67999999999995</ele>
        <time>2018-09-16T15:27:52Z</time>
      </trkpt>
      <trkpt lat="47.391012981534004" lon="10.269051035866141">
        <ele>806.67999999999995</ele>
        <time>2018-09-16T15:27:54Z</time>
      </trkpt>
      <trkpt lat="47.391156982630491" lon="10.268750041723251">
        <ele>807.15999999999997</ele>
        <time>2018-09-16T15:27:56Z</time>
      </trkpt>
      <trkpt lat="47.391222026199102" lon="10.26857896707952">
        <ele>807.15999999999997</ele>
        <time>2018-09-16T15:27:57Z</time>
      </trkpt>
      <trkpt lat="47.391285980120301" lon="10.268410993739963">
        <ele>807.15999999999997</ele>
        <time>2018-09-16T15:27:58Z</time>
      </trkpt>
      <trkpt lat="47.391313975676894" lon="10.268241008743644">
        <ele>807.15999999999997</ele>
        <time>2018-09-16T15:27:59Z</time>
      </trkpt>
      <trkpt lat="47.3913240339607" lon="10.268056020140648">
        <ele>807.63999999999999</ele>
        <time>2018-09-16T15:28:00Z</time>
      </trkpt>
      <trkpt lat="47.391334008425474" lon="10.267873965203762">
        <ele>807.63999999999999</ele>
        <time>2018-09-16T15:28:01Z</time>
      </trkpt>
      <trkpt lat="47.391342977061868" lon="10.267698029056191">
        <ele>808.13</ele>
        <time>2018-09-16T15:28:02Z</time>
      </trkpt>
      <trkpt lat="47.391253039240837" lon="10.266736960038543">
        <ele>808.61000000000001</ele>
        <time>2018-09-16T15:28:08Z</time>
      </trkpt>
      <trkpt lat="47.391251027584076" lon="10.266560018062592">
        <ele>808.61000000000001</ele>
        <time>2018-09-16T15:28:09Z</time>
      </trkpt>
      <trkpt lat="47.391264019533992" lon="10.266387015581131">
        <ele>808.61000000000001</ele>
        <time>2018-09-16T15:28:10Z</time>
      </trkpt>
      <trkpt lat="47.391277011483908" lon="10.266206972301006">
        <ele>808.61000000000001</ele>
        <time>2018-09-16T15:28:11Z</time>
      </trkpt>
      <trkpt lat="47.391313975676894" lon="10.266002034768462">
        <ele>808.13</ele>
        <time>2018-09-16T15:28:12Z</time>
      </trkpt>
      <trkpt lat="47.391414977610111" lon="10.265715038403869">
        <ele>807.15999999999997</ele>
        <time>2018-09-16T15:28:14Z</time>
      </trkpt>
      <trkpt lat="47.391543975099921" lon="10.265565002337098">
        <ele>806.67999999999995</ele>
        <time>2018-09-16T15:28:15Z</time>
      </trkpt>
      <trkpt lat="47.391658974811435" lon="10.265427036210895">
        <ele>805.72000000000003</ele>
        <time>2018-09-16T15:28:16Z</time>
      </trkpt>
      <trkpt lat="47.391773974522948" lon="10.265297032892704">
        <ele>805.24000000000001</ele>
        <time>2018-09-16T15:28:17Z</time>
      </trkpt>
      <trkpt lat="47.391901966184378" lon="10.265208017081022">
        <ele>804.75999999999999</ele>
        <time>2018-09-16T15:28:18Z</time>
      </trkpt>
      <trkpt lat="47.392042027786374" lon="10.265113972127438">
        <ele>804.27999999999997</ele>
        <time>2018-09-16T15:28:19Z</time>
      </trkpt>
      <trkpt lat="47.392185023054481" lon="10.265111960470676">
        <ele>803.32000000000005</ele>
        <time>2018-09-16T15:28:20Z</time>
      </trkpt>
      <trkpt lat="47.392330029979348" lon="10.265109026804566">
        <ele>802.84000000000003</ele>
        <time>2018-09-16T15:28:21Z</time>
      </trkpt>
      <trkpt lat="47.392470007762313" lon="10.265106009319425">
        <ele>802.36000000000001</ele>
        <time>2018-09-16T15:28:22Z</time>
      </trkpt>
      <trkpt lat="47.393062021583319" lon="10.26509502902627">
        <ele>802.36000000000001</ele>
        <time>2018-09-16T15:28:26Z</time>
      </trkpt>
      <trkpt lat="47.393213985487819" lon="10.265072984620929">
        <ele>802.36000000000001</ele>
        <time>2018-09-16T15:28:27Z</time>
      </trkpt>
      <trkpt lat="47.393353963270783" lon="10.265004001557827">
        <ele>802.84000000000003</ele>
        <time>2018-09-16T15:28:28Z</time>
      </trkpt>
      <trkpt lat="47.393486984074116" lon="10.264937030151486">
        <ele>802.84000000000003</ele>
        <time>2018-09-16T15:28:29Z</time>
      </trkpt>
      <trkpt lat="47.393615981563926" lon="10.264838961884379">
        <ele>803.32000000000005</ele>
        <time>2018-09-16T15:28:30Z</time>
      </trkpt>
      <trkpt lat="47.393727963790298" lon="10.264715999364853">
        <ele>803.32000000000005</ele>
        <time>2018-09-16T15:28:31Z</time>
      </trkpt>
      <trkpt lat="47.393832989037037" lon="10.264589013531804">
        <ele>803.32000000000005</ele>
        <time>2018-09-16T15:28:32Z</time>
      </trkpt>
      <trkpt lat="47.39478500559926" lon="10.263357041403651">
        <ele>803.79999999999995</ele>
        <time>2018-09-16T15:28:42Z</time>
      </trkpt>
      <trkpt lat="47.395595032721758" lon="10.26270903646946">
        <ele>801.88</ele>
        <time>2018-09-16T15:28:49Z</time>
      </trkpt>
      <trkpt lat="47.396668000146747" lon="10.262354984879494">
        <ele>803.79999999999995</ele>
        <time>2018-09-16T15:28:58Z</time>
      </trkpt>
      <trkpt lat="47.396908979862928" lon="10.262391027063131">
        <ele>803.79999999999995</ele>
        <time>2018-09-16T15:29:00Z</time>
      </trkpt>
      <trkpt lat="47.397147025913" lon="10.262452969327569">
        <ele>804.27999999999997</ele>
        <time>2018-09-16T15:29:02Z</time>
      </trkpt>
      <trkpt lat="47.397265965119004" lon="10.262498985975981">
        <ele>804.27999999999997</ele>
        <time>2018-09-16T15:29:03Z</time>
      </trkpt>
      <trkpt lat="47.397377025336027" lon="10.262575009837747">
        <ele>804.75999999999999</ele>
        <time>2018-09-16T15:29:04Z</time>
      </trkpt>
      <trkpt lat="47.398705976083875" lon="10.263478998094797">
        <ele>801.88</ele>
        <time>2018-09-16T15:29:16Z</time>
      </trkpt>
      <trkpt lat="47.399945994839072" lon="10.264136977493763">
        <ele>801.88</ele>
        <time>2018-09-16T15:29:27Z</time>
      </trkpt>
      <trkpt lat="47.401038995012641" lon="10.263992976397276">
        <ele>802.36000000000001</ele>
        <time>2018-09-16T15:29:36Z</time>
      </trkpt>
      <trkpt lat="47.402558969333768" lon="10.26344102807343">
        <ele>800.44000000000005</ele>
        <time>2018-09-16T15:29:49Z</time>
      </trkpt>
      <trkpt lat="47.402800032868981" lon="10.26344102807343">
        <ele>799.95000000000005</ele>
        <time>2018-09-16T15:29:51Z</time>
      </trkpt>
      <trkpt lat="47.404100988060236" lon="10.263712015002966">
        <ele>799.47000000000003</ele>
        <time>2018-09-16T15:30:02Z</time>
      </trkpt>
      <trkpt lat="47.405303958803415" lon="10.26346399448812">
        <ele>799.47000000000003</ele>
        <time>2018-09-16T15:30:12Z</time>
      </trkpt>
      <trkpt lat="47.405786002054811" lon="10.263332985341549">
        <ele>799.47000000000003</ele>
        <time>2018-09-16T15:30:16Z</time>
      </trkpt>
      <trkpt lat="47.405897984281182" lon="10.263265008106828">
        <ele>799.47000000000003</ele>
        <time>2018-09-16T15:30:17Z</time>
      </trkpt>
      <trkpt lat="47.406741958111525" lon="10.262557994574308">
        <ele>799.47000000000003</ele>
        <time>2018-09-16T15:30:25Z</time>
      </trkpt>
      <trkpt lat="47.406845977529883" lon="10.262464033439755">
        <ele>798.99000000000001</ele>
        <time>2018-09-16T15:30:26Z</time>
      </trkpt>
      <trkpt lat="47.406957959756255" lon="10.262384992092848">
        <ele>798.50999999999999</ele>
        <time>2018-09-16T15:30:27Z</time>
      </trkpt>
      <trkpt lat="47.40707597695291" lon="10.262364959344268">
        <ele>798.50999999999999</ele>
        <time>2018-09-16T15:30:28Z</time>
      </trkpt>
      <trkpt lat="47.407194999977946" lon="10.26234501041472">
        <ele>798.02999999999997</ele>
        <time>2018-09-16T15:30:29Z</time>
      </trkpt>
      <trkpt lat="47.407314023002982" lon="10.26232497766614">
        <ele>798.02999999999997</ele>
        <time>2018-09-16T15:30:30Z</time>
      </trkpt>
      <trkpt lat="47.407429022714496" lon="10.262306034564972">
        <ele>797.54999999999995</ele>
        <time>2018-09-16T15:30:31Z</time>
      </trkpt>
      <trkpt lat="47.407537987455726" lon="10.262307962402701">
        <ele>797.07000000000005</ele>
        <time>2018-09-16T15:30:32Z</time>
      </trkpt>
      <trkpt lat="47.40821398794651" lon="10.262344004586339">
        <ele>795.63</ele>
        <time>2018-09-16T15:30:40Z</time>
      </trkpt>
      <trkpt lat="47.409235993400216" lon="10.262321960180998">
        <ele>797.54999999999995</ele>
        <time>2018-09-16T15:30:53Z</time>
      </trkpt>
      <trkpt lat="47.409469010308385" lon="10.262307040393353">
        <ele>798.99000000000001</ele>
        <time>2018-09-16T15:30:56Z</time>
      </trkpt>
      <trkpt lat="47.40954402834177" lon="10.262338975444436">
        <ele>798.99000000000001</ele>
        <time>2018-09-16T15:30:57Z</time>
      </trkpt>
      <trkpt lat="47.40969498641789" lon="10.262423967942595">
        <ele>798.50999999999999</ele>
        <time>2018-09-16T15:30:59Z</time>
      </trkpt>
      <trkpt lat="47.409771010279655" lon="10.262476019561291">
        <ele>798.50999999999999</ele>
        <time>2018-09-16T15:31:00Z</time>
      </trkpt>
      <trkpt lat="47.410130007192492" lon="10.262718005105853">
        <ele>797.54999999999995</ele>
        <time>2018-09-16T15:31:05Z</time>
      </trkpt>
      <trkpt lat="47.410199996083975" lon="10.262766033411026">
        <ele>797.54999999999995</ele>
        <time>2018-09-16T15:31:06Z</time>
      </trkpt>
      <trkpt lat="47.411199035122991" lon="10.26344102807343">
        <ele>796.59000000000003</ele>
        <time>2018-09-16T15:31:20Z</time>
      </trkpt>
      <trkpt lat="47.411259971559048" lon="10.263518979772925">
        <ele>796.59000000000003</ele>
        <time>2018-09-16T15:31:21Z</time>
      </trkpt>
      <trkpt lat="47.411378994584084" lon="10.263674966990948">
        <ele>797.07000000000005</ele>
        <time>2018-09-16T15:31:23Z</time>
      </trkpt>
      <trkpt lat="47.411430040374398" lon="10.263763982802629">
        <ele>797.07000000000005</ele>
        <time>2018-09-16T15:31:24Z</time>
      </trkpt>
      <trkpt lat="47.411467004567385" lon="10.263866996392608">
        <ele>796.59000000000003</ele>
        <time>2018-09-16T15:31:25Z</time>
      </trkpt>
      <trkpt lat="47.411541016772389" lon="10.264074029400945">
        <ele>796.11000000000001</ele>
        <time>2018-09-16T15:31:27Z</time>
      </trkpt>
      <trkpt lat="47.411620980128646" lon="10.264269998297095">
        <ele>796.11000000000001</ele>
        <time>2018-09-16T15:31:29Z</time>
      </trkpt>
      <trkpt lat="47.411682000383735" lon="10.264331018552184">
        <ele>796.11000000000001</ele>
        <time>2018-09-16T15:31:30Z</time>
      </trkpt>
      <trkpt lat="47.411735979840159" lon="10.264384998008609">
        <ele>796.59000000000003</ele>
        <time>2018-09-16T15:31:31Z</time>
      </trkpt>
      <trkpt lat="47.411735979840159" lon="10.264384998008609">
        <ele>796.59000000000003</ele>
        <time>2018-09-16T15:31:32Z</time>
      </trkpt>
      <trkpt lat="47.411820972338319" lon="10.264634024351835">
        <ele>796.59000000000003</ele>
        <time>2018-09-16T15:31:33Z</time>
      </trkpt>
      <trkpt lat="47.411820972338319" lon="10.264742989093065">
        <ele>796.59000000000003</ele>
        <time>2018-09-16T15:31:34Z</time>
      </trkpt>
      <trkpt lat="47.411820972338319" lon="10.264862012118101">
        <ele>797.07000000000005</ele>
        <time>2018-09-16T15:31:35Z</time>
      </trkpt>
      <trkpt lat="47.411820972338319" lon="10.264981035143137">
        <ele>797.07000000000005</ele>
        <time>2018-09-16T15:31:36Z</time>
      </trkpt>
      <trkpt lat="47.411675965413451" lon="10.266716005280614">
        <ele>796.11000000000001</ele>
        <time>2018-09-16T15:31:51Z</time>
      </trkpt>
      <trkpt lat="47.41147899068892" lon="10.268209995701909">
        <ele>796.59000000000003</ele>
        <time>2018-09-16T15:32:04Z</time>
      </trkpt>
      <trkpt lat="47.411462981253862" lon="10.268327007070184">
        <ele>796.59000000000003</ele>
        <time>2018-09-16T15:32:05Z</time>
      </trkpt>
      <trkpt lat="47.411445965990424" lon="10.268443012610078">
        <ele>796.59000000000003</ele>
        <time>2018-09-16T15:32:06Z</time>
      </trkpt>
      <trkpt lat="47.411254020407796" lon="10.269325040280819">
        <ele>796.59000000000003</ele>
        <time>2018-09-16T15:32:14Z</time>
      </trkpt>
      <trkpt lat="47.411214960739017" lon="10.269425036385655">
        <ele>796.59000000000003</ele>
        <time>2018-09-16T15:32:15Z</time>
      </trkpt>
      <trkpt lat="47.410825034603477" lon="10.270692966878414">
        <ele>796.11000000000001</ele>
        <time>2018-09-16T15:32:27Z</time>
      </trkpt>
      <trkpt lat="47.4106839671731" lon="10.271363016217947">
        <ele>797.07000000000005</ele>
        <time>2018-09-16T15:32:33Z</time>
      </trkpt>
      <trkpt lat="47.410596963018179" lon="10.272749969735742">
        <ele>800.91999999999996</ele>
        <time>2018-09-16T15:32:45Z</time>
      </trkpt>
      <trkpt lat="47.410577014088631" lon="10.272861029952765">
        <ele>801.39999999999998</ele>
        <time>2018-09-16T15:32:46Z</time>
      </trkpt>
      <trkpt lat="47.410524040460587" lon="10.272966977208853">
        <ele>801.39999999999998</ele>
        <time>2018-09-16T15:32:47Z</time>
      </trkpt>
      <trkpt lat="47.410477017983794" lon="10.273060016334057">
        <ele>801.88</ele>
        <time>2018-09-16T15:32:48Z</time>
      </trkpt>
      <trkpt lat="47.41044701077044" lon="10.273161018267274">
        <ele>801.88</ele>
        <time>2018-09-16T15:32:49Z</time>
      </trkpt>
      <trkpt lat="47.410419015213847" lon="10.273268977180123">
        <ele>802.36000000000001</ele>
        <time>2018-09-16T15:32:50Z</time>
      </trkpt>
      <trkpt lat="47.410390013828874" lon="10.273379031568766">
        <ele>802.36000000000001</ele>
        <time>2018-09-16T15:32:51Z</time>
      </trkpt>
      <trkpt lat="47.410363024100661" lon="10.273483972996473">
        <ele>802.84000000000003</ele>
        <time>2018-09-16T15:32:52Z</time>
      </trkpt>
      <trkpt lat="47.41033997386694" lon="10.273600984364748">
        <ele>803.32000000000005</ele>
        <time>2018-09-16T15:32:53Z</time>
      </trkpt>
      <trkpt lat="47.410328993573785" lon="10.273961992934346">
        <ele>805.24000000000001</ele>
        <time>2018-09-16T15:32:56Z</time>
      </trkpt>
      <trkpt lat="47.410325976088643" lon="10.274082021787763">
        <ele>806.20000000000005</ele>
        <time>2018-09-16T15:32:57Z</time>
      </trkpt>
      <trkpt lat="47.410329999402165" lon="10.274510001763701">
        <ele>808.61000000000001</ele>
        <time>2018-09-16T15:33:01Z</time>
      </trkpt>
      <trkpt lat="47.410334022715688" lon="10.274589965119958">
        <ele>809.09000000000003</ele>
        <time>2018-09-16T15:33:02Z</time>
      </trkpt>
      <trkpt lat="47.410337962210178" lon="10.274664983153343">
        <ele>809.57000000000005</ele>
        <time>2018-09-16T15:33:03Z</time>
      </trkpt>
      <trkpt lat="47.41034097969532" lon="10.274727009236813">
        <ele>809.57000000000005</ele>
        <time>2018-09-16T15:33:04Z</time>
      </trkpt>
      <trkpt lat="47.410376016050577" lon="10.274790041148663">
        <ele>810.04999999999995</ele>
        <time>2018-09-16T15:33:05Z</time>
      </trkpt>
      <trkpt lat="47.410410968586802" lon="10.274849971756339">
        <ele>810.04999999999995</ele>
        <time>2018-09-16T15:33:06Z</time>
      </trkpt>
      <trkpt lat="47.41044701077044" lon="10.27489397674799">
        <ele>810.52999999999997</ele>
        <time>2018-09-16T15:33:07Z</time>
      </trkpt>
      <trkpt lat="47.410498978570104" lon="10.274933958426118">
        <ele>811.00999999999999</ele>
        <time>2018-09-16T15:33:08Z</time>
      </trkpt>
      <trkpt lat="47.41055304184556" lon="10.274976035580039">
        <ele>811.49000000000001</ele>
        <time>2018-09-16T15:33:09Z</time>
      </trkpt>
      <trkpt lat="47.410620013251901" lon="10.275028003379703">
        <ele>811.97000000000003</ele>
        <time>2018-09-16T15:33:10Z</time>
      </trkpt>
      <trkpt lat="47.410668963566422" lon="10.27504401281476">
        <ele>811.97000000000003</ele>
        <time>2018-09-16T15:33:11Z</time>
      </trkpt>
      <trkpt lat="47.410886976867914" lon="10.275105033069849">
        <ele>812.45000000000005</ele>
        <time>2018-09-16T15:33:14Z</time>
      </trkpt>
      <trkpt lat="47.411809992045164" lon="10.275307036936283">
        <ele>813.40999999999997</ele>
        <time>2018-09-16T15:33:26Z</time>
      </trkpt>
      <trkpt lat="47.412082990631461" lon="10.275389011949301">
        <ele>812.45000000000005</ele>
        <time>2018-09-16T15:33:30Z</time>
      </trkpt>
      <trkpt lat="47.412145016714931" lon="10.275411978363991">
        <ele>811.97000000000003</ele>
        <time>2018-09-16T15:33:31Z</time>
      </trkpt>
      <trkpt lat="47.412204025313258" lon="10.275433016940951">
        <ele>811.97000000000003</ele>
        <time>2018-09-16T15:33:32Z</time>
      </trkpt>
      <trkpt lat="47.412260016426444" lon="10.2754529658705">
        <ele>811.49000000000001</ele>
        <time>2018-09-16T15:33:33Z</time>
      </trkpt>
      <trkpt lat="47.412290023639798" lon="10.275635020807385">
        <ele>811.00999999999999</ele>
        <time>2018-09-16T15:33:34Z</time>
      </trkpt>
      <trkpt lat="47.412401000037789" lon="10.275671985000372">
        <ele>811.00999999999999</ele>
        <time>2018-09-16T15:33:35Z</time>
      </trkpt>
      <trkpt lat="47.412401000037789" lon="10.275733005255461">
        <ele>811.00999999999999</ele>
        <time>2018-09-16T15:33:36Z</time>
      </trkpt>
      <trkpt lat="47.412401000037789" lon="10.275826966390014">
        <ele>810.04999999999995</ele>
        <time>2018-09-16T15:33:37Z</time>
      </trkpt>
      <trkpt lat="47.412401000037789" lon="10.275929979979992">
        <ele>809.57000000000005</ele>
        <time>2018-09-16T15:33:38Z</time>
      </trkpt>
      <trkpt lat="47.412401000037789" lon="10.276030981913209">
        <ele>809.09000000000003</ele>
        <time>2018-09-16T15:33:39Z</time>
      </trkpt>
      <trkpt lat="47.412401000037789" lon="10.276131983846426">
        <ele>808.61000000000001</ele>
        <time>2018-09-16T15:33:40Z</time>
      </trkpt>
      <trkpt lat="47.412385996431112" lon="10.276242038235068">
        <ele>808.13</ele>
        <time>2018-09-16T15:33:41Z</time>
      </trkpt>
      <trkpt lat="47.412331011146307" lon="10.276441024616361">
        <ele>807.63999999999999</ele>
        <time>2018-09-16T15:33:43Z</time>
      </trkpt>
      <trkpt lat="47.412303015589714" lon="10.276544038206339">
        <ele>807.15999999999997</ele>
        <time>2018-09-16T15:33:44Z</time>
      </trkpt>
      <trkpt lat="47.412137975916266" lon="10.276914015412331">
        <ele>806.67999999999995</ele>
        <time>2018-09-16T15:33:48Z</time>
      </trkpt>
      <trkpt lat="47.412093970924616" lon="10.276998002082109">
        <ele>806.20000000000005</ele>
        <time>2018-09-16T15:33:49Z</time>
      </trkpt>
      <trkpt lat="47.412052983418107" lon="10.277076959609985">
        <ele>806.20000000000005</ele>
        <time>2018-09-16T15:33:50Z</time>
      </trkpt>
      <trkpt lat="47.412035968154669" lon="10.277108978480101">
        <ele>806.20000000000005</ele>
        <time>2018-09-16T15:33:51Z</time>
      </trkpt>
      <trkpt lat="47.411962039768696" lon="10.27719397097826">
        <ele>806.20000000000005</ele>
        <time>2018-09-16T15:33:52Z</time>
      </trkpt>
      <trkpt lat="47.411909988150001" lon="10.277253985404968">
        <ele>805.72000000000003</ele>
        <time>2018-09-16T15:33:53Z</time>
      </trkpt>
      <trkpt lat="47.41184301674366" lon="10.277298996224999">
        <ele>805.24000000000001</ele>
        <time>2018-09-16T15:33:54Z</time>
      </trkpt>
      <trkpt lat="47.411778979003429" lon="10.277324980124831">
        <ele>805.24000000000001</ele>
        <time>2018-09-16T15:33:55Z</time>
      </trkpt>
      <trkpt lat="47.411719970405102" lon="10.277349958196282">
        <ele>804.75999999999999</ele>
        <time>2018-09-16T15:33:56Z</time>
      </trkpt>
      <trkpt lat="47.411660961806774" lon="10.277375020086765">
        <ele>804.75999999999999</ele>
        <time>2018-09-16T15:33:57Z</time>
      </trkpt>
      <trkpt lat="47.411265000700951" lon="10.277425982058048">
        <ele>803.32000000000005</ele>
        <time>2018-09-16T15:34:06Z</time>
      </trkpt>
      <trkpt lat="47.41100599989295" lon="10.277388012036681">
        <ele>805.24000000000001</ele>
        <time>2018-09-16T15:34:15Z</time>
      </trkpt>
      <trkpt lat="47.410995019599795" lon="10.277377031743526">
        <ele>805.24000000000001</ele>
        <time>2018-09-16T15:34:16Z</time>
      </trkpt>
      <trkpt lat="47.410863004624844" lon="10.277234958484769">
        <ele>804.75999999999999</ele>
        <time>2018-09-16T15:34:21Z</time>
      </trkpt>
      <trkpt lat="47.410839032381773" lon="10.277204029262066">
        <ele>804.75999999999999</ele>
        <time>2018-09-16T15:34:22Z</time>
      </trkpt>
      <trkpt lat="47.41081397049129" lon="10.277173016220331">
        <ele>804.75999999999999</ele>
        <time>2018-09-16T15:34:23Z</time>
      </trkpt>
      <trkpt lat="47.410785974934697" lon="10.277136974036694">
        <ele>804.27999999999997</ele>
        <time>2018-09-16T15:34:24Z</time>
      </trkpt>
      <trkpt lat="47.410759991034865" lon="10.27710503898561">
        <ele>804.27999999999997</ele>
        <time>2018-09-16T15:34:25Z</time>
      </trkpt>
      <trkpt lat="47.410738030448556" lon="10.277076037600636">
        <ele>803.32000000000005</ele>
        <time>2018-09-16T15:34:26Z</time>
      </trkpt>
      <trkpt lat="47.410663012415171" lon="10.276980986818671">
        <ele>802.36000000000001</ele>
        <time>2018-09-16T15:34:29Z</time>
      </trkpt>
      <trkpt lat="47.4106390401721" lon="10.276985010132194">
        <ele>802.84000000000003</ele>
        <time>2018-09-16T15:34:30Z</time>
      </trkpt>
      <trkpt lat="47.41055496968329" lon="10.277002025395632">
        <ele>802.84000000000003</ele>
        <time>2018-09-16T15:34:31Z</time>
      </trkpt>
      <trkpt lat="47.410550024360418" lon="10.277009988203645">
        <ele>802.36000000000001</ele>
        <time>2018-09-16T15:34:32Z</time>
      </trkpt>
      <trkpt lat="47.410528985783458" lon="10.277045024558902">
        <ele>802.36000000000001</ele>
        <time>2018-09-16T15:34:33Z</time>
      </trkpt>
      <trkpt lat="47.410508031025529" lon="10.277077965438366">
        <ele>802.36000000000001</ele>
        <time>2018-09-16T15:34:34Z</time>
      </trkpt>
      <trkpt lat="47.410483974963427" lon="10.277116019278765">
        <ele>802.36000000000001</ele>
        <time>2018-09-16T15:34:35Z</time>
      </trkpt>
      <trkpt lat="47.410463020205498" lon="10.277148960158229">
        <ele>801.88</ele>
        <time>2018-09-16T15:34:36Z</time>
      </trkpt>
      <trkpt lat="47.410440975800157" lon="10.277187013998628">
        <ele>801.88</ele>
        <time>2018-09-16T15:34:37Z</time>
      </trkpt>
      <trkpt lat="47.410423038527369" lon="10.277224984019995">
        <ele>801.88</ele>
        <time>2018-09-16T15:34:38Z</time>
      </trkpt>
      <trkpt lat="47.410405017435551" lon="10.277260020375252">
        <ele>802.36000000000001</ele>
        <time>2018-09-16T15:34:39Z</time>
      </trkpt>
      <trkpt lat="47.410384984686971" lon="10.27730000205338">
        <ele>802.84000000000003</ele>
        <time>2018-09-16T15:34:40Z</time>
      </trkpt>
      <trkpt lat="47.41038397885859" lon="10.277337972074747">
        <ele>803.32000000000005</ele>
        <time>2018-09-16T15:34:41Z</time>
      </trkpt>
      <trkpt lat="47.41038397885859" lon="10.277337972074747">
        <ele>803.79999999999995</ele>
        <time>2018-09-16T15:34:42Z</time>
      </trkpt>
      <trkpt lat="47.41038397885859" lon="10.277337972074747">
        <ele>804.27999999999997</ele>
        <time>2018-09-16T15:34:43Z</time>
      </trkpt>
      <trkpt lat="47.41038397885859" lon="10.277398992329836">
        <ele>804.27999999999997</ele>
        <time>2018-09-16T15:34:44Z</time>
      </trkpt>
      <trkpt lat="47.41038397885859" lon="10.277420030906796">
        <ele>804.27999999999997</ele>
        <time>2018-09-16T15:34:45Z</time>
      </trkpt>
      <trkpt lat="47.41038397885859" lon="10.277450960129499">
        <ele>804.27999999999997</ele>
        <time>2018-09-16T15:34:46Z</time>
      </trkpt>
      <trkpt lat="47.41038397885859" lon="10.277452971786261">
        <ele>804.27999999999997</ele>
        <time>2018-09-16T15:34:47Z</time>
      </trkpt>
      <trkpt lat="47.410408034920692" lon="10.277491025626659">
        <ele>804.27999999999997</ele>
        <time>2018-09-16T15:34:48Z</time>
      </trkpt>
      <trkpt lat="47.410435024648905" lon="10.277534024789929">
        <ele>803.79999999999995</ele>
        <time>2018-09-16T15:34:49Z</time>
      </trkpt>
      <trkpt lat="47.410465031862259" lon="10.277582975104451">
        <ele>803.79999999999995</ele>
        <time>2018-09-16T15:34:50Z</time>
      </trkpt>
      <trkpt lat="47.410668041557074" lon="10.277909031137824">
        <ele>804.27999999999997</ele>
        <time>2018-09-16T15:34:56Z</time>
      </trkpt>
      <trkpt lat="47.410701988264918" lon="10.277964016422629">
        <ele>804.27999999999997</ele>
        <time>2018-09-16T15:34:57Z</time>
      </trkpt>
      <trkpt lat="47.410735012963414" lon="10.278017995879054">
        <ele>804.27999999999997</ele>
        <time>2018-09-16T15:34:58Z</time>
      </trkpt>
      <trkpt lat="47.410931987687945" lon="10.278332987800241">
        <ele>804.75999999999999</ele>
        <time>2018-09-16T15:35:04Z</time>
      </trkpt>
      <trkpt lat="47.410961994901299" lon="10.278381016105413">
        <ele>804.75999999999999</ele>
        <time>2018-09-16T15:35:05Z</time>
      </trkpt>
      <trkpt lat="47.411350999027491" lon="10.278922989964485">
        <ele>809.09000000000003</ele>
        <time>2018-09-16T15:35:16Z</time>
      </trkpt>
      <trkpt lat="47.411374971270561" lon="10.278957020491362">
        <ele>809.09000000000003</ele>
        <time>2018-09-16T15:35:17Z</time>
      </trkpt>
      <trkpt lat="47.411401038989425" lon="10.278991973027587">
        <ele>809.09000000000003</ele>
        <time>2018-09-16T15:35:18Z</time>
      </trkpt>
      <trkpt lat="47.411429034546018" lon="10.279031032696366">
        <ele>809.09000000000003</ele>
        <time>2018-09-16T15:35:19Z</time>
      </trkpt>
      <trkpt lat="47.411459041759372" lon="10.279072020202875">
        <ele>809.09000000000003</ele>
        <time>2018-09-16T15:35:20Z</time>
      </trkpt>
      <trkpt lat="47.411487037315965" lon="10.279110996052623">
        <ele>809.09000000000003</ele>
        <time>2018-09-16T15:35:21Z</time>
      </trkpt>
      <trkpt lat="47.411508997902274" lon="10.279141003265977">
        <ele>809.09000000000003</ele>
        <time>2018-09-16T15:35:22Z</time>
      </trkpt>
      <trkpt lat="47.411524001508951" lon="10.279162041842937">
        <ele>809.09000000000003</ele>
        <time>2018-09-16T15:35:23Z</time>
      </trkpt>
      <trkpt lat="47.411535987630486" lon="10.279178973287344">
        <ele>809.57000000000005</ele>
        <time>2018-09-16T15:35:24Z</time>
      </trkpt>
      <trkpt lat="47.411573035642505" lon="10.279230019077659">
        <ele>809.09000000000003</ele>
        <time>2018-09-16T15:35:36Z</time>
      </trkpt>
      <trkpt lat="47.411559959873557" lon="10.27921199798584">
        <ele>809.09000000000003</ele>
        <time>2018-09-16T15:35:37Z</time>
      </trkpt>
      <trkpt lat="47.411534981802106" lon="10.279176961630583">
        <ele>809.09000000000003</ele>
        <time>2018-09-16T15:35:38Z</time>
      </trkpt>
      <trkpt lat="47.411497011780739" lon="10.279124993830919">
        <ele>809.09000000000003</ele>
        <time>2018-09-16T15:35:39Z</time>
      </trkpt>
      <trkpt lat="47.411448983475566" lon="10.279058022424579">
        <ele>808.61000000000001</ele>
        <time>2018-09-16T15:35:40Z</time>
      </trkpt>
      <trkpt lat="47.41139299236238" lon="10.278981998562813">
        <ele>808.61000000000001</ele>
        <time>2018-09-16T15:35:41Z</time>
      </trkpt>
      <trkpt lat="47.41102603264153" lon="10.278474977239966">
        <ele>808.13</ele>
        <time>2018-09-16T15:35:47Z</time>
      </trkpt>
      <trkpt lat="47.410715986043215" lon="10.277985977008939">
        <ele>805.72000000000003</ele>
        <time>2018-09-16T15:35:53Z</time>
      </trkpt>
      <trkpt lat="47.410602997988462" lon="10.277805011719465">
        <ele>804.75999999999999</ele>
        <time>2018-09-16T15:35:56Z</time>
      </trkpt>
      <trkpt lat="47.410570979118347" lon="10.27775296010077">
        <ele>804.27999999999997</ele>
        <time>2018-09-16T15:35:57Z</time>
      </trkpt>
      <trkpt lat="47.410507025197148" lon="10.277651036158204">
        <ele>804.27999999999997</ele>
        <time>2018-09-16T15:35:59Z</time>
      </trkpt>
      <trkpt lat="47.410475006327033" lon="10.277598984539509">
        <ele>804.27999999999997</ele>
        <time>2018-09-16T15:36:00Z</time>
      </trkpt>
      <trkpt lat="47.410441981628537" lon="10.277546010911465">
        <ele>803.79999999999995</ele>
        <time>2018-09-16T15:36:01Z</time>
      </trkpt>
      <trkpt lat="47.410407029092312" lon="10.277491025626659">
        <ele>803.32000000000005</ele>
        <time>2018-09-16T15:36:02Z</time>
      </trkpt>
      <trkpt lat="47.41038397885859" lon="10.277436962351203">
        <ele>802.84000000000003</ele>
        <time>2018-09-16T15:36:03Z</time>
      </trkpt>
      <trkpt lat="47.41038397885859" lon="10.277377031743526">
        <ele>802.36000000000001</ele>
        <time>2018-09-16T15:36:04Z</time>
      </trkpt>
      <trkpt lat="47.410386996343732" lon="10.277295978739858">
        <ele>801.88</ele>
        <time>2018-09-16T15:36:05Z</time>
      </trkpt>
      <trkpt lat="47.410415997728705" lon="10.277237975969911">
        <ele>801.39999999999998</ele>
        <time>2018-09-16T15:36:06Z</time>
      </trkpt>
      <trkpt lat="47.410448016598821" lon="10.277174022048712">
        <ele>800.91999999999996</ele>
        <time>2018-09-16T15:36:07Z</time>
      </trkpt>
      <trkpt lat="47.410620013251901" lon="10.276989033445716">
        <ele>801.39999999999998</ele>
        <time>2018-09-16T15:36:13Z</time>
      </trkpt>
      <trkpt lat="47.41077097132802" lon="10.277119036763906">
        <ele>803.79999999999995</ele>
        <time>2018-09-16T15:36:18Z</time>
      </trkpt>
      <trkpt lat="47.410873984917998" lon="10.277249040082097">
        <ele>804.27999999999997</ele>
        <time>2018-09-16T15:36:21Z</time>
      </trkpt>
      <trkpt lat="47.41089896298945" lon="10.277280975133181">
        <ele>804.27999999999997</ele>
        <time>2018-09-16T15:36:22Z</time>
      </trkpt>
      <trkpt lat="47.410984961315989" lon="10.277366973459721">
        <ele>804.75999999999999</ele>
        <time>2018-09-16T15:36:24Z</time>
      </trkpt>
      <trkpt lat="47.41100599989295" lon="10.277388012036681">
        <ele>804.75999999999999</ele>
        <time>2018-09-16T15:36:25Z</time>
      </trkpt>
      <trkpt lat="47.411030977964401" lon="10.277393041178584">
        <ele>804.75999999999999</ele>
        <time>2018-09-16T15:36:26Z</time>
      </trkpt>
      <trkpt lat="47.411059979349375" lon="10.277398992329836">
        <ele>804.75999999999999</ele>
        <time>2018-09-16T15:36:27Z</time>
      </trkpt>
      <trkpt lat="47.411085963249207" lon="10.277404021471739">
        <ele>804.75999999999999</ele>
        <time>2018-09-16T15:36:28Z</time>
      </trkpt>
      <trkpt lat="47.411111025139689" lon="10.27740896679461">
        <ele>804.75999999999999</ele>
        <time>2018-09-16T15:36:29Z</time>
      </trkpt>
      <trkpt lat="47.411138014867902" lon="10.277413995936513">
        <ele>804.75999999999999</ele>
        <time>2018-09-16T15:36:30Z</time>
      </trkpt>
      <trkpt lat="47.411228036507964" lon="10.277430005371571">
        <ele>805.24000000000001</ele>
        <time>2018-09-16T15:36:33Z</time>
      </trkpt>
      <trkpt lat="47.411273969337344" lon="10.277425982058048">
        <ele>805.24000000000001</ele>
        <time>2018-09-16T15:36:34Z</time>
      </trkpt>
      <trkpt lat="47.41132702678442" lon="10.277420030906796">
        <ele>804.75999999999999</ele>
        <time>2018-09-16T15:36:35Z</time>
      </trkpt>
      <trkpt lat="47.41167102009058" lon="10.277369990944862">
        <ele>804.75999999999999</ele>
        <time>2018-09-16T15:36:40Z</time>
      </trkpt>
      <trkpt lat="47.411738997325301" lon="10.277341995388269">
        <ele>804.75999999999999</ele>
        <time>2018-09-16T15:36:41Z</time>
      </trkpt>
      <trkpt lat="47.411804040893912" lon="10.277315005660057">
        <ele>804.75999999999999</ele>
        <time>2018-09-16T15:36:42Z</time>
      </trkpt>
      <trkpt lat="47.41188601590693" lon="10.277280975133181">
        <ele>804.75999999999999</ele>
        <time>2018-09-16T15:36:43Z</time>
      </trkpt>
      <trkpt lat="47.411921974271536" lon="10.277239987626672">
        <ele>804.75999999999999</ele>
        <time>2018-09-16T15:36:44Z</time>
      </trkpt>
      <trkpt lat="47.411976037546992" lon="10.277177039533854">
        <ele>804.75999999999999</ele>
        <time>2018-09-16T15:36:45Z</time>
      </trkpt>
      <trkpt lat="47.412129007279873" lon="10.276932036504149">
        <ele>804.27999999999997</ele>
        <time>2018-09-16T15:36:48Z</time>
      </trkpt>
      <trkpt lat="47.412178041413426" lon="10.276838997378945">
        <ele>804.27999999999997</ele>
        <time>2018-09-16T15:36:49Z</time>
      </trkpt>
      <trkpt lat="47.412227997556329" lon="10.276743024587631">
        <ele>803.79999999999995</ele>
        <time>2018-09-16T15:36:50Z</time>
      </trkpt>
      <trkpt lat="47.412272002547979" lon="10.276659037917852">
        <ele>803.79999999999995</ele>
        <time>2018-09-16T15:36:51Z</time>
      </trkpt>
      <trkpt lat="47.412303015589714" lon="10.276543032377958">
        <ele>802.84000000000003</ele>
        <time>2018-09-16T15:36:52Z</time>
      </trkpt>
      <trkpt lat="47.412334028631449" lon="10.276431972160935">
        <ele>802.84000000000003</ele>
        <time>2018-09-16T15:36:53Z</time>
      </trkpt>
      <trkpt lat="47.412364035844803" lon="10.276323007419705">
        <ele>802.84000000000003</ele>
        <time>2018-09-16T15:36:54Z</time>
      </trkpt>
      <trkpt lat="47.412401000037789" lon="10.276067024096847">
        <ele>802.84000000000003</ele>
        <time>2018-09-16T15:36:57Z</time>
      </trkpt>
      <trkpt lat="47.412401000037789" lon="10.275995023548603">
        <ele>802.36000000000001</ele>
        <time>2018-09-16T15:36:58Z</time>
      </trkpt>
      <trkpt lat="47.412401000037789" lon="10.275858985260129">
        <ele>802.36000000000001</ele>
        <time>2018-09-16T15:37:00Z</time>
      </trkpt>
      <trkpt lat="47.412401000037789" lon="10.27579695917666">
        <ele>802.36000000000001</ele>
        <time>2018-09-16T15:37:01Z</time>
      </trkpt>
      <trkpt lat="47.412401000037789" lon="10.275739962235093">
        <ele>801.88</ele>
        <time>2018-09-16T15:37:02Z</time>
      </trkpt>
      <trkpt lat="47.412401000037789" lon="10.275700986385345">
        <ele>801.88</ele>
        <time>2018-09-16T15:37:03Z</time>
      </trkpt>
      <trkpt lat="47.412414997816086" lon="10.275643989443779">
        <ele>801.88</ele>
        <time>2018-09-16T15:37:04Z</time>
      </trkpt>
      <trkpt lat="47.412414997816086" lon="10.275643989443779">
        <ele>801.88</ele>
        <time>2018-09-16T15:37:08Z</time>
      </trkpt>
      <trkpt lat="47.412443999201059" lon="10.275585986673832">
        <ele>801.88</ele>
        <time>2018-09-16T15:37:09Z</time>
      </trkpt>
      <trkpt lat="47.412514993920922" lon="10.275421030819416">
        <ele>803.32000000000005</ele>
        <time>2018-09-16T15:37:18Z</time>
      </trkpt>
      <trkpt lat="47.412576014176011" lon="10.275413990020752">
        <ele>802.84000000000003</ele>
        <time>2018-09-16T15:37:19Z</time>
      </trkpt>
      <trkpt lat="47.4126370344311" lon="10.275413990020752">
        <ele>802.84000000000003</ele>
        <time>2018-09-16T15:37:20Z</time>
      </trkpt>
      <trkpt lat="47.413366008549929" lon="10.275400998070836">
        <ele>802.84000000000003</ele>
        <time>2018-09-16T15:37:31Z</time>
      </trkpt>
      <trkpt lat="47.413474973291159" lon="10.275392029434443">
        <ele>802.84000000000003</ele>
        <time>2018-09-16T15:37:33Z</time>
      </trkpt>
      <trkpt lat="47.413521995767951" lon="10.27538800612092">
        <ele>802.84000000000003</ele>
        <time>2018-09-16T15:37:34Z</time>
      </trkpt>
      <trkpt lat="47.414168994873762" lon="10.275188013911247">
        <ele>803.32000000000005</ele>
        <time>2018-09-16T15:37:44Z</time>
      </trkpt>
      <trkpt lat="47.415181025862694" lon="10.274876961484551">
        <ele>805.72000000000003</ele>
        <time>2018-09-16T15:37:56Z</time>
      </trkpt>
      <trkpt lat="47.416038997471333" lon="10.274607986211777">
        <ele>803.32000000000005</ele>
        <time>2018-09-16T15:38:08Z</time>
      </trkpt>
      <trkpt lat="47.417038958519697" lon="10.274336999282241">
        <ele>800.91999999999996</ele>
        <time>2018-09-16T15:38:21Z</time>
      </trkpt>
      <trkpt lat="47.417488982900977" lon="10.274259969592094">
        <ele>798.99000000000001</ele>
        <time>2018-09-16T15:38:28Z</time>
      </trkpt>
      <trkpt lat="47.417534999549389" lon="10.274252006784081">
        <ele>799.47000000000003</ele>
        <time>2018-09-16T15:38:29Z</time>
      </trkpt>
      <trkpt lat="47.417575987055898" lon="10.274244965985417">
        <ele>799.47000000000003</ele>
        <time>2018-09-16T15:38:30Z</time>
      </trkpt>
      <trkpt lat="47.417612029239535" lon="10.274239014834166">
        <ele>799.47000000000003</ele>
        <time>2018-09-16T15:38:31Z</time>
      </trkpt>
      <trkpt lat="47.417651005089283" lon="10.274231974035501">
        <ele>798.99000000000001</ele>
        <time>2018-09-16T15:38:32Z</time>
      </trkpt>
      <trkpt lat="47.417690986767411" lon="10.274225017055869">
        <ele>798.99000000000001</ele>
        <time>2018-09-16T15:38:33Z</time>
      </trkpt>
      <trkpt lat="47.417764998972416" lon="10.274212025105953">
        <ele>798.50999999999999</ele>
        <time>2018-09-16T15:38:34Z</time>
      </trkpt>
      <trkpt lat="47.417829958721995" lon="10.274233985692263">
        <ele>798.50999999999999</ele>
        <time>2018-09-16T15:38:35Z</time>
      </trkpt>
      <trkpt lat="47.417848985642195" lon="10.27422996237874">
        <ele>798.99000000000001</ele>
        <time>2018-09-16T15:38:36Z</time>
      </trkpt>
      <trkpt lat="47.417917968705297" lon="10.274215964600444">
        <ele>798.99000000000001</ele>
        <time>2018-09-16T15:38:37Z</time>
      </trkpt>
      <trkpt lat="47.417956022545695" lon="10.274142036214471">
        <ele>798.99000000000001</ele>
        <time>2018-09-16T15:38:38Z</time>
      </trkpt>
      <trkpt lat="47.418015031144023" lon="10.27397196739912">
        <ele>798.50999999999999</ele>
        <time>2018-09-16T15:38:39Z</time>
      </trkpt>
      <trkpt lat="47.418083008378744" lon="10.27394799515605">
        <ele>798.50999999999999</ele>
        <time>2018-09-16T15:38:40Z</time>
      </trkpt>
      <trkpt lat="47.418160038068891" lon="10.273919999599457">
        <ele>798.02999999999997</ele>
        <time>2018-09-16T15:38:41Z</time>
      </trkpt>
      <trkpt lat="47.418244024738669" lon="10.273889992386103">
        <ele>798.02999999999997</ele>
        <time>2018-09-16T15:38:42Z</time>
      </trkpt>
      <trkpt lat="47.418336980044842" lon="10.273856967687607">
        <ele>798.02999999999997</ele>
        <time>2018-09-16T15:38:43Z</time>
      </trkpt>
      <trkpt lat="47.419467028230429" lon="10.273424964398146">
        <ele>796.11000000000001</ele>
        <time>2018-09-16T15:38:52Z</time>
      </trkpt>
      <trkpt lat="47.420734958723187" lon="10.272511001676321">
        <ele>794.19000000000005</ele>
        <time>2018-09-16T15:39:01Z</time>
      </trkpt>
      <trkpt lat="47.422037003561854" lon="10.270955990999937">
        <ele>793.22000000000003</ele>
        <time>2018-09-16T15:39:13Z</time>
      </trkpt>
      <trkpt lat="47.423447007313371" lon="10.269132005050778">
        <ele>791.29999999999995</ele>
        <time>2018-09-16T15:39:28Z</time>
      </trkpt>
      <trkpt lat="47.423678012564778" lon="10.268859006464481">
        <ele>791.29999999999995</ele>
        <time>2018-09-16T15:39:31Z</time>
      </trkpt>
      <trkpt lat="47.424045978114009" lon="10.268391966819763">
        <ele>792.25999999999999</ele>
        <time>2018-09-16T15:39:39Z</time>
      </trkpt>
      <trkpt lat="47.424148991703987" lon="10.268262969329953">
        <ele>793.71000000000004</ele>
        <time>2018-09-16T15:39:48Z</time>
      </trkpt>
      <trkpt lat="47.424271032214165" lon="10.268154004588723">
        <ele>793.71000000000004</ele>
        <time>2018-09-16T15:39:52Z</time>
      </trkpt>
      <trkpt lat="47.424310008063912" lon="10.268176971003413">
        <ele>794.19000000000005</ele>
        <time>2018-09-16T15:39:53Z</time>
      </trkpt>
      <trkpt lat="47.424354013055563" lon="10.268202032893896">
        <ele>794.19000000000005</ele>
        <time>2018-09-16T15:39:54Z</time>
      </trkpt>
      <trkpt lat="47.424410004168749" lon="10.268218964338303">
        <ele>794.19000000000005</ele>
        <time>2018-09-16T15:39:55Z</time>
      </trkpt>
      <trkpt lat="47.42445501498878" lon="10.268195997923613">
        <ele>794.19000000000005</ele>
        <time>2018-09-16T15:39:56Z</time>
      </trkpt>
      <trkpt lat="47.424480998888612" lon="10.268183005973697">
        <ele>794.19000000000005</ele>
        <time>2018-09-16T15:39:57Z</time>
      </trkpt>
      <trkpt lat="47.424505976960063" lon="10.268108993768692">
        <ele>794.19000000000005</ele>
        <time>2018-09-16T15:39:58Z</time>
      </trkpt>
      <trkpt lat="47.424526009708643" lon="10.268047973513603">
        <ele>794.19000000000005</ele>
        <time>2018-09-16T15:39:59Z</time>
      </trkpt>
      <trkpt lat="47.424548976123333" lon="10.267981002107263">
        <ele>794.19000000000005</ele>
        <time>2018-09-16T15:40:00Z</time>
      </trkpt>
      <trkpt lat="47.424566997215152" lon="10.267925010994077">
        <ele>794.19000000000005</ele>
        <time>2018-09-16T15:40:01Z</time>
      </trkpt>
      <trkpt lat="47.424636986106634" lon="10.267723007127643">
        <ele>794.19000000000005</ele>
        <time>2018-09-16T15:40:03Z</time>
      </trkpt>
      <trkpt lat="47.424698006361723" lon="10.267671961337328">
        <ele>794.19000000000005</ele>
        <time>2018-09-16T15:40:04Z</time>
      </trkpt>
      <trkpt lat="47.424767995253205" lon="10.267613036558032">
        <ele>794.19000000000005</ele>
        <time>2018-09-16T15:40:05Z</time>
      </trkpt>
      <trkpt lat="47.424847036600113" lon="10.26754598133266">
        <ele>794.19000000000005</ele>
        <time>2018-09-16T15:40:06Z</time>
      </trkpt>
      <trkpt lat="47.424933034926653" lon="10.267473980784416">
        <ele>794.19000000000005</ele>
        <time>2018-09-16T15:40:07Z</time>
      </trkpt>
      <trkpt lat="47.42589402012527" lon="10.266957990825176">
        <ele>793.22000000000003</ele>
        <time>2018-09-16T15:40:17Z</time>
      </trkpt>
      <trkpt lat="47.426166012883186" lon="10.266865035519004">
        <ele>792.74000000000001</ele>
        <time>2018-09-16T15:40:25Z</time>
      </trkpt>
      <trkpt lat="47.426187973469496" lon="10.266856988891959">
        <ele>792.74000000000001</ele>
        <time>2018-09-16T15:40:28Z</time>
      </trkpt>
      <trkpt lat="47.42621898651123" lon="10.266847014427185">
        <ele>792.74000000000001</ele>
        <time>2018-09-16T15:40:29Z</time>
      </trkpt>
      <trkpt lat="47.4262619856745" lon="10.266832010820508">
        <ele>792.74000000000001</ele>
        <time>2018-09-16T15:40:30Z</time>
      </trkpt>
      <trkpt lat="47.426315965130925" lon="10.266748024150729">
        <ele>792.74000000000001</ele>
        <time>2018-09-16T15:40:31Z</time>
      </trkpt>
      <trkpt lat="47.42630397900939" lon="10.266684992238879">
        <ele>793.22000000000003</ele>
        <time>2018-09-16T15:40:32Z</time>
      </trkpt>
      <trkpt lat="47.426288975402713" lon="10.2666010055691">
        <ele>793.22000000000003</ele>
        <time>2018-09-16T15:40:33Z</time>
      </trkpt>
      <trkpt lat="47.426263997331262" lon="10.26651400141418">
        <ele>792.74000000000001</ele>
        <time>2018-09-16T15:40:34Z</time>
      </trkpt>
      <trkpt lat="47.426230972632766" lon="10.266414005309343">
        <ele>792.25999999999999</ele>
        <time>2018-09-16T15:40:35Z</time>
      </trkpt>
      <trkpt lat="47.426194008439779" lon="10.266323983669281">
        <ele>792.25999999999999</ele>
        <time>2018-09-16T15:40:36Z</time>
      </trkpt>
      <trkpt lat="47.426151009276509" lon="10.26623304001987">
        <ele>791.77999999999997</ele>
        <time>2018-09-16T15:40:37Z</time>
      </trkpt>
      <trkpt lat="47.426108010113239" lon="10.266140000894666">
        <ele>791.77999999999997</ele>
        <time>2018-09-16T15:40:38Z</time>
      </trkpt>
      <trkpt lat="47.425998961552978" lon="10.265904972329736">
        <ele>791.77999999999997</ele>
        <time>2018-09-16T15:40:41Z</time>
      </trkpt>
      <trkpt lat="47.425975995138288" lon="10.265857027843595">
        <ele>791.77999999999997</ele>
        <time>2018-09-16T15:40:42Z</time>
      </trkpt>
      <trkpt lat="47.425961997359991" lon="10.26582601480186">
        <ele>791.29999999999995</ele>
        <time>2018-09-16T15:40:43Z</time>
      </trkpt>
      <trkpt lat="47.425961997359991" lon="10.26582601480186">
        <ele>791.29999999999995</ele>
        <time>2018-09-16T15:40:44Z</time>
      </trkpt>
      <trkpt lat="47.425940958783031" lon="10.265779998153448">
        <ele>791.29999999999995</ele>
        <time>2018-09-16T15:40:48Z</time>
      </trkpt>
      <trkpt lat="47.425929978489876" lon="10.265750996768475">
        <ele>791.29999999999995</ele>
        <time>2018-09-16T15:40:49Z</time>
      </trkpt>
      <trkpt lat="47.425907012075186" lon="10.265684025362134">
        <ele>791.29999999999995</ele>
        <time>2018-09-16T15:40:50Z</time>
      </trkpt>
      <trkpt lat="47.42587398737669" lon="10.265589980408549">
        <ele>791.29999999999995</ele>
        <time>2018-09-16T15:40:51Z</time>
      </trkpt>
      <trkpt lat="47.425837023183703" lon="10.26548302732408">
        <ele>791.29999999999995</ele>
        <time>2018-09-16T15:40:52Z</time>
      </trkpt>
      <trkpt lat="47.425758987665176" lon="10.265237018465996">
        <ele>791.29999999999995</ele>
        <time>2018-09-16T15:40:54Z</time>
      </trkpt>
      <trkpt lat="47.425576010718942" lon="10.264403019100428">
        <ele>792.25999999999999</ele>
        <time>2018-09-16T15:40:59Z</time>
      </trkpt>
      <trkpt lat="47.42540099658072" lon="10.262392032891512">
        <ele>792.25999999999999</ele>
        <time>2018-09-16T15:41:07Z</time>
      </trkpt>
      <trkpt lat="47.425180971622467" lon="10.261282017454505">
        <ele>792.25999999999999</ele>
        <time>2018-09-16T15:41:11Z</time>
      </trkpt>
      <trkpt lat="47.425095979124308" lon="10.261013964191079">
        <ele>791.77999999999997</ele>
        <time>2018-09-16T15:41:12Z</time>
      </trkpt>
      <trkpt lat="47.424983996897936" lon="10.260763010010123">
        <ele>791.77999999999997</ele>
        <time>2018-09-16T15:41:13Z</time>
      </trkpt>
      <trkpt lat="47.424516035243869" lon="10.259815016761422">
        <ele>792.74000000000001</ele>
        <time>2018-09-16T15:41:17Z</time>
      </trkpt>
      <trkpt lat="47.424376979470253" lon="10.25961996987462">
        <ele>793.71000000000004</ele>
        <time>2018-09-16T15:41:18Z</time>
      </trkpt>
      <trkpt lat="47.424221998080611" lon="10.259454008191824">
        <ele>793.71000000000004</ele>
        <time>2018-09-16T15:41:19Z</time>
      </trkpt>
      <trkpt lat="47.424042960628867" lon="10.259312018752098">
        <ele>794.19000000000005</ele>
        <time>2018-09-16T15:41:20Z</time>
      </trkpt>
      <trkpt lat="47.423847997561097" lon="10.259206993505359">
        <ele>794.66999999999996</ele>
        <time>2018-09-16T15:41:21Z</time>
      </trkpt>
      <trkpt lat="47.423645993694663" lon="10.259099034592509">
        <ele>795.14999999999998</ele>
        <time>2018-09-16T15:41:22Z</time>
      </trkpt>
      <trkpt lat="47.423433009535074" lon="10.259007001295686">
        <ele>795.63</ele>
        <time>2018-09-16T15:41:23Z</time>
      </trkpt>
      <trkpt lat="47.421904988586903" lon="10.258166966959834">
        <ele>796.59000000000003</ele>
        <time>2018-09-16T15:41:30Z</time>
      </trkpt>
      <trkpt lat="47.419526958838105" lon="10.256310040131211">
        <ele>797.54999999999995</ele>
        <time>2018-09-16T15:41:41Z</time>
      </trkpt>
      <trkpt lat="47.417562995105982" lon="10.25463298894465">
        <ele>798.50999999999999</ele>
        <time>2018-09-16T15:41:51Z</time>
      </trkpt>
      <trkpt lat="47.416800996288657" lon="10.253789015114307">
        <ele>799.95000000000005</ele>
        <time>2018-09-16T15:41:57Z</time>
      </trkpt>
      <trkpt lat="47.416693959385157" lon="10.253672003746033">
        <ele>800.44000000000005</ele>
        <time>2018-09-16T15:41:58Z</time>
      </trkpt>
      <trkpt lat="47.416564039885998" lon="10.253526996821165">
        <ele>800.44000000000005</ele>
        <time>2018-09-16T15:41:59Z</time>
      </trkpt>
      <trkpt lat="47.416199008002877" lon="10.253247963264585">
        <ele>801.88</ele>
        <time>2018-09-16T15:42:03Z</time>
      </trkpt>
      <trkpt lat="47.41605500690639" lon="10.253206975758076">
        <ele>802.36000000000001</ele>
        <time>2018-09-16T15:42:04Z</time>
      </trkpt>
      <trkpt lat="47.415935983881354" lon="10.25317202322185">
        <ele>802.84000000000003</ele>
        <time>2018-09-16T15:42:05Z</time>
      </trkpt>
      <trkpt lat="47.415318991988897" lon="10.252972031012177">
        <ele>803.32000000000005</ele>
        <time>2018-09-16T15:42:11Z</time>
      </trkpt>
      <trkpt lat="47.415227964520454" lon="10.25291302241385">
        <ele>803.32000000000005</ele>
        <time>2018-09-16T15:42:12Z</time>
      </trkpt>
      <trkpt lat="47.415146995335817" lon="10.252861976623535">
        <ele>803.32000000000005</ele>
        <time>2018-09-16T15:42:13Z</time>
      </trkpt>
      <trkpt lat="47.415069965645671" lon="10.25272199884057">
        <ele>803.79999999999995</ele>
        <time>2018-09-16T15:42:14Z</time>
      </trkpt>
      <trkpt lat="47.415000982582569" lon="10.252598030492663">
        <ele>803.79999999999995</ele>
        <time>2018-09-16T15:42:15Z</time>
      </trkpt>
      <trkpt lat="47.414933005347848" lon="10.252475989982486">
        <ele>803.79999999999995</ele>
        <time>2018-09-16T15:42:16Z</time>
      </trkpt>
      <trkpt lat="47.41489696316421" lon="10.252314973622561">
        <ele>803.79999999999995</ele>
        <time>2018-09-16T15:42:17Z</time>
      </trkpt>
      <trkpt lat="47.414857987314463" lon="10.252142976969481">
        <ele>803.79999999999995</ele>
        <time>2018-09-16T15:42:18Z</time>
      </trkpt>
      <trkpt lat="47.414576020091772" lon="10.250666001811624">
        <ele>804.75999999999999</ele>
        <time>2018-09-16T15:42:24Z</time>
      </trkpt>
      <trkpt lat="47.41427200846374" lon="10.249467976391315">
        <ele>804.75999999999999</ele>
        <time>2018-09-16T15:42:28Z</time>
      </trkpt>
      <trkpt lat="47.414188021793962" lon="10.249205958098173">
        <ele>804.75999999999999</ele>
        <time>2018-09-16T15:42:29Z</time>
      </trkpt>
      <trkpt lat="47.413723999634385" lon="10.247342996299267">
        <ele>804.27999999999997</ele>
        <time>2018-09-16T15:42:36Z</time>
      </trkpt>
      <trkpt lat="47.413689969107509" lon="10.247052982449532">
        <ele>804.27999999999997</ele>
        <time>2018-09-16T15:42:37Z</time>
      </trkpt>
      <trkpt lat="47.41384201683104" lon="10.245060017332435">
        <ele>805.72000000000003</ele>
        <time>2018-09-16T15:42:44Z</time>
      </trkpt>
      <trkpt lat="47.414216017350554" lon="10.242855995893478">
        <ele>809.57000000000005</ele>
        <time>2018-09-16T15:42:54Z</time>
      </trkpt>
      <trkpt lat="47.414306038990617" lon="10.2420639898628">
        <ele>809.57000000000005</ele>
        <time>2018-09-16T15:42:59Z</time>
      </trkpt>
      <trkpt lat="47.414344009011984" lon="10.241945972666144">
        <ele>810.04999999999995</ele>
        <time>2018-09-16T15:43:00Z</time>
      </trkpt>
      <trkpt lat="47.414383990690112" lon="10.24184899404645">
        <ele>809.57000000000005</ele>
        <time>2018-09-16T15:43:01Z</time>
      </trkpt>
      <trkpt lat="47.414418021216989" lon="10.241768024861813">
        <ele>809.57000000000005</ele>
        <time>2018-09-16T15:43:02Z</time>
      </trkpt>
      <trkpt lat="47.414521034806967" lon="10.241750003769994">
        <ele>809.57000000000005</ele>
        <time>2018-09-16T15:43:03Z</time>
      </trkpt>
      <trkpt lat="47.414608960971236" lon="10.241733994334936">
        <ele>809.57000000000005</ele>
        <time>2018-09-16T15:43:04Z</time>
      </trkpt>
      <trkpt lat="47.414706023409963" lon="10.241744974628091">
        <ele>809.57000000000005</ele>
        <time>2018-09-16T15:43:05Z</time>
      </trkpt>
      <trkpt lat="47.414813982322812" lon="10.241785040125251">
        <ele>810.04999999999995</ele>
        <time>2018-09-16T15:43:06Z</time>
      </trkpt>
      <trkpt lat="47.414926970377564" lon="10.24182602763176">
        <ele>810.04999999999995</ele>
        <time>2018-09-16T15:43:07Z</time>
      </trkpt>
      <trkpt lat="47.415050016716123" lon="10.24187196046114">
        <ele>810.04999999999995</ele>
        <time>2018-09-16T15:43:08Z</time>
      </trkpt>
      <trkpt lat="47.415181025862694" lon="10.241920994594693">
        <ele>810.04999999999995</ele>
        <time>2018-09-16T15:43:09Z</time>
      </trkpt>
      <trkpt lat="47.415319997817278" lon="10.241933986544609">
        <ele>810.04999999999995</ele>
        <time>2018-09-16T15:43:10Z</time>
      </trkpt>
      <trkpt lat="47.415462993085384" lon="10.241923006251454">
        <ele>810.04999999999995</ele>
        <time>2018-09-16T15:43:11Z</time>
      </trkpt>
      <trkpt lat="47.415595008060336" lon="10.24191303178668">
        <ele>810.04999999999995</ele>
        <time>2018-09-16T15:43:12Z</time>
      </trkpt>
      <trkpt lat="47.415721993893385" lon="10.241903979331255">
        <ele>810.52999999999997</ele>
        <time>2018-09-16T15:43:13Z</time>
      </trkpt>
      <trkpt lat="47.415841016918421" lon="10.241895010694861">
        <ele>811.49000000000001</ele>
        <time>2018-09-16T15:43:14Z</time>
      </trkpt>
      <trkpt lat="47.41594897583127" lon="10.241886964067817">
        <ele>812.45000000000005</ele>
        <time>2018-09-16T15:43:15Z</time>
      </trkpt>
      <trkpt lat="47.416145028546453" lon="10.241905990988016">
        <ele>814.37</ele>
        <time>2018-09-16T15:43:17Z</time>
      </trkpt>
      <trkpt lat="47.416230021044612" lon="10.24195502512157">
        <ele>815.34000000000003</ele>
        <time>2018-09-16T15:43:18Z</time>
      </trkpt>
      <trkpt lat="47.41629296913743" lon="10.242070024833083">
        <ele>816.77999999999997</ele>
        <time>2018-09-16T15:43:19Z</time>
      </trkpt>
      <trkpt lat="47.416350971907377" lon="10.242194999009371">
        <ele>817.74000000000001</ele>
        <time>2018-09-16T15:43:20Z</time>
      </trkpt>
      <trkpt lat="47.416414003819227" lon="10.242329025641084">
        <ele>819.17999999999995</ele>
        <time>2018-09-16T15:43:21Z</time>
      </trkpt>
      <trkpt lat="47.416480975225568" lon="10.242469003424048">
        <ele>820.62</ele>
        <time>2018-09-16T15:43:22Z</time>
      </trkpt>
      <trkpt lat="47.416549036279321" lon="10.242614010348916">
        <ele>821.58000000000004</ele>
        <time>2018-09-16T15:43:23Z</time>
      </trkpt>
      <trkpt lat="47.416635034605861" lon="10.242726998403668">
        <ele>822.54999999999995</ele>
        <time>2018-09-16T15:43:24Z</time>
      </trkpt>
      <trkpt lat="47.416745005175471" lon="10.242806961759925">
        <ele>823.50999999999999</ele>
        <time>2018-09-16T15:43:25Z</time>
      </trkpt>
      <trkpt lat="47.416862016543746" lon="10.242877034470439">
        <ele>824.47000000000003</ele>
        <time>2018-09-16T15:43:26Z</time>
      </trkpt>
      <trkpt lat="47.416994031518698" lon="10.2429239731282">
        <ele>825.42999999999995</ele>
        <time>2018-09-16T15:43:27Z</time>
      </trkpt>
      <trkpt lat="47.417240962386131" lon="10.242961021140218">
        <ele>826.87</ele>
        <time>2018-09-16T15:43:29Z</time>
      </trkpt>
      <trkpt lat="47.417358979582787" lon="10.242951968684793">
        <ele>827.83000000000004</ele>
        <time>2018-09-16T15:43:30Z</time>
      </trkpt>
      <trkpt lat="47.417475990951061" lon="10.242883991450071">
        <ele>828.78999999999996</ele>
        <time>2018-09-16T15:43:31Z</time>
      </trkpt>
      <trkpt lat="47.417586967349052" lon="10.242789024487138">
        <ele>829.26999999999998</ele>
        <time>2018-09-16T15:43:32Z</time>
      </trkpt>
      <trkpt lat="47.417700961232185" lon="10.242691040039062">
        <ele>830.24000000000001</ele>
        <time>2018-09-16T15:43:33Z</time>
      </trkpt>
      <trkpt lat="47.417812021449208" lon="10.242595989257097">
        <ele>831.20000000000005</ele>
        <time>2018-09-16T15:43:34Z</time>
      </trkpt>
      <trkpt lat="47.417910005897284" lon="10.242531029507518">
        <ele>832.15999999999997</ele>
        <time>2018-09-16T15:43:35Z</time>
      </trkpt>
      <trkpt lat="47.418427001684904" lon="10.241972962394357">
        <ele>836.96000000000004</ele>
        <time>2018-09-16T15:43:41Z</time>
      </trkpt>
      <trkpt lat="47.418513000011444" lon="10.241923006251454">
        <ele>837.45000000000005</ele>
        <time>2018-09-16T15:43:42Z</time>
      </trkpt>
      <trkpt lat="47.418606039136648" lon="10.241888975724578">
        <ele>838.40999999999997</ele>
        <time>2018-09-16T15:43:43Z</time>
      </trkpt>
      <trkpt lat="47.419052962213755" lon="10.241811024025083">
        <ele>843.21000000000004</ele>
        <time>2018-09-16T15:43:47Z</time>
      </trkpt>
      <trkpt lat="47.419157987460494" lon="10.241713961586356">
        <ele>844.65999999999997</ele>
        <time>2018-09-16T15:43:48Z</time>
      </trkpt>
      <trkpt lat="47.419255971908569" lon="10.241622012108564">
        <ele>845.62</ele>
        <time>2018-09-16T15:43:49Z</time>
      </trkpt>
      <trkpt lat="47.419351022690535" lon="10.241534002125263">
        <ele>846.58000000000004</ele>
        <time>2018-09-16T15:43:50Z</time>
      </trkpt>
      <trkpt lat="47.419437021017075" lon="10.241431994363666">
        <ele>847.53999999999996</ele>
        <time>2018-09-16T15:43:51Z</time>
      </trkpt>
      <trkpt lat="47.419834993779659" lon="10.241025974974036">
        <ele>851.87</ele>
        <time>2018-09-16T15:43:56Z</time>
      </trkpt>
      <trkpt lat="47.420525997877121" lon="10.240879040211439">
        <ele>857.14999999999998</ele>
        <time>2018-09-16T15:44:05Z</time>
      </trkpt>
      <trkpt lat="47.420682990923524" lon="10.240866970270872">
        <ele>858.11000000000001</ele>
        <time>2018-09-16T15:44:07Z</time>
      </trkpt>
      <trkpt lat="47.420766977593303" lon="10.240821959450841">
        <ele>858.59000000000003</ele>
        <time>2018-09-16T15:44:08Z</time>
      </trkpt>
      <trkpt lat="47.421201998367906" lon="10.240590032190084">
        <ele>860.51999999999998</ele>
        <time>2018-09-16T15:44:13Z</time>
      </trkpt>
      <trkpt lat="47.421290008351207" lon="10.240551978349686">
        <ele>861</ele>
        <time>2018-09-16T15:44:14Z</time>
      </trkpt>
      <trkpt lat="47.42138103581965" lon="10.240561030805111">
        <ele>861.48000000000002</ele>
        <time>2018-09-16T15:44:15Z</time>
      </trkpt>
      <trkpt lat="47.421468961983919" lon="10.240579973906279">
        <ele>861.96000000000004</ele>
        <time>2018-09-16T15:44:16Z</time>
      </trkpt>
      <trkpt lat="47.421557977795601" lon="10.240599000826478">
        <ele>862.44000000000005</ele>
        <time>2018-09-16T15:44:17Z</time>
      </trkpt>
      <trkpt lat="47.421649005264044" lon="10.240617021918297">
        <ele>862.91999999999996</ele>
        <time>2018-09-16T15:44:18Z</time>
      </trkpt>
      <trkpt lat="47.42191999219358" lon="10.240631019696593">
        <ele>864.84000000000003</ele>
        <time>2018-09-16T15:44:21Z</time>
      </trkpt>
      <trkpt lat="47.422000961378217" lon="10.240608975291252">
        <ele>865.32000000000005</ele>
        <time>2018-09-16T15:44:22Z</time>
      </trkpt>
      <trkpt lat="47.422076985239983" lon="10.240543009713292">
        <ele>865.79999999999995</ele>
        <time>2018-09-16T15:44:23Z</time>
      </trkpt>
      <trkpt lat="47.422147979959846" lon="10.240454999729991">
        <ele>866.28999999999996</ele>
        <time>2018-09-16T15:44:24Z</time>
      </trkpt>
      <trkpt lat="47.422224003821611" lon="10.240362966433167">
        <ele>866.28999999999996</ele>
        <time>2018-09-16T15:44:25Z</time>
      </trkpt>
      <trkpt lat="47.422283012419939" lon="10.240255007520318">
        <ele>866.28999999999996</ele>
        <time>2018-09-16T15:44:26Z</time>
      </trkpt>
      <trkpt lat="47.422341015189886" lon="10.240120980888605">
        <ele>866.28999999999996</ele>
        <time>2018-09-16T15:44:27Z</time>
      </trkpt>
      <trkpt lat="47.422404969111085" lon="10.239974968135357">
        <ele>865.79999999999995</ele>
        <time>2018-09-16T15:44:28Z</time>
      </trkpt>
      <trkpt lat="47.422470012679696" lon="10.239818980917335">
        <ele>865.32000000000005</ele>
        <time>2018-09-16T15:44:29Z</time>
      </trkpt>
      <trkpt lat="47.422529021278024" lon="10.2396360039711">
        <ele>864.84000000000003</ele>
        <time>2018-09-16T15:44:30Z</time>
      </trkpt>
      <trkpt lat="47.422590963542461" lon="10.23944104090333">
        <ele>863.88</ele>
        <time>2018-09-16T15:44:31Z</time>
      </trkpt>
      <trkpt lat="47.422675034031272" lon="10.239251023158431">
        <ele>862.44000000000005</ele>
        <time>2018-09-16T15:44:32Z</time>
      </trkpt>
      <trkpt lat="47.42278098128736" lon="10.239114984869957">
        <ele>861.48000000000002</ele>
        <time>2018-09-16T15:44:33Z</time>
      </trkpt>
      <trkpt lat="47.422903021797538" lon="10.239025969058275">
        <ele>861</ele>
        <time>2018-09-16T15:44:34Z</time>
      </trkpt>
      <trkpt lat="47.423001006245613" lon="10.238957991823554">
        <ele>860.51999999999998</ele>
        <time>2018-09-16T15:44:35Z</time>
      </trkpt>
      <trkpt lat="47.423112988471985" lon="10.238937959074974">
        <ele>860.03999999999996</ele>
        <time>2018-09-16T15:44:36Z</time>
      </trkpt>
      <trkpt lat="47.423211978748441" lon="10.238920021802187">
        <ele>859.55999999999995</ele>
        <time>2018-09-16T15:44:37Z</time>
      </trkpt>
      <trkpt lat="47.423307029530406" lon="10.238904012367129">
        <ele>859.08000000000004</ele>
        <time>2018-09-16T15:44:38Z</time>
      </trkpt>
      <trkpt lat="47.423405013978481" lon="10.238898983225226">
        <ele>859.08000000000004</ele>
        <time>2018-09-16T15:44:39Z</time>
      </trkpt>
      <trkpt lat="47.42351196706295" lon="10.238914992660284">
        <ele>858.59000000000003</ele>
        <time>2018-09-16T15:44:40Z</time>
      </trkpt>
      <trkpt lat="47.424194002524018" lon="10.238979030400515">
        <ele>859.08000000000004</ele>
        <time>2018-09-16T15:44:45Z</time>
      </trkpt>
      <trkpt lat="47.424341021105647" lon="10.238941982388496">
        <ele>859.55999999999995</ele>
        <time>2018-09-16T15:44:46Z</time>
      </trkpt>
      <trkpt lat="47.424471024423838" lon="10.238851038739085">
        <ele>860.51999999999998</ele>
        <time>2018-09-16T15:44:47Z</time>
      </trkpt>
      <trkpt lat="47.424611002206802" lon="10.238752970471978">
        <ele>861</ele>
        <time>2018-09-16T15:44:48Z</time>
      </trkpt>
      <trkpt lat="47.424761038273573" lon="10.238663032650948">
        <ele>861.96000000000004</ele>
        <time>2018-09-16T15:44:49Z</time>
      </trkpt>
      <trkpt lat="47.424923982471228" lon="10.238602012395859">
        <ele>862.91999999999996</ele>
        <time>2018-09-16T15:44:50Z</time>
      </trkpt>
      <trkpt lat="47.426108010113239" lon="10.238164979964495">
        <ele>868.21000000000004</ele>
        <time>2018-09-16T15:44:58Z</time>
      </trkpt>
      <trkpt lat="47.427440984174609" lon="10.237822998315096">
        <ele>871.09000000000003</ele>
        <time>2018-09-16T15:45:10Z</time>
      </trkpt>
      <trkpt lat="47.428487967699766" lon="10.237725013867021">
        <ele>872.04999999999995</ele>
        <time>2018-09-16T15:45:18Z</time>
      </trkpt>
      <trkpt lat="47.428621994331479" lon="10.237750997766852">
        <ele>872.04999999999995</ele>
        <time>2018-09-16T15:45:19Z</time>
      </trkpt>
      <trkpt lat="47.428759038448334" lon="10.237827021628618">
        <ele>871.57000000000005</ele>
        <time>2018-09-16T15:45:20Z</time>
      </trkpt>
      <trkpt lat="47.428899016231298" lon="10.237915031611919">
        <ele>871.57000000000005</ele>
        <time>2018-09-16T15:45:21Z</time>
      </trkpt>
      <trkpt lat="47.429049974307418" lon="10.238008992746472">
        <ele>871.57000000000005</ele>
        <time>2018-09-16T15:45:22Z</time>
      </trkpt>
      <trkpt lat="47.429204033687711" lon="10.238118041306734">
        <ele>871.57000000000005</ele>
        <time>2018-09-16T15:45:23Z</time>
      </trkpt>
      <trkpt lat="47.429509973153472" lon="10.238394979387522">
        <ele>872.04999999999995</ele>
        <time>2018-09-16T15:45:25Z</time>
      </trkpt>
      <trkpt lat="47.429657997563481" lon="10.238549960777164">
        <ele>872.04999999999995</ele>
        <time>2018-09-16T15:45:26Z</time>
      </trkpt>
      <trkpt lat="47.429796969518065" lon="10.238735033199191">
        <ele>872.52999999999997</ele>
        <time>2018-09-16T15:45:27Z</time>
      </trkpt>
      <trkpt lat="47.430669022724032" lon="10.240002041682601">
        <ele>875.89999999999998</ele>
        <time>2018-09-16T15:45:34Z</time>
      </trkpt>
      <trkpt lat="47.430785028263927" lon="10.24008996784687">
        <ele>876.38</ele>
        <time>2018-09-16T15:45:35Z</time>
      </trkpt>
      <trkpt lat="47.430904973298311" lon="10.240123998373747">
        <ele>876.38</ele>
        <time>2018-09-16T15:45:36Z</time>
      </trkpt>
      <trkpt lat="47.43103195913136" lon="10.240158028900623">
        <ele>876.86000000000001</ele>
        <time>2018-09-16T15:45:37Z</time>
      </trkpt>
      <trkpt lat="47.431167997419834" lon="10.240140007808805">
        <ele>877.34000000000003</ele>
        <time>2018-09-16T15:45:38Z</time>
      </trkpt>
      <trkpt lat="47.431306969374418" lon="10.240119975060225">
        <ele>877.34000000000003</ele>
        <time>2018-09-16T15:45:39Z</time>
      </trkpt>
      <trkpt lat="47.431455999612808" lon="10.240100026130676">
        <ele>877.34000000000003</ele>
        <time>2018-09-16T15:45:40Z</time>
      </trkpt>
      <trkpt lat="47.431607041507959" lon="10.240078987553716">
        <ele>877.34000000000003</ele>
        <time>2018-09-16T15:45:41Z</time>
      </trkpt>
      <trkpt lat="47.43173997849226" lon="10.24013003334403">
        <ele>877.34000000000003</ele>
        <time>2018-09-16T15:45:42Z</time>
      </trkpt>
      <trkpt lat="47.431877022609115" lon="10.24021603167057">
        <ele>877.34000000000003</ele>
        <time>2018-09-16T15:45:43Z</time>
      </trkpt>
      <trkpt lat="47.432020017877221" lon="10.24030496366322">
        <ele>877.82000000000005</ele>
        <time>2018-09-16T15:45:44Z</time>
      </trkpt>
      <trkpt lat="47.43216997012496" lon="10.240399008616805">
        <ele>877.82000000000005</ele>
        <time>2018-09-16T15:45:45Z</time>
      </trkpt>
      <trkpt lat="47.433139001950622" lon="10.241113984957337">
        <ele>879.74000000000001</ele>
        <time>2018-09-16T15:45:52Z</time>
      </trkpt>
      <trkpt lat="47.433226006105542" lon="10.24126997217536">
        <ele>879.74000000000001</ele>
        <time>2018-09-16T15:45:53Z</time>
      </trkpt>
      <trkpt lat="47.433306975290179" lon="10.241426965221763">
        <ele>880.22000000000003</ele>
        <time>2018-09-16T15:45:54Z</time>
      </trkpt>
      <trkpt lat="47.433557007461786" lon="10.241831978783011">
        <ele>880.71000000000004</ele>
        <time>2018-09-16T15:45:57Z</time>
      </trkpt>
      <trkpt lat="47.433662032708526" lon="10.241918982937932">
        <ele>880.71000000000004</ele>
        <time>2018-09-16T15:45:58Z</time>
      </trkpt>
      <trkpt lat="47.43377803824842" lon="10.241984026506543">
        <ele>880.71000000000004</ele>
        <time>2018-09-16T15:45:59Z</time>
      </trkpt>
      <trkpt lat="47.43455202318728" lon="10.242483001202345">
        <ele>882.14999999999998</ele>
        <time>2018-09-16T15:46:06Z</time>
      </trkpt>
      <trkpt lat="47.434736005961895" lon="10.242646029219031">
        <ele>882.63</ele>
        <time>2018-09-16T15:46:08Z</time>
      </trkpt>
      <trkpt lat="47.434858968481421" lon="10.242814002558589">
        <ele>882.63</ele>
        <time>2018-09-16T15:46:10Z</time>
      </trkpt>
      <trkpt lat="47.43491898290813" lon="10.242894971743226">
        <ele>882.14999999999998</ele>
        <time>2018-09-16T15:46:11Z</time>
      </trkpt>
      <trkpt lat="47.434973968192935" lon="10.242969989776611">
        <ele>881.66999999999996</ele>
        <time>2018-09-16T15:46:12Z</time>
      </trkpt>
      <trkpt lat="47.435024008154869" lon="10.243062023073435">
        <ele>881.66999999999996</ele>
        <time>2018-09-16T15:46:13Z</time>
      </trkpt>
      <trkpt lat="47.435081005096436" lon="10.243168976157904">
        <ele>880.71000000000004</ele>
        <time>2018-09-16T15:46:14Z</time>
      </trkpt>
      <trkpt lat="47.435143031179905" lon="10.243284981697798">
        <ele>880.71000000000004</ele>
        <time>2018-09-16T15:46:15Z</time>
      </trkpt>
      <trkpt lat="47.435203967615962" lon="10.243398975580931">
        <ele>879.74000000000001</ele>
        <time>2018-09-16T15:46:16Z</time>
      </trkpt>
      <trkpt lat="47.435265993699431" lon="10.243513975292444">
        <ele>878.77999999999997</ele>
        <time>2018-09-16T15:46:17Z</time>
      </trkpt>
      <trkpt lat="47.435325002297759" lon="10.243620006367564">
        <ele>877.82000000000005</ele>
        <time>2018-09-16T15:46:18Z</time>
      </trkpt>
      <trkpt lat="47.435380993410945" lon="10.243715979158878">
        <ele>877.34000000000003</ele>
        <time>2018-09-16T15:46:19Z</time>
      </trkpt>
      <trkpt lat="47.435493981465697" lon="10.243910020217299">
        <ele>875.89999999999998</ele>
        <time>2018-09-16T15:46:22Z</time>
      </trkpt>
      <trkpt lat="47.435519965365529" lon="10.243955031037331">
        <ele>875.89999999999998</ele>
        <time>2018-09-16T15:46:23Z</time>
      </trkpt>
      <trkpt lat="47.435596995055676" lon="10.244086040183902">
        <ele>874.46000000000004</ele>
        <time>2018-09-16T15:46:27Z</time>
      </trkpt>
      <trkpt lat="47.435596995055676" lon="10.244086040183902">
        <ele>873.98000000000002</ele>
        <time>2018-09-16T15:46:28Z</time>
      </trkpt>
      <trkpt lat="47.435596995055676" lon="10.244086040183902">
        <ele>873.00999999999999</ele>
        <time>2018-09-16T15:46:42Z</time>
      </trkpt>
      <trkpt lat="47.435596995055676" lon="10.244086040183902">
        <ele>873.00999999999999</ele>
        <time>2018-09-16T15:47:12Z</time>
      </trkpt>
      <trkpt lat="47.435596995055676" lon="10.244086040183902">
        <ele>870.13</ele>
        <time>2018-09-16T15:47:27Z</time>
      </trkpt>
      <trkpt lat="47.435596995055676" lon="10.244086040183902">
        <ele>870.13</ele>
        <time>2018-09-16T15:47:28Z</time>
      </trkpt>
      <trkpt lat="47.435596995055676" lon="10.244086040183902">
        <ele>868.21000000000004</ele>
        <time>2018-09-16T15:47:33Z</time>
      </trkpt>
      <trkpt lat="47.435596995055676" lon="10.244086040183902">
        <ele>868.69000000000005</ele>
        <time>2018-09-16T15:47:34Z</time>
      </trkpt>
      <trkpt lat="47.435596995055676" lon="10.244086040183902">
        <ele>868.69000000000005</ele>
        <time>2018-09-16T15:47:35Z</time>
      </trkpt>
      <trkpt lat="47.435596995055676" lon="10.244086040183902">
        <ele>869.16999999999996</ele>
        <time>2018-09-16T15:47:36Z</time>
      </trkpt>
      <trkpt lat="47.435596995055676" lon="10.244086040183902">
        <ele>869.16999999999996</ele>
        <time>2018-09-16T15:47:37Z</time>
      </trkpt>
      <trkpt lat="47.435596995055676" lon="10.244086040183902">
        <ele>869.64999999999998</ele>
        <time>2018-09-16T15:47:54Z</time>
      </trkpt>
      <trkpt lat="47.435596995055676" lon="10.244086040183902">
        <ele>869.64999999999998</ele>
        <time>2018-09-16T15:48:33Z</time>
      </trkpt>
      <trkpt lat="47.435596995055676" lon="10.244086040183902">
        <ele>869.64999999999998</ele>
        <time>2018-09-16T15:48:52Z</time>
      </trkpt>
      <trkpt lat="47.435596995055676" lon="10.244086040183902">
        <ele>869.64999999999998</ele>
        <time>2018-09-16T15:48:54Z</time>
      </trkpt>
      <trkpt lat="47.435688022524118" lon="10.244613010436296">
        <ele>866.76999999999998</ele>
        <time>2018-09-16T15:49:00Z</time>
      </trkpt>
      <trkpt lat="47.435750970616937" lon="10.244737984612584">
        <ele>866.28999999999996</ele>
        <time>2018-09-16T15:49:01Z</time>
      </trkpt>
      <trkpt lat="47.435831017792225" lon="10.24485700763762">
        <ele>865.32000000000005</ele>
        <time>2018-09-16T15:49:02Z</time>
      </trkpt>
      <trkpt lat="47.435921961441636" lon="10.244948035106063">
        <ele>864.36000000000001</ele>
        <time>2018-09-16T15:49:03Z</time>
      </trkpt>
      <trkpt lat="47.43603503331542" lon="10.245003020390868">
        <ele>863.39999999999998</ele>
        <time>2018-09-16T15:49:04Z</time>
      </trkpt>
      <trkpt lat="47.436153972521424" lon="10.245030010119081">
        <ele>861.96000000000004</ele>
        <time>2018-09-16T15:49:05Z</time>
      </trkpt>
      <trkpt lat="47.436284981667995" lon="10.244954992085695">
        <ele>861</ele>
        <time>2018-09-16T15:49:06Z</time>
      </trkpt>
      <trkpt lat="47.436423031613231" lon="10.244874022901058">
        <ele>860.03999999999996</ele>
        <time>2018-09-16T15:49:07Z</time>
      </trkpt>
      <trkpt lat="47.436568960547447" lon="10.244790036231279">
        <ele>859.08000000000004</ele>
        <time>2018-09-16T15:49:08Z</time>
      </trkpt>
      <trkpt lat="47.43672301992774" lon="10.244701020419598">
        <ele>858.59000000000003</ele>
        <time>2018-09-16T15:49:09Z</time>
      </trkpt>
      <trkpt lat="47.437673024833202" lon="10.244181007146835">
        <ele>852.83000000000004</ele>
        <time>2018-09-16T15:49:15Z</time>
      </trkpt>
      <trkpt lat="47.437828006222844" lon="10.244149994105101">
        <ele>851.38</ele>
        <time>2018-09-16T15:49:16Z</time>
      </trkpt>
      <trkpt lat="47.438536025583744" lon="10.244149994105101">
        <ele>845.13999999999999</ele>
        <time>2018-09-16T15:49:21Z</time>
      </trkpt>
      <trkpt lat="47.438663011416793" lon="10.244230041280389">
        <ele>844.65999999999997</ele>
        <time>2018-09-16T15:49:22Z</time>
      </trkpt>
      <trkpt lat="47.438778011128306" lon="10.244301036000252">
        <ele>844.17999999999995</ele>
        <time>2018-09-16T15:49:23Z</time>
      </trkpt>
      <trkpt lat="47.438888987526298" lon="10.244371024891734">
        <ele>844.17999999999995</ele>
        <time>2018-09-16T15:49:24Z</time>
      </trkpt>
      <trkpt lat="47.438997030258179" lon="10.244437996298075">
        <ele>844.17999999999995</ele>
        <time>2018-09-16T15:49:25Z</time>
      </trkpt>
      <trkpt lat="47.439102977514267" lon="10.244498010724783">
        <ele>844.17999999999995</ele>
        <time>2018-09-16T15:49:26Z</time>
      </trkpt>
      <trkpt lat="47.439314033836126" lon="10.244604041799903">
        <ele>843.69000000000005</ele>
        <time>2018-09-16T15:49:28Z</time>
      </trkpt>
      <trkpt lat="47.440704004839063" lon="10.245225979015231">
        <ele>838.88999999999999</ele>
        <time>2018-09-16T15:49:39Z</time>
      </trkpt>
      <trkpt lat="47.441413030028343" lon="10.24541599676013">
        <ele>838.40999999999997</ele>
        <time>2018-09-16T15:49:44Z</time>
      </trkpt>
      <trkpt lat="47.44155895896256" lon="10.24541599676013">
        <ele>838.40999999999997</ele>
        <time>2018-09-16T15:49:45Z</time>
      </trkpt>
      <trkpt lat="47.441701032221317" lon="10.24541599676013">
        <ele>838.88999999999999</ele>
        <time>2018-09-16T15:49:46Z</time>
      </trkpt>
      <trkpt lat="47.44183799251914" lon="10.245410967618227">
        <ele>838.88999999999999</ele>
        <time>2018-09-16T15:49:47Z</time>
      </trkpt>
      <trkpt lat="47.441974030807614" lon="10.245370985940099">
        <ele>838.40999999999997</ele>
        <time>2018-09-16T15:49:48Z</time>
      </trkpt>
      <trkpt lat="47.442987989634275" lon="10.245050964877009">
        <ele>837.45000000000005</ele>
        <time>2018-09-16T15:49:57Z</time>
      </trkpt>
      <trkpt lat="47.443500962108374" lon="10.244862958788872">
        <ele>836.48000000000002</ele>
        <time>2018-09-16T15:50:04Z</time>
      </trkpt>
      <trkpt lat="47.443551002070308" lon="10.24494300596416">
        <ele>836.48000000000002</ele>
        <time>2018-09-16T15:50:05Z</time>
      </trkpt>
      <trkpt lat="47.443575980141759" lon="10.244997991248965">
        <ele>836.48000000000002</ele>
        <time>2018-09-16T15:50:06Z</time>
      </trkpt>
      <trkpt lat="47.443631971254945" lon="10.245127994567156">
        <ele>836.48000000000002</ele>
        <time>2018-09-16T15:50:08Z</time>
      </trkpt>
      <trkpt lat="47.443676982074976" lon="10.245212987065315">
        <ele>836</ele>
        <time>2018-09-16T15:50:09Z</time>
      </trkpt>
      <trkpt lat="47.44379298761487" lon="10.245322035625577">
        <ele>836</ele>
        <time>2018-09-16T15:50:11Z</time>
      </trkpt>
      <trkpt lat="47.44389901868999" lon="10.245421025902033">
        <ele>835.51999999999998</ele>
        <time>2018-09-16T15:50:13Z</time>
      </trkpt>
      <trkpt lat="47.443943023681641" lon="10.245462013408542">
        <ele>835.51999999999998</ele>
        <time>2018-09-16T15:50:14Z</time>
      </trkpt>
      <trkpt lat="47.443980993703008" lon="10.245497971773148">
        <ele>835.03999999999996</ele>
        <time>2018-09-16T15:50:15Z</time>
      </trkpt>
      <trkpt lat="47.444003038108349" lon="10.245556980371475">
        <ele>834.55999999999995</ele>
        <time>2018-09-16T15:50:16Z</time>
      </trkpt>
      <trkpt lat="47.443992979824543" lon="10.245625963434577">
        <ele>834.08000000000004</ele>
        <time>2018-09-16T15:50:17Z</time>
      </trkpt>
      <trkpt lat="47.443981999531388" lon="10.245701987296343">
        <ele>834.08000000000004</ele>
        <time>2018-09-16T15:50:18Z</time>
      </trkpt>
      <trkpt lat="47.443970013409853" lon="10.245787985622883">
        <ele>833.60000000000002</ele>
        <time>2018-09-16T15:50:19Z</time>
      </trkpt>
      <trkpt lat="47.443937994539738" lon="10.245881024748087">
        <ele>833.12</ele>
        <time>2018-09-16T15:50:20Z</time>
      </trkpt>
      <trkpt lat="47.443898012861609" lon="10.245966017246246">
        <ele>832.63999999999999</ele>
        <time>2018-09-16T15:50:21Z</time>
      </trkpt>
      <trkpt lat="47.443709000945091" lon="10.246370024979115">
        <ele>831.67999999999995</ele>
        <time>2018-09-16T15:50:26Z</time>
      </trkpt>
      <trkpt lat="47.443679999560118" lon="10.246430961415172">
        <ele>831.20000000000005</ele>
        <time>2018-09-16T15:50:27Z</time>
      </trkpt>
      <trkpt lat="47.443655021488667" lon="10.246485024690628">
        <ele>831.20000000000005</ele>
        <time>2018-09-16T15:50:28Z</time>
      </trkpt>
      <trkpt lat="47.443585032597184" lon="10.246501034125686">
        <ele>831.20000000000005</ele>
        <time>2018-09-16T15:50:29Z</time>
      </trkpt>
      <trkpt lat="47.443540021777153" lon="10.246492987498641">
        <ele>830.72000000000003</ele>
        <time>2018-09-16T15:50:30Z</time>
      </trkpt>
      <trkpt lat="47.443485958501697" lon="10.24649198167026">
        <ele>830.72000000000003</ele>
        <time>2018-09-16T15:50:31Z</time>
      </trkpt>
      <trkpt lat="47.443425022065639" lon="10.246498016640544">
        <ele>830.24000000000001</ele>
        <time>2018-09-16T15:50:32Z</time>
      </trkpt>
      <trkpt lat="47.443360984325409" lon="10.246504973620176">
        <ele>829.75999999999999</ele>
        <time>2018-09-16T15:50:33Z</time>
      </trkpt>
      <trkpt lat="47.443293007090688" lon="10.24651201441884">
        <ele>829.75999999999999</ele>
        <time>2018-09-16T15:50:34Z</time>
      </trkpt>
      <trkpt lat="47.443140037357807" lon="10.246529029682279">
        <ele>829.26999999999998</ele>
        <time>2018-09-16T15:50:36Z</time>
      </trkpt>
      <trkpt lat="47.443064013496041" lon="10.246562976390123">
        <ele>828.78999999999996</ele>
        <time>2018-09-16T15:50:37Z</time>
      </trkpt>
      <trkpt lat="47.442994024604559" lon="10.246614022180438">
        <ele>828.78999999999996</ele>
        <time>2018-09-16T15:50:38Z</time>
      </trkpt>
      <trkpt lat="47.442927975207567" lon="10.246661966666579">
        <ele>828.30999999999995</ele>
        <time>2018-09-16T15:50:39Z</time>
      </trkpt>
      <trkpt lat="47.442870978266001" lon="10.246703960001469">
        <ele>828.30999999999995</ele>
        <time>2018-09-16T15:50:40Z</time>
      </trkpt>
      <trkpt lat="47.442820016294718" lon="10.24678903631866">
        <ele>827.83000000000004</ele>
        <time>2018-09-16T15:50:41Z</time>
      </trkpt>
      <trkpt lat="47.44278104044497" lon="10.24685500189662">
        <ele>827.83000000000004</ele>
        <time>2018-09-16T15:50:42Z</time>
      </trkpt>
      <trkpt lat="47.442741980776191" lon="10.24692096747458">
        <ele>827.83000000000004</ele>
        <time>2018-09-16T15:50:43Z</time>
      </trkpt>
      <trkpt lat="47.442704010754824" lon="10.24698500521481">
        <ele>827.83000000000004</ele>
        <time>2018-09-16T15:50:44Z</time>
      </trkpt>
      <trkpt lat="47.442579958587885" lon="10.247192960232496">
        <ele>827.35000000000002</ele>
        <time>2018-09-16T15:50:48Z</time>
      </trkpt>
    </trkseg>
  </trk>

</gpx>